<?xml version="1.0" encoding="UTF-8" standalone="no" ?>
<gpx xmlns="http://www.topografix.com/GPX/1/1" xmlns:xsi="http://www.w3.org/2001/XMLSchema-instance" xsi:schemaLocation="http://www.topografix.com/GPX/1/1 http://www.topografix.com/GPX/1/1/gpx.xsd" version="1.1" creator="VisuGPX - https://www.visugpx.com">
  <metadata>
    <name>cauterets argeles</name>
  </metadata>
  <trk>
    <name><![CDATA[cauterets argeles]]></name>
    <extensions>
      <line xmlns="http://www.topografix.com/GPX/gpx_style/0/2">
        <color>0000FF</color>
        <width>4</width>
      </line>
    </extensions>
    <trkseg>
      <trkpt lat="42.88109" lon="-0.17316">
        <ele>2289</ele>
        <time>2018-09-02T05:29:56Z</time>
      </trkpt>
      <trkpt lat="42.88107" lon="-0.17321">
        <ele>2288.4</ele>
        <time>2018-09-02T05:30:03Z</time>
      </trkpt>
      <trkpt lat="42.88106" lon="-0.17329">
        <ele>2287.5</ele>
        <time>2018-09-02T05:30:04Z</time>
      </trkpt>
      <trkpt lat="42.88108" lon="-0.17337">
        <ele>2287.5</ele>
        <time>2018-09-02T05:30:05Z</time>
      </trkpt>
      <trkpt lat="42.8811" lon="-0.17346">
        <ele>2287.3</ele>
        <time>2018-09-02T05:30:06Z</time>
      </trkpt>
      <trkpt lat="42.88113" lon="-0.17356">
        <ele>2286.6</ele>
        <time>2018-09-02T05:30:07Z</time>
      </trkpt>
      <trkpt lat="42.88116" lon="-0.17368">
        <ele>2286.2</ele>
        <time>2018-09-02T05:30:08Z</time>
      </trkpt>
      <trkpt lat="42.88116" lon="-0.17378">
        <ele>2285.3</ele>
        <time>2018-09-02T05:30:09Z</time>
      </trkpt>
      <trkpt lat="42.88115" lon="-0.17388">
        <ele>2283.6</ele>
        <time>2018-09-02T05:30:10Z</time>
      </trkpt>
      <trkpt lat="42.88115" lon="-0.17396">
        <ele>2282.6</ele>
        <time>2018-09-02T05:30:11Z</time>
      </trkpt>
      <trkpt lat="42.88116" lon="-0.17406">
        <ele>2282.1</ele>
        <time>2018-09-02T05:30:12Z</time>
      </trkpt>
      <trkpt lat="42.88116" lon="-0.17415">
        <ele>2281.2</ele>
        <time>2018-09-02T05:30:13Z</time>
      </trkpt>
      <trkpt lat="42.88117" lon="-0.17425">
        <ele>2280.7</ele>
        <time>2018-09-02T05:30:14Z</time>
      </trkpt>
      <trkpt lat="42.88119" lon="-0.17433">
        <ele>2281.3</ele>
        <time>2018-09-02T05:30:15Z</time>
      </trkpt>
      <trkpt lat="42.88121" lon="-0.17439">
        <ele>2281.9</ele>
        <time>2018-09-02T05:30:16Z</time>
      </trkpt>
      <trkpt lat="42.88121" lon="-0.17445">
        <ele>2281.2</ele>
        <time>2018-09-02T05:30:17Z</time>
      </trkpt>
      <trkpt lat="42.88121" lon="-0.1745">
        <ele>2280.7</ele>
        <time>2018-09-02T05:30:18Z</time>
      </trkpt>
      <trkpt lat="42.8812" lon="-0.17456">
        <ele>2279.6</ele>
        <time>2018-09-02T05:30:19Z</time>
      </trkpt>
      <trkpt lat="42.88119" lon="-0.17469">
        <ele>2277.4</ele>
        <time>2018-09-02T05:30:20Z</time>
      </trkpt>
      <trkpt lat="42.88118" lon="-0.17478">
        <ele>2276.5</ele>
        <time>2018-09-02T05:30:22Z</time>
      </trkpt>
      <trkpt lat="42.88117" lon="-0.17487">
        <ele>2275.4</ele>
        <time>2018-09-02T05:30:23Z</time>
      </trkpt>
      <trkpt lat="42.88117" lon="-0.17496">
        <ele>2274.7</ele>
        <time>2018-09-02T05:30:24Z</time>
      </trkpt>
      <trkpt lat="42.88117" lon="-0.17505">
        <ele>2274</ele>
        <time>2018-09-02T05:30:25Z</time>
      </trkpt>
      <trkpt lat="42.88117" lon="-0.17515">
        <ele>2273.2</ele>
        <time>2018-09-02T05:30:26Z</time>
      </trkpt>
      <trkpt lat="42.88117" lon="-0.17524">
        <ele>2272.9</ele>
        <time>2018-09-02T05:30:27Z</time>
      </trkpt>
      <trkpt lat="42.88118" lon="-0.17534">
        <ele>2272.4</ele>
        <time>2018-09-02T05:30:28Z</time>
      </trkpt>
      <trkpt lat="42.88117" lon="-0.17544">
        <ele>2270.7</ele>
        <time>2018-09-02T05:30:29Z</time>
      </trkpt>
      <trkpt lat="42.88116" lon="-0.17554">
        <ele>2268.6</ele>
        <time>2018-09-02T05:30:30Z</time>
      </trkpt>
      <trkpt lat="42.88115" lon="-0.17563">
        <ele>2267.1</ele>
        <time>2018-09-02T05:30:31Z</time>
      </trkpt>
      <trkpt lat="42.88114" lon="-0.17573">
        <ele>2266.5</ele>
        <time>2018-09-02T05:30:32Z</time>
      </trkpt>
      <trkpt lat="42.88113" lon="-0.17583">
        <ele>2265.7</ele>
        <time>2018-09-02T05:30:33Z</time>
      </trkpt>
      <trkpt lat="42.88113" lon="-0.17593">
        <ele>2265.2</ele>
        <time>2018-09-02T05:30:34Z</time>
      </trkpt>
      <trkpt lat="42.88111" lon="-0.17603">
        <ele>2264</ele>
        <time>2018-09-02T05:30:35Z</time>
      </trkpt>
      <trkpt lat="42.88109" lon="-0.17613">
        <ele>2262.8</ele>
        <time>2018-09-02T05:30:36Z</time>
      </trkpt>
      <trkpt lat="42.88107" lon="-0.17624">
        <ele>2260.9</ele>
        <time>2018-09-02T05:30:37Z</time>
      </trkpt>
      <trkpt lat="42.88105" lon="-0.17635">
        <ele>2259.1</ele>
        <time>2018-09-02T05:30:38Z</time>
      </trkpt>
      <trkpt lat="42.88102" lon="-0.17645">
        <ele>2257.3</ele>
        <time>2018-09-02T05:30:39Z</time>
      </trkpt>
      <trkpt lat="42.881" lon="-0.17655">
        <ele>2256</ele>
        <time>2018-09-02T05:30:40Z</time>
      </trkpt>
      <trkpt lat="42.881" lon="-0.17665">
        <ele>2255.6</ele>
        <time>2018-09-02T05:30:41Z</time>
      </trkpt>
      <trkpt lat="42.881" lon="-0.17674">
        <ele>2255.6</ele>
        <time>2018-09-02T05:30:42Z</time>
      </trkpt>
      <trkpt lat="42.881" lon="-0.17684">
        <ele>2255.5</ele>
        <time>2018-09-02T05:30:43Z</time>
      </trkpt>
      <trkpt lat="42.88098" lon="-0.17693">
        <ele>2254.3</ele>
        <time>2018-09-02T05:30:44Z</time>
      </trkpt>
      <trkpt lat="42.88095" lon="-0.17701">
        <ele>2252.5</ele>
        <time>2018-09-02T05:30:45Z</time>
      </trkpt>
      <trkpt lat="42.88093" lon="-0.17709">
        <ele>2251.6</ele>
        <time>2018-09-02T05:30:46Z</time>
      </trkpt>
      <trkpt lat="42.88092" lon="-0.17719">
        <ele>2250.8</ele>
        <time>2018-09-02T05:30:47Z</time>
      </trkpt>
      <trkpt lat="42.8809" lon="-0.17728">
        <ele>2249.5</ele>
        <time>2018-09-02T05:30:48Z</time>
      </trkpt>
      <trkpt lat="42.88088" lon="-0.17739">
        <ele>2247.9</ele>
        <time>2018-09-02T05:30:49Z</time>
      </trkpt>
      <trkpt lat="42.88086" lon="-0.17749">
        <ele>2246.5</ele>
        <time>2018-09-02T05:30:50Z</time>
      </trkpt>
      <trkpt lat="42.88084" lon="-0.17759">
        <ele>2245.7</ele>
        <time>2018-09-02T05:30:51Z</time>
      </trkpt>
      <trkpt lat="42.88082" lon="-0.17768">
        <ele>2244.3</ele>
        <time>2018-09-02T05:30:52Z</time>
      </trkpt>
      <trkpt lat="42.88079" lon="-0.17779">
        <ele>2242.4</ele>
        <time>2018-09-02T05:30:53Z</time>
      </trkpt>
      <trkpt lat="42.88077" lon="-0.17789">
        <ele>2242.1</ele>
        <time>2018-09-02T05:30:54Z</time>
      </trkpt>
      <trkpt lat="42.88075" lon="-0.178">
        <ele>2241.1</ele>
        <time>2018-09-02T05:30:55Z</time>
      </trkpt>
      <trkpt lat="42.88072" lon="-0.1781">
        <ele>2240.2</ele>
        <time>2018-09-02T05:30:56Z</time>
      </trkpt>
      <trkpt lat="42.8807" lon="-0.1782">
        <ele>2239.5</ele>
        <time>2018-09-02T05:30:57Z</time>
      </trkpt>
      <trkpt lat="42.88069" lon="-0.1783">
        <ele>2239.4</ele>
        <time>2018-09-02T05:30:58Z</time>
      </trkpt>
      <trkpt lat="42.88067" lon="-0.1784">
        <ele>2238.6</ele>
        <time>2018-09-02T05:30:59Z</time>
      </trkpt>
      <trkpt lat="42.88063" lon="-0.17849">
        <ele>2237.6</ele>
        <time>2018-09-02T05:31:00Z</time>
      </trkpt>
      <trkpt lat="42.88058" lon="-0.17858">
        <ele>2236.1</ele>
        <time>2018-09-02T05:31:01Z</time>
      </trkpt>
      <trkpt lat="42.88056" lon="-0.17868">
        <ele>2235.5</ele>
        <time>2018-09-02T05:31:02Z</time>
      </trkpt>
      <trkpt lat="42.88054" lon="-0.17879">
        <ele>2235.5</ele>
        <time>2018-09-02T05:31:03Z</time>
      </trkpt>
      <trkpt lat="42.8805" lon="-0.1789">
        <ele>2235.1</ele>
        <time>2018-09-02T05:31:04Z</time>
      </trkpt>
      <trkpt lat="42.88045" lon="-0.17897">
        <ele>2234.3</ele>
        <time>2018-09-02T05:31:05Z</time>
      </trkpt>
      <trkpt lat="42.88039" lon="-0.17904">
        <ele>2233.1</ele>
        <time>2018-09-02T05:31:06Z</time>
      </trkpt>
      <trkpt lat="42.88033" lon="-0.17911">
        <ele>2231.9</ele>
        <time>2018-09-02T05:31:07Z</time>
      </trkpt>
      <trkpt lat="42.88028" lon="-0.17917">
        <ele>2231.2</ele>
        <time>2018-09-02T05:31:08Z</time>
      </trkpt>
      <trkpt lat="42.88025" lon="-0.17923">
        <ele>2230.3</ele>
        <time>2018-09-02T05:31:09Z</time>
      </trkpt>
      <trkpt lat="42.88023" lon="-0.17927">
        <ele>2229.7</ele>
        <time>2018-09-02T05:31:10Z</time>
      </trkpt>
      <trkpt lat="42.88022" lon="-0.17938">
        <ele>2230.2</ele>
        <time>2018-09-02T05:31:12Z</time>
      </trkpt>
      <trkpt lat="42.8802" lon="-0.17945">
        <ele>2229.9</ele>
        <time>2018-09-02T05:31:13Z</time>
      </trkpt>
      <trkpt lat="42.88016" lon="-0.17953">
        <ele>2229</ele>
        <time>2018-09-02T05:31:14Z</time>
      </trkpt>
      <trkpt lat="42.88013" lon="-0.17961">
        <ele>2227.9</ele>
        <time>2018-09-02T05:31:15Z</time>
      </trkpt>
      <trkpt lat="42.88012" lon="-0.1797">
        <ele>2228.3</ele>
        <time>2018-09-02T05:31:16Z</time>
      </trkpt>
      <trkpt lat="42.88011" lon="-0.17978">
        <ele>2228.7</ele>
        <time>2018-09-02T05:31:17Z</time>
      </trkpt>
      <trkpt lat="42.88008" lon="-0.17986">
        <ele>2228.3</ele>
        <time>2018-09-02T05:31:18Z</time>
      </trkpt>
      <trkpt lat="42.88005" lon="-0.17994">
        <ele>2227.7</ele>
        <time>2018-09-02T05:31:19Z</time>
      </trkpt>
      <trkpt lat="42.88002" lon="-0.18002">
        <ele>2227.5</ele>
        <time>2018-09-02T05:31:20Z</time>
      </trkpt>
      <trkpt lat="42.88" lon="-0.1801">
        <ele>2227.7</ele>
        <time>2018-09-02T05:31:21Z</time>
      </trkpt>
      <trkpt lat="42.87993" lon="-0.18029">
        <ele>2229.6</ele>
        <time>2018-09-02T05:31:24Z</time>
      </trkpt>
      <trkpt lat="42.87989" lon="-0.18039">
        <ele>2230.4</ele>
        <time>2018-09-02T05:31:26Z</time>
      </trkpt>
      <trkpt lat="42.87984" lon="-0.1805">
        <ele>2231</ele>
        <time>2018-09-02T05:31:28Z</time>
      </trkpt>
      <trkpt lat="42.87976" lon="-0.18064">
        <ele>2231.5</ele>
        <time>2018-09-02T05:31:31Z</time>
      </trkpt>
      <trkpt lat="42.87974" lon="-0.18069">
        <ele>2231.8</ele>
        <time>2018-09-02T05:31:32Z</time>
      </trkpt>
      <trkpt lat="42.87971" lon="-0.18074">
        <ele>2232.2</ele>
        <time>2018-09-02T05:31:33Z</time>
      </trkpt>
      <trkpt lat="42.87969" lon="-0.1808">
        <ele>2232.8</ele>
        <time>2018-09-02T05:31:34Z</time>
      </trkpt>
      <trkpt lat="42.87967" lon="-0.18085">
        <ele>2233.4</ele>
        <time>2018-09-02T05:31:35Z</time>
      </trkpt>
      <trkpt lat="42.87965" lon="-0.18091">
        <ele>2233.8</ele>
        <time>2018-09-02T05:31:36Z</time>
      </trkpt>
      <trkpt lat="42.87963" lon="-0.18096">
        <ele>2234</ele>
        <time>2018-09-02T05:31:37Z</time>
      </trkpt>
      <trkpt lat="42.87958" lon="-0.18107">
        <ele>2234.5</ele>
        <time>2018-09-02T05:31:39Z</time>
      </trkpt>
      <trkpt lat="42.87956" lon="-0.18111">
        <ele>2234.6</ele>
        <time>2018-09-02T05:31:40Z</time>
      </trkpt>
      <trkpt lat="42.87954" lon="-0.18116">
        <ele>2234.9</ele>
        <time>2018-09-02T05:31:41Z</time>
      </trkpt>
      <trkpt lat="42.87953" lon="-0.18121">
        <ele>2235.2</ele>
        <time>2018-09-02T05:31:42Z</time>
      </trkpt>
      <trkpt lat="42.87952" lon="-0.18127">
        <ele>2235.5</ele>
        <time>2018-09-02T05:31:43Z</time>
      </trkpt>
      <trkpt lat="42.8795" lon="-0.18133">
        <ele>2235.7</ele>
        <time>2018-09-02T05:31:44Z</time>
      </trkpt>
      <trkpt lat="42.87948" lon="-0.1814">
        <ele>2235.8</ele>
        <time>2018-09-02T05:31:45Z</time>
      </trkpt>
      <trkpt lat="42.87947" lon="-0.18146">
        <ele>2236.1</ele>
        <time>2018-09-02T05:31:46Z</time>
      </trkpt>
      <trkpt lat="42.87947" lon="-0.18152">
        <ele>2236.5</ele>
        <time>2018-09-02T05:31:47Z</time>
      </trkpt>
      <trkpt lat="42.87946" lon="-0.18158">
        <ele>2236.8</ele>
        <time>2018-09-02T05:31:48Z</time>
      </trkpt>
      <trkpt lat="42.87945" lon="-0.18165">
        <ele>2237</ele>
        <time>2018-09-02T05:31:49Z</time>
      </trkpt>
      <trkpt lat="42.87944" lon="-0.18172">
        <ele>2237.3</ele>
        <time>2018-09-02T05:31:50Z</time>
      </trkpt>
      <trkpt lat="42.87942" lon="-0.18178">
        <ele>2237</ele>
        <time>2018-09-02T05:31:51Z</time>
      </trkpt>
      <trkpt lat="42.87938" lon="-0.18193">
        <ele>2236.6</ele>
        <time>2018-09-02T05:31:53Z</time>
      </trkpt>
      <trkpt lat="42.87933" lon="-0.18208">
        <ele>2236.8</ele>
        <time>2018-09-02T05:31:55Z</time>
      </trkpt>
      <trkpt lat="42.8793" lon="-0.18215">
        <ele>2236.9</ele>
        <time>2018-09-02T05:31:56Z</time>
      </trkpt>
      <trkpt lat="42.87927" lon="-0.18221">
        <ele>2236.8</ele>
        <time>2018-09-02T05:31:57Z</time>
      </trkpt>
      <trkpt lat="42.87921" lon="-0.18233">
        <ele>2236.4</ele>
        <time>2018-09-02T05:31:59Z</time>
      </trkpt>
      <trkpt lat="42.87919" lon="-0.1824">
        <ele>2236.6</ele>
        <time>2018-09-02T05:32:00Z</time>
      </trkpt>
      <trkpt lat="42.87905" lon="-0.1827">
        <ele>2235.4</ele>
        <time>2018-09-02T05:32:05Z</time>
      </trkpt>
      <trkpt lat="42.87892" lon="-0.18295">
        <ele>2235.6</ele>
        <time>2018-09-02T05:32:09Z</time>
      </trkpt>
      <trkpt lat="42.87879" lon="-0.1832">
        <ele>2236.4</ele>
        <time>2018-09-02T05:32:13Z</time>
      </trkpt>
      <trkpt lat="42.87874" lon="-0.18331">
        <ele>2237.1</ele>
        <time>2018-09-02T05:32:15Z</time>
      </trkpt>
      <trkpt lat="42.87871" lon="-0.18337">
        <ele>2237.4</ele>
        <time>2018-09-02T05:32:16Z</time>
      </trkpt>
      <trkpt lat="42.87869" lon="-0.18341">
        <ele>2237.4</ele>
        <time>2018-09-02T05:32:17Z</time>
      </trkpt>
      <trkpt lat="42.87867" lon="-0.18346">
        <ele>2237.5</ele>
        <time>2018-09-02T05:32:18Z</time>
      </trkpt>
      <trkpt lat="42.87865" lon="-0.18351">
        <ele>2237.7</ele>
        <time>2018-09-02T05:32:19Z</time>
      </trkpt>
      <trkpt lat="42.87864" lon="-0.18355">
        <ele>2237.9</ele>
        <time>2018-09-02T05:32:20Z</time>
      </trkpt>
      <trkpt lat="42.87863" lon="-0.1836">
        <ele>2238.1</ele>
        <time>2018-09-02T05:32:21Z</time>
      </trkpt>
      <trkpt lat="42.87862" lon="-0.18365">
        <ele>2238.4</ele>
        <time>2018-09-02T05:32:22Z</time>
      </trkpt>
      <trkpt lat="42.87862" lon="-0.18371">
        <ele>2238.8</ele>
        <time>2018-09-02T05:32:23Z</time>
      </trkpt>
      <trkpt lat="42.87862" lon="-0.18376">
        <ele>2239.2</ele>
        <time>2018-09-02T05:32:24Z</time>
      </trkpt>
      <trkpt lat="42.87862" lon="-0.18381">
        <ele>2239.5</ele>
        <time>2018-09-02T05:32:25Z</time>
      </trkpt>
      <trkpt lat="42.87859" lon="-0.18393">
        <ele>2240.1</ele>
        <time>2018-09-02T05:32:27Z</time>
      </trkpt>
      <trkpt lat="42.87858" lon="-0.18398">
        <ele>2240.3</ele>
        <time>2018-09-02T05:32:28Z</time>
      </trkpt>
      <trkpt lat="42.87855" lon="-0.18404">
        <ele>2240.6</ele>
        <time>2018-09-02T05:32:29Z</time>
      </trkpt>
      <trkpt lat="42.87853" lon="-0.18409">
        <ele>2240.7</ele>
        <time>2018-09-02T05:32:30Z</time>
      </trkpt>
      <trkpt lat="42.87849" lon="-0.18413">
        <ele>2240.8</ele>
        <time>2018-09-02T05:32:31Z</time>
      </trkpt>
      <trkpt lat="42.87845" lon="-0.18416">
        <ele>2240.8</ele>
        <time>2018-09-02T05:32:32Z</time>
      </trkpt>
      <trkpt lat="42.87841" lon="-0.1842">
        <ele>2241.2</ele>
        <time>2018-09-02T05:32:33Z</time>
      </trkpt>
      <trkpt lat="42.87828" lon="-0.18439">
        <ele>2243.8</ele>
        <time>2018-09-02T05:32:38Z</time>
      </trkpt>
      <trkpt lat="42.87818" lon="-0.1846">
        <ele>2246.4</ele>
        <time>2018-09-02T05:32:43Z</time>
      </trkpt>
      <trkpt lat="42.87816" lon="-0.18474">
        <ele>2248</ele>
        <time>2018-09-02T05:32:46Z</time>
      </trkpt>
      <trkpt lat="42.87817" lon="-0.18478">
        <ele>2248.5</ele>
        <time>2018-09-02T05:32:47Z</time>
      </trkpt>
      <trkpt lat="42.87817" lon="-0.18482">
        <ele>2249</ele>
        <time>2018-09-02T05:32:48Z</time>
      </trkpt>
      <trkpt lat="42.87817" lon="-0.18485">
        <ele>2249.3</ele>
        <time>2018-09-02T05:32:49Z</time>
      </trkpt>
      <trkpt lat="42.87816" lon="-0.18488">
        <ele>2249.5</ele>
        <time>2018-09-02T05:32:50Z</time>
      </trkpt>
      <trkpt lat="42.87815" lon="-0.18491">
        <ele>2249.7</ele>
        <time>2018-09-02T05:32:51Z</time>
      </trkpt>
      <trkpt lat="42.87813" lon="-0.18494">
        <ele>2249.8</ele>
        <time>2018-09-02T05:32:52Z</time>
      </trkpt>
      <trkpt lat="42.87811" lon="-0.18497">
        <ele>2249.7</ele>
        <time>2018-09-02T05:32:53Z</time>
      </trkpt>
      <trkpt lat="42.87808" lon="-0.18499">
        <ele>2249.4</ele>
        <time>2018-09-02T05:32:54Z</time>
      </trkpt>
      <trkpt lat="42.87806" lon="-0.18502">
        <ele>2249.3</ele>
        <time>2018-09-02T05:32:55Z</time>
      </trkpt>
      <trkpt lat="42.87804" lon="-0.18504">
        <ele>2249.4</ele>
        <time>2018-09-02T05:32:56Z</time>
      </trkpt>
      <trkpt lat="42.87802" lon="-0.18507">
        <ele>2249.6</ele>
        <time>2018-09-02T05:32:57Z</time>
      </trkpt>
      <trkpt lat="42.87799" lon="-0.18509">
        <ele>2249.7</ele>
        <time>2018-09-02T05:32:58Z</time>
      </trkpt>
      <trkpt lat="42.87797" lon="-0.18512">
        <ele>2249.8</ele>
        <time>2018-09-02T05:32:59Z</time>
      </trkpt>
      <trkpt lat="42.87795" lon="-0.18514">
        <ele>2249.9</ele>
        <time>2018-09-02T05:33:00Z</time>
      </trkpt>
      <trkpt lat="42.87793" lon="-0.18517">
        <ele>2250.1</ele>
        <time>2018-09-02T05:33:01Z</time>
      </trkpt>
      <trkpt lat="42.87792" lon="-0.18521">
        <ele>2250.4</ele>
        <time>2018-09-02T05:33:02Z</time>
      </trkpt>
      <trkpt lat="42.87791" lon="-0.18524">
        <ele>2250.6</ele>
        <time>2018-09-02T05:33:03Z</time>
      </trkpt>
      <trkpt lat="42.87789" lon="-0.18527">
        <ele>2250.8</ele>
        <time>2018-09-02T05:33:04Z</time>
      </trkpt>
      <trkpt lat="42.87788" lon="-0.1853">
        <ele>2250.9</ele>
        <time>2018-09-02T05:33:05Z</time>
      </trkpt>
      <trkpt lat="42.87785" lon="-0.18541">
        <ele>2251.1</ele>
        <time>2018-09-02T05:33:08Z</time>
      </trkpt>
      <trkpt lat="42.87784" lon="-0.18546">
        <ele>2251</ele>
        <time>2018-09-02T05:33:09Z</time>
      </trkpt>
      <trkpt lat="42.8778" lon="-0.18556">
        <ele>2250.4</ele>
        <time>2018-09-02T05:33:11Z</time>
      </trkpt>
      <trkpt lat="42.87771" lon="-0.18565">
        <ele>2250</ele>
        <time>2018-09-02T05:33:13Z</time>
      </trkpt>
      <trkpt lat="42.87761" lon="-0.18575">
        <ele>2249.6</ele>
        <time>2018-09-02T05:33:15Z</time>
      </trkpt>
      <trkpt lat="42.87756" lon="-0.1858">
        <ele>2249.4</ele>
        <time>2018-09-02T05:33:16Z</time>
      </trkpt>
      <trkpt lat="42.87753" lon="-0.18588">
        <ele>2249.3</ele>
        <time>2018-09-02T05:33:17Z</time>
      </trkpt>
      <trkpt lat="42.87753" lon="-0.18596">
        <ele>2249.3</ele>
        <time>2018-09-02T05:33:18Z</time>
      </trkpt>
      <trkpt lat="42.87753" lon="-0.18603">
        <ele>2249.3</ele>
        <time>2018-09-02T05:33:19Z</time>
      </trkpt>
      <trkpt lat="42.87752" lon="-0.1861">
        <ele>2249.2</ele>
        <time>2018-09-02T05:33:20Z</time>
      </trkpt>
      <trkpt lat="42.87751" lon="-0.18641">
        <ele>2248</ele>
        <time>2018-09-02T05:33:24Z</time>
      </trkpt>
      <trkpt lat="42.87753" lon="-0.18649">
        <ele>2247.9</ele>
        <time>2018-09-02T05:33:25Z</time>
      </trkpt>
      <trkpt lat="42.87756" lon="-0.18657">
        <ele>2247.8</ele>
        <time>2018-09-02T05:33:26Z</time>
      </trkpt>
      <trkpt lat="42.87757" lon="-0.18664">
        <ele>2247.5</ele>
        <time>2018-09-02T05:33:27Z</time>
      </trkpt>
      <trkpt lat="42.87758" lon="-0.18673">
        <ele>2246.6</ele>
        <time>2018-09-02T05:33:28Z</time>
      </trkpt>
      <trkpt lat="42.87759" lon="-0.18681">
        <ele>2245.5</ele>
        <time>2018-09-02T05:33:29Z</time>
      </trkpt>
      <trkpt lat="42.87762" lon="-0.1869">
        <ele>2244.6</ele>
        <time>2018-09-02T05:33:30Z</time>
      </trkpt>
      <trkpt lat="42.87764" lon="-0.18697">
        <ele>2243.5</ele>
        <time>2018-09-02T05:33:31Z</time>
      </trkpt>
      <trkpt lat="42.87766" lon="-0.18705">
        <ele>2242.2</ele>
        <time>2018-09-02T05:33:32Z</time>
      </trkpt>
      <trkpt lat="42.87767" lon="-0.18711">
        <ele>2241.1</ele>
        <time>2018-09-02T05:33:33Z</time>
      </trkpt>
      <trkpt lat="42.87767" lon="-0.18717">
        <ele>2239.8</ele>
        <time>2018-09-02T05:33:34Z</time>
      </trkpt>
      <trkpt lat="42.87767" lon="-0.18725">
        <ele>2238.5</ele>
        <time>2018-09-02T05:33:35Z</time>
      </trkpt>
      <trkpt lat="42.87767" lon="-0.18733">
        <ele>2237.7</ele>
        <time>2018-09-02T05:33:36Z</time>
      </trkpt>
      <trkpt lat="42.87768" lon="-0.1874">
        <ele>2236.9</ele>
        <time>2018-09-02T05:33:37Z</time>
      </trkpt>
      <trkpt lat="42.87769" lon="-0.18744">
        <ele>2236.2</ele>
        <time>2018-09-02T05:33:38Z</time>
      </trkpt>
      <trkpt lat="42.87771" lon="-0.18748">
        <ele>2235.5</ele>
        <time>2018-09-02T05:33:39Z</time>
      </trkpt>
      <trkpt lat="42.87774" lon="-0.18753">
        <ele>2234.7</ele>
        <time>2018-09-02T05:33:40Z</time>
      </trkpt>
      <trkpt lat="42.87777" lon="-0.18756">
        <ele>2234.1</ele>
        <time>2018-09-02T05:33:41Z</time>
      </trkpt>
      <trkpt lat="42.87781" lon="-0.18758">
        <ele>2233.3</ele>
        <time>2018-09-02T05:33:42Z</time>
      </trkpt>
      <trkpt lat="42.87785" lon="-0.18761">
        <ele>2232.3</ele>
        <time>2018-09-02T05:33:43Z</time>
      </trkpt>
      <trkpt lat="42.87789" lon="-0.18764">
        <ele>2231</ele>
        <time>2018-09-02T05:33:44Z</time>
      </trkpt>
      <trkpt lat="42.87792" lon="-0.18768">
        <ele>2229.7</ele>
        <time>2018-09-02T05:33:45Z</time>
      </trkpt>
      <trkpt lat="42.87794" lon="-0.18772">
        <ele>2228.3</ele>
        <time>2018-09-02T05:33:46Z</time>
      </trkpt>
      <trkpt lat="42.87798" lon="-0.18776">
        <ele>2226.5</ele>
        <time>2018-09-02T05:33:47Z</time>
      </trkpt>
      <trkpt lat="42.878" lon="-0.1878">
        <ele>2224.9</ele>
        <time>2018-09-02T05:33:48Z</time>
      </trkpt>
      <trkpt lat="42.87802" lon="-0.18783">
        <ele>2223.4</ele>
        <time>2018-09-02T05:33:49Z</time>
      </trkpt>
      <trkpt lat="42.87804" lon="-0.18786">
        <ele>2222.3</ele>
        <time>2018-09-02T05:33:50Z</time>
      </trkpt>
      <trkpt lat="42.87805" lon="-0.18789">
        <ele>2221.3</ele>
        <time>2018-09-02T05:33:51Z</time>
      </trkpt>
      <trkpt lat="42.87838" lon="-0.18802">
        <ele>2207.8</ele>
      </trkpt>
      <trkpt lat="42.87843" lon="-0.18841">
        <ele>2196.8</ele>
      </trkpt>
      <trkpt lat="42.8789" lon="-0.18858">
        <ele>2178.6</ele>
      </trkpt>
      <trkpt lat="42.87916" lon="-0.18904">
        <ele>2164.9</ele>
      </trkpt>
      <trkpt lat="42.87949" lon="-0.18903">
        <ele>2153.2</ele>
      </trkpt>
      <trkpt lat="42.87955" lon="-0.18932">
        <ele>2144.2</ele>
      </trkpt>
      <trkpt lat="42.87968" lon="-0.18934">
        <ele>2139.2</ele>
      </trkpt>
      <trkpt lat="42.87965" lon="-0.18964">
        <ele>2132.9</ele>
      </trkpt>
      <trkpt lat="42.87991" lon="-0.18963">
        <ele>2124.8</ele>
      </trkpt>
      <trkpt lat="42.87991" lon="-0.18986">
        <ele>2118.1</ele>
      </trkpt>
      <trkpt lat="42.88024" lon="-0.19035">
        <ele>2094.5</ele>
      </trkpt>
      <trkpt lat="42.88082" lon="-0.19043">
        <ele>2075.6</ele>
      </trkpt>
      <trkpt lat="42.88151" lon="-0.19034">
        <ele>2057.8</ele>
      </trkpt>
      <trkpt lat="42.88135" lon="-0.19092">
        <ele>2041.8</ele>
      </trkpt>
      <trkpt lat="42.88177" lon="-0.19093">
        <ele>2028.4</ele>
      </trkpt>
      <trkpt lat="42.88192" lon="-0.19126">
        <ele>2012.8</ele>
      </trkpt>
      <trkpt lat="42.88185" lon="-0.19188">
        <ele>1993.1</ele>
      </trkpt>
      <trkpt lat="42.88199" lon="-0.19222">
        <ele>1976.5</ele>
      </trkpt>
      <trkpt lat="42.88223" lon="-0.19221">
        <ele>1973.2</ele>
      </trkpt>
      <trkpt lat="42.88247" lon="-0.19241">
        <ele>1959.2</ele>
      </trkpt>
      <trkpt lat="42.88274" lon="-0.19256">
        <ele>1946</ele>
      </trkpt>
      <trkpt lat="42.88311" lon="-0.19279">
        <ele>1925</ele>
      </trkpt>
      <trkpt lat="42.88323" lon="-0.19331">
        <ele>1902.8</ele>
      </trkpt>
      <trkpt lat="42.88263" lon="-0.19386">
        <ele>1892.4</ele>
        <time>2018-09-02T05:37:44Z</time>
      </trkpt>
      <trkpt lat="42.88256" lon="-0.19401">
        <ele>1889.6</ele>
        <time>2018-09-02T05:37:46Z</time>
      </trkpt>
      <trkpt lat="42.88256" lon="-0.19408">
        <ele>1887.2</ele>
        <time>2018-09-02T05:37:47Z</time>
      </trkpt>
      <trkpt lat="42.88256" lon="-0.19415">
        <ele>1884.6</ele>
        <time>2018-09-02T05:37:48Z</time>
      </trkpt>
      <trkpt lat="42.88257" lon="-0.19424">
        <ele>1882.8</ele>
        <time>2018-09-02T05:37:49Z</time>
      </trkpt>
      <trkpt lat="42.88258" lon="-0.1943">
        <ele>1881.5</ele>
        <time>2018-09-02T05:37:50Z</time>
      </trkpt>
      <trkpt lat="42.88258" lon="-0.19435">
        <ele>1880.5</ele>
        <time>2018-09-02T05:37:51Z</time>
      </trkpt>
      <trkpt lat="42.88259" lon="-0.19439">
        <ele>1879.6</ele>
        <time>2018-09-02T05:37:52Z</time>
      </trkpt>
      <trkpt lat="42.88259" lon="-0.1944">
        <ele>1879.3</ele>
        <time>2018-09-02T05:37:53Z</time>
      </trkpt>
      <trkpt lat="42.88259" lon="-0.19441">
        <ele>1879.2</ele>
        <time>2018-09-02T05:37:54Z</time>
      </trkpt>
      <trkpt lat="42.88259" lon="-0.19444">
        <ele>1878.4</ele>
        <time>2018-09-02T05:37:55Z</time>
      </trkpt>
      <trkpt lat="42.88259" lon="-0.19446">
        <ele>1878.3</ele>
        <time>2018-09-02T05:37:56Z</time>
      </trkpt>
      <trkpt lat="42.88257" lon="-0.19448">
        <ele>1878.8</ele>
        <time>2018-09-02T05:37:57Z</time>
      </trkpt>
      <trkpt lat="42.88256" lon="-0.1945">
        <ele>1879.2</ele>
        <time>2018-09-02T05:37:58Z</time>
      </trkpt>
      <trkpt lat="42.88253" lon="-0.19455">
        <ele>1879.9</ele>
        <time>2018-09-02T05:37:59Z</time>
      </trkpt>
      <trkpt lat="42.88251" lon="-0.19461">
        <ele>1880.6</ele>
        <time>2018-09-02T05:38:00Z</time>
      </trkpt>
      <trkpt lat="42.88248" lon="-0.19468">
        <ele>1881.1</ele>
        <time>2018-09-02T05:38:01Z</time>
      </trkpt>
      <trkpt lat="42.88246" lon="-0.19474">
        <ele>1881.3</ele>
        <time>2018-09-02T05:38:02Z</time>
      </trkpt>
      <trkpt lat="42.88245" lon="-0.19479">
        <ele>1880.9</ele>
        <time>2018-09-02T05:38:03Z</time>
      </trkpt>
      <trkpt lat="42.88245" lon="-0.19482">
        <ele>1879.8</ele>
        <time>2018-09-02T05:38:04Z</time>
      </trkpt>
      <trkpt lat="42.88246" lon="-0.19486">
        <ele>1878.1</ele>
        <time>2018-09-02T05:38:05Z</time>
      </trkpt>
      <trkpt lat="42.88246" lon="-0.19506">
        <ele>1873.2</ele>
        <time>2018-09-02T05:38:09Z</time>
      </trkpt>
      <trkpt lat="42.88238" lon="-0.19523">
        <ele>1872.1</ele>
        <time>2018-09-02T05:38:12Z</time>
      </trkpt>
      <trkpt lat="42.88237" lon="-0.19531">
        <ele>1870.4</ele>
        <time>2018-09-02T05:38:13Z</time>
      </trkpt>
      <trkpt lat="42.88233" lon="-0.1954">
        <ele>1869.1</ele>
        <time>2018-09-02T05:38:14Z</time>
      </trkpt>
      <trkpt lat="42.8823" lon="-0.19549">
        <ele>1867.3</ele>
        <time>2018-09-02T05:38:15Z</time>
      </trkpt>
      <trkpt lat="42.88229" lon="-0.19556">
        <ele>1865.5</ele>
        <time>2018-09-02T05:38:16Z</time>
      </trkpt>
      <trkpt lat="42.88227" lon="-0.19563">
        <ele>1864.2</ele>
        <time>2018-09-02T05:38:17Z</time>
      </trkpt>
      <trkpt lat="42.88225" lon="-0.19569">
        <ele>1863.2</ele>
        <time>2018-09-02T05:38:18Z</time>
      </trkpt>
      <trkpt lat="42.88222" lon="-0.19574">
        <ele>1862.5</ele>
        <time>2018-09-02T05:38:19Z</time>
      </trkpt>
      <trkpt lat="42.88219" lon="-0.19579">
        <ele>1862.2</ele>
        <time>2018-09-02T05:38:20Z</time>
      </trkpt>
      <trkpt lat="42.88217" lon="-0.19585">
        <ele>1861.5</ele>
        <time>2018-09-02T05:38:21Z</time>
      </trkpt>
      <trkpt lat="42.88216" lon="-0.19592">
        <ele>1861.1</ele>
        <time>2018-09-02T05:38:22Z</time>
      </trkpt>
      <trkpt lat="42.88215" lon="-0.19599">
        <ele>1860.2</ele>
        <time>2018-09-02T05:38:23Z</time>
      </trkpt>
      <trkpt lat="42.88214" lon="-0.19606">
        <ele>1859.6</ele>
        <time>2018-09-02T05:38:24Z</time>
      </trkpt>
      <trkpt lat="42.88213" lon="-0.19612">
        <ele>1859.4</ele>
        <time>2018-09-02T05:38:25Z</time>
      </trkpt>
      <trkpt lat="42.88214" lon="-0.19618">
        <ele>1859</ele>
        <time>2018-09-02T05:38:26Z</time>
      </trkpt>
      <trkpt lat="42.8828" lon="-0.19612">
        <ele>1844</ele>
      </trkpt>
      <trkpt lat="42.88296" lon="-0.19605">
        <ele>1838.8</ele>
      </trkpt>
      <trkpt lat="42.88326" lon="-0.19608">
        <ele>1825.7</ele>
      </trkpt>
      <trkpt lat="42.88357" lon="-0.19641">
        <ele>1807.1</ele>
      </trkpt>
      <trkpt lat="42.88383" lon="-0.19649">
        <ele>1795.6</ele>
      </trkpt>
      <trkpt lat="42.88406" lon="-0.19629">
        <ele>1792.8</ele>
      </trkpt>
      <trkpt lat="42.88443" lon="-0.19631">
        <ele>1774.9</ele>
      </trkpt>
      <trkpt lat="42.88452" lon="-0.19645">
        <ele>1766.9</ele>
      </trkpt>
      <trkpt lat="42.88477" lon="-0.19676">
        <ele>1751.5</ele>
      </trkpt>
      <trkpt lat="42.88503" lon="-0.19662">
        <ele>1747.1</ele>
      </trkpt>
      <trkpt lat="42.88524" lon="-0.1968">
        <ele>1739.3</ele>
      </trkpt>
      <trkpt lat="42.88541" lon="-0.19718">
        <ele>1725.3</ele>
      </trkpt>
      <trkpt lat="42.88599" lon="-0.19746">
        <ele>1707.7</ele>
        <time>2018-09-02T05:40:12Z</time>
      </trkpt>
      <trkpt lat="42.88601" lon="-0.19751">
        <ele>1706.4</ele>
        <time>2018-09-02T05:40:13Z</time>
      </trkpt>
      <trkpt lat="42.88603" lon="-0.19754">
        <ele>1705.5</ele>
        <time>2018-09-02T05:40:14Z</time>
      </trkpt>
      <trkpt lat="42.88605" lon="-0.19756">
        <ele>1704.6</ele>
        <time>2018-09-02T05:40:15Z</time>
      </trkpt>
      <trkpt lat="42.88606" lon="-0.1976">
        <ele>1703.8</ele>
        <time>2018-09-02T05:40:16Z</time>
      </trkpt>
      <trkpt lat="42.88608" lon="-0.1976">
        <ele>1703.3</ele>
        <time>2018-09-02T05:40:17Z</time>
      </trkpt>
      <trkpt lat="42.8861" lon="-0.19758">
        <ele>1702.9</ele>
        <time>2018-09-02T05:40:18Z</time>
      </trkpt>
      <trkpt lat="42.88612" lon="-0.19756">
        <ele>1702.4</ele>
        <time>2018-09-02T05:40:19Z</time>
      </trkpt>
      <trkpt lat="42.8862" lon="-0.19756">
        <ele>1700.1</ele>
        <time>2018-09-02T05:40:20Z</time>
      </trkpt>
      <trkpt lat="42.88628" lon="-0.19757">
        <ele>1697.4</ele>
        <time>2018-09-02T05:40:21Z</time>
      </trkpt>
      <trkpt lat="42.88636" lon="-0.19759">
        <ele>1694.8</ele>
        <time>2018-09-02T05:40:22Z</time>
      </trkpt>
      <trkpt lat="42.88644" lon="-0.1976">
        <ele>1692.6</ele>
        <time>2018-09-02T05:40:23Z</time>
      </trkpt>
      <trkpt lat="42.88744" lon="-0.19857">
        <ele>1654.2</ele>
      </trkpt>
      <trkpt lat="42.88815" lon="-0.19893">
        <ele>1648</ele>
      </trkpt>
      <trkpt lat="42.89014" lon="-0.20008">
        <ele>1625</ele>
        <time>2018-09-02T05:41:37Z</time>
      </trkpt>
      <trkpt lat="42.89021" lon="-0.20018">
        <ele>1623.3</ele>
        <time>2018-09-02T05:41:38Z</time>
      </trkpt>
      <trkpt lat="42.89028" lon="-0.20027">
        <ele>1621.4</ele>
        <time>2018-09-02T05:41:39Z</time>
      </trkpt>
      <trkpt lat="42.89034" lon="-0.20036">
        <ele>1618.6</ele>
        <time>2018-09-02T05:41:40Z</time>
      </trkpt>
      <trkpt lat="42.89041" lon="-0.20045">
        <ele>1616.2</ele>
        <time>2018-09-02T05:41:41Z</time>
      </trkpt>
      <trkpt lat="42.89046" lon="-0.20052">
        <ele>1614.3</ele>
        <time>2018-09-02T05:41:42Z</time>
      </trkpt>
      <trkpt lat="42.89051" lon="-0.20058">
        <ele>1612.6</ele>
        <time>2018-09-02T05:41:43Z</time>
      </trkpt>
      <trkpt lat="42.89056" lon="-0.20065">
        <ele>1610.9</ele>
        <time>2018-09-02T05:41:44Z</time>
      </trkpt>
      <trkpt lat="42.89062" lon="-0.20071">
        <ele>1609.4</ele>
        <time>2018-09-02T05:41:45Z</time>
      </trkpt>
      <trkpt lat="42.89069" lon="-0.20077">
        <ele>1608.3</ele>
        <time>2018-09-02T05:41:46Z</time>
      </trkpt>
      <trkpt lat="42.89077" lon="-0.20084">
        <ele>1607.4</ele>
        <time>2018-09-02T05:41:47Z</time>
      </trkpt>
      <trkpt lat="42.89083" lon="-0.20089">
        <ele>1606.9</ele>
        <time>2018-09-02T05:41:48Z</time>
      </trkpt>
      <trkpt lat="42.89088" lon="-0.20094">
        <ele>1605.5</ele>
        <time>2018-09-02T05:41:49Z</time>
      </trkpt>
      <trkpt lat="42.89092" lon="-0.20099">
        <ele>1603.8</ele>
        <time>2018-09-02T05:41:50Z</time>
      </trkpt>
      <trkpt lat="42.89098" lon="-0.20105">
        <ele>1602.2</ele>
        <time>2018-09-02T05:41:51Z</time>
      </trkpt>
      <trkpt lat="42.89104" lon="-0.20111">
        <ele>1600.5</ele>
        <time>2018-09-02T05:41:52Z</time>
      </trkpt>
      <trkpt lat="42.89112" lon="-0.20115">
        <ele>1599.8</ele>
        <time>2018-09-02T05:41:53Z</time>
      </trkpt>
      <trkpt lat="42.89119" lon="-0.20118">
        <ele>1599.4</ele>
        <time>2018-09-02T05:41:54Z</time>
      </trkpt>
      <trkpt lat="42.89126" lon="-0.20122">
        <ele>1599</ele>
        <time>2018-09-02T05:41:55Z</time>
      </trkpt>
      <trkpt lat="42.8913" lon="-0.20126">
        <ele>1598.2</ele>
        <time>2018-09-02T05:41:56Z</time>
      </trkpt>
      <trkpt lat="42.89135" lon="-0.20131">
        <ele>1596.6</ele>
        <time>2018-09-02T05:41:57Z</time>
      </trkpt>
      <trkpt lat="42.89139" lon="-0.20137">
        <ele>1594.8</ele>
        <time>2018-09-02T05:41:58Z</time>
      </trkpt>
      <trkpt lat="42.89144" lon="-0.20141">
        <ele>1593.8</ele>
        <time>2018-09-02T05:41:59Z</time>
      </trkpt>
      <trkpt lat="42.8915" lon="-0.20147">
        <ele>1592.5</ele>
        <time>2018-09-02T05:42:00Z</time>
      </trkpt>
      <trkpt lat="42.89157" lon="-0.20153">
        <ele>1591.1</ele>
        <time>2018-09-02T05:42:01Z</time>
      </trkpt>
      <trkpt lat="42.89164" lon="-0.2016">
        <ele>1589.3</ele>
        <time>2018-09-02T05:42:02Z</time>
      </trkpt>
      <trkpt lat="42.89172" lon="-0.20166">
        <ele>1587.8</ele>
        <time>2018-09-02T05:42:03Z</time>
      </trkpt>
      <trkpt lat="42.89179" lon="-0.20172">
        <ele>1586.5</ele>
        <time>2018-09-02T05:42:04Z</time>
      </trkpt>
      <trkpt lat="42.89186" lon="-0.20176">
        <ele>1585.5</ele>
        <time>2018-09-02T05:42:05Z</time>
      </trkpt>
      <trkpt lat="42.89192" lon="-0.20179">
        <ele>1584.8</ele>
        <time>2018-09-02T05:42:06Z</time>
      </trkpt>
      <trkpt lat="42.89198" lon="-0.20182">
        <ele>1583.9</ele>
        <time>2018-09-02T05:42:07Z</time>
      </trkpt>
      <trkpt lat="42.89205" lon="-0.20183">
        <ele>1583.8</ele>
        <time>2018-09-02T05:42:08Z</time>
      </trkpt>
      <trkpt lat="42.89211" lon="-0.20185">
        <ele>1583.1</ele>
        <time>2018-09-02T05:42:09Z</time>
      </trkpt>
      <trkpt lat="42.89217" lon="-0.20188">
        <ele>1581.9</ele>
        <time>2018-09-02T05:42:10Z</time>
      </trkpt>
      <trkpt lat="42.89223" lon="-0.2019">
        <ele>1580.7</ele>
        <time>2018-09-02T05:42:11Z</time>
      </trkpt>
      <trkpt lat="42.8923" lon="-0.20193">
        <ele>1579.1</ele>
        <time>2018-09-02T05:42:12Z</time>
      </trkpt>
      <trkpt lat="42.89236" lon="-0.20193">
        <ele>1578.5</ele>
        <time>2018-09-02T05:42:13Z</time>
      </trkpt>
      <trkpt lat="42.89243" lon="-0.20193">
        <ele>1578.1</ele>
        <time>2018-09-02T05:42:14Z</time>
      </trkpt>
      <trkpt lat="42.89248" lon="-0.20194">
        <ele>1577.1</ele>
        <time>2018-09-02T05:42:15Z</time>
      </trkpt>
      <trkpt lat="42.89256" lon="-0.20197">
        <ele>1575.7</ele>
        <time>2018-09-02T05:42:16Z</time>
      </trkpt>
      <trkpt lat="42.89265" lon="-0.20199">
        <ele>1574.4</ele>
        <time>2018-09-02T05:42:17Z</time>
      </trkpt>
      <trkpt lat="42.89274" lon="-0.202">
        <ele>1573.1</ele>
        <time>2018-09-02T05:42:18Z</time>
      </trkpt>
      <trkpt lat="42.89282" lon="-0.20203">
        <ele>1572.5</ele>
        <time>2018-09-02T05:42:19Z</time>
      </trkpt>
      <trkpt lat="42.89292" lon="-0.20205">
        <ele>1573.4</ele>
        <time>2018-09-02T05:42:20Z</time>
      </trkpt>
      <trkpt lat="42.89302" lon="-0.20209">
        <ele>1573.2</ele>
        <time>2018-09-02T05:42:21Z</time>
      </trkpt>
      <trkpt lat="42.89306" lon="-0.20215">
        <ele>1571.2</ele>
        <time>2018-09-02T05:42:22Z</time>
      </trkpt>
      <trkpt lat="42.89312" lon="-0.2022">
        <ele>1569.3</ele>
        <time>2018-09-02T05:42:23Z</time>
      </trkpt>
      <trkpt lat="42.89317" lon="-0.20226">
        <ele>1567.3</ele>
        <time>2018-09-02T05:42:24Z</time>
      </trkpt>
      <trkpt lat="42.89322" lon="-0.20232">
        <ele>1565.4</ele>
        <time>2018-09-02T05:42:25Z</time>
      </trkpt>
      <trkpt lat="42.89328" lon="-0.20237">
        <ele>1563.8</ele>
        <time>2018-09-02T05:42:26Z</time>
      </trkpt>
      <trkpt lat="42.89334" lon="-0.20242">
        <ele>1562.2</ele>
        <time>2018-09-02T05:42:27Z</time>
      </trkpt>
      <trkpt lat="42.89341" lon="-0.20246">
        <ele>1561.5</ele>
        <time>2018-09-02T05:42:28Z</time>
      </trkpt>
      <trkpt lat="42.89347" lon="-0.20249">
        <ele>1561</ele>
        <time>2018-09-02T05:42:29Z</time>
      </trkpt>
      <trkpt lat="42.89353" lon="-0.20252">
        <ele>1560.2</ele>
        <time>2018-09-02T05:42:30Z</time>
      </trkpt>
      <trkpt lat="42.89357" lon="-0.20259">
        <ele>1557.8</ele>
        <time>2018-09-02T05:42:31Z</time>
      </trkpt>
      <trkpt lat="42.89363" lon="-0.20264">
        <ele>1556.2</ele>
        <time>2018-09-02T05:42:32Z</time>
      </trkpt>
      <trkpt lat="42.89369" lon="-0.2027">
        <ele>1554.8</ele>
        <time>2018-09-02T05:42:33Z</time>
      </trkpt>
      <trkpt lat="42.8949" lon="-0.20346">
        <ele>1529.4</ele>
      </trkpt>
      <trkpt lat="42.89603" lon="-0.20443">
        <ele>1503</ele>
      </trkpt>
      <trkpt lat="42.8964" lon="-0.20466">
        <ele>1496.2</ele>
        <time>2018-09-02T05:43:12Z</time>
      </trkpt>
      <trkpt lat="42.89683" lon="-0.20492">
        <ele>1487.7</ele>
        <time>2018-09-02T05:43:13Z</time>
      </trkpt>
      <trkpt lat="42.89781" lon="-0.20625">
        <ele>1458.6</ele>
        <time>2018-09-02T05:43:37Z</time>
      </trkpt>
      <trkpt lat="42.89785" lon="-0.20617">
        <ele>1457</ele>
        <time>2018-09-02T05:43:38Z</time>
      </trkpt>
      <trkpt lat="42.89788" lon="-0.20609">
        <ele>1455</ele>
        <time>2018-09-02T05:43:39Z</time>
      </trkpt>
      <trkpt lat="42.89791" lon="-0.20601">
        <ele>1453.1</ele>
        <time>2018-09-02T05:43:40Z</time>
      </trkpt>
      <trkpt lat="42.89793" lon="-0.20593">
        <ele>1451.9</ele>
        <time>2018-09-02T05:43:41Z</time>
      </trkpt>
      <trkpt lat="42.89796" lon="-0.20582">
        <ele>1449.7</ele>
        <time>2018-09-02T05:43:42Z</time>
      </trkpt>
      <trkpt lat="42.898" lon="-0.20571">
        <ele>1447.6</ele>
        <time>2018-09-02T05:43:43Z</time>
      </trkpt>
      <trkpt lat="42.89802" lon="-0.20562">
        <ele>1446</ele>
        <time>2018-09-02T05:43:44Z</time>
      </trkpt>
      <trkpt lat="42.89806" lon="-0.20554">
        <ele>1443.9</ele>
        <time>2018-09-02T05:43:45Z</time>
      </trkpt>
      <trkpt lat="42.89808" lon="-0.20545">
        <ele>1442.8</ele>
        <time>2018-09-02T05:43:46Z</time>
      </trkpt>
      <trkpt lat="42.89812" lon="-0.20538">
        <ele>1440.9</ele>
        <time>2018-09-02T05:43:47Z</time>
      </trkpt>
      <trkpt lat="42.89815" lon="-0.20528">
        <ele>1439.1</ele>
        <time>2018-09-02T05:43:48Z</time>
      </trkpt>
      <trkpt lat="42.89816" lon="-0.2052">
        <ele>1438.2</ele>
        <time>2018-09-02T05:43:49Z</time>
      </trkpt>
      <trkpt lat="42.89819" lon="-0.20512">
        <ele>1436.5</ele>
        <time>2018-09-02T05:43:50Z</time>
      </trkpt>
      <trkpt lat="42.89822" lon="-0.20503">
        <ele>1434.6</ele>
        <time>2018-09-02T05:43:51Z</time>
      </trkpt>
      <trkpt lat="42.89824" lon="-0.20494">
        <ele>1434.4</ele>
        <time>2018-09-02T05:43:52Z</time>
      </trkpt>
      <trkpt lat="42.89827" lon="-0.20483">
        <ele>1434.3</ele>
        <time>2018-09-02T05:43:53Z</time>
      </trkpt>
      <trkpt lat="42.89833" lon="-0.20477">
        <ele>1432.6</ele>
        <time>2018-09-02T05:43:54Z</time>
      </trkpt>
      <trkpt lat="42.8984" lon="-0.20478">
        <ele>1430.8</ele>
        <time>2018-09-02T05:43:55Z</time>
      </trkpt>
      <trkpt lat="42.89846" lon="-0.20479">
        <ele>1429.4</ele>
        <time>2018-09-02T05:43:56Z</time>
      </trkpt>
      <trkpt lat="42.89852" lon="-0.2048">
        <ele>1427.9</ele>
        <time>2018-09-02T05:43:57Z</time>
      </trkpt>
      <trkpt lat="42.89864" lon="-0.20482">
        <ele>1424.8</ele>
        <time>2018-09-02T05:43:59Z</time>
      </trkpt>
      <trkpt lat="42.89871" lon="-0.20482">
        <ele>1423.5</ele>
        <time>2018-09-02T05:44:00Z</time>
      </trkpt>
      <trkpt lat="42.89879" lon="-0.20482">
        <ele>1422.1</ele>
        <time>2018-09-02T05:44:01Z</time>
      </trkpt>
      <trkpt lat="42.89886" lon="-0.20481">
        <ele>1420.9</ele>
        <time>2018-09-02T05:44:02Z</time>
      </trkpt>
      <trkpt lat="42.89896" lon="-0.20482">
        <ele>1419.1</ele>
        <time>2018-09-02T05:44:03Z</time>
      </trkpt>
      <trkpt lat="42.89904" lon="-0.20487">
        <ele>1416.6</ele>
        <time>2018-09-02T05:44:04Z</time>
      </trkpt>
      <trkpt lat="42.89915" lon="-0.20492">
        <ele>1413.7</ele>
        <time>2018-09-02T05:44:05Z</time>
      </trkpt>
      <trkpt lat="42.89926" lon="-0.20498">
        <ele>1411.2</ele>
        <time>2018-09-02T05:44:06Z</time>
      </trkpt>
      <trkpt lat="42.89941" lon="-0.20506">
        <ele>1408.6</ele>
        <time>2018-09-02T05:44:07Z</time>
      </trkpt>
      <trkpt lat="42.89953" lon="-0.20513">
        <ele>1405.7</ele>
        <time>2018-09-02T05:44:08Z</time>
      </trkpt>
      <trkpt lat="42.89964" lon="-0.2052">
        <ele>1403.2</ele>
        <time>2018-09-02T05:44:09Z</time>
      </trkpt>
      <trkpt lat="42.89971" lon="-0.20523">
        <ele>1401.6</ele>
        <time>2018-09-02T05:44:10Z</time>
      </trkpt>
      <trkpt lat="42.89982" lon="-0.20526">
        <ele>1399.2</ele>
        <time>2018-09-02T05:44:11Z</time>
      </trkpt>
      <trkpt lat="42.89993" lon="-0.20526">
        <ele>1396.6</ele>
        <time>2018-09-02T05:44:12Z</time>
      </trkpt>
      <trkpt lat="42.89996" lon="-0.20516">
        <ele>1397.2</ele>
        <time>2018-09-02T05:44:13Z</time>
      </trkpt>
      <trkpt lat="42.90002" lon="-0.2051">
        <ele>1396.5</ele>
        <time>2018-09-02T05:44:14Z</time>
      </trkpt>
      <trkpt lat="42.90007" lon="-0.20505">
        <ele>1395.7</ele>
        <time>2018-09-02T05:44:15Z</time>
      </trkpt>
      <trkpt lat="42.90012" lon="-0.20501">
        <ele>1395</ele>
        <time>2018-09-02T05:44:16Z</time>
      </trkpt>
      <trkpt lat="42.90016" lon="-0.20494">
        <ele>1395</ele>
        <time>2018-09-02T05:44:17Z</time>
      </trkpt>
      <trkpt lat="42.90018" lon="-0.20489">
        <ele>1395.7</ele>
        <time>2018-09-02T05:44:18Z</time>
      </trkpt>
      <trkpt lat="42.90019" lon="-0.20484">
        <ele>1396.3</ele>
        <time>2018-09-02T05:44:19Z</time>
      </trkpt>
      <trkpt lat="42.9002" lon="-0.20481">
        <ele>1396.9</ele>
        <time>2018-09-02T05:44:20Z</time>
      </trkpt>
      <trkpt lat="42.90021" lon="-0.20477">
        <ele>1397.3</ele>
        <time>2018-09-02T05:44:21Z</time>
      </trkpt>
      <trkpt lat="42.90022" lon="-0.20476">
        <ele>1397.4</ele>
        <time>2018-09-02T05:44:22Z</time>
      </trkpt>
      <trkpt lat="42.90018" lon="-0.20478">
        <ele>1397.6</ele>
        <time>2018-09-02T05:44:23Z</time>
      </trkpt>
      <trkpt lat="42.9002" lon="-0.20481">
        <ele>1396.8</ele>
        <time>2018-09-02T05:44:24Z</time>
      </trkpt>
      <trkpt lat="42.9002" lon="-0.20485">
        <ele>1395.8</ele>
        <time>2018-09-02T05:44:25Z</time>
      </trkpt>
      <trkpt lat="42.9002" lon="-0.20491">
        <ele>1394.7</ele>
        <time>2018-09-02T05:44:26Z</time>
      </trkpt>
      <trkpt lat="42.90019" lon="-0.20496">
        <ele>1394</ele>
        <time>2018-09-02T05:44:27Z</time>
      </trkpt>
      <trkpt lat="42.9002" lon="-0.205">
        <ele>1393</ele>
        <time>2018-09-02T05:44:28Z</time>
      </trkpt>
      <trkpt lat="42.90021" lon="-0.20503">
        <ele>1392.3</ele>
        <time>2018-09-02T05:44:29Z</time>
      </trkpt>
      <trkpt lat="42.90023" lon="-0.20506">
        <ele>1391.3</ele>
        <time>2018-09-02T05:44:30Z</time>
      </trkpt>
      <trkpt lat="42.90026" lon="-0.20509">
        <ele>1390.3</ele>
        <time>2018-09-02T05:44:31Z</time>
      </trkpt>
      <trkpt lat="42.90029" lon="-0.20511">
        <ele>1389.3</ele>
        <time>2018-09-02T05:44:32Z</time>
      </trkpt>
      <trkpt lat="42.90031" lon="-0.20513">
        <ele>1388.4</ele>
        <time>2018-09-02T05:44:33Z</time>
      </trkpt>
      <trkpt lat="42.90034" lon="-0.20515">
        <ele>1387.6</ele>
        <time>2018-09-02T05:44:34Z</time>
      </trkpt>
      <trkpt lat="42.90036" lon="-0.20518">
        <ele>1386.7</ele>
        <time>2018-09-02T05:44:35Z</time>
      </trkpt>
      <trkpt lat="42.90039" lon="-0.20521">
        <ele>1385.6</ele>
        <time>2018-09-02T05:44:36Z</time>
      </trkpt>
      <trkpt lat="42.90041" lon="-0.20523">
        <ele>1384.5</ele>
        <time>2018-09-02T05:44:37Z</time>
      </trkpt>
      <trkpt lat="42.90044" lon="-0.20526">
        <ele>1383.3</ele>
        <time>2018-09-02T05:44:38Z</time>
      </trkpt>
      <trkpt lat="42.90046" lon="-0.20528">
        <ele>1382.3</ele>
        <time>2018-09-02T05:44:39Z</time>
      </trkpt>
      <trkpt lat="42.90051" lon="-0.20534">
        <ele>1380.3</ele>
        <time>2018-09-02T05:44:41Z</time>
      </trkpt>
      <trkpt lat="42.90054" lon="-0.20536">
        <ele>1378.9</ele>
        <time>2018-09-02T05:44:43Z</time>
      </trkpt>
      <trkpt lat="42.90056" lon="-0.2054">
        <ele>1377.7</ele>
        <time>2018-09-02T05:44:45Z</time>
      </trkpt>
      <trkpt lat="42.90057" lon="-0.20541">
        <ele>1377.4</ele>
        <time>2018-09-02T05:44:47Z</time>
      </trkpt>
      <trkpt lat="42.90058" lon="-0.20541">
        <ele>1377.1</ele>
        <time>2018-09-02T05:44:49Z</time>
      </trkpt>
      <trkpt lat="42.90059" lon="-0.20543">
        <ele>1376.5</ele>
        <time>2018-09-02T05:44:51Z</time>
      </trkpt>
      <trkpt lat="42.90063" lon="-0.20549">
        <ele>1374.3</ele>
        <time>2018-09-02T05:44:53Z</time>
      </trkpt>
      <trkpt lat="42.90066" lon="-0.20551">
        <ele>1373</ele>
        <time>2018-09-02T05:44:55Z</time>
      </trkpt>
      <trkpt lat="42.90069" lon="-0.2055">
        <ele>1372.4</ele>
        <time>2018-09-02T05:44:57Z</time>
      </trkpt>
      <trkpt lat="42.90072" lon="-0.20549">
        <ele>1371.8</ele>
        <time>2018-09-02T05:44:59Z</time>
      </trkpt>
      <trkpt lat="42.90076" lon="-0.20549">
        <ele>1371</ele>
        <time>2018-09-02T05:45:01Z</time>
      </trkpt>
      <trkpt lat="42.90079" lon="-0.20549">
        <ele>1370</ele>
        <time>2018-09-02T05:45:03Z</time>
      </trkpt>
      <trkpt lat="42.90083" lon="-0.2055">
        <ele>1368.8</ele>
        <time>2018-09-02T05:45:05Z</time>
      </trkpt>
      <trkpt lat="42.90086" lon="-0.20551">
        <ele>1367.8</ele>
        <time>2018-09-02T05:45:07Z</time>
      </trkpt>
      <trkpt lat="42.90095" lon="-0.20561">
        <ele>1363.5</ele>
        <time>2018-09-02T05:45:09Z</time>
      </trkpt>
      <trkpt lat="42.90105" lon="-0.20573">
        <ele>1358.7</ele>
        <time>2018-09-02T05:45:11Z</time>
      </trkpt>
      <trkpt lat="42.90114" lon="-0.20584">
        <ele>1354.2</ele>
        <time>2018-09-02T05:45:13Z</time>
      </trkpt>
      <trkpt lat="42.90121" lon="-0.20595">
        <ele>1350.8</ele>
        <time>2018-09-02T05:45:15Z</time>
      </trkpt>
      <trkpt lat="42.90128" lon="-0.2061">
        <ele>1346.6</ele>
        <time>2018-09-02T05:45:17Z</time>
      </trkpt>
      <trkpt lat="42.90132" lon="-0.20619">
        <ele>1344.3</ele>
        <time>2018-09-02T05:45:18Z</time>
      </trkpt>
      <trkpt lat="42.90138" lon="-0.20627">
        <ele>1341.4</ele>
        <time>2018-09-02T05:45:19Z</time>
      </trkpt>
      <trkpt lat="42.90146" lon="-0.20634">
        <ele>1338.3</ele>
        <time>2018-09-02T05:45:20Z</time>
      </trkpt>
      <trkpt lat="42.90152" lon="-0.20642">
        <ele>1335.2</ele>
        <time>2018-09-02T05:45:21Z</time>
      </trkpt>
      <trkpt lat="42.90158" lon="-0.20648">
        <ele>1332.7</ele>
        <time>2018-09-02T05:45:22Z</time>
      </trkpt>
      <trkpt lat="42.90163" lon="-0.20654">
        <ele>1330.2</ele>
        <time>2018-09-02T05:45:23Z</time>
      </trkpt>
      <trkpt lat="42.90172" lon="-0.20661">
        <ele>1326.6</ele>
        <time>2018-09-02T05:45:24Z</time>
      </trkpt>
      <trkpt lat="42.90184" lon="-0.20678">
        <ele>1320.6</ele>
        <time>2018-09-02T05:45:25Z</time>
      </trkpt>
      <trkpt lat="42.90192" lon="-0.20691">
        <ele>1316.2</ele>
        <time>2018-09-02T05:45:26Z</time>
      </trkpt>
      <trkpt lat="42.90201" lon="-0.20702">
        <ele>1311.5</ele>
        <time>2018-09-02T05:45:27Z</time>
      </trkpt>
      <trkpt lat="42.9021" lon="-0.20713">
        <ele>1306.8</ele>
        <time>2018-09-02T05:45:28Z</time>
      </trkpt>
      <trkpt lat="42.90218" lon="-0.20728">
        <ele>1301.4</ele>
        <time>2018-09-02T05:45:29Z</time>
      </trkpt>
      <trkpt lat="42.9022" lon="-0.20739">
        <ele>1299.1</ele>
        <time>2018-09-02T05:45:30Z</time>
      </trkpt>
      <trkpt lat="42.90223" lon="-0.2075">
        <ele>1296.7</ele>
        <time>2018-09-02T05:45:31Z</time>
      </trkpt>
      <trkpt lat="42.90227" lon="-0.20761">
        <ele>1293.8</ele>
        <time>2018-09-02T05:45:32Z</time>
      </trkpt>
      <trkpt lat="42.90234" lon="-0.20768">
        <ele>1290.6</ele>
        <time>2018-09-02T05:45:33Z</time>
      </trkpt>
      <trkpt lat="42.9024" lon="-0.20776">
        <ele>1287.9</ele>
        <time>2018-09-02T05:45:34Z</time>
      </trkpt>
      <trkpt lat="42.90245" lon="-0.20782">
        <ele>1285.6</ele>
        <time>2018-09-02T05:45:35Z</time>
      </trkpt>
      <trkpt lat="42.90249" lon="-0.20787">
        <ele>1284</ele>
        <time>2018-09-02T05:45:36Z</time>
      </trkpt>
      <trkpt lat="42.90257" lon="-0.20789">
        <ele>1281.3</ele>
        <time>2018-09-02T05:45:37Z</time>
      </trkpt>
      <trkpt lat="42.90274" lon="-0.20786">
        <ele>1276.4</ele>
        <time>2018-09-02T05:45:38Z</time>
      </trkpt>
      <trkpt lat="42.9029" lon="-0.2078">
        <ele>1271.9</ele>
        <time>2018-09-02T05:45:39Z</time>
      </trkpt>
      <trkpt lat="42.90301" lon="-0.20776">
        <ele>1268.6</ele>
        <time>2018-09-02T05:45:40Z</time>
      </trkpt>
      <trkpt lat="42.90303" lon="-0.20778">
        <ele>1267.7</ele>
        <time>2018-09-02T05:45:41Z</time>
      </trkpt>
      <trkpt lat="42.90315" lon="-0.20776">
        <ele>1264.5</ele>
        <time>2018-09-02T05:45:42Z</time>
      </trkpt>
      <trkpt lat="42.90326" lon="-0.20775">
        <ele>1261.3</ele>
        <time>2018-09-02T05:45:43Z</time>
      </trkpt>
      <trkpt lat="42.90329" lon="-0.20775">
        <ele>1260.5</ele>
        <time>2018-09-02T05:45:44Z</time>
      </trkpt>
      <trkpt lat="42.90339" lon="-0.20772">
        <ele>1257.7</ele>
        <time>2018-09-02T05:45:45Z</time>
      </trkpt>
      <trkpt lat="42.90343" lon="-0.2077">
        <ele>1257</ele>
        <time>2018-09-02T05:45:46Z</time>
      </trkpt>
      <trkpt lat="42.9034" lon="-0.20762">
        <ele>1258.4</ele>
        <time>2018-09-02T05:45:47Z</time>
      </trkpt>
      <trkpt lat="42.90339" lon="-0.20758">
        <ele>1259</ele>
        <time>2018-09-02T05:45:48Z</time>
      </trkpt>
      <trkpt lat="42.9034" lon="-0.20755">
        <ele>1259</ele>
        <time>2018-09-02T05:45:49Z</time>
      </trkpt>
      <trkpt lat="42.90341" lon="-0.20753">
        <ele>1259</ele>
        <time>2018-09-02T05:45:50Z</time>
      </trkpt>
      <trkpt lat="42.90346" lon="-0.20748">
        <ele>1258.2</ele>
        <time>2018-09-02T05:45:51Z</time>
      </trkpt>
      <trkpt lat="42.90353" lon="-0.20745">
        <ele>1256.7</ele>
        <time>2018-09-02T05:45:52Z</time>
      </trkpt>
      <trkpt lat="42.90359" lon="-0.20746">
        <ele>1255.1</ele>
        <time>2018-09-02T05:45:53Z</time>
      </trkpt>
      <trkpt lat="42.90363" lon="-0.20748">
        <ele>1254</ele>
        <time>2018-09-02T05:45:54Z</time>
      </trkpt>
      <trkpt lat="42.90364" lon="-0.20749">
        <ele>1253.4</ele>
        <time>2018-09-02T05:45:55Z</time>
      </trkpt>
      <trkpt lat="42.90364" lon="-0.20743">
        <ele>1254.2</ele>
        <time>2018-09-02T05:45:56Z</time>
      </trkpt>
      <trkpt lat="42.90366" lon="-0.2074">
        <ele>1254</ele>
        <time>2018-09-02T05:45:57Z</time>
      </trkpt>
      <trkpt lat="42.90367" lon="-0.20737">
        <ele>1254.3</ele>
        <time>2018-09-02T05:45:58Z</time>
      </trkpt>
      <trkpt lat="42.90368" lon="-0.20732">
        <ele>1254.6</ele>
        <time>2018-09-02T05:45:59Z</time>
      </trkpt>
      <trkpt lat="42.90369" lon="-0.20729">
        <ele>1254.7</ele>
        <time>2018-09-02T05:46:00Z</time>
      </trkpt>
      <trkpt lat="42.90371" lon="-0.20728">
        <ele>1254.3</ele>
        <time>2018-09-02T05:46:01Z</time>
      </trkpt>
      <trkpt lat="42.90374" lon="-0.20729">
        <ele>1253.4</ele>
        <time>2018-09-02T05:46:02Z</time>
      </trkpt>
      <trkpt lat="42.90377" lon="-0.20731">
        <ele>1252.2</ele>
        <time>2018-09-02T05:46:03Z</time>
      </trkpt>
      <trkpt lat="42.90381" lon="-0.20734">
        <ele>1250.7</ele>
        <time>2018-09-02T05:46:04Z</time>
      </trkpt>
      <trkpt lat="42.90387" lon="-0.2074">
        <ele>1248.1</ele>
        <time>2018-09-02T05:46:05Z</time>
      </trkpt>
      <trkpt lat="42.90393" lon="-0.20745">
        <ele>1245.7</ele>
        <time>2018-09-02T05:46:06Z</time>
      </trkpt>
      <trkpt lat="42.90399" lon="-0.2075">
        <ele>1243.5</ele>
        <time>2018-09-02T05:46:07Z</time>
      </trkpt>
      <trkpt lat="42.90405" lon="-0.20753">
        <ele>1241.8</ele>
        <time>2018-09-02T05:46:08Z</time>
      </trkpt>
      <trkpt lat="42.9041" lon="-0.20755">
        <ele>1240.3</ele>
        <time>2018-09-02T05:46:09Z</time>
      </trkpt>
      <trkpt lat="42.90419" lon="-0.2075">
        <ele>1238.6</ele>
        <time>2018-09-02T05:46:10Z</time>
      </trkpt>
      <trkpt lat="42.90424" lon="-0.20747">
        <ele>1237.4</ele>
        <time>2018-09-02T05:46:11Z</time>
      </trkpt>
      <trkpt lat="42.90429" lon="-0.20744">
        <ele>1236.4</ele>
        <time>2018-09-02T05:46:12Z</time>
      </trkpt>
      <trkpt lat="42.90436" lon="-0.20744">
        <ele>1234.7</ele>
        <time>2018-09-02T05:46:13Z</time>
      </trkpt>
      <trkpt lat="42.90442" lon="-0.20746">
        <ele>1233</ele>
        <time>2018-09-02T05:46:14Z</time>
      </trkpt>
      <trkpt lat="42.90443" lon="-0.20744">
        <ele>1232.7</ele>
        <time>2018-09-02T05:46:15Z</time>
      </trkpt>
      <trkpt lat="42.90447" lon="-0.20743">
        <ele>1231.8</ele>
        <time>2018-09-02T05:46:16Z</time>
      </trkpt>
      <trkpt lat="42.90451" lon="-0.20743">
        <ele>1230.8</ele>
        <time>2018-09-02T05:46:17Z</time>
      </trkpt>
      <trkpt lat="42.90451" lon="-0.20741">
        <ele>1231.1</ele>
        <time>2018-09-02T05:46:18Z</time>
      </trkpt>
      <trkpt lat="42.90451" lon="-0.2074">
        <ele>1230.9</ele>
        <time>2018-09-02T05:46:19Z</time>
      </trkpt>
      <trkpt lat="42.90451" lon="-0.20737">
        <ele>1231.3</ele>
        <time>2018-09-02T05:46:20Z</time>
      </trkpt>
      <trkpt lat="42.90451" lon="-0.20735">
        <ele>1231.3</ele>
        <time>2018-09-02T05:46:21Z</time>
      </trkpt>
      <trkpt lat="42.90452" lon="-0.20736">
        <ele>1231</ele>
        <time>2018-09-02T05:46:22Z</time>
      </trkpt>
      <trkpt lat="42.90453" lon="-0.20736">
        <ele>1230.7</ele>
        <time>2018-09-02T05:46:23Z</time>
      </trkpt>
      <trkpt lat="42.90454" lon="-0.20737">
        <ele>1230.3</ele>
        <time>2018-09-02T05:46:24Z</time>
      </trkpt>
      <trkpt lat="42.90456" lon="-0.20739">
        <ele>1229.8</ele>
        <time>2018-09-02T05:46:25Z</time>
      </trkpt>
      <trkpt lat="42.90458" lon="-0.2074">
        <ele>1229.3</ele>
        <time>2018-09-02T05:46:26Z</time>
      </trkpt>
      <trkpt lat="42.90458" lon="-0.20741">
        <ele>1229</ele>
        <time>2018-09-02T05:46:27Z</time>
      </trkpt>
      <trkpt lat="42.9046" lon="-0.20738">
        <ele>1228.8</ele>
        <time>2018-09-02T05:46:28Z</time>
      </trkpt>
      <trkpt lat="42.90465" lon="-0.20736">
        <ele>1227.6</ele>
        <time>2018-09-02T05:46:29Z</time>
      </trkpt>
      <trkpt lat="42.9047" lon="-0.20735">
        <ele>1226.1</ele>
        <time>2018-09-02T05:46:30Z</time>
      </trkpt>
      <trkpt lat="42.90475" lon="-0.20737">
        <ele>1224.7</ele>
        <time>2018-09-02T05:46:31Z</time>
      </trkpt>
      <trkpt lat="42.90479" lon="-0.20736">
        <ele>1223.5</ele>
        <time>2018-09-02T05:46:32Z</time>
      </trkpt>
      <trkpt lat="42.90591" lon="-0.20556">
        <ele>1174.8</ele>
      </trkpt>
      <trkpt lat="42.90616" lon="-0.20494">
        <ele>1168.7</ele>
      </trkpt>
      <trkpt lat="42.90623" lon="-0.20465">
        <ele>1171.8</ele>
      </trkpt>
      <trkpt lat="42.90642" lon="-0.20446">
        <ele>1163</ele>
      </trkpt>
      <trkpt lat="42.90846" lon="-0.20393">
        <ele>1166.3</ele>
        <time>2018-09-02T05:48:06Z</time>
      </trkpt>
      <trkpt lat="42.90893" lon="-0.20376">
        <ele>1166.2</ele>
        <time>2018-09-02T05:48:14Z</time>
      </trkpt>
      <trkpt lat="42.90902" lon="-0.2037">
        <ele>1166.1</ele>
        <time>2018-09-02T05:48:17Z</time>
      </trkpt>
      <trkpt lat="42.90909" lon="-0.20359">
        <ele>1166.4</ele>
        <time>2018-09-02T05:48:19Z</time>
      </trkpt>
      <trkpt lat="42.90936" lon="-0.20325">
        <ele>1166.2</ele>
        <time>2018-09-02T05:48:24Z</time>
      </trkpt>
      <trkpt lat="42.90965" lon="-0.20279">
        <ele>1165.2</ele>
        <time>2018-09-02T05:48:30Z</time>
      </trkpt>
      <trkpt lat="42.90978" lon="-0.20252">
        <ele>1164.9</ele>
        <time>2018-09-02T05:48:33Z</time>
      </trkpt>
      <trkpt lat="42.90987" lon="-0.20237">
        <ele>1163.8</ele>
        <time>2018-09-02T05:48:35Z</time>
      </trkpt>
      <trkpt lat="42.91005" lon="-0.20207">
        <ele>1162</ele>
        <time>2018-09-02T05:48:39Z</time>
      </trkpt>
      <trkpt lat="42.9101" lon="-0.20198">
        <ele>1161.9</ele>
        <time>2018-09-02T05:48:40Z</time>
      </trkpt>
      <trkpt lat="42.91014" lon="-0.2019">
        <ele>1161.8</ele>
        <time>2018-09-02T05:48:41Z</time>
      </trkpt>
      <trkpt lat="42.91018" lon="-0.20181">
        <ele>1161.5</ele>
        <time>2018-09-02T05:48:42Z</time>
      </trkpt>
      <trkpt lat="42.91022" lon="-0.20172">
        <ele>1160.7</ele>
        <time>2018-09-02T05:48:43Z</time>
      </trkpt>
      <trkpt lat="42.91037" lon="-0.20135">
        <ele>1160.2</ele>
        <time>2018-09-02T05:48:47Z</time>
      </trkpt>
      <trkpt lat="42.91039" lon="-0.20125">
        <ele>1160.6</ele>
        <time>2018-09-02T05:48:48Z</time>
      </trkpt>
      <trkpt lat="42.91045" lon="-0.2009">
        <ele>1160.1</ele>
        <time>2018-09-02T05:48:51Z</time>
      </trkpt>
      <trkpt lat="42.91047" lon="-0.20079">
        <ele>1159.7</ele>
        <time>2018-09-02T05:48:52Z</time>
      </trkpt>
      <trkpt lat="42.91049" lon="-0.20066">
        <ele>1159.3</ele>
        <time>2018-09-02T05:48:53Z</time>
      </trkpt>
      <trkpt lat="42.91053" lon="-0.20054">
        <ele>1158.3</ele>
        <time>2018-09-02T05:48:54Z</time>
      </trkpt>
      <trkpt lat="42.91057" lon="-0.20042">
        <ele>1157.8</ele>
        <time>2018-09-02T05:48:55Z</time>
      </trkpt>
      <trkpt lat="42.91062" lon="-0.2003">
        <ele>1157.7</ele>
        <time>2018-09-02T05:48:56Z</time>
      </trkpt>
      <trkpt lat="42.91068" lon="-0.20016">
        <ele>1156.4</ele>
        <time>2018-09-02T05:48:57Z</time>
      </trkpt>
      <trkpt lat="42.91072" lon="-0.20001">
        <ele>1154.7</ele>
        <time>2018-09-02T05:48:58Z</time>
      </trkpt>
      <trkpt lat="42.91077" lon="-0.19986">
        <ele>1152.5</ele>
        <time>2018-09-02T05:48:59Z</time>
      </trkpt>
      <trkpt lat="42.91083" lon="-0.19969">
        <ele>1149.3</ele>
        <time>2018-09-02T05:49:00Z</time>
      </trkpt>
      <trkpt lat="42.91088" lon="-0.19953">
        <ele>1149.4</ele>
        <time>2018-09-02T05:49:01Z</time>
      </trkpt>
      <trkpt lat="42.91094" lon="-0.19938">
        <ele>1149.6</ele>
        <time>2018-09-02T05:49:02Z</time>
      </trkpt>
      <trkpt lat="42.91098" lon="-0.1992">
        <ele>1148.8</ele>
        <time>2018-09-02T05:49:03Z</time>
      </trkpt>
      <trkpt lat="42.911" lon="-0.19904">
        <ele>1148.1</ele>
        <time>2018-09-02T05:49:04Z</time>
      </trkpt>
      <trkpt lat="42.91099" lon="-0.19887">
        <ele>1147.3</ele>
        <time>2018-09-02T05:49:05Z</time>
      </trkpt>
      <trkpt lat="42.91093" lon="-0.1987">
        <ele>1146.9</ele>
        <time>2018-09-02T05:49:06Z</time>
      </trkpt>
      <trkpt lat="42.91089" lon="-0.19854">
        <ele>1147.4</ele>
        <time>2018-09-02T05:49:07Z</time>
      </trkpt>
      <trkpt lat="42.91086" lon="-0.19837">
        <ele>1148.4</ele>
        <time>2018-09-02T05:49:08Z</time>
      </trkpt>
      <trkpt lat="42.91082" lon="-0.19819">
        <ele>1148.5</ele>
        <time>2018-09-02T05:49:09Z</time>
      </trkpt>
      <trkpt lat="42.91077" lon="-0.198">
        <ele>1149.6</ele>
        <time>2018-09-02T05:49:10Z</time>
      </trkpt>
      <trkpt lat="42.91074" lon="-0.19781">
        <ele>1150.3</ele>
        <time>2018-09-02T05:49:11Z</time>
      </trkpt>
      <trkpt lat="42.91072" lon="-0.19762">
        <ele>1151.5</ele>
        <time>2018-09-02T05:49:12Z</time>
      </trkpt>
      <trkpt lat="42.91073" lon="-0.19745">
        <ele>1151.9</ele>
        <time>2018-09-02T05:49:13Z</time>
      </trkpt>
      <trkpt lat="42.91076" lon="-0.19729">
        <ele>1152.1</ele>
        <time>2018-09-02T05:49:14Z</time>
      </trkpt>
      <trkpt lat="42.91083" lon="-0.19713">
        <ele>1151.1</ele>
        <time>2018-09-02T05:49:15Z</time>
      </trkpt>
      <trkpt lat="42.91096" lon="-0.19696">
        <ele>1148.3</ele>
        <time>2018-09-02T05:49:16Z</time>
      </trkpt>
      <trkpt lat="42.9111" lon="-0.1968">
        <ele>1144.7</ele>
        <time>2018-09-02T05:49:17Z</time>
      </trkpt>
      <trkpt lat="42.91124" lon="-0.19664">
        <ele>1141.3</ele>
        <time>2018-09-02T05:49:18Z</time>
      </trkpt>
      <trkpt lat="42.91136" lon="-0.19647">
        <ele>1136.9</ele>
        <time>2018-09-02T05:49:19Z</time>
      </trkpt>
      <trkpt lat="42.91145" lon="-0.19629">
        <ele>1134.4</ele>
        <time>2018-09-02T05:49:20Z</time>
      </trkpt>
      <trkpt lat="42.91152" lon="-0.19611">
        <ele>1133.1</ele>
        <time>2018-09-02T05:49:21Z</time>
      </trkpt>
      <trkpt lat="42.91159" lon="-0.19593">
        <ele>1131.4</ele>
        <time>2018-09-02T05:49:22Z</time>
      </trkpt>
      <trkpt lat="42.91165" lon="-0.19576">
        <ele>1130</ele>
        <time>2018-09-02T05:49:23Z</time>
      </trkpt>
      <trkpt lat="42.91173" lon="-0.1956">
        <ele>1129.2</ele>
        <time>2018-09-02T05:49:24Z</time>
      </trkpt>
      <trkpt lat="42.9118" lon="-0.19544">
        <ele>1128.4</ele>
        <time>2018-09-02T05:49:25Z</time>
      </trkpt>
      <trkpt lat="42.91186" lon="-0.1953">
        <ele>1127.2</ele>
        <time>2018-09-02T05:49:26Z</time>
      </trkpt>
      <trkpt lat="42.912" lon="-0.19485">
        <ele>1123.7</ele>
        <time>2018-09-02T05:49:29Z</time>
      </trkpt>
      <trkpt lat="42.91208" lon="-0.19418">
        <ele>1120.6</ele>
        <time>2018-09-02T05:49:33Z</time>
      </trkpt>
      <trkpt lat="42.91211" lon="-0.19403">
        <ele>1119.9</ele>
        <time>2018-09-02T05:49:34Z</time>
      </trkpt>
      <trkpt lat="42.91215" lon="-0.1939">
        <ele>1119.4</ele>
        <time>2018-09-02T05:49:35Z</time>
      </trkpt>
      <trkpt lat="42.91219" lon="-0.19375">
        <ele>1118.6</ele>
        <time>2018-09-02T05:49:36Z</time>
      </trkpt>
      <trkpt lat="42.91222" lon="-0.1936">
        <ele>1118.3</ele>
        <time>2018-09-02T05:49:37Z</time>
      </trkpt>
      <trkpt lat="42.91228" lon="-0.19345">
        <ele>1118.6</ele>
        <time>2018-09-02T05:49:38Z</time>
      </trkpt>
      <trkpt lat="42.91237" lon="-0.19332">
        <ele>1117.5</ele>
        <time>2018-09-02T05:49:39Z</time>
      </trkpt>
      <trkpt lat="42.91247" lon="-0.19317">
        <ele>1116.7</ele>
        <time>2018-09-02T05:49:40Z</time>
      </trkpt>
      <trkpt lat="42.91252" lon="-0.19302">
        <ele>1116.9</ele>
        <time>2018-09-02T05:49:41Z</time>
      </trkpt>
      <trkpt lat="42.91259" lon="-0.19287">
        <ele>1116.7</ele>
        <time>2018-09-02T05:49:42Z</time>
      </trkpt>
      <trkpt lat="42.91266" lon="-0.19273">
        <ele>1116.2</ele>
        <time>2018-09-02T05:49:43Z</time>
      </trkpt>
      <trkpt lat="42.91276" lon="-0.19258">
        <ele>1114.5</ele>
        <time>2018-09-02T05:49:44Z</time>
      </trkpt>
      <trkpt lat="42.91286" lon="-0.19244">
        <ele>1113.1</ele>
        <time>2018-09-02T05:49:45Z</time>
      </trkpt>
      <trkpt lat="42.91295" lon="-0.1923">
        <ele>1112.5</ele>
        <time>2018-09-02T05:49:46Z</time>
      </trkpt>
      <trkpt lat="42.91308" lon="-0.19214">
        <ele>1111.7</ele>
        <time>2018-09-02T05:49:47Z</time>
      </trkpt>
      <trkpt lat="42.91317" lon="-0.19198">
        <ele>1111.8</ele>
        <time>2018-09-02T05:49:48Z</time>
      </trkpt>
      <trkpt lat="42.91319" lon="-0.1918">
        <ele>1113.4</ele>
        <time>2018-09-02T05:49:49Z</time>
      </trkpt>
      <trkpt lat="42.91329" lon="-0.19169">
        <ele>1111.3</ele>
        <time>2018-09-02T05:49:50Z</time>
      </trkpt>
      <trkpt lat="42.91341" lon="-0.1916">
        <ele>1109</ele>
        <time>2018-09-02T05:49:51Z</time>
      </trkpt>
      <trkpt lat="42.9135" lon="-0.19153">
        <ele>1107.1</ele>
        <time>2018-09-02T05:49:52Z</time>
      </trkpt>
      <trkpt lat="42.9136" lon="-0.19144">
        <ele>1104.9</ele>
        <time>2018-09-02T05:49:53Z</time>
      </trkpt>
      <trkpt lat="42.91368" lon="-0.1913">
        <ele>1105.1</ele>
        <time>2018-09-02T05:49:54Z</time>
      </trkpt>
      <trkpt lat="42.91378" lon="-0.19113">
        <ele>1105.8</ele>
        <time>2018-09-02T05:49:55Z</time>
      </trkpt>
      <trkpt lat="42.91385" lon="-0.19097">
        <ele>1108.5</ele>
        <time>2018-09-02T05:49:56Z</time>
      </trkpt>
      <trkpt lat="42.91395" lon="-0.19082">
        <ele>1109.8</ele>
        <time>2018-09-02T05:49:57Z</time>
      </trkpt>
      <trkpt lat="42.91406" lon="-0.19069">
        <ele>1111.1</ele>
        <time>2018-09-02T05:49:58Z</time>
      </trkpt>
      <trkpt lat="42.91419" lon="-0.19059">
        <ele>1110</ele>
        <time>2018-09-02T05:49:59Z</time>
      </trkpt>
      <trkpt lat="42.9143" lon="-0.1905">
        <ele>1109.9</ele>
        <time>2018-09-02T05:50:00Z</time>
      </trkpt>
      <trkpt lat="42.91439" lon="-0.19041">
        <ele>1109.9</ele>
        <time>2018-09-02T05:50:01Z</time>
      </trkpt>
      <trkpt lat="42.91449" lon="-0.1903">
        <ele>1109.4</ele>
        <time>2018-09-02T05:50:02Z</time>
      </trkpt>
      <trkpt lat="42.9146" lon="-0.1902">
        <ele>1110.6</ele>
        <time>2018-09-02T05:50:03Z</time>
      </trkpt>
      <trkpt lat="42.91471" lon="-0.19009">
        <ele>1110.3</ele>
        <time>2018-09-02T05:50:04Z</time>
      </trkpt>
      <trkpt lat="42.91482" lon="-0.18999">
        <ele>1108.9</ele>
        <time>2018-09-02T05:50:05Z</time>
      </trkpt>
      <trkpt lat="42.91495" lon="-0.1899">
        <ele>1105.7</ele>
        <time>2018-09-02T05:50:06Z</time>
      </trkpt>
      <trkpt lat="42.91505" lon="-0.18983">
        <ele>1104</ele>
        <time>2018-09-02T05:50:07Z</time>
      </trkpt>
      <trkpt lat="42.91544" lon="-0.18957">
        <ele>1098.5</ele>
        <time>2018-09-02T05:50:11Z</time>
      </trkpt>
      <trkpt lat="42.91566" lon="-0.18947">
        <ele>1094.4</ele>
        <time>2018-09-02T05:50:13Z</time>
      </trkpt>
      <trkpt lat="42.9158" lon="-0.1894">
        <ele>1092.9</ele>
        <time>2018-09-02T05:50:14Z</time>
      </trkpt>
      <trkpt lat="42.91591" lon="-0.18933">
        <ele>1092.3</ele>
        <time>2018-09-02T05:50:15Z</time>
      </trkpt>
      <trkpt lat="42.91604" lon="-0.18927">
        <ele>1091</ele>
        <time>2018-09-02T05:50:16Z</time>
      </trkpt>
      <trkpt lat="42.91615" lon="-0.18921">
        <ele>1089.8</ele>
        <time>2018-09-02T05:50:17Z</time>
      </trkpt>
      <trkpt lat="42.91629" lon="-0.18915">
        <ele>1088.3</ele>
        <time>2018-09-02T05:50:18Z</time>
      </trkpt>
      <trkpt lat="42.91642" lon="-0.1891">
        <ele>1086.8</ele>
        <time>2018-09-02T05:50:19Z</time>
      </trkpt>
      <trkpt lat="42.91654" lon="-0.18904">
        <ele>1085.2</ele>
        <time>2018-09-02T05:50:20Z</time>
      </trkpt>
      <trkpt lat="42.91666" lon="-0.18897">
        <ele>1083.2</ele>
        <time>2018-09-02T05:50:21Z</time>
      </trkpt>
      <trkpt lat="42.91679" lon="-0.1889">
        <ele>1082.2</ele>
        <time>2018-09-02T05:50:22Z</time>
      </trkpt>
      <trkpt lat="42.9169" lon="-0.18882">
        <ele>1081.2</ele>
        <time>2018-09-02T05:50:23Z</time>
      </trkpt>
      <trkpt lat="42.917" lon="-0.18875">
        <ele>1080.5</ele>
        <time>2018-09-02T05:50:24Z</time>
      </trkpt>
      <trkpt lat="42.91711" lon="-0.18868">
        <ele>1079.9</ele>
        <time>2018-09-02T05:50:25Z</time>
      </trkpt>
      <trkpt lat="42.91722" lon="-0.18858">
        <ele>1079.2</ele>
        <time>2018-09-02T05:50:26Z</time>
      </trkpt>
      <trkpt lat="42.91742" lon="-0.18837">
        <ele>1079.3</ele>
        <time>2018-09-02T05:50:28Z</time>
      </trkpt>
      <trkpt lat="42.91751" lon="-0.18826">
        <ele>1079.2</ele>
        <time>2018-09-02T05:50:29Z</time>
      </trkpt>
      <trkpt lat="42.91759" lon="-0.18815">
        <ele>1079.1</ele>
        <time>2018-09-02T05:50:30Z</time>
      </trkpt>
      <trkpt lat="42.91767" lon="-0.18803">
        <ele>1078.8</ele>
        <time>2018-09-02T05:50:31Z</time>
      </trkpt>
      <trkpt lat="42.91776" lon="-0.18792">
        <ele>1078.2</ele>
        <time>2018-09-02T05:50:32Z</time>
      </trkpt>
      <trkpt lat="42.91785" lon="-0.18782">
        <ele>1077.5</ele>
        <time>2018-09-02T05:50:33Z</time>
      </trkpt>
      <trkpt lat="42.91793" lon="-0.1877">
        <ele>1076.7</ele>
        <time>2018-09-02T05:50:34Z</time>
      </trkpt>
      <trkpt lat="42.91803" lon="-0.1876">
        <ele>1075.6</ele>
        <time>2018-09-02T05:50:35Z</time>
      </trkpt>
      <trkpt lat="42.91812" lon="-0.18749">
        <ele>1075</ele>
        <time>2018-09-02T05:50:36Z</time>
      </trkpt>
      <trkpt lat="42.9182" lon="-0.18738">
        <ele>1075.4</ele>
        <time>2018-09-02T05:50:37Z</time>
      </trkpt>
      <trkpt lat="42.91827" lon="-0.18727">
        <ele>1075.8</ele>
        <time>2018-09-02T05:50:38Z</time>
      </trkpt>
      <trkpt lat="42.91833" lon="-0.18714">
        <ele>1076.9</ele>
        <time>2018-09-02T05:50:39Z</time>
      </trkpt>
      <trkpt lat="42.9184" lon="-0.18702">
        <ele>1077.7</ele>
        <time>2018-09-02T05:50:40Z</time>
      </trkpt>
      <trkpt lat="42.91849" lon="-0.18693">
        <ele>1078.1</ele>
        <time>2018-09-02T05:50:41Z</time>
      </trkpt>
      <trkpt lat="42.91857" lon="-0.18685">
        <ele>1079.8</ele>
        <time>2018-09-02T05:50:42Z</time>
      </trkpt>
      <trkpt lat="42.91864" lon="-0.18678">
        <ele>1080.6</ele>
        <time>2018-09-02T05:50:43Z</time>
      </trkpt>
      <trkpt lat="42.91885" lon="-0.18673">
        <ele>1077.7</ele>
        <time>2018-09-02T05:50:45Z</time>
      </trkpt>
      <trkpt lat="42.919" lon="-0.18672">
        <ele>1076.6</ele>
        <time>2018-09-02T05:50:47Z</time>
      </trkpt>
      <trkpt lat="42.91908" lon="-0.18673">
        <ele>1076.2</ele>
        <time>2018-09-02T05:50:48Z</time>
      </trkpt>
      <trkpt lat="42.91915" lon="-0.18674">
        <ele>1075.7</ele>
        <time>2018-09-02T05:50:49Z</time>
      </trkpt>
      <trkpt lat="42.91922" lon="-0.18672">
        <ele>1076.5</ele>
        <time>2018-09-02T05:50:50Z</time>
      </trkpt>
      <trkpt lat="42.91929" lon="-0.18674">
        <ele>1077</ele>
        <time>2018-09-02T05:50:51Z</time>
      </trkpt>
      <trkpt lat="42.91935" lon="-0.18673">
        <ele>1077.7</ele>
        <time>2018-09-02T05:50:52Z</time>
      </trkpt>
      <trkpt lat="42.91941" lon="-0.1867">
        <ele>1078.9</ele>
        <time>2018-09-02T05:50:53Z</time>
      </trkpt>
      <trkpt lat="42.91947" lon="-0.18667">
        <ele>1079.8</ele>
        <time>2018-09-02T05:50:54Z</time>
      </trkpt>
      <trkpt lat="42.91953" lon="-0.18664">
        <ele>1080</ele>
        <time>2018-09-02T05:50:55Z</time>
      </trkpt>
      <trkpt lat="42.91959" lon="-0.18659">
        <ele>1080.4</ele>
        <time>2018-09-02T05:50:56Z</time>
      </trkpt>
      <trkpt lat="42.91984" lon="-0.18644">
        <ele>1081.2</ele>
        <time>2018-09-02T05:50:59Z</time>
      </trkpt>
      <trkpt lat="42.92004" lon="-0.18611">
        <ele>1079.3</ele>
        <time>2018-09-02T05:51:03Z</time>
      </trkpt>
      <trkpt lat="42.92011" lon="-0.18602">
        <ele>1078.4</ele>
        <time>2018-09-02T05:51:04Z</time>
      </trkpt>
      <trkpt lat="42.92017" lon="-0.18592">
        <ele>1077.5</ele>
        <time>2018-09-02T05:51:05Z</time>
      </trkpt>
      <trkpt lat="42.92025" lon="-0.18583">
        <ele>1076.5</ele>
        <time>2018-09-02T05:51:06Z</time>
      </trkpt>
      <trkpt lat="42.92035" lon="-0.18576">
        <ele>1075.6</ele>
        <time>2018-09-02T05:51:07Z</time>
      </trkpt>
      <trkpt lat="42.92044" lon="-0.18568">
        <ele>1075.3</ele>
        <time>2018-09-02T05:51:08Z</time>
      </trkpt>
      <trkpt lat="42.92055" lon="-0.1856">
        <ele>1075.3</ele>
        <time>2018-09-02T05:51:09Z</time>
      </trkpt>
      <trkpt lat="42.92064" lon="-0.18549">
        <ele>1074.9</ele>
        <time>2018-09-02T05:51:10Z</time>
      </trkpt>
      <trkpt lat="42.92073" lon="-0.18536">
        <ele>1074.5</ele>
        <time>2018-09-02T05:51:11Z</time>
      </trkpt>
      <trkpt lat="42.92082" lon="-0.18522">
        <ele>1074</ele>
        <time>2018-09-02T05:51:12Z</time>
      </trkpt>
      <trkpt lat="42.92094" lon="-0.18509">
        <ele>1072.2</ele>
        <time>2018-09-02T05:51:13Z</time>
      </trkpt>
      <trkpt lat="42.92106" lon="-0.18496">
        <ele>1070.2</ele>
        <time>2018-09-02T05:51:14Z</time>
      </trkpt>
      <trkpt lat="42.92147" lon="-0.18473">
        <ele>1066.3</ele>
        <time>2018-09-02T05:51:17Z</time>
      </trkpt>
      <trkpt lat="42.9216" lon="-0.18467">
        <ele>1064.4</ele>
        <time>2018-09-02T05:51:18Z</time>
      </trkpt>
      <trkpt lat="42.92172" lon="-0.1846">
        <ele>1063</ele>
        <time>2018-09-02T05:51:19Z</time>
      </trkpt>
      <trkpt lat="42.92187" lon="-0.18456">
        <ele>1061.7</ele>
        <time>2018-09-02T05:51:20Z</time>
      </trkpt>
      <trkpt lat="42.92215" lon="-0.18453">
        <ele>1058.2</ele>
        <time>2018-09-02T05:51:22Z</time>
      </trkpt>
      <trkpt lat="42.92227" lon="-0.18451">
        <ele>1056.6</ele>
        <time>2018-09-02T05:51:23Z</time>
      </trkpt>
      <trkpt lat="42.9224" lon="-0.18447">
        <ele>1055.2</ele>
        <time>2018-09-02T05:51:24Z</time>
      </trkpt>
      <trkpt lat="42.92253" lon="-0.18441">
        <ele>1053.8</ele>
        <time>2018-09-02T05:51:25Z</time>
      </trkpt>
      <trkpt lat="42.92266" lon="-0.18435">
        <ele>1052.2</ele>
        <time>2018-09-02T05:51:26Z</time>
      </trkpt>
      <trkpt lat="42.9228" lon="-0.18426">
        <ele>1050.7</ele>
        <time>2018-09-02T05:51:27Z</time>
      </trkpt>
      <trkpt lat="42.92294" lon="-0.18417">
        <ele>1049.1</ele>
        <time>2018-09-02T05:51:28Z</time>
      </trkpt>
      <trkpt lat="42.92308" lon="-0.18405">
        <ele>1048</ele>
        <time>2018-09-02T05:51:29Z</time>
      </trkpt>
      <trkpt lat="42.9232" lon="-0.18394">
        <ele>1047.8</ele>
        <time>2018-09-02T05:51:30Z</time>
      </trkpt>
      <trkpt lat="42.92332" lon="-0.18387">
        <ele>1047.4</ele>
        <time>2018-09-02T05:51:31Z</time>
      </trkpt>
      <trkpt lat="42.92344" lon="-0.18383">
        <ele>1046.8</ele>
        <time>2018-09-02T05:51:32Z</time>
      </trkpt>
      <trkpt lat="42.92359" lon="-0.18379">
        <ele>1045.8</ele>
        <time>2018-09-02T05:51:33Z</time>
      </trkpt>
      <trkpt lat="42.92375" lon="-0.18376">
        <ele>1045.7</ele>
        <time>2018-09-02T05:51:34Z</time>
      </trkpt>
      <trkpt lat="42.9239" lon="-0.18373">
        <ele>1045.5</ele>
        <time>2018-09-02T05:51:35Z</time>
      </trkpt>
      <trkpt lat="42.92405" lon="-0.1837">
        <ele>1044.9</ele>
        <time>2018-09-02T05:51:36Z</time>
      </trkpt>
      <trkpt lat="42.92419" lon="-0.18365">
        <ele>1044.6</ele>
        <time>2018-09-02T05:51:37Z</time>
      </trkpt>
      <trkpt lat="42.92432" lon="-0.1836">
        <ele>1044.1</ele>
        <time>2018-09-02T05:51:38Z</time>
      </trkpt>
      <trkpt lat="42.92444" lon="-0.18356">
        <ele>1043.7</ele>
        <time>2018-09-02T05:51:39Z</time>
      </trkpt>
      <trkpt lat="42.92456" lon="-0.18355">
        <ele>1043.6</ele>
        <time>2018-09-02T05:51:40Z</time>
      </trkpt>
      <trkpt lat="42.92468" lon="-0.18353">
        <ele>1043.5</ele>
        <time>2018-09-02T05:51:41Z</time>
      </trkpt>
      <trkpt lat="42.9248" lon="-0.18354">
        <ele>1042.8</ele>
        <time>2018-09-02T05:51:42Z</time>
      </trkpt>
      <trkpt lat="42.92492" lon="-0.18356">
        <ele>1041.6</ele>
        <time>2018-09-02T05:51:43Z</time>
      </trkpt>
      <trkpt lat="42.92504" lon="-0.18362">
        <ele>1039.8</ele>
        <time>2018-09-02T05:51:44Z</time>
      </trkpt>
      <trkpt lat="42.92516" lon="-0.18369">
        <ele>1038.7</ele>
        <time>2018-09-02T05:51:45Z</time>
      </trkpt>
      <trkpt lat="42.92527" lon="-0.18374">
        <ele>1037.6</ele>
        <time>2018-09-02T05:51:46Z</time>
      </trkpt>
      <trkpt lat="42.92538" lon="-0.18378">
        <ele>1037.6</ele>
        <time>2018-09-02T05:51:47Z</time>
      </trkpt>
      <trkpt lat="42.92552" lon="-0.18379">
        <ele>1037.9</ele>
        <time>2018-09-02T05:51:48Z</time>
      </trkpt>
      <trkpt lat="42.92565" lon="-0.18378">
        <ele>1037.1</ele>
        <time>2018-09-02T05:51:49Z</time>
      </trkpt>
      <trkpt lat="42.92578" lon="-0.18375">
        <ele>1036.1</ele>
        <time>2018-09-02T05:51:50Z</time>
      </trkpt>
      <trkpt lat="42.92589" lon="-0.18367">
        <ele>1035.7</ele>
        <time>2018-09-02T05:51:51Z</time>
      </trkpt>
      <trkpt lat="42.92599" lon="-0.18357">
        <ele>1035.3</ele>
        <time>2018-09-02T05:51:52Z</time>
      </trkpt>
      <trkpt lat="42.92608" lon="-0.18346">
        <ele>1034.8</ele>
        <time>2018-09-02T05:51:53Z</time>
      </trkpt>
      <trkpt lat="42.92615" lon="-0.18334">
        <ele>1034.5</ele>
        <time>2018-09-02T05:51:54Z</time>
      </trkpt>
      <trkpt lat="42.92621" lon="-0.18321">
        <ele>1034.5</ele>
        <time>2018-09-02T05:51:55Z</time>
      </trkpt>
      <trkpt lat="42.92627" lon="-0.18309">
        <ele>1034.3</ele>
        <time>2018-09-02T05:51:56Z</time>
      </trkpt>
      <trkpt lat="42.92635" lon="-0.18298">
        <ele>1033.7</ele>
        <time>2018-09-02T05:51:57Z</time>
      </trkpt>
      <trkpt lat="42.92652" lon="-0.18278">
        <ele>1033.1</ele>
        <time>2018-09-02T05:51:59Z</time>
      </trkpt>
      <trkpt lat="42.9266" lon="-0.18269">
        <ele>1033</ele>
        <time>2018-09-02T05:52:00Z</time>
      </trkpt>
      <trkpt lat="42.9267" lon="-0.18261">
        <ele>1032.3</ele>
        <time>2018-09-02T05:52:01Z</time>
      </trkpt>
      <trkpt lat="42.92679" lon="-0.18255">
        <ele>1031.3</ele>
        <time>2018-09-02T05:52:02Z</time>
      </trkpt>
      <trkpt lat="42.9269" lon="-0.18248">
        <ele>1030.2</ele>
        <time>2018-09-02T05:52:03Z</time>
      </trkpt>
      <trkpt lat="42.927" lon="-0.18242">
        <ele>1029.6</ele>
        <time>2018-09-02T05:52:04Z</time>
      </trkpt>
      <trkpt lat="42.92719" lon="-0.18223">
        <ele>1028.4</ele>
        <time>2018-09-02T05:52:06Z</time>
      </trkpt>
      <trkpt lat="42.92728" lon="-0.18214">
        <ele>1028.6</ele>
        <time>2018-09-02T05:52:07Z</time>
      </trkpt>
      <trkpt lat="42.92737" lon="-0.18203">
        <ele>1027.9</ele>
        <time>2018-09-02T05:52:08Z</time>
      </trkpt>
      <trkpt lat="42.92746" lon="-0.18192">
        <ele>1026.5</ele>
        <time>2018-09-02T05:52:09Z</time>
      </trkpt>
      <trkpt lat="42.92755" lon="-0.1818">
        <ele>1025.7</ele>
        <time>2018-09-02T05:52:10Z</time>
      </trkpt>
      <trkpt lat="42.92763" lon="-0.18169">
        <ele>1025</ele>
        <time>2018-09-02T05:52:11Z</time>
      </trkpt>
      <trkpt lat="42.92771" lon="-0.18156">
        <ele>1024.4</ele>
        <time>2018-09-02T05:52:12Z</time>
      </trkpt>
      <trkpt lat="42.9278" lon="-0.18145">
        <ele>1023.3</ele>
        <time>2018-09-02T05:52:13Z</time>
      </trkpt>
      <trkpt lat="42.92789" lon="-0.18133">
        <ele>1024.1</ele>
        <time>2018-09-02T05:52:14Z</time>
      </trkpt>
      <trkpt lat="42.92798" lon="-0.18121">
        <ele>1024.9</ele>
        <time>2018-09-02T05:52:15Z</time>
      </trkpt>
      <trkpt lat="42.92807" lon="-0.1811">
        <ele>1024.9</ele>
        <time>2018-09-02T05:52:16Z</time>
      </trkpt>
      <trkpt lat="42.92816" lon="-0.18101">
        <ele>1024.3</ele>
        <time>2018-09-02T05:52:17Z</time>
      </trkpt>
      <trkpt lat="42.92835" lon="-0.18085">
        <ele>1021.6</ele>
        <time>2018-09-02T05:52:19Z</time>
      </trkpt>
      <trkpt lat="42.92859" lon="-0.18074">
        <ele>1020.1</ele>
        <time>2018-09-02T05:52:21Z</time>
      </trkpt>
      <trkpt lat="42.92881" lon="-0.18068">
        <ele>1019.3</ele>
        <time>2018-09-02T05:52:23Z</time>
      </trkpt>
      <trkpt lat="42.92904" lon="-0.18064">
        <ele>1018.6</ele>
        <time>2018-09-02T05:52:25Z</time>
      </trkpt>
      <trkpt lat="42.92915" lon="-0.18063">
        <ele>1018.3</ele>
        <time>2018-09-02T05:52:26Z</time>
      </trkpt>
      <trkpt lat="42.92926" lon="-0.18062">
        <ele>1018</ele>
        <time>2018-09-02T05:52:27Z</time>
      </trkpt>
      <trkpt lat="42.92937" lon="-0.18062">
        <ele>1017.5</ele>
        <time>2018-09-02T05:52:28Z</time>
      </trkpt>
      <trkpt lat="42.92948" lon="-0.18063">
        <ele>1017.1</ele>
        <time>2018-09-02T05:52:29Z</time>
      </trkpt>
      <trkpt lat="42.92959" lon="-0.18062">
        <ele>1016.8</ele>
        <time>2018-09-02T05:52:30Z</time>
      </trkpt>
      <trkpt lat="42.92992" lon="-0.1806">
        <ele>1015.2</ele>
        <time>2018-09-02T05:52:34Z</time>
      </trkpt>
      <trkpt lat="42.93001" lon="-0.18078">
        <ele>1013.3</ele>
        <time>2018-09-02T05:52:36Z</time>
      </trkpt>
      <trkpt lat="42.93007" lon="-0.18085">
        <ele>1012.4</ele>
        <time>2018-09-02T05:52:37Z</time>
      </trkpt>
      <trkpt lat="42.93014" lon="-0.18092">
        <ele>1011.8</ele>
        <time>2018-09-02T05:52:38Z</time>
      </trkpt>
      <trkpt lat="42.9302" lon="-0.181">
        <ele>1011.4</ele>
        <time>2018-09-02T05:52:39Z</time>
      </trkpt>
      <trkpt lat="42.93025" lon="-0.18109">
        <ele>1011.1</ele>
        <time>2018-09-02T05:52:40Z</time>
      </trkpt>
      <trkpt lat="42.9303" lon="-0.18125">
        <ele>1012.4</ele>
        <time>2018-09-02T05:52:42Z</time>
      </trkpt>
      <trkpt lat="42.9304" lon="-0.18127">
        <ele>1012.5</ele>
        <time>2018-09-02T05:52:44Z</time>
      </trkpt>
      <trkpt lat="42.93046" lon="-0.18124">
        <ele>1012</ele>
        <time>2018-09-02T05:52:45Z</time>
      </trkpt>
      <trkpt lat="42.93053" lon="-0.18121">
        <ele>1011.5</ele>
        <time>2018-09-02T05:52:46Z</time>
      </trkpt>
      <trkpt lat="42.9306" lon="-0.18118">
        <ele>1011.1</ele>
        <time>2018-09-02T05:52:47Z</time>
      </trkpt>
      <trkpt lat="42.93066" lon="-0.18115">
        <ele>1010.9</ele>
        <time>2018-09-02T05:52:48Z</time>
      </trkpt>
      <trkpt lat="42.93072" lon="-0.18112">
        <ele>1010.6</ele>
        <time>2018-09-02T05:52:49Z</time>
      </trkpt>
      <trkpt lat="42.93075" lon="-0.18107">
        <ele>1010.4</ele>
        <time>2018-09-02T05:52:50Z</time>
      </trkpt>
      <trkpt lat="42.93077" lon="-0.18106">
        <ele>1010.4</ele>
        <time>2018-09-02T05:52:51Z</time>
      </trkpt>
      <trkpt lat="42.93085" lon="-0.18095">
        <ele>1009.3</ele>
        <time>2018-09-02T05:52:55Z</time>
      </trkpt>
      <trkpt lat="42.93091" lon="-0.18083">
        <ele>1008</ele>
        <time>2018-09-02T05:52:57Z</time>
      </trkpt>
      <trkpt lat="42.93093" lon="-0.18076">
        <ele>1008.3</ele>
        <time>2018-09-02T05:52:58Z</time>
      </trkpt>
      <trkpt lat="42.93097" lon="-0.18072">
        <ele>1008.4</ele>
        <time>2018-09-02T05:52:59Z</time>
      </trkpt>
      <trkpt lat="42.93101" lon="-0.18066">
        <ele>1008.5</ele>
        <time>2018-09-02T05:53:00Z</time>
      </trkpt>
      <trkpt lat="42.93105" lon="-0.18061">
        <ele>1008.4</ele>
        <time>2018-09-02T05:53:01Z</time>
      </trkpt>
      <trkpt lat="42.93109" lon="-0.18057">
        <ele>1008.2</ele>
        <time>2018-09-02T05:53:02Z</time>
      </trkpt>
      <trkpt lat="42.9312" lon="-0.18049">
        <ele>1008.1</ele>
        <time>2018-09-02T05:53:04Z</time>
      </trkpt>
      <trkpt lat="42.93125" lon="-0.18044">
        <ele>1008.1</ele>
        <time>2018-09-02T05:53:05Z</time>
      </trkpt>
      <trkpt lat="42.93132" lon="-0.18041">
        <ele>1007.7</ele>
        <time>2018-09-02T05:53:06Z</time>
      </trkpt>
      <trkpt lat="42.93138" lon="-0.1804">
        <ele>1007.2</ele>
        <time>2018-09-02T05:53:07Z</time>
      </trkpt>
      <trkpt lat="42.93145" lon="-0.18042">
        <ele>1006.7</ele>
        <time>2018-09-02T05:53:08Z</time>
      </trkpt>
      <trkpt lat="42.93151" lon="-0.18044">
        <ele>1006.2</ele>
        <time>2018-09-02T05:53:09Z</time>
      </trkpt>
      <trkpt lat="42.93157" lon="-0.18047">
        <ele>1005.8</ele>
        <time>2018-09-02T05:53:10Z</time>
      </trkpt>
      <trkpt lat="42.93163" lon="-0.1805">
        <ele>1005.4</ele>
        <time>2018-09-02T05:53:11Z</time>
      </trkpt>
      <trkpt lat="42.9317" lon="-0.18054">
        <ele>1005.1</ele>
        <time>2018-09-02T05:53:12Z</time>
      </trkpt>
      <trkpt lat="42.93176" lon="-0.18058">
        <ele>1005.6</ele>
        <time>2018-09-02T05:53:13Z</time>
      </trkpt>
      <trkpt lat="42.93182" lon="-0.18061">
        <ele>1006.2</ele>
        <time>2018-09-02T05:53:14Z</time>
      </trkpt>
      <trkpt lat="42.93187" lon="-0.18059">
        <ele>1006.2</ele>
        <time>2018-09-02T05:53:15Z</time>
      </trkpt>
      <trkpt lat="42.93197" lon="-0.18052">
        <ele>1005.8</ele>
        <time>2018-09-02T05:53:17Z</time>
      </trkpt>
      <trkpt lat="42.93213" lon="-0.18038">
        <ele>1004.6</ele>
        <time>2018-09-02T05:53:20Z</time>
      </trkpt>
      <trkpt lat="42.93219" lon="-0.18033">
        <ele>1003.9</ele>
        <time>2018-09-02T05:53:21Z</time>
      </trkpt>
      <trkpt lat="42.93224" lon="-0.18029">
        <ele>1003.1</ele>
        <time>2018-09-02T05:53:22Z</time>
      </trkpt>
      <trkpt lat="42.93229" lon="-0.18023">
        <ele>1003.1</ele>
        <time>2018-09-02T05:53:23Z</time>
      </trkpt>
      <trkpt lat="42.93234" lon="-0.18017">
        <ele>1003.1</ele>
        <time>2018-09-02T05:53:24Z</time>
      </trkpt>
      <trkpt lat="42.93246" lon="-0.18012">
        <ele>1002.6</ele>
        <time>2018-09-02T05:53:26Z</time>
      </trkpt>
      <trkpt lat="42.93263" lon="-0.18014">
        <ele>1002.3</ele>
        <time>2018-09-02T05:53:29Z</time>
      </trkpt>
      <trkpt lat="42.93268" lon="-0.18014">
        <ele>1002.2</ele>
        <time>2018-09-02T05:53:30Z</time>
      </trkpt>
      <trkpt lat="42.93274" lon="-0.18012">
        <ele>1001.9</ele>
        <time>2018-09-02T05:53:31Z</time>
      </trkpt>
      <trkpt lat="42.9328" lon="-0.18009">
        <ele>1001.6</ele>
        <time>2018-09-02T05:53:32Z</time>
      </trkpt>
      <trkpt lat="42.93285" lon="-0.18005">
        <ele>1001.1</ele>
        <time>2018-09-02T05:53:33Z</time>
      </trkpt>
      <trkpt lat="42.93302" lon="-0.17992">
        <ele>1000.7</ele>
        <time>2018-09-02T05:53:36Z</time>
      </trkpt>
      <trkpt lat="42.93307" lon="-0.17987">
        <ele>1000.8</ele>
        <time>2018-09-02T05:53:37Z</time>
      </trkpt>
      <trkpt lat="42.93312" lon="-0.17983">
        <ele>1000.8</ele>
        <time>2018-09-02T05:53:38Z</time>
      </trkpt>
      <trkpt lat="42.93318" lon="-0.17978">
        <ele>1000.7</ele>
        <time>2018-09-02T05:53:39Z</time>
      </trkpt>
      <trkpt lat="42.93325" lon="-0.17973">
        <ele>1000.6</ele>
        <time>2018-09-02T05:53:40Z</time>
      </trkpt>
      <trkpt lat="42.9333" lon="-0.17968">
        <ele>1000.5</ele>
        <time>2018-09-02T05:53:41Z</time>
      </trkpt>
      <trkpt lat="42.93336" lon="-0.17963">
        <ele>1000.4</ele>
        <time>2018-09-02T05:53:42Z</time>
      </trkpt>
      <trkpt lat="42.93355" lon="-0.17947">
        <ele>999.5</ele>
        <time>2018-09-02T05:53:45Z</time>
      </trkpt>
      <trkpt lat="42.93362" lon="-0.17943">
        <ele>999</ele>
        <time>2018-09-02T05:53:46Z</time>
      </trkpt>
      <trkpt lat="42.93369" lon="-0.17939">
        <ele>998.4</ele>
        <time>2018-09-02T05:53:47Z</time>
      </trkpt>
      <trkpt lat="42.93378" lon="-0.17937">
        <ele>997.8</ele>
        <time>2018-09-02T05:53:48Z</time>
      </trkpt>
      <trkpt lat="42.93385" lon="-0.17937">
        <ele>997.1</ele>
        <time>2018-09-02T05:53:49Z</time>
      </trkpt>
      <trkpt lat="42.93392" lon="-0.17939">
        <ele>996.5</ele>
        <time>2018-09-02T05:53:50Z</time>
      </trkpt>
      <trkpt lat="42.93399" lon="-0.17942">
        <ele>995.9</ele>
        <time>2018-09-02T05:53:51Z</time>
      </trkpt>
      <trkpt lat="42.93406" lon="-0.17946">
        <ele>995.5</ele>
        <time>2018-09-02T05:53:52Z</time>
      </trkpt>
      <trkpt lat="42.9342" lon="-0.17956">
        <ele>995.8</ele>
        <time>2018-09-02T05:53:54Z</time>
      </trkpt>
      <trkpt lat="42.93427" lon="-0.17961">
        <ele>996</ele>
        <time>2018-09-02T05:53:55Z</time>
      </trkpt>
      <trkpt lat="42.93433" lon="-0.17962">
        <ele>996.1</ele>
        <time>2018-09-02T05:53:56Z</time>
      </trkpt>
      <trkpt lat="42.93439" lon="-0.17963">
        <ele>996.1</ele>
        <time>2018-09-02T05:53:57Z</time>
      </trkpt>
      <trkpt lat="42.93444" lon="-0.17964">
        <ele>996.1</ele>
        <time>2018-09-02T05:53:58Z</time>
      </trkpt>
      <trkpt lat="42.93459" lon="-0.1796">
        <ele>996.2</ele>
        <time>2018-09-02T05:54:01Z</time>
      </trkpt>
      <trkpt lat="42.93475" lon="-0.17948">
        <ele>994.6</ele>
        <time>2018-09-02T05:54:04Z</time>
      </trkpt>
      <trkpt lat="42.93479" lon="-0.17942">
        <ele>994</ele>
        <time>2018-09-02T05:54:05Z</time>
      </trkpt>
      <trkpt lat="42.93484" lon="-0.17935">
        <ele>994</ele>
        <time>2018-09-02T05:54:06Z</time>
      </trkpt>
      <trkpt lat="42.93489" lon="-0.17929">
        <ele>993.9</ele>
        <time>2018-09-02T05:54:07Z</time>
      </trkpt>
      <trkpt lat="42.93494" lon="-0.17922">
        <ele>993.5</ele>
        <time>2018-09-02T05:54:08Z</time>
      </trkpt>
      <trkpt lat="42.935" lon="-0.17916">
        <ele>993.1</ele>
        <time>2018-09-02T05:54:09Z</time>
      </trkpt>
      <trkpt lat="42.93505" lon="-0.1791">
        <ele>992.9</ele>
        <time>2018-09-02T05:54:10Z</time>
      </trkpt>
      <trkpt lat="42.9351" lon="-0.17905">
        <ele>992.7</ele>
        <time>2018-09-02T05:54:11Z</time>
      </trkpt>
      <trkpt lat="42.93519" lon="-0.17895">
        <ele>992.4</ele>
        <time>2018-09-02T05:54:13Z</time>
      </trkpt>
      <trkpt lat="42.93533" lon="-0.17882">
        <ele>992.6</ele>
        <time>2018-09-02T05:54:16Z</time>
      </trkpt>
      <trkpt lat="42.93538" lon="-0.17878">
        <ele>992.8</ele>
        <time>2018-09-02T05:54:17Z</time>
      </trkpt>
      <trkpt lat="42.93543" lon="-0.17875">
        <ele>992.9</ele>
        <time>2018-09-02T05:54:18Z</time>
      </trkpt>
      <trkpt lat="42.93549" lon="-0.17873">
        <ele>993</ele>
        <time>2018-09-02T05:54:19Z</time>
      </trkpt>
      <trkpt lat="42.93554" lon="-0.1787">
        <ele>993</ele>
        <time>2018-09-02T05:54:20Z</time>
      </trkpt>
      <trkpt lat="42.93561" lon="-0.17867">
        <ele>993</ele>
        <time>2018-09-02T05:54:21Z</time>
      </trkpt>
      <trkpt lat="42.93573" lon="-0.17862">
        <ele>992.7</ele>
        <time>2018-09-02T05:54:23Z</time>
      </trkpt>
      <trkpt lat="42.93579" lon="-0.17863">
        <ele>992.2</ele>
        <time>2018-09-02T05:54:24Z</time>
      </trkpt>
      <trkpt lat="42.93584" lon="-0.17864">
        <ele>991.7</ele>
        <time>2018-09-02T05:54:25Z</time>
      </trkpt>
      <trkpt lat="42.93591" lon="-0.17864">
        <ele>991.7</ele>
        <time>2018-09-02T05:54:26Z</time>
      </trkpt>
      <trkpt lat="42.93597" lon="-0.17863">
        <ele>991.8</ele>
        <time>2018-09-02T05:54:27Z</time>
      </trkpt>
      <trkpt lat="42.93603" lon="-0.17861">
        <ele>992</ele>
        <time>2018-09-02T05:54:28Z</time>
      </trkpt>
      <trkpt lat="42.93623" lon="-0.17863">
        <ele>991.4</ele>
        <time>2018-09-02T05:54:31Z</time>
      </trkpt>
      <trkpt lat="42.93637" lon="-0.1786">
        <ele>991.3</ele>
        <time>2018-09-02T05:54:33Z</time>
      </trkpt>
      <trkpt lat="42.93644" lon="-0.17856">
        <ele>991.4</ele>
        <time>2018-09-02T05:54:34Z</time>
      </trkpt>
      <trkpt lat="42.93651" lon="-0.17853">
        <ele>991.2</ele>
        <time>2018-09-02T05:54:35Z</time>
      </trkpt>
      <trkpt lat="42.9366" lon="-0.17849">
        <ele>990.7</ele>
        <time>2018-09-02T05:54:36Z</time>
      </trkpt>
      <trkpt lat="42.93668" lon="-0.17846">
        <ele>990</ele>
        <time>2018-09-02T05:54:37Z</time>
      </trkpt>
      <trkpt lat="42.93686" lon="-0.17839">
        <ele>988.1</ele>
        <time>2018-09-02T05:54:39Z</time>
      </trkpt>
      <trkpt lat="42.93695" lon="-0.17835">
        <ele>987</ele>
        <time>2018-09-02T05:54:40Z</time>
      </trkpt>
      <trkpt lat="42.93704" lon="-0.17832">
        <ele>987.1</ele>
        <time>2018-09-02T05:54:41Z</time>
      </trkpt>
      <trkpt lat="42.93712" lon="-0.17831">
        <ele>987.3</ele>
        <time>2018-09-02T05:54:42Z</time>
      </trkpt>
      <trkpt lat="42.93719" lon="-0.17831">
        <ele>987</ele>
        <time>2018-09-02T05:54:43Z</time>
      </trkpt>
      <trkpt lat="42.93733" lon="-0.17834">
        <ele>985.6</ele>
        <time>2018-09-02T05:54:45Z</time>
      </trkpt>
      <trkpt lat="42.93751" lon="-0.17839">
        <ele>985</ele>
        <time>2018-09-02T05:54:47Z</time>
      </trkpt>
      <trkpt lat="42.93785" lon="-0.17843">
        <ele>983.8</ele>
        <time>2018-09-02T05:54:51Z</time>
      </trkpt>
      <trkpt lat="42.93793" lon="-0.17845">
        <ele>983.4</ele>
        <time>2018-09-02T05:54:52Z</time>
      </trkpt>
      <trkpt lat="42.93802" lon="-0.17846">
        <ele>983.1</ele>
        <time>2018-09-02T05:54:53Z</time>
      </trkpt>
      <trkpt lat="42.93811" lon="-0.17847">
        <ele>982.9</ele>
        <time>2018-09-02T05:54:54Z</time>
      </trkpt>
      <trkpt lat="42.9382" lon="-0.17847">
        <ele>982.7</ele>
        <time>2018-09-02T05:54:55Z</time>
      </trkpt>
      <trkpt lat="42.93838" lon="-0.17846">
        <ele>982.4</ele>
        <time>2018-09-02T05:54:57Z</time>
      </trkpt>
      <trkpt lat="42.93865" lon="-0.17843">
        <ele>981.5</ele>
        <time>2018-09-02T05:55:00Z</time>
      </trkpt>
      <trkpt lat="42.93874" lon="-0.17842">
        <ele>981</ele>
        <time>2018-09-02T05:55:01Z</time>
      </trkpt>
      <trkpt lat="42.93883" lon="-0.17842">
        <ele>980.6</ele>
        <time>2018-09-02T05:55:02Z</time>
      </trkpt>
      <trkpt lat="42.93892" lon="-0.17842">
        <ele>980.2</ele>
        <time>2018-09-02T05:55:03Z</time>
      </trkpt>
      <trkpt lat="42.93901" lon="-0.17842">
        <ele>980</ele>
        <time>2018-09-02T05:55:04Z</time>
      </trkpt>
      <trkpt lat="42.9392" lon="-0.17842">
        <ele>979.6</ele>
        <time>2018-09-02T05:55:06Z</time>
      </trkpt>
      <trkpt lat="42.93931" lon="-0.17841">
        <ele>979.5</ele>
        <time>2018-09-02T05:55:07Z</time>
      </trkpt>
      <trkpt lat="42.93941" lon="-0.17839">
        <ele>979.4</ele>
        <time>2018-09-02T05:55:08Z</time>
      </trkpt>
      <trkpt lat="42.9395" lon="-0.17836">
        <ele>979</ele>
        <time>2018-09-02T05:55:09Z</time>
      </trkpt>
      <trkpt lat="42.9396" lon="-0.17832">
        <ele>978.4</ele>
        <time>2018-09-02T05:55:10Z</time>
      </trkpt>
      <trkpt lat="42.93969" lon="-0.17827">
        <ele>977.9</ele>
        <time>2018-09-02T05:55:11Z</time>
      </trkpt>
      <trkpt lat="42.93978" lon="-0.17822">
        <ele>977.6</ele>
        <time>2018-09-02T05:55:12Z</time>
      </trkpt>
      <trkpt lat="42.93987" lon="-0.17816">
        <ele>977.4</ele>
        <time>2018-09-02T05:55:13Z</time>
      </trkpt>
      <trkpt lat="42.93997" lon="-0.1781">
        <ele>977.2</ele>
        <time>2018-09-02T05:55:14Z</time>
      </trkpt>
      <trkpt lat="42.94006" lon="-0.17804">
        <ele>977.1</ele>
        <time>2018-09-02T05:55:15Z</time>
      </trkpt>
      <trkpt lat="42.94023" lon="-0.17791">
        <ele>976.9</ele>
        <time>2018-09-02T05:55:17Z</time>
      </trkpt>
      <trkpt lat="42.9404" lon="-0.17779">
        <ele>976</ele>
        <time>2018-09-02T05:55:19Z</time>
      </trkpt>
      <trkpt lat="42.94049" lon="-0.17773">
        <ele>975.9</ele>
        <time>2018-09-02T05:55:20Z</time>
      </trkpt>
      <trkpt lat="42.94059" lon="-0.17768">
        <ele>975.6</ele>
        <time>2018-09-02T05:55:21Z</time>
      </trkpt>
      <trkpt lat="42.94069" lon="-0.17764">
        <ele>975.5</ele>
        <time>2018-09-02T05:55:22Z</time>
      </trkpt>
      <trkpt lat="42.94078" lon="-0.17762">
        <ele>975.4</ele>
        <time>2018-09-02T05:55:23Z</time>
      </trkpt>
      <trkpt lat="42.94088" lon="-0.17758">
        <ele>975.2</ele>
        <time>2018-09-02T05:55:24Z</time>
      </trkpt>
      <trkpt lat="42.94107" lon="-0.17749">
        <ele>975</ele>
        <time>2018-09-02T05:55:26Z</time>
      </trkpt>
      <trkpt lat="42.94116" lon="-0.17743">
        <ele>974.7</ele>
        <time>2018-09-02T05:55:27Z</time>
      </trkpt>
      <trkpt lat="42.94125" lon="-0.17737">
        <ele>974.3</ele>
        <time>2018-09-02T05:55:28Z</time>
      </trkpt>
      <trkpt lat="42.94134" lon="-0.1773">
        <ele>973.7</ele>
        <time>2018-09-02T05:55:29Z</time>
      </trkpt>
      <trkpt lat="42.94143" lon="-0.17723">
        <ele>973.1</ele>
        <time>2018-09-02T05:55:30Z</time>
      </trkpt>
      <trkpt lat="42.94152" lon="-0.17717">
        <ele>972.9</ele>
        <time>2018-09-02T05:55:31Z</time>
      </trkpt>
      <trkpt lat="42.9416" lon="-0.17709">
        <ele>972.6</ele>
        <time>2018-09-02T05:55:32Z</time>
      </trkpt>
      <trkpt lat="42.94168" lon="-0.17702">
        <ele>972.2</ele>
        <time>2018-09-02T05:55:33Z</time>
      </trkpt>
      <trkpt lat="42.94177" lon="-0.17694">
        <ele>971.7</ele>
        <time>2018-09-02T05:55:34Z</time>
      </trkpt>
      <trkpt lat="42.94185" lon="-0.17687">
        <ele>971.4</ele>
        <time>2018-09-02T05:55:35Z</time>
      </trkpt>
      <trkpt lat="42.94195" lon="-0.17683">
        <ele>971</ele>
        <time>2018-09-02T05:55:36Z</time>
      </trkpt>
      <trkpt lat="42.94205" lon="-0.1768">
        <ele>970.4</ele>
        <time>2018-09-02T05:55:37Z</time>
      </trkpt>
      <trkpt lat="42.94215" lon="-0.17677">
        <ele>969.8</ele>
        <time>2018-09-02T05:55:38Z</time>
      </trkpt>
      <trkpt lat="42.94225" lon="-0.17673">
        <ele>969.2</ele>
        <time>2018-09-02T05:55:39Z</time>
      </trkpt>
      <trkpt lat="42.94234" lon="-0.17669">
        <ele>968.7</ele>
        <time>2018-09-02T05:55:40Z</time>
      </trkpt>
      <trkpt lat="42.94253" lon="-0.1766">
        <ele>968.2</ele>
        <time>2018-09-02T05:55:42Z</time>
      </trkpt>
      <trkpt lat="42.94263" lon="-0.17657">
        <ele>968.2</ele>
        <time>2018-09-02T05:55:43Z</time>
      </trkpt>
      <trkpt lat="42.94273" lon="-0.17658">
        <ele>968.1</ele>
        <time>2018-09-02T05:55:44Z</time>
      </trkpt>
      <trkpt lat="42.94283" lon="-0.1766">
        <ele>968.1</ele>
        <time>2018-09-02T05:55:45Z</time>
      </trkpt>
      <trkpt lat="42.94294" lon="-0.17663">
        <ele>968.4</ele>
        <time>2018-09-02T05:55:46Z</time>
      </trkpt>
      <trkpt lat="42.94304" lon="-0.17663">
        <ele>968.7</ele>
        <time>2018-09-02T05:55:47Z</time>
      </trkpt>
      <trkpt lat="42.94324" lon="-0.17659">
        <ele>968.3</ele>
        <time>2018-09-02T05:55:49Z</time>
      </trkpt>
      <trkpt lat="42.94333" lon="-0.17655">
        <ele>967.7</ele>
        <time>2018-09-02T05:55:50Z</time>
      </trkpt>
      <trkpt lat="42.94341" lon="-0.1765">
        <ele>967.4</ele>
        <time>2018-09-02T05:55:51Z</time>
      </trkpt>
      <trkpt lat="42.94349" lon="-0.17646">
        <ele>966.7</ele>
        <time>2018-09-02T05:55:52Z</time>
      </trkpt>
      <trkpt lat="42.94356" lon="-0.17642">
        <ele>965.9</ele>
        <time>2018-09-02T05:55:53Z</time>
      </trkpt>
      <trkpt lat="42.94361" lon="-0.1764">
        <ele>965.4</ele>
        <time>2018-09-02T05:55:54Z</time>
      </trkpt>
      <trkpt lat="42.9437" lon="-0.17646">
        <ele>967.9</ele>
        <time>2018-09-02T05:55:56Z</time>
      </trkpt>
      <trkpt lat="42.94374" lon="-0.17655">
        <ele>971.9</ele>
        <time>2018-09-02T05:55:58Z</time>
      </trkpt>
      <trkpt lat="42.94375" lon="-0.17658">
        <ele>973.2</ele>
        <time>2018-09-02T05:55:59Z</time>
      </trkpt>
      <trkpt lat="42.94376" lon="-0.17661">
        <ele>974.8</ele>
        <time>2018-09-02T05:56:01Z</time>
      </trkpt>
      <trkpt lat="42.94377" lon="-0.17663">
        <ele>975.5</ele>
        <time>2018-09-02T05:56:02Z</time>
      </trkpt>
      <trkpt lat="42.94377" lon="-0.17664">
        <ele>976.2</ele>
        <time>2018-09-02T05:56:03Z</time>
      </trkpt>
      <trkpt lat="42.94377" lon="-0.17666">
        <ele>976.9</ele>
        <time>2018-09-02T05:56:04Z</time>
      </trkpt>
      <trkpt lat="42.94377" lon="-0.17668">
        <ele>977.7</ele>
        <time>2018-09-02T05:56:05Z</time>
      </trkpt>
      <trkpt lat="42.94378" lon="-0.17669">
        <ele>978.6</ele>
        <time>2018-09-02T05:56:06Z</time>
      </trkpt>
      <trkpt lat="42.94379" lon="-0.17671">
        <ele>979.6</ele>
        <time>2018-09-02T05:56:07Z</time>
      </trkpt>
      <trkpt lat="42.9438" lon="-0.17673">
        <ele>980.5</ele>
        <time>2018-09-02T05:56:08Z</time>
      </trkpt>
      <trkpt lat="42.9438" lon="-0.17674">
        <ele>981.3</ele>
        <time>2018-09-02T05:56:09Z</time>
      </trkpt>
      <trkpt lat="42.94381" lon="-0.17675">
        <ele>982</ele>
        <time>2018-09-02T05:56:10Z</time>
      </trkpt>
      <trkpt lat="42.94382" lon="-0.17676">
        <ele>982.6</ele>
        <time>2018-09-02T05:56:11Z</time>
      </trkpt>
      <trkpt lat="42.94383" lon="-0.17676">
        <ele>983.2</ele>
        <time>2018-09-02T05:56:12Z</time>
      </trkpt>
      <trkpt lat="42.94385" lon="-0.17676">
        <ele>983.5</ele>
        <time>2018-09-02T05:56:13Z</time>
      </trkpt>
      <trkpt lat="42.94387" lon="-0.17675">
        <ele>983.7</ele>
        <time>2018-09-02T05:56:14Z</time>
      </trkpt>
      <trkpt lat="42.94388" lon="-0.17675">
        <ele>984.2</ele>
        <time>2018-09-02T05:56:15Z</time>
      </trkpt>
      <trkpt lat="42.9439" lon="-0.17676">
        <ele>984.8</ele>
        <time>2018-09-02T05:56:16Z</time>
      </trkpt>
      <trkpt lat="42.94391" lon="-0.17676">
        <ele>985.2</ele>
        <time>2018-09-02T05:56:17Z</time>
      </trkpt>
      <trkpt lat="42.94394" lon="-0.17676">
        <ele>985.6</ele>
        <time>2018-09-02T05:56:18Z</time>
      </trkpt>
      <trkpt lat="42.94396" lon="-0.17675">
        <ele>985.9</ele>
        <time>2018-09-02T05:56:19Z</time>
      </trkpt>
      <trkpt lat="42.94398" lon="-0.17675">
        <ele>986.2</ele>
        <time>2018-09-02T05:56:20Z</time>
      </trkpt>
      <trkpt lat="42.944" lon="-0.17674">
        <ele>986.4</ele>
        <time>2018-09-02T05:56:21Z</time>
      </trkpt>
      <trkpt lat="42.94408" lon="-0.17672">
        <ele>987.4</ele>
        <time>2018-09-02T05:56:24Z</time>
      </trkpt>
      <trkpt lat="42.94412" lon="-0.1767">
        <ele>988</ele>
        <time>2018-09-02T05:56:26Z</time>
      </trkpt>
      <trkpt lat="42.94415" lon="-0.17669">
        <ele>988.2</ele>
        <time>2018-09-02T05:56:27Z</time>
      </trkpt>
      <trkpt lat="42.94416" lon="-0.17668">
        <ele>988.4</ele>
        <time>2018-09-02T05:56:28Z</time>
      </trkpt>
      <trkpt lat="42.94418" lon="-0.17667">
        <ele>988.2</ele>
        <time>2018-09-02T05:56:29Z</time>
      </trkpt>
      <trkpt lat="42.94421" lon="-0.17665">
        <ele>987.6</ele>
        <time>2018-09-02T05:56:30Z</time>
      </trkpt>
      <trkpt lat="42.94426" lon="-0.17662">
        <ele>987</ele>
        <time>2018-09-02T05:56:32Z</time>
      </trkpt>
      <trkpt lat="42.94428" lon="-0.1766">
        <ele>987</ele>
        <time>2018-09-02T05:56:33Z</time>
      </trkpt>
      <trkpt lat="42.94431" lon="-0.17659">
        <ele>986.8</ele>
        <time>2018-09-02T05:56:34Z</time>
      </trkpt>
      <trkpt lat="42.94433" lon="-0.17658">
        <ele>986.7</ele>
        <time>2018-09-02T05:56:35Z</time>
      </trkpt>
      <trkpt lat="42.94435" lon="-0.17657">
        <ele>986.8</ele>
        <time>2018-09-02T05:56:36Z</time>
      </trkpt>
      <trkpt lat="42.94437" lon="-0.17656">
        <ele>987</ele>
        <time>2018-09-02T05:56:37Z</time>
      </trkpt>
      <trkpt lat="42.94439" lon="-0.17656">
        <ele>987.1</ele>
        <time>2018-09-02T05:56:38Z</time>
      </trkpt>
      <trkpt lat="42.94446" lon="-0.17655">
        <ele>988.3</ele>
        <time>2018-09-02T05:56:42Z</time>
      </trkpt>
      <trkpt lat="42.94448" lon="-0.17654">
        <ele>988.3</ele>
        <time>2018-09-02T05:56:43Z</time>
      </trkpt>
      <trkpt lat="42.9445" lon="-0.17654">
        <ele>988.6</ele>
        <time>2018-09-02T05:56:44Z</time>
      </trkpt>
      <trkpt lat="42.94451" lon="-0.17654">
        <ele>989</ele>
        <time>2018-09-02T05:56:45Z</time>
      </trkpt>
      <trkpt lat="42.94453" lon="-0.17654">
        <ele>989.1</ele>
        <time>2018-09-02T05:56:46Z</time>
      </trkpt>
      <trkpt lat="42.94454" lon="-0.17653">
        <ele>989.3</ele>
        <time>2018-09-02T05:56:47Z</time>
      </trkpt>
      <trkpt lat="42.94455" lon="-0.17653">
        <ele>989.4</ele>
        <time>2018-09-02T05:56:48Z</time>
      </trkpt>
      <trkpt lat="42.94457" lon="-0.17653">
        <ele>989.5</ele>
        <time>2018-09-02T05:56:49Z</time>
      </trkpt>
      <trkpt lat="42.94458" lon="-0.17652">
        <ele>989.8</ele>
        <time>2018-09-02T05:56:50Z</time>
      </trkpt>
      <trkpt lat="42.94459" lon="-0.17652">
        <ele>989.9</ele>
        <time>2018-09-02T05:56:51Z</time>
      </trkpt>
      <trkpt lat="42.9446" lon="-0.17651">
        <ele>989.9</ele>
        <time>2018-09-02T05:56:52Z</time>
      </trkpt>
      <trkpt lat="42.94462" lon="-0.17651">
        <ele>990.1</ele>
        <time>2018-09-02T05:56:53Z</time>
      </trkpt>
      <trkpt lat="42.94463" lon="-0.17651">
        <ele>990.3</ele>
        <time>2018-09-02T05:56:54Z</time>
      </trkpt>
      <trkpt lat="42.94464" lon="-0.17651">
        <ele>990.6</ele>
        <time>2018-09-02T05:56:55Z</time>
      </trkpt>
      <trkpt lat="42.94465" lon="-0.17651">
        <ele>991</ele>
        <time>2018-09-02T05:56:56Z</time>
      </trkpt>
      <trkpt lat="42.94469" lon="-0.17652">
        <ele>991.9</ele>
        <time>2018-09-02T05:56:57Z</time>
      </trkpt>
      <trkpt lat="42.94472" lon="-0.17651">
        <ele>992.5</ele>
        <time>2018-09-02T05:56:58Z</time>
      </trkpt>
      <trkpt lat="42.94474" lon="-0.1765">
        <ele>992.5</ele>
        <time>2018-09-02T05:56:59Z</time>
      </trkpt>
      <trkpt lat="42.94478" lon="-0.17647">
        <ele>992.5</ele>
        <time>2018-09-02T05:57:02Z</time>
      </trkpt>
      <trkpt lat="42.94479" lon="-0.17646">
        <ele>992.4</ele>
        <time>2018-09-02T05:57:03Z</time>
      </trkpt>
      <trkpt lat="42.94481" lon="-0.17645">
        <ele>992.3</ele>
        <time>2018-09-02T05:57:04Z</time>
      </trkpt>
      <trkpt lat="42.94482" lon="-0.17644">
        <ele>992.3</ele>
        <time>2018-09-02T05:57:05Z</time>
      </trkpt>
      <trkpt lat="42.94483" lon="-0.17643">
        <ele>992.2</ele>
        <time>2018-09-02T05:57:06Z</time>
      </trkpt>
      <trkpt lat="42.94484" lon="-0.17641">
        <ele>992</ele>
        <time>2018-09-02T05:57:07Z</time>
      </trkpt>
      <trkpt lat="42.94488" lon="-0.17636">
        <ele>991.2</ele>
        <time>2018-09-02T05:57:10Z</time>
      </trkpt>
      <trkpt lat="42.94491" lon="-0.17634">
        <ele>991.2</ele>
        <time>2018-09-02T05:57:12Z</time>
      </trkpt>
      <trkpt lat="42.94493" lon="-0.17633">
        <ele>991.1</ele>
        <time>2018-09-02T05:57:13Z</time>
      </trkpt>
      <trkpt lat="42.94494" lon="-0.17631">
        <ele>990.7</ele>
        <time>2018-09-02T05:57:14Z</time>
      </trkpt>
      <trkpt lat="42.94495" lon="-0.17628">
        <ele>990.2</ele>
        <time>2018-09-02T05:57:15Z</time>
      </trkpt>
      <trkpt lat="42.94498" lon="-0.17625">
        <ele>989.8</ele>
        <time>2018-09-02T05:57:17Z</time>
      </trkpt>
      <trkpt lat="42.94499" lon="-0.17624">
        <ele>989.9</ele>
        <time>2018-09-02T05:57:18Z</time>
      </trkpt>
      <trkpt lat="42.945" lon="-0.17623">
        <ele>989.9</ele>
        <time>2018-09-02T05:57:19Z</time>
      </trkpt>
      <trkpt lat="42.94502" lon="-0.17622">
        <ele>989.9</ele>
        <time>2018-09-02T05:57:20Z</time>
      </trkpt>
      <trkpt lat="42.94504" lon="-0.17621">
        <ele>990.1</ele>
        <time>2018-09-02T05:57:21Z</time>
      </trkpt>
      <trkpt lat="42.94507" lon="-0.17623">
        <ele>991.4</ele>
        <time>2018-09-02T05:57:23Z</time>
      </trkpt>
      <trkpt lat="42.9451" lon="-0.17624">
        <ele>992.3</ele>
        <time>2018-09-02T05:57:24Z</time>
      </trkpt>
      <trkpt lat="42.9451" lon="-0.17626">
        <ele>992.8</ele>
        <time>2018-09-02T05:57:25Z</time>
      </trkpt>
      <trkpt lat="42.94509" lon="-0.17627">
        <ele>993</ele>
        <time>2018-09-02T05:57:26Z</time>
      </trkpt>
      <trkpt lat="42.94509" lon="-0.17629">
        <ele>993.4</ele>
        <time>2018-09-02T05:57:27Z</time>
      </trkpt>
      <trkpt lat="42.94509" lon="-0.17631">
        <ele>994.1</ele>
        <time>2018-09-02T05:57:28Z</time>
      </trkpt>
      <trkpt lat="42.94508" lon="-0.17637">
        <ele>995.4</ele>
        <time>2018-09-02T05:57:30Z</time>
      </trkpt>
      <trkpt lat="42.94508" lon="-0.17647">
        <ele>997.5</ele>
        <time>2018-09-02T05:57:34Z</time>
      </trkpt>
      <trkpt lat="42.94507" lon="-0.17649">
        <ele>997.9</ele>
        <time>2018-09-02T05:57:35Z</time>
      </trkpt>
      <trkpt lat="42.94506" lon="-0.17651">
        <ele>998.2</ele>
        <time>2018-09-02T05:57:36Z</time>
      </trkpt>
      <trkpt lat="42.94506" lon="-0.17653">
        <ele>998.6</ele>
        <time>2018-09-02T05:57:37Z</time>
      </trkpt>
      <trkpt lat="42.94505" lon="-0.17656">
        <ele>999.1</ele>
        <time>2018-09-02T05:57:38Z</time>
      </trkpt>
      <trkpt lat="42.94504" lon="-0.17665">
        <ele>1000.8</ele>
        <time>2018-09-02T05:57:41Z</time>
      </trkpt>
      <trkpt lat="42.94503" lon="-0.17668">
        <ele>1001.2</ele>
        <time>2018-09-02T05:57:42Z</time>
      </trkpt>
      <trkpt lat="42.94502" lon="-0.17671">
        <ele>1001.5</ele>
        <time>2018-09-02T05:57:43Z</time>
      </trkpt>
      <trkpt lat="42.94502" lon="-0.17675">
        <ele>1001.9</ele>
        <time>2018-09-02T05:57:44Z</time>
      </trkpt>
      <trkpt lat="42.94503" lon="-0.17678">
        <ele>1002.3</ele>
        <time>2018-09-02T05:57:45Z</time>
      </trkpt>
      <trkpt lat="42.94505" lon="-0.17682">
        <ele>1002.7</ele>
        <time>2018-09-02T05:57:46Z</time>
      </trkpt>
      <trkpt lat="42.94515" lon="-0.17688">
        <ele>1003.5</ele>
        <time>2018-09-02T05:57:49Z</time>
      </trkpt>
      <trkpt lat="42.9452" lon="-0.17691">
        <ele>1003.7</ele>
        <time>2018-09-02T05:57:50Z</time>
      </trkpt>
      <trkpt lat="42.94525" lon="-0.17694">
        <ele>1004</ele>
        <time>2018-09-02T05:57:51Z</time>
      </trkpt>
      <trkpt lat="42.94535" lon="-0.17709">
        <ele>1005.4</ele>
        <time>2018-09-02T05:57:54Z</time>
      </trkpt>
      <trkpt lat="42.94539" lon="-0.17719">
        <ele>1006.2</ele>
        <time>2018-09-02T05:57:56Z</time>
      </trkpt>
      <trkpt lat="42.94546" lon="-0.17731">
        <ele>1007</ele>
        <time>2018-09-02T05:57:59Z</time>
      </trkpt>
      <trkpt lat="42.94547" lon="-0.17735">
        <ele>1007.2</ele>
        <time>2018-09-02T05:58:00Z</time>
      </trkpt>
      <trkpt lat="42.94547" lon="-0.17745">
        <ele>1007.5</ele>
        <time>2018-09-02T05:58:02Z</time>
      </trkpt>
      <trkpt lat="42.94544" lon="-0.17755">
        <ele>1007.7</ele>
        <time>2018-09-02T05:58:04Z</time>
      </trkpt>
      <trkpt lat="42.94539" lon="-0.17766">
        <ele>1007.8</ele>
        <time>2018-09-02T05:58:06Z</time>
      </trkpt>
      <trkpt lat="42.94537" lon="-0.17772">
        <ele>1007.8</ele>
        <time>2018-09-02T05:58:07Z</time>
      </trkpt>
      <trkpt lat="42.94534" lon="-0.17776">
        <ele>1008</ele>
        <time>2018-09-02T05:58:08Z</time>
      </trkpt>
      <trkpt lat="42.94531" lon="-0.17782">
        <ele>1008.4</ele>
        <time>2018-09-02T05:58:09Z</time>
      </trkpt>
      <trkpt lat="42.94529" lon="-0.17787">
        <ele>1009</ele>
        <time>2018-09-02T05:58:10Z</time>
      </trkpt>
      <trkpt lat="42.94527" lon="-0.17792">
        <ele>1009.6</ele>
        <time>2018-09-02T05:58:11Z</time>
      </trkpt>
      <trkpt lat="42.94516" lon="-0.17811">
        <ele>1010.9</ele>
        <time>2018-09-02T05:58:15Z</time>
      </trkpt>
      <trkpt lat="42.94512" lon="-0.17822">
        <ele>1011.2</ele>
        <time>2018-09-02T05:58:17Z</time>
      </trkpt>
      <trkpt lat="42.9451" lon="-0.17827">
        <ele>1011.4</ele>
        <time>2018-09-02T05:58:18Z</time>
      </trkpt>
      <trkpt lat="42.94507" lon="-0.17833">
        <ele>1011.5</ele>
        <time>2018-09-02T05:58:19Z</time>
      </trkpt>
      <trkpt lat="42.94505" lon="-0.17838">
        <ele>1011.7</ele>
        <time>2018-09-02T05:58:20Z</time>
      </trkpt>
      <trkpt lat="42.94502" lon="-0.17844">
        <ele>1011.9</ele>
        <time>2018-09-02T05:58:21Z</time>
      </trkpt>
      <trkpt lat="42.94497" lon="-0.17856">
        <ele>1012.3</ele>
        <time>2018-09-02T05:58:23Z</time>
      </trkpt>
      <trkpt lat="42.94476" lon="-0.17897">
        <ele>1011.9</ele>
        <time>2018-09-02T05:58:30Z</time>
      </trkpt>
      <trkpt lat="42.94455" lon="-0.17936">
        <ele>1013.4</ele>
        <time>2018-09-02T05:58:37Z</time>
      </trkpt>
      <trkpt lat="42.94449" lon="-0.17948">
        <ele>1013.6</ele>
        <time>2018-09-02T05:58:39Z</time>
      </trkpt>
      <trkpt lat="42.94446" lon="-0.17954">
        <ele>1013.5</ele>
        <time>2018-09-02T05:58:40Z</time>
      </trkpt>
      <trkpt lat="42.94443" lon="-0.1796">
        <ele>1013.4</ele>
        <time>2018-09-02T05:58:41Z</time>
      </trkpt>
      <trkpt lat="42.9444" lon="-0.17965">
        <ele>1013.4</ele>
        <time>2018-09-02T05:58:42Z</time>
      </trkpt>
      <trkpt lat="42.94437" lon="-0.17971">
        <ele>1013.4</ele>
        <time>2018-09-02T05:58:43Z</time>
      </trkpt>
      <trkpt lat="42.94434" lon="-0.17977">
        <ele>1013.4</ele>
        <time>2018-09-02T05:58:44Z</time>
      </trkpt>
      <trkpt lat="42.94411" lon="-0.18016">
        <ele>1013</ele>
        <time>2018-09-02T05:58:51Z</time>
      </trkpt>
      <trkpt lat="42.94403" lon="-0.18027">
        <ele>1012.5</ele>
        <time>2018-09-02T05:58:53Z</time>
      </trkpt>
      <trkpt lat="42.94389" lon="-0.18041">
        <ele>1011.9</ele>
        <time>2018-09-02T05:58:56Z</time>
      </trkpt>
      <trkpt lat="42.94384" lon="-0.18044">
        <ele>1012.3</ele>
        <time>2018-09-02T05:58:57Z</time>
      </trkpt>
      <trkpt lat="42.94367" lon="-0.18047">
        <ele>1012.9</ele>
        <time>2018-09-02T05:59:00Z</time>
      </trkpt>
      <trkpt lat="42.94361" lon="-0.18047">
        <ele>1013</ele>
        <time>2018-09-02T05:59:01Z</time>
      </trkpt>
      <trkpt lat="42.94349" lon="-0.18047">
        <ele>1014</ele>
        <time>2018-09-02T05:59:03Z</time>
      </trkpt>
      <trkpt lat="42.94331" lon="-0.18044">
        <ele>1014.8</ele>
        <time>2018-09-02T05:59:06Z</time>
      </trkpt>
      <trkpt lat="42.94326" lon="-0.18043">
        <ele>1014.8</ele>
        <time>2018-09-02T05:59:07Z</time>
      </trkpt>
      <trkpt lat="42.94306" lon="-0.18043">
        <ele>1015.2</ele>
        <time>2018-09-02T05:59:11Z</time>
      </trkpt>
      <trkpt lat="42.94289" lon="-0.18044">
        <ele>1016.9</ele>
        <time>2018-09-02T05:59:14Z</time>
      </trkpt>
      <trkpt lat="42.94285" lon="-0.18046">
        <ele>1017.6</ele>
        <time>2018-09-02T05:59:15Z</time>
      </trkpt>
      <trkpt lat="42.94281" lon="-0.1805">
        <ele>1018.7</ele>
        <time>2018-09-02T05:59:16Z</time>
      </trkpt>
      <trkpt lat="42.94278" lon="-0.18054">
        <ele>1019.7</ele>
        <time>2018-09-02T05:59:17Z</time>
      </trkpt>
      <trkpt lat="42.94277" lon="-0.18059">
        <ele>1020.8</ele>
        <time>2018-09-02T05:59:18Z</time>
      </trkpt>
      <trkpt lat="42.94277" lon="-0.18064">
        <ele>1021.6</ele>
        <time>2018-09-02T05:59:19Z</time>
      </trkpt>
      <trkpt lat="42.94277" lon="-0.18068">
        <ele>1022</ele>
        <time>2018-09-02T05:59:20Z</time>
      </trkpt>
      <trkpt lat="42.94278" lon="-0.18072">
        <ele>1022.4</ele>
        <time>2018-09-02T05:59:21Z</time>
      </trkpt>
      <trkpt lat="42.9428" lon="-0.18076">
        <ele>1022.8</ele>
        <time>2018-09-02T05:59:22Z</time>
      </trkpt>
      <trkpt lat="42.94282" lon="-0.18081">
        <ele>1023.3</ele>
        <time>2018-09-02T05:59:23Z</time>
      </trkpt>
      <trkpt lat="42.94284" lon="-0.18085">
        <ele>1023.9</ele>
        <time>2018-09-02T05:59:24Z</time>
      </trkpt>
      <trkpt lat="42.94287" lon="-0.18088">
        <ele>1024.7</ele>
        <time>2018-09-02T05:59:25Z</time>
      </trkpt>
      <trkpt lat="42.94289" lon="-0.18092">
        <ele>1025.5</ele>
        <time>2018-09-02T05:59:26Z</time>
      </trkpt>
      <trkpt lat="42.94292" lon="-0.18095">
        <ele>1026.2</ele>
        <time>2018-09-02T05:59:27Z</time>
      </trkpt>
      <trkpt lat="42.94298" lon="-0.18102">
        <ele>1027.8</ele>
        <time>2018-09-02T05:59:29Z</time>
      </trkpt>
      <trkpt lat="42.943" lon="-0.18106">
        <ele>1028.7</ele>
        <time>2018-09-02T05:59:30Z</time>
      </trkpt>
      <trkpt lat="42.94302" lon="-0.18109">
        <ele>1029.5</ele>
        <time>2018-09-02T05:59:31Z</time>
      </trkpt>
      <trkpt lat="42.94304" lon="-0.18112">
        <ele>1030.3</ele>
        <time>2018-09-02T05:59:32Z</time>
      </trkpt>
      <trkpt lat="42.94306" lon="-0.18115">
        <ele>1031</ele>
        <time>2018-09-02T05:59:33Z</time>
      </trkpt>
      <trkpt lat="42.94309" lon="-0.18118">
        <ele>1031.7</ele>
        <time>2018-09-02T05:59:34Z</time>
      </trkpt>
      <trkpt lat="42.94311" lon="-0.1812">
        <ele>1032.2</ele>
        <time>2018-09-02T05:59:35Z</time>
      </trkpt>
      <trkpt lat="42.94314" lon="-0.18123">
        <ele>1032.8</ele>
        <time>2018-09-02T05:59:36Z</time>
      </trkpt>
      <trkpt lat="42.94316" lon="-0.18125">
        <ele>1033.4</ele>
        <time>2018-09-02T05:59:37Z</time>
      </trkpt>
      <trkpt lat="42.94319" lon="-0.18128">
        <ele>1034.1</ele>
        <time>2018-09-02T05:59:38Z</time>
      </trkpt>
      <trkpt lat="42.94321" lon="-0.1813">
        <ele>1034.6</ele>
        <time>2018-09-02T05:59:39Z</time>
      </trkpt>
      <trkpt lat="42.94323" lon="-0.18132">
        <ele>1035.2</ele>
        <time>2018-09-02T05:59:40Z</time>
      </trkpt>
      <trkpt lat="42.94325" lon="-0.18134">
        <ele>1035.8</ele>
        <time>2018-09-02T05:59:41Z</time>
      </trkpt>
      <trkpt lat="42.94327" lon="-0.18136">
        <ele>1036.4</ele>
        <time>2018-09-02T05:59:42Z</time>
      </trkpt>
      <trkpt lat="42.94329" lon="-0.18138">
        <ele>1036.8</ele>
        <time>2018-09-02T05:59:43Z</time>
      </trkpt>
      <trkpt lat="42.94332" lon="-0.1814">
        <ele>1037.4</ele>
        <time>2018-09-02T05:59:44Z</time>
      </trkpt>
      <trkpt lat="42.94336" lon="-0.18145">
        <ele>1038.5</ele>
        <time>2018-09-02T05:59:46Z</time>
      </trkpt>
      <trkpt lat="42.94338" lon="-0.18147">
        <ele>1039</ele>
        <time>2018-09-02T05:59:47Z</time>
      </trkpt>
      <trkpt lat="42.94341" lon="-0.18149">
        <ele>1039.3</ele>
        <time>2018-09-02T05:59:48Z</time>
      </trkpt>
      <trkpt lat="42.94343" lon="-0.1815">
        <ele>1039.6</ele>
        <time>2018-09-02T05:59:49Z</time>
      </trkpt>
      <trkpt lat="42.94345" lon="-0.18152">
        <ele>1039.9</ele>
        <time>2018-09-02T05:59:50Z</time>
      </trkpt>
      <trkpt lat="42.94348" lon="-0.18154">
        <ele>1040.4</ele>
        <time>2018-09-02T05:59:51Z</time>
      </trkpt>
      <trkpt lat="42.9435" lon="-0.18156">
        <ele>1040.7</ele>
        <time>2018-09-02T05:59:52Z</time>
      </trkpt>
      <trkpt lat="42.94366" lon="-0.18166">
        <ele>1042.2</ele>
        <time>2018-09-02T05:59:58Z</time>
      </trkpt>
      <trkpt lat="42.94376" lon="-0.18172">
        <ele>1043.1</ele>
        <time>2018-09-02T06:00:01Z</time>
      </trkpt>
      <trkpt lat="42.9438" lon="-0.18174">
        <ele>1043.3</ele>
        <time>2018-09-02T06:00:02Z</time>
      </trkpt>
      <trkpt lat="42.94383" lon="-0.18177">
        <ele>1043.5</ele>
        <time>2018-09-02T06:00:03Z</time>
      </trkpt>
      <trkpt lat="42.94387" lon="-0.18179">
        <ele>1043.7</ele>
        <time>2018-09-02T06:00:04Z</time>
      </trkpt>
      <trkpt lat="42.9439" lon="-0.18181">
        <ele>1043.7</ele>
        <time>2018-09-02T06:00:05Z</time>
      </trkpt>
      <trkpt lat="42.94399" lon="-0.18184">
        <ele>1043</ele>
        <time>2018-09-02T06:00:08Z</time>
      </trkpt>
      <trkpt lat="42.94402" lon="-0.18185">
        <ele>1042.8</ele>
        <time>2018-09-02T06:00:09Z</time>
      </trkpt>
      <trkpt lat="42.94404" lon="-0.18186">
        <ele>1042.5</ele>
        <time>2018-09-02T06:00:10Z</time>
      </trkpt>
      <trkpt lat="42.94407" lon="-0.18187">
        <ele>1042.2</ele>
        <time>2018-09-02T06:00:11Z</time>
      </trkpt>
      <trkpt lat="42.9441" lon="-0.18188">
        <ele>1042.1</ele>
        <time>2018-09-02T06:00:12Z</time>
      </trkpt>
      <trkpt lat="42.94421" lon="-0.18192">
        <ele>1041.1</ele>
        <time>2018-09-02T06:00:15Z</time>
      </trkpt>
      <trkpt lat="42.94426" lon="-0.18193">
        <ele>1040.6</ele>
        <time>2018-09-02T06:00:16Z</time>
      </trkpt>
      <trkpt lat="42.9443" lon="-0.18193">
        <ele>1039.9</ele>
        <time>2018-09-02T06:00:17Z</time>
      </trkpt>
      <trkpt lat="42.94434" lon="-0.18194">
        <ele>1039.3</ele>
        <time>2018-09-02T06:00:18Z</time>
      </trkpt>
      <trkpt lat="42.94437" lon="-0.18195">
        <ele>1038.7</ele>
        <time>2018-09-02T06:00:19Z</time>
      </trkpt>
      <trkpt lat="42.9444" lon="-0.18195">
        <ele>1038.2</ele>
        <time>2018-09-02T06:00:20Z</time>
      </trkpt>
      <trkpt lat="42.94449" lon="-0.18196">
        <ele>1037.5</ele>
        <time>2018-09-02T06:00:23Z</time>
      </trkpt>
      <trkpt lat="42.94453" lon="-0.18197">
        <ele>1037.8</ele>
        <time>2018-09-02T06:00:24Z</time>
      </trkpt>
      <trkpt lat="42.94456" lon="-0.18198">
        <ele>1038.1</ele>
        <time>2018-09-02T06:00:25Z</time>
      </trkpt>
      <trkpt lat="42.9446" lon="-0.18199">
        <ele>1038.4</ele>
        <time>2018-09-02T06:00:26Z</time>
      </trkpt>
      <trkpt lat="42.94463" lon="-0.18199">
        <ele>1038.6</ele>
        <time>2018-09-02T06:00:27Z</time>
      </trkpt>
      <trkpt lat="42.94477" lon="-0.18198">
        <ele>1039.9</ele>
        <time>2018-09-02T06:00:30Z</time>
      </trkpt>
      <trkpt lat="42.9448" lon="-0.18196">
        <ele>1040.5</ele>
        <time>2018-09-02T06:00:31Z</time>
      </trkpt>
      <trkpt lat="42.94483" lon="-0.18193">
        <ele>1040.8</ele>
        <time>2018-09-02T06:00:32Z</time>
      </trkpt>
      <trkpt lat="42.94485" lon="-0.18189">
        <ele>1041.1</ele>
        <time>2018-09-02T06:00:33Z</time>
      </trkpt>
      <trkpt lat="42.94487" lon="-0.18186">
        <ele>1041.5</ele>
        <time>2018-09-02T06:00:34Z</time>
      </trkpt>
      <trkpt lat="42.94492" lon="-0.1818">
        <ele>1042.2</ele>
        <time>2018-09-02T06:00:36Z</time>
      </trkpt>
      <trkpt lat="42.94494" lon="-0.18177">
        <ele>1042.4</ele>
        <time>2018-09-02T06:00:37Z</time>
      </trkpt>
      <trkpt lat="42.94496" lon="-0.18173">
        <ele>1042.6</ele>
        <time>2018-09-02T06:00:38Z</time>
      </trkpt>
      <trkpt lat="42.94498" lon="-0.1817">
        <ele>1042.8</ele>
        <time>2018-09-02T06:00:39Z</time>
      </trkpt>
      <trkpt lat="42.945" lon="-0.18166">
        <ele>1042.9</ele>
        <time>2018-09-02T06:00:40Z</time>
      </trkpt>
      <trkpt lat="42.94509" lon="-0.18148">
        <ele>1043</ele>
        <time>2018-09-02T06:00:45Z</time>
      </trkpt>
      <trkpt lat="42.94512" lon="-0.18145">
        <ele>1043.2</ele>
        <time>2018-09-02T06:00:46Z</time>
      </trkpt>
      <trkpt lat="42.94514" lon="-0.18143">
        <ele>1043.7</ele>
        <time>2018-09-02T06:00:47Z</time>
      </trkpt>
      <trkpt lat="42.94517" lon="-0.18142">
        <ele>1044.4</ele>
        <time>2018-09-02T06:00:48Z</time>
      </trkpt>
      <trkpt lat="42.9452" lon="-0.18141">
        <ele>1045.2</ele>
        <time>2018-09-02T06:00:49Z</time>
      </trkpt>
      <trkpt lat="42.94524" lon="-0.18142">
        <ele>1046.3</ele>
        <time>2018-09-02T06:00:50Z</time>
      </trkpt>
      <trkpt lat="42.94528" lon="-0.18146">
        <ele>1048.1</ele>
        <time>2018-09-02T06:00:52Z</time>
      </trkpt>
      <trkpt lat="42.94529" lon="-0.18149">
        <ele>1048.8</ele>
        <time>2018-09-02T06:00:53Z</time>
      </trkpt>
      <trkpt lat="42.9453" lon="-0.18152">
        <ele>1049.5</ele>
        <time>2018-09-02T06:00:54Z</time>
      </trkpt>
      <trkpt lat="42.94531" lon="-0.18155">
        <ele>1050.2</ele>
        <time>2018-09-02T06:00:55Z</time>
      </trkpt>
      <trkpt lat="42.94531" lon="-0.18159">
        <ele>1050.7</ele>
        <time>2018-09-02T06:00:56Z</time>
      </trkpt>
      <trkpt lat="42.9453" lon="-0.18169">
        <ele>1052</ele>
        <time>2018-09-02T06:00:59Z</time>
      </trkpt>
      <trkpt lat="42.94529" lon="-0.18173">
        <ele>1052.3</ele>
        <time>2018-09-02T06:01:00Z</time>
      </trkpt>
      <trkpt lat="42.94528" lon="-0.18177">
        <ele>1052.6</ele>
        <time>2018-09-02T06:01:01Z</time>
      </trkpt>
      <trkpt lat="42.94527" lon="-0.18181">
        <ele>1052.8</ele>
        <time>2018-09-02T06:01:02Z</time>
      </trkpt>
      <trkpt lat="42.94526" lon="-0.18184">
        <ele>1052.7</ele>
        <time>2018-09-02T06:01:03Z</time>
      </trkpt>
      <trkpt lat="42.94524" lon="-0.18187">
        <ele>1052.8</ele>
        <time>2018-09-02T06:01:04Z</time>
      </trkpt>
      <trkpt lat="42.94523" lon="-0.18191">
        <ele>1052.8</ele>
        <time>2018-09-02T06:01:05Z</time>
      </trkpt>
      <trkpt lat="42.94521" lon="-0.18198">
        <ele>1053.4</ele>
        <time>2018-09-02T06:01:07Z</time>
      </trkpt>
      <trkpt lat="42.94521" lon="-0.18202">
        <ele>1053.7</ele>
        <time>2018-09-02T06:01:08Z</time>
      </trkpt>
      <trkpt lat="42.9452" lon="-0.18206">
        <ele>1054.1</ele>
        <time>2018-09-02T06:01:09Z</time>
      </trkpt>
      <trkpt lat="42.9452" lon="-0.18209">
        <ele>1054.5</ele>
        <time>2018-09-02T06:01:10Z</time>
      </trkpt>
      <trkpt lat="42.94519" lon="-0.18213">
        <ele>1054.8</ele>
        <time>2018-09-02T06:01:11Z</time>
      </trkpt>
      <trkpt lat="42.94519" lon="-0.18219">
        <ele>1055.6</ele>
        <time>2018-09-02T06:01:13Z</time>
      </trkpt>
      <trkpt lat="42.94519" lon="-0.18223">
        <ele>1056.1</ele>
        <time>2018-09-02T06:01:14Z</time>
      </trkpt>
      <trkpt lat="42.94519" lon="-0.18226">
        <ele>1056.5</ele>
        <time>2018-09-02T06:01:15Z</time>
      </trkpt>
      <trkpt lat="42.94518" lon="-0.18229">
        <ele>1056.8</ele>
        <time>2018-09-02T06:01:16Z</time>
      </trkpt>
      <trkpt lat="42.94517" lon="-0.18233">
        <ele>1057</ele>
        <time>2018-09-02T06:01:17Z</time>
      </trkpt>
      <trkpt lat="42.94516" lon="-0.18236">
        <ele>1057.2</ele>
        <time>2018-09-02T06:01:18Z</time>
      </trkpt>
      <trkpt lat="42.94515" lon="-0.18242">
        <ele>1057.6</ele>
        <time>2018-09-02T06:01:20Z</time>
      </trkpt>
      <trkpt lat="42.94514" lon="-0.18246">
        <ele>1057.8</ele>
        <time>2018-09-02T06:01:21Z</time>
      </trkpt>
      <trkpt lat="42.94512" lon="-0.1825">
        <ele>1058</ele>
        <time>2018-09-02T06:01:22Z</time>
      </trkpt>
      <trkpt lat="42.94511" lon="-0.18253">
        <ele>1058.3</ele>
        <time>2018-09-02T06:01:23Z</time>
      </trkpt>
      <trkpt lat="42.9451" lon="-0.18256">
        <ele>1058.6</ele>
        <time>2018-09-02T06:01:24Z</time>
      </trkpt>
      <trkpt lat="42.94509" lon="-0.18263">
        <ele>1059.4</ele>
        <time>2018-09-02T06:01:26Z</time>
      </trkpt>
      <trkpt lat="42.94507" lon="-0.18266">
        <ele>1059.6</ele>
        <time>2018-09-02T06:01:27Z</time>
      </trkpt>
      <trkpt lat="42.94506" lon="-0.18269">
        <ele>1059.8</ele>
        <time>2018-09-02T06:01:28Z</time>
      </trkpt>
      <trkpt lat="42.94505" lon="-0.18272">
        <ele>1060.1</ele>
        <time>2018-09-02T06:01:29Z</time>
      </trkpt>
      <trkpt lat="42.94504" lon="-0.18275">
        <ele>1060.4</ele>
        <time>2018-09-02T06:01:30Z</time>
      </trkpt>
      <trkpt lat="42.945" lon="-0.18288">
        <ele>1061.8</ele>
        <time>2018-09-02T06:01:34Z</time>
      </trkpt>
      <trkpt lat="42.94499" lon="-0.18291">
        <ele>1062.2</ele>
        <time>2018-09-02T06:01:35Z</time>
      </trkpt>
      <trkpt lat="42.94497" lon="-0.18295">
        <ele>1062.5</ele>
        <time>2018-09-02T06:01:36Z</time>
      </trkpt>
      <trkpt lat="42.94496" lon="-0.18298">
        <ele>1062.8</ele>
        <time>2018-09-02T06:01:37Z</time>
      </trkpt>
      <trkpt lat="42.94494" lon="-0.18301">
        <ele>1063</ele>
        <time>2018-09-02T06:01:38Z</time>
      </trkpt>
      <trkpt lat="42.94489" lon="-0.1831">
        <ele>1064</ele>
        <time>2018-09-02T06:01:41Z</time>
      </trkpt>
      <trkpt lat="42.94488" lon="-0.18313">
        <ele>1064.4</ele>
        <time>2018-09-02T06:01:42Z</time>
      </trkpt>
      <trkpt lat="42.94487" lon="-0.18316">
        <ele>1064.6</ele>
        <time>2018-09-02T06:01:43Z</time>
      </trkpt>
      <trkpt lat="42.94484" lon="-0.18318">
        <ele>1064.6</ele>
        <time>2018-09-02T06:01:44Z</time>
      </trkpt>
      <trkpt lat="42.94482" lon="-0.1832">
        <ele>1064.7</ele>
        <time>2018-09-02T06:01:45Z</time>
      </trkpt>
      <trkpt lat="42.9448" lon="-0.18322">
        <ele>1064.7</ele>
        <time>2018-09-02T06:01:46Z</time>
      </trkpt>
      <trkpt lat="42.94471" lon="-0.18327">
        <ele>1064.6</ele>
        <time>2018-09-02T06:01:49Z</time>
      </trkpt>
      <trkpt lat="42.94468" lon="-0.18327">
        <ele>1064.9</ele>
        <time>2018-09-02T06:01:50Z</time>
      </trkpt>
      <trkpt lat="42.94465" lon="-0.18327">
        <ele>1065.2</ele>
        <time>2018-09-02T06:01:51Z</time>
      </trkpt>
      <trkpt lat="42.94463" lon="-0.18328">
        <ele>1065.5</ele>
        <time>2018-09-02T06:01:52Z</time>
      </trkpt>
      <trkpt lat="42.9446" lon="-0.18329">
        <ele>1065.9</ele>
        <time>2018-09-02T06:01:53Z</time>
      </trkpt>
      <trkpt lat="42.94442" lon="-0.18328">
        <ele>1067.3</ele>
        <time>2018-09-02T06:01:59Z</time>
      </trkpt>
      <trkpt lat="42.94439" lon="-0.18326">
        <ele>1067.7</ele>
        <time>2018-09-02T06:02:00Z</time>
      </trkpt>
      <trkpt lat="42.94436" lon="-0.18325">
        <ele>1068.2</ele>
        <time>2018-09-02T06:02:01Z</time>
      </trkpt>
      <trkpt lat="42.94434" lon="-0.18325">
        <ele>1068.7</ele>
        <time>2018-09-02T06:02:02Z</time>
      </trkpt>
      <trkpt lat="42.94431" lon="-0.18325">
        <ele>1069.2</ele>
        <time>2018-09-02T06:02:03Z</time>
      </trkpt>
      <trkpt lat="42.94428" lon="-0.18325">
        <ele>1069.8</ele>
        <time>2018-09-02T06:02:04Z</time>
      </trkpt>
      <trkpt lat="42.94421" lon="-0.18324">
        <ele>1071.3</ele>
        <time>2018-09-02T06:02:07Z</time>
      </trkpt>
      <trkpt lat="42.94418" lon="-0.18323">
        <ele>1071.8</ele>
        <time>2018-09-02T06:02:08Z</time>
      </trkpt>
      <trkpt lat="42.94416" lon="-0.18323">
        <ele>1072.3</ele>
        <time>2018-09-02T06:02:09Z</time>
      </trkpt>
      <trkpt lat="42.94413" lon="-0.18322">
        <ele>1072.7</ele>
        <time>2018-09-02T06:02:10Z</time>
      </trkpt>
      <trkpt lat="42.94405" lon="-0.18321">
        <ele>1074.1</ele>
        <time>2018-09-02T06:02:13Z</time>
      </trkpt>
      <trkpt lat="42.94402" lon="-0.1832">
        <ele>1074.5</ele>
        <time>2018-09-02T06:02:14Z</time>
      </trkpt>
      <trkpt lat="42.94399" lon="-0.1832">
        <ele>1075</ele>
        <time>2018-09-02T06:02:15Z</time>
      </trkpt>
      <trkpt lat="42.94397" lon="-0.1832">
        <ele>1075.5</ele>
        <time>2018-09-02T06:02:16Z</time>
      </trkpt>
      <trkpt lat="42.94394" lon="-0.1832">
        <ele>1076.1</ele>
        <time>2018-09-02T06:02:17Z</time>
      </trkpt>
      <trkpt lat="42.94386" lon="-0.18322">
        <ele>1077.8</ele>
        <time>2018-09-02T06:02:20Z</time>
      </trkpt>
      <trkpt lat="42.94384" lon="-0.18325">
        <ele>1078.4</ele>
        <time>2018-09-02T06:02:21Z</time>
      </trkpt>
      <trkpt lat="42.94383" lon="-0.18328">
        <ele>1078.9</ele>
        <time>2018-09-02T06:02:22Z</time>
      </trkpt>
      <trkpt lat="42.94383" lon="-0.18332">
        <ele>1079.5</ele>
        <time>2018-09-02T06:02:23Z</time>
      </trkpt>
      <trkpt lat="42.94383" lon="-0.18335">
        <ele>1079.8</ele>
        <time>2018-09-02T06:02:24Z</time>
      </trkpt>
      <trkpt lat="42.94385" lon="-0.18342">
        <ele>1080</ele>
        <time>2018-09-02T06:02:26Z</time>
      </trkpt>
      <trkpt lat="42.94388" lon="-0.18347">
        <ele>1080.1</ele>
        <time>2018-09-02T06:02:28Z</time>
      </trkpt>
      <trkpt lat="42.9439" lon="-0.1835">
        <ele>1080</ele>
        <time>2018-09-02T06:02:29Z</time>
      </trkpt>
      <trkpt lat="42.94392" lon="-0.18353">
        <ele>1080</ele>
        <time>2018-09-02T06:02:30Z</time>
      </trkpt>
      <trkpt lat="42.94393" lon="-0.18356">
        <ele>1080</ele>
        <time>2018-09-02T06:02:31Z</time>
      </trkpt>
      <trkpt lat="42.94395" lon="-0.18359">
        <ele>1080</ele>
        <time>2018-09-02T06:02:32Z</time>
      </trkpt>
      <trkpt lat="42.94398" lon="-0.18364">
        <ele>1080.1</ele>
        <time>2018-09-02T06:02:34Z</time>
      </trkpt>
      <trkpt lat="42.94403" lon="-0.18369">
        <ele>1080.3</ele>
        <time>2018-09-02T06:02:36Z</time>
      </trkpt>
      <trkpt lat="42.94405" lon="-0.18372">
        <ele>1080.5</ele>
        <time>2018-09-02T06:02:37Z</time>
      </trkpt>
      <trkpt lat="42.94407" lon="-0.18375">
        <ele>1080.6</ele>
        <time>2018-09-02T06:02:38Z</time>
      </trkpt>
      <trkpt lat="42.9441" lon="-0.18377">
        <ele>1080.7</ele>
        <time>2018-09-02T06:02:39Z</time>
      </trkpt>
      <trkpt lat="42.94413" lon="-0.1838">
        <ele>1080.8</ele>
        <time>2018-09-02T06:02:40Z</time>
      </trkpt>
      <trkpt lat="42.94427" lon="-0.18389">
        <ele>1081</ele>
        <time>2018-09-02T06:02:45Z</time>
      </trkpt>
      <trkpt lat="42.94435" lon="-0.18395">
        <ele>1081.5</ele>
        <time>2018-09-02T06:02:48Z</time>
      </trkpt>
      <trkpt lat="42.94437" lon="-0.18397">
        <ele>1081.8</ele>
        <time>2018-09-02T06:02:49Z</time>
      </trkpt>
      <trkpt lat="42.9444" lon="-0.184">
        <ele>1082.3</ele>
        <time>2018-09-02T06:02:50Z</time>
      </trkpt>
      <trkpt lat="42.94442" lon="-0.18402">
        <ele>1082.7</ele>
        <time>2018-09-02T06:02:51Z</time>
      </trkpt>
      <trkpt lat="42.94444" lon="-0.18404">
        <ele>1082.9</ele>
        <time>2018-09-02T06:02:52Z</time>
      </trkpt>
      <trkpt lat="42.94452" lon="-0.18411">
        <ele>1084.2</ele>
        <time>2018-09-02T06:02:55Z</time>
      </trkpt>
      <trkpt lat="42.94454" lon="-0.18414">
        <ele>1084.7</ele>
        <time>2018-09-02T06:02:56Z</time>
      </trkpt>
      <trkpt lat="42.94456" lon="-0.18417">
        <ele>1085.2</ele>
        <time>2018-09-02T06:02:57Z</time>
      </trkpt>
      <trkpt lat="42.94458" lon="-0.1842">
        <ele>1085.5</ele>
        <time>2018-09-02T06:02:58Z</time>
      </trkpt>
      <trkpt lat="42.9446" lon="-0.18423">
        <ele>1085.9</ele>
        <time>2018-09-02T06:02:59Z</time>
      </trkpt>
      <trkpt lat="42.94467" lon="-0.18435">
        <ele>1087.2</ele>
        <time>2018-09-02T06:03:03Z</time>
      </trkpt>
      <trkpt lat="42.94468" lon="-0.18439">
        <ele>1087.6</ele>
        <time>2018-09-02T06:03:04Z</time>
      </trkpt>
      <trkpt lat="42.94469" lon="-0.18442">
        <ele>1088</ele>
        <time>2018-09-02T06:03:05Z</time>
      </trkpt>
      <trkpt lat="42.9447" lon="-0.18446">
        <ele>1088.4</ele>
        <time>2018-09-02T06:03:06Z</time>
      </trkpt>
      <trkpt lat="42.94471" lon="-0.1845">
        <ele>1088.9</ele>
        <time>2018-09-02T06:03:07Z</time>
      </trkpt>
      <trkpt lat="42.94477" lon="-0.18464">
        <ele>1090.8</ele>
        <time>2018-09-02T06:03:11Z</time>
      </trkpt>
      <trkpt lat="42.94479" lon="-0.18467">
        <ele>1091.3</ele>
        <time>2018-09-02T06:03:12Z</time>
      </trkpt>
      <trkpt lat="42.94481" lon="-0.18471">
        <ele>1091.8</ele>
        <time>2018-09-02T06:03:13Z</time>
      </trkpt>
      <trkpt lat="42.94482" lon="-0.18474">
        <ele>1092.2</ele>
        <time>2018-09-02T06:03:14Z</time>
      </trkpt>
      <trkpt lat="42.94484" lon="-0.18477">
        <ele>1092.6</ele>
        <time>2018-09-02T06:03:15Z</time>
      </trkpt>
      <trkpt lat="42.94489" lon="-0.18486">
        <ele>1093.6</ele>
        <time>2018-09-02T06:03:18Z</time>
      </trkpt>
      <trkpt lat="42.94491" lon="-0.18489">
        <ele>1094</ele>
        <time>2018-09-02T06:03:19Z</time>
      </trkpt>
      <trkpt lat="42.94493" lon="-0.18491">
        <ele>1094.3</ele>
        <time>2018-09-02T06:03:20Z</time>
      </trkpt>
      <trkpt lat="42.94495" lon="-0.18494">
        <ele>1094.5</ele>
        <time>2018-09-02T06:03:21Z</time>
      </trkpt>
      <trkpt lat="42.94497" lon="-0.18496">
        <ele>1094.7</ele>
        <time>2018-09-02T06:03:22Z</time>
      </trkpt>
      <trkpt lat="42.94502" lon="-0.185">
        <ele>1095.3</ele>
        <time>2018-09-02T06:03:24Z</time>
      </trkpt>
      <trkpt lat="42.94504" lon="-0.18502">
        <ele>1095.8</ele>
        <time>2018-09-02T06:03:25Z</time>
      </trkpt>
      <trkpt lat="42.94506" lon="-0.18502">
        <ele>1096.3</ele>
        <time>2018-09-02T06:03:26Z</time>
      </trkpt>
      <trkpt lat="42.94509" lon="-0.18502">
        <ele>1096.8</ele>
        <time>2018-09-02T06:03:27Z</time>
      </trkpt>
      <trkpt lat="42.94515" lon="-0.18501">
        <ele>1097.7</ele>
        <time>2018-09-02T06:03:29Z</time>
      </trkpt>
      <trkpt lat="42.94517" lon="-0.18499">
        <ele>1097.9</ele>
        <time>2018-09-02T06:03:30Z</time>
      </trkpt>
      <trkpt lat="42.94519" lon="-0.18497">
        <ele>1098.2</ele>
        <time>2018-09-02T06:03:31Z</time>
      </trkpt>
      <trkpt lat="42.94522" lon="-0.18496">
        <ele>1098.4</ele>
        <time>2018-09-02T06:03:32Z</time>
      </trkpt>
      <trkpt lat="42.94524" lon="-0.18494">
        <ele>1098.7</ele>
        <time>2018-09-02T06:03:33Z</time>
      </trkpt>
      <trkpt lat="42.94526" lon="-0.18492">
        <ele>1098.8</ele>
        <time>2018-09-02T06:03:34Z</time>
      </trkpt>
      <trkpt lat="42.94533" lon="-0.18485">
        <ele>1099.3</ele>
        <time>2018-09-02T06:03:37Z</time>
      </trkpt>
      <trkpt lat="42.94535" lon="-0.18483">
        <ele>1099.4</ele>
        <time>2018-09-02T06:03:38Z</time>
      </trkpt>
      <trkpt lat="42.94537" lon="-0.1848">
        <ele>1099.6</ele>
        <time>2018-09-02T06:03:39Z</time>
      </trkpt>
      <trkpt lat="42.9454" lon="-0.18478">
        <ele>1099.8</ele>
        <time>2018-09-02T06:03:40Z</time>
      </trkpt>
      <trkpt lat="42.94543" lon="-0.18476">
        <ele>1100.1</ele>
        <time>2018-09-02T06:03:41Z</time>
      </trkpt>
      <trkpt lat="42.94558" lon="-0.18466">
        <ele>1101.7</ele>
        <time>2018-09-02T06:03:47Z</time>
      </trkpt>
      <trkpt lat="42.94561" lon="-0.18464">
        <ele>1101.9</ele>
        <time>2018-09-02T06:03:48Z</time>
      </trkpt>
      <trkpt lat="42.94563" lon="-0.18463">
        <ele>1102.1</ele>
        <time>2018-09-02T06:03:49Z</time>
      </trkpt>
      <trkpt lat="42.94566" lon="-0.18461">
        <ele>1102.3</ele>
        <time>2018-09-02T06:03:50Z</time>
      </trkpt>
      <trkpt lat="42.94575" lon="-0.18457">
        <ele>1103.1</ele>
        <time>2018-09-02T06:03:54Z</time>
      </trkpt>
      <trkpt lat="42.94578" lon="-0.18455">
        <ele>1103.4</ele>
        <time>2018-09-02T06:03:55Z</time>
      </trkpt>
      <trkpt lat="42.9458" lon="-0.18454">
        <ele>1103.6</ele>
        <time>2018-09-02T06:03:56Z</time>
      </trkpt>
      <trkpt lat="42.94583" lon="-0.18453">
        <ele>1103.8</ele>
        <time>2018-09-02T06:03:57Z</time>
      </trkpt>
      <trkpt lat="42.94585" lon="-0.18452">
        <ele>1104.2</ele>
        <time>2018-09-02T06:03:58Z</time>
      </trkpt>
      <trkpt lat="42.94592" lon="-0.18449">
        <ele>1105.3</ele>
        <time>2018-09-02T06:04:01Z</time>
      </trkpt>
      <trkpt lat="42.94594" lon="-0.18448">
        <ele>1105.7</ele>
        <time>2018-09-02T06:04:02Z</time>
      </trkpt>
      <trkpt lat="42.94597" lon="-0.18448">
        <ele>1106.3</ele>
        <time>2018-09-02T06:04:03Z</time>
      </trkpt>
      <trkpt lat="42.94599" lon="-0.18448">
        <ele>1106.9</ele>
        <time>2018-09-02T06:04:04Z</time>
      </trkpt>
      <trkpt lat="42.94602" lon="-0.18448">
        <ele>1107.4</ele>
        <time>2018-09-02T06:04:05Z</time>
      </trkpt>
      <trkpt lat="42.94604" lon="-0.18448">
        <ele>1107.9</ele>
        <time>2018-09-02T06:04:06Z</time>
      </trkpt>
      <trkpt lat="42.94606" lon="-0.18449">
        <ele>1108.4</ele>
        <time>2018-09-02T06:04:07Z</time>
      </trkpt>
      <trkpt lat="42.94609" lon="-0.18449">
        <ele>1109</ele>
        <time>2018-09-02T06:04:08Z</time>
      </trkpt>
      <trkpt lat="42.94611" lon="-0.18451">
        <ele>1109.6</ele>
        <time>2018-09-02T06:04:09Z</time>
      </trkpt>
      <trkpt lat="42.94613" lon="-0.18453">
        <ele>1110.3</ele>
        <time>2018-09-02T06:04:10Z</time>
      </trkpt>
      <trkpt lat="42.94615" lon="-0.18455">
        <ele>1111</ele>
        <time>2018-09-02T06:04:11Z</time>
      </trkpt>
      <trkpt lat="42.94618" lon="-0.18461">
        <ele>1112.3</ele>
        <time>2018-09-02T06:04:13Z</time>
      </trkpt>
      <trkpt lat="42.94619" lon="-0.18465">
        <ele>1112.8</ele>
        <time>2018-09-02T06:04:14Z</time>
      </trkpt>
      <trkpt lat="42.94619" lon="-0.18468">
        <ele>1113.3</ele>
        <time>2018-09-02T06:04:15Z</time>
      </trkpt>
      <trkpt lat="42.94619" lon="-0.18472">
        <ele>1113.6</ele>
        <time>2018-09-02T06:04:16Z</time>
      </trkpt>
      <trkpt lat="42.94619" lon="-0.18476">
        <ele>1113.9</ele>
        <time>2018-09-02T06:04:17Z</time>
      </trkpt>
      <trkpt lat="42.94619" lon="-0.18494">
        <ele>1115.4</ele>
        <time>2018-09-02T06:04:22Z</time>
      </trkpt>
      <trkpt lat="42.94619" lon="-0.18498">
        <ele>1115.7</ele>
        <time>2018-09-02T06:04:23Z</time>
      </trkpt>
      <trkpt lat="42.94618" lon="-0.18501">
        <ele>1115.7</ele>
        <time>2018-09-02T06:04:24Z</time>
      </trkpt>
      <trkpt lat="42.94617" lon="-0.18505">
        <ele>1115.7</ele>
        <time>2018-09-02T06:04:25Z</time>
      </trkpt>
      <trkpt lat="42.94617" lon="-0.18509">
        <ele>1115.8</ele>
        <time>2018-09-02T06:04:26Z</time>
      </trkpt>
      <trkpt lat="42.94618" lon="-0.18524">
        <ele>1116.3</ele>
        <time>2018-09-02T06:04:30Z</time>
      </trkpt>
      <trkpt lat="42.94619" lon="-0.18528">
        <ele>1116.6</ele>
        <time>2018-09-02T06:04:31Z</time>
      </trkpt>
      <trkpt lat="42.94619" lon="-0.18532">
        <ele>1116.8</ele>
        <time>2018-09-02T06:04:32Z</time>
      </trkpt>
      <trkpt lat="42.9462" lon="-0.18536">
        <ele>1117.2</ele>
        <time>2018-09-02T06:04:33Z</time>
      </trkpt>
      <trkpt lat="42.94621" lon="-0.18539">
        <ele>1117.5</ele>
        <time>2018-09-02T06:04:34Z</time>
      </trkpt>
      <trkpt lat="42.94622" lon="-0.18543">
        <ele>1117.8</ele>
        <time>2018-09-02T06:04:35Z</time>
      </trkpt>
      <trkpt lat="42.94626" lon="-0.18557">
        <ele>1119.2</ele>
        <time>2018-09-02T06:04:39Z</time>
      </trkpt>
      <trkpt lat="42.94626" lon="-0.18561">
        <ele>1119.6</ele>
        <time>2018-09-02T06:04:40Z</time>
      </trkpt>
      <trkpt lat="42.94627" lon="-0.18564">
        <ele>1120.1</ele>
        <time>2018-09-02T06:04:41Z</time>
      </trkpt>
      <trkpt lat="42.94628" lon="-0.18567">
        <ele>1120.4</ele>
        <time>2018-09-02T06:04:42Z</time>
      </trkpt>
      <trkpt lat="42.94629" lon="-0.1857">
        <ele>1120.9</ele>
        <time>2018-09-02T06:04:43Z</time>
      </trkpt>
      <trkpt lat="42.94631" lon="-0.18575">
        <ele>1121.7</ele>
        <time>2018-09-02T06:04:45Z</time>
      </trkpt>
      <trkpt lat="42.94633" lon="-0.18577">
        <ele>1122.2</ele>
        <time>2018-09-02T06:04:46Z</time>
      </trkpt>
      <trkpt lat="42.94634" lon="-0.1858">
        <ele>1122.7</ele>
        <time>2018-09-02T06:04:47Z</time>
      </trkpt>
      <trkpt lat="42.94635" lon="-0.18583">
        <ele>1123.1</ele>
        <time>2018-09-02T06:04:48Z</time>
      </trkpt>
      <trkpt lat="42.94636" lon="-0.18587">
        <ele>1123.5</ele>
        <time>2018-09-02T06:04:49Z</time>
      </trkpt>
      <trkpt lat="42.94637" lon="-0.18595">
        <ele>1124.3</ele>
        <time>2018-09-02T06:04:52Z</time>
      </trkpt>
      <trkpt lat="42.94637" lon="-0.18598">
        <ele>1124.6</ele>
        <time>2018-09-02T06:04:53Z</time>
      </trkpt>
      <trkpt lat="42.94637" lon="-0.186">
        <ele>1124.9</ele>
        <time>2018-09-02T06:04:54Z</time>
      </trkpt>
      <trkpt lat="42.94638" lon="-0.18603">
        <ele>1125.2</ele>
        <time>2018-09-02T06:04:55Z</time>
      </trkpt>
      <trkpt lat="42.94639" lon="-0.18605">
        <ele>1125.7</ele>
        <time>2018-09-02T06:04:56Z</time>
      </trkpt>
      <trkpt lat="42.94643" lon="-0.18613">
        <ele>1127.3</ele>
        <time>2018-09-02T06:04:59Z</time>
      </trkpt>
      <trkpt lat="42.94644" lon="-0.18616">
        <ele>1127.6</ele>
        <time>2018-09-02T06:05:00Z</time>
      </trkpt>
      <trkpt lat="42.94645" lon="-0.18619">
        <ele>1127.9</ele>
        <time>2018-09-02T06:05:01Z</time>
      </trkpt>
      <trkpt lat="42.94645" lon="-0.18622">
        <ele>1128.1</ele>
        <time>2018-09-02T06:05:02Z</time>
      </trkpt>
      <trkpt lat="42.94645" lon="-0.18625">
        <ele>1128.2</ele>
        <time>2018-09-02T06:05:03Z</time>
      </trkpt>
      <trkpt lat="42.94646" lon="-0.18632">
        <ele>1128.9</ele>
        <time>2018-09-02T06:05:06Z</time>
      </trkpt>
      <trkpt lat="42.94647" lon="-0.18635">
        <ele>1129.2</ele>
        <time>2018-09-02T06:05:07Z</time>
      </trkpt>
      <trkpt lat="42.94648" lon="-0.18638">
        <ele>1129.6</ele>
        <time>2018-09-02T06:05:08Z</time>
      </trkpt>
      <trkpt lat="42.94649" lon="-0.18641">
        <ele>1130</ele>
        <time>2018-09-02T06:05:09Z</time>
      </trkpt>
      <trkpt lat="42.9465" lon="-0.18644">
        <ele>1130.5</ele>
        <time>2018-09-02T06:05:10Z</time>
      </trkpt>
      <trkpt lat="42.94652" lon="-0.18656">
        <ele>1132</ele>
        <time>2018-09-02T06:05:14Z</time>
      </trkpt>
      <trkpt lat="42.94652" lon="-0.18659">
        <ele>1132.2</ele>
        <time>2018-09-02T06:05:15Z</time>
      </trkpt>
      <trkpt lat="42.94652" lon="-0.18663">
        <ele>1132.4</ele>
        <time>2018-09-02T06:05:16Z</time>
      </trkpt>
      <trkpt lat="42.94651" lon="-0.18665">
        <ele>1132.6</ele>
        <time>2018-09-02T06:05:17Z</time>
      </trkpt>
      <trkpt lat="42.94651" lon="-0.18668">
        <ele>1132.8</ele>
        <time>2018-09-02T06:05:18Z</time>
      </trkpt>
      <trkpt lat="42.94654" lon="-0.1868">
        <ele>1133.9</ele>
        <time>2018-09-02T06:05:22Z</time>
      </trkpt>
      <trkpt lat="42.94654" lon="-0.18683">
        <ele>1134.2</ele>
        <time>2018-09-02T06:05:23Z</time>
      </trkpt>
      <trkpt lat="42.94655" lon="-0.18686">
        <ele>1134.5</ele>
        <time>2018-09-02T06:05:24Z</time>
      </trkpt>
      <trkpt lat="42.94656" lon="-0.18689">
        <ele>1134.7</ele>
        <time>2018-09-02T06:05:25Z</time>
      </trkpt>
      <trkpt lat="42.94656" lon="-0.18693">
        <ele>1134.9</ele>
        <time>2018-09-02T06:05:26Z</time>
      </trkpt>
      <trkpt lat="42.94656" lon="-0.187">
        <ele>1135.4</ele>
        <time>2018-09-02T06:05:28Z</time>
      </trkpt>
      <trkpt lat="42.94656" lon="-0.18706">
        <ele>1135.9</ele>
        <time>2018-09-02T06:05:30Z</time>
      </trkpt>
      <trkpt lat="42.94657" lon="-0.18709">
        <ele>1136.3</ele>
        <time>2018-09-02T06:05:31Z</time>
      </trkpt>
      <trkpt lat="42.94657" lon="-0.18712">
        <ele>1136.5</ele>
        <time>2018-09-02T06:05:32Z</time>
      </trkpt>
      <trkpt lat="42.94657" lon="-0.18715">
        <ele>1136.8</ele>
        <time>2018-09-02T06:05:33Z</time>
      </trkpt>
      <trkpt lat="42.94658" lon="-0.18719">
        <ele>1137.1</ele>
        <time>2018-09-02T06:05:34Z</time>
      </trkpt>
      <trkpt lat="42.94658" lon="-0.18735">
        <ele>1138.4</ele>
        <time>2018-09-02T06:05:39Z</time>
      </trkpt>
      <trkpt lat="42.94657" lon="-0.18738">
        <ele>1138.7</ele>
        <time>2018-09-02T06:05:40Z</time>
      </trkpt>
      <trkpt lat="42.94657" lon="-0.18741">
        <ele>1138.8</ele>
        <time>2018-09-02T06:05:41Z</time>
      </trkpt>
      <trkpt lat="42.94656" lon="-0.18745">
        <ele>1139</ele>
        <time>2018-09-02T06:05:42Z</time>
      </trkpt>
      <trkpt lat="42.94655" lon="-0.18748">
        <ele>1139.2</ele>
        <time>2018-09-02T06:05:43Z</time>
      </trkpt>
      <trkpt lat="42.94653" lon="-0.18759">
        <ele>1139.7</ele>
        <time>2018-09-02T06:05:46Z</time>
      </trkpt>
      <trkpt lat="42.9465" lon="-0.18766">
        <ele>1139.7</ele>
        <time>2018-09-02T06:05:48Z</time>
      </trkpt>
      <trkpt lat="42.94648" lon="-0.18769">
        <ele>1139.7</ele>
        <time>2018-09-02T06:05:49Z</time>
      </trkpt>
      <trkpt lat="42.94646" lon="-0.18772">
        <ele>1139.6</ele>
        <time>2018-09-02T06:05:50Z</time>
      </trkpt>
      <trkpt lat="42.94644" lon="-0.18774">
        <ele>1139.5</ele>
        <time>2018-09-02T06:05:51Z</time>
      </trkpt>
      <trkpt lat="42.94642" lon="-0.18777">
        <ele>1139.4</ele>
        <time>2018-09-02T06:05:52Z</time>
      </trkpt>
      <trkpt lat="42.94633" lon="-0.18793">
        <ele>1139.7</ele>
        <time>2018-09-02T06:05:57Z</time>
      </trkpt>
      <trkpt lat="42.94631" lon="-0.18796">
        <ele>1139.8</ele>
        <time>2018-09-02T06:05:58Z</time>
      </trkpt>
      <trkpt lat="42.9463" lon="-0.188">
        <ele>1140</ele>
        <time>2018-09-02T06:05:59Z</time>
      </trkpt>
      <trkpt lat="42.94629" lon="-0.18804">
        <ele>1140.1</ele>
        <time>2018-09-02T06:06:00Z</time>
      </trkpt>
      <trkpt lat="42.94627" lon="-0.18808">
        <ele>1140.3</ele>
        <time>2018-09-02T06:06:01Z</time>
      </trkpt>
      <trkpt lat="42.94626" lon="-0.18812">
        <ele>1140.5</ele>
        <time>2018-09-02T06:06:02Z</time>
      </trkpt>
      <trkpt lat="42.94625" lon="-0.18831">
        <ele>1141.8</ele>
        <time>2018-09-02T06:06:06Z</time>
      </trkpt>
      <trkpt lat="42.94626" lon="-0.18835">
        <ele>1142.1</ele>
        <time>2018-09-02T06:06:07Z</time>
      </trkpt>
      <trkpt lat="42.94626" lon="-0.1884">
        <ele>1142.6</ele>
        <time>2018-09-02T06:06:08Z</time>
      </trkpt>
      <trkpt lat="42.94628" lon="-0.18845">
        <ele>1143</ele>
        <time>2018-09-02T06:06:09Z</time>
      </trkpt>
      <trkpt lat="42.94629" lon="-0.18849">
        <ele>1143.4</ele>
        <time>2018-09-02T06:06:10Z</time>
      </trkpt>
      <trkpt lat="42.9463" lon="-0.18854">
        <ele>1143.8</ele>
        <time>2018-09-02T06:06:11Z</time>
      </trkpt>
      <trkpt lat="42.94632" lon="-0.18859">
        <ele>1144.3</ele>
        <time>2018-09-02T06:06:12Z</time>
      </trkpt>
      <trkpt lat="42.94642" lon="-0.18903">
        <ele>1146.2</ele>
        <time>2018-09-02T06:06:20Z</time>
      </trkpt>
      <trkpt lat="42.94643" lon="-0.18908">
        <ele>1146.3</ele>
        <time>2018-09-02T06:06:21Z</time>
      </trkpt>
      <trkpt lat="42.94645" lon="-0.18912">
        <ele>1146.5</ele>
        <time>2018-09-02T06:06:22Z</time>
      </trkpt>
      <trkpt lat="42.94648" lon="-0.18916">
        <ele>1146.6</ele>
        <time>2018-09-02T06:06:23Z</time>
      </trkpt>
      <trkpt lat="42.9465" lon="-0.1892">
        <ele>1146.9</ele>
        <time>2018-09-02T06:06:24Z</time>
      </trkpt>
      <trkpt lat="42.94653" lon="-0.18923">
        <ele>1147.2</ele>
        <time>2018-09-02T06:06:25Z</time>
      </trkpt>
      <trkpt lat="42.9466" lon="-0.18931">
        <ele>1148.1</ele>
        <time>2018-09-02T06:06:28Z</time>
      </trkpt>
      <trkpt lat="42.94663" lon="-0.18934">
        <ele>1148.3</ele>
        <time>2018-09-02T06:06:29Z</time>
      </trkpt>
      <trkpt lat="42.94666" lon="-0.18936">
        <ele>1148.6</ele>
        <time>2018-09-02T06:06:30Z</time>
      </trkpt>
      <trkpt lat="42.94669" lon="-0.18936">
        <ele>1148.8</ele>
        <time>2018-09-02T06:06:31Z</time>
      </trkpt>
      <trkpt lat="42.94672" lon="-0.18936">
        <ele>1148.9</ele>
        <time>2018-09-02T06:06:32Z</time>
      </trkpt>
      <trkpt lat="42.9468" lon="-0.18934">
        <ele>1149.2</ele>
        <time>2018-09-02T06:06:34Z</time>
      </trkpt>
      <trkpt lat="42.94685" lon="-0.18933">
        <ele>1149.4</ele>
        <time>2018-09-02T06:06:35Z</time>
      </trkpt>
      <trkpt lat="42.94703" lon="-0.1893">
        <ele>1150.5</ele>
        <time>2018-09-02T06:06:39Z</time>
      </trkpt>
      <trkpt lat="42.94707" lon="-0.1893">
        <ele>1150.7</ele>
        <time>2018-09-02T06:06:40Z</time>
      </trkpt>
      <trkpt lat="42.94715" lon="-0.18924">
        <ele>1151.7</ele>
        <time>2018-09-02T06:13:00Z</time>
      </trkpt>
      <trkpt lat="42.9471" lon="-0.18913">
        <ele>1152.4</ele>
        <time>2018-09-02T06:13:02Z</time>
      </trkpt>
      <trkpt lat="42.94711" lon="-0.18908">
        <ele>1152.9</ele>
        <time>2018-09-02T06:13:05Z</time>
      </trkpt>
      <trkpt lat="42.94718" lon="-0.18902">
        <ele>1154.1</ele>
        <time>2018-09-02T06:13:09Z</time>
      </trkpt>
      <trkpt lat="42.9472" lon="-0.18899">
        <ele>1154.7</ele>
        <time>2018-09-02T06:13:10Z</time>
      </trkpt>
      <trkpt lat="42.94723" lon="-0.18898">
        <ele>1155.1</ele>
        <time>2018-09-02T06:13:11Z</time>
      </trkpt>
      <trkpt lat="42.94726" lon="-0.18896">
        <ele>1155.7</ele>
        <time>2018-09-02T06:13:12Z</time>
      </trkpt>
      <trkpt lat="42.94728" lon="-0.18895">
        <ele>1156.3</ele>
        <time>2018-09-02T06:13:13Z</time>
      </trkpt>
      <trkpt lat="42.94729" lon="-0.18894">
        <ele>1156.6</ele>
        <time>2018-09-02T06:13:14Z</time>
      </trkpt>
      <trkpt lat="42.94732" lon="-0.18893">
        <ele>1157.1</ele>
        <time>2018-09-02T06:13:15Z</time>
      </trkpt>
      <trkpt lat="42.94733" lon="-0.18893">
        <ele>1157.4</ele>
        <time>2018-09-02T06:13:16Z</time>
      </trkpt>
      <trkpt lat="42.94734" lon="-0.18893">
        <ele>1157.6</ele>
        <time>2018-09-02T06:13:17Z</time>
      </trkpt>
      <trkpt lat="42.94736" lon="-0.18893">
        <ele>1158</ele>
        <time>2018-09-02T06:13:18Z</time>
      </trkpt>
      <trkpt lat="42.94738" lon="-0.18893">
        <ele>1158.3</ele>
        <time>2018-09-02T06:13:19Z</time>
      </trkpt>
      <trkpt lat="42.9474" lon="-0.18893">
        <ele>1158.7</ele>
        <time>2018-09-02T06:13:20Z</time>
      </trkpt>
      <trkpt lat="42.94743" lon="-0.18892">
        <ele>1159.2</ele>
        <time>2018-09-02T06:13:21Z</time>
      </trkpt>
      <trkpt lat="42.94745" lon="-0.18891">
        <ele>1159.8</ele>
        <time>2018-09-02T06:13:23Z</time>
      </trkpt>
      <trkpt lat="42.94746" lon="-0.18891">
        <ele>1160</ele>
        <time>2018-09-02T06:13:24Z</time>
      </trkpt>
      <trkpt lat="42.94747" lon="-0.18891">
        <ele>1160.2</ele>
        <time>2018-09-02T06:13:25Z</time>
      </trkpt>
      <trkpt lat="42.94748" lon="-0.18891">
        <ele>1160.2</ele>
        <time>2018-09-02T06:13:26Z</time>
      </trkpt>
      <trkpt lat="42.94749" lon="-0.18892">
        <ele>1160.3</ele>
        <time>2018-09-02T06:13:27Z</time>
      </trkpt>
      <trkpt lat="42.94752" lon="-0.1889">
        <ele>1161.1</ele>
        <time>2018-09-02T06:13:29Z</time>
      </trkpt>
      <trkpt lat="42.94755" lon="-0.18889">
        <ele>1161.8</ele>
        <time>2018-09-02T06:13:30Z</time>
      </trkpt>
      <trkpt lat="42.94757" lon="-0.18887">
        <ele>1162.3</ele>
        <time>2018-09-02T06:13:31Z</time>
      </trkpt>
      <trkpt lat="42.94759" lon="-0.18886">
        <ele>1162.9</ele>
        <time>2018-09-02T06:13:32Z</time>
      </trkpt>
      <trkpt lat="42.94762" lon="-0.18884">
        <ele>1163.5</ele>
        <time>2018-09-02T06:13:33Z</time>
      </trkpt>
      <trkpt lat="42.94765" lon="-0.18883">
        <ele>1164</ele>
        <time>2018-09-02T06:13:34Z</time>
      </trkpt>
      <trkpt lat="42.94769" lon="-0.18882">
        <ele>1164.9</ele>
        <time>2018-09-02T06:13:36Z</time>
      </trkpt>
      <trkpt lat="42.94772" lon="-0.18881">
        <ele>1165.5</ele>
        <time>2018-09-02T06:13:37Z</time>
      </trkpt>
      <trkpt lat="42.94775" lon="-0.18882">
        <ele>1165.9</ele>
        <time>2018-09-02T06:13:38Z</time>
      </trkpt>
      <trkpt lat="42.94777" lon="-0.18883">
        <ele>1166.3</ele>
        <time>2018-09-02T06:13:39Z</time>
      </trkpt>
      <trkpt lat="42.9478" lon="-0.18884">
        <ele>1166.8</ele>
        <time>2018-09-02T06:13:40Z</time>
      </trkpt>
      <trkpt lat="42.94786" lon="-0.18887">
        <ele>1168</ele>
        <time>2018-09-02T06:13:43Z</time>
      </trkpt>
      <trkpt lat="42.94791" lon="-0.18887">
        <ele>1168.9</ele>
        <time>2018-09-02T06:13:45Z</time>
      </trkpt>
      <trkpt lat="42.94793" lon="-0.18888">
        <ele>1169.3</ele>
        <time>2018-09-02T06:13:46Z</time>
      </trkpt>
      <trkpt lat="42.94795" lon="-0.18889">
        <ele>1169.7</ele>
        <time>2018-09-02T06:13:47Z</time>
      </trkpt>
      <trkpt lat="42.94805" lon="-0.18894">
        <ele>1171.2</ele>
        <time>2018-09-02T06:13:50Z</time>
      </trkpt>
      <trkpt lat="42.94813" lon="-0.18907">
        <ele>1171.6</ele>
        <time>2018-09-02T06:13:55Z</time>
      </trkpt>
      <trkpt lat="42.94822" lon="-0.18926">
        <ele>1171.7</ele>
        <time>2018-09-02T06:14:00Z</time>
      </trkpt>
      <trkpt lat="42.94834" lon="-0.18953">
        <ele>1171.3</ele>
        <time>2018-09-02T06:14:05Z</time>
      </trkpt>
      <trkpt lat="42.9484" lon="-0.18959">
        <ele>1172.1</ele>
        <time>2018-09-02T06:14:07Z</time>
      </trkpt>
      <trkpt lat="42.94844" lon="-0.18969">
        <ele>1172</ele>
        <time>2018-09-02T06:14:09Z</time>
      </trkpt>
      <trkpt lat="42.94856" lon="-0.18986">
        <ele>1172.7</ele>
        <time>2018-09-02T06:14:13Z</time>
      </trkpt>
      <trkpt lat="42.94868" lon="-0.19006">
        <ele>1173.3</ele>
        <time>2018-09-02T06:14:17Z</time>
      </trkpt>
      <trkpt lat="42.94872" lon="-0.19011">
        <ele>1173.7</ele>
        <time>2018-09-02T06:14:18Z</time>
      </trkpt>
      <trkpt lat="42.94881" lon="-0.1903">
        <ele>1174</ele>
        <time>2018-09-02T06:14:21Z</time>
      </trkpt>
      <trkpt lat="42.94886" lon="-0.19042">
        <ele>1173.4</ele>
        <time>2018-09-02T06:14:23Z</time>
      </trkpt>
      <trkpt lat="42.94898" lon="-0.19075">
        <ele>1172.3</ele>
        <time>2018-09-02T06:14:29Z</time>
      </trkpt>
      <trkpt lat="42.94901" lon="-0.1908">
        <ele>1172.5</ele>
        <time>2018-09-02T06:14:30Z</time>
      </trkpt>
      <trkpt lat="42.94909" lon="-0.19097">
        <ele>1172.9</ele>
        <time>2018-09-02T06:14:34Z</time>
      </trkpt>
      <trkpt lat="42.94918" lon="-0.19117">
        <ele>1172.4</ele>
        <time>2018-09-02T06:14:38Z</time>
      </trkpt>
      <trkpt lat="42.94918" lon="-0.19122">
        <ele>1171.8</ele>
        <time>2018-09-02T06:14:39Z</time>
      </trkpt>
      <trkpt lat="42.94919" lon="-0.19129">
        <ele>1171</ele>
        <time>2018-09-02T06:14:40Z</time>
      </trkpt>
      <trkpt lat="42.9492" lon="-0.19136">
        <ele>1170.3</ele>
        <time>2018-09-02T06:14:41Z</time>
      </trkpt>
      <trkpt lat="42.94921" lon="-0.19142">
        <ele>1169.7</ele>
        <time>2018-09-02T06:14:42Z</time>
      </trkpt>
      <trkpt lat="42.94922" lon="-0.19148">
        <ele>1169.4</ele>
        <time>2018-09-02T06:14:43Z</time>
      </trkpt>
      <trkpt lat="42.94929" lon="-0.19158">
        <ele>1169.7</ele>
        <time>2018-09-02T06:14:45Z</time>
      </trkpt>
      <trkpt lat="42.94936" lon="-0.19166">
        <ele>1170.3</ele>
        <time>2018-09-02T06:14:47Z</time>
      </trkpt>
      <trkpt lat="42.94944" lon="-0.19177">
        <ele>1170.7</ele>
        <time>2018-09-02T06:14:50Z</time>
      </trkpt>
      <trkpt lat="42.94951" lon="-0.19187">
        <ele>1171.1</ele>
        <time>2018-09-02T06:14:53Z</time>
      </trkpt>
      <trkpt lat="42.94953" lon="-0.1919">
        <ele>1171.2</ele>
        <time>2018-09-02T06:14:54Z</time>
      </trkpt>
      <trkpt lat="42.94956" lon="-0.19192">
        <ele>1171.4</ele>
        <time>2018-09-02T06:14:55Z</time>
      </trkpt>
      <trkpt lat="42.94958" lon="-0.19195">
        <ele>1171.4</ele>
        <time>2018-09-02T06:14:56Z</time>
      </trkpt>
      <trkpt lat="42.9496" lon="-0.19197">
        <ele>1171.4</ele>
        <time>2018-09-02T06:14:57Z</time>
      </trkpt>
      <trkpt lat="42.94966" lon="-0.19202">
        <ele>1171.8</ele>
        <time>2018-09-02T06:14:59Z</time>
      </trkpt>
      <trkpt lat="42.94967" lon="-0.19204">
        <ele>1171.7</ele>
        <time>2018-09-02T06:15:00Z</time>
      </trkpt>
      <trkpt lat="42.94968" lon="-0.19206">
        <ele>1171.6</ele>
        <time>2018-09-02T06:15:01Z</time>
      </trkpt>
      <trkpt lat="42.94971" lon="-0.19208">
        <ele>1171.8</ele>
        <time>2018-09-02T06:15:02Z</time>
      </trkpt>
      <trkpt lat="42.94973" lon="-0.1921">
        <ele>1171.8</ele>
        <time>2018-09-02T06:15:03Z</time>
      </trkpt>
      <trkpt lat="42.94986" lon="-0.19219">
        <ele>1172.9</ele>
        <time>2018-09-02T06:15:07Z</time>
      </trkpt>
      <trkpt lat="42.95057" lon="-0.19295">
        <ele>1178</ele>
        <time>2018-09-02T06:15:34Z</time>
      </trkpt>
      <trkpt lat="42.95066" lon="-0.19313">
        <ele>1177.4</ele>
        <time>2018-09-02T06:15:37Z</time>
      </trkpt>
      <trkpt lat="42.95069" lon="-0.19321">
        <ele>1177</ele>
        <time>2018-09-02T06:15:38Z</time>
      </trkpt>
      <trkpt lat="42.95073" lon="-0.19328">
        <ele>1176.8</ele>
        <time>2018-09-02T06:15:39Z</time>
      </trkpt>
      <trkpt lat="42.95078" lon="-0.19333">
        <ele>1176.9</ele>
        <time>2018-09-02T06:15:40Z</time>
      </trkpt>
      <trkpt lat="42.95081" lon="-0.19338">
        <ele>1176.9</ele>
        <time>2018-09-02T06:15:41Z</time>
      </trkpt>
      <trkpt lat="42.95084" lon="-0.19344">
        <ele>1176.7</ele>
        <time>2018-09-02T06:15:42Z</time>
      </trkpt>
      <trkpt lat="42.95085" lon="-0.19349">
        <ele>1176.2</ele>
        <time>2018-09-02T06:15:43Z</time>
      </trkpt>
      <trkpt lat="42.95086" lon="-0.19354">
        <ele>1175.8</ele>
        <time>2018-09-02T06:15:44Z</time>
      </trkpt>
      <trkpt lat="42.95087" lon="-0.19362">
        <ele>1174.9</ele>
        <time>2018-09-02T06:15:45Z</time>
      </trkpt>
      <trkpt lat="42.9509" lon="-0.19371">
        <ele>1174.6</ele>
        <time>2018-09-02T06:15:46Z</time>
      </trkpt>
      <trkpt lat="42.95093" lon="-0.1938">
        <ele>1174.4</ele>
        <time>2018-09-02T06:15:47Z</time>
      </trkpt>
      <trkpt lat="42.95097" lon="-0.1939">
        <ele>1174.2</ele>
        <time>2018-09-02T06:15:48Z</time>
      </trkpt>
      <trkpt lat="42.951" lon="-0.19401">
        <ele>1173.6</ele>
        <time>2018-09-02T06:15:49Z</time>
      </trkpt>
      <trkpt lat="42.95103" lon="-0.19411">
        <ele>1172.9</ele>
        <time>2018-09-02T06:15:50Z</time>
      </trkpt>
      <trkpt lat="42.95107" lon="-0.19421">
        <ele>1172.3</ele>
        <time>2018-09-02T06:15:51Z</time>
      </trkpt>
      <trkpt lat="42.95111" lon="-0.1943">
        <ele>1171.6</ele>
        <time>2018-09-02T06:15:52Z</time>
      </trkpt>
      <trkpt lat="42.95115" lon="-0.19439">
        <ele>1171</ele>
        <time>2018-09-02T06:15:53Z</time>
      </trkpt>
      <trkpt lat="42.95121" lon="-0.19445">
        <ele>1171.1</ele>
        <time>2018-09-02T06:15:54Z</time>
      </trkpt>
      <trkpt lat="42.95126" lon="-0.1945">
        <ele>1171.3</ele>
        <time>2018-09-02T06:15:55Z</time>
      </trkpt>
      <trkpt lat="42.95137" lon="-0.1946">
        <ele>1171.4</ele>
        <time>2018-09-02T06:15:57Z</time>
      </trkpt>
      <trkpt lat="42.95147" lon="-0.1947">
        <ele>1171.2</ele>
        <time>2018-09-02T06:15:59Z</time>
      </trkpt>
      <trkpt lat="42.95157" lon="-0.1948">
        <ele>1171.7</ele>
        <time>2018-09-02T06:16:01Z</time>
      </trkpt>
      <trkpt lat="42.9517" lon="-0.1949">
        <ele>1172.4</ele>
        <time>2018-09-02T06:16:04Z</time>
      </trkpt>
      <trkpt lat="42.95177" lon="-0.19499">
        <ele>1172.2</ele>
        <time>2018-09-02T06:16:06Z</time>
      </trkpt>
      <trkpt lat="42.95188" lon="-0.19509">
        <ele>1172.3</ele>
        <time>2018-09-02T06:16:09Z</time>
      </trkpt>
      <trkpt lat="42.95192" lon="-0.19511">
        <ele>1172.7</ele>
        <time>2018-09-02T06:16:10Z</time>
      </trkpt>
      <trkpt lat="42.95196" lon="-0.19512">
        <ele>1173.1</ele>
        <time>2018-09-02T06:16:11Z</time>
      </trkpt>
      <trkpt lat="42.95202" lon="-0.19514">
        <ele>1173.9</ele>
        <time>2018-09-02T06:16:12Z</time>
      </trkpt>
      <trkpt lat="42.95207" lon="-0.19517">
        <ele>1174.4</ele>
        <time>2018-09-02T06:16:13Z</time>
      </trkpt>
      <trkpt lat="42.95216" lon="-0.19523">
        <ele>1174.9</ele>
        <time>2018-09-02T06:16:15Z</time>
      </trkpt>
      <trkpt lat="42.95249" lon="-0.19548">
        <ele>1172.9</ele>
        <time>2018-09-02T06:16:22Z</time>
      </trkpt>
      <trkpt lat="42.95284" lon="-0.19572">
        <ele>1172.3</ele>
        <time>2018-09-02T06:16:28Z</time>
      </trkpt>
      <trkpt lat="42.95324" lon="-0.19598">
        <ele>1172.5</ele>
        <time>2018-09-02T06:16:34Z</time>
      </trkpt>
      <trkpt lat="42.95361" lon="-0.19611">
        <ele>1175</ele>
        <time>2018-09-02T06:16:40Z</time>
      </trkpt>
      <trkpt lat="42.95389" lon="-0.19622">
        <ele>1174.3</ele>
        <time>2018-09-02T06:16:45Z</time>
      </trkpt>
      <trkpt lat="42.95394" lon="-0.19624">
        <ele>1173.6</ele>
        <time>2018-09-02T06:16:46Z</time>
      </trkpt>
      <trkpt lat="42.95401" lon="-0.19625">
        <ele>1172.9</ele>
        <time>2018-09-02T06:16:48Z</time>
      </trkpt>
      <trkpt lat="42.95406" lon="-0.19627">
        <ele>1172.1</ele>
        <time>2018-09-02T06:16:51Z</time>
      </trkpt>
      <trkpt lat="42.95408" lon="-0.19627">
        <ele>1172</ele>
        <time>2018-09-02T06:16:52Z</time>
      </trkpt>
      <trkpt lat="42.95412" lon="-0.19623">
        <ele>1172.9</ele>
        <time>2018-09-02T06:16:55Z</time>
      </trkpt>
      <trkpt lat="42.95425" lon="-0.19616">
        <ele>1169.1</ele>
        <time>2018-09-02T06:16:58Z</time>
      </trkpt>
      <trkpt lat="42.95429" lon="-0.19614">
        <ele>1167</ele>
        <time>2018-09-02T06:16:59Z</time>
      </trkpt>
      <trkpt lat="42.95435" lon="-0.19609">
        <ele>1163.5</ele>
        <time>2018-09-02T06:17:00Z</time>
      </trkpt>
      <trkpt lat="42.95443" lon="-0.19604">
        <ele>1159.3</ele>
        <time>2018-09-02T06:17:01Z</time>
      </trkpt>
      <trkpt lat="42.9545" lon="-0.19598">
        <ele>1155.2</ele>
        <time>2018-09-02T06:17:02Z</time>
      </trkpt>
      <trkpt lat="42.95453" lon="-0.19593">
        <ele>1154.1</ele>
        <time>2018-09-02T06:17:03Z</time>
      </trkpt>
      <trkpt lat="42.95453" lon="-0.1959">
        <ele>1154.6</ele>
        <time>2018-09-02T06:17:04Z</time>
      </trkpt>
      <trkpt lat="42.95452" lon="-0.19587">
        <ele>1155.6</ele>
        <time>2018-09-02T06:17:05Z</time>
      </trkpt>
      <trkpt lat="42.95452" lon="-0.19582">
        <ele>1156.5</ele>
        <time>2018-09-02T06:17:06Z</time>
      </trkpt>
      <trkpt lat="42.95451" lon="-0.19576">
        <ele>1158.8</ele>
        <time>2018-09-02T06:17:07Z</time>
      </trkpt>
      <trkpt lat="42.9545" lon="-0.19568">
        <ele>1161.1</ele>
        <time>2018-09-02T06:17:08Z</time>
      </trkpt>
      <trkpt lat="42.9545" lon="-0.19563">
        <ele>1162.1</ele>
        <time>2018-09-02T06:17:09Z</time>
      </trkpt>
      <trkpt lat="42.9545" lon="-0.19559">
        <ele>1162.9</ele>
        <time>2018-09-02T06:17:10Z</time>
      </trkpt>
      <trkpt lat="42.95451" lon="-0.19559">
        <ele>1162</ele>
        <time>2018-09-02T06:17:11Z</time>
      </trkpt>
      <trkpt lat="42.95452" lon="-0.19559">
        <ele>1161.5</ele>
        <time>2018-09-02T06:17:12Z</time>
      </trkpt>
      <trkpt lat="42.95455" lon="-0.19555">
        <ele>1160.2</ele>
        <time>2018-09-02T06:17:13Z</time>
      </trkpt>
      <trkpt lat="42.95457" lon="-0.19549">
        <ele>1159.9</ele>
        <time>2018-09-02T06:17:14Z</time>
      </trkpt>
      <trkpt lat="42.95461" lon="-0.19544">
        <ele>1158.1</ele>
        <time>2018-09-02T06:17:15Z</time>
      </trkpt>
      <trkpt lat="42.95466" lon="-0.19539">
        <ele>1156.1</ele>
        <time>2018-09-02T06:17:16Z</time>
      </trkpt>
      <trkpt lat="42.95472" lon="-0.1953">
        <ele>1153.8</ele>
        <time>2018-09-02T06:17:17Z</time>
      </trkpt>
      <trkpt lat="42.95477" lon="-0.1952">
        <ele>1151.3</ele>
        <time>2018-09-02T06:17:18Z</time>
      </trkpt>
      <trkpt lat="42.95481" lon="-0.1951">
        <ele>1150.5</ele>
        <time>2018-09-02T06:17:19Z</time>
      </trkpt>
      <trkpt lat="42.95482" lon="-0.19502">
        <ele>1151.5</ele>
        <time>2018-09-02T06:17:20Z</time>
      </trkpt>
      <trkpt lat="42.95483" lon="-0.19494">
        <ele>1152.8</ele>
        <time>2018-09-02T06:17:21Z</time>
      </trkpt>
      <trkpt lat="42.95484" lon="-0.19488">
        <ele>1152.7</ele>
        <time>2018-09-02T06:17:22Z</time>
      </trkpt>
      <trkpt lat="42.95486" lon="-0.19482">
        <ele>1152.2</ele>
        <time>2018-09-02T06:17:23Z</time>
      </trkpt>
      <trkpt lat="42.95487" lon="-0.19478">
        <ele>1152</ele>
        <time>2018-09-02T06:17:24Z</time>
      </trkpt>
      <trkpt lat="42.95488" lon="-0.19475">
        <ele>1151.9</ele>
        <time>2018-09-02T06:17:25Z</time>
      </trkpt>
      <trkpt lat="42.95488" lon="-0.19471">
        <ele>1152.3</ele>
        <time>2018-09-02T06:17:26Z</time>
      </trkpt>
      <trkpt lat="42.95489" lon="-0.19466">
        <ele>1152.9</ele>
        <time>2018-09-02T06:17:27Z</time>
      </trkpt>
      <trkpt lat="42.95491" lon="-0.19451">
        <ele>1154.4</ele>
        <time>2018-09-02T06:17:30Z</time>
      </trkpt>
      <trkpt lat="42.95493" lon="-0.19447">
        <ele>1153.3</ele>
        <time>2018-09-02T06:17:31Z</time>
      </trkpt>
      <trkpt lat="42.95495" lon="-0.19441">
        <ele>1152.2</ele>
        <time>2018-09-02T06:17:32Z</time>
      </trkpt>
      <trkpt lat="42.95497" lon="-0.19436">
        <ele>1151.4</ele>
        <time>2018-09-02T06:17:33Z</time>
      </trkpt>
      <trkpt lat="42.955" lon="-0.19429">
        <ele>1150.2</ele>
        <time>2018-09-02T06:17:34Z</time>
      </trkpt>
      <trkpt lat="42.95504" lon="-0.19423">
        <ele>1148.1</ele>
        <time>2018-09-02T06:17:35Z</time>
      </trkpt>
      <trkpt lat="42.95507" lon="-0.19417">
        <ele>1146.5</ele>
        <time>2018-09-02T06:17:36Z</time>
      </trkpt>
      <trkpt lat="42.95511" lon="-0.1941">
        <ele>1144</ele>
        <time>2018-09-02T06:17:37Z</time>
      </trkpt>
      <trkpt lat="42.95514" lon="-0.19402">
        <ele>1142.7</ele>
        <time>2018-09-02T06:17:38Z</time>
      </trkpt>
      <trkpt lat="42.95516" lon="-0.19393">
        <ele>1142.1</ele>
        <time>2018-09-02T06:17:39Z</time>
      </trkpt>
      <trkpt lat="42.95517" lon="-0.19384">
        <ele>1142.1</ele>
        <time>2018-09-02T06:17:40Z</time>
      </trkpt>
      <trkpt lat="42.95518" lon="-0.19375">
        <ele>1142.4</ele>
        <time>2018-09-02T06:17:41Z</time>
      </trkpt>
      <trkpt lat="42.9552" lon="-0.19366">
        <ele>1141.2</ele>
        <time>2018-09-02T06:17:42Z</time>
      </trkpt>
      <trkpt lat="42.95521" lon="-0.19358">
        <ele>1141.1</ele>
        <time>2018-09-02T06:17:43Z</time>
      </trkpt>
      <trkpt lat="42.95524" lon="-0.19345">
        <ele>1140.8</ele>
        <time>2018-09-02T06:17:46Z</time>
      </trkpt>
      <trkpt lat="42.95525" lon="-0.19336">
        <ele>1142.5</ele>
        <time>2018-09-02T06:17:48Z</time>
      </trkpt>
      <trkpt lat="42.95527" lon="-0.19333">
        <ele>1140.8</ele>
        <time>2018-09-02T06:17:49Z</time>
      </trkpt>
      <trkpt lat="42.9553" lon="-0.19329">
        <ele>1139.3</ele>
        <time>2018-09-02T06:17:50Z</time>
      </trkpt>
      <trkpt lat="42.95532" lon="-0.19326">
        <ele>1138.4</ele>
        <time>2018-09-02T06:17:51Z</time>
      </trkpt>
      <trkpt lat="42.95533" lon="-0.19324">
        <ele>1138.1</ele>
        <time>2018-09-02T06:17:52Z</time>
      </trkpt>
      <trkpt lat="42.95534" lon="-0.1932">
        <ele>1137.9</ele>
        <time>2018-09-02T06:17:53Z</time>
      </trkpt>
      <trkpt lat="42.95536" lon="-0.19317">
        <ele>1137.2</ele>
        <time>2018-09-02T06:17:54Z</time>
      </trkpt>
      <trkpt lat="42.95537" lon="-0.19314">
        <ele>1136.4</ele>
        <time>2018-09-02T06:17:55Z</time>
      </trkpt>
      <trkpt lat="42.9554" lon="-0.19308">
        <ele>1135.3</ele>
        <time>2018-09-02T06:17:56Z</time>
      </trkpt>
      <trkpt lat="42.95542" lon="-0.19303">
        <ele>1134.8</ele>
        <time>2018-09-02T06:17:57Z</time>
      </trkpt>
      <trkpt lat="42.95543" lon="-0.19296">
        <ele>1134.8</ele>
        <time>2018-09-02T06:17:58Z</time>
      </trkpt>
      <trkpt lat="42.95545" lon="-0.19288">
        <ele>1134.2</ele>
        <time>2018-09-02T06:17:59Z</time>
      </trkpt>
      <trkpt lat="42.95548" lon="-0.19278">
        <ele>1133.1</ele>
        <time>2018-09-02T06:18:00Z</time>
      </trkpt>
      <trkpt lat="42.95553" lon="-0.1927">
        <ele>1130.7</ele>
        <time>2018-09-02T06:18:01Z</time>
      </trkpt>
      <trkpt lat="42.95557" lon="-0.19264">
        <ele>1128.1</ele>
        <time>2018-09-02T06:18:02Z</time>
      </trkpt>
      <trkpt lat="42.9556" lon="-0.19261">
        <ele>1126.4</ele>
        <time>2018-09-02T06:18:03Z</time>
      </trkpt>
      <trkpt lat="42.95566" lon="-0.19263">
        <ele>1121.3</ele>
        <time>2018-09-02T06:18:04Z</time>
      </trkpt>
      <trkpt lat="42.95567" lon="-0.19264">
        <ele>1119.2</ele>
        <time>2018-09-02T06:18:05Z</time>
      </trkpt>
      <trkpt lat="42.95571" lon="-0.19269">
        <ele>1114.9</ele>
        <time>2018-09-02T06:18:06Z</time>
      </trkpt>
      <trkpt lat="42.95575" lon="-0.19274">
        <ele>1110.1</ele>
        <time>2018-09-02T06:18:07Z</time>
      </trkpt>
      <trkpt lat="42.95578" lon="-0.19279">
        <ele>1105.8</ele>
        <time>2018-09-02T06:18:08Z</time>
      </trkpt>
      <trkpt lat="42.9558" lon="-0.19285">
        <ele>1103.2</ele>
        <time>2018-09-02T06:18:09Z</time>
      </trkpt>
      <trkpt lat="42.95581" lon="-0.19289">
        <ele>1101.5</ele>
        <time>2018-09-02T06:18:10Z</time>
      </trkpt>
      <trkpt lat="42.95582" lon="-0.1929">
        <ele>1100</ele>
        <time>2018-09-02T06:18:11Z</time>
      </trkpt>
      <trkpt lat="42.95585" lon="-0.19289">
        <ele>1098.2</ele>
        <time>2018-09-02T06:18:12Z</time>
      </trkpt>
      <trkpt lat="42.95585" lon="-0.19288">
        <ele>1097.7</ele>
        <time>2018-09-02T06:18:13Z</time>
      </trkpt>
      <trkpt lat="42.95587" lon="-0.19286">
        <ele>1097.1</ele>
        <time>2018-09-02T06:18:14Z</time>
      </trkpt>
      <trkpt lat="42.9559" lon="-0.19279">
        <ele>1096</ele>
        <time>2018-09-02T06:18:15Z</time>
      </trkpt>
      <trkpt lat="42.95593" lon="-0.19271">
        <ele>1095.6</ele>
        <time>2018-09-02T06:18:16Z</time>
      </trkpt>
      <trkpt lat="42.95597" lon="-0.19263">
        <ele>1095.3</ele>
        <time>2018-09-02T06:18:17Z</time>
      </trkpt>
      <trkpt lat="42.956" lon="-0.19255">
        <ele>1095</ele>
        <time>2018-09-02T06:18:18Z</time>
      </trkpt>
      <trkpt lat="42.95603" lon="-0.19249">
        <ele>1094.3</ele>
        <time>2018-09-02T06:18:19Z</time>
      </trkpt>
      <trkpt lat="42.95604" lon="-0.19243">
        <ele>1095.1</ele>
        <time>2018-09-02T06:18:20Z</time>
      </trkpt>
      <trkpt lat="42.95606" lon="-0.19237">
        <ele>1095.6</ele>
        <time>2018-09-02T06:18:21Z</time>
      </trkpt>
      <trkpt lat="42.95606" lon="-0.19233">
        <ele>1096.8</ele>
        <time>2018-09-02T06:18:22Z</time>
      </trkpt>
      <trkpt lat="42.95607" lon="-0.19229">
        <ele>1097</ele>
        <time>2018-09-02T06:18:23Z</time>
      </trkpt>
      <trkpt lat="42.9561" lon="-0.19225">
        <ele>1095.6</ele>
        <time>2018-09-02T06:18:24Z</time>
      </trkpt>
      <trkpt lat="42.95614" lon="-0.19224">
        <ele>1093.6</ele>
        <time>2018-09-02T06:18:25Z</time>
      </trkpt>
      <trkpt lat="42.95619" lon="-0.19223">
        <ele>1090.9</ele>
        <time>2018-09-02T06:18:26Z</time>
      </trkpt>
      <trkpt lat="42.95624" lon="-0.19221">
        <ele>1088.4</ele>
        <time>2018-09-02T06:18:27Z</time>
      </trkpt>
      <trkpt lat="42.95628" lon="-0.19218">
        <ele>1086.2</ele>
        <time>2018-09-02T06:18:28Z</time>
      </trkpt>
      <trkpt lat="42.9563" lon="-0.19215">
        <ele>1085.8</ele>
        <time>2018-09-02T06:18:29Z</time>
      </trkpt>
      <trkpt lat="42.95633" lon="-0.19211">
        <ele>1084.9</ele>
        <time>2018-09-02T06:18:30Z</time>
      </trkpt>
      <trkpt lat="42.95636" lon="-0.19208">
        <ele>1083.8</ele>
        <time>2018-09-02T06:18:31Z</time>
      </trkpt>
      <trkpt lat="42.9564" lon="-0.19204">
        <ele>1083.1</ele>
        <time>2018-09-02T06:18:32Z</time>
      </trkpt>
      <trkpt lat="42.95643" lon="-0.19199">
        <ele>1083</ele>
        <time>2018-09-02T06:18:33Z</time>
      </trkpt>
      <trkpt lat="42.95647" lon="-0.19194">
        <ele>1082.6</ele>
        <time>2018-09-02T06:18:34Z</time>
      </trkpt>
      <trkpt lat="42.95649" lon="-0.1919">
        <ele>1083</ele>
        <time>2018-09-02T06:18:35Z</time>
      </trkpt>
      <trkpt lat="42.9565" lon="-0.19186">
        <ele>1083.1</ele>
        <time>2018-09-02T06:18:36Z</time>
      </trkpt>
      <trkpt lat="42.95653" lon="-0.19183">
        <ele>1082.4</ele>
        <time>2018-09-02T06:18:37Z</time>
      </trkpt>
      <trkpt lat="42.95656" lon="-0.19179">
        <ele>1082.2</ele>
        <time>2018-09-02T06:18:38Z</time>
      </trkpt>
      <trkpt lat="42.95659" lon="-0.19176">
        <ele>1081.6</ele>
        <time>2018-09-02T06:18:39Z</time>
      </trkpt>
      <trkpt lat="42.95661" lon="-0.19173">
        <ele>1081.4</ele>
        <time>2018-09-02T06:18:40Z</time>
      </trkpt>
      <trkpt lat="42.95663" lon="-0.1917">
        <ele>1081.3</ele>
        <time>2018-09-02T06:18:41Z</time>
      </trkpt>
      <trkpt lat="42.95665" lon="-0.19166">
        <ele>1081</ele>
        <time>2018-09-02T06:18:42Z</time>
      </trkpt>
      <trkpt lat="42.95669" lon="-0.19161">
        <ele>1080</ele>
        <time>2018-09-02T06:18:43Z</time>
      </trkpt>
      <trkpt lat="42.95671" lon="-0.19156">
        <ele>1079.4</ele>
        <time>2018-09-02T06:18:44Z</time>
      </trkpt>
      <trkpt lat="42.95674" lon="-0.1915">
        <ele>1079.2</ele>
        <time>2018-09-02T06:18:45Z</time>
      </trkpt>
      <trkpt lat="42.95677" lon="-0.19146">
        <ele>1078</ele>
        <time>2018-09-02T06:18:46Z</time>
      </trkpt>
      <trkpt lat="42.95681" lon="-0.19147">
        <ele>1076.1</ele>
        <time>2018-09-02T06:18:47Z</time>
      </trkpt>
      <trkpt lat="42.95686" lon="-0.19146">
        <ele>1074</ele>
        <time>2018-09-02T06:18:48Z</time>
      </trkpt>
      <trkpt lat="42.9569" lon="-0.19145">
        <ele>1072.3</ele>
        <time>2018-09-02T06:18:49Z</time>
      </trkpt>
      <trkpt lat="42.95695" lon="-0.19144">
        <ele>1070</ele>
        <time>2018-09-02T06:18:50Z</time>
      </trkpt>
      <trkpt lat="42.957" lon="-0.19145">
        <ele>1067.6</ele>
        <time>2018-09-02T06:18:51Z</time>
      </trkpt>
      <trkpt lat="42.95705" lon="-0.19146">
        <ele>1065.3</ele>
        <time>2018-09-02T06:18:52Z</time>
      </trkpt>
      <trkpt lat="42.95708" lon="-0.19146">
        <ele>1063.8</ele>
        <time>2018-09-02T06:18:53Z</time>
      </trkpt>
      <trkpt lat="42.95711" lon="-0.19146">
        <ele>1062.5</ele>
        <time>2018-09-02T06:18:54Z</time>
      </trkpt>
      <trkpt lat="42.95718" lon="-0.19146">
        <ele>1059.3</ele>
        <time>2018-09-02T06:18:55Z</time>
      </trkpt>
      <trkpt lat="42.95722" lon="-0.19147">
        <ele>1057.2</ele>
        <time>2018-09-02T06:18:56Z</time>
      </trkpt>
      <trkpt lat="42.95725" lon="-0.1915">
        <ele>1055.8</ele>
        <time>2018-09-02T06:18:57Z</time>
      </trkpt>
      <trkpt lat="42.95727" lon="-0.19151">
        <ele>1055</ele>
        <time>2018-09-02T06:18:58Z</time>
      </trkpt>
      <trkpt lat="42.95729" lon="-0.19152">
        <ele>1054</ele>
        <time>2018-09-02T06:18:59Z</time>
      </trkpt>
      <trkpt lat="42.95731" lon="-0.19153">
        <ele>1053.2</ele>
        <time>2018-09-02T06:19:00Z</time>
      </trkpt>
      <trkpt lat="42.95732" lon="-0.19153">
        <ele>1052.4</ele>
        <time>2018-09-02T06:19:01Z</time>
      </trkpt>
      <trkpt lat="42.95734" lon="-0.19154">
        <ele>1051.6</ele>
        <time>2018-09-02T06:19:02Z</time>
      </trkpt>
      <trkpt lat="42.95736" lon="-0.19154">
        <ele>1050.9</ele>
        <time>2018-09-02T06:19:03Z</time>
      </trkpt>
      <trkpt lat="42.95738" lon="-0.19154">
        <ele>1050.1</ele>
        <time>2018-09-02T06:19:04Z</time>
      </trkpt>
      <trkpt lat="42.9574" lon="-0.19155">
        <ele>1049.3</ele>
        <time>2018-09-02T06:19:05Z</time>
      </trkpt>
      <trkpt lat="42.95744" lon="-0.19158">
        <ele>1047.2</ele>
        <time>2018-09-02T06:19:06Z</time>
      </trkpt>
      <trkpt lat="42.95748" lon="-0.19159">
        <ele>1045.8</ele>
        <time>2018-09-02T06:19:07Z</time>
      </trkpt>
      <trkpt lat="42.95751" lon="-0.19161">
        <ele>1044.1</ele>
        <time>2018-09-02T06:19:08Z</time>
      </trkpt>
      <trkpt lat="42.95757" lon="-0.19161">
        <ele>1041.9</ele>
        <time>2018-09-02T06:19:09Z</time>
      </trkpt>
      <trkpt lat="42.95761" lon="-0.19159">
        <ele>1040.6</ele>
        <time>2018-09-02T06:19:10Z</time>
      </trkpt>
      <trkpt lat="42.95763" lon="-0.1916">
        <ele>1039.9</ele>
        <time>2018-09-02T06:19:11Z</time>
      </trkpt>
      <trkpt lat="42.95764" lon="-0.19161">
        <ele>1039</ele>
        <time>2018-09-02T06:19:12Z</time>
      </trkpt>
      <trkpt lat="42.95765" lon="-0.19164">
        <ele>1038.4</ele>
        <time>2018-09-02T06:19:13Z</time>
      </trkpt>
      <trkpt lat="42.95763" lon="-0.19167">
        <ele>1038.9</ele>
        <time>2018-09-02T06:19:14Z</time>
      </trkpt>
      <trkpt lat="42.95759" lon="-0.19169">
        <ele>1040.1</ele>
        <time>2018-09-02T06:19:15Z</time>
      </trkpt>
      <trkpt lat="42.95757" lon="-0.19173">
        <ele>1040.1</ele>
        <time>2018-09-02T06:19:16Z</time>
      </trkpt>
      <trkpt lat="42.95756" lon="-0.19175">
        <ele>1040.3</ele>
        <time>2018-09-02T06:19:17Z</time>
      </trkpt>
      <trkpt lat="42.95754" lon="-0.19178">
        <ele>1040.2</ele>
        <time>2018-09-02T06:19:18Z</time>
      </trkpt>
      <trkpt lat="42.95756" lon="-0.1918">
        <ele>1039.4</ele>
        <time>2018-09-02T06:19:19Z</time>
      </trkpt>
      <trkpt lat="42.95756" lon="-0.19183">
        <ele>1038.8</ele>
        <time>2018-09-02T06:19:20Z</time>
      </trkpt>
      <trkpt lat="42.95756" lon="-0.19187">
        <ele>1038.3</ele>
        <time>2018-09-02T06:19:21Z</time>
      </trkpt>
      <trkpt lat="42.95759" lon="-0.19189">
        <ele>1036.8</ele>
        <time>2018-09-02T06:19:22Z</time>
      </trkpt>
      <trkpt lat="42.95761" lon="-0.19191">
        <ele>1035.9</ele>
        <time>2018-09-02T06:19:23Z</time>
      </trkpt>
      <trkpt lat="42.95764" lon="-0.19187">
        <ele>1035.1</ele>
        <time>2018-09-02T06:19:24Z</time>
      </trkpt>
      <trkpt lat="42.95766" lon="-0.19187">
        <ele>1034.5</ele>
        <time>2018-09-02T06:19:25Z</time>
      </trkpt>
      <trkpt lat="42.9577" lon="-0.1919">
        <ele>1032.6</ele>
        <time>2018-09-02T06:19:26Z</time>
      </trkpt>
      <trkpt lat="42.95771" lon="-0.19192">
        <ele>1031.6</ele>
        <time>2018-09-02T06:19:27Z</time>
      </trkpt>
      <trkpt lat="42.95772" lon="-0.19195">
        <ele>1030.8</ele>
        <time>2018-09-02T06:19:28Z</time>
      </trkpt>
      <trkpt lat="42.95772" lon="-0.19199">
        <ele>1030.2</ele>
        <time>2018-09-02T06:19:29Z</time>
      </trkpt>
      <trkpt lat="42.95771" lon="-0.19202">
        <ele>1029.8</ele>
        <time>2018-09-02T06:19:30Z</time>
      </trkpt>
      <trkpt lat="42.9577" lon="-0.19204">
        <ele>1029.8</ele>
        <time>2018-09-02T06:19:31Z</time>
      </trkpt>
      <trkpt lat="42.95769" lon="-0.19206">
        <ele>1029.8</ele>
        <time>2018-09-02T06:19:32Z</time>
      </trkpt>
      <trkpt lat="42.95768" lon="-0.19206">
        <ele>1029.9</ele>
        <time>2018-09-02T06:19:33Z</time>
      </trkpt>
      <trkpt lat="42.95769" lon="-0.19205">
        <ele>1030</ele>
        <time>2018-09-02T06:19:34Z</time>
      </trkpt>
      <trkpt lat="42.95769" lon="-0.19204">
        <ele>1030.2</ele>
        <time>2018-09-02T06:19:35Z</time>
      </trkpt>
      <trkpt lat="42.95769" lon="-0.19203">
        <ele>1030.3</ele>
        <time>2018-09-02T06:19:36Z</time>
      </trkpt>
      <trkpt lat="42.95769" lon="-0.192">
        <ele>1030.9</ele>
        <time>2018-09-02T06:19:37Z</time>
      </trkpt>
      <trkpt lat="42.95769" lon="-0.19201">
        <ele>1030.8</ele>
        <time>2018-09-02T06:19:38Z</time>
      </trkpt>
      <trkpt lat="42.9577" lon="-0.19204">
        <ele>1030</ele>
        <time>2018-09-02T06:19:39Z</time>
      </trkpt>
      <trkpt lat="42.9577" lon="-0.19207">
        <ele>1029.3</ele>
        <time>2018-09-02T06:19:40Z</time>
      </trkpt>
      <trkpt lat="42.95769" lon="-0.19209">
        <ele>1028.9</ele>
        <time>2018-09-02T06:19:41Z</time>
      </trkpt>
      <trkpt lat="42.95769" lon="-0.19211">
        <ele>1028.6</ele>
        <time>2018-09-02T06:19:42Z</time>
      </trkpt>
      <trkpt lat="42.95768" lon="-0.19215">
        <ele>1028.1</ele>
        <time>2018-09-02T06:19:43Z</time>
      </trkpt>
      <trkpt lat="42.95768" lon="-0.19216">
        <ele>1027.7</ele>
        <time>2018-09-02T06:19:44Z</time>
      </trkpt>
      <trkpt lat="42.95768" lon="-0.1922">
        <ele>1027.1</ele>
        <time>2018-09-02T06:19:45Z</time>
      </trkpt>
      <trkpt lat="42.95769" lon="-0.19222">
        <ele>1026.4</ele>
        <time>2018-09-02T06:19:46Z</time>
      </trkpt>
      <trkpt lat="42.95769" lon="-0.19223">
        <ele>1026.1</ele>
        <time>2018-09-02T06:19:47Z</time>
      </trkpt>
      <trkpt lat="42.9577" lon="-0.19223">
        <ele>1025.7</ele>
        <time>2018-09-02T06:19:48Z</time>
      </trkpt>
      <trkpt lat="42.95772" lon="-0.19227">
        <ele>1023.9</ele>
        <time>2018-09-02T06:19:51Z</time>
      </trkpt>
      <trkpt lat="42.95774" lon="-0.1923">
        <ele>1022.5</ele>
        <time>2018-09-02T06:19:52Z</time>
      </trkpt>
      <trkpt lat="42.95775" lon="-0.19235">
        <ele>1020.8</ele>
        <time>2018-09-02T06:19:53Z</time>
      </trkpt>
      <trkpt lat="42.95779" lon="-0.19238">
        <ele>1018.8</ele>
        <time>2018-09-02T06:19:54Z</time>
      </trkpt>
      <trkpt lat="42.95787" lon="-0.19239">
        <ele>1015.9</ele>
        <time>2018-09-02T06:19:55Z</time>
      </trkpt>
      <trkpt lat="42.95793" lon="-0.1924">
        <ele>1013.7</ele>
        <time>2018-09-02T06:19:56Z</time>
      </trkpt>
      <trkpt lat="42.95797" lon="-0.19242">
        <ele>1011.9</ele>
        <time>2018-09-02T06:19:57Z</time>
      </trkpt>
      <trkpt lat="42.958" lon="-0.19243">
        <ele>1010.7</ele>
        <time>2018-09-02T06:19:58Z</time>
      </trkpt>
      <trkpt lat="42.95802" lon="-0.19245">
        <ele>1009.4</ele>
        <time>2018-09-02T06:19:59Z</time>
      </trkpt>
      <trkpt lat="42.95805" lon="-0.19246">
        <ele>1008.2</ele>
        <time>2018-09-02T06:20:00Z</time>
      </trkpt>
      <trkpt lat="42.95809" lon="-0.19246">
        <ele>1007</ele>
        <time>2018-09-02T06:20:01Z</time>
      </trkpt>
      <trkpt lat="42.95811" lon="-0.19248">
        <ele>1005.9</ele>
        <time>2018-09-02T06:20:02Z</time>
      </trkpt>
      <trkpt lat="42.95813" lon="-0.19249">
        <ele>1005</ele>
        <time>2018-09-02T06:20:03Z</time>
      </trkpt>
      <trkpt lat="42.95816" lon="-0.1925">
        <ele>1004</ele>
        <time>2018-09-02T06:20:04Z</time>
      </trkpt>
      <trkpt lat="42.95819" lon="-0.1925">
        <ele>1003</ele>
        <time>2018-09-02T06:20:05Z</time>
      </trkpt>
      <trkpt lat="42.95822" lon="-0.1925">
        <ele>1002.1</ele>
        <time>2018-09-02T06:20:06Z</time>
      </trkpt>
      <trkpt lat="42.95825" lon="-0.1925">
        <ele>1001.3</ele>
        <time>2018-09-02T06:20:07Z</time>
      </trkpt>
      <trkpt lat="42.95828" lon="-0.19254">
        <ele>999.5</ele>
        <time>2018-09-02T06:20:08Z</time>
      </trkpt>
      <trkpt lat="42.95831" lon="-0.19254">
        <ele>998.8</ele>
        <time>2018-09-02T06:20:09Z</time>
      </trkpt>
      <trkpt lat="42.95834" lon="-0.19255">
        <ele>997.4</ele>
        <time>2018-09-02T06:20:10Z</time>
      </trkpt>
      <trkpt lat="42.95836" lon="-0.19256">
        <ele>996.6</ele>
        <time>2018-09-02T06:20:11Z</time>
      </trkpt>
      <trkpt lat="42.95838" lon="-0.19256">
        <ele>995.9</ele>
        <time>2018-09-02T06:20:12Z</time>
      </trkpt>
      <trkpt lat="42.95842" lon="-0.19261">
        <ele>993.3</ele>
        <time>2018-09-02T06:20:13Z</time>
      </trkpt>
      <trkpt lat="42.95847" lon="-0.19266">
        <ele>990.4</ele>
        <time>2018-09-02T06:20:14Z</time>
      </trkpt>
      <trkpt lat="42.95852" lon="-0.1927">
        <ele>987.9</ele>
        <time>2018-09-02T06:20:15Z</time>
      </trkpt>
      <trkpt lat="42.95857" lon="-0.19274">
        <ele>985.5</ele>
        <time>2018-09-02T06:20:16Z</time>
      </trkpt>
      <trkpt lat="42.95866" lon="-0.19277">
        <ele>982.2</ele>
        <time>2018-09-02T06:20:17Z</time>
      </trkpt>
      <trkpt lat="42.95868" lon="-0.19282">
        <ele>980</ele>
        <time>2018-09-02T06:20:18Z</time>
      </trkpt>
      <trkpt lat="42.95871" lon="-0.19286">
        <ele>978</ele>
        <time>2018-09-02T06:20:19Z</time>
      </trkpt>
      <trkpt lat="42.95872" lon="-0.1929">
        <ele>976.3</ele>
        <time>2018-09-02T06:20:20Z</time>
      </trkpt>
      <trkpt lat="42.95875" lon="-0.19292">
        <ele>975.2</ele>
        <time>2018-09-02T06:20:21Z</time>
      </trkpt>
      <trkpt lat="42.95875" lon="-0.19296">
        <ele>973.9</ele>
        <time>2018-09-02T06:20:22Z</time>
      </trkpt>
      <trkpt lat="42.95873" lon="-0.19302">
        <ele>972.6</ele>
        <time>2018-09-02T06:20:23Z</time>
      </trkpt>
      <trkpt lat="42.95868" lon="-0.19314">
        <ele>969.5</ele>
        <time>2018-09-02T06:20:24Z</time>
      </trkpt>
      <trkpt lat="42.95866" lon="-0.19319">
        <ele>968.5</ele>
        <time>2018-09-02T06:20:25Z</time>
      </trkpt>
      <trkpt lat="42.95862" lon="-0.19326">
        <ele>967.2</ele>
        <time>2018-09-02T06:20:26Z</time>
      </trkpt>
      <trkpt lat="42.95861" lon="-0.19328">
        <ele>966.8</ele>
        <time>2018-09-02T06:20:27Z</time>
      </trkpt>
      <trkpt lat="42.95867" lon="-0.19339">
        <ele>961.7</ele>
        <time>2018-09-02T06:20:32Z</time>
      </trkpt>
      <trkpt lat="42.95872" lon="-0.19339">
        <ele>960.2</ele>
        <time>2018-09-02T06:20:33Z</time>
      </trkpt>
      <trkpt lat="42.95879" lon="-0.19334">
        <ele>960.3</ele>
        <time>2018-09-02T06:20:34Z</time>
      </trkpt>
      <trkpt lat="42.95888" lon="-0.1933">
        <ele>959.6</ele>
        <time>2018-09-02T06:20:35Z</time>
      </trkpt>
      <trkpt lat="42.95897" lon="-0.19323">
        <ele>960</ele>
        <time>2018-09-02T06:20:36Z</time>
      </trkpt>
      <trkpt lat="42.95908" lon="-0.19317">
        <ele>960.1</ele>
        <time>2018-09-02T06:20:37Z</time>
      </trkpt>
      <trkpt lat="42.95918" lon="-0.19313">
        <ele>959.3</ele>
        <time>2018-09-02T06:20:38Z</time>
      </trkpt>
      <trkpt lat="42.95927" lon="-0.1931">
        <ele>958.5</ele>
        <time>2018-09-02T06:20:39Z</time>
      </trkpt>
      <trkpt lat="42.95941" lon="-0.19309">
        <ele>955.8</ele>
        <time>2018-09-02T06:20:40Z</time>
      </trkpt>
      <trkpt lat="42.95953" lon="-0.19308">
        <ele>952.9</ele>
        <time>2018-09-02T06:20:41Z</time>
      </trkpt>
      <trkpt lat="42.95964" lon="-0.19308">
        <ele>949.9</ele>
        <time>2018-09-02T06:20:42Z</time>
      </trkpt>
      <trkpt lat="42.95973" lon="-0.19309">
        <ele>947</ele>
        <time>2018-09-02T06:20:43Z</time>
      </trkpt>
      <trkpt lat="42.95979" lon="-0.1931">
        <ele>944.8</ele>
        <time>2018-09-02T06:20:44Z</time>
      </trkpt>
      <trkpt lat="42.95984" lon="-0.1931">
        <ele>943.3</ele>
        <time>2018-09-02T06:20:45Z</time>
      </trkpt>
      <trkpt lat="42.95988" lon="-0.19308">
        <ele>942.4</ele>
        <time>2018-09-02T06:20:46Z</time>
      </trkpt>
      <trkpt lat="42.95992" lon="-0.19305">
        <ele>941.8</ele>
        <time>2018-09-02T06:20:47Z</time>
      </trkpt>
      <trkpt lat="42.95995" lon="-0.19302">
        <ele>941.3</ele>
        <time>2018-09-02T06:20:48Z</time>
      </trkpt>
      <trkpt lat="42.96003" lon="-0.19296">
        <ele>939.8</ele>
        <time>2018-09-02T06:20:49Z</time>
      </trkpt>
      <trkpt lat="42.96009" lon="-0.19289">
        <ele>939</ele>
        <time>2018-09-02T06:20:50Z</time>
      </trkpt>
      <trkpt lat="42.96016" lon="-0.1928">
        <ele>937.9</ele>
        <time>2018-09-02T06:20:51Z</time>
      </trkpt>
      <trkpt lat="42.96022" lon="-0.19272">
        <ele>937</ele>
        <time>2018-09-02T06:20:52Z</time>
      </trkpt>
      <trkpt lat="42.96028" lon="-0.19264">
        <ele>936.6</ele>
        <time>2018-09-02T06:20:53Z</time>
      </trkpt>
      <trkpt lat="42.96033" lon="-0.19255">
        <ele>935.5</ele>
        <time>2018-09-02T06:20:54Z</time>
      </trkpt>
      <trkpt lat="42.9604" lon="-0.19249">
        <ele>932.8</ele>
        <time>2018-09-02T06:20:55Z</time>
      </trkpt>
      <trkpt lat="42.96047" lon="-0.19245">
        <ele>930.6</ele>
        <time>2018-09-02T06:20:56Z</time>
      </trkpt>
      <trkpt lat="42.96053" lon="-0.1924">
        <ele>928.4</ele>
        <time>2018-09-02T06:20:57Z</time>
      </trkpt>
      <trkpt lat="42.96061" lon="-0.19233">
        <ele>925.9</ele>
        <time>2018-09-02T06:20:58Z</time>
      </trkpt>
      <trkpt lat="42.96071" lon="-0.19223">
        <ele>922.8</ele>
        <time>2018-09-02T06:20:59Z</time>
      </trkpt>
      <trkpt lat="42.96082" lon="-0.19213">
        <ele>920.6</ele>
        <time>2018-09-02T06:21:00Z</time>
      </trkpt>
      <trkpt lat="42.96087" lon="-0.19202">
        <ele>921.2</ele>
        <time>2018-09-02T06:21:01Z</time>
      </trkpt>
      <trkpt lat="42.9609" lon="-0.1919">
        <ele>923</ele>
        <time>2018-09-02T06:21:02Z</time>
      </trkpt>
      <trkpt lat="42.96095" lon="-0.19178">
        <ele>924.3</ele>
        <time>2018-09-02T06:21:03Z</time>
      </trkpt>
      <trkpt lat="42.96102" lon="-0.19168">
        <ele>923.6</ele>
        <time>2018-09-02T06:21:04Z</time>
      </trkpt>
      <trkpt lat="42.9611" lon="-0.19158">
        <ele>923.1</ele>
        <time>2018-09-02T06:21:05Z</time>
      </trkpt>
      <trkpt lat="42.96118" lon="-0.19148">
        <ele>923.6</ele>
        <time>2018-09-02T06:21:06Z</time>
      </trkpt>
      <trkpt lat="42.96125" lon="-0.19139">
        <ele>924.5</ele>
        <time>2018-09-02T06:21:07Z</time>
      </trkpt>
      <trkpt lat="42.9613" lon="-0.19126">
        <ele>925.7</ele>
        <time>2018-09-02T06:21:08Z</time>
      </trkpt>
      <trkpt lat="42.96133" lon="-0.19112">
        <ele>927.7</ele>
        <time>2018-09-02T06:21:09Z</time>
      </trkpt>
      <trkpt lat="42.96136" lon="-0.191">
        <ele>928.9</ele>
        <time>2018-09-02T06:21:10Z</time>
      </trkpt>
      <trkpt lat="42.9614" lon="-0.1909">
        <ele>929.4</ele>
        <time>2018-09-02T06:21:11Z</time>
      </trkpt>
      <trkpt lat="42.96146" lon="-0.19078">
        <ele>929.3</ele>
        <time>2018-09-02T06:21:12Z</time>
      </trkpt>
      <trkpt lat="42.96151" lon="-0.19069">
        <ele>928.9</ele>
        <time>2018-09-02T06:21:13Z</time>
      </trkpt>
      <trkpt lat="42.96157" lon="-0.19063">
        <ele>927.6</ele>
        <time>2018-09-02T06:21:14Z</time>
      </trkpt>
      <trkpt lat="42.96166" lon="-0.19047">
        <ele>926.1</ele>
        <time>2018-09-02T06:21:16Z</time>
      </trkpt>
      <trkpt lat="42.96177" lon="-0.19028">
        <ele>922</ele>
        <time>2018-09-02T06:21:19Z</time>
      </trkpt>
      <trkpt lat="42.9618" lon="-0.19022">
        <ele>921.7</ele>
        <time>2018-09-02T06:21:20Z</time>
      </trkpt>
      <trkpt lat="42.96189" lon="-0.19007">
        <ele>918.9</ele>
        <time>2018-09-02T06:21:23Z</time>
      </trkpt>
      <trkpt lat="42.96193" lon="-0.19003">
        <ele>917.5</ele>
        <time>2018-09-02T06:21:24Z</time>
      </trkpt>
      <trkpt lat="42.96193" lon="-0.18998">
        <ele>918.7</ele>
        <time>2018-09-02T06:21:25Z</time>
      </trkpt>
      <trkpt lat="42.96193" lon="-0.18994">
        <ele>920.2</ele>
        <time>2018-09-02T06:21:26Z</time>
      </trkpt>
      <trkpt lat="42.96193" lon="-0.18989">
        <ele>921.6</ele>
        <time>2018-09-02T06:21:27Z</time>
      </trkpt>
      <trkpt lat="42.96193" lon="-0.18984">
        <ele>923.1</ele>
        <time>2018-09-02T06:21:28Z</time>
      </trkpt>
      <trkpt lat="42.96196" lon="-0.1898">
        <ele>922.8</ele>
        <time>2018-09-02T06:21:29Z</time>
      </trkpt>
      <trkpt lat="42.96197" lon="-0.18975">
        <ele>923.4</ele>
        <time>2018-09-02T06:21:30Z</time>
      </trkpt>
      <trkpt lat="42.96199" lon="-0.18971">
        <ele>923.8</ele>
        <time>2018-09-02T06:21:31Z</time>
      </trkpt>
      <trkpt lat="42.962" lon="-0.18967">
        <ele>924.2</ele>
        <time>2018-09-02T06:21:32Z</time>
      </trkpt>
      <trkpt lat="42.96203" lon="-0.18963">
        <ele>923.7</ele>
        <time>2018-09-02T06:21:33Z</time>
      </trkpt>
      <trkpt lat="42.96205" lon="-0.18959">
        <ele>923.9</ele>
        <time>2018-09-02T06:21:34Z</time>
      </trkpt>
      <trkpt lat="42.96206" lon="-0.18955">
        <ele>924.7</ele>
        <time>2018-09-02T06:21:35Z</time>
      </trkpt>
      <trkpt lat="42.96206" lon="-0.18951">
        <ele>925.8</ele>
        <time>2018-09-02T06:21:36Z</time>
      </trkpt>
      <trkpt lat="42.96207" lon="-0.18947">
        <ele>926.8</ele>
        <time>2018-09-02T06:21:37Z</time>
      </trkpt>
      <trkpt lat="42.96207" lon="-0.18943">
        <ele>927.8</ele>
        <time>2018-09-02T06:21:38Z</time>
      </trkpt>
      <trkpt lat="42.96209" lon="-0.18939">
        <ele>927.9</ele>
        <time>2018-09-02T06:21:39Z</time>
      </trkpt>
      <trkpt lat="42.96211" lon="-0.18936">
        <ele>927.8</ele>
        <time>2018-09-02T06:21:40Z</time>
      </trkpt>
      <trkpt lat="42.96211" lon="-0.18932">
        <ele>928.7</ele>
        <time>2018-09-02T06:21:41Z</time>
      </trkpt>
      <trkpt lat="42.96213" lon="-0.18923">
        <ele>929.8</ele>
        <time>2018-09-02T06:21:43Z</time>
      </trkpt>
      <trkpt lat="42.96215" lon="-0.18921">
        <ele>929.6</ele>
        <time>2018-09-02T06:21:44Z</time>
      </trkpt>
      <trkpt lat="42.96216" lon="-0.18917">
        <ele>930.3</ele>
        <time>2018-09-02T06:21:45Z</time>
      </trkpt>
      <trkpt lat="42.96217" lon="-0.18912">
        <ele>930.3</ele>
        <time>2018-09-02T06:21:46Z</time>
      </trkpt>
      <trkpt lat="42.96218" lon="-0.18909">
        <ele>930.6</ele>
        <time>2018-09-02T06:21:47Z</time>
      </trkpt>
      <trkpt lat="42.96221" lon="-0.18897">
        <ele>931.4</ele>
        <time>2018-09-02T06:21:50Z</time>
      </trkpt>
      <trkpt lat="42.96222" lon="-0.18893">
        <ele>931.5</ele>
        <time>2018-09-02T06:21:51Z</time>
      </trkpt>
      <trkpt lat="42.96222" lon="-0.1889">
        <ele>931.7</ele>
        <time>2018-09-02T06:21:52Z</time>
      </trkpt>
      <trkpt lat="42.96223" lon="-0.18885">
        <ele>932.6</ele>
        <time>2018-09-02T06:21:53Z</time>
      </trkpt>
      <trkpt lat="42.96223" lon="-0.18882">
        <ele>933.5</ele>
        <time>2018-09-02T06:21:54Z</time>
      </trkpt>
      <trkpt lat="42.96223" lon="-0.18878">
        <ele>934.6</ele>
        <time>2018-09-02T06:21:55Z</time>
      </trkpt>
      <trkpt lat="42.96222" lon="-0.18873">
        <ele>936.9</ele>
        <time>2018-09-02T06:21:59Z</time>
      </trkpt>
      <trkpt lat="42.96221" lon="-0.18866">
        <ele>939.8</ele>
        <time>2018-09-02T06:22:04Z</time>
      </trkpt>
      <trkpt lat="42.9622" lon="-0.18864">
        <ele>940.5</ele>
        <time>2018-09-02T06:22:05Z</time>
      </trkpt>
      <trkpt lat="42.9622" lon="-0.18863">
        <ele>941.1</ele>
        <time>2018-09-02T06:22:06Z</time>
      </trkpt>
      <trkpt lat="42.9622" lon="-0.1886">
        <ele>942.2</ele>
        <time>2018-09-02T06:22:07Z</time>
      </trkpt>
      <trkpt lat="42.9622" lon="-0.18857">
        <ele>943.6</ele>
        <time>2018-09-02T06:22:08Z</time>
      </trkpt>
      <trkpt lat="42.96221" lon="-0.18854">
        <ele>944.4</ele>
        <time>2018-09-02T06:22:09Z</time>
      </trkpt>
      <trkpt lat="42.96224" lon="-0.18851">
        <ele>943.4</ele>
        <time>2018-09-02T06:22:10Z</time>
      </trkpt>
      <trkpt lat="42.96228" lon="-0.18847">
        <ele>942.8</ele>
        <time>2018-09-02T06:22:11Z</time>
      </trkpt>
      <trkpt lat="42.96233" lon="-0.18843">
        <ele>941.9</ele>
        <time>2018-09-02T06:22:12Z</time>
      </trkpt>
      <trkpt lat="42.96242" lon="-0.18836">
        <ele>939.5</ele>
        <time>2018-09-02T06:22:15Z</time>
      </trkpt>
      <trkpt lat="42.96244" lon="-0.18832">
        <ele>940</ele>
        <time>2018-09-02T06:22:16Z</time>
      </trkpt>
      <trkpt lat="42.96247" lon="-0.18828">
        <ele>940.3</ele>
        <time>2018-09-02T06:22:17Z</time>
      </trkpt>
      <trkpt lat="42.96248" lon="-0.18824">
        <ele>940.9</ele>
        <time>2018-09-02T06:22:18Z</time>
      </trkpt>
      <trkpt lat="42.96249" lon="-0.1882">
        <ele>942.1</ele>
        <time>2018-09-02T06:22:19Z</time>
      </trkpt>
      <trkpt lat="42.9625" lon="-0.18816">
        <ele>943.5</ele>
        <time>2018-09-02T06:22:20Z</time>
      </trkpt>
      <trkpt lat="42.96258" lon="-0.18793">
        <ele>948</ele>
        <time>2018-09-02T06:22:26Z</time>
      </trkpt>
      <trkpt lat="42.96265" lon="-0.18784">
        <ele>947.6</ele>
        <time>2018-09-02T06:22:28Z</time>
      </trkpt>
      <trkpt lat="42.96268" lon="-0.18779">
        <ele>947.6</ele>
        <time>2018-09-02T06:22:29Z</time>
      </trkpt>
      <trkpt lat="42.96271" lon="-0.18775">
        <ele>947.7</ele>
        <time>2018-09-02T06:22:30Z</time>
      </trkpt>
      <trkpt lat="42.96274" lon="-0.18771">
        <ele>947.9</ele>
        <time>2018-09-02T06:22:31Z</time>
      </trkpt>
      <trkpt lat="42.96277" lon="-0.18765">
        <ele>947.9</ele>
        <time>2018-09-02T06:22:32Z</time>
      </trkpt>
      <trkpt lat="42.96291" lon="-0.18721">
        <ele>955.5</ele>
        <time>2018-09-02T06:22:37Z</time>
      </trkpt>
      <trkpt lat="42.96296" lon="-0.18702">
        <ele>959</ele>
        <time>2018-09-02T06:22:39Z</time>
      </trkpt>
      <trkpt lat="42.96299" lon="-0.18696">
        <ele>958.9</ele>
        <time>2018-09-02T06:22:40Z</time>
      </trkpt>
      <trkpt lat="42.96304" lon="-0.1869">
        <ele>958.6</ele>
        <time>2018-09-02T06:22:41Z</time>
      </trkpt>
      <trkpt lat="42.96312" lon="-0.18679">
        <ele>956.9</ele>
        <time>2018-09-02T06:22:42Z</time>
      </trkpt>
      <trkpt lat="42.96317" lon="-0.18672">
        <ele>956</ele>
        <time>2018-09-02T06:22:43Z</time>
      </trkpt>
      <trkpt lat="42.96325" lon="-0.18662">
        <ele>954.8</ele>
        <time>2018-09-02T06:22:44Z</time>
      </trkpt>
      <trkpt lat="42.96332" lon="-0.1865">
        <ele>954.3</ele>
        <time>2018-09-02T06:22:45Z</time>
      </trkpt>
      <trkpt lat="42.96338" lon="-0.18642">
        <ele>953.5</ele>
        <time>2018-09-02T06:22:46Z</time>
      </trkpt>
      <trkpt lat="42.96344" lon="-0.18634">
        <ele>951.8</ele>
        <time>2018-09-02T06:22:47Z</time>
      </trkpt>
      <trkpt lat="42.96351" lon="-0.18626">
        <ele>949.5</ele>
        <time>2018-09-02T06:22:48Z</time>
      </trkpt>
      <trkpt lat="42.96357" lon="-0.18618">
        <ele>947.4</ele>
        <time>2018-09-02T06:22:49Z</time>
      </trkpt>
      <trkpt lat="42.96363" lon="-0.18609">
        <ele>945.5</ele>
        <time>2018-09-02T06:22:50Z</time>
      </trkpt>
      <trkpt lat="42.9637" lon="-0.18598">
        <ele>942.2</ele>
        <time>2018-09-02T06:22:51Z</time>
      </trkpt>
      <trkpt lat="42.96378" lon="-0.18588">
        <ele>938.6</ele>
        <time>2018-09-02T06:22:52Z</time>
      </trkpt>
      <trkpt lat="42.96387" lon="-0.1858">
        <ele>933.9</ele>
        <time>2018-09-02T06:22:53Z</time>
      </trkpt>
      <trkpt lat="42.96396" lon="-0.1857">
        <ele>929.9</ele>
        <time>2018-09-02T06:22:54Z</time>
      </trkpt>
      <trkpt lat="42.96404" lon="-0.1856">
        <ele>925.9</ele>
        <time>2018-09-02T06:22:55Z</time>
      </trkpt>
      <trkpt lat="42.96412" lon="-0.1855">
        <ele>923.1</ele>
        <time>2018-09-02T06:22:56Z</time>
      </trkpt>
      <trkpt lat="42.96419" lon="-0.18539">
        <ele>920.8</ele>
        <time>2018-09-02T06:22:57Z</time>
      </trkpt>
      <trkpt lat="42.96426" lon="-0.18529">
        <ele>918.8</ele>
        <time>2018-09-02T06:22:58Z</time>
      </trkpt>
      <trkpt lat="42.96437" lon="-0.18517">
        <ele>915</ele>
        <time>2018-09-02T06:22:59Z</time>
      </trkpt>
      <trkpt lat="42.96444" lon="-0.18506">
        <ele>912.2</ele>
        <time>2018-09-02T06:23:00Z</time>
      </trkpt>
      <trkpt lat="42.96451" lon="-0.18493">
        <ele>911.1</ele>
        <time>2018-09-02T06:23:01Z</time>
      </trkpt>
      <trkpt lat="42.96457" lon="-0.18484">
        <ele>909.9</ele>
        <time>2018-09-02T06:23:02Z</time>
      </trkpt>
      <trkpt lat="42.96465" lon="-0.18474">
        <ele>907.3</ele>
        <time>2018-09-02T06:23:03Z</time>
      </trkpt>
      <trkpt lat="42.96473" lon="-0.18464">
        <ele>904.6</ele>
        <time>2018-09-02T06:23:04Z</time>
      </trkpt>
      <trkpt lat="42.96481" lon="-0.18454">
        <ele>902.1</ele>
        <time>2018-09-02T06:23:05Z</time>
      </trkpt>
      <trkpt lat="42.96489" lon="-0.18443">
        <ele>900.1</ele>
        <time>2018-09-02T06:23:06Z</time>
      </trkpt>
      <trkpt lat="42.96496" lon="-0.18429">
        <ele>899</ele>
        <time>2018-09-02T06:23:07Z</time>
      </trkpt>
      <trkpt lat="42.96504" lon="-0.18413">
        <ele>898.1</ele>
        <time>2018-09-02T06:23:08Z</time>
      </trkpt>
      <trkpt lat="42.9651" lon="-0.18399">
        <ele>897.5</ele>
        <time>2018-09-02T06:23:09Z</time>
      </trkpt>
      <trkpt lat="42.96514" lon="-0.18386">
        <ele>897.8</ele>
        <time>2018-09-02T06:23:10Z</time>
      </trkpt>
      <trkpt lat="42.96516" lon="-0.18371">
        <ele>898.8</ele>
        <time>2018-09-02T06:23:11Z</time>
      </trkpt>
      <trkpt lat="42.96521" lon="-0.18358">
        <ele>898.3</ele>
        <time>2018-09-02T06:23:12Z</time>
      </trkpt>
      <trkpt lat="42.96526" lon="-0.18346">
        <ele>897.2</ele>
        <time>2018-09-02T06:23:13Z</time>
      </trkpt>
      <trkpt lat="42.96532" lon="-0.18335">
        <ele>896</ele>
        <time>2018-09-02T06:23:14Z</time>
      </trkpt>
      <trkpt lat="42.96536" lon="-0.18326">
        <ele>895.4</ele>
        <time>2018-09-02T06:23:15Z</time>
      </trkpt>
      <trkpt lat="42.96541" lon="-0.18317">
        <ele>894.2</ele>
        <time>2018-09-02T06:23:16Z</time>
      </trkpt>
      <trkpt lat="42.96546" lon="-0.1831">
        <ele>892.9</ele>
        <time>2018-09-02T06:23:17Z</time>
      </trkpt>
      <trkpt lat="42.9655" lon="-0.18306">
        <ele>891.5</ele>
        <time>2018-09-02T06:23:18Z</time>
      </trkpt>
      <trkpt lat="42.96553" lon="-0.18304">
        <ele>890.2</ele>
        <time>2018-09-02T06:23:19Z</time>
      </trkpt>
      <trkpt lat="42.96555" lon="-0.18306">
        <ele>889.3</ele>
        <time>2018-09-02T06:23:20Z</time>
      </trkpt>
      <trkpt lat="42.96556" lon="-0.18311">
        <ele>888.3</ele>
        <time>2018-09-02T06:23:21Z</time>
      </trkpt>
      <trkpt lat="42.9656" lon="-0.18314">
        <ele>887</ele>
        <time>2018-09-02T06:23:22Z</time>
      </trkpt>
      <trkpt lat="42.96567" lon="-0.18323">
        <ele>884.4</ele>
        <time>2018-09-02T06:23:23Z</time>
      </trkpt>
      <trkpt lat="42.96574" lon="-0.18329">
        <ele>881.8</ele>
        <time>2018-09-02T06:23:24Z</time>
      </trkpt>
      <trkpt lat="42.96581" lon="-0.18334">
        <ele>879.5</ele>
        <time>2018-09-02T06:23:25Z</time>
      </trkpt>
      <trkpt lat="42.96587" lon="-0.18339">
        <ele>877.7</ele>
        <time>2018-09-02T06:23:26Z</time>
      </trkpt>
      <trkpt lat="42.96593" lon="-0.18343">
        <ele>875.9</ele>
        <time>2018-09-02T06:23:27Z</time>
      </trkpt>
      <trkpt lat="42.96599" lon="-0.18348">
        <ele>874.3</ele>
        <time>2018-09-02T06:23:28Z</time>
      </trkpt>
      <trkpt lat="42.96603" lon="-0.18356">
        <ele>873</ele>
        <time>2018-09-02T06:23:29Z</time>
      </trkpt>
      <trkpt lat="42.96607" lon="-0.18363">
        <ele>871.8</ele>
        <time>2018-09-02T06:23:30Z</time>
      </trkpt>
      <trkpt lat="42.96611" lon="-0.18369">
        <ele>871.1</ele>
        <time>2018-09-02T06:23:31Z</time>
      </trkpt>
      <trkpt lat="42.96615" lon="-0.18376">
        <ele>870.4</ele>
        <time>2018-09-02T06:23:32Z</time>
      </trkpt>
      <trkpt lat="42.96618" lon="-0.18383">
        <ele>870</ele>
        <time>2018-09-02T06:23:33Z</time>
      </trkpt>
      <trkpt lat="42.96621" lon="-0.1839">
        <ele>869.6</ele>
        <time>2018-09-02T06:23:34Z</time>
      </trkpt>
      <trkpt lat="42.96627" lon="-0.18399">
        <ele>868.8</ele>
        <time>2018-09-02T06:23:35Z</time>
      </trkpt>
      <trkpt lat="42.96634" lon="-0.18405">
        <ele>868.1</ele>
        <time>2018-09-02T06:23:36Z</time>
      </trkpt>
      <trkpt lat="42.96639" lon="-0.18412">
        <ele>867.8</ele>
        <time>2018-09-02T06:23:37Z</time>
      </trkpt>
      <trkpt lat="42.96643" lon="-0.18416">
        <ele>867.8</ele>
        <time>2018-09-02T06:23:38Z</time>
      </trkpt>
      <trkpt lat="42.96649" lon="-0.18417">
        <ele>867.6</ele>
        <time>2018-09-02T06:23:39Z</time>
      </trkpt>
      <trkpt lat="42.96653" lon="-0.18417">
        <ele>867.5</ele>
        <time>2018-09-02T06:23:40Z</time>
      </trkpt>
      <trkpt lat="42.96663" lon="-0.18414">
        <ele>867</ele>
        <time>2018-09-02T06:23:42Z</time>
      </trkpt>
      <trkpt lat="42.96667" lon="-0.18411">
        <ele>866.8</ele>
        <time>2018-09-02T06:23:43Z</time>
      </trkpt>
      <trkpt lat="42.96672" lon="-0.18407">
        <ele>866.5</ele>
        <time>2018-09-02T06:23:44Z</time>
      </trkpt>
      <trkpt lat="42.96676" lon="-0.18405">
        <ele>866.3</ele>
        <time>2018-09-02T06:23:45Z</time>
      </trkpt>
      <trkpt lat="42.96679" lon="-0.18402">
        <ele>866.3</ele>
        <time>2018-09-02T06:23:46Z</time>
      </trkpt>
      <trkpt lat="42.96682" lon="-0.184">
        <ele>866.3</ele>
        <time>2018-09-02T06:23:47Z</time>
      </trkpt>
      <trkpt lat="42.96685" lon="-0.18397">
        <ele>866.4</ele>
        <time>2018-09-02T06:23:48Z</time>
      </trkpt>
      <trkpt lat="42.96689" lon="-0.18394">
        <ele>866.5</ele>
        <time>2018-09-02T06:23:49Z</time>
      </trkpt>
      <trkpt lat="42.96704" lon="-0.18377">
        <ele>866</ele>
        <time>2018-09-02T06:23:53Z</time>
      </trkpt>
      <trkpt lat="42.96708" lon="-0.18371">
        <ele>866</ele>
        <time>2018-09-02T06:23:54Z</time>
      </trkpt>
      <trkpt lat="42.96717" lon="-0.18357">
        <ele>866.3</ele>
        <time>2018-09-02T06:23:56Z</time>
      </trkpt>
      <trkpt lat="42.96725" lon="-0.18341">
        <ele>865.5</ele>
        <time>2018-09-02T06:23:58Z</time>
      </trkpt>
      <trkpt lat="42.9673" lon="-0.18333">
        <ele>865.2</ele>
        <time>2018-09-02T06:23:59Z</time>
      </trkpt>
      <trkpt lat="42.96736" lon="-0.18324">
        <ele>864.2</ele>
        <time>2018-09-02T06:24:00Z</time>
      </trkpt>
      <trkpt lat="42.96742" lon="-0.18316">
        <ele>863.4</ele>
        <time>2018-09-02T06:24:01Z</time>
      </trkpt>
      <trkpt lat="42.96747" lon="-0.18308">
        <ele>862.9</ele>
        <time>2018-09-02T06:24:02Z</time>
      </trkpt>
      <trkpt lat="42.96754" lon="-0.183">
        <ele>862.1</ele>
        <time>2018-09-02T06:24:03Z</time>
      </trkpt>
      <trkpt lat="42.9676" lon="-0.18293">
        <ele>861.2</ele>
        <time>2018-09-02T06:24:04Z</time>
      </trkpt>
      <trkpt lat="42.96767" lon="-0.18286">
        <ele>860.8</ele>
        <time>2018-09-02T06:24:05Z</time>
      </trkpt>
      <trkpt lat="42.96775" lon="-0.1828">
        <ele>860.9</ele>
        <time>2018-09-02T06:24:06Z</time>
      </trkpt>
      <trkpt lat="42.96784" lon="-0.18272">
        <ele>859.9</ele>
        <time>2018-09-02T06:24:07Z</time>
      </trkpt>
      <trkpt lat="42.96792" lon="-0.18265">
        <ele>858.8</ele>
        <time>2018-09-02T06:24:08Z</time>
      </trkpt>
      <trkpt lat="42.968" lon="-0.18256">
        <ele>858.1</ele>
        <time>2018-09-02T06:24:09Z</time>
      </trkpt>
      <trkpt lat="42.96808" lon="-0.18247">
        <ele>857.5</ele>
        <time>2018-09-02T06:24:10Z</time>
      </trkpt>
      <trkpt lat="42.96818" lon="-0.18238">
        <ele>856.4</ele>
        <time>2018-09-02T06:24:11Z</time>
      </trkpt>
      <trkpt lat="42.96828" lon="-0.18228">
        <ele>855.9</ele>
        <time>2018-09-02T06:24:12Z</time>
      </trkpt>
      <trkpt lat="42.96839" lon="-0.18219">
        <ele>855.5</ele>
        <time>2018-09-02T06:24:13Z</time>
      </trkpt>
      <trkpt lat="42.96849" lon="-0.18211">
        <ele>854.2</ele>
        <time>2018-09-02T06:24:14Z</time>
      </trkpt>
      <trkpt lat="42.96858" lon="-0.18205">
        <ele>853.4</ele>
        <time>2018-09-02T06:24:15Z</time>
      </trkpt>
      <trkpt lat="42.96867" lon="-0.18198">
        <ele>852.8</ele>
        <time>2018-09-02T06:24:16Z</time>
      </trkpt>
      <trkpt lat="42.96877" lon="-0.18192">
        <ele>852.8</ele>
        <time>2018-09-02T06:24:17Z</time>
      </trkpt>
      <trkpt lat="42.96885" lon="-0.18186">
        <ele>852.5</ele>
        <time>2018-09-02T06:24:18Z</time>
      </trkpt>
      <trkpt lat="42.96895" lon="-0.18181">
        <ele>852.2</ele>
        <time>2018-09-02T06:24:19Z</time>
      </trkpt>
      <trkpt lat="42.96903" lon="-0.18177">
        <ele>851.9</ele>
        <time>2018-09-02T06:24:20Z</time>
      </trkpt>
      <trkpt lat="42.96911" lon="-0.18173">
        <ele>852</ele>
        <time>2018-09-02T06:24:21Z</time>
      </trkpt>
      <trkpt lat="42.96941" lon="-0.18157">
        <ele>850.8</ele>
        <time>2018-09-02T06:24:25Z</time>
      </trkpt>
      <trkpt lat="42.96951" lon="-0.18153">
        <ele>850.7</ele>
        <time>2018-09-02T06:24:26Z</time>
      </trkpt>
      <trkpt lat="42.96995" lon="-0.18134">
        <ele>851.3</ele>
        <time>2018-09-02T06:24:31Z</time>
      </trkpt>
      <trkpt lat="42.97002" lon="-0.18128">
        <ele>850.7</ele>
        <time>2018-09-02T06:24:32Z</time>
      </trkpt>
      <trkpt lat="42.97016" lon="-0.18113">
        <ele>849.7</ele>
        <time>2018-09-02T06:24:34Z</time>
      </trkpt>
      <trkpt lat="42.97024" lon="-0.18105">
        <ele>849.4</ele>
        <time>2018-09-02T06:24:35Z</time>
      </trkpt>
      <trkpt lat="42.97032" lon="-0.18096">
        <ele>848.9</ele>
        <time>2018-09-02T06:24:36Z</time>
      </trkpt>
      <trkpt lat="42.9704" lon="-0.18089">
        <ele>848.3</ele>
        <time>2018-09-02T06:24:37Z</time>
      </trkpt>
      <trkpt lat="42.9705" lon="-0.18084">
        <ele>848</ele>
        <time>2018-09-02T06:24:38Z</time>
      </trkpt>
      <trkpt lat="42.97059" lon="-0.18079">
        <ele>847.4</ele>
        <time>2018-09-02T06:24:39Z</time>
      </trkpt>
      <trkpt lat="42.97068" lon="-0.18074">
        <ele>846.7</ele>
        <time>2018-09-02T06:24:40Z</time>
      </trkpt>
      <trkpt lat="42.97078" lon="-0.1807">
        <ele>846.2</ele>
        <time>2018-09-02T06:24:41Z</time>
      </trkpt>
      <trkpt lat="42.97087" lon="-0.18066">
        <ele>845.6</ele>
        <time>2018-09-02T06:24:42Z</time>
      </trkpt>
      <trkpt lat="42.97097" lon="-0.18063">
        <ele>845.1</ele>
        <time>2018-09-02T06:24:43Z</time>
      </trkpt>
      <trkpt lat="42.97105" lon="-0.18059">
        <ele>844.9</ele>
        <time>2018-09-02T06:24:44Z</time>
      </trkpt>
      <trkpt lat="42.97114" lon="-0.18054">
        <ele>844.9</ele>
        <time>2018-09-02T06:24:45Z</time>
      </trkpt>
      <trkpt lat="42.97124" lon="-0.1805">
        <ele>844.4</ele>
        <time>2018-09-02T06:24:46Z</time>
      </trkpt>
      <trkpt lat="42.97134" lon="-0.18047">
        <ele>844.1</ele>
        <time>2018-09-02T06:24:47Z</time>
      </trkpt>
      <trkpt lat="42.97143" lon="-0.18043">
        <ele>843.9</ele>
        <time>2018-09-02T06:24:48Z</time>
      </trkpt>
      <trkpt lat="42.97153" lon="-0.18042">
        <ele>843.7</ele>
        <time>2018-09-02T06:24:49Z</time>
      </trkpt>
      <trkpt lat="42.97163" lon="-0.18043">
        <ele>843.5</ele>
        <time>2018-09-02T06:24:50Z</time>
      </trkpt>
      <trkpt lat="42.97174" lon="-0.18048">
        <ele>843</ele>
        <time>2018-09-02T06:24:51Z</time>
      </trkpt>
      <trkpt lat="42.97182" lon="-0.18055">
        <ele>842.4</ele>
        <time>2018-09-02T06:24:52Z</time>
      </trkpt>
      <trkpt lat="42.97187" lon="-0.18065">
        <ele>841.6</ele>
        <time>2018-09-02T06:24:53Z</time>
      </trkpt>
      <trkpt lat="42.97192" lon="-0.18073">
        <ele>840.8</ele>
        <time>2018-09-02T06:24:54Z</time>
      </trkpt>
      <trkpt lat="42.97198" lon="-0.18075">
        <ele>840.5</ele>
        <time>2018-09-02T06:24:55Z</time>
      </trkpt>
      <trkpt lat="42.97204" lon="-0.18072">
        <ele>840.7</ele>
        <time>2018-09-02T06:24:56Z</time>
      </trkpt>
      <trkpt lat="42.97207" lon="-0.18064">
        <ele>841.1</ele>
        <time>2018-09-02T06:24:57Z</time>
      </trkpt>
      <trkpt lat="42.9721" lon="-0.18056">
        <ele>841.4</ele>
        <time>2018-09-02T06:24:58Z</time>
      </trkpt>
      <trkpt lat="42.97214" lon="-0.18043">
        <ele>841.3</ele>
        <time>2018-09-02T06:25:00Z</time>
      </trkpt>
      <trkpt lat="42.97218" lon="-0.18037">
        <ele>841.1</ele>
        <time>2018-09-02T06:25:01Z</time>
      </trkpt>
      <trkpt lat="42.97225" lon="-0.18025">
        <ele>840.9</ele>
        <time>2018-09-02T06:25:03Z</time>
      </trkpt>
      <trkpt lat="42.97228" lon="-0.18019">
        <ele>840.7</ele>
        <time>2018-09-02T06:25:04Z</time>
      </trkpt>
      <trkpt lat="42.97243" lon="-0.17993">
        <ele>839.2</ele>
        <time>2018-09-02T06:25:08Z</time>
      </trkpt>
      <trkpt lat="42.97262" lon="-0.1796">
        <ele>837.3</ele>
        <time>2018-09-02T06:25:12Z</time>
      </trkpt>
      <trkpt lat="42.97266" lon="-0.17949">
        <ele>837.1</ele>
        <time>2018-09-02T06:25:13Z</time>
      </trkpt>
      <trkpt lat="42.9727" lon="-0.17937">
        <ele>837</ele>
        <time>2018-09-02T06:25:14Z</time>
      </trkpt>
      <trkpt lat="42.97273" lon="-0.17926">
        <ele>837</ele>
        <time>2018-09-02T06:25:15Z</time>
      </trkpt>
      <trkpt lat="42.97276" lon="-0.17914">
        <ele>836.9</ele>
        <time>2018-09-02T06:25:16Z</time>
      </trkpt>
      <trkpt lat="42.97279" lon="-0.17902">
        <ele>836.5</ele>
        <time>2018-09-02T06:25:17Z</time>
      </trkpt>
      <trkpt lat="42.97282" lon="-0.1789">
        <ele>836</ele>
        <time>2018-09-02T06:25:18Z</time>
      </trkpt>
      <trkpt lat="42.97291" lon="-0.17859">
        <ele>836.5</ele>
        <time>2018-09-02T06:25:21Z</time>
      </trkpt>
      <trkpt lat="42.97298" lon="-0.17856">
        <ele>836.3</ele>
        <time>2018-09-02T06:25:22Z</time>
      </trkpt>
      <trkpt lat="42.97313" lon="-0.17859">
        <ele>835.7</ele>
        <time>2018-09-02T06:25:24Z</time>
      </trkpt>
      <trkpt lat="42.97329" lon="-0.17857">
        <ele>835.1</ele>
        <time>2018-09-02T06:25:26Z</time>
      </trkpt>
      <trkpt lat="42.97337" lon="-0.17854">
        <ele>834.6</ele>
        <time>2018-09-02T06:25:27Z</time>
      </trkpt>
      <trkpt lat="42.97345" lon="-0.1785">
        <ele>833.9</ele>
        <time>2018-09-02T06:25:28Z</time>
      </trkpt>
      <trkpt lat="42.97351" lon="-0.17843">
        <ele>833.5</ele>
        <time>2018-09-02T06:25:29Z</time>
      </trkpt>
      <trkpt lat="42.97354" lon="-0.17837">
        <ele>833.4</ele>
        <time>2018-09-02T06:25:30Z</time>
      </trkpt>
      <trkpt lat="42.97356" lon="-0.17829">
        <ele>833.4</ele>
        <time>2018-09-02T06:25:31Z</time>
      </trkpt>
      <trkpt lat="42.97368" lon="-0.17817">
        <ele>832.5</ele>
        <time>2018-09-02T06:25:34Z</time>
      </trkpt>
      <trkpt lat="42.97372" lon="-0.17815">
        <ele>832.2</ele>
        <time>2018-09-02T06:25:35Z</time>
      </trkpt>
      <trkpt lat="42.97377" lon="-0.17812">
        <ele>831.9</ele>
        <time>2018-09-02T06:25:36Z</time>
      </trkpt>
      <trkpt lat="42.97381" lon="-0.17807">
        <ele>831.6</ele>
        <time>2018-09-02T06:25:37Z</time>
      </trkpt>
      <trkpt lat="42.97383" lon="-0.17801">
        <ele>831.7</ele>
        <time>2018-09-02T06:25:38Z</time>
      </trkpt>
      <trkpt lat="42.97386" lon="-0.17796">
        <ele>831.8</ele>
        <time>2018-09-02T06:25:39Z</time>
      </trkpt>
      <trkpt lat="42.97399" lon="-0.17788">
        <ele>831.9</ele>
        <time>2018-09-02T06:25:42Z</time>
      </trkpt>
      <trkpt lat="42.9741" lon="-0.17784">
        <ele>831.8</ele>
        <time>2018-09-02T06:25:45Z</time>
      </trkpt>
      <trkpt lat="42.97415" lon="-0.17782">
        <ele>831.7</ele>
        <time>2018-09-02T06:25:46Z</time>
      </trkpt>
      <trkpt lat="42.9742" lon="-0.17782">
        <ele>831.7</ele>
        <time>2018-09-02T06:25:47Z</time>
      </trkpt>
      <trkpt lat="42.97425" lon="-0.1778">
        <ele>831.9</ele>
        <time>2018-09-02T06:25:48Z</time>
      </trkpt>
      <trkpt lat="42.97431" lon="-0.17777">
        <ele>832</ele>
        <time>2018-09-02T06:25:49Z</time>
      </trkpt>
      <trkpt lat="42.97436" lon="-0.17774">
        <ele>832.4</ele>
        <time>2018-09-02T06:25:50Z</time>
      </trkpt>
      <trkpt lat="42.97441" lon="-0.1777">
        <ele>832.8</ele>
        <time>2018-09-02T06:25:51Z</time>
      </trkpt>
      <trkpt lat="42.97458" lon="-0.1776">
        <ele>833.6</ele>
        <time>2018-09-02T06:25:55Z</time>
      </trkpt>
      <trkpt lat="42.97468" lon="-0.17754">
        <ele>833.9</ele>
        <time>2018-09-02T06:25:57Z</time>
      </trkpt>
      <trkpt lat="42.97478" lon="-0.17745">
        <ele>834.5</ele>
        <time>2018-09-02T06:25:59Z</time>
      </trkpt>
      <trkpt lat="42.97483" lon="-0.17739">
        <ele>835</ele>
        <time>2018-09-02T06:26:00Z</time>
      </trkpt>
      <trkpt lat="42.97488" lon="-0.17735">
        <ele>835.4</ele>
        <time>2018-09-02T06:26:01Z</time>
      </trkpt>
      <trkpt lat="42.9749" lon="-0.17731">
        <ele>835.6</ele>
        <time>2018-09-02T06:26:02Z</time>
      </trkpt>
      <trkpt lat="42.97491" lon="-0.17731">
        <ele>835.6</ele>
        <time>2018-09-02T06:26:03Z</time>
      </trkpt>
      <trkpt lat="42.97492" lon="-0.17733">
        <ele>835.4</ele>
        <time>2018-09-02T06:26:04Z</time>
      </trkpt>
      <trkpt lat="42.9749" lon="-0.17732">
        <ele>835.6</ele>
        <time>2018-09-02T06:26:05Z</time>
      </trkpt>
      <trkpt lat="42.97493" lon="-0.17724">
        <ele>836.1</ele>
        <time>2018-09-02T06:26:07Z</time>
      </trkpt>
      <trkpt lat="42.97496" lon="-0.17717">
        <ele>836.1</ele>
        <time>2018-09-02T06:26:09Z</time>
      </trkpt>
      <trkpt lat="42.97499" lon="-0.17705">
        <ele>836</ele>
        <time>2018-09-02T06:26:12Z</time>
      </trkpt>
      <trkpt lat="42.97502" lon="-0.17702">
        <ele>835.9</ele>
        <time>2018-09-02T06:26:13Z</time>
      </trkpt>
      <trkpt lat="42.97509" lon="-0.17698">
        <ele>835.7</ele>
        <time>2018-09-02T06:26:15Z</time>
      </trkpt>
      <trkpt lat="42.97512" lon="-0.17687">
        <ele>835.5</ele>
        <time>2018-09-02T06:26:18Z</time>
      </trkpt>
      <trkpt lat="42.97512" lon="-0.17682">
        <ele>835.4</ele>
        <time>2018-09-02T06:26:19Z</time>
      </trkpt>
      <trkpt lat="42.97516" lon="-0.17664">
        <ele>834.9</ele>
        <time>2018-09-02T06:26:23Z</time>
      </trkpt>
      <trkpt lat="42.97517" lon="-0.17658">
        <ele>834.8</ele>
        <time>2018-09-02T06:26:24Z</time>
      </trkpt>
      <trkpt lat="42.97528" lon="-0.17642">
        <ele>834</ele>
        <time>2018-09-02T06:26:28Z</time>
      </trkpt>
      <trkpt lat="42.97536" lon="-0.17622">
        <ele>833</ele>
        <time>2018-09-02T06:26:31Z</time>
      </trkpt>
      <trkpt lat="42.97536" lon="-0.17616">
        <ele>832.8</ele>
        <time>2018-09-02T06:26:32Z</time>
      </trkpt>
      <trkpt lat="42.97541" lon="-0.17608">
        <ele>832.5</ele>
        <time>2018-09-02T06:26:33Z</time>
      </trkpt>
      <trkpt lat="42.97544" lon="-0.176">
        <ele>832.4</ele>
        <time>2018-09-02T06:26:34Z</time>
      </trkpt>
      <trkpt lat="42.97549" lon="-0.17593">
        <ele>832.2</ele>
        <time>2018-09-02T06:26:35Z</time>
      </trkpt>
      <trkpt lat="42.97558" lon="-0.17574">
        <ele>831.9</ele>
        <time>2018-09-02T06:26:38Z</time>
      </trkpt>
      <trkpt lat="42.9756" lon="-0.17569">
        <ele>831.9</ele>
        <time>2018-09-02T06:26:39Z</time>
      </trkpt>
      <trkpt lat="42.97573" lon="-0.17547">
        <ele>832.1</ele>
        <time>2018-09-02T06:26:44Z</time>
      </trkpt>
      <trkpt lat="42.97586" lon="-0.17534">
        <ele>832</ele>
        <time>2018-09-02T06:26:48Z</time>
      </trkpt>
      <trkpt lat="42.97595" lon="-0.17528">
        <ele>832</ele>
        <time>2018-09-02T06:26:50Z</time>
      </trkpt>
      <trkpt lat="42.97596" lon="-0.17523">
        <ele>831.9</ele>
        <time>2018-09-02T06:26:51Z</time>
      </trkpt>
      <trkpt lat="42.97597" lon="-0.17517">
        <ele>831.8</ele>
        <time>2018-09-02T06:26:52Z</time>
      </trkpt>
      <trkpt lat="42.97601" lon="-0.17514">
        <ele>831.7</ele>
        <time>2018-09-02T06:26:53Z</time>
      </trkpt>
      <trkpt lat="42.97605" lon="-0.1751">
        <ele>831.5</ele>
        <time>2018-09-02T06:26:54Z</time>
      </trkpt>
      <trkpt lat="42.97608" lon="-0.17507">
        <ele>831.3</ele>
        <time>2018-09-02T06:26:55Z</time>
      </trkpt>
      <trkpt lat="42.97613" lon="-0.17501">
        <ele>831.1</ele>
        <time>2018-09-02T06:26:56Z</time>
      </trkpt>
      <trkpt lat="42.97618" lon="-0.17494">
        <ele>831</ele>
        <time>2018-09-02T06:26:57Z</time>
      </trkpt>
      <trkpt lat="42.97623" lon="-0.17488">
        <ele>830.8</ele>
        <time>2018-09-02T06:26:58Z</time>
      </trkpt>
      <trkpt lat="42.97627" lon="-0.1748">
        <ele>830.4</ele>
        <time>2018-09-02T06:26:59Z</time>
      </trkpt>
      <trkpt lat="42.97631" lon="-0.17473">
        <ele>830</ele>
        <time>2018-09-02T06:27:00Z</time>
      </trkpt>
      <trkpt lat="42.97635" lon="-0.17465">
        <ele>829.5</ele>
        <time>2018-09-02T06:27:01Z</time>
      </trkpt>
      <trkpt lat="42.97639" lon="-0.17457">
        <ele>828.9</ele>
        <time>2018-09-02T06:27:02Z</time>
      </trkpt>
      <trkpt lat="42.97643" lon="-0.17442">
        <ele>827.8</ele>
        <time>2018-09-02T06:27:05Z</time>
      </trkpt>
      <trkpt lat="42.97646" lon="-0.17436">
        <ele>827.5</ele>
        <time>2018-09-02T06:27:06Z</time>
      </trkpt>
      <trkpt lat="42.97648" lon="-0.17431">
        <ele>827.3</ele>
        <time>2018-09-02T06:27:07Z</time>
      </trkpt>
      <trkpt lat="42.97651" lon="-0.17428">
        <ele>827.2</ele>
        <time>2018-09-02T06:27:08Z</time>
      </trkpt>
      <trkpt lat="42.97653" lon="-0.17423">
        <ele>827.1</ele>
        <time>2018-09-02T06:27:09Z</time>
      </trkpt>
      <trkpt lat="42.97655" lon="-0.17418">
        <ele>827</ele>
        <time>2018-09-02T06:27:10Z</time>
      </trkpt>
      <trkpt lat="42.97657" lon="-0.17412">
        <ele>826.8</ele>
        <time>2018-09-02T06:27:11Z</time>
      </trkpt>
      <trkpt lat="42.97658" lon="-0.17408">
        <ele>826.7</ele>
        <time>2018-09-02T06:27:12Z</time>
      </trkpt>
      <trkpt lat="42.9766" lon="-0.17406">
        <ele>826.6</ele>
        <time>2018-09-02T06:27:13Z</time>
      </trkpt>
      <trkpt lat="42.97664" lon="-0.17402">
        <ele>826.5</ele>
        <time>2018-09-02T06:27:14Z</time>
      </trkpt>
      <trkpt lat="42.97668" lon="-0.17401">
        <ele>826.3</ele>
        <time>2018-09-02T06:27:15Z</time>
      </trkpt>
      <trkpt lat="42.97674" lon="-0.17402">
        <ele>825.4</ele>
        <time>2018-09-02T06:27:16Z</time>
      </trkpt>
      <trkpt lat="42.97679" lon="-0.17407">
        <ele>825</ele>
        <time>2018-09-02T06:27:17Z</time>
      </trkpt>
      <trkpt lat="42.97685" lon="-0.17411">
        <ele>824.6</ele>
        <time>2018-09-02T06:27:18Z</time>
      </trkpt>
      <trkpt lat="42.9769" lon="-0.17415">
        <ele>824.3</ele>
        <time>2018-09-02T06:27:19Z</time>
      </trkpt>
      <trkpt lat="42.97708" lon="-0.17439">
        <ele>821.1</ele>
        <time>2018-09-02T06:27:23Z</time>
      </trkpt>
      <trkpt lat="42.97712" lon="-0.17445">
        <ele>820.6</ele>
        <time>2018-09-02T06:27:24Z</time>
      </trkpt>
      <trkpt lat="42.97722" lon="-0.17468">
        <ele>819.8</ele>
        <time>2018-09-02T06:27:27Z</time>
      </trkpt>
      <trkpt lat="42.97726" lon="-0.17485">
        <ele>820</ele>
        <time>2018-09-02T06:27:29Z</time>
      </trkpt>
      <trkpt lat="42.97737" lon="-0.17534">
        <ele>822.3</ele>
        <time>2018-09-02T06:27:35Z</time>
      </trkpt>
      <trkpt lat="42.97748" lon="-0.17567">
        <ele>822.1</ele>
        <time>2018-09-02T06:27:39Z</time>
      </trkpt>
      <trkpt lat="42.9776" lon="-0.17591">
        <ele>822.3</ele>
        <time>2018-09-02T06:27:42Z</time>
      </trkpt>
      <trkpt lat="42.97768" lon="-0.17606">
        <ele>822.3</ele>
        <time>2018-09-02T06:27:44Z</time>
      </trkpt>
      <trkpt lat="42.97774" lon="-0.17611">
        <ele>822.3</ele>
        <time>2018-09-02T06:27:45Z</time>
      </trkpt>
      <trkpt lat="42.97787" lon="-0.17615">
        <ele>822.1</ele>
        <time>2018-09-02T06:27:47Z</time>
      </trkpt>
      <trkpt lat="42.97807" lon="-0.17609">
        <ele>822.3</ele>
        <time>2018-09-02T06:27:50Z</time>
      </trkpt>
      <trkpt lat="42.97817" lon="-0.1759">
        <ele>824.9</ele>
        <time>2018-09-02T06:27:53Z</time>
      </trkpt>
      <trkpt lat="42.97816" lon="-0.17568">
        <ele>824.6</ele>
        <time>2018-09-02T06:27:56Z</time>
      </trkpt>
      <trkpt lat="42.97814" lon="-0.17554">
        <ele>824.5</ele>
        <time>2018-09-02T06:27:58Z</time>
      </trkpt>
      <trkpt lat="42.97814" lon="-0.17547">
        <ele>824.3</ele>
        <time>2018-09-02T06:27:59Z</time>
      </trkpt>
      <trkpt lat="42.97812" lon="-0.17541">
        <ele>824</ele>
        <time>2018-09-02T06:28:00Z</time>
      </trkpt>
      <trkpt lat="42.97812" lon="-0.17534">
        <ele>823.9</ele>
        <time>2018-09-02T06:28:01Z</time>
      </trkpt>
      <trkpt lat="42.97812" lon="-0.17527">
        <ele>823.9</ele>
        <time>2018-09-02T06:28:02Z</time>
      </trkpt>
      <trkpt lat="42.97812" lon="-0.17513">
        <ele>824</ele>
        <time>2018-09-02T06:28:04Z</time>
      </trkpt>
      <trkpt lat="42.97812" lon="-0.17506">
        <ele>824</ele>
        <time>2018-09-02T06:28:05Z</time>
      </trkpt>
      <trkpt lat="42.97812" lon="-0.175">
        <ele>824.1</ele>
        <time>2018-09-02T06:28:06Z</time>
      </trkpt>
      <trkpt lat="42.97813" lon="-0.17493">
        <ele>824.3</ele>
        <time>2018-09-02T06:28:07Z</time>
      </trkpt>
      <trkpt lat="42.97814" lon="-0.17472">
        <ele>824.9</ele>
        <time>2018-09-02T06:28:10Z</time>
      </trkpt>
      <trkpt lat="42.97815" lon="-0.17465">
        <ele>825.4</ele>
        <time>2018-09-02T06:28:11Z</time>
      </trkpt>
      <trkpt lat="42.97816" lon="-0.17459">
        <ele>825.8</ele>
        <time>2018-09-02T06:28:12Z</time>
      </trkpt>
      <trkpt lat="42.97817" lon="-0.17452">
        <ele>826.2</ele>
        <time>2018-09-02T06:28:13Z</time>
      </trkpt>
      <trkpt lat="42.97817" lon="-0.17445">
        <ele>826.4</ele>
        <time>2018-09-02T06:28:14Z</time>
      </trkpt>
      <trkpt lat="42.97817" lon="-0.17437">
        <ele>826.5</ele>
        <time>2018-09-02T06:28:15Z</time>
      </trkpt>
      <trkpt lat="42.9782" lon="-0.17389">
        <ele>827.6</ele>
        <time>2018-09-02T06:28:21Z</time>
      </trkpt>
      <trkpt lat="42.9782" lon="-0.17381">
        <ele>827.9</ele>
        <time>2018-09-02T06:28:22Z</time>
      </trkpt>
      <trkpt lat="42.9782" lon="-0.17373">
        <ele>827.8</ele>
        <time>2018-09-02T06:28:23Z</time>
      </trkpt>
      <trkpt lat="42.9782" lon="-0.17366">
        <ele>827.7</ele>
        <time>2018-09-02T06:28:24Z</time>
      </trkpt>
      <trkpt lat="42.9782" lon="-0.17358">
        <ele>827.9</ele>
        <time>2018-09-02T06:28:25Z</time>
      </trkpt>
      <trkpt lat="42.9782" lon="-0.17351">
        <ele>828.1</ele>
        <time>2018-09-02T06:28:26Z</time>
      </trkpt>
      <trkpt lat="42.97821" lon="-0.1733">
        <ele>829.2</ele>
        <time>2018-09-02T06:28:29Z</time>
      </trkpt>
      <trkpt lat="42.97822" lon="-0.17323">
        <ele>829.6</ele>
        <time>2018-09-02T06:28:30Z</time>
      </trkpt>
      <trkpt lat="42.97822" lon="-0.17316">
        <ele>829.9</ele>
        <time>2018-09-02T06:28:31Z</time>
      </trkpt>
      <trkpt lat="42.97823" lon="-0.17309">
        <ele>830.5</ele>
        <time>2018-09-02T06:28:32Z</time>
      </trkpt>
      <trkpt lat="42.97825" lon="-0.17302">
        <ele>831.1</ele>
        <time>2018-09-02T06:28:33Z</time>
      </trkpt>
      <trkpt lat="42.97829" lon="-0.17281">
        <ele>832.3</ele>
        <time>2018-09-02T06:28:36Z</time>
      </trkpt>
      <trkpt lat="42.97831" lon="-0.17273">
        <ele>832.7</ele>
        <time>2018-09-02T06:28:37Z</time>
      </trkpt>
      <trkpt lat="42.97833" lon="-0.17266">
        <ele>833.1</ele>
        <time>2018-09-02T06:28:38Z</time>
      </trkpt>
      <trkpt lat="42.97836" lon="-0.17259">
        <ele>833.4</ele>
        <time>2018-09-02T06:28:39Z</time>
      </trkpt>
      <trkpt lat="42.97838" lon="-0.17252">
        <ele>833.7</ele>
        <time>2018-09-02T06:28:40Z</time>
      </trkpt>
      <trkpt lat="42.97846" lon="-0.17233">
        <ele>834</ele>
        <time>2018-09-02T06:28:43Z</time>
      </trkpt>
      <trkpt lat="42.97849" lon="-0.17226">
        <ele>833.8</ele>
        <time>2018-09-02T06:28:44Z</time>
      </trkpt>
      <trkpt lat="42.97851" lon="-0.17219">
        <ele>833.6</ele>
        <time>2018-09-02T06:28:45Z</time>
      </trkpt>
      <trkpt lat="42.97854" lon="-0.17212">
        <ele>833</ele>
        <time>2018-09-02T06:28:46Z</time>
      </trkpt>
      <trkpt lat="42.97857" lon="-0.17205">
        <ele>832.6</ele>
        <time>2018-09-02T06:28:47Z</time>
      </trkpt>
      <trkpt lat="42.9786" lon="-0.17198">
        <ele>832.5</ele>
        <time>2018-09-02T06:28:48Z</time>
      </trkpt>
      <trkpt lat="42.97873" lon="-0.17171">
        <ele>832.5</ele>
        <time>2018-09-02T06:28:52Z</time>
      </trkpt>
      <trkpt lat="42.97877" lon="-0.17164">
        <ele>832.8</ele>
        <time>2018-09-02T06:28:53Z</time>
      </trkpt>
      <trkpt lat="42.9788" lon="-0.17156">
        <ele>833.1</ele>
        <time>2018-09-02T06:28:54Z</time>
      </trkpt>
      <trkpt lat="42.97883" lon="-0.17149">
        <ele>833.6</ele>
        <time>2018-09-02T06:28:55Z</time>
      </trkpt>
      <trkpt lat="42.97886" lon="-0.17141">
        <ele>834.1</ele>
        <time>2018-09-02T06:28:56Z</time>
      </trkpt>
      <trkpt lat="42.97889" lon="-0.17133">
        <ele>834.3</ele>
        <time>2018-09-02T06:28:57Z</time>
      </trkpt>
      <trkpt lat="42.97893" lon="-0.17116">
        <ele>834.3</ele>
        <time>2018-09-02T06:28:59Z</time>
      </trkpt>
      <trkpt lat="42.97898" lon="-0.1709">
        <ele>835</ele>
        <time>2018-09-02T06:29:02Z</time>
      </trkpt>
      <trkpt lat="42.97899" lon="-0.17072">
        <ele>834.9</ele>
        <time>2018-09-02T06:29:04Z</time>
      </trkpt>
      <trkpt lat="42.97904" lon="-0.17018">
        <ele>836.6</ele>
        <time>2018-09-02T06:29:10Z</time>
      </trkpt>
      <trkpt lat="42.97906" lon="-0.1701">
        <ele>837.2</ele>
        <time>2018-09-02T06:29:11Z</time>
      </trkpt>
      <trkpt lat="42.97911" lon="-0.16996">
        <ele>838.2</ele>
        <time>2018-09-02T06:29:13Z</time>
      </trkpt>
      <trkpt lat="42.97914" lon="-0.16989">
        <ele>838.6</ele>
        <time>2018-09-02T06:29:14Z</time>
      </trkpt>
      <trkpt lat="42.97921" lon="-0.16974">
        <ele>839.3</ele>
        <time>2018-09-02T06:29:16Z</time>
      </trkpt>
      <trkpt lat="42.97925" lon="-0.16966">
        <ele>839.6</ele>
        <time>2018-09-02T06:29:17Z</time>
      </trkpt>
      <trkpt lat="42.97928" lon="-0.16959">
        <ele>839.9</ele>
        <time>2018-09-02T06:29:18Z</time>
      </trkpt>
      <trkpt lat="42.97931" lon="-0.16952">
        <ele>840.1</ele>
        <time>2018-09-02T06:29:19Z</time>
      </trkpt>
      <trkpt lat="42.97934" lon="-0.16945">
        <ele>840.5</ele>
        <time>2018-09-02T06:29:20Z</time>
      </trkpt>
      <trkpt lat="42.97942" lon="-0.16923">
        <ele>841.5</ele>
        <time>2018-09-02T06:29:23Z</time>
      </trkpt>
      <trkpt lat="42.97949" lon="-0.16899">
        <ele>842.3</ele>
        <time>2018-09-02T06:29:26Z</time>
      </trkpt>
      <trkpt lat="42.97952" lon="-0.16891">
        <ele>842.6</ele>
        <time>2018-09-02T06:29:27Z</time>
      </trkpt>
      <trkpt lat="42.97954" lon="-0.16883">
        <ele>842.5</ele>
        <time>2018-09-02T06:29:28Z</time>
      </trkpt>
      <trkpt lat="42.97956" lon="-0.16874">
        <ele>842.2</ele>
        <time>2018-09-02T06:29:29Z</time>
      </trkpt>
      <trkpt lat="42.97958" lon="-0.16866">
        <ele>841.9</ele>
        <time>2018-09-02T06:29:30Z</time>
      </trkpt>
      <trkpt lat="42.97964" lon="-0.16849">
        <ele>841.2</ele>
        <time>2018-09-02T06:29:32Z</time>
      </trkpt>
      <trkpt lat="42.97981" lon="-0.16786">
        <ele>839.2</ele>
        <time>2018-09-02T06:29:39Z</time>
      </trkpt>
      <trkpt lat="42.97987" lon="-0.16784">
        <ele>840.1</ele>
        <time>2018-09-02T06:29:40Z</time>
      </trkpt>
      <trkpt lat="42.97992" lon="-0.16786">
        <ele>841.2</ele>
        <time>2018-09-02T06:29:41Z</time>
      </trkpt>
      <trkpt lat="42.97994" lon="-0.16793">
        <ele>842</ele>
        <time>2018-09-02T06:29:42Z</time>
      </trkpt>
      <trkpt lat="42.97993" lon="-0.16799">
        <ele>842.2</ele>
        <time>2018-09-02T06:29:43Z</time>
      </trkpt>
      <trkpt lat="42.97986" lon="-0.16813">
        <ele>842.1</ele>
        <time>2018-09-02T06:29:46Z</time>
      </trkpt>
      <trkpt lat="42.97983" lon="-0.16823">
        <ele>842.4</ele>
        <time>2018-09-02T06:29:48Z</time>
      </trkpt>
      <trkpt lat="42.97982" lon="-0.16828">
        <ele>842.6</ele>
        <time>2018-09-02T06:29:49Z</time>
      </trkpt>
      <trkpt lat="42.9798" lon="-0.16833">
        <ele>842.7</ele>
        <time>2018-09-02T06:29:50Z</time>
      </trkpt>
      <trkpt lat="42.9798" lon="-0.16837">
        <ele>843</ele>
        <time>2018-09-02T06:29:51Z</time>
      </trkpt>
      <trkpt lat="42.97979" lon="-0.16842">
        <ele>843.5</ele>
        <time>2018-09-02T06:29:52Z</time>
      </trkpt>
      <trkpt lat="42.97975" lon="-0.16856">
        <ele>844</ele>
        <time>2018-09-02T06:29:55Z</time>
      </trkpt>
      <trkpt lat="42.97974" lon="-0.16861">
        <ele>844.3</ele>
        <time>2018-09-02T06:29:56Z</time>
      </trkpt>
      <trkpt lat="42.97973" lon="-0.16864">
        <ele>844.4</ele>
        <time>2018-09-02T06:29:57Z</time>
      </trkpt>
      <trkpt lat="42.97972" lon="-0.16868">
        <ele>844.7</ele>
        <time>2018-09-02T06:29:58Z</time>
      </trkpt>
      <trkpt lat="42.97971" lon="-0.16873">
        <ele>845.1</ele>
        <time>2018-09-02T06:29:59Z</time>
      </trkpt>
      <trkpt lat="42.97972" lon="-0.16881">
        <ele>846</ele>
        <time>2018-09-02T06:30:01Z</time>
      </trkpt>
      <trkpt lat="42.97972" lon="-0.16885">
        <ele>846.5</ele>
        <time>2018-09-02T06:30:02Z</time>
      </trkpt>
      <trkpt lat="42.97972" lon="-0.16889">
        <ele>846.9</ele>
        <time>2018-09-02T06:30:03Z</time>
      </trkpt>
      <trkpt lat="42.97972" lon="-0.16892">
        <ele>847.2</ele>
        <time>2018-09-02T06:30:04Z</time>
      </trkpt>
      <trkpt lat="42.97973" lon="-0.16896">
        <ele>847.6</ele>
        <time>2018-09-02T06:30:05Z</time>
      </trkpt>
      <trkpt lat="42.97973" lon="-0.16908">
        <ele>848.5</ele>
        <time>2018-09-02T06:30:08Z</time>
      </trkpt>
      <trkpt lat="42.97973" lon="-0.16913">
        <ele>848.9</ele>
        <time>2018-09-02T06:30:09Z</time>
      </trkpt>
      <trkpt lat="42.97974" lon="-0.16917">
        <ele>849.4</ele>
        <time>2018-09-02T06:30:10Z</time>
      </trkpt>
      <trkpt lat="42.97974" lon="-0.16921">
        <ele>849.8</ele>
        <time>2018-09-02T06:30:11Z</time>
      </trkpt>
      <trkpt lat="42.97976" lon="-0.16928">
        <ele>850.8</ele>
        <time>2018-09-02T06:30:13Z</time>
      </trkpt>
      <trkpt lat="42.97976" lon="-0.16931">
        <ele>851.2</ele>
        <time>2018-09-02T06:30:14Z</time>
      </trkpt>
      <trkpt lat="42.97977" lon="-0.16935">
        <ele>851.6</ele>
        <time>2018-09-02T06:30:15Z</time>
      </trkpt>
      <trkpt lat="42.97978" lon="-0.16939">
        <ele>852.1</ele>
        <time>2018-09-02T06:30:16Z</time>
      </trkpt>
      <trkpt lat="42.97978" lon="-0.16943">
        <ele>852.5</ele>
        <time>2018-09-02T06:30:17Z</time>
      </trkpt>
      <trkpt lat="42.97977" lon="-0.16954">
        <ele>853</ele>
        <time>2018-09-02T06:30:20Z</time>
      </trkpt>
      <trkpt lat="42.97977" lon="-0.16958">
        <ele>853.3</ele>
        <time>2018-09-02T06:30:21Z</time>
      </trkpt>
      <trkpt lat="42.97978" lon="-0.16962">
        <ele>853.8</ele>
        <time>2018-09-02T06:30:22Z</time>
      </trkpt>
      <trkpt lat="42.97978" lon="-0.16965">
        <ele>854.3</ele>
        <time>2018-09-02T06:30:23Z</time>
      </trkpt>
      <trkpt lat="42.97979" lon="-0.16969">
        <ele>854.7</ele>
        <time>2018-09-02T06:30:24Z</time>
      </trkpt>
      <trkpt lat="42.97979" lon="-0.16976">
        <ele>855.1</ele>
        <time>2018-09-02T06:30:26Z</time>
      </trkpt>
      <trkpt lat="42.97979" lon="-0.16979">
        <ele>855.4</ele>
        <time>2018-09-02T06:30:27Z</time>
      </trkpt>
      <trkpt lat="42.9798" lon="-0.16983">
        <ele>855.6</ele>
        <time>2018-09-02T06:30:28Z</time>
      </trkpt>
      <trkpt lat="42.9798" lon="-0.16988">
        <ele>855.8</ele>
        <time>2018-09-02T06:30:29Z</time>
      </trkpt>
      <trkpt lat="42.9798" lon="-0.16991">
        <ele>856.2</ele>
        <time>2018-09-02T06:30:30Z</time>
      </trkpt>
      <trkpt lat="42.9798" lon="-0.17002">
        <ele>856.6</ele>
        <time>2018-09-02T06:30:33Z</time>
      </trkpt>
      <trkpt lat="42.9798" lon="-0.17006">
        <ele>856.8</ele>
        <time>2018-09-02T06:30:34Z</time>
      </trkpt>
      <trkpt lat="42.97982" lon="-0.17008">
        <ele>857.7</ele>
        <time>2018-09-02T06:30:35Z</time>
      </trkpt>
      <trkpt lat="42.97986" lon="-0.17008">
        <ele>858.8</ele>
        <time>2018-09-02T06:30:36Z</time>
      </trkpt>
      <trkpt lat="42.97988" lon="-0.17005">
        <ele>859.5</ele>
        <time>2018-09-02T06:30:37Z</time>
      </trkpt>
      <trkpt lat="42.97991" lon="-0.16997">
        <ele>859.9</ele>
        <time>2018-09-02T06:30:39Z</time>
      </trkpt>
      <trkpt lat="42.97993" lon="-0.16993">
        <ele>860.1</ele>
        <time>2018-09-02T06:30:40Z</time>
      </trkpt>
      <trkpt lat="42.97994" lon="-0.16989">
        <ele>860.4</ele>
        <time>2018-09-02T06:30:41Z</time>
      </trkpt>
      <trkpt lat="42.97995" lon="-0.16985">
        <ele>860.5</ele>
        <time>2018-09-02T06:30:42Z</time>
      </trkpt>
      <trkpt lat="42.97997" lon="-0.16981">
        <ele>860.7</ele>
        <time>2018-09-02T06:30:43Z</time>
      </trkpt>
      <trkpt lat="42.98006" lon="-0.16959">
        <ele>861.7</ele>
        <time>2018-09-02T06:30:48Z</time>
      </trkpt>
      <trkpt lat="42.98007" lon="-0.16955">
        <ele>861.9</ele>
        <time>2018-09-02T06:30:49Z</time>
      </trkpt>
      <trkpt lat="42.98009" lon="-0.1695">
        <ele>862</ele>
        <time>2018-09-02T06:30:50Z</time>
      </trkpt>
      <trkpt lat="42.98011" lon="-0.16945">
        <ele>862.2</ele>
        <time>2018-09-02T06:30:51Z</time>
      </trkpt>
      <trkpt lat="42.98013" lon="-0.16941">
        <ele>862.4</ele>
        <time>2018-09-02T06:30:52Z</time>
      </trkpt>
      <trkpt lat="42.98015" lon="-0.16936">
        <ele>862.4</ele>
        <time>2018-09-02T06:30:53Z</time>
      </trkpt>
      <trkpt lat="42.98023" lon="-0.16919">
        <ele>863.1</ele>
        <time>2018-09-02T06:30:57Z</time>
      </trkpt>
      <trkpt lat="42.98032" lon="-0.16916">
        <ele>865</ele>
        <time>2018-09-02T06:31:00Z</time>
      </trkpt>
      <trkpt lat="42.98035" lon="-0.16918">
        <ele>865.9</ele>
        <time>2018-09-02T06:31:01Z</time>
      </trkpt>
      <trkpt lat="42.98038" lon="-0.16919">
        <ele>866.7</ele>
        <time>2018-09-02T06:31:02Z</time>
      </trkpt>
      <trkpt lat="42.98039" lon="-0.16922">
        <ele>867.4</ele>
        <time>2018-09-02T06:31:03Z</time>
      </trkpt>
      <trkpt lat="42.98041" lon="-0.16929">
        <ele>868.8</ele>
        <time>2018-09-02T06:31:05Z</time>
      </trkpt>
      <trkpt lat="42.9804" lon="-0.16934">
        <ele>869.2</ele>
        <time>2018-09-02T06:31:06Z</time>
      </trkpt>
      <trkpt lat="42.98039" lon="-0.16939">
        <ele>869.6</ele>
        <time>2018-09-02T06:31:07Z</time>
      </trkpt>
      <trkpt lat="42.98038" lon="-0.16944">
        <ele>870</ele>
        <time>2018-09-02T06:31:08Z</time>
      </trkpt>
      <trkpt lat="42.98038" lon="-0.16948">
        <ele>870.3</ele>
        <time>2018-09-02T06:31:09Z</time>
      </trkpt>
      <trkpt lat="42.98038" lon="-0.16953">
        <ele>870.4</ele>
        <time>2018-09-02T06:31:10Z</time>
      </trkpt>
      <trkpt lat="42.98036" lon="-0.16962">
        <ele>870.5</ele>
        <time>2018-09-02T06:31:12Z</time>
      </trkpt>
      <trkpt lat="42.98035" lon="-0.16966">
        <ele>870.6</ele>
        <time>2018-09-02T06:31:13Z</time>
      </trkpt>
      <trkpt lat="42.98034" lon="-0.1697">
        <ele>870.7</ele>
        <time>2018-09-02T06:31:14Z</time>
      </trkpt>
      <trkpt lat="42.98034" lon="-0.16974">
        <ele>870.9</ele>
        <time>2018-09-02T06:31:15Z</time>
      </trkpt>
      <trkpt lat="42.98033" lon="-0.16978">
        <ele>871</ele>
        <time>2018-09-02T06:31:16Z</time>
      </trkpt>
      <trkpt lat="42.98031" lon="-0.1699">
        <ele>871.1</ele>
        <time>2018-09-02T06:31:19Z</time>
      </trkpt>
      <trkpt lat="42.9803" lon="-0.16994">
        <ele>871.2</ele>
        <time>2018-09-02T06:31:20Z</time>
      </trkpt>
      <trkpt lat="42.98029" lon="-0.16998">
        <ele>871.2</ele>
        <time>2018-09-02T06:31:21Z</time>
      </trkpt>
      <trkpt lat="42.98028" lon="-0.17002">
        <ele>871.2</ele>
        <time>2018-09-02T06:31:22Z</time>
      </trkpt>
      <trkpt lat="42.98028" lon="-0.17005">
        <ele>871.3</ele>
        <time>2018-09-02T06:31:23Z</time>
      </trkpt>
      <trkpt lat="42.98027" lon="-0.17017">
        <ele>872.1</ele>
        <time>2018-09-02T06:31:26Z</time>
      </trkpt>
      <trkpt lat="42.98028" lon="-0.17021">
        <ele>872.5</ele>
        <time>2018-09-02T06:31:27Z</time>
      </trkpt>
      <trkpt lat="42.98028" lon="-0.17025">
        <ele>872.8</ele>
        <time>2018-09-02T06:31:28Z</time>
      </trkpt>
      <trkpt lat="42.98028" lon="-0.17029">
        <ele>873.1</ele>
        <time>2018-09-02T06:31:29Z</time>
      </trkpt>
      <trkpt lat="42.98028" lon="-0.17033">
        <ele>873.5</ele>
        <time>2018-09-02T06:31:30Z</time>
      </trkpt>
      <trkpt lat="42.98029" lon="-0.17044">
        <ele>874.5</ele>
        <time>2018-09-02T06:31:33Z</time>
      </trkpt>
      <trkpt lat="42.9803" lon="-0.17048">
        <ele>874.9</ele>
        <time>2018-09-02T06:31:34Z</time>
      </trkpt>
      <trkpt lat="42.9803" lon="-0.17051">
        <ele>875.3</ele>
        <time>2018-09-02T06:31:35Z</time>
      </trkpt>
      <trkpt lat="42.9803" lon="-0.17055">
        <ele>875.6</ele>
        <time>2018-09-02T06:31:36Z</time>
      </trkpt>
      <trkpt lat="42.98031" lon="-0.17058">
        <ele>876</ele>
        <time>2018-09-02T06:31:37Z</time>
      </trkpt>
      <trkpt lat="42.98034" lon="-0.17076">
        <ele>878</ele>
        <time>2018-09-02T06:31:42Z</time>
      </trkpt>
      <trkpt lat="42.98034" lon="-0.1708">
        <ele>878.4</ele>
        <time>2018-09-02T06:31:43Z</time>
      </trkpt>
      <trkpt lat="42.98035" lon="-0.17083">
        <ele>878.8</ele>
        <time>2018-09-02T06:31:44Z</time>
      </trkpt>
      <trkpt lat="42.98036" lon="-0.17087">
        <ele>879.2</ele>
        <time>2018-09-02T06:31:45Z</time>
      </trkpt>
      <trkpt lat="42.98036" lon="-0.1709">
        <ele>879.6</ele>
        <time>2018-09-02T06:31:46Z</time>
      </trkpt>
      <trkpt lat="42.98038" lon="-0.17097">
        <ele>880.5</ele>
        <time>2018-09-02T06:31:48Z</time>
      </trkpt>
      <trkpt lat="42.98038" lon="-0.171">
        <ele>880.9</ele>
        <time>2018-09-02T06:31:49Z</time>
      </trkpt>
      <trkpt lat="42.98039" lon="-0.17104">
        <ele>881.4</ele>
        <time>2018-09-02T06:31:50Z</time>
      </trkpt>
      <trkpt lat="42.9804" lon="-0.17107">
        <ele>881.8</ele>
        <time>2018-09-02T06:31:51Z</time>
      </trkpt>
      <trkpt lat="42.98041" lon="-0.1711">
        <ele>882.3</ele>
        <time>2018-09-02T06:31:52Z</time>
      </trkpt>
      <trkpt lat="42.98044" lon="-0.17121">
        <ele>883.7</ele>
        <time>2018-09-02T06:31:55Z</time>
      </trkpt>
      <trkpt lat="42.98045" lon="-0.17124">
        <ele>884.2</ele>
        <time>2018-09-02T06:31:56Z</time>
      </trkpt>
      <trkpt lat="42.98046" lon="-0.17128">
        <ele>884.7</ele>
        <time>2018-09-02T06:31:57Z</time>
      </trkpt>
      <trkpt lat="42.98046" lon="-0.17131">
        <ele>885.1</ele>
        <time>2018-09-02T06:31:58Z</time>
      </trkpt>
      <trkpt lat="42.98047" lon="-0.17134">
        <ele>885.5</ele>
        <time>2018-09-02T06:31:59Z</time>
      </trkpt>
      <trkpt lat="42.9805" lon="-0.17144">
        <ele>886.7</ele>
        <time>2018-09-02T06:32:02Z</time>
      </trkpt>
      <trkpt lat="42.9805" lon="-0.17148">
        <ele>887</ele>
        <time>2018-09-02T06:32:03Z</time>
      </trkpt>
      <trkpt lat="42.98051" lon="-0.17151">
        <ele>887.3</ele>
        <time>2018-09-02T06:32:04Z</time>
      </trkpt>
      <trkpt lat="42.98052" lon="-0.17154">
        <ele>887.6</ele>
        <time>2018-09-02T06:32:05Z</time>
      </trkpt>
      <trkpt lat="42.98053" lon="-0.17158">
        <ele>887.9</ele>
        <time>2018-09-02T06:32:06Z</time>
      </trkpt>
      <trkpt lat="42.98055" lon="-0.17167">
        <ele>888.9</ele>
        <time>2018-09-02T06:32:09Z</time>
      </trkpt>
      <trkpt lat="42.98056" lon="-0.1717">
        <ele>889.3</ele>
        <time>2018-09-02T06:32:10Z</time>
      </trkpt>
      <trkpt lat="42.98057" lon="-0.17174">
        <ele>889.7</ele>
        <time>2018-09-02T06:32:11Z</time>
      </trkpt>
      <trkpt lat="42.98057" lon="-0.17177">
        <ele>890.1</ele>
        <time>2018-09-02T06:32:12Z</time>
      </trkpt>
      <trkpt lat="42.98058" lon="-0.17181">
        <ele>890.5</ele>
        <time>2018-09-02T06:32:13Z</time>
      </trkpt>
      <trkpt lat="42.9806" lon="-0.17188">
        <ele>891.3</ele>
        <time>2018-09-02T06:32:15Z</time>
      </trkpt>
      <trkpt lat="42.9806" lon="-0.17191">
        <ele>891.7</ele>
        <time>2018-09-02T06:32:16Z</time>
      </trkpt>
      <trkpt lat="42.98061" lon="-0.17195">
        <ele>892</ele>
        <time>2018-09-02T06:32:17Z</time>
      </trkpt>
      <trkpt lat="42.98062" lon="-0.17199">
        <ele>892.2</ele>
        <time>2018-09-02T06:32:18Z</time>
      </trkpt>
      <trkpt lat="42.98063" lon="-0.17202">
        <ele>892.4</ele>
        <time>2018-09-02T06:32:19Z</time>
      </trkpt>
      <trkpt lat="42.98067" lon="-0.17215">
        <ele>893.3</ele>
        <time>2018-09-02T06:32:23Z</time>
      </trkpt>
      <trkpt lat="42.98067" lon="-0.17218">
        <ele>893.5</ele>
        <time>2018-09-02T06:32:24Z</time>
      </trkpt>
      <trkpt lat="42.98068" lon="-0.17222">
        <ele>893.7</ele>
        <time>2018-09-02T06:32:25Z</time>
      </trkpt>
      <trkpt lat="42.98069" lon="-0.17225">
        <ele>894</ele>
        <time>2018-09-02T06:32:26Z</time>
      </trkpt>
      <trkpt lat="42.9807" lon="-0.17229">
        <ele>894.3</ele>
        <time>2018-09-02T06:32:27Z</time>
      </trkpt>
      <trkpt lat="42.98073" lon="-0.17243">
        <ele>895.4</ele>
        <time>2018-09-02T06:32:31Z</time>
      </trkpt>
      <trkpt lat="42.98073" lon="-0.17246">
        <ele>895.7</ele>
        <time>2018-09-02T06:32:32Z</time>
      </trkpt>
      <trkpt lat="42.98074" lon="-0.1725">
        <ele>895.9</ele>
        <time>2018-09-02T06:32:33Z</time>
      </trkpt>
      <trkpt lat="42.98074" lon="-0.17253">
        <ele>896.2</ele>
        <time>2018-09-02T06:32:34Z</time>
      </trkpt>
      <trkpt lat="42.98075" lon="-0.17256">
        <ele>896.5</ele>
        <time>2018-09-02T06:32:35Z</time>
      </trkpt>
      <trkpt lat="42.98077" lon="-0.17267">
        <ele>897.3</ele>
        <time>2018-09-02T06:32:38Z</time>
      </trkpt>
      <trkpt lat="42.98078" lon="-0.17271">
        <ele>897.6</ele>
        <time>2018-09-02T06:32:39Z</time>
      </trkpt>
      <trkpt lat="42.98079" lon="-0.17274">
        <ele>897.9</ele>
        <time>2018-09-02T06:32:40Z</time>
      </trkpt>
      <trkpt lat="42.98079" lon="-0.17278">
        <ele>898.1</ele>
        <time>2018-09-02T06:32:41Z</time>
      </trkpt>
      <trkpt lat="42.9808" lon="-0.17281">
        <ele>898.4</ele>
        <time>2018-09-02T06:32:42Z</time>
      </trkpt>
      <trkpt lat="42.98082" lon="-0.17291">
        <ele>899.2</ele>
        <time>2018-09-02T06:32:45Z</time>
      </trkpt>
      <trkpt lat="42.98083" lon="-0.17295">
        <ele>899.4</ele>
        <time>2018-09-02T06:32:46Z</time>
      </trkpt>
      <trkpt lat="42.98083" lon="-0.17299">
        <ele>899.7</ele>
        <time>2018-09-02T06:32:47Z</time>
      </trkpt>
      <trkpt lat="42.98083" lon="-0.17302">
        <ele>899.9</ele>
        <time>2018-09-02T06:32:48Z</time>
      </trkpt>
      <trkpt lat="42.98084" lon="-0.17306">
        <ele>900.2</ele>
        <time>2018-09-02T06:32:49Z</time>
      </trkpt>
      <trkpt lat="42.98086" lon="-0.17313">
        <ele>900.7</ele>
        <time>2018-09-02T06:32:51Z</time>
      </trkpt>
      <trkpt lat="42.98087" lon="-0.17321">
        <ele>901.3</ele>
        <time>2018-09-02T06:32:53Z</time>
      </trkpt>
      <trkpt lat="42.98087" lon="-0.17325">
        <ele>901.5</ele>
        <time>2018-09-02T06:32:54Z</time>
      </trkpt>
      <trkpt lat="42.98088" lon="-0.17328">
        <ele>901.8</ele>
        <time>2018-09-02T06:32:55Z</time>
      </trkpt>
      <trkpt lat="42.98089" lon="-0.17332">
        <ele>902.1</ele>
        <time>2018-09-02T06:32:56Z</time>
      </trkpt>
      <trkpt lat="42.9809" lon="-0.17335">
        <ele>902.5</ele>
        <time>2018-09-02T06:32:57Z</time>
      </trkpt>
      <trkpt lat="42.98092" lon="-0.17349">
        <ele>904</ele>
        <time>2018-09-02T06:33:01Z</time>
      </trkpt>
      <trkpt lat="42.98093" lon="-0.17352">
        <ele>904.4</ele>
        <time>2018-09-02T06:33:02Z</time>
      </trkpt>
      <trkpt lat="42.98094" lon="-0.17355">
        <ele>904.8</ele>
        <time>2018-09-02T06:33:03Z</time>
      </trkpt>
      <trkpt lat="42.98095" lon="-0.17362">
        <ele>905.5</ele>
        <time>2018-09-02T06:33:05Z</time>
      </trkpt>
      <trkpt lat="42.98096" lon="-0.1737">
        <ele>906</ele>
        <time>2018-09-02T06:33:07Z</time>
      </trkpt>
      <trkpt lat="42.98097" lon="-0.17373">
        <ele>906.3</ele>
        <time>2018-09-02T06:33:08Z</time>
      </trkpt>
      <trkpt lat="42.98097" lon="-0.17377">
        <ele>906.6</ele>
        <time>2018-09-02T06:33:09Z</time>
      </trkpt>
      <trkpt lat="42.98098" lon="-0.1738">
        <ele>906.9</ele>
        <time>2018-09-02T06:33:10Z</time>
      </trkpt>
      <trkpt lat="42.98099" lon="-0.17383">
        <ele>907.2</ele>
        <time>2018-09-02T06:33:11Z</time>
      </trkpt>
      <trkpt lat="42.98101" lon="-0.17393">
        <ele>907.9</ele>
        <time>2018-09-02T06:33:14Z</time>
      </trkpt>
      <trkpt lat="42.98102" lon="-0.17397">
        <ele>908.2</ele>
        <time>2018-09-02T06:33:15Z</time>
      </trkpt>
      <trkpt lat="42.98102" lon="-0.174">
        <ele>908.5</ele>
        <time>2018-09-02T06:33:16Z</time>
      </trkpt>
      <trkpt lat="42.98102" lon="-0.17404">
        <ele>908.6</ele>
        <time>2018-09-02T06:33:17Z</time>
      </trkpt>
      <trkpt lat="42.98103" lon="-0.17407">
        <ele>908.8</ele>
        <time>2018-09-02T06:33:18Z</time>
      </trkpt>
      <trkpt lat="42.98103" lon="-0.17411">
        <ele>909.1</ele>
        <time>2018-09-02T06:33:19Z</time>
      </trkpt>
      <trkpt lat="42.98104" lon="-0.17415">
        <ele>909.3</ele>
        <time>2018-09-02T06:33:20Z</time>
      </trkpt>
      <trkpt lat="42.98105" lon="-0.17426">
        <ele>910</ele>
        <time>2018-09-02T06:33:23Z</time>
      </trkpt>
      <trkpt lat="42.98106" lon="-0.17429">
        <ele>910.3</ele>
        <time>2018-09-02T06:33:24Z</time>
      </trkpt>
      <trkpt lat="42.98107" lon="-0.17432">
        <ele>910.6</ele>
        <time>2018-09-02T06:33:25Z</time>
      </trkpt>
      <trkpt lat="42.98108" lon="-0.17436">
        <ele>910.9</ele>
        <time>2018-09-02T06:33:26Z</time>
      </trkpt>
      <trkpt lat="42.98108" lon="-0.17439">
        <ele>911.2</ele>
        <time>2018-09-02T06:33:27Z</time>
      </trkpt>
      <trkpt lat="42.98112" lon="-0.17453">
        <ele>912.4</ele>
        <time>2018-09-02T06:33:31Z</time>
      </trkpt>
      <trkpt lat="42.98112" lon="-0.17457">
        <ele>912.6</ele>
        <time>2018-09-02T06:33:32Z</time>
      </trkpt>
      <trkpt lat="42.98113" lon="-0.17461">
        <ele>912.9</ele>
        <time>2018-09-02T06:33:33Z</time>
      </trkpt>
      <trkpt lat="42.98114" lon="-0.17464">
        <ele>913.2</ele>
        <time>2018-09-02T06:33:34Z</time>
      </trkpt>
      <trkpt lat="42.98119" lon="-0.17481">
        <ele>914.6</ele>
        <time>2018-09-02T06:33:39Z</time>
      </trkpt>
      <trkpt lat="42.98121" lon="-0.17485">
        <ele>914.9</ele>
        <time>2018-09-02T06:33:40Z</time>
      </trkpt>
      <trkpt lat="42.98122" lon="-0.17488">
        <ele>915.2</ele>
        <time>2018-09-02T06:33:41Z</time>
      </trkpt>
      <trkpt lat="42.98124" lon="-0.17493">
        <ele>915.6</ele>
        <time>2018-09-02T06:33:42Z</time>
      </trkpt>
      <trkpt lat="42.98125" lon="-0.17499">
        <ele>916</ele>
        <time>2018-09-02T06:33:43Z</time>
      </trkpt>
      <trkpt lat="42.98126" lon="-0.17505">
        <ele>916.4</ele>
        <time>2018-09-02T06:33:44Z</time>
      </trkpt>
      <trkpt lat="42.98126" lon="-0.17523">
        <ele>917</ele>
        <time>2018-09-02T06:33:47Z</time>
      </trkpt>
      <trkpt lat="42.98124" lon="-0.17533">
        <ele>917</ele>
        <time>2018-09-02T06:33:49Z</time>
      </trkpt>
      <trkpt lat="42.98122" lon="-0.17546">
        <ele>916.9</ele>
        <time>2018-09-02T06:33:52Z</time>
      </trkpt>
      <trkpt lat="42.98121" lon="-0.1756">
        <ele>917.4</ele>
        <time>2018-09-02T06:33:55Z</time>
      </trkpt>
      <trkpt lat="42.98121" lon="-0.17565">
        <ele>917.8</ele>
        <time>2018-09-02T06:33:56Z</time>
      </trkpt>
      <trkpt lat="42.98122" lon="-0.17569">
        <ele>918.2</ele>
        <time>2018-09-02T06:33:57Z</time>
      </trkpt>
      <trkpt lat="42.98122" lon="-0.17574">
        <ele>918.6</ele>
        <time>2018-09-02T06:33:58Z</time>
      </trkpt>
      <trkpt lat="42.98124" lon="-0.1759">
        <ele>920</ele>
        <time>2018-09-02T06:34:02Z</time>
      </trkpt>
      <trkpt lat="42.98125" lon="-0.17594">
        <ele>920.3</ele>
        <time>2018-09-02T06:34:03Z</time>
      </trkpt>
      <trkpt lat="42.98126" lon="-0.17598">
        <ele>920.6</ele>
        <time>2018-09-02T06:34:04Z</time>
      </trkpt>
      <trkpt lat="42.98127" lon="-0.17601">
        <ele>921</ele>
        <time>2018-09-02T06:34:05Z</time>
      </trkpt>
      <trkpt lat="42.98128" lon="-0.17604">
        <ele>921.4</ele>
        <time>2018-09-02T06:34:06Z</time>
      </trkpt>
      <trkpt lat="42.98132" lon="-0.1761">
        <ele>922.4</ele>
        <time>2018-09-02T06:34:08Z</time>
      </trkpt>
      <trkpt lat="42.98136" lon="-0.17614">
        <ele>923.4</ele>
        <time>2018-09-02T06:34:10Z</time>
      </trkpt>
      <trkpt lat="42.98138" lon="-0.17616">
        <ele>923.9</ele>
        <time>2018-09-02T06:34:11Z</time>
      </trkpt>
      <trkpt lat="42.98139" lon="-0.17619">
        <ele>924.3</ele>
        <time>2018-09-02T06:34:12Z</time>
      </trkpt>
      <trkpt lat="42.98141" lon="-0.17622">
        <ele>924.8</ele>
        <time>2018-09-02T06:34:13Z</time>
      </trkpt>
      <trkpt lat="42.98142" lon="-0.17624">
        <ele>925.3</ele>
        <time>2018-09-02T06:34:14Z</time>
      </trkpt>
      <trkpt lat="42.98148" lon="-0.17632">
        <ele>926.9</ele>
        <time>2018-09-02T06:34:17Z</time>
      </trkpt>
      <trkpt lat="42.9815" lon="-0.17634">
        <ele>927.5</ele>
        <time>2018-09-02T06:34:18Z</time>
      </trkpt>
      <trkpt lat="42.98152" lon="-0.17636">
        <ele>928.1</ele>
        <time>2018-09-02T06:34:19Z</time>
      </trkpt>
      <trkpt lat="42.98154" lon="-0.17637">
        <ele>928.7</ele>
        <time>2018-09-02T06:34:20Z</time>
      </trkpt>
      <trkpt lat="42.98159" lon="-0.17634">
        <ele>929.7</ele>
        <time>2018-09-02T06:34:22Z</time>
      </trkpt>
      <trkpt lat="42.9816" lon="-0.17631">
        <ele>929.9</ele>
        <time>2018-09-02T06:34:23Z</time>
      </trkpt>
      <trkpt lat="42.98161" lon="-0.17627">
        <ele>929.9</ele>
        <time>2018-09-02T06:34:24Z</time>
      </trkpt>
      <trkpt lat="42.98162" lon="-0.17623">
        <ele>929.8</ele>
        <time>2018-09-02T06:34:25Z</time>
      </trkpt>
      <trkpt lat="42.98162" lon="-0.17619">
        <ele>929.6</ele>
        <time>2018-09-02T06:34:26Z</time>
      </trkpt>
      <trkpt lat="42.98163" lon="-0.17616">
        <ele>929.5</ele>
        <time>2018-09-02T06:34:27Z</time>
      </trkpt>
      <trkpt lat="42.98164" lon="-0.17612">
        <ele>929.5</ele>
        <time>2018-09-02T06:34:28Z</time>
      </trkpt>
      <trkpt lat="42.98165" lon="-0.17609">
        <ele>929.5</ele>
        <time>2018-09-02T06:34:29Z</time>
      </trkpt>
      <trkpt lat="42.98166" lon="-0.17605">
        <ele>929.5</ele>
        <time>2018-09-02T06:34:30Z</time>
      </trkpt>
      <trkpt lat="42.98167" lon="-0.17603">
        <ele>929.5</ele>
        <time>2018-09-02T06:34:31Z</time>
      </trkpt>
      <trkpt lat="42.98171" lon="-0.17593">
        <ele>929.5</ele>
        <time>2018-09-02T06:34:34Z</time>
      </trkpt>
      <trkpt lat="42.98173" lon="-0.17588">
        <ele>929.5</ele>
        <time>2018-09-02T06:34:35Z</time>
      </trkpt>
      <trkpt lat="42.98175" lon="-0.17584">
        <ele>929.5</ele>
        <time>2018-09-02T06:34:36Z</time>
      </trkpt>
      <trkpt lat="42.98177" lon="-0.1758">
        <ele>929.5</ele>
        <time>2018-09-02T06:34:37Z</time>
      </trkpt>
      <trkpt lat="42.98179" lon="-0.17576">
        <ele>929.7</ele>
        <time>2018-09-02T06:34:38Z</time>
      </trkpt>
      <trkpt lat="42.98188" lon="-0.17562">
        <ele>930.4</ele>
        <time>2018-09-02T06:34:42Z</time>
      </trkpt>
      <trkpt lat="42.98199" lon="-0.17542">
        <ele>931.2</ele>
        <time>2018-09-02T06:34:47Z</time>
      </trkpt>
      <trkpt lat="42.98201" lon="-0.17538">
        <ele>931.2</ele>
        <time>2018-09-02T06:34:48Z</time>
      </trkpt>
      <trkpt lat="42.98202" lon="-0.17534">
        <ele>931.2</ele>
        <time>2018-09-02T06:34:49Z</time>
      </trkpt>
      <trkpt lat="42.98203" lon="-0.17531">
        <ele>931.4</ele>
        <time>2018-09-02T06:34:50Z</time>
      </trkpt>
      <trkpt lat="42.98205" lon="-0.17532">
        <ele>931.7</ele>
        <time>2018-09-02T06:34:51Z</time>
      </trkpt>
      <trkpt lat="42.98209" lon="-0.17539">
        <ele>932.5</ele>
        <time>2018-09-02T06:34:53Z</time>
      </trkpt>
      <trkpt lat="42.98214" lon="-0.17544">
        <ele>933.4</ele>
        <time>2018-09-02T06:34:55Z</time>
      </trkpt>
      <trkpt lat="42.98218" lon="-0.17548">
        <ele>934.1</ele>
        <time>2018-09-02T06:34:57Z</time>
      </trkpt>
      <trkpt lat="42.9822" lon="-0.1755">
        <ele>934.5</ele>
        <time>2018-09-02T06:34:58Z</time>
      </trkpt>
      <trkpt lat="42.98222" lon="-0.17551">
        <ele>934.8</ele>
        <time>2018-09-02T06:34:59Z</time>
      </trkpt>
      <trkpt lat="42.98224" lon="-0.17553">
        <ele>935.2</ele>
        <time>2018-09-02T06:35:00Z</time>
      </trkpt>
      <trkpt lat="42.98226" lon="-0.17555">
        <ele>935.6</ele>
        <time>2018-09-02T06:35:01Z</time>
      </trkpt>
      <trkpt lat="42.98232" lon="-0.17563">
        <ele>937.2</ele>
        <time>2018-09-02T06:35:05Z</time>
      </trkpt>
      <trkpt lat="42.98233" lon="-0.17566">
        <ele>937.6</ele>
        <time>2018-09-02T06:35:06Z</time>
      </trkpt>
      <trkpt lat="42.98235" lon="-0.17568">
        <ele>937.9</ele>
        <time>2018-09-02T06:35:07Z</time>
      </trkpt>
      <trkpt lat="42.98236" lon="-0.1757">
        <ele>938.3</ele>
        <time>2018-09-02T06:35:08Z</time>
      </trkpt>
      <trkpt lat="42.98237" lon="-0.17572">
        <ele>938.6</ele>
        <time>2018-09-02T06:35:09Z</time>
      </trkpt>
      <trkpt lat="42.9824" lon="-0.17579">
        <ele>939.3</ele>
        <time>2018-09-02T06:35:12Z</time>
      </trkpt>
      <trkpt lat="42.9824" lon="-0.17582">
        <ele>939.6</ele>
        <time>2018-09-02T06:35:13Z</time>
      </trkpt>
      <trkpt lat="42.98241" lon="-0.17586">
        <ele>939.9</ele>
        <time>2018-09-02T06:35:14Z</time>
      </trkpt>
      <trkpt lat="42.98241" lon="-0.17589">
        <ele>940.2</ele>
        <time>2018-09-02T06:35:15Z</time>
      </trkpt>
      <trkpt lat="42.9824" lon="-0.17592">
        <ele>940.4</ele>
        <time>2018-09-02T06:35:16Z</time>
      </trkpt>
      <trkpt lat="42.9824" lon="-0.17597">
        <ele>940.8</ele>
        <time>2018-09-02T06:35:18Z</time>
      </trkpt>
      <trkpt lat="42.9824" lon="-0.176">
        <ele>941.1</ele>
        <time>2018-09-02T06:35:19Z</time>
      </trkpt>
      <trkpt lat="42.98243" lon="-0.17607">
        <ele>942.3</ele>
        <time>2018-09-02T06:35:22Z</time>
      </trkpt>
      <trkpt lat="42.98244" lon="-0.1761">
        <ele>942.7</ele>
        <time>2018-09-02T06:35:23Z</time>
      </trkpt>
      <trkpt lat="42.98244" lon="-0.17613">
        <ele>943.1</ele>
        <time>2018-09-02T06:35:24Z</time>
      </trkpt>
      <trkpt lat="42.98245" lon="-0.17615">
        <ele>943.5</ele>
        <time>2018-09-02T06:35:25Z</time>
      </trkpt>
      <trkpt lat="42.98246" lon="-0.17618">
        <ele>943.9</ele>
        <time>2018-09-02T06:35:26Z</time>
      </trkpt>
      <trkpt lat="42.98253" lon="-0.17627">
        <ele>946.1</ele>
        <time>2018-09-02T06:35:30Z</time>
      </trkpt>
      <trkpt lat="42.98255" lon="-0.17628">
        <ele>946.6</ele>
        <time>2018-09-02T06:35:31Z</time>
      </trkpt>
      <trkpt lat="42.98257" lon="-0.1763">
        <ele>947</ele>
        <time>2018-09-02T06:35:32Z</time>
      </trkpt>
      <trkpt lat="42.98258" lon="-0.17632">
        <ele>947.5</ele>
        <time>2018-09-02T06:35:33Z</time>
      </trkpt>
      <trkpt lat="42.9826" lon="-0.17634">
        <ele>947.9</ele>
        <time>2018-09-02T06:35:34Z</time>
      </trkpt>
      <trkpt lat="42.98264" lon="-0.17638">
        <ele>948.9</ele>
        <time>2018-09-02T06:35:36Z</time>
      </trkpt>
      <trkpt lat="42.98268" lon="-0.17642">
        <ele>949.9</ele>
        <time>2018-09-02T06:35:38Z</time>
      </trkpt>
      <trkpt lat="42.9827" lon="-0.17644">
        <ele>950.5</ele>
        <time>2018-09-02T06:35:39Z</time>
      </trkpt>
      <trkpt lat="42.98272" lon="-0.17645">
        <ele>951</ele>
        <time>2018-09-02T06:35:40Z</time>
      </trkpt>
      <trkpt lat="42.98274" lon="-0.17646">
        <ele>951.5</ele>
        <time>2018-09-02T06:35:41Z</time>
      </trkpt>
      <trkpt lat="42.98276" lon="-0.17648">
        <ele>952</ele>
        <time>2018-09-02T06:35:42Z</time>
      </trkpt>
      <trkpt lat="42.98278" lon="-0.17649">
        <ele>952.5</ele>
        <time>2018-09-02T06:35:43Z</time>
      </trkpt>
      <trkpt lat="42.98282" lon="-0.17652">
        <ele>953.5</ele>
        <time>2018-09-02T06:35:45Z</time>
      </trkpt>
      <trkpt lat="42.98283" lon="-0.17654">
        <ele>954</ele>
        <time>2018-09-02T06:35:46Z</time>
      </trkpt>
      <trkpt lat="42.98285" lon="-0.17657">
        <ele>954.5</ele>
        <time>2018-09-02T06:35:47Z</time>
      </trkpt>
      <trkpt lat="42.98286" lon="-0.17659">
        <ele>955.1</ele>
        <time>2018-09-02T06:35:48Z</time>
      </trkpt>
      <trkpt lat="42.98288" lon="-0.17661">
        <ele>955.6</ele>
        <time>2018-09-02T06:35:49Z</time>
      </trkpt>
      <trkpt lat="42.98295" lon="-0.17668">
        <ele>957.7</ele>
        <time>2018-09-02T06:35:53Z</time>
      </trkpt>
      <trkpt lat="42.98297" lon="-0.1767">
        <ele>958.2</ele>
        <time>2018-09-02T06:35:54Z</time>
      </trkpt>
      <trkpt lat="42.98298" lon="-0.17673">
        <ele>958.8</ele>
        <time>2018-09-02T06:35:55Z</time>
      </trkpt>
      <trkpt lat="42.98298" lon="-0.17676">
        <ele>959.4</ele>
        <time>2018-09-02T06:35:56Z</time>
      </trkpt>
      <trkpt lat="42.98298" lon="-0.17679">
        <ele>959.8</ele>
        <time>2018-09-02T06:35:57Z</time>
      </trkpt>
      <trkpt lat="42.98298" lon="-0.17685">
        <ele>960.6</ele>
        <time>2018-09-02T06:35:59Z</time>
      </trkpt>
      <trkpt lat="42.98297" lon="-0.17687">
        <ele>960.9</ele>
        <time>2018-09-02T06:36:00Z</time>
      </trkpt>
      <trkpt lat="42.98295" lon="-0.17689">
        <ele>961.1</ele>
        <time>2018-09-02T06:36:01Z</time>
      </trkpt>
      <trkpt lat="42.98294" lon="-0.17691">
        <ele>961.2</ele>
        <time>2018-09-02T06:36:02Z</time>
      </trkpt>
      <trkpt lat="42.98293" lon="-0.17693">
        <ele>961.4</ele>
        <time>2018-09-02T06:36:03Z</time>
      </trkpt>
      <trkpt lat="42.98291" lon="-0.17697">
        <ele>961.8</ele>
        <time>2018-09-02T06:36:05Z</time>
      </trkpt>
      <trkpt lat="42.9829" lon="-0.177">
        <ele>962</ele>
        <time>2018-09-02T06:36:06Z</time>
      </trkpt>
      <trkpt lat="42.98289" lon="-0.17701">
        <ele>962.1</ele>
        <time>2018-09-02T06:36:07Z</time>
      </trkpt>
      <trkpt lat="42.98288" lon="-0.17703">
        <ele>962.3</ele>
        <time>2018-09-02T06:36:08Z</time>
      </trkpt>
      <trkpt lat="42.98288" lon="-0.17706">
        <ele>962.6</ele>
        <time>2018-09-02T06:36:09Z</time>
      </trkpt>
      <trkpt lat="42.98287" lon="-0.17709">
        <ele>962.9</ele>
        <time>2018-09-02T06:36:10Z</time>
      </trkpt>
      <trkpt lat="42.98287" lon="-0.17714">
        <ele>963.6</ele>
        <time>2018-09-02T06:36:12Z</time>
      </trkpt>
      <trkpt lat="42.98286" lon="-0.17717">
        <ele>963.9</ele>
        <time>2018-09-02T06:36:13Z</time>
      </trkpt>
      <trkpt lat="42.98286" lon="-0.17719">
        <ele>964.2</ele>
        <time>2018-09-02T06:36:14Z</time>
      </trkpt>
      <trkpt lat="42.98286" lon="-0.17722">
        <ele>964.5</ele>
        <time>2018-09-02T06:36:15Z</time>
      </trkpt>
      <trkpt lat="42.98285" lon="-0.17724">
        <ele>964.7</ele>
        <time>2018-09-02T06:36:16Z</time>
      </trkpt>
      <trkpt lat="42.98284" lon="-0.17729">
        <ele>965</ele>
        <time>2018-09-02T06:36:18Z</time>
      </trkpt>
      <trkpt lat="42.98283" lon="-0.17731">
        <ele>965.1</ele>
        <time>2018-09-02T06:36:19Z</time>
      </trkpt>
      <trkpt lat="42.98282" lon="-0.17733">
        <ele>965.2</ele>
        <time>2018-09-02T06:36:20Z</time>
      </trkpt>
      <trkpt lat="42.98282" lon="-0.17736">
        <ele>965.3</ele>
        <time>2018-09-02T06:36:21Z</time>
      </trkpt>
      <trkpt lat="42.98282" lon="-0.17738">
        <ele>965.5</ele>
        <time>2018-09-02T06:36:22Z</time>
      </trkpt>
      <trkpt lat="42.98281" lon="-0.1774">
        <ele>965.6</ele>
        <time>2018-09-02T06:36:23Z</time>
      </trkpt>
      <trkpt lat="42.98281" lon="-0.17748">
        <ele>966.1</ele>
        <time>2018-09-02T06:36:26Z</time>
      </trkpt>
      <trkpt lat="42.98277" lon="-0.17754">
        <ele>966.2</ele>
        <time>2018-09-02T06:36:29Z</time>
      </trkpt>
      <trkpt lat="42.98275" lon="-0.17756">
        <ele>966.1</ele>
        <time>2018-09-02T06:36:30Z</time>
      </trkpt>
      <trkpt lat="42.98274" lon="-0.17758">
        <ele>966.1</ele>
        <time>2018-09-02T06:36:31Z</time>
      </trkpt>
      <trkpt lat="42.98272" lon="-0.1776">
        <ele>966.1</ele>
        <time>2018-09-02T06:36:32Z</time>
      </trkpt>
      <trkpt lat="42.98271" lon="-0.17761">
        <ele>966</ele>
        <time>2018-09-02T06:36:33Z</time>
      </trkpt>
      <trkpt lat="42.98264" lon="-0.17765">
        <ele>965.4</ele>
        <time>2018-09-02T06:36:37Z</time>
      </trkpt>
      <trkpt lat="42.98263" lon="-0.17768">
        <ele>965.3</ele>
        <time>2018-09-02T06:36:38Z</time>
      </trkpt>
      <trkpt lat="42.98261" lon="-0.1777">
        <ele>965.2</ele>
        <time>2018-09-02T06:36:39Z</time>
      </trkpt>
      <trkpt lat="42.9826" lon="-0.17772">
        <ele>965.2</ele>
        <time>2018-09-02T06:36:40Z</time>
      </trkpt>
      <trkpt lat="42.98259" lon="-0.17774">
        <ele>965.2</ele>
        <time>2018-09-02T06:36:41Z</time>
      </trkpt>
      <trkpt lat="42.9826" lon="-0.17781">
        <ele>965.6</ele>
        <time>2018-09-02T06:36:44Z</time>
      </trkpt>
      <trkpt lat="42.9826" lon="-0.17783">
        <ele>965.9</ele>
        <time>2018-09-02T06:36:45Z</time>
      </trkpt>
      <trkpt lat="42.98261" lon="-0.17785">
        <ele>966.1</ele>
        <time>2018-09-02T06:36:46Z</time>
      </trkpt>
      <trkpt lat="42.98262" lon="-0.17787">
        <ele>966.4</ele>
        <time>2018-09-02T06:36:47Z</time>
      </trkpt>
      <trkpt lat="42.98262" lon="-0.17789">
        <ele>966.6</ele>
        <time>2018-09-02T06:36:48Z</time>
      </trkpt>
      <trkpt lat="42.98262" lon="-0.17792">
        <ele>966.7</ele>
        <time>2018-09-02T06:36:49Z</time>
      </trkpt>
      <trkpt lat="42.98261" lon="-0.17795">
        <ele>966.9</ele>
        <time>2018-09-02T06:36:50Z</time>
      </trkpt>
      <trkpt lat="42.98261" lon="-0.17798">
        <ele>967</ele>
        <time>2018-09-02T06:36:51Z</time>
      </trkpt>
      <trkpt lat="42.98261" lon="-0.17801">
        <ele>967.2</ele>
        <time>2018-09-02T06:36:52Z</time>
      </trkpt>
      <trkpt lat="42.98261" lon="-0.17804">
        <ele>967.4</ele>
        <time>2018-09-02T06:36:53Z</time>
      </trkpt>
      <trkpt lat="42.98261" lon="-0.17807">
        <ele>967.7</ele>
        <time>2018-09-02T06:36:54Z</time>
      </trkpt>
      <trkpt lat="42.98261" lon="-0.1781">
        <ele>968</ele>
        <time>2018-09-02T06:36:55Z</time>
      </trkpt>
      <trkpt lat="42.9826" lon="-0.1782">
        <ele>968.9</ele>
        <time>2018-09-02T06:36:58Z</time>
      </trkpt>
      <trkpt lat="42.9826" lon="-0.17823">
        <ele>969.3</ele>
        <time>2018-09-02T06:36:59Z</time>
      </trkpt>
      <trkpt lat="42.98259" lon="-0.17826">
        <ele>969.6</ele>
        <time>2018-09-02T06:37:00Z</time>
      </trkpt>
      <trkpt lat="42.98259" lon="-0.17829">
        <ele>969.8</ele>
        <time>2018-09-02T06:37:01Z</time>
      </trkpt>
      <trkpt lat="42.98259" lon="-0.17832">
        <ele>970.2</ele>
        <time>2018-09-02T06:37:02Z</time>
      </trkpt>
      <trkpt lat="42.98258" lon="-0.17836">
        <ele>970.5</ele>
        <time>2018-09-02T06:37:03Z</time>
      </trkpt>
      <trkpt lat="42.98258" lon="-0.17839">
        <ele>970.7</ele>
        <time>2018-09-02T06:37:04Z</time>
      </trkpt>
      <trkpt lat="42.98257" lon="-0.17848">
        <ele>971.7</ele>
        <time>2018-09-02T06:37:07Z</time>
      </trkpt>
      <trkpt lat="42.98258" lon="-0.17855">
        <ele>972.5</ele>
        <time>2018-09-02T06:37:09Z</time>
      </trkpt>
      <trkpt lat="42.98259" lon="-0.17858">
        <ele>972.9</ele>
        <time>2018-09-02T06:37:10Z</time>
      </trkpt>
      <trkpt lat="42.98259" lon="-0.1786">
        <ele>973.2</ele>
        <time>2018-09-02T06:37:11Z</time>
      </trkpt>
      <trkpt lat="42.98259" lon="-0.17863">
        <ele>973.5</ele>
        <time>2018-09-02T06:37:12Z</time>
      </trkpt>
      <trkpt lat="42.98259" lon="-0.17865">
        <ele>973.8</ele>
        <time>2018-09-02T06:37:13Z</time>
      </trkpt>
      <trkpt lat="42.98259" lon="-0.17868">
        <ele>974.1</ele>
        <time>2018-09-02T06:37:14Z</time>
      </trkpt>
      <trkpt lat="42.9826" lon="-0.17874">
        <ele>975</ele>
        <time>2018-09-02T06:37:16Z</time>
      </trkpt>
      <trkpt lat="42.9826" lon="-0.17877">
        <ele>975.4</ele>
        <time>2018-09-02T06:37:17Z</time>
      </trkpt>
      <trkpt lat="42.9826" lon="-0.1788">
        <ele>975.8</ele>
        <time>2018-09-02T06:37:18Z</time>
      </trkpt>
      <trkpt lat="42.9826" lon="-0.17883">
        <ele>976.2</ele>
        <time>2018-09-02T06:37:19Z</time>
      </trkpt>
      <trkpt lat="42.9826" lon="-0.17886">
        <ele>976.5</ele>
        <time>2018-09-02T06:37:20Z</time>
      </trkpt>
      <trkpt lat="42.9826" lon="-0.17889">
        <ele>976.8</ele>
        <time>2018-09-02T06:37:21Z</time>
      </trkpt>
      <trkpt lat="42.98261" lon="-0.17894">
        <ele>977.9</ele>
        <time>2018-09-02T06:37:23Z</time>
      </trkpt>
      <trkpt lat="42.98262" lon="-0.17897">
        <ele>978.4</ele>
        <time>2018-09-02T06:37:24Z</time>
      </trkpt>
      <trkpt lat="42.98262" lon="-0.17899">
        <ele>978.9</ele>
        <time>2018-09-02T06:37:25Z</time>
      </trkpt>
      <trkpt lat="42.98264" lon="-0.17901">
        <ele>979.5</ele>
        <time>2018-09-02T06:37:26Z</time>
      </trkpt>
      <trkpt lat="42.98265" lon="-0.17904">
        <ele>980</ele>
        <time>2018-09-02T06:37:27Z</time>
      </trkpt>
      <trkpt lat="42.98269" lon="-0.17913">
        <ele>981.9</ele>
        <time>2018-09-02T06:37:31Z</time>
      </trkpt>
      <trkpt lat="42.9827" lon="-0.17916">
        <ele>982.3</ele>
        <time>2018-09-02T06:37:32Z</time>
      </trkpt>
      <trkpt lat="42.98271" lon="-0.17918">
        <ele>982.7</ele>
        <time>2018-09-02T06:37:33Z</time>
      </trkpt>
      <trkpt lat="42.98272" lon="-0.17921">
        <ele>983</ele>
        <time>2018-09-02T06:37:34Z</time>
      </trkpt>
      <trkpt lat="42.98273" lon="-0.17923">
        <ele>983.3</ele>
        <time>2018-09-02T06:37:35Z</time>
      </trkpt>
      <trkpt lat="42.98277" lon="-0.17929">
        <ele>984.3</ele>
        <time>2018-09-02T06:37:38Z</time>
      </trkpt>
      <trkpt lat="42.98278" lon="-0.17931">
        <ele>984.6</ele>
        <time>2018-09-02T06:37:39Z</time>
      </trkpt>
      <trkpt lat="42.98279" lon="-0.17934">
        <ele>985</ele>
        <time>2018-09-02T06:37:40Z</time>
      </trkpt>
      <trkpt lat="42.98281" lon="-0.17936">
        <ele>985.4</ele>
        <time>2018-09-02T06:37:41Z</time>
      </trkpt>
      <trkpt lat="42.98287" lon="-0.17945">
        <ele>987</ele>
        <time>2018-09-02T06:37:45Z</time>
      </trkpt>
      <trkpt lat="42.98288" lon="-0.17947">
        <ele>987.4</ele>
        <time>2018-09-02T06:37:46Z</time>
      </trkpt>
      <trkpt lat="42.98289" lon="-0.1795">
        <ele>987.8</ele>
        <time>2018-09-02T06:37:47Z</time>
      </trkpt>
      <trkpt lat="42.98291" lon="-0.17952">
        <ele>988.2</ele>
        <time>2018-09-02T06:37:48Z</time>
      </trkpt>
      <trkpt lat="42.98292" lon="-0.17955">
        <ele>988.7</ele>
        <time>2018-09-02T06:37:49Z</time>
      </trkpt>
      <trkpt lat="42.98298" lon="-0.17966">
        <ele>990.1</ele>
        <time>2018-09-02T06:37:53Z</time>
      </trkpt>
      <trkpt lat="42.98299" lon="-0.17968">
        <ele>990.4</ele>
        <time>2018-09-02T06:37:54Z</time>
      </trkpt>
      <trkpt lat="42.983" lon="-0.1797">
        <ele>990.7</ele>
        <time>2018-09-02T06:37:55Z</time>
      </trkpt>
      <trkpt lat="42.98301" lon="-0.17973">
        <ele>990.9</ele>
        <time>2018-09-02T06:37:56Z</time>
      </trkpt>
      <trkpt lat="42.98302" lon="-0.17976">
        <ele>991.2</ele>
        <time>2018-09-02T06:37:57Z</time>
      </trkpt>
      <trkpt lat="42.98305" lon="-0.17984">
        <ele>992.2</ele>
        <time>2018-09-02T06:38:00Z</time>
      </trkpt>
      <trkpt lat="42.98306" lon="-0.17987">
        <ele>992.6</ele>
        <time>2018-09-02T06:38:01Z</time>
      </trkpt>
      <trkpt lat="42.98307" lon="-0.1799">
        <ele>993.1</ele>
        <time>2018-09-02T06:38:02Z</time>
      </trkpt>
      <trkpt lat="42.98308" lon="-0.17993">
        <ele>993.4</ele>
        <time>2018-09-02T06:38:03Z</time>
      </trkpt>
      <trkpt lat="42.98309" lon="-0.17996">
        <ele>993.8</ele>
        <time>2018-09-02T06:38:04Z</time>
      </trkpt>
      <trkpt lat="42.98311" lon="-0.18002">
        <ele>994.4</ele>
        <time>2018-09-02T06:38:06Z</time>
      </trkpt>
      <trkpt lat="42.98311" lon="-0.18005">
        <ele>994.6</ele>
        <time>2018-09-02T06:38:07Z</time>
      </trkpt>
      <trkpt lat="42.98312" lon="-0.18008">
        <ele>994.8</ele>
        <time>2018-09-02T06:38:08Z</time>
      </trkpt>
      <trkpt lat="42.98313" lon="-0.18011">
        <ele>995</ele>
        <time>2018-09-02T06:38:09Z</time>
      </trkpt>
      <trkpt lat="42.98314" lon="-0.18014">
        <ele>995.2</ele>
        <time>2018-09-02T06:38:10Z</time>
      </trkpt>
      <trkpt lat="42.98317" lon="-0.18024">
        <ele>996.1</ele>
        <time>2018-09-02T06:38:14Z</time>
      </trkpt>
      <trkpt lat="42.98318" lon="-0.18027">
        <ele>996.3</ele>
        <time>2018-09-02T06:38:15Z</time>
      </trkpt>
      <trkpt lat="42.9832" lon="-0.1803">
        <ele>996.6</ele>
        <time>2018-09-02T06:38:16Z</time>
      </trkpt>
      <trkpt lat="42.98321" lon="-0.18032">
        <ele>996.8</ele>
        <time>2018-09-02T06:38:17Z</time>
      </trkpt>
      <trkpt lat="42.98322" lon="-0.18035">
        <ele>997</ele>
        <time>2018-09-02T06:38:18Z</time>
      </trkpt>
      <trkpt lat="42.98324" lon="-0.18043">
        <ele>997.7</ele>
        <time>2018-09-02T06:38:21Z</time>
      </trkpt>
      <trkpt lat="42.98324" lon="-0.18046">
        <ele>997.9</ele>
        <time>2018-09-02T06:38:22Z</time>
      </trkpt>
      <trkpt lat="42.98325" lon="-0.18049">
        <ele>998.2</ele>
        <time>2018-09-02T06:38:23Z</time>
      </trkpt>
      <trkpt lat="42.98326" lon="-0.18052">
        <ele>998.5</ele>
        <time>2018-09-02T06:38:24Z</time>
      </trkpt>
      <trkpt lat="42.98327" lon="-0.18054">
        <ele>998.8</ele>
        <time>2018-09-02T06:38:25Z</time>
      </trkpt>
      <trkpt lat="42.9833" lon="-0.18062">
        <ele>999.9</ele>
        <time>2018-09-02T06:38:28Z</time>
      </trkpt>
      <trkpt lat="42.98331" lon="-0.18065">
        <ele>1000.2</ele>
        <time>2018-09-02T06:38:29Z</time>
      </trkpt>
      <trkpt lat="42.98332" lon="-0.18068">
        <ele>1000.6</ele>
        <time>2018-09-02T06:38:30Z</time>
      </trkpt>
      <trkpt lat="42.98333" lon="-0.18071">
        <ele>1001</ele>
        <time>2018-09-02T06:38:31Z</time>
      </trkpt>
      <trkpt lat="42.98334" lon="-0.18074">
        <ele>1001.4</ele>
        <time>2018-09-02T06:38:32Z</time>
      </trkpt>
      <trkpt lat="42.98337" lon="-0.18086">
        <ele>1002.4</ele>
        <time>2018-09-02T06:38:36Z</time>
      </trkpt>
      <trkpt lat="42.98337" lon="-0.18089">
        <ele>1002.7</ele>
        <time>2018-09-02T06:38:37Z</time>
      </trkpt>
      <trkpt lat="42.98338" lon="-0.18092">
        <ele>1003</ele>
        <time>2018-09-02T06:38:38Z</time>
      </trkpt>
      <trkpt lat="42.98339" lon="-0.18094">
        <ele>1003.3</ele>
        <time>2018-09-02T06:38:39Z</time>
      </trkpt>
      <trkpt lat="42.9834" lon="-0.18097">
        <ele>1003.6</ele>
        <time>2018-09-02T06:38:40Z</time>
      </trkpt>
      <trkpt lat="42.98343" lon="-0.18106">
        <ele>1004.6</ele>
        <time>2018-09-02T06:38:43Z</time>
      </trkpt>
      <trkpt lat="42.98344" lon="-0.18108">
        <ele>1004.9</ele>
        <time>2018-09-02T06:38:44Z</time>
      </trkpt>
      <trkpt lat="42.98345" lon="-0.18111">
        <ele>1005.2</ele>
        <time>2018-09-02T06:38:45Z</time>
      </trkpt>
      <trkpt lat="42.98346" lon="-0.18114">
        <ele>1005.7</ele>
        <time>2018-09-02T06:38:46Z</time>
      </trkpt>
      <trkpt lat="42.98347" lon="-0.18116">
        <ele>1006.1</ele>
        <time>2018-09-02T06:38:47Z</time>
      </trkpt>
      <trkpt lat="42.9835" lon="-0.18123">
        <ele>1007.3</ele>
        <time>2018-09-02T06:38:50Z</time>
      </trkpt>
      <trkpt lat="42.98351" lon="-0.18125">
        <ele>1007.8</ele>
        <time>2018-09-02T06:38:51Z</time>
      </trkpt>
      <trkpt lat="42.98352" lon="-0.18128">
        <ele>1008.3</ele>
        <time>2018-09-02T06:38:52Z</time>
      </trkpt>
      <trkpt lat="42.98353" lon="-0.1813">
        <ele>1008.7</ele>
        <time>2018-09-02T06:38:53Z</time>
      </trkpt>
      <trkpt lat="42.98356" lon="-0.18134">
        <ele>1009.7</ele>
        <time>2018-09-02T06:38:55Z</time>
      </trkpt>
      <trkpt lat="42.98358" lon="-0.18136">
        <ele>1010.1</ele>
        <time>2018-09-02T06:38:56Z</time>
      </trkpt>
      <trkpt lat="42.98359" lon="-0.18139">
        <ele>1010.6</ele>
        <time>2018-09-02T06:38:57Z</time>
      </trkpt>
      <trkpt lat="42.9836" lon="-0.18141">
        <ele>1011.2</ele>
        <time>2018-09-02T06:38:58Z</time>
      </trkpt>
      <trkpt lat="42.98362" lon="-0.18143">
        <ele>1011.8</ele>
        <time>2018-09-02T06:38:59Z</time>
      </trkpt>
      <trkpt lat="42.98363" lon="-0.18144">
        <ele>1012.2</ele>
        <time>2018-09-02T06:39:00Z</time>
      </trkpt>
      <trkpt lat="42.98365" lon="-0.18146">
        <ele>1012.6</ele>
        <time>2018-09-02T06:39:01Z</time>
      </trkpt>
      <trkpt lat="42.98367" lon="-0.18147">
        <ele>1013.1</ele>
        <time>2018-09-02T06:39:02Z</time>
      </trkpt>
      <trkpt lat="42.98368" lon="-0.18149">
        <ele>1013.6</ele>
        <time>2018-09-02T06:39:03Z</time>
      </trkpt>
      <trkpt lat="42.98369" lon="-0.18151">
        <ele>1014</ele>
        <time>2018-09-02T06:39:04Z</time>
      </trkpt>
      <trkpt lat="42.98371" lon="-0.18153">
        <ele>1014.5</ele>
        <time>2018-09-02T06:39:05Z</time>
      </trkpt>
      <trkpt lat="42.98375" lon="-0.18155">
        <ele>1015.4</ele>
        <time>2018-09-02T06:39:07Z</time>
      </trkpt>
      <trkpt lat="42.98377" lon="-0.18156">
        <ele>1015.8</ele>
        <time>2018-09-02T06:39:08Z</time>
      </trkpt>
      <trkpt lat="42.98379" lon="-0.18158">
        <ele>1016.3</ele>
        <time>2018-09-02T06:39:09Z</time>
      </trkpt>
      <trkpt lat="42.98381" lon="-0.18159">
        <ele>1016.8</ele>
        <time>2018-09-02T06:39:10Z</time>
      </trkpt>
      <trkpt lat="42.98382" lon="-0.18161">
        <ele>1017.3</ele>
        <time>2018-09-02T06:39:11Z</time>
      </trkpt>
      <trkpt lat="42.98384" lon="-0.18163">
        <ele>1017.7</ele>
        <time>2018-09-02T06:39:12Z</time>
      </trkpt>
      <trkpt lat="42.98386" lon="-0.18164">
        <ele>1018.2</ele>
        <time>2018-09-02T06:39:13Z</time>
      </trkpt>
      <trkpt lat="42.98389" lon="-0.18168">
        <ele>1019.1</ele>
        <time>2018-09-02T06:39:15Z</time>
      </trkpt>
      <trkpt lat="42.9839" lon="-0.1817">
        <ele>1019.7</ele>
        <time>2018-09-02T06:39:16Z</time>
      </trkpt>
      <trkpt lat="42.98392" lon="-0.18172">
        <ele>1020.3</ele>
        <time>2018-09-02T06:39:17Z</time>
      </trkpt>
      <trkpt lat="42.98394" lon="-0.18173">
        <ele>1020.8</ele>
        <time>2018-09-02T06:39:18Z</time>
      </trkpt>
      <trkpt lat="42.98397" lon="-0.18176">
        <ele>1021.7</ele>
        <time>2018-09-02T06:39:20Z</time>
      </trkpt>
      <trkpt lat="42.98399" lon="-0.18178">
        <ele>1022.2</ele>
        <time>2018-09-02T06:39:21Z</time>
      </trkpt>
      <trkpt lat="42.984" lon="-0.1818">
        <ele>1022.7</ele>
        <time>2018-09-02T06:39:22Z</time>
      </trkpt>
      <trkpt lat="42.98401" lon="-0.18181">
        <ele>1023.2</ele>
        <time>2018-09-02T06:39:23Z</time>
      </trkpt>
      <trkpt lat="42.98402" lon="-0.18183">
        <ele>1023.6</ele>
        <time>2018-09-02T06:39:24Z</time>
      </trkpt>
      <trkpt lat="42.98403" lon="-0.18185">
        <ele>1024</ele>
        <time>2018-09-02T06:39:25Z</time>
      </trkpt>
      <trkpt lat="42.98406" lon="-0.18189">
        <ele>1025</ele>
        <time>2018-09-02T06:39:27Z</time>
      </trkpt>
      <trkpt lat="42.98408" lon="-0.1819">
        <ele>1025.4</ele>
        <time>2018-09-02T06:39:28Z</time>
      </trkpt>
      <trkpt lat="42.9841" lon="-0.18192">
        <ele>1025.8</ele>
        <time>2018-09-02T06:39:29Z</time>
      </trkpt>
      <trkpt lat="42.98412" lon="-0.18193">
        <ele>1026.2</ele>
        <time>2018-09-02T06:39:30Z</time>
      </trkpt>
      <trkpt lat="42.98414" lon="-0.18194">
        <ele>1026.5</ele>
        <time>2018-09-02T06:39:31Z</time>
      </trkpt>
      <trkpt lat="42.98415" lon="-0.18195">
        <ele>1026.9</ele>
        <time>2018-09-02T06:39:32Z</time>
      </trkpt>
      <trkpt lat="42.98417" lon="-0.18197">
        <ele>1027.4</ele>
        <time>2018-09-02T06:39:33Z</time>
      </trkpt>
      <trkpt lat="42.98422" lon="-0.18199">
        <ele>1028.3</ele>
        <time>2018-09-02T06:39:35Z</time>
      </trkpt>
      <trkpt lat="42.98423" lon="-0.182">
        <ele>1028.7</ele>
        <time>2018-09-02T06:39:36Z</time>
      </trkpt>
      <trkpt lat="42.98425" lon="-0.18201">
        <ele>1029</ele>
        <time>2018-09-02T06:39:37Z</time>
      </trkpt>
      <trkpt lat="42.98427" lon="-0.18202">
        <ele>1029.5</ele>
        <time>2018-09-02T06:39:38Z</time>
      </trkpt>
      <trkpt lat="42.98429" lon="-0.18203">
        <ele>1030</ele>
        <time>2018-09-02T06:39:39Z</time>
      </trkpt>
      <trkpt lat="42.98435" lon="-0.18206">
        <ele>1031.1</ele>
        <time>2018-09-02T06:39:42Z</time>
      </trkpt>
      <trkpt lat="42.98437" lon="-0.18207">
        <ele>1031.5</ele>
        <time>2018-09-02T06:39:43Z</time>
      </trkpt>
      <trkpt lat="42.98439" lon="-0.18209">
        <ele>1031.9</ele>
        <time>2018-09-02T06:39:44Z</time>
      </trkpt>
      <trkpt lat="42.98441" lon="-0.18211">
        <ele>1032.4</ele>
        <time>2018-09-02T06:39:45Z</time>
      </trkpt>
      <trkpt lat="42.98448" lon="-0.18214">
        <ele>1033.7</ele>
        <time>2018-09-02T06:39:49Z</time>
      </trkpt>
      <trkpt lat="42.9845" lon="-0.18216">
        <ele>1034.2</ele>
        <time>2018-09-02T06:39:50Z</time>
      </trkpt>
      <trkpt lat="42.98451" lon="-0.18218">
        <ele>1034.7</ele>
        <time>2018-09-02T06:39:51Z</time>
      </trkpt>
      <trkpt lat="42.98453" lon="-0.1822">
        <ele>1035.2</ele>
        <time>2018-09-02T06:39:52Z</time>
      </trkpt>
      <trkpt lat="42.98455" lon="-0.18221">
        <ele>1035.7</ele>
        <time>2018-09-02T06:39:53Z</time>
      </trkpt>
      <trkpt lat="42.98459" lon="-0.18227">
        <ele>1037</ele>
        <time>2018-09-02T06:39:56Z</time>
      </trkpt>
      <trkpt lat="42.9846" lon="-0.18229">
        <ele>1037.3</ele>
        <time>2018-09-02T06:39:57Z</time>
      </trkpt>
      <trkpt lat="42.98461" lon="-0.18232">
        <ele>1037.6</ele>
        <time>2018-09-02T06:39:58Z</time>
      </trkpt>
      <trkpt lat="42.98462" lon="-0.18234">
        <ele>1037.9</ele>
        <time>2018-09-02T06:39:59Z</time>
      </trkpt>
      <trkpt lat="42.98463" lon="-0.18236">
        <ele>1038.1</ele>
        <time>2018-09-02T06:40:00Z</time>
      </trkpt>
      <trkpt lat="42.98465" lon="-0.18242">
        <ele>1038.8</ele>
        <time>2018-09-02T06:40:03Z</time>
      </trkpt>
      <trkpt lat="42.98466" lon="-0.18244">
        <ele>1039</ele>
        <time>2018-09-02T06:40:04Z</time>
      </trkpt>
      <trkpt lat="42.98467" lon="-0.18246">
        <ele>1039.2</ele>
        <time>2018-09-02T06:40:05Z</time>
      </trkpt>
      <trkpt lat="42.98468" lon="-0.18249">
        <ele>1039.5</ele>
        <time>2018-09-02T06:40:06Z</time>
      </trkpt>
      <trkpt lat="42.9847" lon="-0.18251">
        <ele>1039.8</ele>
        <time>2018-09-02T06:40:07Z</time>
      </trkpt>
      <trkpt lat="42.98472" lon="-0.18257">
        <ele>1040.2</ele>
        <time>2018-09-02T06:40:09Z</time>
      </trkpt>
      <trkpt lat="42.98472" lon="-0.18259">
        <ele>1040.3</ele>
        <time>2018-09-02T06:40:10Z</time>
      </trkpt>
      <trkpt lat="42.98473" lon="-0.18262">
        <ele>1040.5</ele>
        <time>2018-09-02T06:40:11Z</time>
      </trkpt>
      <trkpt lat="42.98474" lon="-0.18264">
        <ele>1040.7</ele>
        <time>2018-09-02T06:40:12Z</time>
      </trkpt>
      <trkpt lat="42.98475" lon="-0.18266">
        <ele>1040.8</ele>
        <time>2018-09-02T06:40:13Z</time>
      </trkpt>
      <trkpt lat="42.98476" lon="-0.18269">
        <ele>1040.9</ele>
        <time>2018-09-02T06:40:14Z</time>
      </trkpt>
      <trkpt lat="42.98479" lon="-0.18275">
        <ele>1041.2</ele>
        <time>2018-09-02T06:40:17Z</time>
      </trkpt>
      <trkpt lat="42.9848" lon="-0.18277">
        <ele>1041.3</ele>
        <time>2018-09-02T06:40:18Z</time>
      </trkpt>
      <trkpt lat="42.98481" lon="-0.18279">
        <ele>1041.4</ele>
        <time>2018-09-02T06:40:19Z</time>
      </trkpt>
      <trkpt lat="42.98482" lon="-0.18281">
        <ele>1041.6</ele>
        <time>2018-09-02T06:40:20Z</time>
      </trkpt>
      <trkpt lat="42.98483" lon="-0.18283">
        <ele>1041.8</ele>
        <time>2018-09-02T06:40:21Z</time>
      </trkpt>
      <trkpt lat="42.98484" lon="-0.18285">
        <ele>1041.9</ele>
        <time>2018-09-02T06:40:22Z</time>
      </trkpt>
      <trkpt lat="42.98487" lon="-0.18289">
        <ele>1042.1</ele>
        <time>2018-09-02T06:40:24Z</time>
      </trkpt>
      <trkpt lat="42.98488" lon="-0.1829">
        <ele>1042.2</ele>
        <time>2018-09-02T06:40:25Z</time>
      </trkpt>
      <trkpt lat="42.9849" lon="-0.18292">
        <ele>1042.2</ele>
        <time>2018-09-02T06:40:26Z</time>
      </trkpt>
      <trkpt lat="42.98491" lon="-0.18293">
        <ele>1042.2</ele>
        <time>2018-09-02T06:40:27Z</time>
      </trkpt>
      <trkpt lat="42.98493" lon="-0.18295">
        <ele>1042.2</ele>
        <time>2018-09-02T06:40:28Z</time>
      </trkpt>
      <trkpt lat="42.98497" lon="-0.183">
        <ele>1042.1</ele>
        <time>2018-09-02T06:40:31Z</time>
      </trkpt>
      <trkpt lat="42.98499" lon="-0.18302">
        <ele>1042.1</ele>
        <time>2018-09-02T06:40:32Z</time>
      </trkpt>
      <trkpt lat="42.98501" lon="-0.18304">
        <ele>1042.1</ele>
        <time>2018-09-02T06:40:33Z</time>
      </trkpt>
      <trkpt lat="42.98502" lon="-0.18306">
        <ele>1042.3</ele>
        <time>2018-09-02T06:40:34Z</time>
      </trkpt>
      <trkpt lat="42.98503" lon="-0.18308">
        <ele>1042.6</ele>
        <time>2018-09-02T06:40:35Z</time>
      </trkpt>
      <trkpt lat="42.98508" lon="-0.18313">
        <ele>1043.4</ele>
        <time>2018-09-02T06:40:38Z</time>
      </trkpt>
      <trkpt lat="42.98511" lon="-0.18318">
        <ele>1043.9</ele>
        <time>2018-09-02T06:40:40Z</time>
      </trkpt>
      <trkpt lat="42.98512" lon="-0.1832">
        <ele>1044.1</ele>
        <time>2018-09-02T06:40:41Z</time>
      </trkpt>
      <trkpt lat="42.98514" lon="-0.18322">
        <ele>1044.3</ele>
        <time>2018-09-02T06:40:42Z</time>
      </trkpt>
      <trkpt lat="42.98515" lon="-0.18324">
        <ele>1044.4</ele>
        <time>2018-09-02T06:40:43Z</time>
      </trkpt>
      <trkpt lat="42.98517" lon="-0.18327">
        <ele>1044.5</ele>
        <time>2018-09-02T06:40:44Z</time>
      </trkpt>
      <trkpt lat="42.98519" lon="-0.18332">
        <ele>1044.7</ele>
        <time>2018-09-02T06:40:46Z</time>
      </trkpt>
      <trkpt lat="42.98526" lon="-0.18344">
        <ele>1045.4</ele>
        <time>2018-09-02T06:40:51Z</time>
      </trkpt>
      <trkpt lat="42.98528" lon="-0.18347">
        <ele>1045.5</ele>
        <time>2018-09-02T06:40:52Z</time>
      </trkpt>
      <trkpt lat="42.98529" lon="-0.18349">
        <ele>1045.9</ele>
        <time>2018-09-02T06:40:53Z</time>
      </trkpt>
      <trkpt lat="42.98531" lon="-0.18352">
        <ele>1046.3</ele>
        <time>2018-09-02T06:40:54Z</time>
      </trkpt>
      <trkpt lat="42.98533" lon="-0.18354">
        <ele>1046.7</ele>
        <time>2018-09-02T06:40:55Z</time>
      </trkpt>
      <trkpt lat="42.98538" lon="-0.18362">
        <ele>1047.8</ele>
        <time>2018-09-02T06:40:58Z</time>
      </trkpt>
      <trkpt lat="42.98539" lon="-0.18364">
        <ele>1048.3</ele>
        <time>2018-09-02T06:40:59Z</time>
      </trkpt>
      <trkpt lat="42.98541" lon="-0.18366">
        <ele>1048.8</ele>
        <time>2018-09-02T06:41:00Z</time>
      </trkpt>
      <trkpt lat="42.98543" lon="-0.18367">
        <ele>1049.2</ele>
        <time>2018-09-02T06:41:01Z</time>
      </trkpt>
      <trkpt lat="42.98545" lon="-0.18368">
        <ele>1049.6</ele>
        <time>2018-09-02T06:41:02Z</time>
      </trkpt>
      <trkpt lat="42.98548" lon="-0.18372">
        <ele>1050.4</ele>
        <time>2018-09-02T06:41:04Z</time>
      </trkpt>
      <trkpt lat="42.98553" lon="-0.18376">
        <ele>1051.7</ele>
        <time>2018-09-02T06:41:07Z</time>
      </trkpt>
      <trkpt lat="42.98556" lon="-0.18381">
        <ele>1052.5</ele>
        <time>2018-09-02T06:41:08Z</time>
      </trkpt>
      <trkpt lat="42.98556" lon="-0.18383">
        <ele>1052.8</ele>
        <time>2018-09-02T06:41:11Z</time>
      </trkpt>
      <trkpt lat="42.98557" lon="-0.18385">
        <ele>1053.2</ele>
        <time>2018-09-02T06:41:12Z</time>
      </trkpt>
      <trkpt lat="42.9856" lon="-0.18394">
        <ele>1054.8</ele>
        <time>2018-09-02T06:41:16Z</time>
      </trkpt>
      <trkpt lat="42.98561" lon="-0.18396">
        <ele>1055.4</ele>
        <time>2018-09-02T06:41:17Z</time>
      </trkpt>
      <trkpt lat="42.98562" lon="-0.18399">
        <ele>1056</ele>
        <time>2018-09-02T06:41:18Z</time>
      </trkpt>
      <trkpt lat="42.98564" lon="-0.18401">
        <ele>1056.7</ele>
        <time>2018-09-02T06:41:19Z</time>
      </trkpt>
      <trkpt lat="42.98565" lon="-0.18404">
        <ele>1057.2</ele>
        <time>2018-09-02T06:41:20Z</time>
      </trkpt>
      <trkpt lat="42.98567" lon="-0.1841">
        <ele>1058.4</ele>
        <time>2018-09-02T06:41:22Z</time>
      </trkpt>
      <trkpt lat="42.98568" lon="-0.18412">
        <ele>1059</ele>
        <time>2018-09-02T06:41:23Z</time>
      </trkpt>
      <trkpt lat="42.98569" lon="-0.18415">
        <ele>1059.6</ele>
        <time>2018-09-02T06:41:24Z</time>
      </trkpt>
      <trkpt lat="42.9857" lon="-0.18417">
        <ele>1060.3</ele>
        <time>2018-09-02T06:41:25Z</time>
      </trkpt>
      <trkpt lat="42.98572" lon="-0.1842">
        <ele>1060.8</ele>
        <time>2018-09-02T06:41:26Z</time>
      </trkpt>
      <trkpt lat="42.98573" lon="-0.18422">
        <ele>1061.2</ele>
        <time>2018-09-02T06:41:27Z</time>
      </trkpt>
      <trkpt lat="42.98575" lon="-0.18424">
        <ele>1061.7</ele>
        <time>2018-09-02T06:41:28Z</time>
      </trkpt>
      <trkpt lat="42.98578" lon="-0.18425">
        <ele>1062.7</ele>
        <time>2018-09-02T06:41:30Z</time>
      </trkpt>
      <trkpt lat="42.9858" lon="-0.18425">
        <ele>1063.2</ele>
        <time>2018-09-02T06:41:31Z</time>
      </trkpt>
      <trkpt lat="42.98582" lon="-0.18424">
        <ele>1063.8</ele>
        <time>2018-09-02T06:41:32Z</time>
      </trkpt>
      <trkpt lat="42.98584" lon="-0.18422">
        <ele>1064.6</ele>
        <time>2018-09-02T06:41:33Z</time>
      </trkpt>
      <trkpt lat="42.98586" lon="-0.1842">
        <ele>1065.1</ele>
        <time>2018-09-02T06:41:34Z</time>
      </trkpt>
      <trkpt lat="42.98588" lon="-0.18412">
        <ele>1065.3</ele>
        <time>2018-09-02T06:41:37Z</time>
      </trkpt>
      <trkpt lat="42.98589" lon="-0.18407">
        <ele>1064.9</ele>
        <time>2018-09-02T06:41:38Z</time>
      </trkpt>
      <trkpt lat="42.9859" lon="-0.18393">
        <ele>1063.9</ele>
        <time>2018-09-02T06:41:41Z</time>
      </trkpt>
      <trkpt lat="42.9859" lon="-0.18389">
        <ele>1063.6</ele>
        <time>2018-09-02T06:41:42Z</time>
      </trkpt>
      <trkpt lat="42.9859" lon="-0.18385">
        <ele>1063.5</ele>
        <time>2018-09-02T06:41:43Z</time>
      </trkpt>
      <trkpt lat="42.9859" lon="-0.18381">
        <ele>1063.2</ele>
        <time>2018-09-02T06:41:44Z</time>
      </trkpt>
      <trkpt lat="42.9859" lon="-0.18376">
        <ele>1063.1</ele>
        <time>2018-09-02T06:41:45Z</time>
      </trkpt>
      <trkpt lat="42.9859" lon="-0.18363">
        <ele>1063</ele>
        <time>2018-09-02T06:41:48Z</time>
      </trkpt>
      <trkpt lat="42.98591" lon="-0.18359">
        <ele>1063.1</ele>
        <time>2018-09-02T06:41:49Z</time>
      </trkpt>
      <trkpt lat="42.98591" lon="-0.18355">
        <ele>1063.4</ele>
        <time>2018-09-02T06:41:50Z</time>
      </trkpt>
      <trkpt lat="42.98592" lon="-0.18351">
        <ele>1063.8</ele>
        <time>2018-09-02T06:41:51Z</time>
      </trkpt>
      <trkpt lat="42.98593" lon="-0.18348">
        <ele>1064.3</ele>
        <time>2018-09-02T06:41:52Z</time>
      </trkpt>
      <trkpt lat="42.98595" lon="-0.18331">
        <ele>1065.3</ele>
        <time>2018-09-02T06:41:56Z</time>
      </trkpt>
      <trkpt lat="42.98595" lon="-0.18327">
        <ele>1065.2</ele>
        <time>2018-09-02T06:41:57Z</time>
      </trkpt>
      <trkpt lat="42.98596" lon="-0.18322">
        <ele>1065.3</ele>
        <time>2018-09-02T06:41:58Z</time>
      </trkpt>
      <trkpt lat="42.98596" lon="-0.18319">
        <ele>1065.5</ele>
        <time>2018-09-02T06:41:59Z</time>
      </trkpt>
      <trkpt lat="42.98597" lon="-0.18315">
        <ele>1065.4</ele>
        <time>2018-09-02T06:42:00Z</time>
      </trkpt>
      <trkpt lat="42.98598" lon="-0.18301">
        <ele>1065.4</ele>
        <time>2018-09-02T06:42:03Z</time>
      </trkpt>
      <trkpt lat="42.98598" lon="-0.18279">
        <ele>1064.8</ele>
        <time>2018-09-02T06:42:08Z</time>
      </trkpt>
      <trkpt lat="42.98598" lon="-0.18274">
        <ele>1064.7</ele>
        <time>2018-09-02T06:42:09Z</time>
      </trkpt>
      <trkpt lat="42.98598" lon="-0.18268">
        <ele>1064.7</ele>
        <time>2018-09-02T06:42:10Z</time>
      </trkpt>
      <trkpt lat="42.98598" lon="-0.18263">
        <ele>1064.6</ele>
        <time>2018-09-02T06:42:11Z</time>
      </trkpt>
      <trkpt lat="42.98596" lon="-0.18236">
        <ele>1064</ele>
        <time>2018-09-02T06:42:15Z</time>
      </trkpt>
      <trkpt lat="42.98597" lon="-0.18229">
        <ele>1064</ele>
        <time>2018-09-02T06:42:16Z</time>
      </trkpt>
      <trkpt lat="42.98602" lon="-0.18208">
        <ele>1064.6</ele>
        <time>2018-09-02T06:42:19Z</time>
      </trkpt>
      <trkpt lat="42.98604" lon="-0.18203">
        <ele>1065.2</ele>
        <time>2018-09-02T06:42:20Z</time>
      </trkpt>
      <trkpt lat="42.98615" lon="-0.18179">
        <ele>1067.1</ele>
        <time>2018-09-02T06:42:26Z</time>
      </trkpt>
      <trkpt lat="42.98626" lon="-0.18156">
        <ele>1068.6</ele>
        <time>2018-09-02T06:42:33Z</time>
      </trkpt>
      <trkpt lat="42.98627" lon="-0.18153">
        <ele>1068.9</ele>
        <time>2018-09-02T06:42:34Z</time>
      </trkpt>
      <trkpt lat="42.98629" lon="-0.1815">
        <ele>1069.3</ele>
        <time>2018-09-02T06:42:35Z</time>
      </trkpt>
      <trkpt lat="42.98631" lon="-0.18147">
        <ele>1069.7</ele>
        <time>2018-09-02T06:42:36Z</time>
      </trkpt>
      <trkpt lat="42.98635" lon="-0.18137">
        <ele>1070.6</ele>
        <time>2018-09-02T06:42:39Z</time>
      </trkpt>
      <trkpt lat="42.98637" lon="-0.18131">
        <ele>1071.2</ele>
        <time>2018-09-02T06:42:41Z</time>
      </trkpt>
      <trkpt lat="42.98639" lon="-0.18128">
        <ele>1071.6</ele>
        <time>2018-09-02T06:42:42Z</time>
      </trkpt>
      <trkpt lat="42.98641" lon="-0.18125">
        <ele>1071.9</ele>
        <time>2018-09-02T06:42:43Z</time>
      </trkpt>
      <trkpt lat="42.98642" lon="-0.18122">
        <ele>1072.2</ele>
        <time>2018-09-02T06:42:44Z</time>
      </trkpt>
      <trkpt lat="42.98643" lon="-0.1812">
        <ele>1072.5</ele>
        <time>2018-09-02T06:42:45Z</time>
      </trkpt>
      <trkpt lat="42.98649" lon="-0.18107">
        <ele>1073.4</ele>
        <time>2018-09-02T06:42:49Z</time>
      </trkpt>
      <trkpt lat="42.9865" lon="-0.18104">
        <ele>1073.7</ele>
        <time>2018-09-02T06:42:50Z</time>
      </trkpt>
      <trkpt lat="42.98651" lon="-0.18101">
        <ele>1074</ele>
        <time>2018-09-02T06:42:51Z</time>
      </trkpt>
      <trkpt lat="42.98652" lon="-0.18098">
        <ele>1074.3</ele>
        <time>2018-09-02T06:42:52Z</time>
      </trkpt>
      <trkpt lat="42.98653" lon="-0.18094">
        <ele>1074.6</ele>
        <time>2018-09-02T06:42:53Z</time>
      </trkpt>
      <trkpt lat="42.98656" lon="-0.18086">
        <ele>1075.4</ele>
        <time>2018-09-02T06:42:56Z</time>
      </trkpt>
      <trkpt lat="42.98658" lon="-0.18083">
        <ele>1075.7</ele>
        <time>2018-09-02T06:42:57Z</time>
      </trkpt>
      <trkpt lat="42.9866" lon="-0.18082">
        <ele>1076.2</ele>
        <time>2018-09-02T06:42:58Z</time>
      </trkpt>
      <trkpt lat="42.98662" lon="-0.18082">
        <ele>1076.8</ele>
        <time>2018-09-02T06:42:59Z</time>
      </trkpt>
      <trkpt lat="42.98664" lon="-0.18082">
        <ele>1077.3</ele>
        <time>2018-09-02T06:43:00Z</time>
      </trkpt>
      <trkpt lat="42.98667" lon="-0.1809">
        <ele>1078</ele>
        <time>2018-09-02T06:43:03Z</time>
      </trkpt>
      <trkpt lat="42.98665" lon="-0.181">
        <ele>1077.6</ele>
        <time>2018-09-02T06:43:06Z</time>
      </trkpt>
      <trkpt lat="42.98665" lon="-0.18103">
        <ele>1077.7</ele>
        <time>2018-09-02T06:43:07Z</time>
      </trkpt>
      <trkpt lat="42.98666" lon="-0.18107">
        <ele>1077.9</ele>
        <time>2018-09-02T06:43:08Z</time>
      </trkpt>
      <trkpt lat="42.98667" lon="-0.1811">
        <ele>1078.1</ele>
        <time>2018-09-02T06:43:09Z</time>
      </trkpt>
      <trkpt lat="42.98668" lon="-0.18114">
        <ele>1078.5</ele>
        <time>2018-09-02T06:43:10Z</time>
      </trkpt>
      <trkpt lat="42.98671" lon="-0.18126">
        <ele>1080.1</ele>
        <time>2018-09-02T06:43:14Z</time>
      </trkpt>
      <trkpt lat="42.98672" lon="-0.1813">
        <ele>1080.5</ele>
        <time>2018-09-02T06:43:15Z</time>
      </trkpt>
      <trkpt lat="42.98673" lon="-0.18133">
        <ele>1080.8</ele>
        <time>2018-09-02T06:43:16Z</time>
      </trkpt>
      <trkpt lat="42.98673" lon="-0.18137">
        <ele>1081.1</ele>
        <time>2018-09-02T06:43:17Z</time>
      </trkpt>
      <trkpt lat="42.98672" lon="-0.18141">
        <ele>1081.3</ele>
        <time>2018-09-02T06:43:18Z</time>
      </trkpt>
      <trkpt lat="42.98672" lon="-0.18148">
        <ele>1081.4</ele>
        <time>2018-09-02T06:43:20Z</time>
      </trkpt>
      <trkpt lat="42.98671" lon="-0.18161">
        <ele>1081.7</ele>
        <time>2018-09-02T06:43:23Z</time>
      </trkpt>
      <trkpt lat="42.9867" lon="-0.18164">
        <ele>1081.7</ele>
        <time>2018-09-02T06:43:24Z</time>
      </trkpt>
      <trkpt lat="42.9867" lon="-0.18168">
        <ele>1081.8</ele>
        <time>2018-09-02T06:43:25Z</time>
      </trkpt>
      <trkpt lat="42.98669" lon="-0.18172">
        <ele>1082.1</ele>
        <time>2018-09-02T06:43:26Z</time>
      </trkpt>
      <trkpt lat="42.98669" lon="-0.18177">
        <ele>1082.3</ele>
        <time>2018-09-02T06:43:27Z</time>
      </trkpt>
      <trkpt lat="42.98669" lon="-0.18202">
        <ele>1083.7</ele>
        <time>2018-09-02T06:43:33Z</time>
      </trkpt>
      <trkpt lat="42.98669" lon="-0.18207">
        <ele>1083.7</ele>
        <time>2018-09-02T06:43:34Z</time>
      </trkpt>
      <trkpt lat="42.9867" lon="-0.18211">
        <ele>1083.8</ele>
        <time>2018-09-02T06:43:35Z</time>
      </trkpt>
      <trkpt lat="42.98669" lon="-0.18215">
        <ele>1083.8</ele>
        <time>2018-09-02T06:43:36Z</time>
      </trkpt>
      <trkpt lat="42.9867" lon="-0.18219">
        <ele>1083.9</ele>
        <time>2018-09-02T06:43:37Z</time>
      </trkpt>
      <trkpt lat="42.9867" lon="-0.18224">
        <ele>1084.1</ele>
        <time>2018-09-02T06:43:38Z</time>
      </trkpt>
      <trkpt lat="42.98672" lon="-0.18232">
        <ele>1084.6</ele>
        <time>2018-09-02T06:43:40Z</time>
      </trkpt>
      <trkpt lat="42.9868" lon="-0.18257">
        <ele>1087.3</ele>
        <time>2018-09-02T06:43:46Z</time>
      </trkpt>
      <trkpt lat="42.98686" lon="-0.18267">
        <ele>1089.1</ele>
        <time>2018-09-02T06:43:49Z</time>
      </trkpt>
      <trkpt lat="42.98687" lon="-0.18271">
        <ele>1089.7</ele>
        <time>2018-09-02T06:43:50Z</time>
      </trkpt>
      <trkpt lat="42.98689" lon="-0.18275">
        <ele>1090.1</ele>
        <time>2018-09-02T06:43:51Z</time>
      </trkpt>
      <trkpt lat="42.98689" lon="-0.18278">
        <ele>1090.2</ele>
        <time>2018-09-02T06:43:52Z</time>
      </trkpt>
      <trkpt lat="42.98689" lon="-0.18293">
        <ele>1089.6</ele>
        <time>2018-09-02T06:43:56Z</time>
      </trkpt>
      <trkpt lat="42.98689" lon="-0.18297">
        <ele>1089.5</ele>
        <time>2018-09-02T06:43:57Z</time>
      </trkpt>
      <trkpt lat="42.98689" lon="-0.183">
        <ele>1089.5</ele>
        <time>2018-09-02T06:43:58Z</time>
      </trkpt>
      <trkpt lat="42.9869" lon="-0.18304">
        <ele>1089.6</ele>
        <time>2018-09-02T06:43:59Z</time>
      </trkpt>
      <trkpt lat="42.98691" lon="-0.18307">
        <ele>1089.8</ele>
        <time>2018-09-02T06:44:00Z</time>
      </trkpt>
      <trkpt lat="42.98692" lon="-0.1831">
        <ele>1090.2</ele>
        <time>2018-09-02T06:44:01Z</time>
      </trkpt>
      <trkpt lat="42.98693" lon="-0.18313">
        <ele>1090.5</ele>
        <time>2018-09-02T06:44:02Z</time>
      </trkpt>
      <trkpt lat="42.98694" lon="-0.18315">
        <ele>1090.9</ele>
        <time>2018-09-02T06:44:03Z</time>
      </trkpt>
      <trkpt lat="42.98696" lon="-0.18317">
        <ele>1091.5</ele>
        <time>2018-09-02T06:44:04Z</time>
      </trkpt>
      <trkpt lat="42.98698" lon="-0.18319">
        <ele>1092.1</ele>
        <time>2018-09-02T06:44:05Z</time>
      </trkpt>
      <trkpt lat="42.987" lon="-0.1832">
        <ele>1092.8</ele>
        <time>2018-09-02T06:44:06Z</time>
      </trkpt>
      <trkpt lat="42.98701" lon="-0.18322">
        <ele>1093.5</ele>
        <time>2018-09-02T06:44:07Z</time>
      </trkpt>
      <trkpt lat="42.98706" lon="-0.18327">
        <ele>1094.9</ele>
        <time>2018-09-02T06:44:10Z</time>
      </trkpt>
      <trkpt lat="42.98708" lon="-0.18334">
        <ele>1095.4</ele>
        <time>2018-09-02T06:44:12Z</time>
      </trkpt>
      <trkpt lat="42.98708" lon="-0.18337">
        <ele>1095.7</ele>
        <time>2018-09-02T06:44:13Z</time>
      </trkpt>
      <trkpt lat="42.98708" lon="-0.18341">
        <ele>1096.1</ele>
        <time>2018-09-02T06:44:14Z</time>
      </trkpt>
      <trkpt lat="42.98707" lon="-0.18345">
        <ele>1096.1</ele>
        <time>2018-09-02T06:44:15Z</time>
      </trkpt>
      <trkpt lat="42.98706" lon="-0.18348">
        <ele>1095.9</ele>
        <time>2018-09-02T06:44:16Z</time>
      </trkpt>
      <trkpt lat="42.987" lon="-0.18356">
        <ele>1094.9</ele>
        <time>2018-09-02T06:44:19Z</time>
      </trkpt>
      <trkpt lat="42.98698" lon="-0.18358">
        <ele>1094.5</ele>
        <time>2018-09-02T06:44:20Z</time>
      </trkpt>
      <trkpt lat="42.98696" lon="-0.1836">
        <ele>1094.2</ele>
        <time>2018-09-02T06:44:21Z</time>
      </trkpt>
      <trkpt lat="42.98693" lon="-0.18362">
        <ele>1093.9</ele>
        <time>2018-09-02T06:44:22Z</time>
      </trkpt>
      <trkpt lat="42.98691" lon="-0.18366">
        <ele>1094.1</ele>
        <time>2018-09-02T06:44:23Z</time>
      </trkpt>
      <trkpt lat="42.9869" lon="-0.18369">
        <ele>1094.5</ele>
        <time>2018-09-02T06:44:24Z</time>
      </trkpt>
      <trkpt lat="42.98689" lon="-0.18373">
        <ele>1095</ele>
        <time>2018-09-02T06:44:25Z</time>
      </trkpt>
      <trkpt lat="42.98685" lon="-0.18389">
        <ele>1097.3</ele>
        <time>2018-09-02T06:44:30Z</time>
      </trkpt>
      <trkpt lat="42.98684" lon="-0.18392">
        <ele>1098</ele>
        <time>2018-09-02T06:44:31Z</time>
      </trkpt>
      <trkpt lat="42.98683" lon="-0.18395">
        <ele>1098.5</ele>
        <time>2018-09-02T06:44:32Z</time>
      </trkpt>
      <trkpt lat="42.98682" lon="-0.18398">
        <ele>1098.9</ele>
        <time>2018-09-02T06:44:33Z</time>
      </trkpt>
      <trkpt lat="42.98681" lon="-0.18401">
        <ele>1099.6</ele>
        <time>2018-09-02T06:44:34Z</time>
      </trkpt>
      <trkpt lat="42.9868" lon="-0.18405">
        <ele>1100.2</ele>
        <time>2018-09-02T06:44:35Z</time>
      </trkpt>
      <trkpt lat="42.98678" lon="-0.1841">
        <ele>1100.7</ele>
        <time>2018-09-02T06:44:37Z</time>
      </trkpt>
      <trkpt lat="42.98676" lon="-0.18415">
        <ele>1101.2</ele>
        <time>2018-09-02T06:44:39Z</time>
      </trkpt>
      <trkpt lat="42.98675" lon="-0.18418">
        <ele>1101.3</ele>
        <time>2018-09-02T06:44:40Z</time>
      </trkpt>
      <trkpt lat="42.98674" lon="-0.1842">
        <ele>1101.4</ele>
        <time>2018-09-02T06:44:41Z</time>
      </trkpt>
      <trkpt lat="42.98673" lon="-0.18423">
        <ele>1101.5</ele>
        <time>2018-09-02T06:44:42Z</time>
      </trkpt>
      <trkpt lat="42.98672" lon="-0.18425">
        <ele>1101.7</ele>
        <time>2018-09-02T06:44:43Z</time>
      </trkpt>
      <trkpt lat="42.98669" lon="-0.18438">
        <ele>1102.1</ele>
        <time>2018-09-02T06:44:47Z</time>
      </trkpt>
      <trkpt lat="42.98668" lon="-0.18441">
        <ele>1102.3</ele>
        <time>2018-09-02T06:44:48Z</time>
      </trkpt>
      <trkpt lat="42.98668" lon="-0.18444">
        <ele>1102.6</ele>
        <time>2018-09-02T06:44:49Z</time>
      </trkpt>
      <trkpt lat="42.98668" lon="-0.18446">
        <ele>1102.8</ele>
        <time>2018-09-02T06:44:50Z</time>
      </trkpt>
      <trkpt lat="42.98668" lon="-0.18449">
        <ele>1102.9</ele>
        <time>2018-09-02T06:44:51Z</time>
      </trkpt>
      <trkpt lat="42.98669" lon="-0.18452">
        <ele>1103</ele>
        <time>2018-09-02T06:44:52Z</time>
      </trkpt>
      <trkpt lat="42.9867" lon="-0.18462">
        <ele>1103.6</ele>
        <time>2018-09-02T06:44:55Z</time>
      </trkpt>
      <trkpt lat="42.98671" lon="-0.18469">
        <ele>1104.3</ele>
        <time>2018-09-02T06:44:57Z</time>
      </trkpt>
      <trkpt lat="42.98672" lon="-0.18475">
        <ele>1104.9</ele>
        <time>2018-09-02T06:44:59Z</time>
      </trkpt>
      <trkpt lat="42.98673" lon="-0.18478">
        <ele>1105.3</ele>
        <time>2018-09-02T06:45:00Z</time>
      </trkpt>
      <trkpt lat="42.98674" lon="-0.18481">
        <ele>1105.5</ele>
        <time>2018-09-02T06:45:01Z</time>
      </trkpt>
      <trkpt lat="42.98675" lon="-0.18484">
        <ele>1105.8</ele>
        <time>2018-09-02T06:45:02Z</time>
      </trkpt>
      <trkpt lat="42.98676" lon="-0.18487">
        <ele>1106.3</ele>
        <time>2018-09-02T06:45:03Z</time>
      </trkpt>
      <trkpt lat="42.98682" lon="-0.18502">
        <ele>1109.2</ele>
        <time>2018-09-02T06:45:08Z</time>
      </trkpt>
      <trkpt lat="42.98684" lon="-0.18505">
        <ele>1109.9</ele>
        <time>2018-09-02T06:45:09Z</time>
      </trkpt>
      <trkpt lat="42.98685" lon="-0.18509">
        <ele>1110.2</ele>
        <time>2018-09-02T06:45:10Z</time>
      </trkpt>
      <trkpt lat="42.98687" lon="-0.18512">
        <ele>1110.8</ele>
        <time>2018-09-02T06:45:11Z</time>
      </trkpt>
      <trkpt lat="42.98688" lon="-0.18515">
        <ele>1111.4</ele>
        <time>2018-09-02T06:45:12Z</time>
      </trkpt>
      <trkpt lat="42.9869" lon="-0.18518">
        <ele>1111.8</ele>
        <time>2018-09-02T06:45:13Z</time>
      </trkpt>
      <trkpt lat="42.98698" lon="-0.18531">
        <ele>1114.5</ele>
        <time>2018-09-02T06:45:18Z</time>
      </trkpt>
      <trkpt lat="42.987" lon="-0.18534">
        <ele>1115</ele>
        <time>2018-09-02T06:45:19Z</time>
      </trkpt>
      <trkpt lat="42.98701" lon="-0.18537">
        <ele>1115.3</ele>
        <time>2018-09-02T06:45:20Z</time>
      </trkpt>
      <trkpt lat="42.98703" lon="-0.1854">
        <ele>1115.6</ele>
        <time>2018-09-02T06:45:21Z</time>
      </trkpt>
      <trkpt lat="42.98704" lon="-0.18543">
        <ele>1116</ele>
        <time>2018-09-02T06:45:22Z</time>
      </trkpt>
      <trkpt lat="42.98707" lon="-0.18556">
        <ele>1115.5</ele>
        <time>2018-09-02T06:45:26Z</time>
      </trkpt>
      <trkpt lat="42.98707" lon="-0.1856">
        <ele>1115.2</ele>
        <time>2018-09-02T06:45:27Z</time>
      </trkpt>
      <trkpt lat="42.98705" lon="-0.18562">
        <ele>1114.6</ele>
        <time>2018-09-02T06:45:28Z</time>
      </trkpt>
      <trkpt lat="42.98704" lon="-0.18564">
        <ele>1114</ele>
        <time>2018-09-02T06:45:29Z</time>
      </trkpt>
      <trkpt lat="42.98698" lon="-0.18575">
        <ele>1111.4</ele>
        <time>2018-09-02T06:45:33Z</time>
      </trkpt>
      <trkpt lat="42.98697" lon="-0.18582">
        <ele>1110.8</ele>
        <time>2018-09-02T06:45:35Z</time>
      </trkpt>
      <trkpt lat="42.98697" lon="-0.18586">
        <ele>1110.8</ele>
        <time>2018-09-02T06:45:36Z</time>
      </trkpt>
      <trkpt lat="42.98697" lon="-0.18589">
        <ele>1111</ele>
        <time>2018-09-02T06:45:37Z</time>
      </trkpt>
      <trkpt lat="42.98698" lon="-0.18592">
        <ele>1111.5</ele>
        <time>2018-09-02T06:45:38Z</time>
      </trkpt>
      <trkpt lat="42.987" lon="-0.18596">
        <ele>1112</ele>
        <time>2018-09-02T06:45:39Z</time>
      </trkpt>
      <trkpt lat="42.98707" lon="-0.18606">
        <ele>1114</ele>
        <time>2018-09-02T06:45:43Z</time>
      </trkpt>
      <trkpt lat="42.98708" lon="-0.18608">
        <ele>1114.5</ele>
        <time>2018-09-02T06:45:44Z</time>
      </trkpt>
      <trkpt lat="42.98711" lon="-0.1861">
        <ele>1115.1</ele>
        <time>2018-09-02T06:45:45Z</time>
      </trkpt>
      <trkpt lat="42.98713" lon="-0.18613">
        <ele>1115.9</ele>
        <time>2018-09-02T06:45:46Z</time>
      </trkpt>
      <trkpt lat="42.98716" lon="-0.18615">
        <ele>1116.7</ele>
        <time>2018-09-02T06:45:47Z</time>
      </trkpt>
      <trkpt lat="42.98719" lon="-0.18622">
        <ele>1118.5</ele>
        <time>2018-09-02T06:45:49Z</time>
      </trkpt>
      <trkpt lat="42.98716" lon="-0.18636">
        <ele>1119.2</ele>
        <time>2018-09-02T06:45:52Z</time>
      </trkpt>
      <trkpt lat="42.98715" lon="-0.18639">
        <ele>1119.2</ele>
        <time>2018-09-02T06:45:53Z</time>
      </trkpt>
      <trkpt lat="42.98709" lon="-0.18648">
        <ele>1119.4</ele>
        <time>2018-09-02T06:45:56Z</time>
      </trkpt>
      <trkpt lat="42.98707" lon="-0.1865">
        <ele>1119.5</ele>
        <time>2018-09-02T06:45:57Z</time>
      </trkpt>
      <trkpt lat="42.98705" lon="-0.18653">
        <ele>1119.6</ele>
        <time>2018-09-02T06:45:58Z</time>
      </trkpt>
      <trkpt lat="42.98703" lon="-0.18656">
        <ele>1119.8</ele>
        <time>2018-09-02T06:45:59Z</time>
      </trkpt>
      <trkpt lat="42.98702" lon="-0.18659">
        <ele>1120</ele>
        <time>2018-09-02T06:46:00Z</time>
      </trkpt>
      <trkpt lat="42.98698" lon="-0.18664">
        <ele>1120.4</ele>
        <time>2018-09-02T06:46:02Z</time>
      </trkpt>
      <trkpt lat="42.98694" lon="-0.1867">
        <ele>1120.9</ele>
        <time>2018-09-02T06:46:04Z</time>
      </trkpt>
      <trkpt lat="42.98692" lon="-0.18673">
        <ele>1121.1</ele>
        <time>2018-09-02T06:46:05Z</time>
      </trkpt>
      <trkpt lat="42.9869" lon="-0.18675">
        <ele>1121.3</ele>
        <time>2018-09-02T06:46:06Z</time>
      </trkpt>
      <trkpt lat="42.98689" lon="-0.18678">
        <ele>1121.6</ele>
        <time>2018-09-02T06:46:07Z</time>
      </trkpt>
      <trkpt lat="42.98687" lon="-0.18681">
        <ele>1122</ele>
        <time>2018-09-02T06:46:08Z</time>
      </trkpt>
      <trkpt lat="42.98674" lon="-0.18696">
        <ele>1123</ele>
        <time>2018-09-02T06:46:14Z</time>
      </trkpt>
      <trkpt lat="42.98672" lon="-0.18699">
        <ele>1123</ele>
        <time>2018-09-02T06:46:15Z</time>
      </trkpt>
      <trkpt lat="42.9867" lon="-0.18702">
        <ele>1123</ele>
        <time>2018-09-02T06:46:16Z</time>
      </trkpt>
      <trkpt lat="42.98668" lon="-0.18704">
        <ele>1123</ele>
        <time>2018-09-02T06:46:17Z</time>
      </trkpt>
      <trkpt lat="42.98663" lon="-0.18711">
        <ele>1123</ele>
        <time>2018-09-02T06:46:20Z</time>
      </trkpt>
      <trkpt lat="42.98662" lon="-0.18713">
        <ele>1123.2</ele>
        <time>2018-09-02T06:46:21Z</time>
      </trkpt>
      <trkpt lat="42.9866" lon="-0.18716">
        <ele>1123.4</ele>
        <time>2018-09-02T06:46:22Z</time>
      </trkpt>
      <trkpt lat="42.98659" lon="-0.18719">
        <ele>1123.6</ele>
        <time>2018-09-02T06:46:23Z</time>
      </trkpt>
      <trkpt lat="42.98657" lon="-0.18722">
        <ele>1123.9</ele>
        <time>2018-09-02T06:46:24Z</time>
      </trkpt>
      <trkpt lat="42.98655" lon="-0.18729">
        <ele>1124.9</ele>
        <time>2018-09-02T06:46:26Z</time>
      </trkpt>
      <trkpt lat="42.98647" lon="-0.1875">
        <ele>1127</ele>
        <time>2018-09-02T06:46:32Z</time>
      </trkpt>
      <trkpt lat="42.98646" lon="-0.18753">
        <ele>1127.2</ele>
        <time>2018-09-02T06:46:33Z</time>
      </trkpt>
      <trkpt lat="42.98644" lon="-0.18757">
        <ele>1127.4</ele>
        <time>2018-09-02T06:46:34Z</time>
      </trkpt>
      <trkpt lat="42.98643" lon="-0.1876">
        <ele>1127.4</ele>
        <time>2018-09-02T06:46:35Z</time>
      </trkpt>
      <trkpt lat="42.98641" lon="-0.18763">
        <ele>1127.3</ele>
        <time>2018-09-02T06:46:36Z</time>
      </trkpt>
      <trkpt lat="42.98639" lon="-0.18769">
        <ele>1127.8</ele>
        <time>2018-09-02T06:46:38Z</time>
      </trkpt>
      <trkpt lat="42.98644" lon="-0.1878">
        <ele>1130.8</ele>
        <time>2018-09-02T06:46:42Z</time>
      </trkpt>
      <trkpt lat="42.98647" lon="-0.18779">
        <ele>1131.5</ele>
        <time>2018-09-02T06:46:43Z</time>
      </trkpt>
      <trkpt lat="42.98649" lon="-0.18778">
        <ele>1131.8</ele>
        <time>2018-09-02T06:46:44Z</time>
      </trkpt>
      <trkpt lat="42.98651" lon="-0.18776">
        <ele>1132.1</ele>
        <time>2018-09-02T06:46:45Z</time>
      </trkpt>
      <trkpt lat="42.98652" lon="-0.18772">
        <ele>1131.8</ele>
        <time>2018-09-02T06:46:46Z</time>
      </trkpt>
      <trkpt lat="42.98656" lon="-0.18763">
        <ele>1131.6</ele>
        <time>2018-09-02T06:46:49Z</time>
      </trkpt>
      <trkpt lat="42.98658" lon="-0.1876">
        <ele>1131.4</ele>
        <time>2018-09-02T06:46:50Z</time>
      </trkpt>
      <trkpt lat="42.9866" lon="-0.18757">
        <ele>1131.4</ele>
        <time>2018-09-02T06:46:51Z</time>
      </trkpt>
      <trkpt lat="42.98662" lon="-0.18754">
        <ele>1131.4</ele>
        <time>2018-09-02T06:46:52Z</time>
      </trkpt>
      <trkpt lat="42.98664" lon="-0.1875">
        <ele>1131.4</ele>
        <time>2018-09-02T06:46:53Z</time>
      </trkpt>
      <trkpt lat="42.98666" lon="-0.18747">
        <ele>1131.2</ele>
        <time>2018-09-02T06:46:54Z</time>
      </trkpt>
      <trkpt lat="42.98671" lon="-0.18739">
        <ele>1130.7</ele>
        <time>2018-09-02T06:46:57Z</time>
      </trkpt>
      <trkpt lat="42.98677" lon="-0.18728">
        <ele>1129.7</ele>
        <time>2018-09-02T06:47:01Z</time>
      </trkpt>
      <trkpt lat="42.98678" lon="-0.18724">
        <ele>1129.3</ele>
        <time>2018-09-02T06:47:02Z</time>
      </trkpt>
      <trkpt lat="42.98679" lon="-0.18721">
        <ele>1129</ele>
        <time>2018-09-02T06:47:03Z</time>
      </trkpt>
      <trkpt lat="42.98681" lon="-0.18719">
        <ele>1128.9</ele>
        <time>2018-09-02T06:47:04Z</time>
      </trkpt>
      <trkpt lat="42.98683" lon="-0.18716">
        <ele>1128.8</ele>
        <time>2018-09-02T06:47:05Z</time>
      </trkpt>
      <trkpt lat="42.98689" lon="-0.18711">
        <ele>1129.2</ele>
        <time>2018-09-02T06:47:08Z</time>
      </trkpt>
      <trkpt lat="42.98691" lon="-0.18711">
        <ele>1129.7</ele>
        <time>2018-09-02T06:47:09Z</time>
      </trkpt>
      <trkpt lat="42.98693" lon="-0.18711">
        <ele>1130.3</ele>
        <time>2018-09-02T06:47:10Z</time>
      </trkpt>
      <trkpt lat="42.98695" lon="-0.18712">
        <ele>1131</ele>
        <time>2018-09-02T06:47:11Z</time>
      </trkpt>
      <trkpt lat="42.98697" lon="-0.18715">
        <ele>1132.1</ele>
        <time>2018-09-02T06:47:12Z</time>
      </trkpt>
      <trkpt lat="42.98698" lon="-0.18718">
        <ele>1133</ele>
        <time>2018-09-02T06:47:13Z</time>
      </trkpt>
      <trkpt lat="42.98696" lon="-0.18728">
        <ele>1134.9</ele>
        <time>2018-09-02T06:47:16Z</time>
      </trkpt>
      <trkpt lat="42.98695" lon="-0.18731">
        <ele>1135.3</ele>
        <time>2018-09-02T06:47:17Z</time>
      </trkpt>
      <trkpt lat="42.98694" lon="-0.18734">
        <ele>1135.8</ele>
        <time>2018-09-02T06:47:18Z</time>
      </trkpt>
      <trkpt lat="42.98693" lon="-0.18736">
        <ele>1136.1</ele>
        <time>2018-09-02T06:47:19Z</time>
      </trkpt>
      <trkpt lat="42.98692" lon="-0.18739">
        <ele>1136.5</ele>
        <time>2018-09-02T06:47:20Z</time>
      </trkpt>
      <trkpt lat="42.98691" lon="-0.18742">
        <ele>1136.9</ele>
        <time>2018-09-02T06:47:21Z</time>
      </trkpt>
      <trkpt lat="42.9869" lon="-0.18744">
        <ele>1137.1</ele>
        <time>2018-09-02T06:47:22Z</time>
      </trkpt>
      <trkpt lat="42.98689" lon="-0.18747">
        <ele>1137.6</ele>
        <time>2018-09-02T06:47:23Z</time>
      </trkpt>
      <trkpt lat="42.98686" lon="-0.18754">
        <ele>1138.3</ele>
        <time>2018-09-02T06:47:26Z</time>
      </trkpt>
      <trkpt lat="42.98685" lon="-0.18758">
        <ele>1138.7</ele>
        <time>2018-09-02T06:47:27Z</time>
      </trkpt>
      <trkpt lat="42.98685" lon="-0.18761">
        <ele>1139.1</ele>
        <time>2018-09-02T06:47:28Z</time>
      </trkpt>
      <trkpt lat="42.98684" lon="-0.18764">
        <ele>1139.5</ele>
        <time>2018-09-02T06:47:29Z</time>
      </trkpt>
      <trkpt lat="42.98682" lon="-0.18768">
        <ele>1139.7</ele>
        <time>2018-09-02T06:47:30Z</time>
      </trkpt>
      <trkpt lat="42.98679" lon="-0.18782">
        <ele>1141.3</ele>
        <time>2018-09-02T06:47:34Z</time>
      </trkpt>
      <trkpt lat="42.98677" lon="-0.18788">
        <ele>1141.6</ele>
        <time>2018-09-02T06:47:36Z</time>
      </trkpt>
      <trkpt lat="42.98676" lon="-0.18791">
        <ele>1141.7</ele>
        <time>2018-09-02T06:47:37Z</time>
      </trkpt>
      <trkpt lat="42.98675" lon="-0.18794">
        <ele>1141.7</ele>
        <time>2018-09-02T06:47:38Z</time>
      </trkpt>
      <trkpt lat="42.98674" lon="-0.18797">
        <ele>1141.8</ele>
        <time>2018-09-02T06:47:39Z</time>
      </trkpt>
      <trkpt lat="42.98673" lon="-0.188">
        <ele>1142</ele>
        <time>2018-09-02T06:47:40Z</time>
      </trkpt>
      <trkpt lat="42.98673" lon="-0.18812">
        <ele>1143.7</ele>
        <time>2018-09-02T06:47:44Z</time>
      </trkpt>
      <trkpt lat="42.98673" lon="-0.18814">
        <ele>1144</ele>
        <time>2018-09-02T06:47:45Z</time>
      </trkpt>
      <trkpt lat="42.98673" lon="-0.18817">
        <ele>1144.3</ele>
        <time>2018-09-02T06:47:46Z</time>
      </trkpt>
      <trkpt lat="42.98672" lon="-0.1882">
        <ele>1144.7</ele>
        <time>2018-09-02T06:47:47Z</time>
      </trkpt>
      <trkpt lat="42.98672" lon="-0.18823">
        <ele>1145.1</ele>
        <time>2018-09-02T06:47:48Z</time>
      </trkpt>
      <trkpt lat="42.98672" lon="-0.1883">
        <ele>1146.1</ele>
        <time>2018-09-02T06:47:51Z</time>
      </trkpt>
      <trkpt lat="42.98672" lon="-0.18832">
        <ele>1146.3</ele>
        <time>2018-09-02T06:47:52Z</time>
      </trkpt>
      <trkpt lat="42.98672" lon="-0.18835">
        <ele>1146.7</ele>
        <time>2018-09-02T06:47:53Z</time>
      </trkpt>
      <trkpt lat="42.98672" lon="-0.18837">
        <ele>1147.1</ele>
        <time>2018-09-02T06:47:54Z</time>
      </trkpt>
      <trkpt lat="42.98672" lon="-0.1884">
        <ele>1147.7</ele>
        <time>2018-09-02T06:47:55Z</time>
      </trkpt>
      <trkpt lat="42.98672" lon="-0.18843">
        <ele>1148.2</ele>
        <time>2018-09-02T06:47:56Z</time>
      </trkpt>
      <trkpt lat="42.98671" lon="-0.18846">
        <ele>1148.4</ele>
        <time>2018-09-02T06:47:57Z</time>
      </trkpt>
      <trkpt lat="42.98669" lon="-0.18851">
        <ele>1148.9</ele>
        <time>2018-09-02T06:47:59Z</time>
      </trkpt>
      <trkpt lat="42.98669" lon="-0.18853">
        <ele>1149.1</ele>
        <time>2018-09-02T06:48:00Z</time>
      </trkpt>
      <trkpt lat="42.98668" lon="-0.18855">
        <ele>1149.3</ele>
        <time>2018-09-02T06:48:01Z</time>
      </trkpt>
      <trkpt lat="42.98667" lon="-0.18858">
        <ele>1149.6</ele>
        <time>2018-09-02T06:48:02Z</time>
      </trkpt>
      <trkpt lat="42.98667" lon="-0.18861">
        <ele>1149.9</ele>
        <time>2018-09-02T06:48:03Z</time>
      </trkpt>
      <trkpt lat="42.98666" lon="-0.18864">
        <ele>1150.2</ele>
        <time>2018-09-02T06:48:04Z</time>
      </trkpt>
      <trkpt lat="42.98664" lon="-0.18875">
        <ele>1151.7</ele>
        <time>2018-09-02T06:48:08Z</time>
      </trkpt>
      <trkpt lat="42.98664" lon="-0.18878">
        <ele>1152.1</ele>
        <time>2018-09-02T06:48:09Z</time>
      </trkpt>
      <trkpt lat="42.98664" lon="-0.1888">
        <ele>1152.5</ele>
        <time>2018-09-02T06:48:10Z</time>
      </trkpt>
      <trkpt lat="42.98665" lon="-0.18882">
        <ele>1153.1</ele>
        <time>2018-09-02T06:48:11Z</time>
      </trkpt>
      <trkpt lat="42.98665" lon="-0.18884">
        <ele>1153.6</ele>
        <time>2018-09-02T06:48:12Z</time>
      </trkpt>
      <trkpt lat="42.98664" lon="-0.1889">
        <ele>1154.2</ele>
        <time>2018-09-02T06:48:14Z</time>
      </trkpt>
      <trkpt lat="42.98663" lon="-0.18897">
        <ele>1154.6</ele>
        <time>2018-09-02T06:48:16Z</time>
      </trkpt>
      <trkpt lat="42.98663" lon="-0.18899">
        <ele>1154.9</ele>
        <time>2018-09-02T06:48:17Z</time>
      </trkpt>
      <trkpt lat="42.98663" lon="-0.18902">
        <ele>1155.2</ele>
        <time>2018-09-02T06:48:18Z</time>
      </trkpt>
      <trkpt lat="42.98663" lon="-0.18905">
        <ele>1155.5</ele>
        <time>2018-09-02T06:48:19Z</time>
      </trkpt>
      <trkpt lat="42.98663" lon="-0.18908">
        <ele>1155.8</ele>
        <time>2018-09-02T06:48:20Z</time>
      </trkpt>
      <trkpt lat="42.98662" lon="-0.18925">
        <ele>1156.6</ele>
        <time>2018-09-02T06:48:25Z</time>
      </trkpt>
      <trkpt lat="42.98662" lon="-0.18928">
        <ele>1156.7</ele>
        <time>2018-09-02T06:48:26Z</time>
      </trkpt>
      <trkpt lat="42.98662" lon="-0.18931">
        <ele>1156.9</ele>
        <time>2018-09-02T06:48:27Z</time>
      </trkpt>
      <trkpt lat="42.98662" lon="-0.18934">
        <ele>1157.1</ele>
        <time>2018-09-02T06:48:28Z</time>
      </trkpt>
      <trkpt lat="42.98661" lon="-0.18937">
        <ele>1157.3</ele>
        <time>2018-09-02T06:48:29Z</time>
      </trkpt>
      <trkpt lat="42.98661" lon="-0.18949">
        <ele>1157.7</ele>
        <time>2018-09-02T06:48:33Z</time>
      </trkpt>
      <trkpt lat="42.98661" lon="-0.18956">
        <ele>1157.8</ele>
        <time>2018-09-02T06:48:35Z</time>
      </trkpt>
      <trkpt lat="42.98661" lon="-0.1896">
        <ele>1157.8</ele>
        <time>2018-09-02T06:48:36Z</time>
      </trkpt>
      <trkpt lat="42.9866" lon="-0.18963">
        <ele>1157.8</ele>
        <time>2018-09-02T06:48:37Z</time>
      </trkpt>
      <trkpt lat="42.9866" lon="-0.18966">
        <ele>1157.8</ele>
        <time>2018-09-02T06:48:38Z</time>
      </trkpt>
      <trkpt lat="42.9866" lon="-0.18969">
        <ele>1157.8</ele>
        <time>2018-09-02T06:48:39Z</time>
      </trkpt>
      <trkpt lat="42.98661" lon="-0.18981">
        <ele>1158.7</ele>
        <time>2018-09-02T06:48:43Z</time>
      </trkpt>
      <trkpt lat="42.98662" lon="-0.18987">
        <ele>1159.3</ele>
        <time>2018-09-02T06:48:45Z</time>
      </trkpt>
      <trkpt lat="42.98662" lon="-0.18989">
        <ele>1159.5</ele>
        <time>2018-09-02T06:48:46Z</time>
      </trkpt>
      <trkpt lat="42.98663" lon="-0.18992">
        <ele>1159.7</ele>
        <time>2018-09-02T06:48:47Z</time>
      </trkpt>
      <trkpt lat="42.98663" lon="-0.18995">
        <ele>1159.9</ele>
        <time>2018-09-02T06:48:48Z</time>
      </trkpt>
      <trkpt lat="42.98665" lon="-0.1901">
        <ele>1161.3</ele>
        <time>2018-09-02T06:48:53Z</time>
      </trkpt>
      <trkpt lat="42.98665" lon="-0.19012">
        <ele>1161.6</ele>
        <time>2018-09-02T06:48:54Z</time>
      </trkpt>
      <trkpt lat="42.98667" lon="-0.19015">
        <ele>1162.6</ele>
        <time>2018-09-02T06:48:55Z</time>
      </trkpt>
      <trkpt lat="42.98669" lon="-0.19016">
        <ele>1163.4</ele>
        <time>2018-09-02T06:48:56Z</time>
      </trkpt>
      <trkpt lat="42.98671" lon="-0.19017">
        <ele>1164.2</ele>
        <time>2018-09-02T06:48:57Z</time>
      </trkpt>
      <trkpt lat="42.98674" lon="-0.19017">
        <ele>1165.2</ele>
        <time>2018-09-02T06:48:58Z</time>
      </trkpt>
      <trkpt lat="42.98679" lon="-0.19006">
        <ele>1166.8</ele>
        <time>2018-09-02T06:49:02Z</time>
      </trkpt>
      <trkpt lat="42.98679" lon="-0.19003">
        <ele>1166.7</ele>
        <time>2018-09-02T06:49:03Z</time>
      </trkpt>
      <trkpt lat="42.9868" lon="-0.18999">
        <ele>1166.6</ele>
        <time>2018-09-02T06:49:04Z</time>
      </trkpt>
      <trkpt lat="42.9868" lon="-0.18995">
        <ele>1166.4</ele>
        <time>2018-09-02T06:49:05Z</time>
      </trkpt>
      <trkpt lat="42.9868" lon="-0.18992">
        <ele>1166.5</ele>
        <time>2018-09-02T06:49:06Z</time>
      </trkpt>
      <trkpt lat="42.98683" lon="-0.18982">
        <ele>1166.7</ele>
        <time>2018-09-02T06:49:09Z</time>
      </trkpt>
      <trkpt lat="42.98685" lon="-0.18976">
        <ele>1167.1</ele>
        <time>2018-09-02T06:49:11Z</time>
      </trkpt>
      <trkpt lat="42.98687" lon="-0.18972">
        <ele>1167.4</ele>
        <time>2018-09-02T06:49:12Z</time>
      </trkpt>
      <trkpt lat="42.98688" lon="-0.1897">
        <ele>1167.7</ele>
        <time>2018-09-02T06:49:13Z</time>
      </trkpt>
      <trkpt lat="42.9869" lon="-0.18967">
        <ele>1168.1</ele>
        <time>2018-09-02T06:49:14Z</time>
      </trkpt>
      <trkpt lat="42.98691" lon="-0.18964">
        <ele>1168.4</ele>
        <time>2018-09-02T06:49:15Z</time>
      </trkpt>
      <trkpt lat="42.98698" lon="-0.18952">
        <ele>1169.1</ele>
        <time>2018-09-02T06:49:20Z</time>
      </trkpt>
      <trkpt lat="42.98699" lon="-0.18949">
        <ele>1169</ele>
        <time>2018-09-02T06:49:21Z</time>
      </trkpt>
      <trkpt lat="42.987" lon="-0.18947">
        <ele>1169</ele>
        <time>2018-09-02T06:49:22Z</time>
      </trkpt>
      <trkpt lat="42.98701" lon="-0.18945">
        <ele>1168.9</ele>
        <time>2018-09-02T06:49:23Z</time>
      </trkpt>
      <trkpt lat="42.98702" lon="-0.18942">
        <ele>1168.8</ele>
        <time>2018-09-02T06:49:24Z</time>
      </trkpt>
      <trkpt lat="42.98703" lon="-0.18939">
        <ele>1168.6</ele>
        <time>2018-09-02T06:49:25Z</time>
      </trkpt>
      <trkpt lat="42.98706" lon="-0.18934">
        <ele>1168.5</ele>
        <time>2018-09-02T06:49:27Z</time>
      </trkpt>
      <trkpt lat="42.98707" lon="-0.18932">
        <ele>1168.6</ele>
        <time>2018-09-02T06:49:28Z</time>
      </trkpt>
      <trkpt lat="42.98709" lon="-0.18932">
        <ele>1168.8</ele>
        <time>2018-09-02T06:49:29Z</time>
      </trkpt>
      <trkpt lat="42.98712" lon="-0.18933">
        <ele>1169.3</ele>
        <time>2018-09-02T06:49:30Z</time>
      </trkpt>
      <trkpt lat="42.98714" lon="-0.18935">
        <ele>1169.7</ele>
        <time>2018-09-02T06:49:31Z</time>
      </trkpt>
      <trkpt lat="42.98716" lon="-0.18939">
        <ele>1170.5</ele>
        <time>2018-09-02T06:49:33Z</time>
      </trkpt>
      <trkpt lat="42.98717" lon="-0.18942">
        <ele>1170.9</ele>
        <time>2018-09-02T06:49:34Z</time>
      </trkpt>
      <trkpt lat="42.98717" lon="-0.18945">
        <ele>1171.3</ele>
        <time>2018-09-02T06:49:35Z</time>
      </trkpt>
      <trkpt lat="42.98717" lon="-0.18949">
        <ele>1171.7</ele>
        <time>2018-09-02T06:49:36Z</time>
      </trkpt>
      <trkpt lat="42.98718" lon="-0.18952">
        <ele>1172.1</ele>
        <time>2018-09-02T06:49:37Z</time>
      </trkpt>
      <trkpt lat="42.98718" lon="-0.18955">
        <ele>1172.5</ele>
        <time>2018-09-02T06:49:38Z</time>
      </trkpt>
      <trkpt lat="42.98718" lon="-0.18959">
        <ele>1172.9</ele>
        <time>2018-09-02T06:49:39Z</time>
      </trkpt>
      <trkpt lat="42.98718" lon="-0.18963">
        <ele>1173.3</ele>
        <time>2018-09-02T06:49:40Z</time>
      </trkpt>
      <trkpt lat="42.98716" lon="-0.18986">
        <ele>1175.2</ele>
        <time>2018-09-02T06:49:46Z</time>
      </trkpt>
      <trkpt lat="42.98716" lon="-0.1899">
        <ele>1175.6</ele>
        <time>2018-09-02T06:49:47Z</time>
      </trkpt>
      <trkpt lat="42.98716" lon="-0.18994">
        <ele>1176.1</ele>
        <time>2018-09-02T06:49:48Z</time>
      </trkpt>
      <trkpt lat="42.98717" lon="-0.18997">
        <ele>1176.6</ele>
        <time>2018-09-02T06:49:49Z</time>
      </trkpt>
      <trkpt lat="42.98717" lon="-0.19001">
        <ele>1177</ele>
        <time>2018-09-02T06:49:50Z</time>
      </trkpt>
      <trkpt lat="42.98717" lon="-0.19004">
        <ele>1177.3</ele>
        <time>2018-09-02T06:49:51Z</time>
      </trkpt>
      <trkpt lat="42.98718" lon="-0.19011">
        <ele>1178.1</ele>
        <time>2018-09-02T06:49:54Z</time>
      </trkpt>
      <trkpt lat="42.98718" lon="-0.19014">
        <ele>1178.4</ele>
        <time>2018-09-02T06:49:55Z</time>
      </trkpt>
      <trkpt lat="42.98718" lon="-0.19017">
        <ele>1178.7</ele>
        <time>2018-09-02T06:49:56Z</time>
      </trkpt>
      <trkpt lat="42.98718" lon="-0.1902">
        <ele>1179</ele>
        <time>2018-09-02T06:49:57Z</time>
      </trkpt>
      <trkpt lat="42.98718" lon="-0.19023">
        <ele>1179.4</ele>
        <time>2018-09-02T06:49:58Z</time>
      </trkpt>
      <trkpt lat="42.9872" lon="-0.19031">
        <ele>1180.7</ele>
        <time>2018-09-02T06:50:01Z</time>
      </trkpt>
      <trkpt lat="42.98721" lon="-0.19033">
        <ele>1181.2</ele>
        <time>2018-09-02T06:50:02Z</time>
      </trkpt>
      <trkpt lat="42.98722" lon="-0.19035">
        <ele>1181.6</ele>
        <time>2018-09-02T06:50:03Z</time>
      </trkpt>
      <trkpt lat="42.98722" lon="-0.19038">
        <ele>1181.9</ele>
        <time>2018-09-02T06:50:04Z</time>
      </trkpt>
      <trkpt lat="42.98722" lon="-0.1904">
        <ele>1182.2</ele>
        <time>2018-09-02T06:50:05Z</time>
      </trkpt>
      <trkpt lat="42.98719" lon="-0.1905">
        <ele>1182.6</ele>
        <time>2018-09-02T06:50:09Z</time>
      </trkpt>
      <trkpt lat="42.98719" lon="-0.19052">
        <ele>1182.7</ele>
        <time>2018-09-02T06:50:10Z</time>
      </trkpt>
      <trkpt lat="42.98718" lon="-0.19055">
        <ele>1182.8</ele>
        <time>2018-09-02T06:50:11Z</time>
      </trkpt>
      <trkpt lat="42.98717" lon="-0.19059">
        <ele>1182.9</ele>
        <time>2018-09-02T06:50:12Z</time>
      </trkpt>
      <trkpt lat="42.98716" lon="-0.19062">
        <ele>1182.9</ele>
        <time>2018-09-02T06:50:13Z</time>
      </trkpt>
      <trkpt lat="42.98714" lon="-0.19067">
        <ele>1182.8</ele>
        <time>2018-09-02T06:50:15Z</time>
      </trkpt>
      <trkpt lat="42.9871" lon="-0.1908">
        <ele>1182.4</ele>
        <time>2018-09-02T06:50:19Z</time>
      </trkpt>
      <trkpt lat="42.9871" lon="-0.19083">
        <ele>1182.7</ele>
        <time>2018-09-02T06:50:20Z</time>
      </trkpt>
      <trkpt lat="42.98711" lon="-0.19087">
        <ele>1183.2</ele>
        <time>2018-09-02T06:50:21Z</time>
      </trkpt>
      <trkpt lat="42.98713" lon="-0.19089">
        <ele>1184.1</ele>
        <time>2018-09-02T06:50:22Z</time>
      </trkpt>
      <trkpt lat="42.98715" lon="-0.19091">
        <ele>1185.2</ele>
        <time>2018-09-02T06:50:23Z</time>
      </trkpt>
      <trkpt lat="42.98718" lon="-0.19091">
        <ele>1186.3</ele>
        <time>2018-09-02T06:50:24Z</time>
      </trkpt>
      <trkpt lat="42.98724" lon="-0.19086">
        <ele>1188</ele>
        <time>2018-09-02T06:50:27Z</time>
      </trkpt>
      <trkpt lat="42.98726" lon="-0.19084">
        <ele>1188.1</ele>
        <time>2018-09-02T06:50:28Z</time>
      </trkpt>
      <trkpt lat="42.98727" lon="-0.19081">
        <ele>1188.3</ele>
        <time>2018-09-02T06:50:29Z</time>
      </trkpt>
      <trkpt lat="42.98729" lon="-0.19079">
        <ele>1188.5</ele>
        <time>2018-09-02T06:50:30Z</time>
      </trkpt>
      <trkpt lat="42.98731" lon="-0.19077">
        <ele>1188.8</ele>
        <time>2018-09-02T06:50:31Z</time>
      </trkpt>
      <trkpt lat="42.98738" lon="-0.1907">
        <ele>1190.1</ele>
        <time>2018-09-02T06:50:35Z</time>
      </trkpt>
      <trkpt lat="42.9874" lon="-0.19068">
        <ele>1190.4</ele>
        <time>2018-09-02T06:50:36Z</time>
      </trkpt>
      <trkpt lat="42.98742" lon="-0.19067">
        <ele>1190.8</ele>
        <time>2018-09-02T06:50:37Z</time>
      </trkpt>
      <trkpt lat="42.98744" lon="-0.19065">
        <ele>1191.2</ele>
        <time>2018-09-02T06:50:38Z</time>
      </trkpt>
      <trkpt lat="42.98745" lon="-0.19064">
        <ele>1191.4</ele>
        <time>2018-09-02T06:50:39Z</time>
      </trkpt>
      <trkpt lat="42.98746" lon="-0.19062">
        <ele>1191.5</ele>
        <time>2018-09-02T06:50:40Z</time>
      </trkpt>
      <trkpt lat="42.98747" lon="-0.1906">
        <ele>1191.7</ele>
        <time>2018-09-02T06:50:41Z</time>
      </trkpt>
      <trkpt lat="42.9875" lon="-0.19054">
        <ele>1191.8</ele>
        <time>2018-09-02T06:50:43Z</time>
      </trkpt>
      <trkpt lat="42.98751" lon="-0.19051">
        <ele>1191.5</ele>
        <time>2018-09-02T06:50:44Z</time>
      </trkpt>
      <trkpt lat="42.98752" lon="-0.19049">
        <ele>1191.2</ele>
        <time>2018-09-02T06:50:45Z</time>
      </trkpt>
      <trkpt lat="42.98754" lon="-0.19048">
        <ele>1191.1</ele>
        <time>2018-09-02T06:50:46Z</time>
      </trkpt>
      <trkpt lat="42.98755" lon="-0.19047">
        <ele>1191.1</ele>
        <time>2018-09-02T06:50:47Z</time>
      </trkpt>
      <trkpt lat="42.98758" lon="-0.19047">
        <ele>1191.2</ele>
        <time>2018-09-02T06:50:48Z</time>
      </trkpt>
      <trkpt lat="42.98762" lon="-0.1905">
        <ele>1191.9</ele>
        <time>2018-09-02T06:50:50Z</time>
      </trkpt>
      <trkpt lat="42.98763" lon="-0.19052">
        <ele>1192.3</ele>
        <time>2018-09-02T06:50:51Z</time>
      </trkpt>
      <trkpt lat="42.98764" lon="-0.19055">
        <ele>1192.8</ele>
        <time>2018-09-02T06:50:52Z</time>
      </trkpt>
      <trkpt lat="42.98764" lon="-0.19058">
        <ele>1193.4</ele>
        <time>2018-09-02T06:50:53Z</time>
      </trkpt>
      <trkpt lat="42.98763" lon="-0.19061">
        <ele>1193.9</ele>
        <time>2018-09-02T06:50:54Z</time>
      </trkpt>
      <trkpt lat="42.98762" lon="-0.19064">
        <ele>1194.2</ele>
        <time>2018-09-02T06:50:55Z</time>
      </trkpt>
      <trkpt lat="42.98758" lon="-0.19074">
        <ele>1195.2</ele>
        <time>2018-09-02T06:50:59Z</time>
      </trkpt>
      <trkpt lat="42.98758" lon="-0.19077">
        <ele>1195.5</ele>
        <time>2018-09-02T06:51:00Z</time>
      </trkpt>
      <trkpt lat="42.98758" lon="-0.1908">
        <ele>1195.9</ele>
        <time>2018-09-02T06:51:01Z</time>
      </trkpt>
      <trkpt lat="42.98758" lon="-0.19083">
        <ele>1196.3</ele>
        <time>2018-09-02T06:51:02Z</time>
      </trkpt>
      <trkpt lat="42.98758" lon="-0.19085">
        <ele>1196.6</ele>
        <time>2018-09-02T06:51:03Z</time>
      </trkpt>
      <trkpt lat="42.98758" lon="-0.19088">
        <ele>1196.9</ele>
        <time>2018-09-02T06:51:04Z</time>
      </trkpt>
      <trkpt lat="42.98758" lon="-0.19091">
        <ele>1197.3</ele>
        <time>2018-09-02T06:51:05Z</time>
      </trkpt>
      <trkpt lat="42.9876" lon="-0.19105">
        <ele>1199.2</ele>
        <time>2018-09-02T06:51:10Z</time>
      </trkpt>
      <trkpt lat="42.9876" lon="-0.19108">
        <ele>1199.5</ele>
        <time>2018-09-02T06:51:11Z</time>
      </trkpt>
      <trkpt lat="42.9876" lon="-0.19111">
        <ele>1199.8</ele>
        <time>2018-09-02T06:51:12Z</time>
      </trkpt>
      <trkpt lat="42.9876" lon="-0.19114">
        <ele>1200.2</ele>
        <time>2018-09-02T06:51:13Z</time>
      </trkpt>
      <trkpt lat="42.98758" lon="-0.19123">
        <ele>1201.1</ele>
        <time>2018-09-02T06:51:16Z</time>
      </trkpt>
      <trkpt lat="42.98756" lon="-0.19131">
        <ele>1201.7</ele>
        <time>2018-09-02T06:51:19Z</time>
      </trkpt>
      <trkpt lat="42.98755" lon="-0.19134">
        <ele>1201.9</ele>
        <time>2018-09-02T06:51:20Z</time>
      </trkpt>
      <trkpt lat="42.98754" lon="-0.19136">
        <ele>1202.2</ele>
        <time>2018-09-02T06:51:21Z</time>
      </trkpt>
      <trkpt lat="42.98754" lon="-0.19139">
        <ele>1202.5</ele>
        <time>2018-09-02T06:51:22Z</time>
      </trkpt>
      <trkpt lat="42.98753" lon="-0.19142">
        <ele>1202.7</ele>
        <time>2018-09-02T06:51:23Z</time>
      </trkpt>
      <trkpt lat="42.98753" lon="-0.19147">
        <ele>1203.4</ele>
        <time>2018-09-02T06:51:25Z</time>
      </trkpt>
      <trkpt lat="42.98753" lon="-0.1915">
        <ele>1203.7</ele>
        <time>2018-09-02T06:51:26Z</time>
      </trkpt>
      <trkpt lat="42.98755" lon="-0.19151">
        <ele>1204.2</ele>
        <time>2018-09-02T06:51:27Z</time>
      </trkpt>
      <trkpt lat="42.98758" lon="-0.19151">
        <ele>1204.6</ele>
        <time>2018-09-02T06:51:28Z</time>
      </trkpt>
      <trkpt lat="42.98761" lon="-0.1915">
        <ele>1204.9</ele>
        <time>2018-09-02T06:51:29Z</time>
      </trkpt>
      <trkpt lat="42.98763" lon="-0.19149">
        <ele>1205.1</ele>
        <time>2018-09-02T06:51:30Z</time>
      </trkpt>
      <trkpt lat="42.98765" lon="-0.19147">
        <ele>1205.2</ele>
        <time>2018-09-02T06:51:31Z</time>
      </trkpt>
      <trkpt lat="42.98776" lon="-0.1914">
        <ele>1205.9</ele>
        <time>2018-09-02T06:51:36Z</time>
      </trkpt>
      <trkpt lat="42.98778" lon="-0.19139">
        <ele>1206.1</ele>
        <time>2018-09-02T06:51:37Z</time>
      </trkpt>
      <trkpt lat="42.98781" lon="-0.19138">
        <ele>1206.2</ele>
        <time>2018-09-02T06:51:38Z</time>
      </trkpt>
      <trkpt lat="42.98783" lon="-0.19138">
        <ele>1206.3</ele>
        <time>2018-09-02T06:51:39Z</time>
      </trkpt>
      <trkpt lat="42.98786" lon="-0.19138">
        <ele>1206.4</ele>
        <time>2018-09-02T06:51:40Z</time>
      </trkpt>
      <trkpt lat="42.98788" lon="-0.19138">
        <ele>1206.6</ele>
        <time>2018-09-02T06:51:41Z</time>
      </trkpt>
      <trkpt lat="42.98793" lon="-0.19136">
        <ele>1206.7</ele>
        <time>2018-09-02T06:51:43Z</time>
      </trkpt>
      <trkpt lat="42.98797" lon="-0.19137">
        <ele>1207.1</ele>
        <time>2018-09-02T06:51:45Z</time>
      </trkpt>
      <trkpt lat="42.988" lon="-0.19138">
        <ele>1207.4</ele>
        <time>2018-09-02T06:51:46Z</time>
      </trkpt>
      <trkpt lat="42.98801" lon="-0.19138">
        <ele>1207.5</ele>
        <time>2018-09-02T06:51:47Z</time>
      </trkpt>
      <trkpt lat="42.98803" lon="-0.19138">
        <ele>1207.7</ele>
        <time>2018-09-02T06:51:48Z</time>
      </trkpt>
      <trkpt lat="42.98805" lon="-0.19139">
        <ele>1207.9</ele>
        <time>2018-09-02T06:51:49Z</time>
      </trkpt>
      <trkpt lat="42.98814" lon="-0.19141">
        <ele>1209.7</ele>
        <time>2018-09-02T06:51:53Z</time>
      </trkpt>
      <trkpt lat="42.98816" lon="-0.19142">
        <ele>1210.2</ele>
        <time>2018-09-02T06:51:54Z</time>
      </trkpt>
      <trkpt lat="42.98818" lon="-0.19143">
        <ele>1210.7</ele>
        <time>2018-09-02T06:51:55Z</time>
      </trkpt>
      <trkpt lat="42.9882" lon="-0.19143">
        <ele>1211.2</ele>
        <time>2018-09-02T06:51:56Z</time>
      </trkpt>
      <trkpt lat="42.98823" lon="-0.19143">
        <ele>1211.6</ele>
        <time>2018-09-02T06:51:57Z</time>
      </trkpt>
      <trkpt lat="42.98827" lon="-0.19144">
        <ele>1212.3</ele>
        <time>2018-09-02T06:51:59Z</time>
      </trkpt>
      <trkpt lat="42.98829" lon="-0.19143">
        <ele>1212.4</ele>
        <time>2018-09-02T06:52:00Z</time>
      </trkpt>
      <trkpt lat="42.98831" lon="-0.19142">
        <ele>1212.4</ele>
        <time>2018-09-02T06:52:01Z</time>
      </trkpt>
      <trkpt lat="42.98833" lon="-0.1914">
        <ele>1212.3</ele>
        <time>2018-09-02T06:52:02Z</time>
      </trkpt>
      <trkpt lat="42.98835" lon="-0.19139">
        <ele>1212.3</ele>
        <time>2018-09-02T06:52:03Z</time>
      </trkpt>
      <trkpt lat="42.98837" lon="-0.19138">
        <ele>1212.2</ele>
        <time>2018-09-02T06:52:04Z</time>
      </trkpt>
      <trkpt lat="42.98842" lon="-0.19137">
        <ele>1212.2</ele>
        <time>2018-09-02T06:52:06Z</time>
      </trkpt>
      <trkpt lat="42.98849" lon="-0.19136">
        <ele>1212.8</ele>
        <time>2018-09-02T06:52:09Z</time>
      </trkpt>
      <trkpt lat="42.98852" lon="-0.19136">
        <ele>1213.1</ele>
        <time>2018-09-02T06:52:10Z</time>
      </trkpt>
      <trkpt lat="42.98854" lon="-0.19137">
        <ele>1213.5</ele>
        <time>2018-09-02T06:52:11Z</time>
      </trkpt>
      <trkpt lat="42.98857" lon="-0.19137">
        <ele>1213.9</ele>
        <time>2018-09-02T06:52:12Z</time>
      </trkpt>
      <trkpt lat="42.9886" lon="-0.19137">
        <ele>1214.2</ele>
        <time>2018-09-02T06:52:13Z</time>
      </trkpt>
      <trkpt lat="42.98869" lon="-0.19142">
        <ele>1214.7</ele>
        <time>2018-09-02T06:52:17Z</time>
      </trkpt>
      <trkpt lat="42.98872" lon="-0.19144">
        <ele>1215</ele>
        <time>2018-09-02T06:52:18Z</time>
      </trkpt>
      <trkpt lat="42.98874" lon="-0.19145">
        <ele>1215</ele>
        <time>2018-09-02T06:52:19Z</time>
      </trkpt>
      <trkpt lat="42.98876" lon="-0.19146">
        <ele>1215.1</ele>
        <time>2018-09-02T06:52:20Z</time>
      </trkpt>
      <trkpt lat="42.98879" lon="-0.19148">
        <ele>1215.4</ele>
        <time>2018-09-02T06:52:21Z</time>
      </trkpt>
      <trkpt lat="42.9888" lon="-0.1915">
        <ele>1215.8</ele>
        <time>2018-09-02T06:52:22Z</time>
      </trkpt>
      <trkpt lat="42.98884" lon="-0.19153">
        <ele>1216.3</ele>
        <time>2018-09-02T06:52:24Z</time>
      </trkpt>
      <trkpt lat="42.98886" lon="-0.19156">
        <ele>1216.7</ele>
        <time>2018-09-02T06:52:25Z</time>
      </trkpt>
      <trkpt lat="42.98888" lon="-0.19158">
        <ele>1217.2</ele>
        <time>2018-09-02T06:52:26Z</time>
      </trkpt>
      <trkpt lat="42.98889" lon="-0.1916">
        <ele>1217.8</ele>
        <time>2018-09-02T06:52:27Z</time>
      </trkpt>
      <trkpt lat="42.98891" lon="-0.19163">
        <ele>1218.4</ele>
        <time>2018-09-02T06:52:28Z</time>
      </trkpt>
      <trkpt lat="42.98896" lon="-0.1917">
        <ele>1219.9</ele>
        <time>2018-09-02T06:52:31Z</time>
      </trkpt>
      <trkpt lat="42.98898" lon="-0.19175">
        <ele>1220.9</ele>
        <time>2018-09-02T06:52:33Z</time>
      </trkpt>
      <trkpt lat="42.989" lon="-0.19178">
        <ele>1221.5</ele>
        <time>2018-09-02T06:52:34Z</time>
      </trkpt>
      <trkpt lat="42.98902" lon="-0.19181">
        <ele>1221.9</ele>
        <time>2018-09-02T06:52:35Z</time>
      </trkpt>
      <trkpt lat="42.98903" lon="-0.19184">
        <ele>1222.5</ele>
        <time>2018-09-02T06:52:36Z</time>
      </trkpt>
      <trkpt lat="42.98903" lon="-0.19187">
        <ele>1223.2</ele>
        <time>2018-09-02T06:52:37Z</time>
      </trkpt>
      <trkpt lat="42.98905" lon="-0.19192">
        <ele>1224.3</ele>
        <time>2018-09-02T06:52:39Z</time>
      </trkpt>
      <trkpt lat="42.98907" lon="-0.19198">
        <ele>1225.4</ele>
        <time>2018-09-02T06:52:41Z</time>
      </trkpt>
      <trkpt lat="42.98908" lon="-0.192">
        <ele>1225.6</ele>
        <time>2018-09-02T06:52:42Z</time>
      </trkpt>
      <trkpt lat="42.98909" lon="-0.19202">
        <ele>1225.9</ele>
        <time>2018-09-02T06:52:43Z</time>
      </trkpt>
      <trkpt lat="42.98911" lon="-0.19205">
        <ele>1226.2</ele>
        <time>2018-09-02T06:52:44Z</time>
      </trkpt>
      <trkpt lat="42.98913" lon="-0.19206">
        <ele>1226.2</ele>
        <time>2018-09-02T06:52:45Z</time>
      </trkpt>
      <trkpt lat="42.9892" lon="-0.19212">
        <ele>1227.2</ele>
        <time>2018-09-02T06:52:49Z</time>
      </trkpt>
      <trkpt lat="42.98922" lon="-0.19213">
        <ele>1227.6</ele>
        <time>2018-09-02T06:52:50Z</time>
      </trkpt>
      <trkpt lat="42.98924" lon="-0.19215">
        <ele>1228.2</ele>
        <time>2018-09-02T06:52:51Z</time>
      </trkpt>
      <trkpt lat="42.98926" lon="-0.19216">
        <ele>1228.7</ele>
        <time>2018-09-02T06:52:52Z</time>
      </trkpt>
      <trkpt lat="42.9893" lon="-0.19218">
        <ele>1229.3</ele>
        <time>2018-09-02T06:52:54Z</time>
      </trkpt>
      <trkpt lat="42.98933" lon="-0.19218">
        <ele>1229.4</ele>
        <time>2018-09-02T06:52:55Z</time>
      </trkpt>
      <trkpt lat="42.98935" lon="-0.19218">
        <ele>1229.6</ele>
        <time>2018-09-02T06:52:56Z</time>
      </trkpt>
      <trkpt lat="42.98937" lon="-0.19217">
        <ele>1229.5</ele>
        <time>2018-09-02T06:52:57Z</time>
      </trkpt>
      <trkpt lat="42.9894" lon="-0.19216">
        <ele>1229.3</ele>
        <time>2018-09-02T06:52:58Z</time>
      </trkpt>
      <trkpt lat="42.98942" lon="-0.19214">
        <ele>1229.2</ele>
        <time>2018-09-02T06:52:59Z</time>
      </trkpt>
      <trkpt lat="42.98948" lon="-0.19211">
        <ele>1229.6</ele>
        <time>2018-09-02T06:53:02Z</time>
      </trkpt>
      <trkpt lat="42.9895" lon="-0.19207">
        <ele>1229.5</ele>
        <time>2018-09-02T06:53:04Z</time>
      </trkpt>
      <trkpt lat="42.98952" lon="-0.19205">
        <ele>1229.6</ele>
        <time>2018-09-02T06:53:05Z</time>
      </trkpt>
      <trkpt lat="42.98955" lon="-0.19204">
        <ele>1230</ele>
        <time>2018-09-02T06:53:06Z</time>
      </trkpt>
      <trkpt lat="42.98958" lon="-0.19203">
        <ele>1230.6</ele>
        <time>2018-09-02T06:53:07Z</time>
      </trkpt>
      <trkpt lat="42.9896" lon="-0.19203">
        <ele>1231.1</ele>
        <time>2018-09-02T06:53:08Z</time>
      </trkpt>
      <trkpt lat="42.98972" lon="-0.19198">
        <ele>1233.3</ele>
        <time>2018-09-02T06:53:13Z</time>
      </trkpt>
      <trkpt lat="42.98974" lon="-0.19198">
        <ele>1233.8</ele>
        <time>2018-09-02T06:53:14Z</time>
      </trkpt>
      <trkpt lat="42.98976" lon="-0.19197">
        <ele>1234.2</ele>
        <time>2018-09-02T06:53:15Z</time>
      </trkpt>
      <trkpt lat="42.98978" lon="-0.19196">
        <ele>1234.5</ele>
        <time>2018-09-02T06:53:16Z</time>
      </trkpt>
      <trkpt lat="42.9898" lon="-0.19195">
        <ele>1234.6</ele>
        <time>2018-09-02T06:53:17Z</time>
      </trkpt>
      <trkpt lat="42.98984" lon="-0.1919">
        <ele>1235.2</ele>
        <time>2018-09-02T06:53:19Z</time>
      </trkpt>
      <trkpt lat="42.98985" lon="-0.19188">
        <ele>1235.3</ele>
        <time>2018-09-02T06:53:20Z</time>
      </trkpt>
      <trkpt lat="42.98987" lon="-0.19185">
        <ele>1235.5</ele>
        <time>2018-09-02T06:53:21Z</time>
      </trkpt>
      <trkpt lat="42.98989" lon="-0.19184">
        <ele>1235.8</ele>
        <time>2018-09-02T06:53:22Z</time>
      </trkpt>
      <trkpt lat="42.98991" lon="-0.19182">
        <ele>1236.3</ele>
        <time>2018-09-02T06:53:23Z</time>
      </trkpt>
      <trkpt lat="42.98993" lon="-0.1918">
        <ele>1236.5</ele>
        <time>2018-09-02T06:53:24Z</time>
      </trkpt>
      <trkpt lat="42.98998" lon="-0.1917">
        <ele>1236.8</ele>
        <time>2018-09-02T06:53:28Z</time>
      </trkpt>
      <trkpt lat="42.99" lon="-0.19167">
        <ele>1237</ele>
        <time>2018-09-02T06:53:29Z</time>
      </trkpt>
      <trkpt lat="42.99002" lon="-0.19164">
        <ele>1237</ele>
        <time>2018-09-02T06:53:30Z</time>
      </trkpt>
      <trkpt lat="42.99003" lon="-0.19162">
        <ele>1237.1</ele>
        <time>2018-09-02T06:53:31Z</time>
      </trkpt>
      <trkpt lat="42.99005" lon="-0.19161">
        <ele>1237.4</ele>
        <time>2018-09-02T06:53:32Z</time>
      </trkpt>
      <trkpt lat="42.99009" lon="-0.19158">
        <ele>1238.1</ele>
        <time>2018-09-02T06:53:34Z</time>
      </trkpt>
      <trkpt lat="42.99021" lon="-0.19146">
        <ele>1240.1</ele>
        <time>2018-09-02T06:53:40Z</time>
      </trkpt>
      <trkpt lat="42.99023" lon="-0.19144">
        <ele>1240.3</ele>
        <time>2018-09-02T06:53:41Z</time>
      </trkpt>
      <trkpt lat="42.99025" lon="-0.19142">
        <ele>1240.4</ele>
        <time>2018-09-02T06:53:42Z</time>
      </trkpt>
      <trkpt lat="42.99026" lon="-0.1914">
        <ele>1240.4</ele>
        <time>2018-09-02T06:53:43Z</time>
      </trkpt>
      <trkpt lat="42.99031" lon="-0.19135">
        <ele>1241.1</ele>
        <time>2018-09-02T06:53:46Z</time>
      </trkpt>
      <trkpt lat="42.99032" lon="-0.19133">
        <ele>1241.2</ele>
        <time>2018-09-02T06:53:47Z</time>
      </trkpt>
      <trkpt lat="42.99034" lon="-0.1913">
        <ele>1241.2</ele>
        <time>2018-09-02T06:53:48Z</time>
      </trkpt>
      <trkpt lat="42.99036" lon="-0.19128">
        <ele>1241.3</ele>
        <time>2018-09-02T06:53:49Z</time>
      </trkpt>
      <trkpt lat="42.99038" lon="-0.19126">
        <ele>1241.3</ele>
        <time>2018-09-02T06:53:50Z</time>
      </trkpt>
      <trkpt lat="42.9904" lon="-0.19124">
        <ele>1241.6</ele>
        <time>2018-09-02T06:53:51Z</time>
      </trkpt>
      <trkpt lat="42.99049" lon="-0.19115">
        <ele>1242.7</ele>
        <time>2018-09-02T06:53:56Z</time>
      </trkpt>
      <trkpt lat="42.99051" lon="-0.19114">
        <ele>1243</ele>
        <time>2018-09-02T06:53:57Z</time>
      </trkpt>
      <trkpt lat="42.99053" lon="-0.19112">
        <ele>1243.4</ele>
        <time>2018-09-02T06:53:58Z</time>
      </trkpt>
      <trkpt lat="42.99055" lon="-0.19111">
        <ele>1243.7</ele>
        <time>2018-09-02T06:53:59Z</time>
      </trkpt>
      <trkpt lat="42.99057" lon="-0.19109">
        <ele>1244</ele>
        <time>2018-09-02T06:54:00Z</time>
      </trkpt>
      <trkpt lat="42.99064" lon="-0.19104">
        <ele>1245.2</ele>
        <time>2018-09-02T06:54:04Z</time>
      </trkpt>
      <trkpt lat="42.99067" lon="-0.19103">
        <ele>1245.6</ele>
        <time>2018-09-02T06:54:05Z</time>
      </trkpt>
      <trkpt lat="42.99069" lon="-0.19102">
        <ele>1246.1</ele>
        <time>2018-09-02T06:54:06Z</time>
      </trkpt>
      <trkpt lat="42.99071" lon="-0.19102">
        <ele>1246.6</ele>
        <time>2018-09-02T06:54:07Z</time>
      </trkpt>
      <trkpt lat="42.9908" lon="-0.19099">
        <ele>1248.4</ele>
        <time>2018-09-02T06:54:11Z</time>
      </trkpt>
      <trkpt lat="42.99084" lon="-0.19097">
        <ele>1249.1</ele>
        <time>2018-09-02T06:54:13Z</time>
      </trkpt>
      <trkpt lat="42.99085" lon="-0.19096">
        <ele>1249.4</ele>
        <time>2018-09-02T06:54:14Z</time>
      </trkpt>
      <trkpt lat="42.99087" lon="-0.19094">
        <ele>1249.7</ele>
        <time>2018-09-02T06:54:15Z</time>
      </trkpt>
      <trkpt lat="42.99089" lon="-0.19092">
        <ele>1250.1</ele>
        <time>2018-09-02T06:54:16Z</time>
      </trkpt>
      <trkpt lat="42.99091" lon="-0.1909">
        <ele>1250.5</ele>
        <time>2018-09-02T06:54:17Z</time>
      </trkpt>
      <trkpt lat="42.99095" lon="-0.19085">
        <ele>1251.3</ele>
        <time>2018-09-02T06:54:20Z</time>
      </trkpt>
      <trkpt lat="42.99096" lon="-0.19082">
        <ele>1251.6</ele>
        <time>2018-09-02T06:54:21Z</time>
      </trkpt>
      <trkpt lat="42.99098" lon="-0.1908">
        <ele>1251.9</ele>
        <time>2018-09-02T06:54:22Z</time>
      </trkpt>
      <trkpt lat="42.99099" lon="-0.19078">
        <ele>1252.1</ele>
        <time>2018-09-02T06:54:23Z</time>
      </trkpt>
      <trkpt lat="42.991" lon="-0.19075">
        <ele>1252.3</ele>
        <time>2018-09-02T06:54:24Z</time>
      </trkpt>
      <trkpt lat="42.99102" lon="-0.19068">
        <ele>1252.9</ele>
        <time>2018-09-02T06:54:27Z</time>
      </trkpt>
      <trkpt lat="42.99103" lon="-0.19065">
        <ele>1253.1</ele>
        <time>2018-09-02T06:54:28Z</time>
      </trkpt>
      <trkpt lat="42.99104" lon="-0.19063">
        <ele>1253</ele>
        <time>2018-09-02T06:54:29Z</time>
      </trkpt>
      <trkpt lat="42.99105" lon="-0.1906">
        <ele>1253.3</ele>
        <time>2018-09-02T06:54:30Z</time>
      </trkpt>
      <trkpt lat="42.99105" lon="-0.19058">
        <ele>1253.5</ele>
        <time>2018-09-02T06:54:31Z</time>
      </trkpt>
      <trkpt lat="42.9911" lon="-0.19047">
        <ele>1254.8</ele>
        <time>2018-09-02T06:54:35Z</time>
      </trkpt>
      <trkpt lat="42.99111" lon="-0.19045">
        <ele>1255</ele>
        <time>2018-09-02T06:54:36Z</time>
      </trkpt>
      <trkpt lat="42.99111" lon="-0.19041">
        <ele>1255.1</ele>
        <time>2018-09-02T06:54:37Z</time>
      </trkpt>
      <trkpt lat="42.99112" lon="-0.19038">
        <ele>1254.9</ele>
        <time>2018-09-02T06:54:38Z</time>
      </trkpt>
      <trkpt lat="42.99112" lon="-0.19035">
        <ele>1254.9</ele>
        <time>2018-09-02T06:54:39Z</time>
      </trkpt>
      <trkpt lat="42.99117" lon="-0.19022">
        <ele>1255.6</ele>
        <time>2018-09-02T06:54:44Z</time>
      </trkpt>
      <trkpt lat="42.99119" lon="-0.1902">
        <ele>1256</ele>
        <time>2018-09-02T06:54:45Z</time>
      </trkpt>
      <trkpt lat="42.9912" lon="-0.19017">
        <ele>1256.3</ele>
        <time>2018-09-02T06:54:46Z</time>
      </trkpt>
      <trkpt lat="42.99122" lon="-0.19015">
        <ele>1256.5</ele>
        <time>2018-09-02T06:54:47Z</time>
      </trkpt>
      <trkpt lat="42.99124" lon="-0.19013">
        <ele>1256.7</ele>
        <time>2018-09-02T06:54:48Z</time>
      </trkpt>
      <trkpt lat="42.99126" lon="-0.19012">
        <ele>1257.1</ele>
        <time>2018-09-02T06:54:49Z</time>
      </trkpt>
      <trkpt lat="42.99133" lon="-0.19008">
        <ele>1258.5</ele>
        <time>2018-09-02T06:54:53Z</time>
      </trkpt>
      <trkpt lat="42.99135" lon="-0.19008">
        <ele>1259</ele>
        <time>2018-09-02T06:54:54Z</time>
      </trkpt>
      <trkpt lat="42.99137" lon="-0.19008">
        <ele>1259.5</ele>
        <time>2018-09-02T06:54:55Z</time>
      </trkpt>
      <trkpt lat="42.99139" lon="-0.19008">
        <ele>1260</ele>
        <time>2018-09-02T06:54:56Z</time>
      </trkpt>
      <trkpt lat="42.99147" lon="-0.19005">
        <ele>1261.8</ele>
        <time>2018-09-02T06:55:00Z</time>
      </trkpt>
      <trkpt lat="42.99149" lon="-0.19004">
        <ele>1262.2</ele>
        <time>2018-09-02T06:55:01Z</time>
      </trkpt>
      <trkpt lat="42.99151" lon="-0.19003">
        <ele>1262.6</ele>
        <time>2018-09-02T06:55:02Z</time>
      </trkpt>
      <trkpt lat="42.99153" lon="-0.19002">
        <ele>1263.1</ele>
        <time>2018-09-02T06:55:03Z</time>
      </trkpt>
      <trkpt lat="42.99155" lon="-0.19001">
        <ele>1263.5</ele>
        <time>2018-09-02T06:55:04Z</time>
      </trkpt>
      <trkpt lat="42.99162" lon="-0.18994">
        <ele>1264.8</ele>
        <time>2018-09-02T06:55:08Z</time>
      </trkpt>
      <trkpt lat="42.99164" lon="-0.18992">
        <ele>1265.1</ele>
        <time>2018-09-02T06:55:09Z</time>
      </trkpt>
      <trkpt lat="42.99165" lon="-0.18991">
        <ele>1265.4</ele>
        <time>2018-09-02T06:55:10Z</time>
      </trkpt>
      <trkpt lat="42.99167" lon="-0.18989">
        <ele>1265.7</ele>
        <time>2018-09-02T06:55:11Z</time>
      </trkpt>
      <trkpt lat="42.99168" lon="-0.18986">
        <ele>1265.8</ele>
        <time>2018-09-02T06:55:12Z</time>
      </trkpt>
      <trkpt lat="42.9917" lon="-0.18981">
        <ele>1266.2</ele>
        <time>2018-09-02T06:55:14Z</time>
      </trkpt>
      <trkpt lat="42.99172" lon="-0.18971">
        <ele>1266.2</ele>
        <time>2018-09-02T06:55:17Z</time>
      </trkpt>
      <trkpt lat="42.99172" lon="-0.18967">
        <ele>1266.5</ele>
        <time>2018-09-02T06:55:18Z</time>
      </trkpt>
      <trkpt lat="42.99171" lon="-0.18964">
        <ele>1266.8</ele>
        <time>2018-09-02T06:55:19Z</time>
      </trkpt>
      <trkpt lat="42.99171" lon="-0.18961">
        <ele>1267.1</ele>
        <time>2018-09-02T06:55:20Z</time>
      </trkpt>
      <trkpt lat="42.99171" lon="-0.18958">
        <ele>1267.3</ele>
        <time>2018-09-02T06:55:21Z</time>
      </trkpt>
      <trkpt lat="42.99168" lon="-0.18941">
        <ele>1267.9</ele>
        <time>2018-09-02T06:55:26Z</time>
      </trkpt>
      <trkpt lat="42.99168" lon="-0.18937">
        <ele>1268.2</ele>
        <time>2018-09-02T06:55:27Z</time>
      </trkpt>
      <trkpt lat="42.99167" lon="-0.18934">
        <ele>1268.2</ele>
        <time>2018-09-02T06:55:28Z</time>
      </trkpt>
      <trkpt lat="42.99166" lon="-0.1893">
        <ele>1268.4</ele>
        <time>2018-09-02T06:55:29Z</time>
      </trkpt>
      <trkpt lat="42.99165" lon="-0.18926">
        <ele>1268.4</ele>
        <time>2018-09-02T06:55:30Z</time>
      </trkpt>
      <trkpt lat="42.99165" lon="-0.18912">
        <ele>1269.4</ele>
        <time>2018-09-02T06:55:34Z</time>
      </trkpt>
      <trkpt lat="42.99165" lon="-0.18909">
        <ele>1269.9</ele>
        <time>2018-09-02T06:55:35Z</time>
      </trkpt>
      <trkpt lat="42.99166" lon="-0.18906">
        <ele>1270.4</ele>
        <time>2018-09-02T06:55:36Z</time>
      </trkpt>
      <trkpt lat="42.99166" lon="-0.18903">
        <ele>1270.7</ele>
        <time>2018-09-02T06:55:37Z</time>
      </trkpt>
      <trkpt lat="42.99166" lon="-0.189">
        <ele>1271.1</ele>
        <time>2018-09-02T06:55:38Z</time>
      </trkpt>
      <trkpt lat="42.99167" lon="-0.18897">
        <ele>1271.6</ele>
        <time>2018-09-02T06:55:39Z</time>
      </trkpt>
      <trkpt lat="42.9917" lon="-0.18885">
        <ele>1274.3</ele>
        <time>2018-09-02T06:55:43Z</time>
      </trkpt>
      <trkpt lat="42.9917" lon="-0.18882">
        <ele>1274.5</ele>
        <time>2018-09-02T06:55:44Z</time>
      </trkpt>
      <trkpt lat="42.99169" lon="-0.18879">
        <ele>1274.6</ele>
        <time>2018-09-02T06:55:45Z</time>
      </trkpt>
      <trkpt lat="42.99169" lon="-0.18877">
        <ele>1274.8</ele>
        <time>2018-09-02T06:55:46Z</time>
      </trkpt>
      <trkpt lat="42.99168" lon="-0.18868">
        <ele>1275.5</ele>
        <time>2018-09-02T06:55:49Z</time>
      </trkpt>
      <trkpt lat="42.99167" lon="-0.18865">
        <ele>1275.6</ele>
        <time>2018-09-02T06:55:50Z</time>
      </trkpt>
      <trkpt lat="42.99166" lon="-0.18862">
        <ele>1275.8</ele>
        <time>2018-09-02T06:55:51Z</time>
      </trkpt>
      <trkpt lat="42.99165" lon="-0.18859">
        <ele>1275.7</ele>
        <time>2018-09-02T06:55:52Z</time>
      </trkpt>
      <trkpt lat="42.99164" lon="-0.18856">
        <ele>1275.6</ele>
        <time>2018-09-02T06:55:53Z</time>
      </trkpt>
      <trkpt lat="42.99162" lon="-0.18838">
        <ele>1276.4</ele>
        <time>2018-09-02T06:55:59Z</time>
      </trkpt>
      <trkpt lat="42.99163" lon="-0.18835">
        <ele>1277.1</ele>
        <time>2018-09-02T06:56:00Z</time>
      </trkpt>
      <trkpt lat="42.99162" lon="-0.18832">
        <ele>1277.2</ele>
        <time>2018-09-02T06:56:01Z</time>
      </trkpt>
      <trkpt lat="42.99163" lon="-0.18828">
        <ele>1277.4</ele>
        <time>2018-09-02T06:56:02Z</time>
      </trkpt>
      <trkpt lat="42.99163" lon="-0.18825">
        <ele>1277.6</ele>
        <time>2018-09-02T06:56:03Z</time>
      </trkpt>
      <trkpt lat="42.99163" lon="-0.18819">
        <ele>1277.7</ele>
        <time>2018-09-02T06:56:05Z</time>
      </trkpt>
      <trkpt lat="42.99163" lon="-0.18809">
        <ele>1278.4</ele>
        <time>2018-09-02T06:56:08Z</time>
      </trkpt>
      <trkpt lat="42.99164" lon="-0.18806">
        <ele>1278.6</ele>
        <time>2018-09-02T06:56:09Z</time>
      </trkpt>
      <trkpt lat="42.99164" lon="-0.18803">
        <ele>1279.1</ele>
        <time>2018-09-02T06:56:10Z</time>
      </trkpt>
      <trkpt lat="42.99165" lon="-0.188">
        <ele>1279.3</ele>
        <time>2018-09-02T06:56:11Z</time>
      </trkpt>
      <trkpt lat="42.99165" lon="-0.18793">
        <ele>1279.8</ele>
        <time>2018-09-02T06:56:13Z</time>
      </trkpt>
      <trkpt lat="42.99167" lon="-0.18784">
        <ele>1280.9</ele>
        <time>2018-09-02T06:56:16Z</time>
      </trkpt>
      <trkpt lat="42.99168" lon="-0.18782">
        <ele>1281.2</ele>
        <time>2018-09-02T06:56:17Z</time>
      </trkpt>
      <trkpt lat="42.99168" lon="-0.18779">
        <ele>1281.5</ele>
        <time>2018-09-02T06:56:18Z</time>
      </trkpt>
      <trkpt lat="42.99168" lon="-0.18775">
        <ele>1281.5</ele>
        <time>2018-09-02T06:56:19Z</time>
      </trkpt>
      <trkpt lat="42.99169" lon="-0.18772">
        <ele>1281.6</ele>
        <time>2018-09-02T06:56:20Z</time>
      </trkpt>
      <trkpt lat="42.9917" lon="-0.18769">
        <ele>1281.7</ele>
        <time>2018-09-02T06:56:21Z</time>
      </trkpt>
      <trkpt lat="42.99173" lon="-0.18757">
        <ele>1282.2</ele>
        <time>2018-09-02T06:56:25Z</time>
      </trkpt>
      <trkpt lat="42.99174" lon="-0.18755">
        <ele>1282.4</ele>
        <time>2018-09-02T06:56:26Z</time>
      </trkpt>
      <trkpt lat="42.99175" lon="-0.18752">
        <ele>1282.6</ele>
        <time>2018-09-02T06:56:27Z</time>
      </trkpt>
      <trkpt lat="42.99176" lon="-0.1875">
        <ele>1282.9</ele>
        <time>2018-09-02T06:56:28Z</time>
      </trkpt>
      <trkpt lat="42.99177" lon="-0.18747">
        <ele>1283.3</ele>
        <time>2018-09-02T06:56:29Z</time>
      </trkpt>
      <trkpt lat="42.99182" lon="-0.18738">
        <ele>1285</ele>
        <time>2018-09-02T06:56:33Z</time>
      </trkpt>
      <trkpt lat="42.99183" lon="-0.18736">
        <ele>1285.1</ele>
        <time>2018-09-02T06:56:34Z</time>
      </trkpt>
      <trkpt lat="42.99184" lon="-0.18733">
        <ele>1285.5</ele>
        <time>2018-09-02T06:56:35Z</time>
      </trkpt>
      <trkpt lat="42.99185" lon="-0.18731">
        <ele>1285.9</ele>
        <time>2018-09-02T06:56:36Z</time>
      </trkpt>
      <trkpt lat="42.99187" lon="-0.18729">
        <ele>1286.3</ele>
        <time>2018-09-02T06:56:37Z</time>
      </trkpt>
      <trkpt lat="42.99188" lon="-0.18724">
        <ele>1286.5</ele>
        <time>2018-09-02T06:56:39Z</time>
      </trkpt>
      <trkpt lat="42.9919" lon="-0.1872">
        <ele>1287.1</ele>
        <time>2018-09-02T06:56:41Z</time>
      </trkpt>
      <trkpt lat="42.99192" lon="-0.18718">
        <ele>1287.5</ele>
        <time>2018-09-02T06:56:42Z</time>
      </trkpt>
      <trkpt lat="42.99193" lon="-0.18716">
        <ele>1287.8</ele>
        <time>2018-09-02T06:56:43Z</time>
      </trkpt>
      <trkpt lat="42.99195" lon="-0.18714">
        <ele>1288.2</ele>
        <time>2018-09-02T06:56:44Z</time>
      </trkpt>
      <trkpt lat="42.99196" lon="-0.18711">
        <ele>1288.5</ele>
        <time>2018-09-02T06:56:45Z</time>
      </trkpt>
      <trkpt lat="42.99203" lon="-0.18699">
        <ele>1289.4</ele>
        <time>2018-09-02T06:56:50Z</time>
      </trkpt>
      <trkpt lat="42.99204" lon="-0.18697">
        <ele>1289.6</ele>
        <time>2018-09-02T06:56:51Z</time>
      </trkpt>
      <trkpt lat="42.99205" lon="-0.18694">
        <ele>1289.8</ele>
        <time>2018-09-02T06:56:52Z</time>
      </trkpt>
      <trkpt lat="42.99207" lon="-0.18692">
        <ele>1290.2</ele>
        <time>2018-09-02T06:56:53Z</time>
      </trkpt>
      <trkpt lat="42.99208" lon="-0.18689">
        <ele>1290.4</ele>
        <time>2018-09-02T06:56:54Z</time>
      </trkpt>
      <trkpt lat="42.99211" lon="-0.18682">
        <ele>1291.2</ele>
        <time>2018-09-02T06:56:57Z</time>
      </trkpt>
      <trkpt lat="42.99214" lon="-0.18678">
        <ele>1291.9</ele>
        <time>2018-09-02T06:56:59Z</time>
      </trkpt>
      <trkpt lat="42.99216" lon="-0.18676">
        <ele>1292.3</ele>
        <time>2018-09-02T06:57:00Z</time>
      </trkpt>
      <trkpt lat="42.99218" lon="-0.18674">
        <ele>1292.9</ele>
        <time>2018-09-02T06:57:01Z</time>
      </trkpt>
      <trkpt lat="42.99219" lon="-0.18672">
        <ele>1293.1</ele>
        <time>2018-09-02T06:57:02Z</time>
      </trkpt>
      <trkpt lat="42.9922" lon="-0.18669">
        <ele>1293.2</ele>
        <time>2018-09-02T06:57:03Z</time>
      </trkpt>
      <trkpt lat="42.99224" lon="-0.18659">
        <ele>1293.9</ele>
        <time>2018-09-02T06:57:07Z</time>
      </trkpt>
      <trkpt lat="42.99226" lon="-0.18656">
        <ele>1294.1</ele>
        <time>2018-09-02T06:57:08Z</time>
      </trkpt>
      <trkpt lat="42.99227" lon="-0.18655">
        <ele>1294.3</ele>
        <time>2018-09-02T06:57:09Z</time>
      </trkpt>
      <trkpt lat="42.99228" lon="-0.18653">
        <ele>1294.7</ele>
        <time>2018-09-02T06:57:10Z</time>
      </trkpt>
      <trkpt lat="42.9923" lon="-0.18651">
        <ele>1295.1</ele>
        <time>2018-09-02T06:57:11Z</time>
      </trkpt>
      <trkpt lat="42.99237" lon="-0.18639">
        <ele>1296.5</ele>
        <time>2018-09-02T06:57:16Z</time>
      </trkpt>
      <trkpt lat="42.9924" lon="-0.18634">
        <ele>1297</ele>
        <time>2018-09-02T06:57:18Z</time>
      </trkpt>
      <trkpt lat="42.99241" lon="-0.18631">
        <ele>1297.3</ele>
        <time>2018-09-02T06:57:19Z</time>
      </trkpt>
      <trkpt lat="42.99243" lon="-0.1863">
        <ele>1297.7</ele>
        <time>2018-09-02T06:57:20Z</time>
      </trkpt>
      <trkpt lat="42.99245" lon="-0.18627">
        <ele>1298.2</ele>
        <time>2018-09-02T06:57:21Z</time>
      </trkpt>
      <trkpt lat="42.99246" lon="-0.18625">
        <ele>1298.5</ele>
        <time>2018-09-02T06:57:22Z</time>
      </trkpt>
      <trkpt lat="42.9925" lon="-0.18617">
        <ele>1299.5</ele>
        <time>2018-09-02T06:57:25Z</time>
      </trkpt>
      <trkpt lat="42.99252" lon="-0.18614">
        <ele>1299.6</ele>
        <time>2018-09-02T06:57:26Z</time>
      </trkpt>
      <trkpt lat="42.99252" lon="-0.18611">
        <ele>1299.7</ele>
        <time>2018-09-02T06:57:27Z</time>
      </trkpt>
      <trkpt lat="42.99253" lon="-0.18608">
        <ele>1299.8</ele>
        <time>2018-09-02T06:57:28Z</time>
      </trkpt>
      <trkpt lat="42.99254" lon="-0.18604">
        <ele>1299.8</ele>
        <time>2018-09-02T06:57:29Z</time>
      </trkpt>
      <trkpt lat="42.99253" lon="-0.18591">
        <ele>1299</ele>
        <time>2018-09-02T06:57:33Z</time>
      </trkpt>
      <trkpt lat="42.99253" lon="-0.18585">
        <ele>1298.8</ele>
        <time>2018-09-02T06:57:35Z</time>
      </trkpt>
      <trkpt lat="42.99254" lon="-0.18582">
        <ele>1299.1</ele>
        <time>2018-09-02T06:57:36Z</time>
      </trkpt>
      <trkpt lat="42.99256" lon="-0.18579">
        <ele>1299.4</ele>
        <time>2018-09-02T06:57:37Z</time>
      </trkpt>
      <trkpt lat="42.99258" lon="-0.18577">
        <ele>1300</ele>
        <time>2018-09-02T06:57:38Z</time>
      </trkpt>
      <trkpt lat="42.9926" lon="-0.18575">
        <ele>1300.6</ele>
        <time>2018-09-02T06:57:39Z</time>
      </trkpt>
      <trkpt lat="42.99267" lon="-0.18578">
        <ele>1302.6</ele>
        <time>2018-09-02T06:57:42Z</time>
      </trkpt>
      <trkpt lat="42.9927" lon="-0.18593">
        <ele>1304.2</ele>
        <time>2018-09-02T06:57:46Z</time>
      </trkpt>
      <trkpt lat="42.9927" lon="-0.18597">
        <ele>1304.3</ele>
        <time>2018-09-02T06:57:47Z</time>
      </trkpt>
      <trkpt lat="42.9927" lon="-0.18601">
        <ele>1304.4</ele>
        <time>2018-09-02T06:57:48Z</time>
      </trkpt>
      <trkpt lat="42.9927" lon="-0.18605">
        <ele>1304.5</ele>
        <time>2018-09-02T06:57:49Z</time>
      </trkpt>
      <trkpt lat="42.9927" lon="-0.18608">
        <ele>1304.5</ele>
        <time>2018-09-02T06:57:50Z</time>
      </trkpt>
      <trkpt lat="42.99269" lon="-0.18615">
        <ele>1304.5</ele>
        <time>2018-09-02T06:57:52Z</time>
      </trkpt>
      <trkpt lat="42.99268" lon="-0.18622">
        <ele>1304.6</ele>
        <time>2018-09-02T06:57:54Z</time>
      </trkpt>
      <trkpt lat="42.99269" lon="-0.18626">
        <ele>1304.7</ele>
        <time>2018-09-02T06:57:55Z</time>
      </trkpt>
      <trkpt lat="42.99269" lon="-0.18629">
        <ele>1304.9</ele>
        <time>2018-09-02T06:57:56Z</time>
      </trkpt>
      <trkpt lat="42.99269" lon="-0.18633">
        <ele>1305</ele>
        <time>2018-09-02T06:57:57Z</time>
      </trkpt>
      <trkpt lat="42.9927" lon="-0.18637">
        <ele>1305.2</ele>
        <time>2018-09-02T06:57:58Z</time>
      </trkpt>
      <trkpt lat="42.99275" lon="-0.18653">
        <ele>1307</ele>
        <time>2018-09-02T06:58:03Z</time>
      </trkpt>
      <trkpt lat="42.99276" lon="-0.18656">
        <ele>1307.4</ele>
        <time>2018-09-02T06:58:04Z</time>
      </trkpt>
      <trkpt lat="42.99278" lon="-0.18659">
        <ele>1307.8</ele>
        <time>2018-09-02T06:58:05Z</time>
      </trkpt>
      <trkpt lat="42.99279" lon="-0.18662">
        <ele>1308.2</ele>
        <time>2018-09-02T06:58:06Z</time>
      </trkpt>
      <trkpt lat="42.9928" lon="-0.18665">
        <ele>1308.6</ele>
        <time>2018-09-02T06:58:07Z</time>
      </trkpt>
      <trkpt lat="42.99283" lon="-0.1867">
        <ele>1309.4</ele>
        <time>2018-09-02T06:58:09Z</time>
      </trkpt>
      <trkpt lat="42.99287" lon="-0.18678">
        <ele>1310.5</ele>
        <time>2018-09-02T06:58:12Z</time>
      </trkpt>
      <trkpt lat="42.99288" lon="-0.1868">
        <ele>1310.9</ele>
        <time>2018-09-02T06:58:13Z</time>
      </trkpt>
      <trkpt lat="42.99289" lon="-0.18683">
        <ele>1311.3</ele>
        <time>2018-09-02T06:58:14Z</time>
      </trkpt>
      <trkpt lat="42.9929" lon="-0.18687">
        <ele>1311.7</ele>
        <time>2018-09-02T06:58:15Z</time>
      </trkpt>
      <trkpt lat="42.99291" lon="-0.1869">
        <ele>1312</ele>
        <time>2018-09-02T06:58:16Z</time>
      </trkpt>
      <trkpt lat="42.99291" lon="-0.18696">
        <ele>1312.5</ele>
        <time>2018-09-02T06:58:18Z</time>
      </trkpt>
      <trkpt lat="42.99292" lon="-0.187">
        <ele>1312.8</ele>
        <time>2018-09-02T06:58:19Z</time>
      </trkpt>
      <trkpt lat="42.99293" lon="-0.18703">
        <ele>1313.1</ele>
        <time>2018-09-02T06:58:20Z</time>
      </trkpt>
      <trkpt lat="42.99293" lon="-0.18706">
        <ele>1313.3</ele>
        <time>2018-09-02T06:58:21Z</time>
      </trkpt>
      <trkpt lat="42.99293" lon="-0.18709">
        <ele>1313.5</ele>
        <time>2018-09-02T06:58:22Z</time>
      </trkpt>
      <trkpt lat="42.99294" lon="-0.18722">
        <ele>1314.4</ele>
        <time>2018-09-02T06:58:26Z</time>
      </trkpt>
      <trkpt lat="42.99295" lon="-0.18724">
        <ele>1314.7</ele>
        <time>2018-09-02T06:58:27Z</time>
      </trkpt>
      <trkpt lat="42.99296" lon="-0.18727">
        <ele>1315</ele>
        <time>2018-09-02T06:58:28Z</time>
      </trkpt>
      <trkpt lat="42.99297" lon="-0.18729">
        <ele>1315.1</ele>
        <time>2018-09-02T06:58:29Z</time>
      </trkpt>
      <trkpt lat="42.99298" lon="-0.18732">
        <ele>1315.5</ele>
        <time>2018-09-02T06:58:30Z</time>
      </trkpt>
      <trkpt lat="42.99302" lon="-0.18743">
        <ele>1316.9</ele>
        <time>2018-09-02T06:58:34Z</time>
      </trkpt>
      <trkpt lat="42.99303" lon="-0.18746">
        <ele>1317.1</ele>
        <time>2018-09-02T06:58:35Z</time>
      </trkpt>
      <trkpt lat="42.99304" lon="-0.18748">
        <ele>1317.5</ele>
        <time>2018-09-02T06:58:36Z</time>
      </trkpt>
      <trkpt lat="42.99305" lon="-0.18751">
        <ele>1317.8</ele>
        <time>2018-09-02T06:58:37Z</time>
      </trkpt>
      <trkpt lat="42.99306" lon="-0.18753">
        <ele>1318.2</ele>
        <time>2018-09-02T06:58:38Z</time>
      </trkpt>
      <trkpt lat="42.99307" lon="-0.18756">
        <ele>1318.4</ele>
        <time>2018-09-02T06:58:39Z</time>
      </trkpt>
      <trkpt lat="42.99309" lon="-0.18764">
        <ele>1319.2</ele>
        <time>2018-09-02T06:58:42Z</time>
      </trkpt>
      <trkpt lat="42.9931" lon="-0.18766">
        <ele>1319.6</ele>
        <time>2018-09-02T06:58:43Z</time>
      </trkpt>
      <trkpt lat="42.99311" lon="-0.18769">
        <ele>1319.8</ele>
        <time>2018-09-02T06:58:44Z</time>
      </trkpt>
      <trkpt lat="42.99312" lon="-0.18772">
        <ele>1320</ele>
        <time>2018-09-02T06:58:45Z</time>
      </trkpt>
      <trkpt lat="42.99312" lon="-0.18775">
        <ele>1320.2</ele>
        <time>2018-09-02T06:58:46Z</time>
      </trkpt>
      <trkpt lat="42.99316" lon="-0.18785">
        <ele>1321.3</ele>
        <time>2018-09-02T06:58:50Z</time>
      </trkpt>
      <trkpt lat="42.99317" lon="-0.18788">
        <ele>1321.6</ele>
        <time>2018-09-02T06:58:51Z</time>
      </trkpt>
      <trkpt lat="42.99318" lon="-0.18791">
        <ele>1321.9</ele>
        <time>2018-09-02T06:58:52Z</time>
      </trkpt>
      <trkpt lat="42.99319" lon="-0.18793">
        <ele>1322.2</ele>
        <time>2018-09-02T06:58:53Z</time>
      </trkpt>
      <trkpt lat="42.99321" lon="-0.18796">
        <ele>1322.5</ele>
        <time>2018-09-02T06:58:54Z</time>
      </trkpt>
      <trkpt lat="42.99325" lon="-0.18807">
        <ele>1323.8</ele>
        <time>2018-09-02T06:58:58Z</time>
      </trkpt>
      <trkpt lat="42.99326" lon="-0.18812">
        <ele>1324.2</ele>
        <time>2018-09-02T06:59:00Z</time>
      </trkpt>
      <trkpt lat="42.99327" lon="-0.18815">
        <ele>1324.6</ele>
        <time>2018-09-02T06:59:01Z</time>
      </trkpt>
      <trkpt lat="42.99328" lon="-0.18817">
        <ele>1325.1</ele>
        <time>2018-09-02T06:59:02Z</time>
      </trkpt>
      <trkpt lat="42.99329" lon="-0.18819">
        <ele>1325.5</ele>
        <time>2018-09-02T06:59:03Z</time>
      </trkpt>
      <trkpt lat="42.9933" lon="-0.18822">
        <ele>1325.8</ele>
        <time>2018-09-02T06:59:04Z</time>
      </trkpt>
      <trkpt lat="42.99333" lon="-0.18834">
        <ele>1327</ele>
        <time>2018-09-02T06:59:08Z</time>
      </trkpt>
      <trkpt lat="42.99334" lon="-0.18837">
        <ele>1327.3</ele>
        <time>2018-09-02T06:59:09Z</time>
      </trkpt>
      <trkpt lat="42.99334" lon="-0.1884">
        <ele>1327.5</ele>
        <time>2018-09-02T06:59:10Z</time>
      </trkpt>
      <trkpt lat="42.99334" lon="-0.18843">
        <ele>1327.8</ele>
        <time>2018-09-02T06:59:11Z</time>
      </trkpt>
      <trkpt lat="42.99335" lon="-0.18846">
        <ele>1328</ele>
        <time>2018-09-02T06:59:12Z</time>
      </trkpt>
      <trkpt lat="42.99336" lon="-0.18859">
        <ele>1328.9</ele>
        <time>2018-09-02T06:59:16Z</time>
      </trkpt>
      <trkpt lat="42.99335" lon="-0.18862">
        <ele>1328.9</ele>
        <time>2018-09-02T06:59:17Z</time>
      </trkpt>
      <trkpt lat="42.99335" lon="-0.18865">
        <ele>1329</ele>
        <time>2018-09-02T06:59:18Z</time>
      </trkpt>
      <trkpt lat="42.99335" lon="-0.18869">
        <ele>1329.2</ele>
        <time>2018-09-02T06:59:19Z</time>
      </trkpt>
      <trkpt lat="42.99335" lon="-0.18871">
        <ele>1329.2</ele>
        <time>2018-09-02T06:59:20Z</time>
      </trkpt>
      <trkpt lat="42.99335" lon="-0.18879">
        <ele>1329.4</ele>
        <time>2018-09-02T06:59:22Z</time>
      </trkpt>
      <trkpt lat="42.99336" lon="-0.18893">
        <ele>1330.2</ele>
        <time>2018-09-02T06:59:26Z</time>
      </trkpt>
      <trkpt lat="42.99336" lon="-0.18896">
        <ele>1330.4</ele>
        <time>2018-09-02T06:59:27Z</time>
      </trkpt>
      <trkpt lat="42.99336" lon="-0.18899">
        <ele>1330.5</ele>
        <time>2018-09-02T06:59:28Z</time>
      </trkpt>
      <trkpt lat="42.99336" lon="-0.18903">
        <ele>1330.9</ele>
        <time>2018-09-02T06:59:29Z</time>
      </trkpt>
      <trkpt lat="42.99338" lon="-0.18913">
        <ele>1332.1</ele>
        <time>2018-09-02T06:59:32Z</time>
      </trkpt>
      <trkpt lat="42.99339" lon="-0.18916">
        <ele>1332.4</ele>
        <time>2018-09-02T06:59:33Z</time>
      </trkpt>
      <trkpt lat="42.99339" lon="-0.1892">
        <ele>1332.6</ele>
        <time>2018-09-02T06:59:34Z</time>
      </trkpt>
      <trkpt lat="42.9934" lon="-0.18923">
        <ele>1332.9</ele>
        <time>2018-09-02T06:59:35Z</time>
      </trkpt>
      <trkpt lat="42.9934" lon="-0.18927">
        <ele>1333.1</ele>
        <time>2018-09-02T06:59:36Z</time>
      </trkpt>
      <trkpt lat="42.99343" lon="-0.18941">
        <ele>1334.6</ele>
        <time>2018-09-02T06:59:41Z</time>
      </trkpt>
      <trkpt lat="42.99344" lon="-0.18945">
        <ele>1335</ele>
        <time>2018-09-02T06:59:42Z</time>
      </trkpt>
      <trkpt lat="42.99345" lon="-0.18948">
        <ele>1335.4</ele>
        <time>2018-09-02T06:59:43Z</time>
      </trkpt>
      <trkpt lat="42.99346" lon="-0.18952">
        <ele>1335.8</ele>
        <time>2018-09-02T06:59:44Z</time>
      </trkpt>
      <trkpt lat="42.99346" lon="-0.18954">
        <ele>1336.2</ele>
        <time>2018-09-02T06:59:45Z</time>
      </trkpt>
      <trkpt lat="42.99349" lon="-0.18962">
        <ele>1337.4</ele>
        <time>2018-09-02T06:59:48Z</time>
      </trkpt>
      <trkpt lat="42.99349" lon="-0.18965">
        <ele>1337.8</ele>
        <time>2018-09-02T06:59:49Z</time>
      </trkpt>
      <trkpt lat="42.9935" lon="-0.18967">
        <ele>1338.2</ele>
        <time>2018-09-02T06:59:50Z</time>
      </trkpt>
      <trkpt lat="42.99351" lon="-0.18969">
        <ele>1338.6</ele>
        <time>2018-09-02T06:59:51Z</time>
      </trkpt>
      <trkpt lat="42.99351" lon="-0.18972">
        <ele>1338.6</ele>
        <time>2018-09-02T06:59:52Z</time>
      </trkpt>
      <trkpt lat="42.99352" lon="-0.18984">
        <ele>1340</ele>
        <time>2018-09-02T06:59:56Z</time>
      </trkpt>
      <trkpt lat="42.99351" lon="-0.18988">
        <ele>1339.8</ele>
        <time>2018-09-02T06:59:57Z</time>
      </trkpt>
      <trkpt lat="42.9935" lon="-0.18991">
        <ele>1339.8</ele>
        <time>2018-09-02T06:59:58Z</time>
      </trkpt>
      <trkpt lat="42.99349" lon="-0.18994">
        <ele>1339.8</ele>
        <time>2018-09-02T06:59:59Z</time>
      </trkpt>
      <trkpt lat="42.99348" lon="-0.18997">
        <ele>1339.6</ele>
        <time>2018-09-02T07:00:00Z</time>
      </trkpt>
      <trkpt lat="42.99347" lon="-0.18999">
        <ele>1339.5</ele>
        <time>2018-09-02T07:00:01Z</time>
      </trkpt>
      <trkpt lat="42.99346" lon="-0.19005">
        <ele>1339.7</ele>
        <time>2018-09-02T07:00:03Z</time>
      </trkpt>
      <trkpt lat="42.99342" lon="-0.19018">
        <ele>1340.2</ele>
        <time>2018-09-02T07:00:07Z</time>
      </trkpt>
      <trkpt lat="42.99342" lon="-0.19021">
        <ele>1340.6</ele>
        <time>2018-09-02T07:00:08Z</time>
      </trkpt>
      <trkpt lat="42.99341" lon="-0.19025">
        <ele>1340.9</ele>
        <time>2018-09-02T07:00:09Z</time>
      </trkpt>
      <trkpt lat="42.99341" lon="-0.19028">
        <ele>1341.1</ele>
        <time>2018-09-02T07:00:10Z</time>
      </trkpt>
      <trkpt lat="42.9934" lon="-0.19031">
        <ele>1341.3</ele>
        <time>2018-09-02T07:00:11Z</time>
      </trkpt>
      <trkpt lat="42.9934" lon="-0.19044">
        <ele>1342.8</ele>
        <time>2018-09-02T07:00:15Z</time>
      </trkpt>
      <trkpt lat="42.99339" lon="-0.19047">
        <ele>1342.9</ele>
        <time>2018-09-02T07:00:16Z</time>
      </trkpt>
      <trkpt lat="42.99338" lon="-0.1905">
        <ele>1342.9</ele>
        <time>2018-09-02T07:00:17Z</time>
      </trkpt>
      <trkpt lat="42.99338" lon="-0.19054">
        <ele>1343.1</ele>
        <time>2018-09-02T07:00:18Z</time>
      </trkpt>
      <trkpt lat="42.99338" lon="-0.19067">
        <ele>1345.4</ele>
        <time>2018-09-02T07:00:22Z</time>
      </trkpt>
      <trkpt lat="42.99337" lon="-0.1907">
        <ele>1345.6</ele>
        <time>2018-09-02T07:00:23Z</time>
      </trkpt>
      <trkpt lat="42.99336" lon="-0.19074">
        <ele>1345.8</ele>
        <time>2018-09-02T07:00:24Z</time>
      </trkpt>
      <trkpt lat="42.99335" lon="-0.19077">
        <ele>1346</ele>
        <time>2018-09-02T07:00:25Z</time>
      </trkpt>
      <trkpt lat="42.99334" lon="-0.19081">
        <ele>1346.1</ele>
        <time>2018-09-02T07:00:26Z</time>
      </trkpt>
      <trkpt lat="42.99333" lon="-0.19084">
        <ele>1346.2</ele>
        <time>2018-09-02T07:00:27Z</time>
      </trkpt>
      <trkpt lat="42.99329" lon="-0.19092">
        <ele>1345.8</ele>
        <time>2018-09-02T07:00:30Z</time>
      </trkpt>
      <trkpt lat="42.99328" lon="-0.19096">
        <ele>1345.9</ele>
        <time>2018-09-02T07:00:31Z</time>
      </trkpt>
      <trkpt lat="42.99327" lon="-0.19099">
        <ele>1346.2</ele>
        <time>2018-09-02T07:00:32Z</time>
      </trkpt>
      <trkpt lat="42.99327" lon="-0.19102">
        <ele>1346.8</ele>
        <time>2018-09-02T07:00:33Z</time>
      </trkpt>
      <trkpt lat="42.99326" lon="-0.19105">
        <ele>1347.1</ele>
        <time>2018-09-02T07:00:34Z</time>
      </trkpt>
      <trkpt lat="42.99325" lon="-0.19109">
        <ele>1347.5</ele>
        <time>2018-09-02T07:00:35Z</time>
      </trkpt>
      <trkpt lat="42.99325" lon="-0.19112">
        <ele>1347.9</ele>
        <time>2018-09-02T07:00:36Z</time>
      </trkpt>
      <trkpt lat="42.99325" lon="-0.19129">
        <ele>1349.2</ele>
        <time>2018-09-02T07:00:41Z</time>
      </trkpt>
      <trkpt lat="42.99325" lon="-0.19132">
        <ele>1349.6</ele>
        <time>2018-09-02T07:00:42Z</time>
      </trkpt>
      <trkpt lat="42.99325" lon="-0.19135">
        <ele>1350.2</ele>
        <time>2018-09-02T07:00:43Z</time>
      </trkpt>
      <trkpt lat="42.99326" lon="-0.19138">
        <ele>1350.7</ele>
        <time>2018-09-02T07:00:44Z</time>
      </trkpt>
      <trkpt lat="42.99324" lon="-0.19152">
        <ele>1351.8</ele>
        <time>2018-09-02T07:00:48Z</time>
      </trkpt>
      <trkpt lat="42.99324" lon="-0.19159">
        <ele>1352.9</ele>
        <time>2018-09-02T07:00:50Z</time>
      </trkpt>
      <trkpt lat="42.99324" lon="-0.19163">
        <ele>1353.2</ele>
        <time>2018-09-02T07:00:51Z</time>
      </trkpt>
      <trkpt lat="42.99323" lon="-0.19167">
        <ele>1353.5</ele>
        <time>2018-09-02T07:00:52Z</time>
      </trkpt>
      <trkpt lat="42.99323" lon="-0.19171">
        <ele>1354.1</ele>
        <time>2018-09-02T07:00:53Z</time>
      </trkpt>
      <trkpt lat="42.99322" lon="-0.19174">
        <ele>1354.5</ele>
        <time>2018-09-02T07:00:54Z</time>
      </trkpt>
      <trkpt lat="42.9932" lon="-0.19191">
        <ele>1356.4</ele>
        <time>2018-09-02T07:00:59Z</time>
      </trkpt>
      <trkpt lat="42.99319" lon="-0.19195">
        <ele>1356.6</ele>
        <time>2018-09-02T07:01:00Z</time>
      </trkpt>
      <trkpt lat="42.99317" lon="-0.19198">
        <ele>1356.7</ele>
        <time>2018-09-02T07:01:01Z</time>
      </trkpt>
      <trkpt lat="42.99316" lon="-0.19201">
        <ele>1356.7</ele>
        <time>2018-09-02T07:01:02Z</time>
      </trkpt>
      <trkpt lat="42.99314" lon="-0.19203">
        <ele>1356.6</ele>
        <time>2018-09-02T07:01:03Z</time>
      </trkpt>
      <trkpt lat="42.99313" lon="-0.19206">
        <ele>1356.9</ele>
        <time>2018-09-02T07:01:04Z</time>
      </trkpt>
      <trkpt lat="42.99309" lon="-0.19214">
        <ele>1357.1</ele>
        <time>2018-09-02T07:01:07Z</time>
      </trkpt>
      <trkpt lat="42.99308" lon="-0.19217">
        <ele>1357.6</ele>
        <time>2018-09-02T07:01:08Z</time>
      </trkpt>
      <trkpt lat="42.99307" lon="-0.1922">
        <ele>1357.7</ele>
        <time>2018-09-02T07:01:09Z</time>
      </trkpt>
      <trkpt lat="42.99305" lon="-0.19223">
        <ele>1357.9</ele>
        <time>2018-09-02T07:01:10Z</time>
      </trkpt>
      <trkpt lat="42.99301" lon="-0.19237">
        <ele>1358.3</ele>
        <time>2018-09-02T07:01:14Z</time>
      </trkpt>
      <trkpt lat="42.993" lon="-0.1924">
        <ele>1358.5</ele>
        <time>2018-09-02T07:01:15Z</time>
      </trkpt>
      <trkpt lat="42.99299" lon="-0.19243">
        <ele>1358.8</ele>
        <time>2018-09-02T07:01:16Z</time>
      </trkpt>
      <trkpt lat="42.99298" lon="-0.19246">
        <ele>1359.2</ele>
        <time>2018-09-02T07:01:17Z</time>
      </trkpt>
      <trkpt lat="42.99298" lon="-0.1925">
        <ele>1359.5</ele>
        <time>2018-09-02T07:01:18Z</time>
      </trkpt>
      <trkpt lat="42.99294" lon="-0.19267">
        <ele>1360.3</ele>
        <time>2018-09-02T07:01:23Z</time>
      </trkpt>
      <trkpt lat="42.993" lon="-0.1928">
        <ele>1361.5</ele>
        <time>2018-09-02T07:01:27Z</time>
      </trkpt>
      <trkpt lat="42.99304" lon="-0.19286">
        <ele>1361.6</ele>
        <time>2018-09-02T07:01:30Z</time>
      </trkpt>
      <trkpt lat="42.99304" lon="-0.19287">
        <ele>1361.5</ele>
        <time>2018-09-02T07:01:33Z</time>
      </trkpt>
      <trkpt lat="42.99309" lon="-0.19294">
        <ele>1362.3</ele>
        <time>2018-09-02T07:01:36Z</time>
      </trkpt>
      <trkpt lat="42.99316" lon="-0.19314">
        <ele>1362.4</ele>
        <time>2018-09-02T07:01:40Z</time>
      </trkpt>
      <trkpt lat="42.99323" lon="-0.19328">
        <ele>1361.7</ele>
        <time>2018-09-02T07:01:43Z</time>
      </trkpt>
      <trkpt lat="42.9933" lon="-0.19336">
        <ele>1361.8</ele>
        <time>2018-09-02T07:01:45Z</time>
      </trkpt>
      <trkpt lat="42.99342" lon="-0.19345">
        <ele>1361.1</ele>
        <time>2018-09-02T07:01:48Z</time>
      </trkpt>
      <trkpt lat="42.99357" lon="-0.19354">
        <ele>1360.6</ele>
        <time>2018-09-02T07:01:51Z</time>
      </trkpt>
      <trkpt lat="42.99375" lon="-0.19361">
        <ele>1360.8</ele>
        <time>2018-09-02T07:01:54Z</time>
      </trkpt>
      <trkpt lat="42.9938" lon="-0.19364">
        <ele>1360.8</ele>
        <time>2018-09-02T07:01:55Z</time>
      </trkpt>
      <trkpt lat="42.99386" lon="-0.19366">
        <ele>1361</ele>
        <time>2018-09-02T07:01:56Z</time>
      </trkpt>
      <trkpt lat="42.99392" lon="-0.1937">
        <ele>1360.7</ele>
        <time>2018-09-02T07:01:57Z</time>
      </trkpt>
      <trkpt lat="42.99424" lon="-0.19387">
        <ele>1359.9</ele>
        <time>2018-09-02T07:02:02Z</time>
      </trkpt>
      <trkpt lat="42.99431" lon="-0.19392">
        <ele>1359.5</ele>
        <time>2018-09-02T07:02:03Z</time>
      </trkpt>
      <trkpt lat="42.99437" lon="-0.19396">
        <ele>1359.2</ele>
        <time>2018-09-02T07:02:04Z</time>
      </trkpt>
      <trkpt lat="42.99444" lon="-0.194">
        <ele>1359</ele>
        <time>2018-09-02T07:02:05Z</time>
      </trkpt>
      <trkpt lat="42.9945" lon="-0.19404">
        <ele>1358.4</ele>
        <time>2018-09-02T07:02:06Z</time>
      </trkpt>
      <trkpt lat="42.99457" lon="-0.19406">
        <ele>1358</ele>
        <time>2018-09-02T07:02:07Z</time>
      </trkpt>
      <trkpt lat="42.99464" lon="-0.19409">
        <ele>1357.7</ele>
        <time>2018-09-02T07:02:08Z</time>
      </trkpt>
      <trkpt lat="42.99479" lon="-0.19413">
        <ele>1356.6</ele>
        <time>2018-09-02T07:02:10Z</time>
      </trkpt>
      <trkpt lat="42.99499" lon="-0.19415">
        <ele>1355.6</ele>
        <time>2018-09-02T07:02:13Z</time>
      </trkpt>
      <trkpt lat="42.99507" lon="-0.19414">
        <ele>1355.3</ele>
        <time>2018-09-02T07:02:14Z</time>
      </trkpt>
      <trkpt lat="42.99528" lon="-0.19407">
        <ele>1355.6</ele>
        <time>2018-09-02T07:02:17Z</time>
      </trkpt>
      <trkpt lat="42.99543" lon="-0.19401">
        <ele>1355.4</ele>
        <time>2018-09-02T07:02:19Z</time>
      </trkpt>
      <trkpt lat="42.9955" lon="-0.19399">
        <ele>1355.1</ele>
        <time>2018-09-02T07:02:20Z</time>
      </trkpt>
      <trkpt lat="42.99557" lon="-0.19396">
        <ele>1355</ele>
        <time>2018-09-02T07:02:21Z</time>
      </trkpt>
      <trkpt lat="42.99564" lon="-0.19392">
        <ele>1354.5</ele>
        <time>2018-09-02T07:02:22Z</time>
      </trkpt>
      <trkpt lat="42.99579" lon="-0.19382">
        <ele>1353.6</ele>
        <time>2018-09-02T07:02:24Z</time>
      </trkpt>
      <trkpt lat="42.99585" lon="-0.19376">
        <ele>1353.7</ele>
        <time>2018-09-02T07:02:25Z</time>
      </trkpt>
      <trkpt lat="42.99592" lon="-0.1937">
        <ele>1353.7</ele>
        <time>2018-09-02T07:02:26Z</time>
      </trkpt>
      <trkpt lat="42.99598" lon="-0.19364">
        <ele>1353.6</ele>
        <time>2018-09-02T07:02:27Z</time>
      </trkpt>
      <trkpt lat="42.99605" lon="-0.19359">
        <ele>1353.6</ele>
        <time>2018-09-02T07:02:28Z</time>
      </trkpt>
      <trkpt lat="42.99639" lon="-0.19334">
        <ele>1352.6</ele>
        <time>2018-09-02T07:02:33Z</time>
      </trkpt>
      <trkpt lat="42.99646" lon="-0.1933">
        <ele>1351.8</ele>
        <time>2018-09-02T07:02:34Z</time>
      </trkpt>
      <trkpt lat="42.99653" lon="-0.19325">
        <ele>1351.2</ele>
        <time>2018-09-02T07:02:35Z</time>
      </trkpt>
      <trkpt lat="42.9966" lon="-0.1932">
        <ele>1350.7</ele>
        <time>2018-09-02T07:02:36Z</time>
      </trkpt>
      <trkpt lat="42.99668" lon="-0.19315">
        <ele>1350.1</ele>
        <time>2018-09-02T07:02:37Z</time>
      </trkpt>
      <trkpt lat="42.99675" lon="-0.1931">
        <ele>1349.2</ele>
        <time>2018-09-02T07:02:38Z</time>
      </trkpt>
      <trkpt lat="42.99683" lon="-0.19305">
        <ele>1348.2</ele>
        <time>2018-09-02T07:02:39Z</time>
      </trkpt>
      <trkpt lat="42.99691" lon="-0.193">
        <ele>1347.6</ele>
        <time>2018-09-02T07:02:40Z</time>
      </trkpt>
      <trkpt lat="42.99699" lon="-0.19295">
        <ele>1347.2</ele>
        <time>2018-09-02T07:02:41Z</time>
      </trkpt>
      <trkpt lat="42.99707" lon="-0.1929">
        <ele>1346.8</ele>
        <time>2018-09-02T07:02:42Z</time>
      </trkpt>
      <trkpt lat="42.99716" lon="-0.19285">
        <ele>1346.5</ele>
        <time>2018-09-02T07:02:43Z</time>
      </trkpt>
      <trkpt lat="42.99723" lon="-0.19279">
        <ele>1346.3</ele>
        <time>2018-09-02T07:02:44Z</time>
      </trkpt>
      <trkpt lat="42.99731" lon="-0.19273">
        <ele>1346.7</ele>
        <time>2018-09-02T07:02:45Z</time>
      </trkpt>
      <trkpt lat="42.99739" lon="-0.19267">
        <ele>1347.2</ele>
        <time>2018-09-02T07:02:46Z</time>
      </trkpt>
      <trkpt lat="42.99748" lon="-0.19262">
        <ele>1346.7</ele>
        <time>2018-09-02T07:02:47Z</time>
      </trkpt>
      <trkpt lat="42.99756" lon="-0.19259">
        <ele>1346.9</ele>
        <time>2018-09-02T07:02:48Z</time>
      </trkpt>
      <trkpt lat="42.99765" lon="-0.19259">
        <ele>1347</ele>
        <time>2018-09-02T07:02:49Z</time>
      </trkpt>
      <trkpt lat="42.99774" lon="-0.19258">
        <ele>1347.2</ele>
        <time>2018-09-02T07:02:50Z</time>
      </trkpt>
      <trkpt lat="42.99782" lon="-0.19256">
        <ele>1348.5</ele>
        <time>2018-09-02T07:02:51Z</time>
      </trkpt>
      <trkpt lat="42.99791" lon="-0.19257">
        <ele>1350.6</ele>
        <time>2018-09-02T07:02:52Z</time>
      </trkpt>
      <trkpt lat="42.99805" lon="-0.19265">
        <ele>1351.6</ele>
        <time>2018-09-02T07:02:54Z</time>
      </trkpt>
      <trkpt lat="42.99818" lon="-0.19285">
        <ele>1345.3</ele>
        <time>2018-09-02T07:02:57Z</time>
      </trkpt>
      <trkpt lat="42.99821" lon="-0.19295">
        <ele>1341.9</ele>
        <time>2018-09-02T07:02:58Z</time>
      </trkpt>
      <trkpt lat="42.99825" lon="-0.19301">
        <ele>1339.7</ele>
        <time>2018-09-02T07:02:59Z</time>
      </trkpt>
      <trkpt lat="42.99831" lon="-0.19303">
        <ele>1338.8</ele>
        <time>2018-09-02T07:03:00Z</time>
      </trkpt>
      <trkpt lat="42.99839" lon="-0.19297">
        <ele>1339.3</ele>
        <time>2018-09-02T07:03:02Z</time>
      </trkpt>
      <trkpt lat="42.9985" lon="-0.19284">
        <ele>1340.9</ele>
        <time>2018-09-02T07:03:04Z</time>
      </trkpt>
      <trkpt lat="42.99855" lon="-0.19278">
        <ele>1341.8</ele>
        <time>2018-09-02T07:03:05Z</time>
      </trkpt>
      <trkpt lat="42.9986" lon="-0.19271">
        <ele>1342.9</ele>
        <time>2018-09-02T07:03:06Z</time>
      </trkpt>
      <trkpt lat="42.99865" lon="-0.19264">
        <ele>1343.3</ele>
        <time>2018-09-02T07:03:07Z</time>
      </trkpt>
      <trkpt lat="42.99871" lon="-0.19257">
        <ele>1343.7</ele>
        <time>2018-09-02T07:03:08Z</time>
      </trkpt>
      <trkpt lat="42.99877" lon="-0.1925">
        <ele>1343.9</ele>
        <time>2018-09-02T07:03:09Z</time>
      </trkpt>
      <trkpt lat="42.99881" lon="-0.19242">
        <ele>1344.5</ele>
        <time>2018-09-02T07:03:10Z</time>
      </trkpt>
      <trkpt lat="42.99886" lon="-0.19234">
        <ele>1345.6</ele>
        <time>2018-09-02T07:03:11Z</time>
      </trkpt>
      <trkpt lat="42.99891" lon="-0.19227">
        <ele>1346.1</ele>
        <time>2018-09-02T07:03:12Z</time>
      </trkpt>
      <trkpt lat="42.99898" lon="-0.19223">
        <ele>1344.8</ele>
        <time>2018-09-02T07:03:13Z</time>
      </trkpt>
      <trkpt lat="42.99908" lon="-0.19212">
        <ele>1344.2</ele>
        <time>2018-09-02T07:03:15Z</time>
      </trkpt>
      <trkpt lat="42.99917" lon="-0.19202">
        <ele>1344</ele>
        <time>2018-09-02T07:03:18Z</time>
      </trkpt>
      <trkpt lat="42.9992" lon="-0.192">
        <ele>1343.9</ele>
        <time>2018-09-02T07:03:19Z</time>
      </trkpt>
      <trkpt lat="42.99921" lon="-0.19198">
        <ele>1344.1</ele>
        <time>2018-09-02T07:03:20Z</time>
      </trkpt>
      <trkpt lat="42.99922" lon="-0.19196">
        <ele>1344.5</ele>
        <time>2018-09-02T07:03:21Z</time>
      </trkpt>
      <trkpt lat="42.99924" lon="-0.19194">
        <ele>1345</ele>
        <time>2018-09-02T07:03:22Z</time>
      </trkpt>
      <trkpt lat="42.99926" lon="-0.19191">
        <ele>1345.7</ele>
        <time>2018-09-02T07:03:23Z</time>
      </trkpt>
      <trkpt lat="42.99927" lon="-0.19189">
        <ele>1346.2</ele>
        <time>2018-09-02T07:03:24Z</time>
      </trkpt>
      <trkpt lat="42.9993" lon="-0.19187">
        <ele>1346.2</ele>
        <time>2018-09-02T07:03:25Z</time>
      </trkpt>
      <trkpt lat="42.99932" lon="-0.19185">
        <ele>1346.4</ele>
        <time>2018-09-02T07:03:26Z</time>
      </trkpt>
      <trkpt lat="42.99934" lon="-0.19183">
        <ele>1346.4</ele>
        <time>2018-09-02T07:03:27Z</time>
      </trkpt>
      <trkpt lat="42.99937" lon="-0.19181">
        <ele>1346.4</ele>
        <time>2018-09-02T07:03:28Z</time>
      </trkpt>
      <trkpt lat="42.99941" lon="-0.19177">
        <ele>1346.7</ele>
        <time>2018-09-02T07:03:30Z</time>
      </trkpt>
      <trkpt lat="42.99944" lon="-0.19175">
        <ele>1346.5</ele>
        <time>2018-09-02T07:03:31Z</time>
      </trkpt>
      <trkpt lat="42.99945" lon="-0.19173">
        <ele>1347.1</ele>
        <time>2018-09-02T07:03:32Z</time>
      </trkpt>
      <trkpt lat="42.99948" lon="-0.1917">
        <ele>1347.5</ele>
        <time>2018-09-02T07:03:33Z</time>
      </trkpt>
      <trkpt lat="42.9995" lon="-0.19168">
        <ele>1347.6</ele>
        <time>2018-09-02T07:03:34Z</time>
      </trkpt>
      <trkpt lat="42.99951" lon="-0.19165">
        <ele>1348.8</ele>
        <time>2018-09-02T07:03:35Z</time>
      </trkpt>
      <trkpt lat="42.99951" lon="-0.19163">
        <ele>1349.9</ele>
        <time>2018-09-02T07:03:36Z</time>
      </trkpt>
      <trkpt lat="42.99952" lon="-0.19161">
        <ele>1350.7</ele>
        <time>2018-09-02T07:03:37Z</time>
      </trkpt>
      <trkpt lat="42.99952" lon="-0.19159">
        <ele>1351.6</ele>
        <time>2018-09-02T07:03:38Z</time>
      </trkpt>
      <trkpt lat="42.99953" lon="-0.19157">
        <ele>1351.9</ele>
        <time>2018-09-02T07:03:39Z</time>
      </trkpt>
      <trkpt lat="42.99956" lon="-0.19155">
        <ele>1351.9</ele>
        <time>2018-09-02T07:03:40Z</time>
      </trkpt>
      <trkpt lat="42.99961" lon="-0.19152">
        <ele>1352.2</ele>
        <time>2018-09-02T07:03:42Z</time>
      </trkpt>
      <trkpt lat="42.99963" lon="-0.1915">
        <ele>1352.4</ele>
        <time>2018-09-02T07:03:43Z</time>
      </trkpt>
      <trkpt lat="42.99965" lon="-0.19148">
        <ele>1352.9</ele>
        <time>2018-09-02T07:03:44Z</time>
      </trkpt>
      <trkpt lat="42.99968" lon="-0.19146">
        <ele>1352.9</ele>
        <time>2018-09-02T07:03:45Z</time>
      </trkpt>
      <trkpt lat="42.9997" lon="-0.19144">
        <ele>1353.4</ele>
        <time>2018-09-02T07:03:46Z</time>
      </trkpt>
      <trkpt lat="42.99972" lon="-0.19141">
        <ele>1353.9</ele>
        <time>2018-09-02T07:03:47Z</time>
      </trkpt>
      <trkpt lat="42.99974" lon="-0.19138">
        <ele>1354.8</ele>
        <time>2018-09-02T07:03:48Z</time>
      </trkpt>
      <trkpt lat="42.99981" lon="-0.1913">
        <ele>1357.3</ele>
        <time>2018-09-02T07:03:51Z</time>
      </trkpt>
      <trkpt lat="42.99984" lon="-0.19128">
        <ele>1357.8</ele>
        <time>2018-09-02T07:03:52Z</time>
      </trkpt>
      <trkpt lat="42.99986" lon="-0.19125">
        <ele>1358.9</ele>
        <time>2018-09-02T07:03:53Z</time>
      </trkpt>
      <trkpt lat="42.99989" lon="-0.19122">
        <ele>1359.5</ele>
        <time>2018-09-02T07:03:54Z</time>
      </trkpt>
      <trkpt lat="42.99992" lon="-0.1912">
        <ele>1359.9</ele>
        <time>2018-09-02T07:03:55Z</time>
      </trkpt>
      <trkpt lat="42.99994" lon="-0.19119">
        <ele>1360.3</ele>
        <time>2018-09-02T07:03:56Z</time>
      </trkpt>
      <trkpt lat="43.00003" lon="-0.19112">
        <ele>1362.3</ele>
        <time>2018-09-02T07:04:00Z</time>
      </trkpt>
      <trkpt lat="43.00004" lon="-0.1911">
        <ele>1362.9</ele>
        <time>2018-09-02T07:04:01Z</time>
      </trkpt>
      <trkpt lat="43.00006" lon="-0.19109">
        <ele>1363.1</ele>
        <time>2018-09-02T07:04:02Z</time>
      </trkpt>
      <trkpt lat="43.00009" lon="-0.19109">
        <ele>1362.9</ele>
        <time>2018-09-02T07:04:03Z</time>
      </trkpt>
      <trkpt lat="43.00018" lon="-0.19108">
        <ele>1361.9</ele>
        <time>2018-09-02T07:04:06Z</time>
      </trkpt>
      <trkpt lat="43.00024" lon="-0.19104">
        <ele>1362.7</ele>
        <time>2018-09-02T07:04:08Z</time>
      </trkpt>
      <trkpt lat="43.00027" lon="-0.19102">
        <ele>1363.4</ele>
        <time>2018-09-02T07:04:09Z</time>
      </trkpt>
      <trkpt lat="43.0003" lon="-0.191">
        <ele>1364.1</ele>
        <time>2018-09-02T07:04:10Z</time>
      </trkpt>
      <trkpt lat="43.00033" lon="-0.19097">
        <ele>1364.7</ele>
        <time>2018-09-02T07:04:11Z</time>
      </trkpt>
      <trkpt lat="43.00035" lon="-0.19095">
        <ele>1365.4</ele>
        <time>2018-09-02T07:04:12Z</time>
      </trkpt>
      <trkpt lat="43.00046" lon="-0.1909">
        <ele>1365.8</ele>
        <time>2018-09-02T07:04:16Z</time>
      </trkpt>
      <trkpt lat="43.00049" lon="-0.19088">
        <ele>1366.1</ele>
        <time>2018-09-02T07:04:17Z</time>
      </trkpt>
      <trkpt lat="43.00051" lon="-0.19085">
        <ele>1367.1</ele>
        <time>2018-09-02T07:04:18Z</time>
      </trkpt>
      <trkpt lat="43.00054" lon="-0.19082">
        <ele>1367.8</ele>
        <time>2018-09-02T07:04:19Z</time>
      </trkpt>
      <trkpt lat="43.00056" lon="-0.1908">
        <ele>1368.4</ele>
        <time>2018-09-02T07:04:20Z</time>
      </trkpt>
      <trkpt lat="43.00058" lon="-0.19078">
        <ele>1368.9</ele>
        <time>2018-09-02T07:04:21Z</time>
      </trkpt>
      <trkpt lat="43.00068" lon="-0.19067">
        <ele>1371.6</ele>
        <time>2018-09-02T07:04:25Z</time>
      </trkpt>
      <trkpt lat="43.0007" lon="-0.19064">
        <ele>1372.1</ele>
        <time>2018-09-02T07:04:26Z</time>
      </trkpt>
      <trkpt lat="43.00073" lon="-0.19062">
        <ele>1372.4</ele>
        <time>2018-09-02T07:04:27Z</time>
      </trkpt>
      <trkpt lat="43.00076" lon="-0.1906">
        <ele>1372.9</ele>
        <time>2018-09-02T07:04:28Z</time>
      </trkpt>
      <trkpt lat="43.00087" lon="-0.1905">
        <ele>1373.6</ele>
        <time>2018-09-02T07:04:32Z</time>
      </trkpt>
      <trkpt lat="43.0009" lon="-0.19047">
        <ele>1373.7</ele>
        <time>2018-09-02T07:04:33Z</time>
      </trkpt>
      <trkpt lat="43.00093" lon="-0.19044">
        <ele>1373.6</ele>
        <time>2018-09-02T07:04:34Z</time>
      </trkpt>
      <trkpt lat="43.00096" lon="-0.19041">
        <ele>1373.6</ele>
        <time>2018-09-02T07:04:35Z</time>
      </trkpt>
      <trkpt lat="43.00098" lon="-0.19039">
        <ele>1373.4</ele>
        <time>2018-09-02T07:04:36Z</time>
      </trkpt>
      <trkpt lat="43.00101" lon="-0.19036">
        <ele>1373.2</ele>
        <time>2018-09-02T07:04:37Z</time>
      </trkpt>
      <trkpt lat="43.00108" lon="-0.19026">
        <ele>1372.9</ele>
        <time>2018-09-02T07:04:40Z</time>
      </trkpt>
      <trkpt lat="43.00111" lon="-0.19023">
        <ele>1372</ele>
        <time>2018-09-02T07:04:41Z</time>
      </trkpt>
      <trkpt lat="43.00118" lon="-0.19013">
        <ele>1370.1</ele>
        <time>2018-09-02T07:04:44Z</time>
      </trkpt>
      <trkpt lat="43.0012" lon="-0.19009">
        <ele>1369.7</ele>
        <time>2018-09-02T07:04:45Z</time>
      </trkpt>
      <trkpt lat="43.00121" lon="-0.19005">
        <ele>1369.2</ele>
        <time>2018-09-02T07:04:46Z</time>
      </trkpt>
      <trkpt lat="43.00122" lon="-0.18999">
        <ele>1368.8</ele>
        <time>2018-09-02T07:04:47Z</time>
      </trkpt>
      <trkpt lat="43.00122" lon="-0.18995">
        <ele>1367.7</ele>
        <time>2018-09-02T07:04:48Z</time>
      </trkpt>
      <trkpt lat="43.00124" lon="-0.18971">
        <ele>1361.4</ele>
        <time>2018-09-02T07:04:53Z</time>
      </trkpt>
      <trkpt lat="43.00123" lon="-0.18959">
        <ele>1357.8</ele>
        <time>2018-09-02T07:04:55Z</time>
      </trkpt>
      <trkpt lat="43.00123" lon="-0.18954">
        <ele>1356.4</ele>
        <time>2018-09-02T07:04:56Z</time>
      </trkpt>
      <trkpt lat="43.00121" lon="-0.18949">
        <ele>1355.2</ele>
        <time>2018-09-02T07:04:57Z</time>
      </trkpt>
      <trkpt lat="43.00121" lon="-0.18944">
        <ele>1354</ele>
        <time>2018-09-02T07:04:58Z</time>
      </trkpt>
      <trkpt lat="43.00119" lon="-0.18939">
        <ele>1353.2</ele>
        <time>2018-09-02T07:04:59Z</time>
      </trkpt>
      <trkpt lat="43.00114" lon="-0.18926">
        <ele>1352.1</ele>
        <time>2018-09-02T07:05:02Z</time>
      </trkpt>
      <trkpt lat="43.00101" lon="-0.18913">
        <ele>1355.1</ele>
        <time>2018-09-02T07:05:06Z</time>
      </trkpt>
      <trkpt lat="43.00097" lon="-0.18911">
        <ele>1356.7</ele>
        <time>2018-09-02T07:05:07Z</time>
      </trkpt>
      <trkpt lat="43.00083" lon="-0.18901">
        <ele>1361.2</ele>
        <time>2018-09-02T07:05:10Z</time>
      </trkpt>
      <trkpt lat="43.00079" lon="-0.18897">
        <ele>1362.5</ele>
        <time>2018-09-02T07:05:11Z</time>
      </trkpt>
      <trkpt lat="43.00071" lon="-0.1889">
        <ele>1364.9</ele>
        <time>2018-09-02T07:05:13Z</time>
      </trkpt>
      <trkpt lat="43.00058" lon="-0.18884">
        <ele>1370.7</ele>
        <time>2018-09-02T07:05:16Z</time>
      </trkpt>
      <trkpt lat="43.00048" lon="-0.18877">
        <ele>1374.2</ele>
        <time>2018-09-02T07:05:19Z</time>
      </trkpt>
      <trkpt lat="43.00045" lon="-0.18875">
        <ele>1375.6</ele>
        <time>2018-09-02T07:05:20Z</time>
      </trkpt>
      <trkpt lat="43.00043" lon="-0.18872">
        <ele>1375.6</ele>
        <time>2018-09-02T07:05:21Z</time>
      </trkpt>
      <trkpt lat="43.0004" lon="-0.18868">
        <ele>1376.5</ele>
        <time>2018-09-02T07:05:22Z</time>
      </trkpt>
      <trkpt lat="43.00037" lon="-0.18865">
        <ele>1377.2</ele>
        <time>2018-09-02T07:05:23Z</time>
      </trkpt>
      <trkpt lat="43.00027" lon="-0.18845">
        <ele>1378.7</ele>
        <time>2018-09-02T07:05:29Z</time>
      </trkpt>
      <trkpt lat="43.00026" lon="-0.18842">
        <ele>1378.4</ele>
        <time>2018-09-02T07:05:30Z</time>
      </trkpt>
      <trkpt lat="43.00025" lon="-0.1884">
        <ele>1378.4</ele>
        <time>2018-09-02T07:05:31Z</time>
      </trkpt>
      <trkpt lat="43.00025" lon="-0.18836">
        <ele>1378.1</ele>
        <time>2018-09-02T07:05:32Z</time>
      </trkpt>
      <trkpt lat="43.00024" lon="-0.18832">
        <ele>1377.9</ele>
        <time>2018-09-02T07:05:33Z</time>
      </trkpt>
      <trkpt lat="43.00023" lon="-0.18829">
        <ele>1378.1</ele>
        <time>2018-09-02T07:05:34Z</time>
      </trkpt>
      <trkpt lat="43.0002" lon="-0.18821">
        <ele>1378.2</ele>
        <time>2018-09-02T07:05:36Z</time>
      </trkpt>
      <trkpt lat="43.00019" lon="-0.18819">
        <ele>1378.4</ele>
        <time>2018-09-02T07:05:37Z</time>
      </trkpt>
      <trkpt lat="43.00018" lon="-0.18816">
        <ele>1378.6</ele>
        <time>2018-09-02T07:05:38Z</time>
      </trkpt>
      <trkpt lat="43.00018" lon="-0.18814">
        <ele>1378.6</ele>
        <time>2018-09-02T07:05:39Z</time>
      </trkpt>
      <trkpt lat="43.00017" lon="-0.18809">
        <ele>1378.4</ele>
        <time>2018-09-02T07:05:40Z</time>
      </trkpt>
      <trkpt lat="43.00015" lon="-0.18803">
        <ele>1379</ele>
        <time>2018-09-02T07:05:42Z</time>
      </trkpt>
      <trkpt lat="43.0001" lon="-0.18794">
        <ele>1381.1</ele>
        <time>2018-09-02T07:05:45Z</time>
      </trkpt>
      <trkpt lat="43.00008" lon="-0.18792">
        <ele>1381.7</ele>
        <time>2018-09-02T07:05:46Z</time>
      </trkpt>
      <trkpt lat="43.00007" lon="-0.18789">
        <ele>1382.1</ele>
        <time>2018-09-02T07:05:47Z</time>
      </trkpt>
      <trkpt lat="43.00005" lon="-0.18786">
        <ele>1382.7</ele>
        <time>2018-09-02T07:05:48Z</time>
      </trkpt>
      <trkpt lat="43.00004" lon="-0.18783">
        <ele>1383.1</ele>
        <time>2018-09-02T07:05:49Z</time>
      </trkpt>
      <trkpt lat="43.00001" lon="-0.18772">
        <ele>1384.4</ele>
        <time>2018-09-02T07:05:53Z</time>
      </trkpt>
      <trkpt lat="43" lon="-0.1877">
        <ele>1384.8</ele>
        <time>2018-09-02T07:05:54Z</time>
      </trkpt>
      <trkpt lat="42.99998" lon="-0.18767">
        <ele>1385.5</ele>
        <time>2018-09-02T07:05:55Z</time>
      </trkpt>
      <trkpt lat="42.99997" lon="-0.18766">
        <ele>1386.4</ele>
        <time>2018-09-02T07:05:56Z</time>
      </trkpt>
      <trkpt lat="42.99995" lon="-0.18763">
        <ele>1387.1</ele>
        <time>2018-09-02T07:05:57Z</time>
      </trkpt>
      <trkpt lat="42.99994" lon="-0.18762">
        <ele>1387.7</ele>
        <time>2018-09-02T07:05:58Z</time>
      </trkpt>
      <trkpt lat="42.99991" lon="-0.18748">
        <ele>1389.2</ele>
        <time>2018-09-02T07:06:03Z</time>
      </trkpt>
      <trkpt lat="42.9999" lon="-0.18745">
        <ele>1389.9</ele>
        <time>2018-09-02T07:06:04Z</time>
      </trkpt>
      <trkpt lat="42.99989" lon="-0.18743">
        <ele>1390.5</ele>
        <time>2018-09-02T07:06:05Z</time>
      </trkpt>
      <trkpt lat="42.99989" lon="-0.1874">
        <ele>1391.1</ele>
        <time>2018-09-02T07:06:06Z</time>
      </trkpt>
      <trkpt lat="42.99988" lon="-0.18737">
        <ele>1391.7</ele>
        <time>2018-09-02T07:06:07Z</time>
      </trkpt>
      <trkpt lat="42.99987" lon="-0.18729">
        <ele>1392.9</ele>
        <time>2018-09-02T07:06:10Z</time>
      </trkpt>
      <trkpt lat="42.99988" lon="-0.18726">
        <ele>1393</ele>
        <time>2018-09-02T07:06:11Z</time>
      </trkpt>
      <trkpt lat="42.99987" lon="-0.18723">
        <ele>1393.4</ele>
        <time>2018-09-02T07:06:12Z</time>
      </trkpt>
      <trkpt lat="42.99988" lon="-0.18719">
        <ele>1393.8</ele>
        <time>2018-09-02T07:06:13Z</time>
      </trkpt>
      <trkpt lat="42.99988" lon="-0.18716">
        <ele>1394.2</ele>
        <time>2018-09-02T07:06:14Z</time>
      </trkpt>
      <trkpt lat="42.99989" lon="-0.18713">
        <ele>1394.4</ele>
        <time>2018-09-02T07:06:15Z</time>
      </trkpt>
      <trkpt lat="42.99991" lon="-0.18705">
        <ele>1394.7</ele>
        <time>2018-09-02T07:06:17Z</time>
      </trkpt>
      <trkpt lat="42.99995" lon="-0.18692">
        <ele>1395.2</ele>
        <time>2018-09-02T07:06:21Z</time>
      </trkpt>
      <trkpt lat="42.99996" lon="-0.18689">
        <ele>1395.6</ele>
        <time>2018-09-02T07:06:22Z</time>
      </trkpt>
      <trkpt lat="42.99998" lon="-0.18685">
        <ele>1395.7</ele>
        <time>2018-09-02T07:06:23Z</time>
      </trkpt>
      <trkpt lat="42.99999" lon="-0.18683">
        <ele>1395.6</ele>
        <time>2018-09-02T07:06:24Z</time>
      </trkpt>
      <trkpt lat="43" lon="-0.1868">
        <ele>1395.5</ele>
        <time>2018-09-02T07:06:25Z</time>
      </trkpt>
      <trkpt lat="43.00004" lon="-0.18671">
        <ele>1395.5</ele>
        <time>2018-09-02T07:06:28Z</time>
      </trkpt>
      <trkpt lat="43.00006" lon="-0.1867">
        <ele>1395.2</ele>
        <time>2018-09-02T07:06:29Z</time>
      </trkpt>
      <trkpt lat="43.00007" lon="-0.18667">
        <ele>1395</ele>
        <time>2018-09-02T07:06:30Z</time>
      </trkpt>
      <trkpt lat="43.00009" lon="-0.18664">
        <ele>1395.2</ele>
        <time>2018-09-02T07:06:31Z</time>
      </trkpt>
      <trkpt lat="43.00017" lon="-0.18646">
        <ele>1396.2</ele>
        <time>2018-09-02T07:06:37Z</time>
      </trkpt>
      <trkpt lat="43.00019" lon="-0.1864">
        <ele>1396.7</ele>
        <time>2018-09-02T07:06:39Z</time>
      </trkpt>
      <trkpt lat="43.00021" lon="-0.18638">
        <ele>1396.5</ele>
        <time>2018-09-02T07:06:40Z</time>
      </trkpt>
      <trkpt lat="43.00022" lon="-0.18634">
        <ele>1396.7</ele>
        <time>2018-09-02T07:06:41Z</time>
      </trkpt>
      <trkpt lat="43.00023" lon="-0.18631">
        <ele>1396.8</ele>
        <time>2018-09-02T07:06:42Z</time>
      </trkpt>
      <trkpt lat="43.00024" lon="-0.18628">
        <ele>1397.1</ele>
        <time>2018-09-02T07:06:43Z</time>
      </trkpt>
      <trkpt lat="43.00027" lon="-0.18615">
        <ele>1398.8</ele>
        <time>2018-09-02T07:06:47Z</time>
      </trkpt>
      <trkpt lat="43.00029" lon="-0.18609">
        <ele>1398.6</ele>
        <time>2018-09-02T07:06:49Z</time>
      </trkpt>
      <trkpt lat="43.0003" lon="-0.18606">
        <ele>1398.6</ele>
        <time>2018-09-02T07:06:50Z</time>
      </trkpt>
      <trkpt lat="43.00031" lon="-0.18602">
        <ele>1398.6</ele>
        <time>2018-09-02T07:06:51Z</time>
      </trkpt>
      <trkpt lat="43.00032" lon="-0.18599">
        <ele>1398.5</ele>
        <time>2018-09-02T07:06:52Z</time>
      </trkpt>
      <trkpt lat="43.00033" lon="-0.18596">
        <ele>1398.3</ele>
        <time>2018-09-02T07:06:53Z</time>
      </trkpt>
      <trkpt lat="43.00037" lon="-0.18581">
        <ele>1398.6</ele>
        <time>2018-09-02T07:06:57Z</time>
      </trkpt>
      <trkpt lat="43.00038" lon="-0.18577">
        <ele>1398.7</ele>
        <time>2018-09-02T07:06:58Z</time>
      </trkpt>
      <trkpt lat="43.00039" lon="-0.18574">
        <ele>1398.7</ele>
        <time>2018-09-02T07:06:59Z</time>
      </trkpt>
      <trkpt lat="43.00039" lon="-0.1857">
        <ele>1398.9</ele>
        <time>2018-09-02T07:07:00Z</time>
      </trkpt>
      <trkpt lat="43.0004" lon="-0.18567">
        <ele>1399</ele>
        <time>2018-09-02T07:07:01Z</time>
      </trkpt>
      <trkpt lat="43.00044" lon="-0.18549">
        <ele>1398.6</ele>
        <time>2018-09-02T07:07:05Z</time>
      </trkpt>
      <trkpt lat="43.00046" lon="-0.18539">
        <ele>1398.3</ele>
        <time>2018-09-02T07:07:07Z</time>
      </trkpt>
      <trkpt lat="43.00045" lon="-0.18535">
        <ele>1398.9</ele>
        <time>2018-09-02T07:07:08Z</time>
      </trkpt>
      <trkpt lat="43.00045" lon="-0.18532">
        <ele>1399.3</ele>
        <time>2018-09-02T07:07:09Z</time>
      </trkpt>
      <trkpt lat="43.00045" lon="-0.18528">
        <ele>1399.6</ele>
        <time>2018-09-02T07:07:10Z</time>
      </trkpt>
      <trkpt lat="43.00046" lon="-0.18524">
        <ele>1399.1</ele>
        <time>2018-09-02T07:07:11Z</time>
      </trkpt>
      <trkpt lat="43.00047" lon="-0.18507">
        <ele>1398.8</ele>
        <time>2018-09-02T07:07:15Z</time>
      </trkpt>
      <trkpt lat="43.00048" lon="-0.18489">
        <ele>1398.2</ele>
        <time>2018-09-02T07:07:19Z</time>
      </trkpt>
      <trkpt lat="43.00049" lon="-0.18485">
        <ele>1397.7</ele>
        <time>2018-09-02T07:07:20Z</time>
      </trkpt>
      <trkpt lat="43.0005" lon="-0.1848">
        <ele>1396.9</ele>
        <time>2018-09-02T07:07:21Z</time>
      </trkpt>
      <trkpt lat="43.0005" lon="-0.18476">
        <ele>1396.5</ele>
        <time>2018-09-02T07:07:22Z</time>
      </trkpt>
      <trkpt lat="43.00049" lon="-0.18472">
        <ele>1397</ele>
        <time>2018-09-02T07:07:23Z</time>
      </trkpt>
      <trkpt lat="43.00049" lon="-0.18456">
        <ele>1396.4</ele>
        <time>2018-09-02T07:07:26Z</time>
      </trkpt>
      <trkpt lat="43.00042" lon="-0.18421">
        <ele>1399.6</ele>
        <time>2018-09-02T07:07:32Z</time>
      </trkpt>
      <trkpt lat="43.00039" lon="-0.1841">
        <ele>1401.4</ele>
        <time>2018-09-02T07:07:34Z</time>
      </trkpt>
      <trkpt lat="43.00034" lon="-0.18395">
        <ele>1404.2</ele>
        <time>2018-09-02T07:07:37Z</time>
      </trkpt>
      <trkpt lat="43.00032" lon="-0.1839">
        <ele>1405</ele>
        <time>2018-09-02T07:07:38Z</time>
      </trkpt>
      <trkpt lat="43.00031" lon="-0.18385">
        <ele>1405.8</ele>
        <time>2018-09-02T07:07:39Z</time>
      </trkpt>
      <trkpt lat="43.0003" lon="-0.1838">
        <ele>1406.8</ele>
        <time>2018-09-02T07:07:40Z</time>
      </trkpt>
      <trkpt lat="43.00028" lon="-0.18375">
        <ele>1407.7</ele>
        <time>2018-09-02T07:07:41Z</time>
      </trkpt>
      <trkpt lat="43.00028" lon="-0.18369">
        <ele>1407.9</ele>
        <time>2018-09-02T07:07:42Z</time>
      </trkpt>
      <trkpt lat="43.00027" lon="-0.18353">
        <ele>1408.6</ele>
        <time>2018-09-02T07:07:45Z</time>
      </trkpt>
      <trkpt lat="43.00027" lon="-0.18328">
        <ele>1409</ele>
        <time>2018-09-02T07:07:50Z</time>
      </trkpt>
      <trkpt lat="43.00025" lon="-0.1832">
        <ele>1410.3</ele>
        <time>2018-09-02T07:07:52Z</time>
      </trkpt>
      <trkpt lat="43.00026" lon="-0.18315">
        <ele>1410.1</ele>
        <time>2018-09-02T07:07:53Z</time>
      </trkpt>
      <trkpt lat="43.00026" lon="-0.18311">
        <ele>1410.4</ele>
        <time>2018-09-02T07:07:54Z</time>
      </trkpt>
      <trkpt lat="43.00026" lon="-0.18304">
        <ele>1410.2</ele>
        <time>2018-09-02T07:07:55Z</time>
      </trkpt>
      <trkpt lat="43.00025" lon="-0.18298">
        <ele>1411.1</ele>
        <time>2018-09-02T07:07:56Z</time>
      </trkpt>
      <trkpt lat="43.00025" lon="-0.18288">
        <ele>1411.8</ele>
        <time>2018-09-02T07:07:58Z</time>
      </trkpt>
      <trkpt lat="43.00028" lon="-0.18255">
        <ele>1410.7</ele>
        <time>2018-09-02T07:08:04Z</time>
      </trkpt>
      <trkpt lat="43.00029" lon="-0.18232">
        <ele>1411.3</ele>
        <time>2018-09-02T07:08:08Z</time>
      </trkpt>
      <trkpt lat="43.00029" lon="-0.18225">
        <ele>1411.8</ele>
        <time>2018-09-02T07:08:09Z</time>
      </trkpt>
      <trkpt lat="43.00029" lon="-0.18214">
        <ele>1412.6</ele>
        <time>2018-09-02T07:08:11Z</time>
      </trkpt>
      <trkpt lat="43.0003" lon="-0.18201">
        <ele>1413.4</ele>
        <time>2018-09-02T07:08:13Z</time>
      </trkpt>
      <trkpt lat="43.00028" lon="-0.18188">
        <ele>1415.4</ele>
        <time>2018-09-02T07:08:15Z</time>
      </trkpt>
      <trkpt lat="43.00029" lon="-0.18177">
        <ele>1416.2</ele>
        <time>2018-09-02T07:08:17Z</time>
      </trkpt>
      <trkpt lat="43.00028" lon="-0.18164">
        <ele>1418.2</ele>
        <time>2018-09-02T07:08:19Z</time>
      </trkpt>
      <trkpt lat="43.00028" lon="-0.18158">
        <ele>1418.9</ele>
        <time>2018-09-02T07:08:20Z</time>
      </trkpt>
      <trkpt lat="43.00028" lon="-0.18152">
        <ele>1419.8</ele>
        <time>2018-09-02T07:08:21Z</time>
      </trkpt>
      <trkpt lat="43.00028" lon="-0.18146">
        <ele>1420.3</ele>
        <time>2018-09-02T07:08:22Z</time>
      </trkpt>
      <trkpt lat="43.00028" lon="-0.18139">
        <ele>1420.6</ele>
        <time>2018-09-02T07:08:23Z</time>
      </trkpt>
      <trkpt lat="43.00035" lon="-0.18102">
        <ele>1420.6</ele>
        <time>2018-09-02T07:08:29Z</time>
      </trkpt>
      <trkpt lat="43.00037" lon="-0.1809">
        <ele>1420.5</ele>
        <time>2018-09-02T07:08:31Z</time>
      </trkpt>
      <trkpt lat="43.00037" lon="-0.18084">
        <ele>1420.9</ele>
        <time>2018-09-02T07:08:32Z</time>
      </trkpt>
      <trkpt lat="43.00038" lon="-0.18079">
        <ele>1420.7</ele>
        <time>2018-09-02T07:08:33Z</time>
      </trkpt>
      <trkpt lat="43.0004" lon="-0.18073">
        <ele>1420</ele>
        <time>2018-09-02T07:08:34Z</time>
      </trkpt>
      <trkpt lat="43.00041" lon="-0.18062">
        <ele>1420.5</ele>
        <time>2018-09-02T07:08:36Z</time>
      </trkpt>
      <trkpt lat="43.00045" lon="-0.18048">
        <ele>1419.1</ele>
        <time>2018-09-02T07:08:39Z</time>
      </trkpt>
      <trkpt lat="43.00063" lon="-0.1801">
        <ele>1413.6</ele>
        <time>2018-09-02T07:08:44Z</time>
      </trkpt>
      <trkpt lat="43.00076" lon="-0.17976">
        <ele>1410.8</ele>
        <time>2018-09-02T07:08:48Z</time>
      </trkpt>
      <trkpt lat="43.0008" lon="-0.17971">
        <ele>1409.3</ele>
        <time>2018-09-02T07:08:49Z</time>
      </trkpt>
      <trkpt lat="43.00083" lon="-0.17963">
        <ele>1408.1</ele>
        <time>2018-09-02T07:08:50Z</time>
      </trkpt>
      <trkpt lat="43.00087" lon="-0.17955">
        <ele>1406.9</ele>
        <time>2018-09-02T07:08:51Z</time>
      </trkpt>
      <trkpt lat="43.00091" lon="-0.1795">
        <ele>1405.5</ele>
        <time>2018-09-02T07:08:52Z</time>
      </trkpt>
      <trkpt lat="43.00095" lon="-0.17941">
        <ele>1404.2</ele>
        <time>2018-09-02T07:08:53Z</time>
      </trkpt>
      <trkpt lat="43.00098" lon="-0.17934">
        <ele>1402.7</ele>
        <time>2018-09-02T07:08:54Z</time>
      </trkpt>
      <trkpt lat="43.00103" lon="-0.17918">
        <ele>1400.6</ele>
        <time>2018-09-02T07:08:56Z</time>
      </trkpt>
      <trkpt lat="43.00107" lon="-0.17892">
        <ele>1397</ele>
        <time>2018-09-02T07:08:59Z</time>
      </trkpt>
      <trkpt lat="43.00106" lon="-0.17882">
        <ele>1396.2</ele>
        <time>2018-09-02T07:09:00Z</time>
      </trkpt>
      <trkpt lat="43.00105" lon="-0.17873">
        <ele>1396.3</ele>
        <time>2018-09-02T07:09:01Z</time>
      </trkpt>
      <trkpt lat="43.00102" lon="-0.17864">
        <ele>1397.8</ele>
        <time>2018-09-02T07:09:02Z</time>
      </trkpt>
      <trkpt lat="43.00098" lon="-0.17856">
        <ele>1399.6</ele>
        <time>2018-09-02T07:09:03Z</time>
      </trkpt>
      <trkpt lat="43.00092" lon="-0.17849">
        <ele>1402.9</ele>
        <time>2018-09-02T07:09:04Z</time>
      </trkpt>
      <trkpt lat="43.00087" lon="-0.17836">
        <ele>1404.8</ele>
        <time>2018-09-02T07:09:06Z</time>
      </trkpt>
      <trkpt lat="43.00085" lon="-0.17829">
        <ele>1405.4</ele>
        <time>2018-09-02T07:09:07Z</time>
      </trkpt>
      <trkpt lat="43.00081" lon="-0.17816">
        <ele>1408</ele>
        <time>2018-09-02T07:09:10Z</time>
      </trkpt>
      <trkpt lat="43.00078" lon="-0.17804">
        <ele>1409.7</ele>
        <time>2018-09-02T07:09:13Z</time>
      </trkpt>
      <trkpt lat="43.00077" lon="-0.17801">
        <ele>1410.6</ele>
        <time>2018-09-02T07:09:14Z</time>
      </trkpt>
      <trkpt lat="43.00076" lon="-0.17796">
        <ele>1411.3</ele>
        <time>2018-09-02T07:09:15Z</time>
      </trkpt>
      <trkpt lat="43.00075" lon="-0.17792">
        <ele>1411.9</ele>
        <time>2018-09-02T07:09:16Z</time>
      </trkpt>
      <trkpt lat="43.00074" lon="-0.17787">
        <ele>1412.4</ele>
        <time>2018-09-02T07:09:17Z</time>
      </trkpt>
      <trkpt lat="43.00073" lon="-0.17771">
        <ele>1413.5</ele>
        <time>2018-09-02T07:09:21Z</time>
      </trkpt>
      <trkpt lat="43.00074" lon="-0.17768">
        <ele>1413.5</ele>
        <time>2018-09-02T07:09:22Z</time>
      </trkpt>
      <trkpt lat="43.00074" lon="-0.17765">
        <ele>1413.2</ele>
        <time>2018-09-02T07:09:23Z</time>
      </trkpt>
      <trkpt lat="43.00075" lon="-0.1776">
        <ele>1412.8</ele>
        <time>2018-09-02T07:09:24Z</time>
      </trkpt>
      <trkpt lat="43.00077" lon="-0.17751">
        <ele>1411.8</ele>
        <time>2018-09-02T07:09:26Z</time>
      </trkpt>
      <trkpt lat="43.00081" lon="-0.17737">
        <ele>1409.8</ele>
        <time>2018-09-02T07:09:29Z</time>
      </trkpt>
      <trkpt lat="43.00082" lon="-0.17733">
        <ele>1409.2</ele>
        <time>2018-09-02T07:09:30Z</time>
      </trkpt>
      <trkpt lat="43.00083" lon="-0.1773">
        <ele>1408.8</ele>
        <time>2018-09-02T07:09:31Z</time>
      </trkpt>
      <trkpt lat="43.00084" lon="-0.17727">
        <ele>1408.5</ele>
        <time>2018-09-02T07:09:32Z</time>
      </trkpt>
      <trkpt lat="43.00084" lon="-0.17725">
        <ele>1408</ele>
        <time>2018-09-02T07:09:33Z</time>
      </trkpt>
      <trkpt lat="43.00085" lon="-0.17719">
        <ele>1407.7</ele>
        <time>2018-09-02T07:09:35Z</time>
      </trkpt>
      <trkpt lat="43.00086" lon="-0.17715">
        <ele>1408.1</ele>
        <time>2018-09-02T07:09:36Z</time>
      </trkpt>
      <trkpt lat="43.00086" lon="-0.17711">
        <ele>1408.2</ele>
        <time>2018-09-02T07:09:37Z</time>
      </trkpt>
      <trkpt lat="43.00086" lon="-0.17707">
        <ele>1408.7</ele>
        <time>2018-09-02T07:09:38Z</time>
      </trkpt>
      <trkpt lat="43.00087" lon="-0.17703">
        <ele>1408.4</ele>
        <time>2018-09-02T07:09:39Z</time>
      </trkpt>
      <trkpt lat="43.00092" lon="-0.17689">
        <ele>1405.7</ele>
        <time>2018-09-02T07:09:42Z</time>
      </trkpt>
      <trkpt lat="43.00093" lon="-0.17685">
        <ele>1405.6</ele>
        <time>2018-09-02T07:09:43Z</time>
      </trkpt>
      <trkpt lat="43.00094" lon="-0.17681">
        <ele>1404.8</ele>
        <time>2018-09-02T07:09:44Z</time>
      </trkpt>
      <trkpt lat="43.00095" lon="-0.17677">
        <ele>1404.8</ele>
        <time>2018-09-02T07:09:45Z</time>
      </trkpt>
      <trkpt lat="43.00096" lon="-0.17673">
        <ele>1404.6</ele>
        <time>2018-09-02T07:09:46Z</time>
      </trkpt>
      <trkpt lat="43.00096" lon="-0.17671">
        <ele>1404.8</ele>
        <time>2018-09-02T07:09:47Z</time>
      </trkpt>
      <trkpt lat="43.00097" lon="-0.17665">
        <ele>1405.2</ele>
        <time>2018-09-02T07:09:49Z</time>
      </trkpt>
      <trkpt lat="43.00097" lon="-0.17658">
        <ele>1405.4</ele>
        <time>2018-09-02T07:09:51Z</time>
      </trkpt>
      <trkpt lat="43.00098" lon="-0.17655">
        <ele>1405.3</ele>
        <time>2018-09-02T07:09:52Z</time>
      </trkpt>
      <trkpt lat="43.00099" lon="-0.17651">
        <ele>1405.2</ele>
        <time>2018-09-02T07:09:53Z</time>
      </trkpt>
      <trkpt lat="43.00099" lon="-0.17648">
        <ele>1405.4</ele>
        <time>2018-09-02T07:09:54Z</time>
      </trkpt>
      <trkpt lat="43.00099" lon="-0.17642">
        <ele>1405.8</ele>
        <time>2018-09-02T07:09:55Z</time>
      </trkpt>
      <trkpt lat="43.00099" lon="-0.1763">
        <ele>1407.5</ele>
        <time>2018-09-02T07:09:58Z</time>
      </trkpt>
      <trkpt lat="43.00099" lon="-0.17623">
        <ele>1408.3</ele>
        <time>2018-09-02T07:10:00Z</time>
      </trkpt>
      <trkpt lat="43.00098" lon="-0.1762">
        <ele>1409.4</ele>
        <time>2018-09-02T07:10:01Z</time>
      </trkpt>
      <trkpt lat="43.00097" lon="-0.17616">
        <ele>1410.6</ele>
        <time>2018-09-02T07:10:02Z</time>
      </trkpt>
      <trkpt lat="43.00096" lon="-0.17612">
        <ele>1412</ele>
        <time>2018-09-02T07:10:03Z</time>
      </trkpt>
      <trkpt lat="43.00094" lon="-0.17609">
        <ele>1413.6</ele>
        <time>2018-09-02T07:10:04Z</time>
      </trkpt>
      <trkpt lat="43.00093" lon="-0.17607">
        <ele>1415.1</ele>
        <time>2018-09-02T07:10:05Z</time>
      </trkpt>
      <trkpt lat="43.0009" lon="-0.176">
        <ele>1418.4</ele>
        <time>2018-09-02T07:10:07Z</time>
      </trkpt>
      <trkpt lat="43.00089" lon="-0.17597">
        <ele>1419.9</ele>
        <time>2018-09-02T07:10:08Z</time>
      </trkpt>
      <trkpt lat="43.00088" lon="-0.17592">
        <ele>1421.6</ele>
        <time>2018-09-02T07:10:09Z</time>
      </trkpt>
      <trkpt lat="43.00087" lon="-0.17588">
        <ele>1423</ele>
        <time>2018-09-02T07:10:10Z</time>
      </trkpt>
      <trkpt lat="43.00086" lon="-0.17585">
        <ele>1424.4</ele>
        <time>2018-09-02T07:10:11Z</time>
      </trkpt>
      <trkpt lat="43.00086" lon="-0.1758">
        <ele>1425.5</ele>
        <time>2018-09-02T07:10:12Z</time>
      </trkpt>
      <trkpt lat="43.00086" lon="-0.17561">
        <ele>1429.7</ele>
        <time>2018-09-02T07:10:17Z</time>
      </trkpt>
      <trkpt lat="43.00087" lon="-0.17556">
        <ele>1430.2</ele>
        <time>2018-09-02T07:10:18Z</time>
      </trkpt>
      <trkpt lat="43.00089" lon="-0.17552">
        <ele>1429.9</ele>
        <time>2018-09-02T07:10:19Z</time>
      </trkpt>
      <trkpt lat="43.00091" lon="-0.17549">
        <ele>1429.5</ele>
        <time>2018-09-02T07:10:20Z</time>
      </trkpt>
      <trkpt lat="43.00092" lon="-0.17545">
        <ele>1429.5</ele>
        <time>2018-09-02T07:10:21Z</time>
      </trkpt>
      <trkpt lat="43.00099" lon="-0.17525">
        <ele>1430.4</ele>
        <time>2018-09-02T07:10:27Z</time>
      </trkpt>
      <trkpt lat="43.001" lon="-0.17521">
        <ele>1431.1</ele>
        <time>2018-09-02T07:10:28Z</time>
      </trkpt>
      <trkpt lat="43.00101" lon="-0.17517">
        <ele>1431.7</ele>
        <time>2018-09-02T07:10:29Z</time>
      </trkpt>
      <trkpt lat="43.00103" lon="-0.17513">
        <ele>1431.7</ele>
        <time>2018-09-02T07:10:30Z</time>
      </trkpt>
      <trkpt lat="43.00104" lon="-0.17509">
        <ele>1432</ele>
        <time>2018-09-02T07:10:31Z</time>
      </trkpt>
      <trkpt lat="43.00105" lon="-0.17506">
        <ele>1432.4</ele>
        <time>2018-09-02T07:10:32Z</time>
      </trkpt>
      <trkpt lat="43.00108" lon="-0.17496">
        <ele>1433.6</ele>
        <time>2018-09-02T07:10:35Z</time>
      </trkpt>
      <trkpt lat="43.00109" lon="-0.17493">
        <ele>1433.8</ele>
        <time>2018-09-02T07:10:36Z</time>
      </trkpt>
      <trkpt lat="43.0011" lon="-0.17489">
        <ele>1434</ele>
        <time>2018-09-02T07:10:37Z</time>
      </trkpt>
      <trkpt lat="43.00112" lon="-0.17486">
        <ele>1434.2</ele>
        <time>2018-09-02T07:10:38Z</time>
      </trkpt>
      <trkpt lat="43.00115" lon="-0.17473">
        <ele>1435.4</ele>
        <time>2018-09-02T07:10:42Z</time>
      </trkpt>
      <trkpt lat="43.00116" lon="-0.1747">
        <ele>1435.8</ele>
        <time>2018-09-02T07:10:43Z</time>
      </trkpt>
      <trkpt lat="43.00118" lon="-0.17467">
        <ele>1435.7</ele>
        <time>2018-09-02T07:10:44Z</time>
      </trkpt>
      <trkpt lat="43.00119" lon="-0.17464">
        <ele>1435.9</ele>
        <time>2018-09-02T07:10:45Z</time>
      </trkpt>
      <trkpt lat="43.00119" lon="-0.17462">
        <ele>1436.1</ele>
        <time>2018-09-02T07:10:46Z</time>
      </trkpt>
      <trkpt lat="43.00125" lon="-0.17449">
        <ele>1436.1</ele>
        <time>2018-09-02T07:10:51Z</time>
      </trkpt>
      <trkpt lat="43.00127" lon="-0.17445">
        <ele>1436</ele>
        <time>2018-09-02T07:10:52Z</time>
      </trkpt>
      <trkpt lat="43.00128" lon="-0.17442">
        <ele>1435.9</ele>
        <time>2018-09-02T07:10:53Z</time>
      </trkpt>
      <trkpt lat="43.00129" lon="-0.17438">
        <ele>1435.9</ele>
        <time>2018-09-02T07:10:54Z</time>
      </trkpt>
      <trkpt lat="43.00131" lon="-0.17435">
        <ele>1435.7</ele>
        <time>2018-09-02T07:10:55Z</time>
      </trkpt>
      <trkpt lat="43.00132" lon="-0.17432">
        <ele>1435.6</ele>
        <time>2018-09-02T07:10:56Z</time>
      </trkpt>
      <trkpt lat="43.00134" lon="-0.17426">
        <ele>1435.9</ele>
        <time>2018-09-02T07:10:58Z</time>
      </trkpt>
      <trkpt lat="43.00136" lon="-0.17417">
        <ele>1436.8</ele>
        <time>2018-09-02T07:11:01Z</time>
      </trkpt>
      <trkpt lat="43.00137" lon="-0.17414">
        <ele>1437</ele>
        <time>2018-09-02T07:11:02Z</time>
      </trkpt>
      <trkpt lat="43.00137" lon="-0.17411">
        <ele>1437.5</ele>
        <time>2018-09-02T07:11:03Z</time>
      </trkpt>
      <trkpt lat="43.00139" lon="-0.17408">
        <ele>1437.5</ele>
        <time>2018-09-02T07:11:04Z</time>
      </trkpt>
      <trkpt lat="43.00139" lon="-0.17404">
        <ele>1437.7</ele>
        <time>2018-09-02T07:11:05Z</time>
      </trkpt>
      <trkpt lat="43.00146" lon="-0.17386">
        <ele>1437.2</ele>
        <time>2018-09-02T07:11:10Z</time>
      </trkpt>
      <trkpt lat="43.00148" lon="-0.17379">
        <ele>1436.8</ele>
        <time>2018-09-02T07:11:12Z</time>
      </trkpt>
      <trkpt lat="43.00148" lon="-0.17376">
        <ele>1436.9</ele>
        <time>2018-09-02T07:11:13Z</time>
      </trkpt>
      <trkpt lat="43.00149" lon="-0.17372">
        <ele>1436.8</ele>
        <time>2018-09-02T07:11:14Z</time>
      </trkpt>
      <trkpt lat="43.0015" lon="-0.17369">
        <ele>1437</ele>
        <time>2018-09-02T07:11:15Z</time>
      </trkpt>
      <trkpt lat="43.0015" lon="-0.17365">
        <ele>1437.5</ele>
        <time>2018-09-02T07:11:16Z</time>
      </trkpt>
      <trkpt lat="43.00152" lon="-0.17346">
        <ele>1439</ele>
        <time>2018-09-02T07:11:21Z</time>
      </trkpt>
      <trkpt lat="43.00152" lon="-0.17342">
        <ele>1439.5</ele>
        <time>2018-09-02T07:11:22Z</time>
      </trkpt>
      <trkpt lat="43.00152" lon="-0.17339">
        <ele>1439.8</ele>
        <time>2018-09-02T07:11:23Z</time>
      </trkpt>
      <trkpt lat="43.00152" lon="-0.17336">
        <ele>1440.3</ele>
        <time>2018-09-02T07:11:24Z</time>
      </trkpt>
      <trkpt lat="43.00151" lon="-0.17333">
        <ele>1440.8</ele>
        <time>2018-09-02T07:11:25Z</time>
      </trkpt>
      <trkpt lat="43.00152" lon="-0.17327">
        <ele>1440.4</ele>
        <time>2018-09-02T07:11:27Z</time>
      </trkpt>
      <trkpt lat="43.00152" lon="-0.17323">
        <ele>1440.2</ele>
        <time>2018-09-02T07:11:28Z</time>
      </trkpt>
      <trkpt lat="43.00152" lon="-0.17319">
        <ele>1440</ele>
        <time>2018-09-02T07:11:29Z</time>
      </trkpt>
      <trkpt lat="43.00152" lon="-0.17316">
        <ele>1439.8</ele>
        <time>2018-09-02T07:11:30Z</time>
      </trkpt>
      <trkpt lat="43.00152" lon="-0.17312">
        <ele>1439.4</ele>
        <time>2018-09-02T07:11:31Z</time>
      </trkpt>
      <trkpt lat="43.00151" lon="-0.17298">
        <ele>1438.3</ele>
        <time>2018-09-02T07:11:35Z</time>
      </trkpt>
      <trkpt lat="43.0015" lon="-0.17291">
        <ele>1437.6</ele>
        <time>2018-09-02T07:11:37Z</time>
      </trkpt>
      <trkpt lat="43.00149" lon="-0.17288">
        <ele>1437.2</ele>
        <time>2018-09-02T07:11:38Z</time>
      </trkpt>
      <trkpt lat="43.00148" lon="-0.17285">
        <ele>1436.9</ele>
        <time>2018-09-02T07:11:39Z</time>
      </trkpt>
      <trkpt lat="43.00148" lon="-0.17283">
        <ele>1436.7</ele>
        <time>2018-09-02T07:11:40Z</time>
      </trkpt>
      <trkpt lat="43.00146" lon="-0.17282">
        <ele>1436.6</ele>
        <time>2018-09-02T07:11:41Z</time>
      </trkpt>
      <trkpt lat="43.0014" lon="-0.17283">
        <ele>1437.8</ele>
        <time>2018-09-02T07:11:43Z</time>
      </trkpt>
      <trkpt lat="43.00137" lon="-0.17284">
        <ele>1438.4</ele>
        <time>2018-09-02T07:11:44Z</time>
      </trkpt>
      <trkpt lat="43.00134" lon="-0.17287">
        <ele>1439.2</ele>
        <time>2018-09-02T07:11:45Z</time>
      </trkpt>
      <trkpt lat="43.00129" lon="-0.17289">
        <ele>1440</ele>
        <time>2018-09-02T07:11:46Z</time>
      </trkpt>
      <trkpt lat="43.00126" lon="-0.17289">
        <ele>1440.5</ele>
        <time>2018-09-02T07:11:47Z</time>
      </trkpt>
      <trkpt lat="43.00122" lon="-0.1729">
        <ele>1440.8</ele>
        <time>2018-09-02T07:11:48Z</time>
      </trkpt>
      <trkpt lat="43.00119" lon="-0.17288">
        <ele>1440.6</ele>
        <time>2018-09-02T07:11:49Z</time>
      </trkpt>
      <trkpt lat="43.00114" lon="-0.17286">
        <ele>1439.9</ele>
        <time>2018-09-02T07:11:50Z</time>
      </trkpt>
      <trkpt lat="43.00107" lon="-0.17285">
        <ele>1440</ele>
        <time>2018-09-02T07:11:51Z</time>
      </trkpt>
      <trkpt lat="43.00104" lon="-0.17283">
        <ele>1439</ele>
        <time>2018-09-02T07:11:52Z</time>
      </trkpt>
      <trkpt lat="43.001" lon="-0.17281">
        <ele>1438.3</ele>
        <time>2018-09-02T07:11:53Z</time>
      </trkpt>
      <trkpt lat="43.00102" lon="-0.17281">
        <ele>1438.3</ele>
        <time>2018-09-02T07:11:55Z</time>
      </trkpt>
      <trkpt lat="43.00105" lon="-0.1728">
        <ele>1438</ele>
        <time>2018-09-02T07:11:56Z</time>
      </trkpt>
      <trkpt lat="43.0011" lon="-0.17278">
        <ele>1437</ele>
        <time>2018-09-02T07:11:57Z</time>
      </trkpt>
      <trkpt lat="43.00112" lon="-0.17275">
        <ele>1435.9</ele>
        <time>2018-09-02T07:11:58Z</time>
      </trkpt>
      <trkpt lat="43.00113" lon="-0.17272">
        <ele>1434.7</ele>
        <time>2018-09-02T07:11:59Z</time>
      </trkpt>
      <trkpt lat="43.00114" lon="-0.17268">
        <ele>1433.4</ele>
        <time>2018-09-02T07:12:00Z</time>
      </trkpt>
      <trkpt lat="43.00116" lon="-0.17262">
        <ele>1431</ele>
        <time>2018-09-02T07:12:01Z</time>
      </trkpt>
      <trkpt lat="43.00119" lon="-0.17256">
        <ele>1429.3</ele>
        <time>2018-09-02T07:12:02Z</time>
      </trkpt>
      <trkpt lat="43.00123" lon="-0.17249">
        <ele>1427.1</ele>
        <time>2018-09-02T07:12:03Z</time>
      </trkpt>
      <trkpt lat="43.00125" lon="-0.17242">
        <ele>1424.6</ele>
        <time>2018-09-02T07:12:04Z</time>
      </trkpt>
      <trkpt lat="43.00125" lon="-0.17231">
        <ele>1420.6</ele>
        <time>2018-09-02T07:12:05Z</time>
      </trkpt>
      <trkpt lat="43.00125" lon="-0.17222">
        <ele>1417</ele>
        <time>2018-09-02T07:12:06Z</time>
      </trkpt>
      <trkpt lat="43.00124" lon="-0.17216">
        <ele>1413.8</ele>
        <time>2018-09-02T07:12:07Z</time>
      </trkpt>
      <trkpt lat="43.00123" lon="-0.17211">
        <ele>1411.7</ele>
        <time>2018-09-02T07:12:08Z</time>
      </trkpt>
      <trkpt lat="43.00121" lon="-0.17208">
        <ele>1410.1</ele>
        <time>2018-09-02T07:12:09Z</time>
      </trkpt>
      <trkpt lat="43.00117" lon="-0.17207">
        <ele>1408.3</ele>
        <time>2018-09-02T07:12:10Z</time>
      </trkpt>
      <trkpt lat="43.00112" lon="-0.17205">
        <ele>1406.8</ele>
        <time>2018-09-02T07:12:11Z</time>
      </trkpt>
      <trkpt lat="43.00109" lon="-0.17202">
        <ele>1405.3</ele>
        <time>2018-09-02T07:12:12Z</time>
      </trkpt>
      <trkpt lat="43.00107" lon="-0.17198">
        <ele>1403.6</ele>
        <time>2018-09-02T07:12:13Z</time>
      </trkpt>
      <trkpt lat="43.00104" lon="-0.17194">
        <ele>1401.6</ele>
        <time>2018-09-02T07:12:14Z</time>
      </trkpt>
      <trkpt lat="43.00102" lon="-0.1719">
        <ele>1399.9</ele>
        <time>2018-09-02T07:12:15Z</time>
      </trkpt>
      <trkpt lat="43.001" lon="-0.17186">
        <ele>1398.3</ele>
        <time>2018-09-02T07:12:16Z</time>
      </trkpt>
      <trkpt lat="43.00099" lon="-0.1718">
        <ele>1396.1</ele>
        <time>2018-09-02T07:12:17Z</time>
      </trkpt>
      <trkpt lat="43.00098" lon="-0.17175">
        <ele>1393.9</ele>
        <time>2018-09-02T07:12:18Z</time>
      </trkpt>
      <trkpt lat="43.00097" lon="-0.17169">
        <ele>1391.6</ele>
        <time>2018-09-02T07:12:19Z</time>
      </trkpt>
      <trkpt lat="43.00094" lon="-0.17163">
        <ele>1389</ele>
        <time>2018-09-02T07:12:20Z</time>
      </trkpt>
      <trkpt lat="43.00092" lon="-0.17157">
        <ele>1387</ele>
        <time>2018-09-02T07:12:21Z</time>
      </trkpt>
      <trkpt lat="43.0009" lon="-0.17152">
        <ele>1385.1</ele>
        <time>2018-09-02T07:12:22Z</time>
      </trkpt>
      <trkpt lat="43.00087" lon="-0.17142">
        <ele>1381.8</ele>
        <time>2018-09-02T07:12:23Z</time>
      </trkpt>
      <trkpt lat="43.00084" lon="-0.17132">
        <ele>1378.8</ele>
        <time>2018-09-02T07:12:24Z</time>
      </trkpt>
      <trkpt lat="43.0008" lon="-0.17121">
        <ele>1376.1</ele>
        <time>2018-09-02T07:12:25Z</time>
      </trkpt>
      <trkpt lat="43.00079" lon="-0.17111">
        <ele>1373.7</ele>
        <time>2018-09-02T07:12:26Z</time>
      </trkpt>
      <trkpt lat="43.00077" lon="-0.17101">
        <ele>1372.1</ele>
        <time>2018-09-02T07:12:27Z</time>
      </trkpt>
      <trkpt lat="43.00074" lon="-0.17085">
        <ele>1369.8</ele>
        <time>2018-09-02T07:12:28Z</time>
      </trkpt>
      <trkpt lat="43.00075" lon="-0.17079">
        <ele>1368.1</ele>
        <time>2018-09-02T07:12:29Z</time>
      </trkpt>
      <trkpt lat="43.00077" lon="-0.17075">
        <ele>1366.4</ele>
        <time>2018-09-02T07:12:30Z</time>
      </trkpt>
      <trkpt lat="43.0008" lon="-0.1707">
        <ele>1364.2</ele>
        <time>2018-09-02T07:12:31Z</time>
      </trkpt>
      <trkpt lat="43.00083" lon="-0.17065">
        <ele>1362.1</ele>
        <time>2018-09-02T07:12:32Z</time>
      </trkpt>
      <trkpt lat="43.00086" lon="-0.17059">
        <ele>1359.9</ele>
        <time>2018-09-02T07:12:33Z</time>
      </trkpt>
      <trkpt lat="43.00089" lon="-0.17052">
        <ele>1357.6</ele>
        <time>2018-09-02T07:12:34Z</time>
      </trkpt>
      <trkpt lat="43.00093" lon="-0.17045">
        <ele>1355.4</ele>
        <time>2018-09-02T07:12:35Z</time>
      </trkpt>
      <trkpt lat="43.00097" lon="-0.1704">
        <ele>1353.4</ele>
        <time>2018-09-02T07:12:36Z</time>
      </trkpt>
      <trkpt lat="43.001" lon="-0.17036">
        <ele>1351.9</ele>
        <time>2018-09-02T07:12:37Z</time>
      </trkpt>
      <trkpt lat="43.001" lon="-0.17031">
        <ele>1350.7</ele>
        <time>2018-09-02T07:12:38Z</time>
      </trkpt>
      <trkpt lat="43.00101" lon="-0.17023">
        <ele>1349.1</ele>
        <time>2018-09-02T07:12:39Z</time>
      </trkpt>
      <trkpt lat="43.001" lon="-0.17016">
        <ele>1348</ele>
        <time>2018-09-02T07:12:40Z</time>
      </trkpt>
      <trkpt lat="43.00097" lon="-0.17009">
        <ele>1347.4</ele>
        <time>2018-09-02T07:12:41Z</time>
      </trkpt>
      <trkpt lat="43.00093" lon="-0.17003">
        <ele>1347.3</ele>
        <time>2018-09-02T07:12:42Z</time>
      </trkpt>
      <trkpt lat="43.00089" lon="-0.16997">
        <ele>1347.1</ele>
        <time>2018-09-02T07:12:43Z</time>
      </trkpt>
      <trkpt lat="43.00085" lon="-0.16993">
        <ele>1347.3</ele>
        <time>2018-09-02T07:12:44Z</time>
      </trkpt>
      <trkpt lat="43.0008" lon="-0.16987">
        <ele>1347.5</ele>
        <time>2018-09-02T07:12:45Z</time>
      </trkpt>
      <trkpt lat="43.00076" lon="-0.16981">
        <ele>1347.5</ele>
        <time>2018-09-02T07:12:46Z</time>
      </trkpt>
      <trkpt lat="43.00073" lon="-0.16974">
        <ele>1347.4</ele>
        <time>2018-09-02T07:12:47Z</time>
      </trkpt>
      <trkpt lat="43.0007" lon="-0.1697">
        <ele>1347.4</ele>
        <time>2018-09-02T07:12:48Z</time>
      </trkpt>
      <trkpt lat="43.00067" lon="-0.16965">
        <ele>1347.2</ele>
        <time>2018-09-02T07:12:49Z</time>
      </trkpt>
      <trkpt lat="43.00064" lon="-0.16959">
        <ele>1346.6</ele>
        <time>2018-09-02T07:12:50Z</time>
      </trkpt>
      <trkpt lat="43.00062" lon="-0.16952">
        <ele>1345.7</ele>
        <time>2018-09-02T07:12:51Z</time>
      </trkpt>
      <trkpt lat="43.0006" lon="-0.16947">
        <ele>1345.2</ele>
        <time>2018-09-02T07:12:52Z</time>
      </trkpt>
      <trkpt lat="43.00058" lon="-0.16941">
        <ele>1344.5</ele>
        <time>2018-09-02T07:12:53Z</time>
      </trkpt>
      <trkpt lat="43.00055" lon="-0.16937">
        <ele>1344.3</ele>
        <time>2018-09-02T07:12:54Z</time>
      </trkpt>
      <trkpt lat="43.00052" lon="-0.16931">
        <ele>1344</ele>
        <time>2018-09-02T07:12:55Z</time>
      </trkpt>
      <trkpt lat="43.00045" lon="-0.16917">
        <ele>1342.5</ele>
        <time>2018-09-02T07:12:57Z</time>
      </trkpt>
      <trkpt lat="43.00042" lon="-0.16909">
        <ele>1341.9</ele>
        <time>2018-09-02T07:12:58Z</time>
      </trkpt>
      <trkpt lat="43.0004" lon="-0.169">
        <ele>1341.1</ele>
        <time>2018-09-02T07:12:59Z</time>
      </trkpt>
      <trkpt lat="43.00037" lon="-0.16892">
        <ele>1340.5</ele>
        <time>2018-09-02T07:13:00Z</time>
      </trkpt>
      <trkpt lat="43.00035" lon="-0.16882">
        <ele>1340</ele>
        <time>2018-09-02T07:13:01Z</time>
      </trkpt>
      <trkpt lat="43.00036" lon="-0.16873">
        <ele>1338.9</ele>
        <time>2018-09-02T07:13:02Z</time>
      </trkpt>
      <trkpt lat="43.00038" lon="-0.16864">
        <ele>1337.7</ele>
        <time>2018-09-02T07:13:03Z</time>
      </trkpt>
      <trkpt lat="43.00039" lon="-0.16856">
        <ele>1337</ele>
        <time>2018-09-02T07:13:04Z</time>
      </trkpt>
      <trkpt lat="43.0004" lon="-0.16851">
        <ele>1336.7</ele>
        <time>2018-09-02T07:13:05Z</time>
      </trkpt>
      <trkpt lat="43.00041" lon="-0.16847">
        <ele>1336.4</ele>
        <time>2018-09-02T07:13:06Z</time>
      </trkpt>
      <trkpt lat="43.0004" lon="-0.16847">
        <ele>1336.5</ele>
        <time>2018-09-02T07:13:08Z</time>
      </trkpt>
      <trkpt lat="43.00039" lon="-0.1685">
        <ele>1336.9</ele>
        <time>2018-09-02T07:13:12Z</time>
      </trkpt>
      <trkpt lat="43.00037" lon="-0.16852">
        <ele>1337.6</ele>
        <time>2018-09-02T07:13:13Z</time>
      </trkpt>
      <trkpt lat="43.0003" lon="-0.16844">
        <ele>1340.8</ele>
        <time>2018-09-02T07:13:18Z</time>
      </trkpt>
      <trkpt lat="43.00027" lon="-0.16829">
        <ele>1343</ele>
        <time>2018-09-02T07:13:23Z</time>
      </trkpt>
      <trkpt lat="43.00028" lon="-0.16825">
        <ele>1342.9</ele>
        <time>2018-09-02T07:13:24Z</time>
      </trkpt>
      <trkpt lat="43.00028" lon="-0.16821">
        <ele>1343</ele>
        <time>2018-09-02T07:13:25Z</time>
      </trkpt>
      <trkpt lat="43.00029" lon="-0.16817">
        <ele>1343</ele>
        <time>2018-09-02T07:13:26Z</time>
      </trkpt>
      <trkpt lat="43.00031" lon="-0.16809">
        <ele>1342.8</ele>
        <time>2018-09-02T07:13:28Z</time>
      </trkpt>
      <trkpt lat="43.00035" lon="-0.16791">
        <ele>1342.1</ele>
        <time>2018-09-02T07:13:33Z</time>
      </trkpt>
      <trkpt lat="43.00036" lon="-0.16788">
        <ele>1341.9</ele>
        <time>2018-09-02T07:13:34Z</time>
      </trkpt>
      <trkpt lat="43.00036" lon="-0.16786">
        <ele>1341.8</ele>
        <time>2018-09-02T07:13:35Z</time>
      </trkpt>
      <trkpt lat="43.00036" lon="-0.16783">
        <ele>1341.8</ele>
        <time>2018-09-02T07:13:36Z</time>
      </trkpt>
      <trkpt lat="43.00037" lon="-0.16779">
        <ele>1341.7</ele>
        <time>2018-09-02T07:13:37Z</time>
      </trkpt>
      <trkpt lat="43.0004" lon="-0.16764">
        <ele>1341.1</ele>
        <time>2018-09-02T07:13:41Z</time>
      </trkpt>
      <trkpt lat="43.00042" lon="-0.16755">
        <ele>1340.9</ele>
        <time>2018-09-02T07:13:43Z</time>
      </trkpt>
      <trkpt lat="43.00042" lon="-0.16751">
        <ele>1341</ele>
        <time>2018-09-02T07:13:44Z</time>
      </trkpt>
      <trkpt lat="43.00043" lon="-0.16747">
        <ele>1341.2</ele>
        <time>2018-09-02T07:13:45Z</time>
      </trkpt>
      <trkpt lat="43.00043" lon="-0.16743">
        <ele>1341.2</ele>
        <time>2018-09-02T07:13:46Z</time>
      </trkpt>
      <trkpt lat="43.00044" lon="-0.16738">
        <ele>1341.3</ele>
        <time>2018-09-02T07:13:47Z</time>
      </trkpt>
      <trkpt lat="43.00045" lon="-0.16722">
        <ele>1341.6</ele>
        <time>2018-09-02T07:13:50Z</time>
      </trkpt>
      <trkpt lat="43.00044" lon="-0.16696">
        <ele>1343.4</ele>
        <time>2018-09-02T07:13:55Z</time>
      </trkpt>
      <trkpt lat="43.00042" lon="-0.16687">
        <ele>1344.4</ele>
        <time>2018-09-02T07:13:58Z</time>
      </trkpt>
      <trkpt lat="43.00041" lon="-0.16685">
        <ele>1344.7</ele>
        <time>2018-09-02T07:13:59Z</time>
      </trkpt>
      <trkpt lat="43.00041" lon="-0.16683">
        <ele>1344.8</ele>
        <time>2018-09-02T07:14:00Z</time>
      </trkpt>
      <trkpt lat="43.00041" lon="-0.1668">
        <ele>1344.6</ele>
        <time>2018-09-02T07:14:01Z</time>
      </trkpt>
      <trkpt lat="43.0004" lon="-0.16678">
        <ele>1344.9</ele>
        <time>2018-09-02T07:14:02Z</time>
      </trkpt>
      <trkpt lat="43.0004" lon="-0.16675">
        <ele>1345</ele>
        <time>2018-09-02T07:14:03Z</time>
      </trkpt>
      <trkpt lat="43.0004" lon="-0.16673">
        <ele>1345.1</ele>
        <time>2018-09-02T07:14:04Z</time>
      </trkpt>
      <trkpt lat="43.0004" lon="-0.16671">
        <ele>1345.2</ele>
        <time>2018-09-02T07:14:05Z</time>
      </trkpt>
      <trkpt lat="43.00039" lon="-0.16668">
        <ele>1345.3</ele>
        <time>2018-09-02T07:14:06Z</time>
      </trkpt>
      <trkpt lat="43.00039" lon="-0.16665">
        <ele>1345.3</ele>
        <time>2018-09-02T07:14:07Z</time>
      </trkpt>
      <trkpt lat="43.00039" lon="-0.16652">
        <ele>1344.9</ele>
        <time>2018-09-02T07:14:11Z</time>
      </trkpt>
      <trkpt lat="43.00039" lon="-0.16649">
        <ele>1345</ele>
        <time>2018-09-02T07:14:12Z</time>
      </trkpt>
      <trkpt lat="43.00039" lon="-0.16646">
        <ele>1344.8</ele>
        <time>2018-09-02T07:14:13Z</time>
      </trkpt>
      <trkpt lat="43.00039" lon="-0.16644">
        <ele>1344.9</ele>
        <time>2018-09-02T07:14:14Z</time>
      </trkpt>
      <trkpt lat="43.00038" lon="-0.16641">
        <ele>1345.1</ele>
        <time>2018-09-02T07:14:15Z</time>
      </trkpt>
      <trkpt lat="43.00037" lon="-0.16639">
        <ele>1345.5</ele>
        <time>2018-09-02T07:14:16Z</time>
      </trkpt>
      <trkpt lat="43.00036" lon="-0.16637">
        <ele>1346</ele>
        <time>2018-09-02T07:14:17Z</time>
      </trkpt>
      <trkpt lat="43.00031" lon="-0.16629">
        <ele>1347.9</ele>
        <time>2018-09-02T07:14:21Z</time>
      </trkpt>
      <trkpt lat="43.00029" lon="-0.16627">
        <ele>1348.6</ele>
        <time>2018-09-02T07:14:22Z</time>
      </trkpt>
      <trkpt lat="43.00027" lon="-0.16625">
        <ele>1349.3</ele>
        <time>2018-09-02T07:14:23Z</time>
      </trkpt>
      <trkpt lat="43.00026" lon="-0.16623">
        <ele>1349.9</ele>
        <time>2018-09-02T07:14:24Z</time>
      </trkpt>
      <trkpt lat="43.00025" lon="-0.1662">
        <ele>1350.5</ele>
        <time>2018-09-02T07:14:25Z</time>
      </trkpt>
      <trkpt lat="43.00023" lon="-0.16615">
        <ele>1350.9</ele>
        <time>2018-09-02T07:14:27Z</time>
      </trkpt>
      <trkpt lat="43.00023" lon="-0.16613">
        <ele>1351.1</ele>
        <time>2018-09-02T07:14:28Z</time>
      </trkpt>
      <trkpt lat="43.00022" lon="-0.16611">
        <ele>1351.3</ele>
        <time>2018-09-02T07:14:29Z</time>
      </trkpt>
      <trkpt lat="43.00021" lon="-0.16609">
        <ele>1351.6</ele>
        <time>2018-09-02T07:14:30Z</time>
      </trkpt>
      <trkpt lat="43.0002" lon="-0.16607">
        <ele>1351.7</ele>
        <time>2018-09-02T07:14:31Z</time>
      </trkpt>
      <trkpt lat="43.00019" lon="-0.16604">
        <ele>1352</ele>
        <time>2018-09-02T07:14:32Z</time>
      </trkpt>
      <trkpt lat="43.00018" lon="-0.16601">
        <ele>1352.4</ele>
        <time>2018-09-02T07:14:33Z</time>
      </trkpt>
      <trkpt lat="43.00014" lon="-0.16591">
        <ele>1353.2</ele>
        <time>2018-09-02T07:14:37Z</time>
      </trkpt>
      <trkpt lat="43.00012" lon="-0.16588">
        <ele>1353.6</ele>
        <time>2018-09-02T07:14:38Z</time>
      </trkpt>
      <trkpt lat="43.00011" lon="-0.16585">
        <ele>1354.1</ele>
        <time>2018-09-02T07:14:39Z</time>
      </trkpt>
      <trkpt lat="43.00009" lon="-0.16583">
        <ele>1354.6</ele>
        <time>2018-09-02T07:14:40Z</time>
      </trkpt>
      <trkpt lat="43.00002" lon="-0.16573">
        <ele>1357.1</ele>
        <time>2018-09-02T07:14:45Z</time>
      </trkpt>
      <trkpt lat="43.00001" lon="-0.16571">
        <ele>1357.8</ele>
        <time>2018-09-02T07:14:46Z</time>
      </trkpt>
      <trkpt lat="43" lon="-0.16569">
        <ele>1358</ele>
        <time>2018-09-02T07:14:47Z</time>
      </trkpt>
      <trkpt lat="42.99999" lon="-0.16568">
        <ele>1358.5</ele>
        <time>2018-09-02T07:14:48Z</time>
      </trkpt>
      <trkpt lat="42.99998" lon="-0.16566">
        <ele>1358.7</ele>
        <time>2018-09-02T07:14:49Z</time>
      </trkpt>
      <trkpt lat="42.99997" lon="-0.16563">
        <ele>1359.1</ele>
        <time>2018-09-02T07:14:50Z</time>
      </trkpt>
      <trkpt lat="42.99995" lon="-0.16561">
        <ele>1359.5</ele>
        <time>2018-09-02T07:14:51Z</time>
      </trkpt>
      <trkpt lat="42.99994" lon="-0.1656">
        <ele>1359.9</ele>
        <time>2018-09-02T07:14:52Z</time>
      </trkpt>
      <trkpt lat="42.99993" lon="-0.16558">
        <ele>1360.4</ele>
        <time>2018-09-02T07:14:53Z</time>
      </trkpt>
      <trkpt lat="42.99992" lon="-0.16557">
        <ele>1361</ele>
        <time>2018-09-02T07:14:54Z</time>
      </trkpt>
      <trkpt lat="42.99991" lon="-0.16555">
        <ele>1361.2</ele>
        <time>2018-09-02T07:14:55Z</time>
      </trkpt>
      <trkpt lat="42.99989" lon="-0.16552">
        <ele>1361.7</ele>
        <time>2018-09-02T07:14:57Z</time>
      </trkpt>
      <trkpt lat="42.99988" lon="-0.16551">
        <ele>1362</ele>
        <time>2018-09-02T07:14:58Z</time>
      </trkpt>
      <trkpt lat="42.99987" lon="-0.1655">
        <ele>1362.4</ele>
        <time>2018-09-02T07:14:59Z</time>
      </trkpt>
      <trkpt lat="42.99985" lon="-0.16548">
        <ele>1362.9</ele>
        <time>2018-09-02T07:15:00Z</time>
      </trkpt>
      <trkpt lat="42.99984" lon="-0.16547">
        <ele>1363.3</ele>
        <time>2018-09-02T07:15:01Z</time>
      </trkpt>
      <trkpt lat="42.99983" lon="-0.16546">
        <ele>1363.5</ele>
        <time>2018-09-02T07:15:02Z</time>
      </trkpt>
      <trkpt lat="42.99982" lon="-0.16544">
        <ele>1363.9</ele>
        <time>2018-09-02T07:15:03Z</time>
      </trkpt>
      <trkpt lat="42.99981" lon="-0.16543">
        <ele>1364.2</ele>
        <time>2018-09-02T07:15:04Z</time>
      </trkpt>
      <trkpt lat="42.9998" lon="-0.16541">
        <ele>1364.7</ele>
        <time>2018-09-02T07:15:06Z</time>
      </trkpt>
      <trkpt lat="42.99978" lon="-0.1654">
        <ele>1365.2</ele>
        <time>2018-09-02T07:15:07Z</time>
      </trkpt>
      <trkpt lat="42.99977" lon="-0.16538">
        <ele>1365.5</ele>
        <time>2018-09-02T07:15:08Z</time>
      </trkpt>
      <trkpt lat="42.99974" lon="-0.16535">
        <ele>1366.8</ele>
        <time>2018-09-02T07:15:10Z</time>
      </trkpt>
      <trkpt lat="42.99971" lon="-0.16532">
        <ele>1367.8</ele>
        <time>2018-09-02T07:15:12Z</time>
      </trkpt>
      <trkpt lat="42.99969" lon="-0.16531">
        <ele>1368.1</ele>
        <time>2018-09-02T07:15:13Z</time>
      </trkpt>
      <trkpt lat="42.99968" lon="-0.1653">
        <ele>1368.3</ele>
        <time>2018-09-02T07:15:14Z</time>
      </trkpt>
      <trkpt lat="42.99967" lon="-0.16528">
        <ele>1368.2</ele>
        <time>2018-09-02T07:15:15Z</time>
      </trkpt>
      <trkpt lat="42.99967" lon="-0.16527">
        <ele>1368.2</ele>
        <time>2018-09-02T07:15:16Z</time>
      </trkpt>
      <trkpt lat="42.99965" lon="-0.16526">
        <ele>1368.6</ele>
        <time>2018-09-02T07:15:17Z</time>
      </trkpt>
      <trkpt lat="42.99962" lon="-0.16519">
        <ele>1368.5</ele>
        <time>2018-09-02T07:15:20Z</time>
      </trkpt>
      <trkpt lat="42.99961" lon="-0.16517">
        <ele>1368.5</ele>
        <time>2018-09-02T07:15:21Z</time>
      </trkpt>
      <trkpt lat="42.9996" lon="-0.16515">
        <ele>1368.4</ele>
        <time>2018-09-02T07:15:22Z</time>
      </trkpt>
      <trkpt lat="42.99959" lon="-0.16512">
        <ele>1368.4</ele>
        <time>2018-09-02T07:15:23Z</time>
      </trkpt>
      <trkpt lat="42.99958" lon="-0.16511">
        <ele>1368.5</ele>
        <time>2018-09-02T07:15:24Z</time>
      </trkpt>
      <trkpt lat="42.99954" lon="-0.16503">
        <ele>1368.5</ele>
        <time>2018-09-02T07:15:28Z</time>
      </trkpt>
      <trkpt lat="42.99953" lon="-0.16501">
        <ele>1368.5</ele>
        <time>2018-09-02T07:15:29Z</time>
      </trkpt>
      <trkpt lat="42.99952" lon="-0.16499">
        <ele>1368.5</ele>
        <time>2018-09-02T07:15:30Z</time>
      </trkpt>
      <trkpt lat="42.99951" lon="-0.16496">
        <ele>1368.3</ele>
        <time>2018-09-02T07:15:31Z</time>
      </trkpt>
      <trkpt lat="42.9995" lon="-0.16493">
        <ele>1368.4</ele>
        <time>2018-09-02T07:15:32Z</time>
      </trkpt>
      <trkpt lat="42.99948" lon="-0.16485">
        <ele>1368</ele>
        <time>2018-09-02T07:15:35Z</time>
      </trkpt>
      <trkpt lat="42.99946" lon="-0.16477">
        <ele>1367.2</ele>
        <time>2018-09-02T07:15:38Z</time>
      </trkpt>
      <trkpt lat="42.99944" lon="-0.16473">
        <ele>1367.2</ele>
        <time>2018-09-02T07:15:39Z</time>
      </trkpt>
      <trkpt lat="42.99943" lon="-0.16469">
        <ele>1367.4</ele>
        <time>2018-09-02T07:15:40Z</time>
      </trkpt>
      <trkpt lat="42.99942" lon="-0.16467">
        <ele>1367.5</ele>
        <time>2018-09-02T07:15:41Z</time>
      </trkpt>
      <trkpt lat="42.99941" lon="-0.16463">
        <ele>1367.8</ele>
        <time>2018-09-02T07:15:42Z</time>
      </trkpt>
      <trkpt lat="42.9994" lon="-0.16461">
        <ele>1367.9</ele>
        <time>2018-09-02T07:15:43Z</time>
      </trkpt>
      <trkpt lat="42.99939" lon="-0.16457">
        <ele>1367.8</ele>
        <time>2018-09-02T07:15:45Z</time>
      </trkpt>
      <trkpt lat="42.99939" lon="-0.16454">
        <ele>1367.8</ele>
        <time>2018-09-02T07:15:46Z</time>
      </trkpt>
      <trkpt lat="42.99939" lon="-0.16452">
        <ele>1367.5</ele>
        <time>2018-09-02T07:15:47Z</time>
      </trkpt>
      <trkpt lat="42.99939" lon="-0.1645">
        <ele>1367.4</ele>
        <time>2018-09-02T07:15:48Z</time>
      </trkpt>
      <trkpt lat="42.99938" lon="-0.16448">
        <ele>1367.4</ele>
        <time>2018-09-02T07:15:49Z</time>
      </trkpt>
      <trkpt lat="42.99936" lon="-0.16442">
        <ele>1368.3</ele>
        <time>2018-09-02T07:15:51Z</time>
      </trkpt>
      <trkpt lat="42.99935" lon="-0.1644">
        <ele>1368.9</ele>
        <time>2018-09-02T07:15:52Z</time>
      </trkpt>
      <trkpt lat="42.99934" lon="-0.16437">
        <ele>1369.2</ele>
        <time>2018-09-02T07:15:53Z</time>
      </trkpt>
      <trkpt lat="42.99933" lon="-0.16435">
        <ele>1369.6</ele>
        <time>2018-09-02T07:15:54Z</time>
      </trkpt>
      <trkpt lat="42.99933" lon="-0.16432">
        <ele>1369.8</ele>
        <time>2018-09-02T07:15:55Z</time>
      </trkpt>
      <trkpt lat="42.99931" lon="-0.16426">
        <ele>1370.6</ele>
        <time>2018-09-02T07:15:57Z</time>
      </trkpt>
      <trkpt lat="42.9993" lon="-0.16414">
        <ele>1371.2</ele>
        <time>2018-09-02T07:16:00Z</time>
      </trkpt>
      <trkpt lat="42.9993" lon="-0.1641">
        <ele>1371.4</ele>
        <time>2018-09-02T07:16:01Z</time>
      </trkpt>
      <trkpt lat="42.9993" lon="-0.16408">
        <ele>1371.4</ele>
        <time>2018-09-02T07:16:02Z</time>
      </trkpt>
      <trkpt lat="42.9993" lon="-0.16405">
        <ele>1371.9</ele>
        <time>2018-09-02T07:16:03Z</time>
      </trkpt>
      <trkpt lat="42.99929" lon="-0.16403">
        <ele>1372.4</ele>
        <time>2018-09-02T07:16:04Z</time>
      </trkpt>
      <trkpt lat="42.99928" lon="-0.164">
        <ele>1372.8</ele>
        <time>2018-09-02T07:16:05Z</time>
      </trkpt>
      <trkpt lat="42.99927" lon="-0.16389">
        <ele>1373.7</ele>
        <time>2018-09-02T07:16:09Z</time>
      </trkpt>
      <trkpt lat="42.9993" lon="-0.1638">
        <ele>1372.7</ele>
        <time>2018-09-02T07:16:12Z</time>
      </trkpt>
      <trkpt lat="42.99932" lon="-0.16351">
        <ele>1371.8</ele>
        <time>2018-09-02T07:16:17Z</time>
      </trkpt>
      <trkpt lat="42.99931" lon="-0.16326">
        <ele>1372.3</ele>
        <time>2018-09-02T07:16:21Z</time>
      </trkpt>
      <trkpt lat="42.99927" lon="-0.16299">
        <ele>1375</ele>
        <time>2018-09-02T07:16:26Z</time>
      </trkpt>
      <trkpt lat="42.99925" lon="-0.16281">
        <ele>1376.1</ele>
        <time>2018-09-02T07:16:29Z</time>
      </trkpt>
      <trkpt lat="42.99924" lon="-0.16276">
        <ele>1376.3</ele>
        <time>2018-09-02T07:16:30Z</time>
      </trkpt>
      <trkpt lat="42.99925" lon="-0.16269">
        <ele>1375.3</ele>
        <time>2018-09-02T07:16:31Z</time>
      </trkpt>
      <trkpt lat="42.99924" lon="-0.16262">
        <ele>1374.8</ele>
        <time>2018-09-02T07:16:32Z</time>
      </trkpt>
      <trkpt lat="42.99924" lon="-0.16257">
        <ele>1374.7</ele>
        <time>2018-09-02T07:16:33Z</time>
      </trkpt>
      <trkpt lat="42.99922" lon="-0.16247">
        <ele>1374.6</ele>
        <time>2018-09-02T07:16:35Z</time>
      </trkpt>
      <trkpt lat="42.99922" lon="-0.16243">
        <ele>1374.2</ele>
        <time>2018-09-02T07:16:36Z</time>
      </trkpt>
      <trkpt lat="42.99922" lon="-0.16239">
        <ele>1374</ele>
        <time>2018-09-02T07:16:37Z</time>
      </trkpt>
      <trkpt lat="42.99922" lon="-0.16234">
        <ele>1373.5</ele>
        <time>2018-09-02T07:16:38Z</time>
      </trkpt>
      <trkpt lat="42.99921" lon="-0.16227">
        <ele>1373.1</ele>
        <time>2018-09-02T07:16:39Z</time>
      </trkpt>
      <trkpt lat="42.99921" lon="-0.16222">
        <ele>1372.6</ele>
        <time>2018-09-02T07:16:40Z</time>
      </trkpt>
      <trkpt lat="42.99918" lon="-0.16213">
        <ele>1372.8</ele>
        <time>2018-09-02T07:16:42Z</time>
      </trkpt>
      <trkpt lat="42.99915" lon="-0.16206">
        <ele>1373.2</ele>
        <time>2018-09-02T07:16:44Z</time>
      </trkpt>
      <trkpt lat="42.99913" lon="-0.162">
        <ele>1373.2</ele>
        <time>2018-09-02T07:16:45Z</time>
      </trkpt>
      <trkpt lat="42.99911" lon="-0.16193">
        <ele>1373.1</ele>
        <time>2018-09-02T07:16:46Z</time>
      </trkpt>
      <trkpt lat="42.9991" lon="-0.16183">
        <ele>1372</ele>
        <time>2018-09-02T07:16:47Z</time>
      </trkpt>
      <trkpt lat="42.99908" lon="-0.16174">
        <ele>1371.3</ele>
        <time>2018-09-02T07:16:48Z</time>
      </trkpt>
      <trkpt lat="42.99907" lon="-0.16165">
        <ele>1370.6</ele>
        <time>2018-09-02T07:16:49Z</time>
      </trkpt>
      <trkpt lat="42.99907" lon="-0.16156">
        <ele>1368.8</ele>
        <time>2018-09-02T07:16:50Z</time>
      </trkpt>
      <trkpt lat="42.99907" lon="-0.16149">
        <ele>1366.9</ele>
        <time>2018-09-02T07:16:51Z</time>
      </trkpt>
      <trkpt lat="42.99907" lon="-0.16143">
        <ele>1365.8</ele>
        <time>2018-09-02T07:16:52Z</time>
      </trkpt>
      <trkpt lat="42.99907" lon="-0.1614">
        <ele>1365.5</ele>
        <time>2018-09-02T07:16:53Z</time>
      </trkpt>
      <trkpt lat="42.99905" lon="-0.16138">
        <ele>1365.9</ele>
        <time>2018-09-02T07:16:54Z</time>
      </trkpt>
      <trkpt lat="42.99905" lon="-0.16125">
        <ele>1363.5</ele>
        <time>2018-09-02T07:16:57Z</time>
      </trkpt>
      <trkpt lat="42.99904" lon="-0.1612">
        <ele>1362.7</ele>
        <time>2018-09-02T07:16:58Z</time>
      </trkpt>
      <trkpt lat="42.99904" lon="-0.16113">
        <ele>1361.9</ele>
        <time>2018-09-02T07:16:59Z</time>
      </trkpt>
      <trkpt lat="42.99904" lon="-0.16107">
        <ele>1361.1</ele>
        <time>2018-09-02T07:17:00Z</time>
      </trkpt>
      <trkpt lat="42.99904" lon="-0.161">
        <ele>1360.1</ele>
        <time>2018-09-02T07:17:01Z</time>
      </trkpt>
      <trkpt lat="42.99903" lon="-0.16093">
        <ele>1359.8</ele>
        <time>2018-09-02T07:17:02Z</time>
      </trkpt>
      <trkpt lat="42.99902" lon="-0.16084">
        <ele>1359.3</ele>
        <time>2018-09-02T07:17:03Z</time>
      </trkpt>
      <trkpt lat="42.999" lon="-0.16067">
        <ele>1360.2</ele>
        <time>2018-09-02T07:17:05Z</time>
      </trkpt>
      <trkpt lat="42.99899" lon="-0.16058">
        <ele>1360.6</ele>
        <time>2018-09-02T07:17:06Z</time>
      </trkpt>
      <trkpt lat="42.99898" lon="-0.1605">
        <ele>1360.9</ele>
        <time>2018-09-02T07:17:07Z</time>
      </trkpt>
      <trkpt lat="42.99896" lon="-0.1604">
        <ele>1361.3</ele>
        <time>2018-09-02T07:17:08Z</time>
      </trkpt>
      <trkpt lat="42.99895" lon="-0.16029">
        <ele>1361.5</ele>
        <time>2018-09-02T07:17:09Z</time>
      </trkpt>
      <trkpt lat="42.99892" lon="-0.1602">
        <ele>1361.7</ele>
        <time>2018-09-02T07:17:10Z</time>
      </trkpt>
      <trkpt lat="42.99891" lon="-0.16012">
        <ele>1361.5</ele>
        <time>2018-09-02T07:17:11Z</time>
      </trkpt>
      <trkpt lat="42.9989" lon="-0.16005">
        <ele>1361.2</ele>
        <time>2018-09-02T07:17:12Z</time>
      </trkpt>
      <trkpt lat="42.99888" lon="-0.15973">
        <ele>1358.5</ele>
        <time>2018-09-02T07:17:16Z</time>
      </trkpt>
      <trkpt lat="42.99885" lon="-0.15955">
        <ele>1356.8</ele>
        <time>2018-09-02T07:17:18Z</time>
      </trkpt>
      <trkpt lat="42.99883" lon="-0.15947">
        <ele>1356.1</ele>
        <time>2018-09-02T07:17:19Z</time>
      </trkpt>
      <trkpt lat="42.99881" lon="-0.15939">
        <ele>1355.1</ele>
        <time>2018-09-02T07:17:20Z</time>
      </trkpt>
      <trkpt lat="42.99878" lon="-0.1593">
        <ele>1353.8</ele>
        <time>2018-09-02T07:17:21Z</time>
      </trkpt>
      <trkpt lat="42.99874" lon="-0.15922">
        <ele>1352.9</ele>
        <time>2018-09-02T07:17:22Z</time>
      </trkpt>
      <trkpt lat="42.9987" lon="-0.15915">
        <ele>1352.2</ele>
        <time>2018-09-02T07:17:23Z</time>
      </trkpt>
      <trkpt lat="42.99866" lon="-0.1591">
        <ele>1351.7</ele>
        <time>2018-09-02T07:17:24Z</time>
      </trkpt>
      <trkpt lat="42.99862" lon="-0.15907">
        <ele>1351.4</ele>
        <time>2018-09-02T07:17:25Z</time>
      </trkpt>
      <trkpt lat="42.9986" lon="-0.15905">
        <ele>1351.1</ele>
        <time>2018-09-02T07:17:26Z</time>
      </trkpt>
      <trkpt lat="42.99858" lon="-0.15903">
        <ele>1350.6</ele>
        <time>2018-09-02T07:17:27Z</time>
      </trkpt>
      <trkpt lat="42.99845" lon="-0.15901">
        <ele>1350.7</ele>
        <time>2018-09-02T07:17:31Z</time>
      </trkpt>
      <trkpt lat="42.9984" lon="-0.15901">
        <ele>1350.7</ele>
        <time>2018-09-02T07:17:32Z</time>
      </trkpt>
      <trkpt lat="42.99834" lon="-0.15898">
        <ele>1350.3</ele>
        <time>2018-09-02T07:17:33Z</time>
      </trkpt>
      <trkpt lat="42.99828" lon="-0.15896">
        <ele>1349.6</ele>
        <time>2018-09-02T07:17:34Z</time>
      </trkpt>
      <trkpt lat="42.99822" lon="-0.15891">
        <ele>1348.5</ele>
        <time>2018-09-02T07:17:35Z</time>
      </trkpt>
      <trkpt lat="42.9982" lon="-0.15884">
        <ele>1347.4</ele>
        <time>2018-09-02T07:17:36Z</time>
      </trkpt>
      <trkpt lat="42.99821" lon="-0.15875">
        <ele>1346.5</ele>
        <time>2018-09-02T07:17:37Z</time>
      </trkpt>
      <trkpt lat="42.99822" lon="-0.15866">
        <ele>1345.3</ele>
        <time>2018-09-02T07:17:38Z</time>
      </trkpt>
      <trkpt lat="42.99823" lon="-0.15856">
        <ele>1344.8</ele>
        <time>2018-09-02T07:17:39Z</time>
      </trkpt>
      <trkpt lat="42.99825" lon="-0.15847">
        <ele>1344.8</ele>
        <time>2018-09-02T07:17:40Z</time>
      </trkpt>
      <trkpt lat="42.99826" lon="-0.15839">
        <ele>1344.8</ele>
        <time>2018-09-02T07:17:41Z</time>
      </trkpt>
      <trkpt lat="42.99827" lon="-0.15832">
        <ele>1344.8</ele>
        <time>2018-09-02T07:17:42Z</time>
      </trkpt>
      <trkpt lat="42.99829" lon="-0.15826">
        <ele>1344.9</ele>
        <time>2018-09-02T07:17:43Z</time>
      </trkpt>
      <trkpt lat="42.99835" lon="-0.15813">
        <ele>1344.3</ele>
        <time>2018-09-02T07:17:45Z</time>
      </trkpt>
      <trkpt lat="42.99843" lon="-0.15797">
        <ele>1342.6</ele>
        <time>2018-09-02T07:17:47Z</time>
      </trkpt>
      <trkpt lat="42.99848" lon="-0.15787">
        <ele>1341.9</ele>
        <time>2018-09-02T07:17:48Z</time>
      </trkpt>
      <trkpt lat="42.99851" lon="-0.15777">
        <ele>1341.6</ele>
        <time>2018-09-02T07:17:49Z</time>
      </trkpt>
      <trkpt lat="42.99853" lon="-0.15766">
        <ele>1341.8</ele>
        <time>2018-09-02T07:17:50Z</time>
      </trkpt>
      <trkpt lat="42.99855" lon="-0.15755">
        <ele>1342</ele>
        <time>2018-09-02T07:17:51Z</time>
      </trkpt>
      <trkpt lat="42.99857" lon="-0.15744">
        <ele>1342.5</ele>
        <time>2018-09-02T07:17:52Z</time>
      </trkpt>
      <trkpt lat="42.99859" lon="-0.15732">
        <ele>1343.3</ele>
        <time>2018-09-02T07:17:53Z</time>
      </trkpt>
      <trkpt lat="42.99863" lon="-0.15721">
        <ele>1343.4</ele>
        <time>2018-09-02T07:17:54Z</time>
      </trkpt>
      <trkpt lat="42.99868" lon="-0.1571">
        <ele>1342.6</ele>
        <time>2018-09-02T07:17:55Z</time>
      </trkpt>
      <trkpt lat="42.99873" lon="-0.15697">
        <ele>1341.7</ele>
        <time>2018-09-02T07:17:56Z</time>
      </trkpt>
      <trkpt lat="42.99878" lon="-0.15685">
        <ele>1340.6</ele>
        <time>2018-09-02T07:17:57Z</time>
      </trkpt>
      <trkpt lat="42.99883" lon="-0.15672">
        <ele>1339.5</ele>
        <time>2018-09-02T07:17:58Z</time>
      </trkpt>
      <trkpt lat="42.99888" lon="-0.15658">
        <ele>1338.4</ele>
        <time>2018-09-02T07:17:59Z</time>
      </trkpt>
      <trkpt lat="42.99893" lon="-0.15644">
        <ele>1337.1</ele>
        <time>2018-09-02T07:18:00Z</time>
      </trkpt>
      <trkpt lat="42.99898" lon="-0.15629">
        <ele>1335.7</ele>
        <time>2018-09-02T07:18:01Z</time>
      </trkpt>
      <trkpt lat="42.99902" lon="-0.15614">
        <ele>1334.1</ele>
        <time>2018-09-02T07:18:02Z</time>
      </trkpt>
      <trkpt lat="42.99907" lon="-0.15599">
        <ele>1332.3</ele>
        <time>2018-09-02T07:18:03Z</time>
      </trkpt>
      <trkpt lat="42.99912" lon="-0.15584">
        <ele>1330.2</ele>
        <time>2018-09-02T07:18:04Z</time>
      </trkpt>
      <trkpt lat="42.99917" lon="-0.15569">
        <ele>1327.7</ele>
        <time>2018-09-02T07:18:05Z</time>
      </trkpt>
      <trkpt lat="42.99922" lon="-0.15555">
        <ele>1325.5</ele>
        <time>2018-09-02T07:18:06Z</time>
      </trkpt>
      <trkpt lat="42.99927" lon="-0.1554">
        <ele>1324.1</ele>
        <time>2018-09-02T07:18:07Z</time>
      </trkpt>
      <trkpt lat="42.99932" lon="-0.15524">
        <ele>1323</ele>
        <time>2018-09-02T07:18:08Z</time>
      </trkpt>
      <trkpt lat="42.99937" lon="-0.15509">
        <ele>1322.1</ele>
        <time>2018-09-02T07:18:09Z</time>
      </trkpt>
      <trkpt lat="42.99941" lon="-0.15494">
        <ele>1321.3</ele>
        <time>2018-09-02T07:18:10Z</time>
      </trkpt>
      <trkpt lat="42.99945" lon="-0.15478">
        <ele>1321.6</ele>
        <time>2018-09-02T07:18:11Z</time>
      </trkpt>
      <trkpt lat="42.99949" lon="-0.15462">
        <ele>1322.7</ele>
        <time>2018-09-02T07:18:12Z</time>
      </trkpt>
      <trkpt lat="42.9995" lon="-0.15446">
        <ele>1324.3</ele>
        <time>2018-09-02T07:18:13Z</time>
      </trkpt>
      <trkpt lat="42.99952" lon="-0.1543">
        <ele>1324.4</ele>
        <time>2018-09-02T07:18:14Z</time>
      </trkpt>
      <trkpt lat="42.99953" lon="-0.15414">
        <ele>1324.3</ele>
        <time>2018-09-02T07:18:15Z</time>
      </trkpt>
      <trkpt lat="42.99956" lon="-0.154">
        <ele>1323.2</ele>
        <time>2018-09-02T07:18:16Z</time>
      </trkpt>
      <trkpt lat="42.99958" lon="-0.15385">
        <ele>1322</ele>
        <time>2018-09-02T07:18:17Z</time>
      </trkpt>
      <trkpt lat="42.99961" lon="-0.1537">
        <ele>1320.5</ele>
        <time>2018-09-02T07:18:18Z</time>
      </trkpt>
      <trkpt lat="42.99964" lon="-0.15356">
        <ele>1318.5</ele>
        <time>2018-09-02T07:18:20Z</time>
      </trkpt>
      <trkpt lat="42.99967" lon="-0.15341">
        <ele>1317.1</ele>
        <time>2018-09-02T07:18:21Z</time>
      </trkpt>
      <trkpt lat="42.9997" lon="-0.15327">
        <ele>1316</ele>
        <time>2018-09-02T07:18:22Z</time>
      </trkpt>
      <trkpt lat="42.99972" lon="-0.15312">
        <ele>1315.4</ele>
        <time>2018-09-02T07:18:23Z</time>
      </trkpt>
      <trkpt lat="42.99974" lon="-0.15297">
        <ele>1315.4</ele>
        <time>2018-09-02T07:18:24Z</time>
      </trkpt>
      <trkpt lat="42.99975" lon="-0.15283">
        <ele>1316</ele>
        <time>2018-09-02T07:18:25Z</time>
      </trkpt>
      <trkpt lat="42.99976" lon="-0.15268">
        <ele>1316.3</ele>
        <time>2018-09-02T07:18:26Z</time>
      </trkpt>
      <trkpt lat="42.99979" lon="-0.15253">
        <ele>1316</ele>
        <time>2018-09-02T07:18:27Z</time>
      </trkpt>
      <trkpt lat="42.99983" lon="-0.1524">
        <ele>1315</ele>
        <time>2018-09-02T07:18:28Z</time>
      </trkpt>
      <trkpt lat="42.99988" lon="-0.15228">
        <ele>1313.3</ele>
        <time>2018-09-02T07:18:29Z</time>
      </trkpt>
      <trkpt lat="42.99995" lon="-0.15217">
        <ele>1310.4</ele>
        <time>2018-09-02T07:18:30Z</time>
      </trkpt>
      <trkpt lat="43.00001" lon="-0.15206">
        <ele>1308.6</ele>
        <time>2018-09-02T07:18:31Z</time>
      </trkpt>
      <trkpt lat="43.00004" lon="-0.15196">
        <ele>1307.8</ele>
        <time>2018-09-02T07:18:32Z</time>
      </trkpt>
      <trkpt lat="43.00006" lon="-0.15185">
        <ele>1308.6</ele>
        <time>2018-09-02T07:18:33Z</time>
      </trkpt>
      <trkpt lat="43.00007" lon="-0.15175">
        <ele>1309.5</ele>
        <time>2018-09-02T07:18:34Z</time>
      </trkpt>
      <trkpt lat="43.00008" lon="-0.15165">
        <ele>1310.3</ele>
        <time>2018-09-02T07:18:35Z</time>
      </trkpt>
      <trkpt lat="43.00008" lon="-0.15156">
        <ele>1311.2</ele>
        <time>2018-09-02T07:18:36Z</time>
      </trkpt>
      <trkpt lat="43.00008" lon="-0.15148">
        <ele>1311.9</ele>
        <time>2018-09-02T07:18:37Z</time>
      </trkpt>
      <trkpt lat="43.00008" lon="-0.15139">
        <ele>1312.8</ele>
        <time>2018-09-02T07:18:38Z</time>
      </trkpt>
      <trkpt lat="43.00009" lon="-0.15131">
        <ele>1313.8</ele>
        <time>2018-09-02T07:18:39Z</time>
      </trkpt>
      <trkpt lat="43.00009" lon="-0.15123">
        <ele>1314.9</ele>
        <time>2018-09-02T07:18:40Z</time>
      </trkpt>
      <trkpt lat="43.00011" lon="-0.15115">
        <ele>1315.1</ele>
        <time>2018-09-02T07:18:41Z</time>
      </trkpt>
      <trkpt lat="43.00016" lon="-0.15093">
        <ele>1314.7</ele>
        <time>2018-09-02T07:18:44Z</time>
      </trkpt>
      <trkpt lat="43.00017" lon="-0.15086">
        <ele>1315</ele>
        <time>2018-09-02T07:18:45Z</time>
      </trkpt>
      <trkpt lat="43.00018" lon="-0.15079">
        <ele>1315.1</ele>
        <time>2018-09-02T07:18:46Z</time>
      </trkpt>
      <trkpt lat="43.0002" lon="-0.15073">
        <ele>1315.1</ele>
        <time>2018-09-02T07:18:47Z</time>
      </trkpt>
      <trkpt lat="43.00021" lon="-0.15066">
        <ele>1315.3</ele>
        <time>2018-09-02T07:18:48Z</time>
      </trkpt>
      <trkpt lat="43.00021" lon="-0.1506">
        <ele>1315.6</ele>
        <time>2018-09-02T07:18:49Z</time>
      </trkpt>
      <trkpt lat="43.00022" lon="-0.15053">
        <ele>1315.9</ele>
        <time>2018-09-02T07:18:50Z</time>
      </trkpt>
      <trkpt lat="43.00022" lon="-0.15047">
        <ele>1316.1</ele>
        <time>2018-09-02T07:18:51Z</time>
      </trkpt>
      <trkpt lat="43.00023" lon="-0.15041">
        <ele>1316.3</ele>
        <time>2018-09-02T07:18:52Z</time>
      </trkpt>
      <trkpt lat="43.00024" lon="-0.15034">
        <ele>1316.2</ele>
        <time>2018-09-02T07:18:53Z</time>
      </trkpt>
      <trkpt lat="43.00026" lon="-0.15027">
        <ele>1316</ele>
        <time>2018-09-02T07:18:54Z</time>
      </trkpt>
      <trkpt lat="43.0003" lon="-0.14994">
        <ele>1317.6</ele>
        <time>2018-09-02T07:18:59Z</time>
      </trkpt>
      <trkpt lat="43.00032" lon="-0.14988">
        <ele>1317.5</ele>
        <time>2018-09-02T07:19:00Z</time>
      </trkpt>
      <trkpt lat="43.00034" lon="-0.14982">
        <ele>1317.3</ele>
        <time>2018-09-02T07:19:01Z</time>
      </trkpt>
      <trkpt lat="43.00036" lon="-0.14976">
        <ele>1317.1</ele>
        <time>2018-09-02T07:19:02Z</time>
      </trkpt>
      <trkpt lat="43.00038" lon="-0.1497">
        <ele>1316.9</ele>
        <time>2018-09-02T07:19:03Z</time>
      </trkpt>
      <trkpt lat="43.00045" lon="-0.14951">
        <ele>1317.6</ele>
        <time>2018-09-02T07:19:06Z</time>
      </trkpt>
      <trkpt lat="43.00048" lon="-0.14938">
        <ele>1318.2</ele>
        <time>2018-09-02T07:19:08Z</time>
      </trkpt>
      <trkpt lat="43.00055" lon="-0.14917">
        <ele>1318.2</ele>
        <time>2018-09-02T07:19:11Z</time>
      </trkpt>
      <trkpt lat="43.00066" lon="-0.149">
        <ele>1317</ele>
        <time>2018-09-02T07:19:14Z</time>
      </trkpt>
      <trkpt lat="43.00071" lon="-0.14895">
        <ele>1316.5</ele>
        <time>2018-09-02T07:19:15Z</time>
      </trkpt>
      <trkpt lat="43.00095" lon="-0.14864">
        <ele>1315.1</ele>
        <time>2018-09-02T07:19:21Z</time>
      </trkpt>
      <trkpt lat="43.00108" lon="-0.14847">
        <ele>1314.8</ele>
        <time>2018-09-02T07:19:24Z</time>
      </trkpt>
      <trkpt lat="43.00117" lon="-0.14836">
        <ele>1314.8</ele>
        <time>2018-09-02T07:19:26Z</time>
      </trkpt>
      <trkpt lat="43.00122" lon="-0.1483">
        <ele>1315.1</ele>
        <time>2018-09-02T07:19:27Z</time>
      </trkpt>
      <trkpt lat="43.00127" lon="-0.14824">
        <ele>1315.3</ele>
        <time>2018-09-02T07:19:28Z</time>
      </trkpt>
      <trkpt lat="43.00132" lon="-0.14818">
        <ele>1315.4</ele>
        <time>2018-09-02T07:19:29Z</time>
      </trkpt>
      <trkpt lat="43.00137" lon="-0.14812">
        <ele>1315.3</ele>
        <time>2018-09-02T07:19:30Z</time>
      </trkpt>
      <trkpt lat="43.00154" lon="-0.14796">
        <ele>1315</ele>
        <time>2018-09-02T07:19:33Z</time>
      </trkpt>
      <trkpt lat="43.00177" lon="-0.14774">
        <ele>1314.1</ele>
        <time>2018-09-02T07:19:37Z</time>
      </trkpt>
      <trkpt lat="43.00182" lon="-0.14769">
        <ele>1313.4</ele>
        <time>2018-09-02T07:19:38Z</time>
      </trkpt>
      <trkpt lat="43.00188" lon="-0.14765">
        <ele>1312.6</ele>
        <time>2018-09-02T07:19:39Z</time>
      </trkpt>
      <trkpt lat="43.00194" lon="-0.14761">
        <ele>1311.7</ele>
        <time>2018-09-02T07:19:40Z</time>
      </trkpt>
      <trkpt lat="43.00199" lon="-0.14756">
        <ele>1310.8</ele>
        <time>2018-09-02T07:19:41Z</time>
      </trkpt>
      <trkpt lat="43.00214" lon="-0.14737">
        <ele>1308.9</ele>
        <time>2018-09-02T07:19:44Z</time>
      </trkpt>
      <trkpt lat="43.00222" lon="-0.14721">
        <ele>1308.2</ele>
        <time>2018-09-02T07:19:46Z</time>
      </trkpt>
      <trkpt lat="43.00231" lon="-0.14695">
        <ele>1305.7</ele>
        <time>2018-09-02T07:19:49Z</time>
      </trkpt>
      <trkpt lat="43.00238" lon="-0.14659">
        <ele>1301.8</ele>
        <time>2018-09-02T07:19:53Z</time>
      </trkpt>
      <trkpt lat="43.00239" lon="-0.14649">
        <ele>1300.5</ele>
        <time>2018-09-02T07:19:54Z</time>
      </trkpt>
      <trkpt lat="43.00238" lon="-0.1464">
        <ele>1299.7</ele>
        <time>2018-09-02T07:19:55Z</time>
      </trkpt>
      <trkpt lat="43.00237" lon="-0.14631">
        <ele>1298.1</ele>
        <time>2018-09-02T07:19:56Z</time>
      </trkpt>
      <trkpt lat="43.00237" lon="-0.14624">
        <ele>1296.8</ele>
        <time>2018-09-02T07:19:57Z</time>
      </trkpt>
      <trkpt lat="43.00237" lon="-0.14615">
        <ele>1294.6</ele>
        <time>2018-09-02T07:19:58Z</time>
      </trkpt>
      <trkpt lat="43.00237" lon="-0.14601">
        <ele>1291.1</ele>
        <time>2018-09-02T07:20:00Z</time>
      </trkpt>
      <trkpt lat="43.00235" lon="-0.14594">
        <ele>1290.1</ele>
        <time>2018-09-02T07:20:01Z</time>
      </trkpt>
      <trkpt lat="43.00234" lon="-0.14588">
        <ele>1288.9</ele>
        <time>2018-09-02T07:20:02Z</time>
      </trkpt>
      <trkpt lat="43.00232" lon="-0.14582">
        <ele>1288.1</ele>
        <time>2018-09-02T07:20:03Z</time>
      </trkpt>
      <trkpt lat="43.00229" lon="-0.14576">
        <ele>1287.9</ele>
        <time>2018-09-02T07:20:04Z</time>
      </trkpt>
      <trkpt lat="43.00228" lon="-0.14572">
        <ele>1287.5</ele>
        <time>2018-09-02T07:20:05Z</time>
      </trkpt>
      <trkpt lat="43.00228" lon="-0.14567">
        <ele>1286.4</ele>
        <time>2018-09-02T07:20:06Z</time>
      </trkpt>
      <trkpt lat="43.0023" lon="-0.14564">
        <ele>1285</ele>
        <time>2018-09-02T07:20:07Z</time>
      </trkpt>
      <trkpt lat="43.00233" lon="-0.14564">
        <ele>1283.7</ele>
        <time>2018-09-02T07:20:08Z</time>
      </trkpt>
      <trkpt lat="43.00237" lon="-0.14563">
        <ele>1282.2</ele>
        <time>2018-09-02T07:20:09Z</time>
      </trkpt>
      <trkpt lat="43.00241" lon="-0.14562">
        <ele>1280.7</ele>
        <time>2018-09-02T07:20:10Z</time>
      </trkpt>
      <trkpt lat="43.00245" lon="-0.14564">
        <ele>1279.5</ele>
        <time>2018-09-02T07:20:11Z</time>
      </trkpt>
      <trkpt lat="43.00249" lon="-0.14565">
        <ele>1278.3</ele>
        <time>2018-09-02T07:20:12Z</time>
      </trkpt>
      <trkpt lat="43.00253" lon="-0.14565">
        <ele>1276.9</ele>
        <time>2018-09-02T07:20:13Z</time>
      </trkpt>
      <trkpt lat="43.00256" lon="-0.14563">
        <ele>1275.4</ele>
        <time>2018-09-02T07:20:14Z</time>
      </trkpt>
      <trkpt lat="43.00259" lon="-0.1456">
        <ele>1273.5</ele>
        <time>2018-09-02T07:20:15Z</time>
      </trkpt>
      <trkpt lat="43.0026" lon="-0.14557">
        <ele>1272.4</ele>
        <time>2018-09-02T07:20:16Z</time>
      </trkpt>
      <trkpt lat="43.0026" lon="-0.14549">
        <ele>1271.1</ele>
        <time>2018-09-02T07:20:17Z</time>
      </trkpt>
      <trkpt lat="43.00262" lon="-0.14545">
        <ele>1269.9</ele>
        <time>2018-09-02T07:20:18Z</time>
      </trkpt>
      <trkpt lat="43.00264" lon="-0.14541">
        <ele>1268.5</ele>
        <time>2018-09-02T07:20:19Z</time>
      </trkpt>
      <trkpt lat="43.00267" lon="-0.14542">
        <ele>1267.2</ele>
        <time>2018-09-02T07:20:20Z</time>
      </trkpt>
      <trkpt lat="43.00272" lon="-0.14541">
        <ele>1265.1</ele>
        <time>2018-09-02T07:20:21Z</time>
      </trkpt>
      <trkpt lat="43.00276" lon="-0.14537">
        <ele>1262.8</ele>
        <time>2018-09-02T07:20:22Z</time>
      </trkpt>
      <trkpt lat="43.00283" lon="-0.14532">
        <ele>1259</ele>
        <time>2018-09-02T07:20:23Z</time>
      </trkpt>
      <trkpt lat="43.0029" lon="-0.14529">
        <ele>1255.5</ele>
        <time>2018-09-02T07:20:24Z</time>
      </trkpt>
      <trkpt lat="43.00294" lon="-0.14526">
        <ele>1253.5</ele>
        <time>2018-09-02T07:20:25Z</time>
      </trkpt>
      <trkpt lat="43.00294" lon="-0.14522">
        <ele>1253</ele>
        <time>2018-09-02T07:20:26Z</time>
      </trkpt>
      <trkpt lat="43.00294" lon="-0.14517">
        <ele>1252.8</ele>
        <time>2018-09-02T07:20:27Z</time>
      </trkpt>
      <trkpt lat="43.00295" lon="-0.14513">
        <ele>1252.4</ele>
        <time>2018-09-02T07:20:28Z</time>
      </trkpt>
      <trkpt lat="43.00295" lon="-0.14509">
        <ele>1252</ele>
        <time>2018-09-02T07:20:29Z</time>
      </trkpt>
      <trkpt lat="43.00295" lon="-0.14504">
        <ele>1251.6</ele>
        <time>2018-09-02T07:20:30Z</time>
      </trkpt>
      <trkpt lat="43.00297" lon="-0.14496">
        <ele>1250.6</ele>
        <time>2018-09-02T07:20:32Z</time>
      </trkpt>
      <trkpt lat="43.00297" lon="-0.14492">
        <ele>1250.3</ele>
        <time>2018-09-02T07:20:33Z</time>
      </trkpt>
      <trkpt lat="43.00299" lon="-0.14491">
        <ele>1249.6</ele>
        <time>2018-09-02T07:20:34Z</time>
      </trkpt>
      <trkpt lat="43.00302" lon="-0.14491">
        <ele>1248.3</ele>
        <time>2018-09-02T07:20:35Z</time>
      </trkpt>
      <trkpt lat="43.00305" lon="-0.1449">
        <ele>1246.8</ele>
        <time>2018-09-02T07:20:36Z</time>
      </trkpt>
      <trkpt lat="43.00309" lon="-0.14484">
        <ele>1245</ele>
        <time>2018-09-02T07:20:37Z</time>
      </trkpt>
      <trkpt lat="43.00311" lon="-0.14481">
        <ele>1243.8</ele>
        <time>2018-09-02T07:20:38Z</time>
      </trkpt>
      <trkpt lat="43.00315" lon="-0.14484">
        <ele>1242.4</ele>
        <time>2018-09-02T07:20:39Z</time>
      </trkpt>
      <trkpt lat="43.00316" lon="-0.14483">
        <ele>1241.8</ele>
        <time>2018-09-02T07:20:40Z</time>
      </trkpt>
      <trkpt lat="43.00318" lon="-0.14479">
        <ele>1240.8</ele>
        <time>2018-09-02T07:20:41Z</time>
      </trkpt>
      <trkpt lat="43.00321" lon="-0.14476">
        <ele>1239.6</ele>
        <time>2018-09-02T07:20:42Z</time>
      </trkpt>
      <trkpt lat="43.00324" lon="-0.14477">
        <ele>1238.2</ele>
        <time>2018-09-02T07:20:43Z</time>
      </trkpt>
      <trkpt lat="43.00324" lon="-0.1448">
        <ele>1238.2</ele>
        <time>2018-09-02T07:20:44Z</time>
      </trkpt>
      <trkpt lat="43.00323" lon="-0.14485">
        <ele>1239.1</ele>
        <time>2018-09-02T07:20:45Z</time>
      </trkpt>
      <trkpt lat="43.00321" lon="-0.14487">
        <ele>1239.8</ele>
        <time>2018-09-02T07:20:46Z</time>
      </trkpt>
      <trkpt lat="43.0032" lon="-0.1449">
        <ele>1240.4</ele>
        <time>2018-09-02T07:20:47Z</time>
      </trkpt>
      <trkpt lat="43.0032" lon="-0.14489">
        <ele>1240.6</ele>
        <time>2018-09-02T07:20:48Z</time>
      </trkpt>
      <trkpt lat="43.00323" lon="-0.14487">
        <ele>1239</ele>
        <time>2018-09-02T07:20:49Z</time>
      </trkpt>
      <trkpt lat="43.00328" lon="-0.14488">
        <ele>1237</ele>
        <time>2018-09-02T07:20:50Z</time>
      </trkpt>
      <trkpt lat="43.00332" lon="-0.14491">
        <ele>1235.3</ele>
        <time>2018-09-02T07:20:51Z</time>
      </trkpt>
      <trkpt lat="43.00336" lon="-0.14493">
        <ele>1233.5</ele>
        <time>2018-09-02T07:20:52Z</time>
      </trkpt>
      <trkpt lat="43.0034" lon="-0.14491">
        <ele>1231.7</ele>
        <time>2018-09-02T07:20:53Z</time>
      </trkpt>
      <trkpt lat="43.00345" lon="-0.14487">
        <ele>1229.5</ele>
        <time>2018-09-02T07:20:54Z</time>
      </trkpt>
      <trkpt lat="43.0035" lon="-0.14481">
        <ele>1227.2</ele>
        <time>2018-09-02T07:20:55Z</time>
      </trkpt>
      <trkpt lat="43.00353" lon="-0.14474">
        <ele>1225.4</ele>
        <time>2018-09-02T07:20:56Z</time>
      </trkpt>
      <trkpt lat="43.00355" lon="-0.14467">
        <ele>1224.4</ele>
        <time>2018-09-02T07:20:57Z</time>
      </trkpt>
      <trkpt lat="43.00358" lon="-0.14464">
        <ele>1223.3</ele>
        <time>2018-09-02T07:20:58Z</time>
      </trkpt>
      <trkpt lat="43.00362" lon="-0.14466">
        <ele>1221.3</ele>
        <time>2018-09-02T07:20:59Z</time>
      </trkpt>
      <trkpt lat="43.00364" lon="-0.1447">
        <ele>1220.7</ele>
        <time>2018-09-02T07:21:00Z</time>
      </trkpt>
      <trkpt lat="43.00366" lon="-0.14477">
        <ele>1220.4</ele>
        <time>2018-09-02T07:21:01Z</time>
      </trkpt>
      <trkpt lat="43.00368" lon="-0.14478">
        <ele>1219.6</ele>
        <time>2018-09-02T07:21:02Z</time>
      </trkpt>
      <trkpt lat="43.0037" lon="-0.14478">
        <ele>1218.8</ele>
        <time>2018-09-02T07:21:03Z</time>
      </trkpt>
      <trkpt lat="43.00373" lon="-0.14475">
        <ele>1217.4</ele>
        <time>2018-09-02T07:21:04Z</time>
      </trkpt>
      <trkpt lat="43.00376" lon="-0.14467">
        <ele>1215.9</ele>
        <time>2018-09-02T07:21:05Z</time>
      </trkpt>
      <trkpt lat="43.00379" lon="-0.1446">
        <ele>1214.4</ele>
        <time>2018-09-02T07:21:06Z</time>
      </trkpt>
      <trkpt lat="43.00383" lon="-0.14457">
        <ele>1212.7</ele>
        <time>2018-09-02T07:21:07Z</time>
      </trkpt>
      <trkpt lat="43.00385" lon="-0.14457">
        <ele>1212</ele>
        <time>2018-09-02T07:21:08Z</time>
      </trkpt>
      <trkpt lat="43.00388" lon="-0.14458">
        <ele>1210.8</ele>
        <time>2018-09-02T07:21:09Z</time>
      </trkpt>
      <trkpt lat="43.00391" lon="-0.14457">
        <ele>1209.9</ele>
        <time>2018-09-02T07:21:10Z</time>
      </trkpt>
      <trkpt lat="43.00394" lon="-0.14454">
        <ele>1208.7</ele>
        <time>2018-09-02T07:21:11Z</time>
      </trkpt>
      <trkpt lat="43.00398" lon="-0.14455">
        <ele>1207.6</ele>
        <time>2018-09-02T07:21:12Z</time>
      </trkpt>
      <trkpt lat="43.00401" lon="-0.14461">
        <ele>1207</ele>
        <time>2018-09-02T07:21:13Z</time>
      </trkpt>
      <trkpt lat="43.00404" lon="-0.14465">
        <ele>1206.2</ele>
        <time>2018-09-02T07:21:14Z</time>
      </trkpt>
      <trkpt lat="43.00408" lon="-0.14466">
        <ele>1205.3</ele>
        <time>2018-09-02T07:21:15Z</time>
      </trkpt>
      <trkpt lat="43.00412" lon="-0.14468">
        <ele>1204.2</ele>
        <time>2018-09-02T07:21:16Z</time>
      </trkpt>
      <trkpt lat="43.00419" lon="-0.14469">
        <ele>1202</ele>
        <time>2018-09-02T07:21:17Z</time>
      </trkpt>
      <trkpt lat="43.00427" lon="-0.14466">
        <ele>1200</ele>
        <time>2018-09-02T07:21:18Z</time>
      </trkpt>
      <trkpt lat="43.00434" lon="-0.14463">
        <ele>1198</ele>
        <time>2018-09-02T07:21:19Z</time>
      </trkpt>
      <trkpt lat="43.00439" lon="-0.14452">
        <ele>1195.9</ele>
        <time>2018-09-02T07:21:20Z</time>
      </trkpt>
      <trkpt lat="43.00444" lon="-0.14439">
        <ele>1193.6</ele>
        <time>2018-09-02T07:21:21Z</time>
      </trkpt>
      <trkpt lat="43.00447" lon="-0.14428">
        <ele>1191.7</ele>
        <time>2018-09-02T07:21:22Z</time>
      </trkpt>
      <trkpt lat="43.0045" lon="-0.14417">
        <ele>1189.9</ele>
        <time>2018-09-02T07:21:23Z</time>
      </trkpt>
      <trkpt lat="43.00452" lon="-0.14407">
        <ele>1188</ele>
        <time>2018-09-02T07:21:24Z</time>
      </trkpt>
      <trkpt lat="43.00451" lon="-0.14397">
        <ele>1186.8</ele>
        <time>2018-09-02T07:21:25Z</time>
      </trkpt>
      <trkpt lat="43.00451" lon="-0.14389">
        <ele>1185.7</ele>
        <time>2018-09-02T07:21:26Z</time>
      </trkpt>
      <trkpt lat="43.0045" lon="-0.14382">
        <ele>1184.7</ele>
        <time>2018-09-02T07:21:27Z</time>
      </trkpt>
      <trkpt lat="43.00452" lon="-0.14377">
        <ele>1183.4</ele>
        <time>2018-09-02T07:21:28Z</time>
      </trkpt>
      <trkpt lat="43.00455" lon="-0.14374">
        <ele>1182.4</ele>
        <time>2018-09-02T07:21:29Z</time>
      </trkpt>
      <trkpt lat="43.00458" lon="-0.14377">
        <ele>1182</ele>
        <time>2018-09-02T07:21:30Z</time>
      </trkpt>
      <trkpt lat="43.00461" lon="-0.14379">
        <ele>1181.8</ele>
        <time>2018-09-02T07:21:31Z</time>
      </trkpt>
      <trkpt lat="43.00464" lon="-0.14383">
        <ele>1181.9</ele>
        <time>2018-09-02T07:21:32Z</time>
      </trkpt>
      <trkpt lat="43.00468" lon="-0.14387">
        <ele>1181.8</ele>
        <time>2018-09-02T07:21:33Z</time>
      </trkpt>
      <trkpt lat="43.00471" lon="-0.14391">
        <ele>1181.5</ele>
        <time>2018-09-02T07:21:34Z</time>
      </trkpt>
      <trkpt lat="43.00479" lon="-0.144">
        <ele>1180.9</ele>
        <time>2018-09-02T07:21:36Z</time>
      </trkpt>
      <trkpt lat="43.00491" lon="-0.14416">
        <ele>1180.9</ele>
        <time>2018-09-02T07:21:39Z</time>
      </trkpt>
      <trkpt lat="43.00499" lon="-0.14425">
        <ele>1180.4</ele>
        <time>2018-09-02T07:21:41Z</time>
      </trkpt>
      <trkpt lat="43.00509" lon="-0.14436">
        <ele>1179.4</ele>
        <time>2018-09-02T07:21:43Z</time>
      </trkpt>
      <trkpt lat="43.00514" lon="-0.14442">
        <ele>1179</ele>
        <time>2018-09-02T07:21:44Z</time>
      </trkpt>
      <trkpt lat="43.0052" lon="-0.1445">
        <ele>1178.9</ele>
        <time>2018-09-02T07:21:45Z</time>
      </trkpt>
      <trkpt lat="43.00525" lon="-0.14458">
        <ele>1178.9</ele>
        <time>2018-09-02T07:21:46Z</time>
      </trkpt>
      <trkpt lat="43.00529" lon="-0.14468">
        <ele>1179.7</ele>
        <time>2018-09-02T07:21:47Z</time>
      </trkpt>
      <trkpt lat="43.00534" lon="-0.14476">
        <ele>1180.1</ele>
        <time>2018-09-02T07:21:48Z</time>
      </trkpt>
      <trkpt lat="43.00538" lon="-0.14481">
        <ele>1180</ele>
        <time>2018-09-02T07:21:49Z</time>
      </trkpt>
      <trkpt lat="43.00541" lon="-0.14483">
        <ele>1179.4</ele>
        <time>2018-09-02T07:21:50Z</time>
      </trkpt>
      <trkpt lat="43.00543" lon="-0.1448">
        <ele>1178.4</ele>
        <time>2018-09-02T07:21:51Z</time>
      </trkpt>
      <trkpt lat="43.00544" lon="-0.14474">
        <ele>1177.1</ele>
        <time>2018-09-02T07:21:52Z</time>
      </trkpt>
      <trkpt lat="43.00547" lon="-0.14468">
        <ele>1175.3</ele>
        <time>2018-09-02T07:21:53Z</time>
      </trkpt>
      <trkpt lat="43.0055" lon="-0.14462">
        <ele>1173.1</ele>
        <time>2018-09-02T07:21:54Z</time>
      </trkpt>
      <trkpt lat="43.00554" lon="-0.14455">
        <ele>1170.7</ele>
        <time>2018-09-02T07:21:55Z</time>
      </trkpt>
      <trkpt lat="43.00557" lon="-0.14448">
        <ele>1168.2</ele>
        <time>2018-09-02T07:21:56Z</time>
      </trkpt>
      <trkpt lat="43.00558" lon="-0.14438">
        <ele>1165.8</ele>
        <time>2018-09-02T07:21:57Z</time>
      </trkpt>
      <trkpt lat="43.00557" lon="-0.1443">
        <ele>1164.2</ele>
        <time>2018-09-02T07:21:58Z</time>
      </trkpt>
      <trkpt lat="43.00557" lon="-0.14422">
        <ele>1162.7</ele>
        <time>2018-09-02T07:21:59Z</time>
      </trkpt>
      <trkpt lat="43.00556" lon="-0.14412">
        <ele>1160.8</ele>
        <time>2018-09-02T07:22:00Z</time>
      </trkpt>
      <trkpt lat="43.00555" lon="-0.14403">
        <ele>1159.2</ele>
        <time>2018-09-02T07:22:01Z</time>
      </trkpt>
      <trkpt lat="43.00554" lon="-0.14394">
        <ele>1157.7</ele>
        <time>2018-09-02T07:22:02Z</time>
      </trkpt>
      <trkpt lat="43.00552" lon="-0.14385">
        <ele>1156.1</ele>
        <time>2018-09-02T07:22:03Z</time>
      </trkpt>
      <trkpt lat="43.00551" lon="-0.14377">
        <ele>1154.6</ele>
        <time>2018-09-02T07:22:04Z</time>
      </trkpt>
      <trkpt lat="43.0055" lon="-0.14371">
        <ele>1153.6</ele>
        <time>2018-09-02T07:22:05Z</time>
      </trkpt>
      <trkpt lat="43.00548" lon="-0.14365">
        <ele>1152.9</ele>
        <time>2018-09-02T07:22:06Z</time>
      </trkpt>
      <trkpt lat="43.00548" lon="-0.1436">
        <ele>1151.6</ele>
        <time>2018-09-02T07:22:07Z</time>
      </trkpt>
      <trkpt lat="43.00549" lon="-0.14353">
        <ele>1149.5</ele>
        <time>2018-09-02T07:22:08Z</time>
      </trkpt>
      <trkpt lat="43.0055" lon="-0.14346">
        <ele>1147.5</ele>
        <time>2018-09-02T07:22:09Z</time>
      </trkpt>
      <trkpt lat="43.0055" lon="-0.14339">
        <ele>1145.5</ele>
        <time>2018-09-02T07:22:10Z</time>
      </trkpt>
      <trkpt lat="43.00548" lon="-0.1433">
        <ele>1143.9</ele>
        <time>2018-09-02T07:22:11Z</time>
      </trkpt>
      <trkpt lat="43.00547" lon="-0.14322">
        <ele>1142.1</ele>
        <time>2018-09-02T07:22:12Z</time>
      </trkpt>
      <trkpt lat="43.00546" lon="-0.14315">
        <ele>1140.6</ele>
        <time>2018-09-02T07:22:13Z</time>
      </trkpt>
      <trkpt lat="43.00544" lon="-0.14309">
        <ele>1139.7</ele>
        <time>2018-09-02T07:22:14Z</time>
      </trkpt>
      <trkpt lat="43.00543" lon="-0.14305">
        <ele>1138.9</ele>
        <time>2018-09-02T07:22:15Z</time>
      </trkpt>
      <trkpt lat="43.00543" lon="-0.143">
        <ele>1137.4</ele>
        <time>2018-09-02T07:22:16Z</time>
      </trkpt>
      <trkpt lat="43.00545" lon="-0.14297">
        <ele>1135.7</ele>
        <time>2018-09-02T07:22:17Z</time>
      </trkpt>
      <trkpt lat="43.00548" lon="-0.14293">
        <ele>1133.8</ele>
        <time>2018-09-02T07:22:18Z</time>
      </trkpt>
      <trkpt lat="43.00549" lon="-0.14289">
        <ele>1132.1</ele>
        <time>2018-09-02T07:22:19Z</time>
      </trkpt>
      <trkpt lat="43.00549" lon="-0.14283">
        <ele>1130.4</ele>
        <time>2018-09-02T07:22:20Z</time>
      </trkpt>
      <trkpt lat="43.00551" lon="-0.14279">
        <ele>1128.8</ele>
        <time>2018-09-02T07:22:21Z</time>
      </trkpt>
      <trkpt lat="43.00553" lon="-0.14276">
        <ele>1127.5</ele>
        <time>2018-09-02T07:22:22Z</time>
      </trkpt>
      <trkpt lat="43.00555" lon="-0.14273">
        <ele>1126.1</ele>
        <time>2018-09-02T07:22:23Z</time>
      </trkpt>
      <trkpt lat="43.00556" lon="-0.14268">
        <ele>1124.6</ele>
        <time>2018-09-02T07:22:24Z</time>
      </trkpt>
      <trkpt lat="43.00555" lon="-0.14263">
        <ele>1123.2</ele>
        <time>2018-09-02T07:22:25Z</time>
      </trkpt>
      <trkpt lat="43.00554" lon="-0.14257">
        <ele>1122.2</ele>
        <time>2018-09-02T07:22:26Z</time>
      </trkpt>
      <trkpt lat="43.00553" lon="-0.14252">
        <ele>1121</ele>
        <time>2018-09-02T07:22:27Z</time>
      </trkpt>
      <trkpt lat="43.00555" lon="-0.14248">
        <ele>1119.8</ele>
        <time>2018-09-02T07:22:28Z</time>
      </trkpt>
      <trkpt lat="43.00556" lon="-0.14245">
        <ele>1118.7</ele>
        <time>2018-09-02T07:22:29Z</time>
      </trkpt>
      <trkpt lat="43.00559" lon="-0.14242">
        <ele>1117.7</ele>
        <time>2018-09-02T07:22:30Z</time>
      </trkpt>
      <trkpt lat="43.00563" lon="-0.14242">
        <ele>1116.7</ele>
        <time>2018-09-02T07:22:31Z</time>
      </trkpt>
      <trkpt lat="43.00569" lon="-0.14243">
        <ele>1115.6</ele>
        <time>2018-09-02T07:22:32Z</time>
      </trkpt>
      <trkpt lat="43.00576" lon="-0.14244">
        <ele>1114.5</ele>
        <time>2018-09-02T07:22:33Z</time>
      </trkpt>
      <trkpt lat="43.0058" lon="-0.14243">
        <ele>1113.1</ele>
        <time>2018-09-02T07:22:34Z</time>
      </trkpt>
      <trkpt lat="43.00585" lon="-0.14241">
        <ele>1111.9</ele>
        <time>2018-09-02T07:22:35Z</time>
      </trkpt>
      <trkpt lat="43.00588" lon="-0.14241">
        <ele>1111.1</ele>
        <time>2018-09-02T07:22:36Z</time>
      </trkpt>
      <trkpt lat="43.0059" lon="-0.14241">
        <ele>1110.5</ele>
        <time>2018-09-02T07:22:37Z</time>
      </trkpt>
      <trkpt lat="43.00593" lon="-0.14241">
        <ele>1110.1</ele>
        <time>2018-09-02T07:22:38Z</time>
      </trkpt>
      <trkpt lat="43.00597" lon="-0.1424">
        <ele>1109.1</ele>
        <time>2018-09-02T07:22:39Z</time>
      </trkpt>
      <trkpt lat="43.00601" lon="-0.1424">
        <ele>1108.3</ele>
        <time>2018-09-02T07:22:40Z</time>
      </trkpt>
      <trkpt lat="43.00604" lon="-0.1424">
        <ele>1107.5</ele>
        <time>2018-09-02T07:22:41Z</time>
      </trkpt>
      <trkpt lat="43.00609" lon="-0.1424">
        <ele>1106.7</ele>
        <time>2018-09-02T07:22:42Z</time>
      </trkpt>
      <trkpt lat="43.00615" lon="-0.14243">
        <ele>1105.9</ele>
        <time>2018-09-02T07:22:43Z</time>
      </trkpt>
      <trkpt lat="43.00622" lon="-0.14243">
        <ele>1104</ele>
        <time>2018-09-02T07:22:44Z</time>
      </trkpt>
      <trkpt lat="43.00628" lon="-0.14243">
        <ele>1102.5</ele>
        <time>2018-09-02T07:22:45Z</time>
      </trkpt>
      <trkpt lat="43.00636" lon="-0.14241">
        <ele>1100.2</ele>
        <time>2018-09-02T07:22:46Z</time>
      </trkpt>
      <trkpt lat="43.00644" lon="-0.14239">
        <ele>1097.5</ele>
        <time>2018-09-02T07:22:47Z</time>
      </trkpt>
      <trkpt lat="43.00652" lon="-0.14234">
        <ele>1094.5</ele>
        <time>2018-09-02T07:22:48Z</time>
      </trkpt>
      <trkpt lat="43.00658" lon="-0.14228">
        <ele>1091.7</ele>
        <time>2018-09-02T07:22:49Z</time>
      </trkpt>
      <trkpt lat="43.00663" lon="-0.14226">
        <ele>1089.8</ele>
        <time>2018-09-02T07:22:50Z</time>
      </trkpt>
      <trkpt lat="43.00668" lon="-0.14225">
        <ele>1088.2</ele>
        <time>2018-09-02T07:22:51Z</time>
      </trkpt>
      <trkpt lat="43.00673" lon="-0.14223">
        <ele>1086.3</ele>
        <time>2018-09-02T07:22:52Z</time>
      </trkpt>
      <trkpt lat="43.00678" lon="-0.14224">
        <ele>1085.3</ele>
        <time>2018-09-02T07:22:53Z</time>
      </trkpt>
      <trkpt lat="43.00682" lon="-0.14225">
        <ele>1084.3</ele>
        <time>2018-09-02T07:22:54Z</time>
      </trkpt>
      <trkpt lat="43.00686" lon="-0.14227">
        <ele>1083.4</ele>
        <time>2018-09-02T07:22:55Z</time>
      </trkpt>
      <trkpt lat="43.00691" lon="-0.1423">
        <ele>1083</ele>
        <time>2018-09-02T07:22:56Z</time>
      </trkpt>
      <trkpt lat="43.00695" lon="-0.1423">
        <ele>1081.9</ele>
        <time>2018-09-02T07:22:57Z</time>
      </trkpt>
      <trkpt lat="43.00698" lon="-0.14228">
        <ele>1080.4</ele>
        <time>2018-09-02T07:22:58Z</time>
      </trkpt>
      <trkpt lat="43.00702" lon="-0.14221">
        <ele>1077.6</ele>
        <time>2018-09-02T07:23:00Z</time>
      </trkpt>
      <trkpt lat="43.00703" lon="-0.14217">
        <ele>1076.4</ele>
        <time>2018-09-02T07:23:01Z</time>
      </trkpt>
      <trkpt lat="43.00704" lon="-0.14212">
        <ele>1074.8</ele>
        <time>2018-09-02T07:23:02Z</time>
      </trkpt>
      <trkpt lat="43.00706" lon="-0.14207">
        <ele>1073.4</ele>
        <time>2018-09-02T07:23:03Z</time>
      </trkpt>
      <trkpt lat="43.00708" lon="-0.14206">
        <ele>1072.5</ele>
        <time>2018-09-02T07:23:04Z</time>
      </trkpt>
      <trkpt lat="43.0071" lon="-0.14207">
        <ele>1071.9</ele>
        <time>2018-09-02T07:23:05Z</time>
      </trkpt>
      <trkpt lat="43.00714" lon="-0.14207">
        <ele>1070.8</ele>
        <time>2018-09-02T07:23:06Z</time>
      </trkpt>
      <trkpt lat="43.00718" lon="-0.14207">
        <ele>1069.5</ele>
        <time>2018-09-02T07:23:07Z</time>
      </trkpt>
      <trkpt lat="43.0072" lon="-0.14206">
        <ele>1068.4</ele>
        <time>2018-09-02T07:23:08Z</time>
      </trkpt>
      <trkpt lat="43.00725" lon="-0.14204">
        <ele>1066.7</ele>
        <time>2018-09-02T07:23:09Z</time>
      </trkpt>
      <trkpt lat="43.00727" lon="-0.14202">
        <ele>1065.7</ele>
        <time>2018-09-02T07:23:10Z</time>
      </trkpt>
      <trkpt lat="43.00728" lon="-0.142">
        <ele>1064.9</ele>
        <time>2018-09-02T07:23:11Z</time>
      </trkpt>
      <trkpt lat="43.00729" lon="-0.14198">
        <ele>1064.3</ele>
        <time>2018-09-02T07:23:12Z</time>
      </trkpt>
      <trkpt lat="43.0073" lon="-0.14197">
        <ele>1063.8</ele>
        <time>2018-09-02T07:23:13Z</time>
      </trkpt>
      <trkpt lat="43.00731" lon="-0.14197">
        <ele>1063.5</ele>
        <time>2018-09-02T07:23:14Z</time>
      </trkpt>
      <trkpt lat="43.00732" lon="-0.14196">
        <ele>1062.8</ele>
        <time>2018-09-02T07:23:15Z</time>
      </trkpt>
      <trkpt lat="43.00736" lon="-0.14193">
        <ele>1061.3</ele>
        <time>2018-09-02T07:23:16Z</time>
      </trkpt>
      <trkpt lat="43.00739" lon="-0.1419">
        <ele>1059.9</ele>
        <time>2018-09-02T07:23:17Z</time>
      </trkpt>
      <trkpt lat="43.00743" lon="-0.14189">
        <ele>1058.8</ele>
        <time>2018-09-02T07:23:18Z</time>
      </trkpt>
      <trkpt lat="43.00747" lon="-0.1419">
        <ele>1058</ele>
        <time>2018-09-02T07:23:19Z</time>
      </trkpt>
      <trkpt lat="43.00751" lon="-0.14191">
        <ele>1057.3</ele>
        <time>2018-09-02T07:23:20Z</time>
      </trkpt>
      <trkpt lat="43.00754" lon="-0.14191">
        <ele>1056.7</ele>
        <time>2018-09-02T07:23:21Z</time>
      </trkpt>
      <trkpt lat="43.00758" lon="-0.14188">
        <ele>1055.7</ele>
        <time>2018-09-02T07:23:22Z</time>
      </trkpt>
      <trkpt lat="43.00763" lon="-0.14186">
        <ele>1054.5</ele>
        <time>2018-09-02T07:23:23Z</time>
      </trkpt>
      <trkpt lat="43.00767" lon="-0.14183">
        <ele>1053.3</ele>
        <time>2018-09-02T07:23:24Z</time>
      </trkpt>
      <trkpt lat="43.0077" lon="-0.1418">
        <ele>1052.2</ele>
        <time>2018-09-02T07:23:25Z</time>
      </trkpt>
      <trkpt lat="43.00774" lon="-0.14179">
        <ele>1051.4</ele>
        <time>2018-09-02T07:23:26Z</time>
      </trkpt>
      <trkpt lat="43.00778" lon="-0.14174">
        <ele>1049.5</ele>
        <time>2018-09-02T07:23:27Z</time>
      </trkpt>
      <trkpt lat="43.00783" lon="-0.14169">
        <ele>1047.9</ele>
        <time>2018-09-02T07:23:28Z</time>
      </trkpt>
      <trkpt lat="43.00787" lon="-0.14164">
        <ele>1046.4</ele>
        <time>2018-09-02T07:23:29Z</time>
      </trkpt>
      <trkpt lat="43.00792" lon="-0.14159">
        <ele>1044.7</ele>
        <time>2018-09-02T07:23:30Z</time>
      </trkpt>
      <trkpt lat="43.00797" lon="-0.14154">
        <ele>1042.9</ele>
        <time>2018-09-02T07:23:31Z</time>
      </trkpt>
      <trkpt lat="43.00803" lon="-0.1415">
        <ele>1041.1</ele>
        <time>2018-09-02T07:23:32Z</time>
      </trkpt>
      <trkpt lat="43.00808" lon="-0.14143">
        <ele>1039</ele>
        <time>2018-09-02T07:23:33Z</time>
      </trkpt>
      <trkpt lat="43.00814" lon="-0.14138">
        <ele>1037.5</ele>
        <time>2018-09-02T07:23:34Z</time>
      </trkpt>
      <trkpt lat="43.0082" lon="-0.14134">
        <ele>1036.3</ele>
        <time>2018-09-02T07:23:35Z</time>
      </trkpt>
      <trkpt lat="43.00828" lon="-0.1413">
        <ele>1034.9</ele>
        <time>2018-09-02T07:23:36Z</time>
      </trkpt>
      <trkpt lat="43.00835" lon="-0.14126">
        <ele>1033.7</ele>
        <time>2018-09-02T07:23:37Z</time>
      </trkpt>
      <trkpt lat="43.00841" lon="-0.14124">
        <ele>1033</ele>
        <time>2018-09-02T07:23:38Z</time>
      </trkpt>
      <trkpt lat="43.00847" lon="-0.14119">
        <ele>1031.4</ele>
        <time>2018-09-02T07:23:39Z</time>
      </trkpt>
      <trkpt lat="43.00853" lon="-0.14114">
        <ele>1030.1</ele>
        <time>2018-09-02T07:23:40Z</time>
      </trkpt>
      <trkpt lat="43.0086" lon="-0.1411">
        <ele>1028.7</ele>
        <time>2018-09-02T07:23:41Z</time>
      </trkpt>
      <trkpt lat="43.00865" lon="-0.14105">
        <ele>1026.9</ele>
        <time>2018-09-02T07:23:42Z</time>
      </trkpt>
      <trkpt lat="43.00872" lon="-0.141">
        <ele>1025</ele>
        <time>2018-09-02T07:23:43Z</time>
      </trkpt>
      <trkpt lat="43.00879" lon="-0.14094">
        <ele>1022.8</ele>
        <time>2018-09-02T07:23:44Z</time>
      </trkpt>
      <trkpt lat="43.00886" lon="-0.14088">
        <ele>1020.5</ele>
        <time>2018-09-02T07:23:45Z</time>
      </trkpt>
      <trkpt lat="43.00895" lon="-0.14082">
        <ele>1019</ele>
        <time>2018-09-02T07:23:46Z</time>
      </trkpt>
      <trkpt lat="43.009" lon="-0.14077">
        <ele>1018.2</ele>
        <time>2018-09-02T07:23:47Z</time>
      </trkpt>
      <trkpt lat="43.00907" lon="-0.14073">
        <ele>1017.6</ele>
        <time>2018-09-02T07:23:48Z</time>
      </trkpt>
      <trkpt lat="43.00914" lon="-0.14068">
        <ele>1017.1</ele>
        <time>2018-09-02T07:23:49Z</time>
      </trkpt>
      <trkpt lat="43.00919" lon="-0.14058">
        <ele>1015.4</ele>
        <time>2018-09-02T07:23:50Z</time>
      </trkpt>
      <trkpt lat="43.00922" lon="-0.14045">
        <ele>1013</ele>
        <time>2018-09-02T07:23:51Z</time>
      </trkpt>
      <trkpt lat="43.00924" lon="-0.14032">
        <ele>1010.3</ele>
        <time>2018-09-02T07:23:52Z</time>
      </trkpt>
      <trkpt lat="43.00926" lon="-0.14021">
        <ele>1007.6</ele>
        <time>2018-09-02T07:23:53Z</time>
      </trkpt>
      <trkpt lat="43.00926" lon="-0.1401">
        <ele>1005.1</ele>
        <time>2018-09-02T07:23:54Z</time>
      </trkpt>
      <trkpt lat="43.00927" lon="-0.14003">
        <ele>1003.1</ele>
        <time>2018-09-02T07:23:55Z</time>
      </trkpt>
      <trkpt lat="43.00929" lon="-0.13996">
        <ele>1001</ele>
        <time>2018-09-02T07:23:56Z</time>
      </trkpt>
      <trkpt lat="43.00931" lon="-0.13989">
        <ele>998.3</ele>
        <time>2018-09-02T07:23:57Z</time>
      </trkpt>
      <trkpt lat="43.00934" lon="-0.13981">
        <ele>995.1</ele>
        <time>2018-09-02T07:23:58Z</time>
      </trkpt>
      <trkpt lat="43.00936" lon="-0.13974">
        <ele>992</ele>
        <time>2018-09-02T07:23:59Z</time>
      </trkpt>
      <trkpt lat="43.00938" lon="-0.13967">
        <ele>989.3</ele>
        <time>2018-09-02T07:24:00Z</time>
      </trkpt>
      <trkpt lat="43.0094" lon="-0.13961">
        <ele>987.2</ele>
        <time>2018-09-02T07:24:01Z</time>
      </trkpt>
      <trkpt lat="43.00941" lon="-0.13955">
        <ele>985.2</ele>
        <time>2018-09-02T07:24:02Z</time>
      </trkpt>
      <trkpt lat="43.00943" lon="-0.13947">
        <ele>982.2</ele>
        <time>2018-09-02T07:24:03Z</time>
      </trkpt>
      <trkpt lat="43.00942" lon="-0.13941">
        <ele>980.3</ele>
        <time>2018-09-02T07:24:04Z</time>
      </trkpt>
      <trkpt lat="43.00941" lon="-0.13935">
        <ele>978.3</ele>
        <time>2018-09-02T07:24:05Z</time>
      </trkpt>
      <trkpt lat="43.00937" lon="-0.13929">
        <ele>977.1</ele>
        <time>2018-09-02T07:24:06Z</time>
      </trkpt>
      <trkpt lat="43.0093" lon="-0.13926">
        <ele>977.6</ele>
        <time>2018-09-02T07:24:07Z</time>
      </trkpt>
      <trkpt lat="43.00925" lon="-0.13921">
        <ele>977.2</ele>
        <time>2018-09-02T07:24:08Z</time>
      </trkpt>
      <trkpt lat="43.00919" lon="-0.13915">
        <ele>976.8</ele>
        <time>2018-09-02T07:24:09Z</time>
      </trkpt>
      <trkpt lat="43.00913" lon="-0.13909">
        <ele>976.1</ele>
        <time>2018-09-02T07:24:10Z</time>
      </trkpt>
      <trkpt lat="43.00907" lon="-0.13901">
        <ele>974.9</ele>
        <time>2018-09-02T07:24:11Z</time>
      </trkpt>
      <trkpt lat="43.00902" lon="-0.13892">
        <ele>973</ele>
        <time>2018-09-02T07:24:12Z</time>
      </trkpt>
      <trkpt lat="43.00897" lon="-0.13884">
        <ele>971.8</ele>
        <time>2018-09-02T07:24:13Z</time>
      </trkpt>
      <trkpt lat="43.00894" lon="-0.13876">
        <ele>970.4</ele>
        <time>2018-09-02T07:24:14Z</time>
      </trkpt>
      <trkpt lat="43.00888" lon="-0.13872">
        <ele>970.3</ele>
        <time>2018-09-02T07:24:15Z</time>
      </trkpt>
      <trkpt lat="43.00882" lon="-0.13867">
        <ele>970.5</ele>
        <time>2018-09-02T07:24:16Z</time>
      </trkpt>
      <trkpt lat="43.00875" lon="-0.13865">
        <ele>971.3</ele>
        <time>2018-09-02T07:24:17Z</time>
      </trkpt>
      <trkpt lat="43.0087" lon="-0.1386">
        <ele>971.5</ele>
        <time>2018-09-02T07:24:18Z</time>
      </trkpt>
      <trkpt lat="43.00864" lon="-0.13856">
        <ele>972.1</ele>
        <time>2018-09-02T07:24:19Z</time>
      </trkpt>
      <trkpt lat="43.00858" lon="-0.13851">
        <ele>972.5</ele>
        <time>2018-09-02T07:24:20Z</time>
      </trkpt>
      <trkpt lat="43.00853" lon="-0.13844">
        <ele>972.3</ele>
        <time>2018-09-02T07:24:21Z</time>
      </trkpt>
      <trkpt lat="43.00848" lon="-0.13838">
        <ele>972.2</ele>
        <time>2018-09-02T07:24:22Z</time>
      </trkpt>
      <trkpt lat="43.00843" lon="-0.13832">
        <ele>972.3</ele>
        <time>2018-09-02T07:24:23Z</time>
      </trkpt>
      <trkpt lat="43.0084" lon="-0.13826">
        <ele>972.1</ele>
        <time>2018-09-02T07:24:24Z</time>
      </trkpt>
      <trkpt lat="43.00835" lon="-0.1382">
        <ele>972</ele>
        <time>2018-09-02T07:24:25Z</time>
      </trkpt>
      <trkpt lat="43.00831" lon="-0.13805">
        <ele>970.5</ele>
        <time>2018-09-02T07:24:27Z</time>
      </trkpt>
      <trkpt lat="43.0083" lon="-0.13796">
        <ele>968.9</ele>
        <time>2018-09-02T07:24:28Z</time>
      </trkpt>
      <trkpt lat="43.0083" lon="-0.13786">
        <ele>967.1</ele>
        <time>2018-09-02T07:24:29Z</time>
      </trkpt>
      <trkpt lat="43.00831" lon="-0.13776">
        <ele>965.1</ele>
        <time>2018-09-02T07:24:30Z</time>
      </trkpt>
      <trkpt lat="43.00833" lon="-0.1377">
        <ele>963.4</ele>
        <time>2018-09-02T07:24:31Z</time>
      </trkpt>
      <trkpt lat="43.00834" lon="-0.13765">
        <ele>962.1</ele>
        <time>2018-09-02T07:24:32Z</time>
      </trkpt>
      <trkpt lat="43.00833" lon="-0.13759">
        <ele>960.9</ele>
        <time>2018-09-02T07:24:33Z</time>
      </trkpt>
      <trkpt lat="43.00832" lon="-0.13755">
        <ele>960.1</ele>
        <time>2018-09-02T07:24:34Z</time>
      </trkpt>
      <trkpt lat="43.0083" lon="-0.13752">
        <ele>959.8</ele>
        <time>2018-09-02T07:24:35Z</time>
      </trkpt>
      <trkpt lat="43.00825" lon="-0.13745">
        <ele>958.4</ele>
        <time>2018-09-02T07:24:37Z</time>
      </trkpt>
      <trkpt lat="43.00823" lon="-0.1374">
        <ele>957.3</ele>
        <time>2018-09-02T07:24:38Z</time>
      </trkpt>
      <trkpt lat="43.00821" lon="-0.13738">
        <ele>956.9</ele>
        <time>2018-09-02T07:24:39Z</time>
      </trkpt>
      <trkpt lat="43.00815" lon="-0.13737">
        <ele>957</ele>
        <time>2018-09-02T07:24:40Z</time>
      </trkpt>
      <trkpt lat="43.0081" lon="-0.13734">
        <ele>956.5</ele>
        <time>2018-09-02T07:24:41Z</time>
      </trkpt>
      <trkpt lat="43.00805" lon="-0.13731">
        <ele>955.8</ele>
        <time>2018-09-02T07:24:42Z</time>
      </trkpt>
      <trkpt lat="43.008" lon="-0.13727">
        <ele>954.9</ele>
        <time>2018-09-02T07:24:43Z</time>
      </trkpt>
      <trkpt lat="43.00795" lon="-0.13723">
        <ele>953.5</ele>
        <time>2018-09-02T07:24:44Z</time>
      </trkpt>
      <trkpt lat="43.0079" lon="-0.13717">
        <ele>952</ele>
        <time>2018-09-02T07:24:45Z</time>
      </trkpt>
      <trkpt lat="43.00785" lon="-0.13713">
        <ele>950.8</ele>
        <time>2018-09-02T07:24:46Z</time>
      </trkpt>
      <trkpt lat="43.0078" lon="-0.13709">
        <ele>949.5</ele>
        <time>2018-09-02T07:24:47Z</time>
      </trkpt>
      <trkpt lat="43.00774" lon="-0.13704">
        <ele>948.4</ele>
        <time>2018-09-02T07:24:48Z</time>
      </trkpt>
      <trkpt lat="43.00765" lon="-0.13696">
        <ele>946.8</ele>
        <time>2018-09-02T07:24:49Z</time>
      </trkpt>
      <trkpt lat="43.00758" lon="-0.13688">
        <ele>946.2</ele>
        <time>2018-09-02T07:24:50Z</time>
      </trkpt>
      <trkpt lat="43.00751" lon="-0.13681">
        <ele>945.5</ele>
        <time>2018-09-02T07:24:51Z</time>
      </trkpt>
      <trkpt lat="43.00743" lon="-0.13674">
        <ele>944.7</ele>
        <time>2018-09-02T07:24:52Z</time>
      </trkpt>
      <trkpt lat="43.00736" lon="-0.13667">
        <ele>943.5</ele>
        <time>2018-09-02T07:24:53Z</time>
      </trkpt>
      <trkpt lat="43.00729" lon="-0.13662">
        <ele>942.6</ele>
        <time>2018-09-02T07:24:54Z</time>
      </trkpt>
      <trkpt lat="43.00722" lon="-0.13658">
        <ele>942</ele>
        <time>2018-09-02T07:24:55Z</time>
      </trkpt>
      <trkpt lat="43.00706" lon="-0.13653">
        <ele>942.1</ele>
        <time>2018-09-02T07:24:57Z</time>
      </trkpt>
      <trkpt lat="43.00692" lon="-0.13649">
        <ele>942.1</ele>
        <time>2018-09-02T07:24:59Z</time>
      </trkpt>
      <trkpt lat="43.00671" lon="-0.13637">
        <ele>941.1</ele>
        <time>2018-09-02T07:25:02Z</time>
      </trkpt>
      <trkpt lat="43.00664" lon="-0.13632">
        <ele>940.9</ele>
        <time>2018-09-02T07:25:03Z</time>
      </trkpt>
      <trkpt lat="43.00657" lon="-0.13628">
        <ele>941</ele>
        <time>2018-09-02T07:25:04Z</time>
      </trkpt>
      <trkpt lat="43.00649" lon="-0.13625">
        <ele>941.2</ele>
        <time>2018-09-02T07:25:05Z</time>
      </trkpt>
      <trkpt lat="43.00642" lon="-0.13621">
        <ele>941.3</ele>
        <time>2018-09-02T07:25:06Z</time>
      </trkpt>
      <trkpt lat="43.00635" lon="-0.13616">
        <ele>941.1</ele>
        <time>2018-09-02T07:25:07Z</time>
      </trkpt>
      <trkpt lat="43.00621" lon="-0.13602">
        <ele>940.5</ele>
        <time>2018-09-02T07:25:09Z</time>
      </trkpt>
      <trkpt lat="43.00614" lon="-0.13594">
        <ele>939.8</ele>
        <time>2018-09-02T07:25:10Z</time>
      </trkpt>
      <trkpt lat="43.00608" lon="-0.13586">
        <ele>939.2</ele>
        <time>2018-09-02T07:25:11Z</time>
      </trkpt>
      <trkpt lat="43.00601" lon="-0.13578">
        <ele>938.8</ele>
        <time>2018-09-02T07:25:12Z</time>
      </trkpt>
      <trkpt lat="43.00595" lon="-0.13569">
        <ele>938.5</ele>
        <time>2018-09-02T07:25:13Z</time>
      </trkpt>
      <trkpt lat="43.00588" lon="-0.13561">
        <ele>938.2</ele>
        <time>2018-09-02T07:25:14Z</time>
      </trkpt>
      <trkpt lat="43.00581" lon="-0.13554">
        <ele>938.2</ele>
        <time>2018-09-02T07:25:15Z</time>
      </trkpt>
      <trkpt lat="43.00574" lon="-0.13546">
        <ele>938.6</ele>
        <time>2018-09-02T07:25:16Z</time>
      </trkpt>
      <trkpt lat="43.00567" lon="-0.13539">
        <ele>938.8</ele>
        <time>2018-09-02T07:25:17Z</time>
      </trkpt>
      <trkpt lat="43.0056" lon="-0.1353">
        <ele>938.7</ele>
        <time>2018-09-02T07:25:18Z</time>
      </trkpt>
      <trkpt lat="43.00553" lon="-0.13522">
        <ele>938.8</ele>
        <time>2018-09-02T07:25:19Z</time>
      </trkpt>
      <trkpt lat="43.00546" lon="-0.13513">
        <ele>938.7</ele>
        <time>2018-09-02T07:25:20Z</time>
      </trkpt>
      <trkpt lat="43.0054" lon="-0.13504">
        <ele>938.4</ele>
        <time>2018-09-02T07:25:21Z</time>
      </trkpt>
      <trkpt lat="43.00533" lon="-0.13496">
        <ele>938</ele>
        <time>2018-09-02T07:25:22Z</time>
      </trkpt>
      <trkpt lat="43.00527" lon="-0.13487">
        <ele>937.7</ele>
        <time>2018-09-02T07:25:23Z</time>
      </trkpt>
      <trkpt lat="43.00521" lon="-0.13479">
        <ele>937.6</ele>
        <time>2018-09-02T07:25:24Z</time>
      </trkpt>
      <trkpt lat="43.00499" lon="-0.13457">
        <ele>937.4</ele>
        <time>2018-09-02T07:25:27Z</time>
      </trkpt>
      <trkpt lat="43.00478" lon="-0.13442">
        <ele>936.7</ele>
        <time>2018-09-02T07:25:30Z</time>
      </trkpt>
      <trkpt lat="43.00471" lon="-0.13438">
        <ele>936.5</ele>
        <time>2018-09-02T07:25:31Z</time>
      </trkpt>
      <trkpt lat="43.00464" lon="-0.13435">
        <ele>936.3</ele>
        <time>2018-09-02T07:25:32Z</time>
      </trkpt>
      <trkpt lat="43.00456" lon="-0.13433">
        <ele>936.2</ele>
        <time>2018-09-02T07:25:33Z</time>
      </trkpt>
      <trkpt lat="43.00448" lon="-0.13435">
        <ele>936.3</ele>
        <time>2018-09-02T07:25:34Z</time>
      </trkpt>
      <trkpt lat="43.0044" lon="-0.13436">
        <ele>936.4</ele>
        <time>2018-09-02T07:25:35Z</time>
      </trkpt>
      <trkpt lat="43.00393" lon="-0.13434">
        <ele>937.1</ele>
        <time>2018-09-02T07:25:41Z</time>
      </trkpt>
      <trkpt lat="43.00385" lon="-0.13431">
        <ele>937.1</ele>
        <time>2018-09-02T07:25:42Z</time>
      </trkpt>
      <trkpt lat="43.00372" lon="-0.13422">
        <ele>936.5</ele>
        <time>2018-09-02T07:25:44Z</time>
      </trkpt>
      <trkpt lat="43.00333" lon="-0.13388">
        <ele>935</ele>
        <time>2018-09-02T07:25:50Z</time>
      </trkpt>
      <trkpt lat="43.00327" lon="-0.13382">
        <ele>935.1</ele>
        <time>2018-09-02T07:25:51Z</time>
      </trkpt>
      <trkpt lat="43.00314" lon="-0.13356">
        <ele>934.6</ele>
        <time>2018-09-02T07:25:54Z</time>
      </trkpt>
      <trkpt lat="43.0031" lon="-0.13348">
        <ele>934.4</ele>
        <time>2018-09-02T07:25:55Z</time>
      </trkpt>
      <trkpt lat="43.00307" lon="-0.13339">
        <ele>934.2</ele>
        <time>2018-09-02T07:25:56Z</time>
      </trkpt>
      <trkpt lat="43.00302" lon="-0.13331">
        <ele>934.1</ele>
        <time>2018-09-02T07:25:57Z</time>
      </trkpt>
      <trkpt lat="43.00298" lon="-0.13323">
        <ele>934.2</ele>
        <time>2018-09-02T07:25:58Z</time>
      </trkpt>
      <trkpt lat="43.00289" lon="-0.13307">
        <ele>934</ele>
        <time>2018-09-02T07:26:00Z</time>
      </trkpt>
      <trkpt lat="43.00279" lon="-0.13293">
        <ele>933.6</ele>
        <time>2018-09-02T07:26:02Z</time>
      </trkpt>
      <trkpt lat="43.00273" lon="-0.13276">
        <ele>932.8</ele>
        <time>2018-09-02T07:26:04Z</time>
      </trkpt>
      <trkpt lat="43.00269" lon="-0.13258">
        <ele>932.5</ele>
        <time>2018-09-02T07:26:06Z</time>
      </trkpt>
      <trkpt lat="43.00265" lon="-0.1324">
        <ele>932.1</ele>
        <time>2018-09-02T07:26:08Z</time>
      </trkpt>
      <trkpt lat="43.00258" lon="-0.13206">
        <ele>931.8</ele>
        <time>2018-09-02T07:26:12Z</time>
      </trkpt>
      <trkpt lat="43.00257" lon="-0.13196">
        <ele>931.8</ele>
        <time>2018-09-02T07:26:13Z</time>
      </trkpt>
      <trkpt lat="43.00255" lon="-0.13174">
        <ele>932.3</ele>
        <time>2018-09-02T07:26:15Z</time>
      </trkpt>
      <trkpt lat="43.00253" lon="-0.13163">
        <ele>932.4</ele>
        <time>2018-09-02T07:26:16Z</time>
      </trkpt>
      <trkpt lat="43.00251" lon="-0.13151">
        <ele>932.2</ele>
        <time>2018-09-02T07:26:17Z</time>
      </trkpt>
      <trkpt lat="43.00249" lon="-0.13138">
        <ele>931.9</ele>
        <time>2018-09-02T07:26:18Z</time>
      </trkpt>
      <trkpt lat="43.00247" lon="-0.13126">
        <ele>931.9</ele>
        <time>2018-09-02T07:26:19Z</time>
      </trkpt>
      <trkpt lat="43.00245" lon="-0.13113">
        <ele>931.9</ele>
        <time>2018-09-02T07:26:20Z</time>
      </trkpt>
      <trkpt lat="43.00242" lon="-0.13102">
        <ele>931.3</ele>
        <time>2018-09-02T07:26:21Z</time>
      </trkpt>
      <trkpt lat="43.00238" lon="-0.13091">
        <ele>930.5</ele>
        <time>2018-09-02T07:26:22Z</time>
      </trkpt>
      <trkpt lat="43.00234" lon="-0.13082">
        <ele>929.6</ele>
        <time>2018-09-02T07:26:23Z</time>
      </trkpt>
      <trkpt lat="43.00231" lon="-0.13073">
        <ele>928.9</ele>
        <time>2018-09-02T07:26:24Z</time>
      </trkpt>
      <trkpt lat="43.00229" lon="-0.13065">
        <ele>928.5</ele>
        <time>2018-09-02T07:26:25Z</time>
      </trkpt>
      <trkpt lat="43.00229" lon="-0.13059">
        <ele>928.4</ele>
        <time>2018-09-02T07:26:26Z</time>
      </trkpt>
      <trkpt lat="43.00234" lon="-0.13049">
        <ele>929.4</ele>
        <time>2018-09-02T07:26:29Z</time>
      </trkpt>
      <trkpt lat="43.00237" lon="-0.13047">
        <ele>930.2</ele>
        <time>2018-09-02T07:26:31Z</time>
      </trkpt>
      <trkpt lat="43.00239" lon="-0.13046">
        <ele>930.7</ele>
        <time>2018-09-02T07:26:32Z</time>
      </trkpt>
      <trkpt lat="43.00242" lon="-0.13045">
        <ele>931.2</ele>
        <time>2018-09-02T07:26:33Z</time>
      </trkpt>
      <trkpt lat="43.00244" lon="-0.13046">
        <ele>931.7</ele>
        <time>2018-09-02T07:26:34Z</time>
      </trkpt>
      <trkpt lat="43.00246" lon="-0.13044">
        <ele>932.2</ele>
        <time>2018-09-02T07:26:35Z</time>
      </trkpt>
      <trkpt lat="43.00248" lon="-0.13043">
        <ele>932.6</ele>
        <time>2018-09-02T07:26:36Z</time>
      </trkpt>
      <trkpt lat="43.0025" lon="-0.13042">
        <ele>933.1</ele>
        <time>2018-09-02T07:26:37Z</time>
      </trkpt>
      <trkpt lat="43.0025" lon="-0.13043">
        <ele>933</ele>
        <time>2018-09-02T07:26:38Z</time>
      </trkpt>
      <trkpt lat="43.00251" lon="-0.13042">
        <ele>933.2</ele>
        <time>2018-09-02T07:26:39Z</time>
      </trkpt>
      <trkpt lat="43.00252" lon="-0.13042">
        <ele>933.5</ele>
        <time>2018-09-02T07:26:40Z</time>
      </trkpt>
      <trkpt lat="43.00255" lon="-0.13038">
        <ele>934.2</ele>
        <time>2018-09-02T07:26:45Z</time>
      </trkpt>
      <trkpt lat="43.00255" lon="-0.13037">
        <ele>934.3</ele>
        <time>2018-09-02T07:26:47Z</time>
      </trkpt>
      <trkpt lat="43.00256" lon="-0.13037">
        <ele>934.5</ele>
        <time>2018-09-02T07:26:48Z</time>
      </trkpt>
      <trkpt lat="43.00256" lon="-0.13036">
        <ele>934.6</ele>
        <time>2018-09-02T07:26:49Z</time>
      </trkpt>
      <trkpt lat="43.00258" lon="-0.13036">
        <ele>934.9</ele>
        <time>2018-09-02T07:26:50Z</time>
      </trkpt>
      <trkpt lat="43.00259" lon="-0.13035">
        <ele>935.3</ele>
        <time>2018-09-02T07:26:51Z</time>
      </trkpt>
      <trkpt lat="43.0026" lon="-0.13034">
        <ele>935.6</ele>
        <time>2018-09-02T07:26:52Z</time>
      </trkpt>
      <trkpt lat="43.00262" lon="-0.13031">
        <ele>936.1</ele>
        <time>2018-09-02T07:26:54Z</time>
      </trkpt>
      <trkpt lat="43.00263" lon="-0.1303">
        <ele>936.2</ele>
        <time>2018-09-02T07:26:55Z</time>
      </trkpt>
      <trkpt lat="43.00264" lon="-0.13028">
        <ele>936.5</ele>
        <time>2018-09-02T07:26:56Z</time>
      </trkpt>
      <trkpt lat="43.00264" lon="-0.13027">
        <ele>936.6</ele>
        <time>2018-09-02T07:26:57Z</time>
      </trkpt>
      <trkpt lat="43.00265" lon="-0.13026">
        <ele>936.9</ele>
        <time>2018-09-02T07:26:58Z</time>
      </trkpt>
      <trkpt lat="43.00266" lon="-0.13025">
        <ele>937.1</ele>
        <time>2018-09-02T07:26:59Z</time>
      </trkpt>
      <trkpt lat="43.00267" lon="-0.13024">
        <ele>937.3</ele>
        <time>2018-09-02T07:27:00Z</time>
      </trkpt>
      <trkpt lat="43.00268" lon="-0.13023">
        <ele>937.5</ele>
        <time>2018-09-02T07:27:01Z</time>
      </trkpt>
      <trkpt lat="43.0027" lon="-0.13021">
        <ele>937.9</ele>
        <time>2018-09-02T07:27:02Z</time>
      </trkpt>
      <trkpt lat="43.0027" lon="-0.13019">
        <ele>938.1</ele>
        <time>2018-09-02T07:27:03Z</time>
      </trkpt>
      <trkpt lat="43.00272" lon="-0.13017">
        <ele>938.5</ele>
        <time>2018-09-02T07:27:04Z</time>
      </trkpt>
      <trkpt lat="43.00274" lon="-0.13015">
        <ele>939</ele>
        <time>2018-09-02T07:27:06Z</time>
      </trkpt>
      <trkpt lat="43.00275" lon="-0.13013">
        <ele>939.3</ele>
        <time>2018-09-02T07:27:07Z</time>
      </trkpt>
      <trkpt lat="43.00275" lon="-0.13012">
        <ele>939.4</ele>
        <time>2018-09-02T07:27:08Z</time>
      </trkpt>
      <trkpt lat="43.00276" lon="-0.1301">
        <ele>939.6</ele>
        <time>2018-09-02T07:27:09Z</time>
      </trkpt>
      <trkpt lat="43.00278" lon="-0.13008">
        <ele>939.9</ele>
        <time>2018-09-02T07:27:10Z</time>
      </trkpt>
      <trkpt lat="43.00281" lon="-0.13005">
        <ele>940.7</ele>
        <time>2018-09-02T07:27:13Z</time>
      </trkpt>
      <trkpt lat="43.00281" lon="-0.13004">
        <ele>940.9</ele>
        <time>2018-09-02T07:27:14Z</time>
      </trkpt>
      <trkpt lat="43.00282" lon="-0.13002">
        <ele>941.1</ele>
        <time>2018-09-02T07:27:15Z</time>
      </trkpt>
      <trkpt lat="43.00283" lon="-0.13001">
        <ele>941.3</ele>
        <time>2018-09-02T07:27:16Z</time>
      </trkpt>
      <trkpt lat="43.00284" lon="-0.13">
        <ele>941.4</ele>
        <time>2018-09-02T07:27:17Z</time>
      </trkpt>
      <trkpt lat="43.00286" lon="-0.12996">
        <ele>942.1</ele>
        <time>2018-09-02T07:27:23Z</time>
      </trkpt>
      <trkpt lat="43.00288" lon="-0.12995">
        <ele>942.6</ele>
        <time>2018-09-02T07:27:25Z</time>
      </trkpt>
      <trkpt lat="43.0029" lon="-0.12993">
        <ele>943</ele>
        <time>2018-09-02T07:27:26Z</time>
      </trkpt>
      <trkpt lat="43.00291" lon="-0.12992">
        <ele>943.2</ele>
        <time>2018-09-02T07:27:27Z</time>
      </trkpt>
      <trkpt lat="43.00291" lon="-0.12989">
        <ele>943.4</ele>
        <time>2018-09-02T07:27:28Z</time>
      </trkpt>
      <trkpt lat="43.00292" lon="-0.12986">
        <ele>943.6</ele>
        <time>2018-09-02T07:27:29Z</time>
      </trkpt>
      <trkpt lat="43.00294" lon="-0.12981">
        <ele>944.1</ele>
        <time>2018-09-02T07:27:33Z</time>
      </trkpt>
      <trkpt lat="43.00294" lon="-0.1298">
        <ele>944.2</ele>
        <time>2018-09-02T07:27:34Z</time>
      </trkpt>
      <trkpt lat="43.00297" lon="-0.12977">
        <ele>944.9</ele>
        <time>2018-09-02T07:27:35Z</time>
      </trkpt>
      <trkpt lat="43.00299" lon="-0.12976">
        <ele>945.3</ele>
        <time>2018-09-02T07:27:36Z</time>
      </trkpt>
      <trkpt lat="43.003" lon="-0.12976">
        <ele>945.6</ele>
        <time>2018-09-02T07:27:37Z</time>
      </trkpt>
      <trkpt lat="43.00301" lon="-0.12974">
        <ele>945.9</ele>
        <time>2018-09-02T07:27:38Z</time>
      </trkpt>
      <trkpt lat="43.00306" lon="-0.12967">
        <ele>947.2</ele>
        <time>2018-09-02T07:27:42Z</time>
      </trkpt>
      <trkpt lat="43.00307" lon="-0.12965">
        <ele>947.3</ele>
        <time>2018-09-02T07:27:43Z</time>
      </trkpt>
      <trkpt lat="43.00307" lon="-0.12963">
        <ele>947.4</ele>
        <time>2018-09-02T07:27:44Z</time>
      </trkpt>
      <trkpt lat="43.00308" lon="-0.12963">
        <ele>947.4</ele>
        <time>2018-09-02T07:27:45Z</time>
      </trkpt>
      <trkpt lat="43.00308" lon="-0.12961">
        <ele>947.5</ele>
        <time>2018-09-02T07:27:49Z</time>
      </trkpt>
      <trkpt lat="43.00312" lon="-0.12945">
        <ele>948.3</ele>
        <time>2018-09-02T07:27:55Z</time>
      </trkpt>
      <trkpt lat="43.00311" lon="-0.12943">
        <ele>948.2</ele>
        <time>2018-09-02T07:27:56Z</time>
      </trkpt>
      <trkpt lat="43.00311" lon="-0.1294">
        <ele>948.2</ele>
        <time>2018-09-02T07:27:57Z</time>
      </trkpt>
      <trkpt lat="43.00311" lon="-0.12936">
        <ele>948.3</ele>
        <time>2018-09-02T07:27:58Z</time>
      </trkpt>
      <trkpt lat="43.00312" lon="-0.12933">
        <ele>948.3</ele>
        <time>2018-09-02T07:27:59Z</time>
      </trkpt>
      <trkpt lat="43.00314" lon="-0.12928">
        <ele>948.9</ele>
        <time>2018-09-02T07:28:01Z</time>
      </trkpt>
      <trkpt lat="43.00316" lon="-0.12926">
        <ele>949.3</ele>
        <time>2018-09-02T07:28:03Z</time>
      </trkpt>
      <trkpt lat="43.00319" lon="-0.12924">
        <ele>949.8</ele>
        <time>2018-09-02T07:28:05Z</time>
      </trkpt>
      <trkpt lat="43.0032" lon="-0.12923">
        <ele>950</ele>
        <time>2018-09-02T07:28:07Z</time>
      </trkpt>
      <trkpt lat="43.0032" lon="-0.12922">
        <ele>950.1</ele>
        <time>2018-09-02T07:28:08Z</time>
      </trkpt>
      <trkpt lat="43.00321" lon="-0.12919">
        <ele>950.2</ele>
        <time>2018-09-02T07:28:09Z</time>
      </trkpt>
      <trkpt lat="43.00327" lon="-0.12915">
        <ele>951.5</ele>
        <time>2018-09-02T07:28:11Z</time>
      </trkpt>
      <trkpt lat="43.00329" lon="-0.12914">
        <ele>952</ele>
        <time>2018-09-02T07:28:12Z</time>
      </trkpt>
      <trkpt lat="43.00332" lon="-0.12918">
        <ele>952.8</ele>
        <time>2018-09-02T07:28:15Z</time>
      </trkpt>
      <trkpt lat="43.00333" lon="-0.12919">
        <ele>953</ele>
        <time>2018-09-02T07:28:16Z</time>
      </trkpt>
      <trkpt lat="43.00335" lon="-0.1292">
        <ele>953.3</ele>
        <time>2018-09-02T07:28:17Z</time>
      </trkpt>
      <trkpt lat="43.00336" lon="-0.1292">
        <ele>953.7</ele>
        <time>2018-09-02T07:28:18Z</time>
      </trkpt>
      <trkpt lat="43.00338" lon="-0.1292">
        <ele>954.1</ele>
        <time>2018-09-02T07:28:19Z</time>
      </trkpt>
      <trkpt lat="43.00342" lon="-0.12921">
        <ele>954.9</ele>
        <time>2018-09-02T07:28:21Z</time>
      </trkpt>
      <trkpt lat="43.00343" lon="-0.12921">
        <ele>955.2</ele>
        <time>2018-09-02T07:28:22Z</time>
      </trkpt>
      <trkpt lat="43.00345" lon="-0.12922">
        <ele>955.6</ele>
        <time>2018-09-02T07:28:23Z</time>
      </trkpt>
      <trkpt lat="43.00347" lon="-0.12923">
        <ele>956</ele>
        <time>2018-09-02T07:28:24Z</time>
      </trkpt>
      <trkpt lat="43.00348" lon="-0.12924">
        <ele>956.3</ele>
        <time>2018-09-02T07:28:25Z</time>
      </trkpt>
      <trkpt lat="43.00349" lon="-0.12925">
        <ele>956.5</ele>
        <time>2018-09-02T07:28:26Z</time>
      </trkpt>
      <trkpt lat="43.00351" lon="-0.12925">
        <ele>956.9</ele>
        <time>2018-09-02T07:28:27Z</time>
      </trkpt>
      <trkpt lat="43.00353" lon="-0.12925">
        <ele>957.4</ele>
        <time>2018-09-02T07:28:28Z</time>
      </trkpt>
      <trkpt lat="43.00361" lon="-0.12924">
        <ele>959.3</ele>
        <time>2018-09-02T07:28:32Z</time>
      </trkpt>
      <trkpt lat="43.00367" lon="-0.12923">
        <ele>960.4</ele>
        <time>2018-09-02T07:28:34Z</time>
      </trkpt>
      <trkpt lat="43.00373" lon="-0.12922">
        <ele>961.6</ele>
        <time>2018-09-02T07:28:36Z</time>
      </trkpt>
      <trkpt lat="43.00374" lon="-0.12921">
        <ele>961.9</ele>
        <time>2018-09-02T07:28:37Z</time>
      </trkpt>
      <trkpt lat="43.00376" lon="-0.12919">
        <ele>962.2</ele>
        <time>2018-09-02T07:28:38Z</time>
      </trkpt>
      <trkpt lat="43.00378" lon="-0.12921">
        <ele>962.7</ele>
        <time>2018-09-02T07:28:39Z</time>
      </trkpt>
      <trkpt lat="43.0038" lon="-0.12922">
        <ele>963.1</ele>
        <time>2018-09-02T07:28:40Z</time>
      </trkpt>
      <trkpt lat="43.00391" lon="-0.12935">
        <ele>965.6</ele>
        <time>2018-09-02T07:28:46Z</time>
      </trkpt>
      <trkpt lat="43.00393" lon="-0.12938">
        <ele>966</ele>
        <time>2018-09-02T07:28:47Z</time>
      </trkpt>
      <trkpt lat="43.00394" lon="-0.12941">
        <ele>966.3</ele>
        <time>2018-09-02T07:28:48Z</time>
      </trkpt>
      <trkpt lat="43.00395" lon="-0.12943">
        <ele>966.7</ele>
        <time>2018-09-02T07:28:49Z</time>
      </trkpt>
      <trkpt lat="43.00397" lon="-0.12946">
        <ele>967</ele>
        <time>2018-09-02T07:28:50Z</time>
      </trkpt>
      <trkpt lat="43.004" lon="-0.12952">
        <ele>967.8</ele>
        <time>2018-09-02T07:28:52Z</time>
      </trkpt>
      <trkpt lat="43.00404" lon="-0.12964">
        <ele>968.8</ele>
        <time>2018-09-02T07:28:56Z</time>
      </trkpt>
      <trkpt lat="43.00405" lon="-0.12965">
        <ele>969</ele>
        <time>2018-09-02T07:28:57Z</time>
      </trkpt>
      <trkpt lat="43.00406" lon="-0.12967">
        <ele>969.3</ele>
        <time>2018-09-02T07:28:58Z</time>
      </trkpt>
      <trkpt lat="43.00407" lon="-0.12968">
        <ele>969.6</ele>
        <time>2018-09-02T07:28:59Z</time>
      </trkpt>
      <trkpt lat="43.00408" lon="-0.12971">
        <ele>969.8</ele>
        <time>2018-09-02T07:29:00Z</time>
      </trkpt>
      <trkpt lat="43.00409" lon="-0.12973">
        <ele>970</ele>
        <time>2018-09-02T07:29:01Z</time>
      </trkpt>
      <trkpt lat="43.0041" lon="-0.12978">
        <ele>970.2</ele>
        <time>2018-09-02T07:29:03Z</time>
      </trkpt>
      <trkpt lat="43.00412" lon="-0.1298">
        <ele>970.5</ele>
        <time>2018-09-02T07:29:04Z</time>
      </trkpt>
      <trkpt lat="43.00413" lon="-0.12982">
        <ele>970.7</ele>
        <time>2018-09-02T07:29:05Z</time>
      </trkpt>
      <trkpt lat="43.00415" lon="-0.12985">
        <ele>971.1</ele>
        <time>2018-09-02T07:29:06Z</time>
      </trkpt>
      <trkpt lat="43.00416" lon="-0.12985">
        <ele>971.4</ele>
        <time>2018-09-02T07:29:07Z</time>
      </trkpt>
      <trkpt lat="43.00417" lon="-0.12985">
        <ele>971.7</ele>
        <time>2018-09-02T07:29:08Z</time>
      </trkpt>
      <trkpt lat="43.00418" lon="-0.12985">
        <ele>971.9</ele>
        <time>2018-09-02T07:29:09Z</time>
      </trkpt>
      <trkpt lat="43.00419" lon="-0.12986">
        <ele>972.1</ele>
        <time>2018-09-02T07:29:10Z</time>
      </trkpt>
      <trkpt lat="43.00421" lon="-0.12986">
        <ele>972.5</ele>
        <time>2018-09-02T07:29:12Z</time>
      </trkpt>
      <trkpt lat="43.00422" lon="-0.12985">
        <ele>972.8</ele>
        <time>2018-09-02T07:29:13Z</time>
      </trkpt>
      <trkpt lat="43.00425" lon="-0.12983">
        <ele>973.8</ele>
        <time>2018-09-02T07:29:17Z</time>
      </trkpt>
      <trkpt lat="43.00427" lon="-0.12981">
        <ele>974.4</ele>
        <time>2018-09-02T07:29:19Z</time>
      </trkpt>
      <trkpt lat="43.00428" lon="-0.12981">
        <ele>974.6</ele>
        <time>2018-09-02T07:29:20Z</time>
      </trkpt>
      <trkpt lat="43.00429" lon="-0.1298">
        <ele>974.9</ele>
        <time>2018-09-02T07:29:21Z</time>
      </trkpt>
      <trkpt lat="43.00432" lon="-0.12976">
        <ele>975.7</ele>
        <time>2018-09-02T07:29:24Z</time>
      </trkpt>
      <trkpt lat="43.00433" lon="-0.12975">
        <ele>976</ele>
        <time>2018-09-02T07:29:25Z</time>
      </trkpt>
      <trkpt lat="43.00434" lon="-0.12973">
        <ele>976.4</ele>
        <time>2018-09-02T07:29:26Z</time>
      </trkpt>
      <trkpt lat="43.00436" lon="-0.12971">
        <ele>977</ele>
        <time>2018-09-02T07:29:27Z</time>
      </trkpt>
      <trkpt lat="43.00438" lon="-0.1297">
        <ele>977.5</ele>
        <time>2018-09-02T07:29:28Z</time>
      </trkpt>
      <trkpt lat="43.0044" lon="-0.12969">
        <ele>977.8</ele>
        <time>2018-09-02T07:29:29Z</time>
      </trkpt>
      <trkpt lat="43.00444" lon="-0.12966">
        <ele>979.1</ele>
        <time>2018-09-02T07:29:32Z</time>
      </trkpt>
      <trkpt lat="43.00446" lon="-0.12964">
        <ele>979.5</ele>
        <time>2018-09-02T07:29:33Z</time>
      </trkpt>
      <trkpt lat="43.00447" lon="-0.12964">
        <ele>979.9</ele>
        <time>2018-09-02T07:29:34Z</time>
      </trkpt>
      <trkpt lat="43.00449" lon="-0.12963">
        <ele>980.3</ele>
        <time>2018-09-02T07:29:35Z</time>
      </trkpt>
      <trkpt lat="43.0045" lon="-0.12962">
        <ele>980.6</ele>
        <time>2018-09-02T07:29:36Z</time>
      </trkpt>
      <trkpt lat="43.00454" lon="-0.12961">
        <ele>981.6</ele>
        <time>2018-09-02T07:29:40Z</time>
      </trkpt>
      <trkpt lat="43.00454" lon="-0.1296">
        <ele>981.6</ele>
        <time>2018-09-02T07:29:41Z</time>
      </trkpt>
      <trkpt lat="43.00454" lon="-0.12961">
        <ele>981.6</ele>
        <time>2018-09-02T07:29:42Z</time>
      </trkpt>
      <trkpt lat="43.00454" lon="-0.1296">
        <ele>981.7</ele>
        <time>2018-09-02T07:29:43Z</time>
      </trkpt>
      <trkpt lat="43.00455" lon="-0.1296">
        <ele>981.8</ele>
        <time>2018-09-02T07:29:44Z</time>
      </trkpt>
      <trkpt lat="43.00457" lon="-0.1296">
        <ele>982.3</ele>
        <time>2018-09-02T07:29:47Z</time>
      </trkpt>
      <trkpt lat="43.00457" lon="-0.12959">
        <ele>982.5</ele>
        <time>2018-09-02T07:29:48Z</time>
      </trkpt>
      <trkpt lat="43.00458" lon="-0.12959">
        <ele>982.7</ele>
        <time>2018-09-02T07:29:49Z</time>
      </trkpt>
      <trkpt lat="43.00459" lon="-0.12958">
        <ele>983</ele>
        <time>2018-09-02T07:29:50Z</time>
      </trkpt>
      <trkpt lat="43.0046" lon="-0.12958">
        <ele>983.1</ele>
        <time>2018-09-02T07:29:51Z</time>
      </trkpt>
      <trkpt lat="43.00462" lon="-0.12956">
        <ele>983.6</ele>
        <time>2018-09-02T07:29:54Z</time>
      </trkpt>
      <trkpt lat="43.00463" lon="-0.12955">
        <ele>983.9</ele>
        <time>2018-09-02T07:29:55Z</time>
      </trkpt>
      <trkpt lat="43.00463" lon="-0.12954">
        <ele>984.1</ele>
        <time>2018-09-02T07:29:56Z</time>
      </trkpt>
      <trkpt lat="43.00464" lon="-0.12954">
        <ele>984.3</ele>
        <time>2018-09-02T07:29:57Z</time>
      </trkpt>
      <trkpt lat="43.00465" lon="-0.12954">
        <ele>984.5</ele>
        <time>2018-09-02T07:29:58Z</time>
      </trkpt>
      <trkpt lat="43.00466" lon="-0.12953">
        <ele>984.8</ele>
        <time>2018-09-02T07:29:59Z</time>
      </trkpt>
      <trkpt lat="43.00467" lon="-0.12953">
        <ele>985.2</ele>
        <time>2018-09-02T07:30:01Z</time>
      </trkpt>
      <trkpt lat="43.0047" lon="-0.12951">
        <ele>985.9</ele>
        <time>2018-09-02T07:30:07Z</time>
      </trkpt>
      <trkpt lat="43.00471" lon="-0.1295">
        <ele>986.3</ele>
        <time>2018-09-02T07:30:08Z</time>
      </trkpt>
      <trkpt lat="43.00472" lon="-0.12949">
        <ele>986.6</ele>
        <time>2018-09-02T07:30:09Z</time>
      </trkpt>
      <trkpt lat="43.00473" lon="-0.12948">
        <ele>987</ele>
        <time>2018-09-02T07:30:10Z</time>
      </trkpt>
      <trkpt lat="43.00474" lon="-0.12946">
        <ele>987.4</ele>
        <time>2018-09-02T07:30:11Z</time>
      </trkpt>
      <trkpt lat="43.00476" lon="-0.12945">
        <ele>988</ele>
        <time>2018-09-02T07:30:14Z</time>
      </trkpt>
      <trkpt lat="43.00477" lon="-0.12943">
        <ele>988.4</ele>
        <time>2018-09-02T07:30:15Z</time>
      </trkpt>
      <trkpt lat="43.00478" lon="-0.12941">
        <ele>988.7</ele>
        <time>2018-09-02T07:30:17Z</time>
      </trkpt>
      <trkpt lat="43.00479" lon="-0.1294">
        <ele>989</ele>
        <time>2018-09-02T07:30:18Z</time>
      </trkpt>
      <trkpt lat="43.0048" lon="-0.1294">
        <ele>989.2</ele>
        <time>2018-09-02T07:30:20Z</time>
      </trkpt>
      <trkpt lat="43.00484" lon="-0.12932">
        <ele>990.9</ele>
        <time>2018-09-02T07:30:25Z</time>
      </trkpt>
      <trkpt lat="43.00485" lon="-0.12931">
        <ele>991.2</ele>
        <time>2018-09-02T07:30:26Z</time>
      </trkpt>
      <trkpt lat="43.00486" lon="-0.12931">
        <ele>991.4</ele>
        <time>2018-09-02T07:30:27Z</time>
      </trkpt>
      <trkpt lat="43.00487" lon="-0.12931">
        <ele>991.8</ele>
        <time>2018-09-02T07:30:29Z</time>
      </trkpt>
      <trkpt lat="43.00491" lon="-0.12929">
        <ele>992.9</ele>
        <time>2018-09-02T07:30:32Z</time>
      </trkpt>
      <trkpt lat="43.00492" lon="-0.12928">
        <ele>993.3</ele>
        <time>2018-09-02T07:30:33Z</time>
      </trkpt>
      <trkpt lat="43.00493" lon="-0.12926">
        <ele>993.7</ele>
        <time>2018-09-02T07:30:34Z</time>
      </trkpt>
      <trkpt lat="43.00495" lon="-0.12925">
        <ele>994</ele>
        <time>2018-09-02T07:30:35Z</time>
      </trkpt>
      <trkpt lat="43.00496" lon="-0.12924">
        <ele>994.3</ele>
        <time>2018-09-02T07:30:36Z</time>
      </trkpt>
      <trkpt lat="43.00499" lon="-0.12922">
        <ele>995.3</ele>
        <time>2018-09-02T07:30:39Z</time>
      </trkpt>
      <trkpt lat="43.00499" lon="-0.12921">
        <ele>995.5</ele>
        <time>2018-09-02T07:30:40Z</time>
      </trkpt>
      <trkpt lat="43.005" lon="-0.1292">
        <ele>995.8</ele>
        <time>2018-09-02T07:30:41Z</time>
      </trkpt>
      <trkpt lat="43.00501" lon="-0.12919">
        <ele>996</ele>
        <time>2018-09-02T07:30:42Z</time>
      </trkpt>
      <trkpt lat="43.00503" lon="-0.12917">
        <ele>996.7</ele>
        <time>2018-09-02T07:30:48Z</time>
      </trkpt>
      <trkpt lat="43.00504" lon="-0.12916">
        <ele>997</ele>
        <time>2018-09-02T07:30:50Z</time>
      </trkpt>
      <trkpt lat="43.00505" lon="-0.12915">
        <ele>997.3</ele>
        <time>2018-09-02T07:30:51Z</time>
      </trkpt>
      <trkpt lat="43.00505" lon="-0.12914">
        <ele>997.6</ele>
        <time>2018-09-02T07:30:52Z</time>
      </trkpt>
      <trkpt lat="43.00509" lon="-0.1291">
        <ele>999</ele>
        <time>2018-09-02T07:30:56Z</time>
      </trkpt>
      <trkpt lat="43.0051" lon="-0.12909">
        <ele>999.3</ele>
        <time>2018-09-02T07:30:57Z</time>
      </trkpt>
      <trkpt lat="43.00511" lon="-0.12908">
        <ele>999.6</ele>
        <time>2018-09-02T07:30:58Z</time>
      </trkpt>
      <trkpt lat="43.00513" lon="-0.12908">
        <ele>1000.2</ele>
        <time>2018-09-02T07:31:01Z</time>
      </trkpt>
      <trkpt lat="43.00517" lon="-0.12904">
        <ele>1001.5</ele>
        <time>2018-09-02T07:31:06Z</time>
      </trkpt>
      <trkpt lat="43.00517" lon="-0.12896">
        <ele>1002.6</ele>
        <time>2018-09-02T07:31:10Z</time>
      </trkpt>
      <trkpt lat="43.00517" lon="-0.12893">
        <ele>1002.9</ele>
        <time>2018-09-02T07:31:11Z</time>
      </trkpt>
      <trkpt lat="43.00518" lon="-0.12889">
        <ele>1003.5</ele>
        <time>2018-09-02T07:31:12Z</time>
      </trkpt>
      <trkpt lat="43.00518" lon="-0.12886">
        <ele>1003.8</ele>
        <time>2018-09-02T07:31:13Z</time>
      </trkpt>
      <trkpt lat="43.00518" lon="-0.12884">
        <ele>1004</ele>
        <time>2018-09-02T07:31:14Z</time>
      </trkpt>
      <trkpt lat="43.00519" lon="-0.12882">
        <ele>1004.2</ele>
        <time>2018-09-02T07:31:15Z</time>
      </trkpt>
      <trkpt lat="43.00519" lon="-0.12871">
        <ele>1005.1</ele>
        <time>2018-09-02T07:31:20Z</time>
      </trkpt>
      <trkpt lat="43.00526" lon="-0.12861">
        <ele>1007.5</ele>
        <time>2018-09-02T07:31:25Z</time>
      </trkpt>
      <trkpt lat="43.00527" lon="-0.12859">
        <ele>1007.9</ele>
        <time>2018-09-02T07:31:26Z</time>
      </trkpt>
      <trkpt lat="43.00528" lon="-0.12858">
        <ele>1008.3</ele>
        <time>2018-09-02T07:31:27Z</time>
      </trkpt>
      <trkpt lat="43.00529" lon="-0.12856">
        <ele>1008.6</ele>
        <time>2018-09-02T07:31:28Z</time>
      </trkpt>
      <trkpt lat="43.00531" lon="-0.12852">
        <ele>1009.4</ele>
        <time>2018-09-02T07:31:30Z</time>
      </trkpt>
      <trkpt lat="43.00532" lon="-0.12849">
        <ele>1009.8</ele>
        <time>2018-09-02T07:31:31Z</time>
      </trkpt>
      <trkpt lat="43.00533" lon="-0.12847">
        <ele>1010.2</ele>
        <time>2018-09-02T07:31:32Z</time>
      </trkpt>
      <trkpt lat="43.00534" lon="-0.12845">
        <ele>1010.5</ele>
        <time>2018-09-02T07:31:33Z</time>
      </trkpt>
      <trkpt lat="43.00534" lon="-0.12843">
        <ele>1010.7</ele>
        <time>2018-09-02T07:31:34Z</time>
      </trkpt>
      <trkpt lat="43.0054" lon="-0.12836">
        <ele>1012.3</ele>
        <time>2018-09-02T07:31:38Z</time>
      </trkpt>
      <trkpt lat="43.00541" lon="-0.12836">
        <ele>1012.7</ele>
        <time>2018-09-02T07:31:39Z</time>
      </trkpt>
      <trkpt lat="43.00543" lon="-0.12834">
        <ele>1013.2</ele>
        <time>2018-09-02T07:31:40Z</time>
      </trkpt>
      <trkpt lat="43.00544" lon="-0.12834">
        <ele>1013.5</ele>
        <time>2018-09-02T07:31:41Z</time>
      </trkpt>
      <trkpt lat="43.00545" lon="-0.12834">
        <ele>1013.8</ele>
        <time>2018-09-02T07:31:42Z</time>
      </trkpt>
      <trkpt lat="43.00548" lon="-0.12832">
        <ele>1014.5</ele>
        <time>2018-09-02T07:31:44Z</time>
      </trkpt>
      <trkpt lat="43.00551" lon="-0.12828">
        <ele>1015.5</ele>
        <time>2018-09-02T07:31:47Z</time>
      </trkpt>
      <trkpt lat="43.00552" lon="-0.12825">
        <ele>1015.8</ele>
        <time>2018-09-02T07:31:48Z</time>
      </trkpt>
      <trkpt lat="43.00553" lon="-0.12823">
        <ele>1016.2</ele>
        <time>2018-09-02T07:31:49Z</time>
      </trkpt>
      <trkpt lat="43.00554" lon="-0.12821">
        <ele>1016.5</ele>
        <time>2018-09-02T07:31:50Z</time>
      </trkpt>
      <trkpt lat="43.00555" lon="-0.12816">
        <ele>1017.1</ele>
        <time>2018-09-02T07:31:52Z</time>
      </trkpt>
      <trkpt lat="43.00557" lon="-0.12814">
        <ele>1017.6</ele>
        <time>2018-09-02T07:31:54Z</time>
      </trkpt>
      <trkpt lat="43.00561" lon="-0.12815">
        <ele>1018.3</ele>
        <time>2018-09-02T07:31:57Z</time>
      </trkpt>
      <trkpt lat="43.00563" lon="-0.12816">
        <ele>1018.5</ele>
        <time>2018-09-02T07:31:58Z</time>
      </trkpt>
      <trkpt lat="43.00567" lon="-0.12819">
        <ele>1019.1</ele>
        <time>2018-09-02T07:32:00Z</time>
      </trkpt>
      <trkpt lat="43.00568" lon="-0.12821">
        <ele>1019.2</ele>
        <time>2018-09-02T07:32:01Z</time>
      </trkpt>
      <trkpt lat="43.0057" lon="-0.12823">
        <ele>1019.3</ele>
        <time>2018-09-02T07:32:02Z</time>
      </trkpt>
      <trkpt lat="43.00572" lon="-0.12826">
        <ele>1019.5</ele>
        <time>2018-09-02T07:32:03Z</time>
      </trkpt>
      <trkpt lat="43.00574" lon="-0.12829">
        <ele>1019.6</ele>
        <time>2018-09-02T07:32:04Z</time>
      </trkpt>
      <trkpt lat="43.00583" lon="-0.12836">
        <ele>1020.8</ele>
        <time>2018-09-02T07:32:08Z</time>
      </trkpt>
      <trkpt lat="43.00589" lon="-0.12843">
        <ele>1021.3</ele>
        <time>2018-09-02T07:32:12Z</time>
      </trkpt>
      <trkpt lat="43.00593" lon="-0.12845">
        <ele>1021.7</ele>
        <time>2018-09-02T07:32:14Z</time>
      </trkpt>
      <trkpt lat="43.00594" lon="-0.12846">
        <ele>1021.9</ele>
        <time>2018-09-02T07:32:15Z</time>
      </trkpt>
      <trkpt lat="43.00596" lon="-0.12848">
        <ele>1022</ele>
        <time>2018-09-02T07:32:16Z</time>
      </trkpt>
      <trkpt lat="43.00598" lon="-0.1285">
        <ele>1022.1</ele>
        <time>2018-09-02T07:32:17Z</time>
      </trkpt>
      <trkpt lat="43.006" lon="-0.12852">
        <ele>1022.2</ele>
        <time>2018-09-02T07:32:18Z</time>
      </trkpt>
      <trkpt lat="43.00611" lon="-0.1287">
        <ele>1022.3</ele>
        <time>2018-09-02T07:32:25Z</time>
      </trkpt>
      <trkpt lat="43.00612" lon="-0.12873">
        <ele>1022.4</ele>
        <time>2018-09-02T07:32:26Z</time>
      </trkpt>
      <trkpt lat="43.00614" lon="-0.12875">
        <ele>1022.6</ele>
        <time>2018-09-02T07:32:27Z</time>
      </trkpt>
      <trkpt lat="43.00616" lon="-0.12876">
        <ele>1022.8</ele>
        <time>2018-09-02T07:32:28Z</time>
      </trkpt>
      <trkpt lat="43.00618" lon="-0.12878">
        <ele>1022.9</ele>
        <time>2018-09-02T07:32:29Z</time>
      </trkpt>
      <trkpt lat="43.00619" lon="-0.1288">
        <ele>1023.1</ele>
        <time>2018-09-02T07:32:30Z</time>
      </trkpt>
      <trkpt lat="43.00621" lon="-0.12881">
        <ele>1023.3</ele>
        <time>2018-09-02T07:32:31Z</time>
      </trkpt>
      <trkpt lat="43.00623" lon="-0.12883">
        <ele>1023.5</ele>
        <time>2018-09-02T07:32:32Z</time>
      </trkpt>
      <trkpt lat="43.00628" lon="-0.12887">
        <ele>1024.2</ele>
        <time>2018-09-02T07:32:35Z</time>
      </trkpt>
      <trkpt lat="43.0063" lon="-0.12888">
        <ele>1024.4</ele>
        <time>2018-09-02T07:32:36Z</time>
      </trkpt>
      <trkpt lat="43.00631" lon="-0.12889">
        <ele>1024.5</ele>
        <time>2018-09-02T07:32:37Z</time>
      </trkpt>
      <trkpt lat="43.00631" lon="-0.1289">
        <ele>1024.6</ele>
        <time>2018-09-02T07:32:38Z</time>
      </trkpt>
      <trkpt lat="43.00633" lon="-0.12891">
        <ele>1024.7</ele>
        <time>2018-09-02T07:32:39Z</time>
      </trkpt>
      <trkpt lat="43.00634" lon="-0.12892">
        <ele>1025</ele>
        <time>2018-09-02T07:32:40Z</time>
      </trkpt>
      <trkpt lat="43.00636" lon="-0.12893">
        <ele>1025.2</ele>
        <time>2018-09-02T07:32:41Z</time>
      </trkpt>
      <trkpt lat="43.00638" lon="-0.12893">
        <ele>1025.4</ele>
        <time>2018-09-02T07:32:42Z</time>
      </trkpt>
      <trkpt lat="43.00639" lon="-0.12895">
        <ele>1025.6</ele>
        <time>2018-09-02T07:32:43Z</time>
      </trkpt>
      <trkpt lat="43.00641" lon="-0.12897">
        <ele>1025.7</ele>
        <time>2018-09-02T07:32:44Z</time>
      </trkpt>
      <trkpt lat="43.00643" lon="-0.12898">
        <ele>1025.8</ele>
        <time>2018-09-02T07:32:45Z</time>
      </trkpt>
      <trkpt lat="43.00649" lon="-0.12902">
        <ele>1026.3</ele>
        <time>2018-09-02T07:32:49Z</time>
      </trkpt>
      <trkpt lat="43.00651" lon="-0.12903">
        <ele>1026.5</ele>
        <time>2018-09-02T07:32:50Z</time>
      </trkpt>
      <trkpt lat="43.00652" lon="-0.12903">
        <ele>1026.6</ele>
        <time>2018-09-02T07:32:51Z</time>
      </trkpt>
      <trkpt lat="43.00654" lon="-0.12903">
        <ele>1026.8</ele>
        <time>2018-09-02T07:32:52Z</time>
      </trkpt>
      <trkpt lat="43.00655" lon="-0.12904">
        <ele>1027</ele>
        <time>2018-09-02T07:32:53Z</time>
      </trkpt>
      <trkpt lat="43.00665" lon="-0.12907">
        <ele>1027.8</ele>
        <time>2018-09-02T07:32:58Z</time>
      </trkpt>
      <trkpt lat="43.00667" lon="-0.12908">
        <ele>1028</ele>
        <time>2018-09-02T07:32:59Z</time>
      </trkpt>
      <trkpt lat="43.00669" lon="-0.12909">
        <ele>1028</ele>
        <time>2018-09-02T07:33:00Z</time>
      </trkpt>
      <trkpt lat="43.0067" lon="-0.12909">
        <ele>1028.1</ele>
        <time>2018-09-02T07:33:01Z</time>
      </trkpt>
      <trkpt lat="43.00672" lon="-0.1291">
        <ele>1028.1</ele>
        <time>2018-09-02T07:33:02Z</time>
      </trkpt>
      <trkpt lat="43.00676" lon="-0.12912">
        <ele>1028.2</ele>
        <time>2018-09-02T07:33:04Z</time>
      </trkpt>
      <trkpt lat="43.00693" lon="-0.12923">
        <ele>1028.2</ele>
        <time>2018-09-02T07:33:10Z</time>
      </trkpt>
      <trkpt lat="43.00705" lon="-0.12924">
        <ele>1028.8</ele>
        <time>2018-09-02T07:33:14Z</time>
      </trkpt>
      <trkpt lat="43.00707" lon="-0.12923">
        <ele>1029.1</ele>
        <time>2018-09-02T07:33:15Z</time>
      </trkpt>
      <trkpt lat="43.0071" lon="-0.12919">
        <ele>1029.7</ele>
        <time>2018-09-02T07:33:17Z</time>
      </trkpt>
      <trkpt lat="43.00712" lon="-0.12918">
        <ele>1030</ele>
        <time>2018-09-02T07:33:18Z</time>
      </trkpt>
      <trkpt lat="43.00713" lon="-0.12917">
        <ele>1030.3</ele>
        <time>2018-09-02T07:33:19Z</time>
      </trkpt>
      <trkpt lat="43.00715" lon="-0.12917">
        <ele>1030.5</ele>
        <time>2018-09-02T07:33:20Z</time>
      </trkpt>
      <trkpt lat="43.00717" lon="-0.12916">
        <ele>1030.8</ele>
        <time>2018-09-02T07:33:21Z</time>
      </trkpt>
      <trkpt lat="43.00721" lon="-0.12913">
        <ele>1031.4</ele>
        <time>2018-09-02T07:33:23Z</time>
      </trkpt>
      <trkpt lat="43.00723" lon="-0.12911">
        <ele>1031.8</ele>
        <time>2018-09-02T07:33:24Z</time>
      </trkpt>
      <trkpt lat="43.00724" lon="-0.12909">
        <ele>1032.2</ele>
        <time>2018-09-02T07:33:25Z</time>
      </trkpt>
      <trkpt lat="43.00724" lon="-0.12907">
        <ele>1032.5</ele>
        <time>2018-09-02T07:33:26Z</time>
      </trkpt>
      <trkpt lat="43.00726" lon="-0.12905">
        <ele>1032.9</ele>
        <time>2018-09-02T07:33:27Z</time>
      </trkpt>
      <trkpt lat="43.00727" lon="-0.12903">
        <ele>1033.3</ele>
        <time>2018-09-02T07:33:28Z</time>
      </trkpt>
      <trkpt lat="43.00729" lon="-0.12902">
        <ele>1033.6</ele>
        <time>2018-09-02T07:33:29Z</time>
      </trkpt>
      <trkpt lat="43.00733" lon="-0.12898">
        <ele>1034.4</ele>
        <time>2018-09-02T07:33:32Z</time>
      </trkpt>
      <trkpt lat="43.00735" lon="-0.12897">
        <ele>1034.7</ele>
        <time>2018-09-02T07:33:33Z</time>
      </trkpt>
      <trkpt lat="43.00736" lon="-0.12896">
        <ele>1035</ele>
        <time>2018-09-02T07:33:34Z</time>
      </trkpt>
      <trkpt lat="43.00737" lon="-0.12894">
        <ele>1035.3</ele>
        <time>2018-09-02T07:33:35Z</time>
      </trkpt>
      <trkpt lat="43.00738" lon="-0.12893">
        <ele>1035.6</ele>
        <time>2018-09-02T07:33:36Z</time>
      </trkpt>
      <trkpt lat="43.0074" lon="-0.12888">
        <ele>1036.4</ele>
        <time>2018-09-02T07:33:39Z</time>
      </trkpt>
      <trkpt lat="43.00741" lon="-0.12887">
        <ele>1036.8</ele>
        <time>2018-09-02T07:33:40Z</time>
      </trkpt>
      <trkpt lat="43.00741" lon="-0.12885">
        <ele>1037.1</ele>
        <time>2018-09-02T07:33:41Z</time>
      </trkpt>
      <trkpt lat="43.00741" lon="-0.12883">
        <ele>1037.5</ele>
        <time>2018-09-02T07:33:42Z</time>
      </trkpt>
      <trkpt lat="43.00742" lon="-0.12881">
        <ele>1037.8</ele>
        <time>2018-09-02T07:33:43Z</time>
      </trkpt>
      <trkpt lat="43.00741" lon="-0.12878">
        <ele>1038.3</ele>
        <time>2018-09-02T07:33:45Z</time>
      </trkpt>
      <trkpt lat="43.0074" lon="-0.12875">
        <ele>1038.8</ele>
        <time>2018-09-02T07:33:47Z</time>
      </trkpt>
      <trkpt lat="43.0074" lon="-0.12873">
        <ele>1039.1</ele>
        <time>2018-09-02T07:33:48Z</time>
      </trkpt>
      <trkpt lat="43.00741" lon="-0.12871">
        <ele>1039.5</ele>
        <time>2018-09-02T07:33:49Z</time>
      </trkpt>
      <trkpt lat="43.00741" lon="-0.12869">
        <ele>1039.9</ele>
        <time>2018-09-02T07:33:50Z</time>
      </trkpt>
      <trkpt lat="43.00741" lon="-0.12868">
        <ele>1040.2</ele>
        <time>2018-09-02T07:33:51Z</time>
      </trkpt>
      <trkpt lat="43.00742" lon="-0.12863">
        <ele>1041.2</ele>
        <time>2018-09-02T07:33:54Z</time>
      </trkpt>
      <trkpt lat="43.00743" lon="-0.12861">
        <ele>1041.6</ele>
        <time>2018-09-02T07:33:55Z</time>
      </trkpt>
      <trkpt lat="43.00743" lon="-0.12859">
        <ele>1041.8</ele>
        <time>2018-09-02T07:33:56Z</time>
      </trkpt>
      <trkpt lat="43.00744" lon="-0.12857">
        <ele>1042.1</ele>
        <time>2018-09-02T07:33:57Z</time>
      </trkpt>
      <trkpt lat="43.00744" lon="-0.12852">
        <ele>1042.9</ele>
        <time>2018-09-02T07:34:00Z</time>
      </trkpt>
      <trkpt lat="43.00744" lon="-0.1285">
        <ele>1043.2</ele>
        <time>2018-09-02T07:34:01Z</time>
      </trkpt>
      <trkpt lat="43.00744" lon="-0.12849">
        <ele>1043.5</ele>
        <time>2018-09-02T07:34:02Z</time>
      </trkpt>
      <trkpt lat="43.00744" lon="-0.12847">
        <ele>1043.7</ele>
        <time>2018-09-02T07:34:03Z</time>
      </trkpt>
      <trkpt lat="43.00744" lon="-0.12845">
        <ele>1044</ele>
        <time>2018-09-02T07:34:04Z</time>
      </trkpt>
      <trkpt lat="43.00744" lon="-0.12838">
        <ele>1045.1</ele>
        <time>2018-09-02T07:34:09Z</time>
      </trkpt>
      <trkpt lat="43.00743" lon="-0.12836">
        <ele>1045.4</ele>
        <time>2018-09-02T07:34:11Z</time>
      </trkpt>
      <trkpt lat="43.00743" lon="-0.12835">
        <ele>1045.5</ele>
        <time>2018-09-02T07:34:12Z</time>
      </trkpt>
      <trkpt lat="43.00742" lon="-0.12834">
        <ele>1045.7</ele>
        <time>2018-09-02T07:34:13Z</time>
      </trkpt>
      <trkpt lat="43.00742" lon="-0.12833">
        <ele>1045.8</ele>
        <time>2018-09-02T07:34:14Z</time>
      </trkpt>
      <trkpt lat="43.00741" lon="-0.12832">
        <ele>1045.9</ele>
        <time>2018-09-02T07:34:15Z</time>
      </trkpt>
      <trkpt lat="43.00739" lon="-0.12825">
        <ele>1046.8</ele>
        <time>2018-09-02T07:34:19Z</time>
      </trkpt>
      <trkpt lat="43.00738" lon="-0.12823">
        <ele>1047.1</ele>
        <time>2018-09-02T07:34:20Z</time>
      </trkpt>
      <trkpt lat="43.00738" lon="-0.1282">
        <ele>1047.4</ele>
        <time>2018-09-02T07:34:21Z</time>
      </trkpt>
      <trkpt lat="43.00738" lon="-0.12818">
        <ele>1047.7</ele>
        <time>2018-09-02T07:34:22Z</time>
      </trkpt>
      <trkpt lat="43.00736" lon="-0.1281">
        <ele>1048.9</ele>
        <time>2018-09-02T07:34:26Z</time>
      </trkpt>
      <trkpt lat="43.00736" lon="-0.12808">
        <ele>1049.2</ele>
        <time>2018-09-02T07:34:27Z</time>
      </trkpt>
      <trkpt lat="43.00735" lon="-0.12806">
        <ele>1049.4</ele>
        <time>2018-09-02T07:34:28Z</time>
      </trkpt>
      <trkpt lat="43.00734" lon="-0.12803">
        <ele>1049.8</ele>
        <time>2018-09-02T07:34:29Z</time>
      </trkpt>
      <trkpt lat="43.00734" lon="-0.12801">
        <ele>1050.1</ele>
        <time>2018-09-02T07:34:30Z</time>
      </trkpt>
      <trkpt lat="43.00733" lon="-0.12799">
        <ele>1050.4</ele>
        <time>2018-09-02T07:34:31Z</time>
      </trkpt>
      <trkpt lat="43.00729" lon="-0.12793">
        <ele>1051.5</ele>
        <time>2018-09-02T07:34:35Z</time>
      </trkpt>
      <trkpt lat="43.00729" lon="-0.12792">
        <ele>1051.8</ele>
        <time>2018-09-02T07:34:36Z</time>
      </trkpt>
      <trkpt lat="43.00728" lon="-0.1279">
        <ele>1052.1</ele>
        <time>2018-09-02T07:34:37Z</time>
      </trkpt>
      <trkpt lat="43.00728" lon="-0.12788">
        <ele>1052.5</ele>
        <time>2018-09-02T07:34:38Z</time>
      </trkpt>
      <trkpt lat="43.00727" lon="-0.12786">
        <ele>1052.9</ele>
        <time>2018-09-02T07:34:39Z</time>
      </trkpt>
      <trkpt lat="43.00725" lon="-0.12783">
        <ele>1053.6</ele>
        <time>2018-09-02T07:34:41Z</time>
      </trkpt>
      <trkpt lat="43.00724" lon="-0.1278">
        <ele>1054.4</ele>
        <time>2018-09-02T07:34:43Z</time>
      </trkpt>
      <trkpt lat="43.00724" lon="-0.12778">
        <ele>1054.7</ele>
        <time>2018-09-02T07:34:44Z</time>
      </trkpt>
      <trkpt lat="43.00723" lon="-0.12777">
        <ele>1055.1</ele>
        <time>2018-09-02T07:34:45Z</time>
      </trkpt>
      <trkpt lat="43.00723" lon="-0.12775">
        <ele>1055.4</ele>
        <time>2018-09-02T07:34:46Z</time>
      </trkpt>
      <trkpt lat="43.00722" lon="-0.12773">
        <ele>1055.6</ele>
        <time>2018-09-02T07:34:47Z</time>
      </trkpt>
      <trkpt lat="43.00721" lon="-0.1277">
        <ele>1055.8</ele>
        <time>2018-09-02T07:34:49Z</time>
      </trkpt>
      <trkpt lat="43.00718" lon="-0.12765">
        <ele>1056.2</ele>
        <time>2018-09-02T07:34:52Z</time>
      </trkpt>
      <trkpt lat="43.00718" lon="-0.12763">
        <ele>1056.4</ele>
        <time>2018-09-02T07:34:53Z</time>
      </trkpt>
      <trkpt lat="43.00718" lon="-0.12761">
        <ele>1056.6</ele>
        <time>2018-09-02T07:34:54Z</time>
      </trkpt>
      <trkpt lat="43.00718" lon="-0.1276">
        <ele>1056.8</ele>
        <time>2018-09-02T07:34:55Z</time>
      </trkpt>
      <trkpt lat="43.00717" lon="-0.12758">
        <ele>1057.1</ele>
        <time>2018-09-02T07:34:56Z</time>
      </trkpt>
      <trkpt lat="43.00716" lon="-0.12751">
        <ele>1057.8</ele>
        <time>2018-09-02T07:35:00Z</time>
      </trkpt>
      <trkpt lat="43.00715" lon="-0.12749">
        <ele>1058.1</ele>
        <time>2018-09-02T07:35:01Z</time>
      </trkpt>
      <trkpt lat="43.00715" lon="-0.12748">
        <ele>1058.1</ele>
        <time>2018-09-02T07:35:02Z</time>
      </trkpt>
      <trkpt lat="43.00715" lon="-0.12746">
        <ele>1058.3</ele>
        <time>2018-09-02T07:35:03Z</time>
      </trkpt>
      <trkpt lat="43.00715" lon="-0.12744">
        <ele>1058.4</ele>
        <time>2018-09-02T07:35:04Z</time>
      </trkpt>
      <trkpt lat="43.00714" lon="-0.12741">
        <ele>1058.5</ele>
        <time>2018-09-02T07:35:06Z</time>
      </trkpt>
      <trkpt lat="43.00713" lon="-0.12739">
        <ele>1058.6</ele>
        <time>2018-09-02T07:35:07Z</time>
      </trkpt>
      <trkpt lat="43.00712" lon="-0.12737">
        <ele>1058.7</ele>
        <time>2018-09-02T07:35:08Z</time>
      </trkpt>
      <trkpt lat="43.00712" lon="-0.12735">
        <ele>1058.9</ele>
        <time>2018-09-02T07:35:09Z</time>
      </trkpt>
      <trkpt lat="43.00711" lon="-0.12732">
        <ele>1059</ele>
        <time>2018-09-02T07:35:10Z</time>
      </trkpt>
      <trkpt lat="43.0071" lon="-0.12731">
        <ele>1059.1</ele>
        <time>2018-09-02T07:35:11Z</time>
      </trkpt>
      <trkpt lat="43.00708" lon="-0.12726">
        <ele>1059.5</ele>
        <time>2018-09-02T07:35:13Z</time>
      </trkpt>
      <trkpt lat="43.00705" lon="-0.12713">
        <ele>1060.9</ele>
        <time>2018-09-02T07:35:19Z</time>
      </trkpt>
      <trkpt lat="43.00704" lon="-0.12711">
        <ele>1061.1</ele>
        <time>2018-09-02T07:35:20Z</time>
      </trkpt>
      <trkpt lat="43.00704" lon="-0.12709">
        <ele>1061.4</ele>
        <time>2018-09-02T07:35:21Z</time>
      </trkpt>
      <trkpt lat="43.00703" lon="-0.12707">
        <ele>1061.7</ele>
        <time>2018-09-02T07:35:22Z</time>
      </trkpt>
      <trkpt lat="43.00703" lon="-0.12705">
        <ele>1061.9</ele>
        <time>2018-09-02T07:35:23Z</time>
      </trkpt>
      <trkpt lat="43.00699" lon="-0.12693">
        <ele>1063.6</ele>
        <time>2018-09-02T07:35:28Z</time>
      </trkpt>
      <trkpt lat="43.00697" lon="-0.12691">
        <ele>1063.9</ele>
        <time>2018-09-02T07:35:29Z</time>
      </trkpt>
      <trkpt lat="43.00695" lon="-0.12688">
        <ele>1064.1</ele>
        <time>2018-09-02T07:35:30Z</time>
      </trkpt>
      <trkpt lat="43.00694" lon="-0.12684">
        <ele>1064.3</ele>
        <time>2018-09-02T07:35:31Z</time>
      </trkpt>
      <trkpt lat="43.00693" lon="-0.12681">
        <ele>1064.2</ele>
        <time>2018-09-02T07:35:32Z</time>
      </trkpt>
      <trkpt lat="43.00692" lon="-0.12677">
        <ele>1064.2</ele>
        <time>2018-09-02T07:35:33Z</time>
      </trkpt>
      <trkpt lat="43.00688" lon="-0.12648">
        <ele>1064.1</ele>
        <time>2018-09-02T07:35:39Z</time>
      </trkpt>
      <trkpt lat="43.00685" lon="-0.12623">
        <ele>1065.3</ele>
        <time>2018-09-02T07:35:44Z</time>
      </trkpt>
      <trkpt lat="43.00684" lon="-0.12606">
        <ele>1066.8</ele>
        <time>2018-09-02T07:35:48Z</time>
      </trkpt>
      <trkpt lat="43.00684" lon="-0.12603">
        <ele>1067.1</ele>
        <time>2018-09-02T07:35:49Z</time>
      </trkpt>
      <trkpt lat="43.00682" lon="-0.12591">
        <ele>1068.3</ele>
        <time>2018-09-02T07:35:53Z</time>
      </trkpt>
      <trkpt lat="43.00682" lon="-0.12588">
        <ele>1068.6</ele>
        <time>2018-09-02T07:35:54Z</time>
      </trkpt>
      <trkpt lat="43.00682" lon="-0.12585">
        <ele>1068.9</ele>
        <time>2018-09-02T07:35:55Z</time>
      </trkpt>
      <trkpt lat="43.00682" lon="-0.12583">
        <ele>1069.2</ele>
        <time>2018-09-02T07:35:56Z</time>
      </trkpt>
      <trkpt lat="43.00682" lon="-0.12581">
        <ele>1069.6</ele>
        <time>2018-09-02T07:35:57Z</time>
      </trkpt>
      <trkpt lat="43.00682" lon="-0.12574">
        <ele>1070.8</ele>
        <time>2018-09-02T07:36:00Z</time>
      </trkpt>
      <trkpt lat="43.00683" lon="-0.12572">
        <ele>1071.2</ele>
        <time>2018-09-02T07:36:01Z</time>
      </trkpt>
      <trkpt lat="43.00683" lon="-0.1257">
        <ele>1071.7</ele>
        <time>2018-09-02T07:36:02Z</time>
      </trkpt>
      <trkpt lat="43.00684" lon="-0.12568">
        <ele>1072</ele>
        <time>2018-09-02T07:36:03Z</time>
      </trkpt>
      <trkpt lat="43.00685" lon="-0.12566">
        <ele>1072.4</ele>
        <time>2018-09-02T07:36:04Z</time>
      </trkpt>
      <trkpt lat="43.00685" lon="-0.12564">
        <ele>1072.8</ele>
        <time>2018-09-02T07:36:05Z</time>
      </trkpt>
      <trkpt lat="43.00686" lon="-0.12562">
        <ele>1073.2</ele>
        <time>2018-09-02T07:36:06Z</time>
      </trkpt>
      <trkpt lat="43.00686" lon="-0.12561">
        <ele>1073.4</ele>
        <time>2018-09-02T07:36:07Z</time>
      </trkpt>
      <trkpt lat="43.00687" lon="-0.1256">
        <ele>1073.7</ele>
        <time>2018-09-02T07:36:08Z</time>
      </trkpt>
      <trkpt lat="43.00687" lon="-0.12558">
        <ele>1074</ele>
        <time>2018-09-02T07:36:09Z</time>
      </trkpt>
      <trkpt lat="43.00688" lon="-0.12556">
        <ele>1074.4</ele>
        <time>2018-09-02T07:36:10Z</time>
      </trkpt>
      <trkpt lat="43.00688" lon="-0.12554">
        <ele>1074.7</ele>
        <time>2018-09-02T07:36:11Z</time>
      </trkpt>
      <trkpt lat="43.00689" lon="-0.12551">
        <ele>1075.3</ele>
        <time>2018-09-02T07:36:13Z</time>
      </trkpt>
      <trkpt lat="43.00689" lon="-0.12549">
        <ele>1075.6</ele>
        <time>2018-09-02T07:36:14Z</time>
      </trkpt>
      <trkpt lat="43.0069" lon="-0.12547">
        <ele>1075.9</ele>
        <time>2018-09-02T07:36:15Z</time>
      </trkpt>
      <trkpt lat="43.00691" lon="-0.12546">
        <ele>1076.1</ele>
        <time>2018-09-02T07:36:16Z</time>
      </trkpt>
      <trkpt lat="43.00692" lon="-0.12544">
        <ele>1076.4</ele>
        <time>2018-09-02T07:36:17Z</time>
      </trkpt>
      <trkpt lat="43.00693" lon="-0.12539">
        <ele>1077.3</ele>
        <time>2018-09-02T07:36:20Z</time>
      </trkpt>
      <trkpt lat="43.00694" lon="-0.12537">
        <ele>1077.6</ele>
        <time>2018-09-02T07:36:21Z</time>
      </trkpt>
      <trkpt lat="43.00694" lon="-0.12536">
        <ele>1077.8</ele>
        <time>2018-09-02T07:36:22Z</time>
      </trkpt>
      <trkpt lat="43.00694" lon="-0.12534">
        <ele>1078.1</ele>
        <time>2018-09-02T07:36:23Z</time>
      </trkpt>
      <trkpt lat="43.00698" lon="-0.12522">
        <ele>1079</ele>
        <time>2018-09-02T07:36:28Z</time>
      </trkpt>
      <trkpt lat="43.00698" lon="-0.12519">
        <ele>1079.1</ele>
        <time>2018-09-02T07:36:29Z</time>
      </trkpt>
      <trkpt lat="43.00699" lon="-0.12517">
        <ele>1079.2</ele>
        <time>2018-09-02T07:36:30Z</time>
      </trkpt>
      <trkpt lat="43.00699" lon="-0.12514">
        <ele>1079.3</ele>
        <time>2018-09-02T07:36:31Z</time>
      </trkpt>
      <trkpt lat="43.00699" lon="-0.12512">
        <ele>1079.4</ele>
        <time>2018-09-02T07:36:32Z</time>
      </trkpt>
      <trkpt lat="43.007" lon="-0.12501">
        <ele>1080</ele>
        <time>2018-09-02T07:36:36Z</time>
      </trkpt>
      <trkpt lat="43.00702" lon="-0.12477">
        <ele>1081.3</ele>
        <time>2018-09-02T07:36:43Z</time>
      </trkpt>
      <trkpt lat="43.00702" lon="-0.12468">
        <ele>1082.4</ele>
        <time>2018-09-02T07:36:46Z</time>
      </trkpt>
      <trkpt lat="43.00702" lon="-0.12465">
        <ele>1082.9</ele>
        <time>2018-09-02T07:36:47Z</time>
      </trkpt>
      <trkpt lat="43.00703" lon="-0.12463">
        <ele>1083.5</ele>
        <time>2018-09-02T07:36:48Z</time>
      </trkpt>
      <trkpt lat="43.00703" lon="-0.1246">
        <ele>1084</ele>
        <time>2018-09-02T07:36:49Z</time>
      </trkpt>
      <trkpt lat="43.00702" lon="-0.1245">
        <ele>1086</ele>
        <time>2018-09-02T07:36:54Z</time>
      </trkpt>
      <trkpt lat="43.00703" lon="-0.12448">
        <ele>1086.3</ele>
        <time>2018-09-02T07:36:55Z</time>
      </trkpt>
      <trkpt lat="43.00703" lon="-0.12446">
        <ele>1086.7</ele>
        <time>2018-09-02T07:36:56Z</time>
      </trkpt>
      <trkpt lat="43.00703" lon="-0.12444">
        <ele>1087.1</ele>
        <time>2018-09-02T07:36:57Z</time>
      </trkpt>
      <trkpt lat="43.00704" lon="-0.12442">
        <ele>1087.5</ele>
        <time>2018-09-02T07:36:58Z</time>
      </trkpt>
      <trkpt lat="43.00704" lon="-0.12438">
        <ele>1088.2</ele>
        <time>2018-09-02T07:37:00Z</time>
      </trkpt>
      <trkpt lat="43.00705" lon="-0.12437">
        <ele>1088.6</ele>
        <time>2018-09-02T07:37:01Z</time>
      </trkpt>
      <trkpt lat="43.00705" lon="-0.12435">
        <ele>1088.9</ele>
        <time>2018-09-02T07:37:02Z</time>
      </trkpt>
      <trkpt lat="43.00706" lon="-0.12434">
        <ele>1089.2</ele>
        <time>2018-09-02T07:37:03Z</time>
      </trkpt>
      <trkpt lat="43.00706" lon="-0.12432">
        <ele>1089.5</ele>
        <time>2018-09-02T07:37:04Z</time>
      </trkpt>
      <trkpt lat="43.00707" lon="-0.12428">
        <ele>1090.2</ele>
        <time>2018-09-02T07:37:06Z</time>
      </trkpt>
      <trkpt lat="43.00706" lon="-0.12427">
        <ele>1090.5</ele>
        <time>2018-09-02T07:37:07Z</time>
      </trkpt>
      <trkpt lat="43.00706" lon="-0.12426">
        <ele>1090.8</ele>
        <time>2018-09-02T07:37:08Z</time>
      </trkpt>
      <trkpt lat="43.00706" lon="-0.12424">
        <ele>1091.1</ele>
        <time>2018-09-02T07:37:09Z</time>
      </trkpt>
      <trkpt lat="43.00706" lon="-0.12422">
        <ele>1091.5</ele>
        <time>2018-09-02T07:37:10Z</time>
      </trkpt>
      <trkpt lat="43.00706" lon="-0.12418">
        <ele>1092.2</ele>
        <time>2018-09-02T07:37:12Z</time>
      </trkpt>
      <trkpt lat="43.00705" lon="-0.12417">
        <ele>1092.6</ele>
        <time>2018-09-02T07:37:13Z</time>
      </trkpt>
      <trkpt lat="43.00704" lon="-0.12416">
        <ele>1092.7</ele>
        <time>2018-09-02T07:37:14Z</time>
      </trkpt>
      <trkpt lat="43.00704" lon="-0.12414">
        <ele>1092.8</ele>
        <time>2018-09-02T07:37:15Z</time>
      </trkpt>
      <trkpt lat="43.00703" lon="-0.12412">
        <ele>1092.9</ele>
        <time>2018-09-02T07:37:16Z</time>
      </trkpt>
      <trkpt lat="43.00703" lon="-0.1241">
        <ele>1093</ele>
        <time>2018-09-02T07:37:17Z</time>
      </trkpt>
      <trkpt lat="43.00702" lon="-0.12408">
        <ele>1093.1</ele>
        <time>2018-09-02T07:37:18Z</time>
      </trkpt>
      <trkpt lat="43.00702" lon="-0.12407">
        <ele>1093.2</ele>
        <time>2018-09-02T07:37:19Z</time>
      </trkpt>
      <trkpt lat="43.00702" lon="-0.12406">
        <ele>1093.2</ele>
        <time>2018-09-02T07:37:20Z</time>
      </trkpt>
      <trkpt lat="43.00701" lon="-0.12404">
        <ele>1093.3</ele>
        <time>2018-09-02T07:37:21Z</time>
      </trkpt>
      <trkpt lat="43.00701" lon="-0.12403">
        <ele>1093.4</ele>
        <time>2018-09-02T07:37:22Z</time>
      </trkpt>
      <trkpt lat="43.00701" lon="-0.12402">
        <ele>1093.4</ele>
        <time>2018-09-02T07:37:23Z</time>
      </trkpt>
      <trkpt lat="43.00697" lon="-0.12398">
        <ele>1093.6</ele>
        <time>2018-09-02T07:37:27Z</time>
      </trkpt>
      <trkpt lat="43.00694" lon="-0.12398">
        <ele>1093.6</ele>
        <time>2018-09-02T07:37:29Z</time>
      </trkpt>
      <trkpt lat="43.00692" lon="-0.12399">
        <ele>1093.5</ele>
        <time>2018-09-02T07:37:30Z</time>
      </trkpt>
      <trkpt lat="43.0069" lon="-0.124">
        <ele>1093.3</ele>
        <time>2018-09-02T07:37:31Z</time>
      </trkpt>
      <trkpt lat="43.00688" lon="-0.12401">
        <ele>1093.1</ele>
        <time>2018-09-02T07:37:32Z</time>
      </trkpt>
      <trkpt lat="43.00686" lon="-0.12403">
        <ele>1092.9</ele>
        <time>2018-09-02T07:37:33Z</time>
      </trkpt>
      <trkpt lat="43.00684" lon="-0.12402">
        <ele>1092.7</ele>
        <time>2018-09-02T07:37:34Z</time>
      </trkpt>
      <trkpt lat="43.00679" lon="-0.12401">
        <ele>1092.4</ele>
        <time>2018-09-02T07:37:36Z</time>
      </trkpt>
      <trkpt lat="43.00665" lon="-0.12405">
        <ele>1090.9</ele>
        <time>2018-09-02T07:37:40Z</time>
      </trkpt>
      <trkpt lat="43.00653" lon="-0.12412">
        <ele>1087</ele>
        <time>2018-09-02T07:37:42Z</time>
      </trkpt>
      <trkpt lat="43.00646" lon="-0.12415">
        <ele>1084.6</ele>
        <time>2018-09-02T07:37:43Z</time>
      </trkpt>
      <trkpt lat="43.0064" lon="-0.12418">
        <ele>1082.4</ele>
        <time>2018-09-02T07:37:44Z</time>
      </trkpt>
      <trkpt lat="43.00635" lon="-0.12421">
        <ele>1080</ele>
        <time>2018-09-02T07:37:45Z</time>
      </trkpt>
      <trkpt lat="43.0063" lon="-0.12424">
        <ele>1078</ele>
        <time>2018-09-02T07:37:46Z</time>
      </trkpt>
      <trkpt lat="43.00625" lon="-0.12427">
        <ele>1075.9</ele>
        <time>2018-09-02T07:37:47Z</time>
      </trkpt>
      <trkpt lat="43.00621" lon="-0.12429">
        <ele>1074.1</ele>
        <time>2018-09-02T07:37:48Z</time>
      </trkpt>
      <trkpt lat="43.00617" lon="-0.1243">
        <ele>1072.6</ele>
        <time>2018-09-02T07:37:49Z</time>
      </trkpt>
      <trkpt lat="43.00613" lon="-0.12431">
        <ele>1071.2</ele>
        <time>2018-09-02T07:37:50Z</time>
      </trkpt>
      <trkpt lat="43.00609" lon="-0.12432">
        <ele>1069.8</ele>
        <time>2018-09-02T07:37:51Z</time>
      </trkpt>
      <trkpt lat="43.00605" lon="-0.12432">
        <ele>1068.4</ele>
        <time>2018-09-02T07:37:52Z</time>
      </trkpt>
      <trkpt lat="43.00599" lon="-0.12433">
        <ele>1066.3</ele>
        <time>2018-09-02T07:37:53Z</time>
      </trkpt>
      <trkpt lat="43.00592" lon="-0.12434">
        <ele>1063.9</ele>
        <time>2018-09-02T07:37:54Z</time>
      </trkpt>
      <trkpt lat="43.00585" lon="-0.12436">
        <ele>1061.6</ele>
        <time>2018-09-02T07:37:55Z</time>
      </trkpt>
      <trkpt lat="43.00581" lon="-0.12437">
        <ele>1060.4</ele>
        <time>2018-09-02T07:37:56Z</time>
      </trkpt>
      <trkpt lat="43.00579" lon="-0.1244">
        <ele>1060.1</ele>
        <time>2018-09-02T07:37:57Z</time>
      </trkpt>
      <trkpt lat="43.00578" lon="-0.12444">
        <ele>1060.6</ele>
        <time>2018-09-02T07:37:58Z</time>
      </trkpt>
      <trkpt lat="43.00576" lon="-0.1245">
        <ele>1060.2</ele>
        <time>2018-09-02T07:37:59Z</time>
      </trkpt>
      <trkpt lat="43.00573" lon="-0.12462">
        <ele>1058.8</ele>
        <time>2018-09-02T07:38:01Z</time>
      </trkpt>
      <trkpt lat="43.00573" lon="-0.12468">
        <ele>1058.4</ele>
        <time>2018-09-02T07:38:02Z</time>
      </trkpt>
      <trkpt lat="43.00572" lon="-0.12474">
        <ele>1057.7</ele>
        <time>2018-09-02T07:38:03Z</time>
      </trkpt>
      <trkpt lat="43.00572" lon="-0.12481">
        <ele>1057</ele>
        <time>2018-09-02T07:38:04Z</time>
      </trkpt>
      <trkpt lat="43.00572" lon="-0.12486">
        <ele>1056.8</ele>
        <time>2018-09-02T07:38:05Z</time>
      </trkpt>
      <trkpt lat="43.00574" lon="-0.12491">
        <ele>1057</ele>
        <time>2018-09-02T07:38:06Z</time>
      </trkpt>
      <trkpt lat="43.00575" lon="-0.12495">
        <ele>1057.1</ele>
        <time>2018-09-02T07:38:07Z</time>
      </trkpt>
      <trkpt lat="43.00577" lon="-0.12499">
        <ele>1057.3</ele>
        <time>2018-09-02T07:38:08Z</time>
      </trkpt>
      <trkpt lat="43.00578" lon="-0.12504">
        <ele>1057.5</ele>
        <time>2018-09-02T07:38:09Z</time>
      </trkpt>
      <trkpt lat="43.0058" lon="-0.1251">
        <ele>1057.5</ele>
        <time>2018-09-02T07:38:10Z</time>
      </trkpt>
      <trkpt lat="43.00582" lon="-0.12516">
        <ele>1057.8</ele>
        <time>2018-09-02T07:38:11Z</time>
      </trkpt>
      <trkpt lat="43.00584" lon="-0.12521">
        <ele>1057.8</ele>
        <time>2018-09-02T07:38:12Z</time>
      </trkpt>
      <trkpt lat="43.00585" lon="-0.12526">
        <ele>1057.8</ele>
        <time>2018-09-02T07:38:13Z</time>
      </trkpt>
      <trkpt lat="43.00586" lon="-0.12529">
        <ele>1057.5</ele>
        <time>2018-09-02T07:38:14Z</time>
      </trkpt>
      <trkpt lat="43.00585" lon="-0.12533">
        <ele>1056.9</ele>
        <time>2018-09-02T07:38:15Z</time>
      </trkpt>
      <trkpt lat="43.00584" lon="-0.12536">
        <ele>1056</ele>
        <time>2018-09-02T07:38:16Z</time>
      </trkpt>
      <trkpt lat="43.00583" lon="-0.1254">
        <ele>1054.8</ele>
        <time>2018-09-02T07:38:17Z</time>
      </trkpt>
      <trkpt lat="43.00583" lon="-0.12544">
        <ele>1054.5</ele>
        <time>2018-09-02T07:38:18Z</time>
      </trkpt>
      <trkpt lat="43.00584" lon="-0.12546">
        <ele>1054.5</ele>
        <time>2018-09-02T07:38:19Z</time>
      </trkpt>
      <trkpt lat="43.00585" lon="-0.1255">
        <ele>1054.4</ele>
        <time>2018-09-02T07:38:20Z</time>
      </trkpt>
      <trkpt lat="43.00585" lon="-0.12553">
        <ele>1053.7</ele>
        <time>2018-09-02T07:38:21Z</time>
      </trkpt>
      <trkpt lat="43.00584" lon="-0.12557">
        <ele>1052.9</ele>
        <time>2018-09-02T07:38:22Z</time>
      </trkpt>
      <trkpt lat="43.00584" lon="-0.12561">
        <ele>1052.3</ele>
        <time>2018-09-02T07:38:23Z</time>
      </trkpt>
      <trkpt lat="43.00585" lon="-0.12565">
        <ele>1052</ele>
        <time>2018-09-02T07:38:24Z</time>
      </trkpt>
      <trkpt lat="43.00586" lon="-0.12569">
        <ele>1051.9</ele>
        <time>2018-09-02T07:38:25Z</time>
      </trkpt>
      <trkpt lat="43.00589" lon="-0.1258">
        <ele>1051</ele>
        <time>2018-09-02T07:38:28Z</time>
      </trkpt>
      <trkpt lat="43.0059" lon="-0.12582">
        <ele>1050.9</ele>
        <time>2018-09-02T07:38:29Z</time>
      </trkpt>
      <trkpt lat="43.00591" lon="-0.12591">
        <ele>1049.8</ele>
        <time>2018-09-02T07:38:33Z</time>
      </trkpt>
      <trkpt lat="43.00598" lon="-0.12605">
        <ele>1049.2</ele>
        <time>2018-09-02T07:38:37Z</time>
      </trkpt>
      <trkpt lat="43.006" lon="-0.1261">
        <ele>1049</ele>
        <time>2018-09-02T07:38:38Z</time>
      </trkpt>
      <trkpt lat="43.00603" lon="-0.12615">
        <ele>1048.9</ele>
        <time>2018-09-02T07:38:39Z</time>
      </trkpt>
      <trkpt lat="43.00604" lon="-0.1262">
        <ele>1048.6</ele>
        <time>2018-09-02T07:38:40Z</time>
      </trkpt>
      <trkpt lat="43.00604" lon="-0.12625">
        <ele>1047.9</ele>
        <time>2018-09-02T07:38:41Z</time>
      </trkpt>
      <trkpt lat="43.00604" lon="-0.12628">
        <ele>1047.5</ele>
        <time>2018-09-02T07:38:42Z</time>
      </trkpt>
      <trkpt lat="43.00608" lon="-0.12636">
        <ele>1047.4</ele>
        <time>2018-09-02T07:38:44Z</time>
      </trkpt>
      <trkpt lat="43.0061" lon="-0.12641">
        <ele>1047.2</ele>
        <time>2018-09-02T07:38:45Z</time>
      </trkpt>
      <trkpt lat="43.00611" lon="-0.12646">
        <ele>1047</ele>
        <time>2018-09-02T07:38:46Z</time>
      </trkpt>
      <trkpt lat="43.00611" lon="-0.12651">
        <ele>1046.4</ele>
        <time>2018-09-02T07:38:47Z</time>
      </trkpt>
      <trkpt lat="43.00611" lon="-0.12656">
        <ele>1045.4</ele>
        <time>2018-09-02T07:38:48Z</time>
      </trkpt>
      <trkpt lat="43.00609" lon="-0.12663">
        <ele>1043.8</ele>
        <time>2018-09-02T07:38:49Z</time>
      </trkpt>
      <trkpt lat="43.00606" lon="-0.1267">
        <ele>1042</ele>
        <time>2018-09-02T07:38:50Z</time>
      </trkpt>
      <trkpt lat="43.00603" lon="-0.12678">
        <ele>1040.4</ele>
        <time>2018-09-02T07:38:51Z</time>
      </trkpt>
      <trkpt lat="43.006" lon="-0.12688">
        <ele>1038.6</ele>
        <time>2018-09-02T07:38:52Z</time>
      </trkpt>
      <trkpt lat="43.00596" lon="-0.12696">
        <ele>1037.1</ele>
        <time>2018-09-02T07:38:53Z</time>
      </trkpt>
      <trkpt lat="43.00592" lon="-0.12703">
        <ele>1035.5</ele>
        <time>2018-09-02T07:38:54Z</time>
      </trkpt>
      <trkpt lat="43.00588" lon="-0.12709">
        <ele>1034.1</ele>
        <time>2018-09-02T07:38:55Z</time>
      </trkpt>
      <trkpt lat="43.00584" lon="-0.12714">
        <ele>1032.8</ele>
        <time>2018-09-02T07:38:56Z</time>
      </trkpt>
      <trkpt lat="43.00581" lon="-0.12718">
        <ele>1031.6</ele>
        <time>2018-09-02T07:38:57Z</time>
      </trkpt>
      <trkpt lat="43.00577" lon="-0.12722">
        <ele>1030.2</ele>
        <time>2018-09-02T07:38:58Z</time>
      </trkpt>
      <trkpt lat="43.00573" lon="-0.12725">
        <ele>1028.6</ele>
        <time>2018-09-02T07:38:59Z</time>
      </trkpt>
      <trkpt lat="43.00567" lon="-0.12729">
        <ele>1026.6</ele>
        <time>2018-09-02T07:39:00Z</time>
      </trkpt>
      <trkpt lat="43.00563" lon="-0.12733">
        <ele>1024.8</ele>
        <time>2018-09-02T07:39:01Z</time>
      </trkpt>
      <trkpt lat="43.00559" lon="-0.12738">
        <ele>1023.1</ele>
        <time>2018-09-02T07:39:02Z</time>
      </trkpt>
      <trkpt lat="43.00554" lon="-0.12743">
        <ele>1021.2</ele>
        <time>2018-09-02T07:39:03Z</time>
      </trkpt>
      <trkpt lat="43.00549" lon="-0.12749">
        <ele>1019.2</ele>
        <time>2018-09-02T07:39:04Z</time>
      </trkpt>
      <trkpt lat="43.00544" lon="-0.12754">
        <ele>1017.5</ele>
        <time>2018-09-02T07:39:05Z</time>
      </trkpt>
      <trkpt lat="43.00541" lon="-0.1276">
        <ele>1016.3</ele>
        <time>2018-09-02T07:39:06Z</time>
      </trkpt>
      <trkpt lat="43.00539" lon="-0.12766">
        <ele>1015.3</ele>
        <time>2018-09-02T07:39:07Z</time>
      </trkpt>
      <trkpt lat="43.00536" lon="-0.12773">
        <ele>1014.3</ele>
        <time>2018-09-02T07:39:08Z</time>
      </trkpt>
      <trkpt lat="43.00534" lon="-0.1278">
        <ele>1013.4</ele>
        <time>2018-09-02T07:39:09Z</time>
      </trkpt>
      <trkpt lat="43.0053" lon="-0.12786">
        <ele>1012.2</ele>
        <time>2018-09-02T07:39:10Z</time>
      </trkpt>
      <trkpt lat="43.00526" lon="-0.12792">
        <ele>1010.8</ele>
        <time>2018-09-02T07:39:11Z</time>
      </trkpt>
      <trkpt lat="43.00519" lon="-0.12794">
        <ele>1008.7</ele>
        <time>2018-09-02T07:39:12Z</time>
      </trkpt>
      <trkpt lat="43.00512" lon="-0.12793">
        <ele>1006.7</ele>
        <time>2018-09-02T07:39:13Z</time>
      </trkpt>
      <trkpt lat="43.00506" lon="-0.1279">
        <ele>1004.8</ele>
        <time>2018-09-02T07:39:14Z</time>
      </trkpt>
      <trkpt lat="43.00501" lon="-0.12788">
        <ele>1003.2</ele>
        <time>2018-09-02T07:39:15Z</time>
      </trkpt>
      <trkpt lat="43.00495" lon="-0.12786">
        <ele>1001.2</ele>
        <time>2018-09-02T07:39:16Z</time>
      </trkpt>
      <trkpt lat="43.0049" lon="-0.12785">
        <ele>999.5</ele>
        <time>2018-09-02T07:39:17Z</time>
      </trkpt>
      <trkpt lat="43.00486" lon="-0.12784">
        <ele>998.1</ele>
        <time>2018-09-02T07:39:18Z</time>
      </trkpt>
      <trkpt lat="43.00484" lon="-0.12782">
        <ele>997.2</ele>
        <time>2018-09-02T07:39:19Z</time>
      </trkpt>
      <trkpt lat="43.00481" lon="-0.1278">
        <ele>996.1</ele>
        <time>2018-09-02T07:39:20Z</time>
      </trkpt>
      <trkpt lat="43.00478" lon="-0.12778">
        <ele>995.1</ele>
        <time>2018-09-02T07:39:21Z</time>
      </trkpt>
      <trkpt lat="43.00476" lon="-0.12775">
        <ele>994.4</ele>
        <time>2018-09-02T07:39:22Z</time>
      </trkpt>
      <trkpt lat="43.00474" lon="-0.12772">
        <ele>993.5</ele>
        <time>2018-09-02T07:39:23Z</time>
      </trkpt>
      <trkpt lat="43.00472" lon="-0.1277">
        <ele>992.9</ele>
        <time>2018-09-02T07:39:24Z</time>
      </trkpt>
      <trkpt lat="43.0047" lon="-0.12768">
        <ele>992</ele>
        <time>2018-09-02T07:39:25Z</time>
      </trkpt>
      <trkpt lat="43.00467" lon="-0.12766">
        <ele>990.9</ele>
        <time>2018-09-02T07:39:26Z</time>
      </trkpt>
      <trkpt lat="43.00464" lon="-0.12763">
        <ele>989.7</ele>
        <time>2018-09-02T07:39:27Z</time>
      </trkpt>
      <trkpt lat="43.0046" lon="-0.1276">
        <ele>987.8</ele>
        <time>2018-09-02T07:39:28Z</time>
      </trkpt>
      <trkpt lat="43.00456" lon="-0.12756">
        <ele>986.1</ele>
        <time>2018-09-02T07:39:29Z</time>
      </trkpt>
      <trkpt lat="43.00452" lon="-0.12751">
        <ele>984.1</ele>
        <time>2018-09-02T07:39:30Z</time>
      </trkpt>
      <trkpt lat="43.00448" lon="-0.12746">
        <ele>982.3</ele>
        <time>2018-09-02T07:39:31Z</time>
      </trkpt>
      <trkpt lat="43.00444" lon="-0.12742">
        <ele>980.7</ele>
        <time>2018-09-02T07:39:32Z</time>
      </trkpt>
      <trkpt lat="43.00442" lon="-0.12739">
        <ele>979.6</ele>
        <time>2018-09-02T07:39:33Z</time>
      </trkpt>
      <trkpt lat="43.00439" lon="-0.12737">
        <ele>978.5</ele>
        <time>2018-09-02T07:39:34Z</time>
      </trkpt>
      <trkpt lat="43.00437" lon="-0.12738">
        <ele>977.4</ele>
        <time>2018-09-02T07:39:35Z</time>
      </trkpt>
      <trkpt lat="43.00434" lon="-0.1274">
        <ele>976.3</ele>
        <time>2018-09-02T07:39:36Z</time>
      </trkpt>
      <trkpt lat="43.00432" lon="-0.12742">
        <ele>975.8</ele>
        <time>2018-09-02T07:39:37Z</time>
      </trkpt>
      <trkpt lat="43.00431" lon="-0.12744">
        <ele>975.5</ele>
        <time>2018-09-02T07:39:38Z</time>
      </trkpt>
      <trkpt lat="43.00431" lon="-0.12747">
        <ele>975.3</ele>
        <time>2018-09-02T07:39:39Z</time>
      </trkpt>
      <trkpt lat="43.00428" lon="-0.12752">
        <ele>974.5</ele>
        <time>2018-09-02T07:39:40Z</time>
      </trkpt>
      <trkpt lat="43.00425" lon="-0.12758">
        <ele>973.9</ele>
        <time>2018-09-02T07:39:41Z</time>
      </trkpt>
      <trkpt lat="43.00422" lon="-0.12764">
        <ele>973.1</ele>
        <time>2018-09-02T07:39:42Z</time>
      </trkpt>
      <trkpt lat="43.00419" lon="-0.12771">
        <ele>972.4</ele>
        <time>2018-09-02T07:39:43Z</time>
      </trkpt>
      <trkpt lat="43.00416" lon="-0.12778">
        <ele>971.8</ele>
        <time>2018-09-02T07:39:44Z</time>
      </trkpt>
      <trkpt lat="43.00413" lon="-0.12785">
        <ele>970.9</ele>
        <time>2018-09-02T07:39:45Z</time>
      </trkpt>
      <trkpt lat="43.0041" lon="-0.12793">
        <ele>970.2</ele>
        <time>2018-09-02T07:39:46Z</time>
      </trkpt>
      <trkpt lat="43.00407" lon="-0.12802">
        <ele>969.8</ele>
        <time>2018-09-02T07:39:47Z</time>
      </trkpt>
      <trkpt lat="43.00406" lon="-0.12811">
        <ele>969.7</ele>
        <time>2018-09-02T07:39:48Z</time>
      </trkpt>
      <trkpt lat="43.00403" lon="-0.1282">
        <ele>969</ele>
        <time>2018-09-02T07:39:49Z</time>
      </trkpt>
      <trkpt lat="43.00399" lon="-0.1283">
        <ele>968.2</ele>
        <time>2018-09-02T07:39:50Z</time>
      </trkpt>
      <trkpt lat="43.00395" lon="-0.1284">
        <ele>967.3</ele>
        <time>2018-09-02T07:39:51Z</time>
      </trkpt>
      <trkpt lat="43.00391" lon="-0.12848">
        <ele>966.2</ele>
        <time>2018-09-02T07:39:52Z</time>
      </trkpt>
      <trkpt lat="43.00388" lon="-0.12854">
        <ele>965.4</ele>
        <time>2018-09-02T07:39:53Z</time>
      </trkpt>
      <trkpt lat="43.00377" lon="-0.12867">
        <ele>962.5</ele>
        <time>2018-09-02T07:39:56Z</time>
      </trkpt>
      <trkpt lat="43.00372" lon="-0.12871">
        <ele>961.2</ele>
        <time>2018-09-02T07:39:57Z</time>
      </trkpt>
      <trkpt lat="43.00368" lon="-0.12875">
        <ele>960.4</ele>
        <time>2018-09-02T07:39:58Z</time>
      </trkpt>
      <trkpt lat="43.00365" lon="-0.12878">
        <ele>959.7</ele>
        <time>2018-09-02T07:39:59Z</time>
      </trkpt>
      <trkpt lat="43.00363" lon="-0.1288">
        <ele>959.2</ele>
        <time>2018-09-02T07:40:00Z</time>
      </trkpt>
      <trkpt lat="43.00361" lon="-0.12882">
        <ele>958.6</ele>
        <time>2018-09-02T07:40:01Z</time>
      </trkpt>
      <trkpt lat="43.00356" lon="-0.12891">
        <ele>957.6</ele>
        <time>2018-09-02T07:40:04Z</time>
      </trkpt>
      <trkpt lat="43.00354" lon="-0.12893">
        <ele>957.3</ele>
        <time>2018-09-02T07:40:05Z</time>
      </trkpt>
      <trkpt lat="43.00351" lon="-0.12898">
        <ele>956.6</ele>
        <time>2018-09-02T07:40:06Z</time>
      </trkpt>
      <trkpt lat="43.00349" lon="-0.12901">
        <ele>956.1</ele>
        <time>2018-09-02T07:40:07Z</time>
      </trkpt>
      <trkpt lat="43.00345" lon="-0.12902">
        <ele>955.2</ele>
        <time>2018-09-02T07:40:08Z</time>
      </trkpt>
      <trkpt lat="43.00342" lon="-0.12899">
        <ele>954.4</ele>
        <time>2018-09-02T07:40:09Z</time>
      </trkpt>
      <trkpt lat="43.00339" lon="-0.12895">
        <ele>953.7</ele>
        <time>2018-09-02T07:40:10Z</time>
      </trkpt>
      <trkpt lat="43.00337" lon="-0.1289">
        <ele>953</ele>
        <time>2018-09-02T07:40:11Z</time>
      </trkpt>
      <trkpt lat="43.00335" lon="-0.12885">
        <ele>952.1</ele>
        <time>2018-09-02T07:40:12Z</time>
      </trkpt>
      <trkpt lat="43.00334" lon="-0.12881">
        <ele>951.5</ele>
        <time>2018-09-02T07:40:13Z</time>
      </trkpt>
      <trkpt lat="43.00332" lon="-0.12878">
        <ele>950.9</ele>
        <time>2018-09-02T07:40:14Z</time>
      </trkpt>
      <trkpt lat="43.00332" lon="-0.12875">
        <ele>950.5</ele>
        <time>2018-09-02T07:40:15Z</time>
      </trkpt>
      <trkpt lat="43.00332" lon="-0.12872">
        <ele>950.5</ele>
        <time>2018-09-02T07:40:16Z</time>
      </trkpt>
      <trkpt lat="43.00334" lon="-0.12869">
        <ele>950.8</ele>
        <time>2018-09-02T07:40:17Z</time>
      </trkpt>
      <trkpt lat="43.00336" lon="-0.12864">
        <ele>950.9</ele>
        <time>2018-09-02T07:40:18Z</time>
      </trkpt>
      <trkpt lat="43.00336" lon="-0.12858">
        <ele>950.4</ele>
        <time>2018-09-02T07:40:19Z</time>
      </trkpt>
      <trkpt lat="43.00336" lon="-0.1285">
        <ele>949.5</ele>
        <time>2018-09-02T07:40:20Z</time>
      </trkpt>
      <trkpt lat="43.00335" lon="-0.12843">
        <ele>948.6</ele>
        <time>2018-09-02T07:40:21Z</time>
      </trkpt>
      <trkpt lat="43.00335" lon="-0.12836">
        <ele>947.8</ele>
        <time>2018-09-02T07:40:22Z</time>
      </trkpt>
      <trkpt lat="43.00334" lon="-0.1283">
        <ele>946.7</ele>
        <time>2018-09-02T07:40:23Z</time>
      </trkpt>
      <trkpt lat="43.00333" lon="-0.12825">
        <ele>945.9</ele>
        <time>2018-09-02T07:40:24Z</time>
      </trkpt>
      <trkpt lat="43.00332" lon="-0.1282">
        <ele>945.1</ele>
        <time>2018-09-02T07:40:25Z</time>
      </trkpt>
      <trkpt lat="43.00331" lon="-0.12815">
        <ele>944.3</ele>
        <time>2018-09-02T07:40:26Z</time>
      </trkpt>
      <trkpt lat="43.0033" lon="-0.12811">
        <ele>943.3</ele>
        <time>2018-09-02T07:40:27Z</time>
      </trkpt>
      <trkpt lat="43.0033" lon="-0.12806">
        <ele>942.7</ele>
        <time>2018-09-02T07:40:28Z</time>
      </trkpt>
      <trkpt lat="43.0033" lon="-0.12802">
        <ele>942.5</ele>
        <time>2018-09-02T07:40:29Z</time>
      </trkpt>
      <trkpt lat="43.00331" lon="-0.12797">
        <ele>942.3</ele>
        <time>2018-09-02T07:40:30Z</time>
      </trkpt>
      <trkpt lat="43.00333" lon="-0.12791">
        <ele>942.1</ele>
        <time>2018-09-02T07:40:31Z</time>
      </trkpt>
      <trkpt lat="43.00334" lon="-0.12785">
        <ele>942.1</ele>
        <time>2018-09-02T07:40:32Z</time>
      </trkpt>
      <trkpt lat="43.00337" lon="-0.12781">
        <ele>942.7</ele>
        <time>2018-09-02T07:40:33Z</time>
      </trkpt>
      <trkpt lat="43.00339" lon="-0.12776">
        <ele>942.9</ele>
        <time>2018-09-02T07:40:34Z</time>
      </trkpt>
      <trkpt lat="43.00341" lon="-0.12772">
        <ele>943</ele>
        <time>2018-09-02T07:40:35Z</time>
      </trkpt>
      <trkpt lat="43.00341" lon="-0.12767">
        <ele>942.7</ele>
        <time>2018-09-02T07:40:36Z</time>
      </trkpt>
      <trkpt lat="43.00342" lon="-0.12762">
        <ele>942.4</ele>
        <time>2018-09-02T07:40:37Z</time>
      </trkpt>
      <trkpt lat="43.00343" lon="-0.12756">
        <ele>942.1</ele>
        <time>2018-09-02T07:40:38Z</time>
      </trkpt>
      <trkpt lat="43.00345" lon="-0.12751">
        <ele>942.2</ele>
        <time>2018-09-02T07:40:39Z</time>
      </trkpt>
      <trkpt lat="43.00346" lon="-0.12746">
        <ele>942.1</ele>
        <time>2018-09-02T07:40:40Z</time>
      </trkpt>
      <trkpt lat="43.00347" lon="-0.1274">
        <ele>941.9</ele>
        <time>2018-09-02T07:40:41Z</time>
      </trkpt>
      <trkpt lat="43.00347" lon="-0.12733">
        <ele>941.5</ele>
        <time>2018-09-02T07:40:42Z</time>
      </trkpt>
      <trkpt lat="43.00347" lon="-0.12726">
        <ele>940.8</ele>
        <time>2018-09-02T07:40:43Z</time>
      </trkpt>
      <trkpt lat="43.00346" lon="-0.12717">
        <ele>939.5</ele>
        <time>2018-09-02T07:40:44Z</time>
      </trkpt>
      <trkpt lat="43.00345" lon="-0.12712">
        <ele>938.6</ele>
        <time>2018-09-02T07:40:45Z</time>
      </trkpt>
      <trkpt lat="43.00344" lon="-0.12708">
        <ele>937.9</ele>
        <time>2018-09-02T07:40:46Z</time>
      </trkpt>
      <trkpt lat="43.00342" lon="-0.12697">
        <ele>936</ele>
        <time>2018-09-02T07:40:49Z</time>
      </trkpt>
      <trkpt lat="43.00342" lon="-0.12694">
        <ele>935.7</ele>
        <time>2018-09-02T07:40:50Z</time>
      </trkpt>
      <trkpt lat="43.00341" lon="-0.1269">
        <ele>934.8</ele>
        <time>2018-09-02T07:40:51Z</time>
      </trkpt>
      <trkpt lat="43.00339" lon="-0.12685">
        <ele>933.7</ele>
        <time>2018-09-02T07:40:52Z</time>
      </trkpt>
      <trkpt lat="43.00337" lon="-0.12682">
        <ele>932.8</ele>
        <time>2018-09-02T07:40:53Z</time>
      </trkpt>
      <trkpt lat="43.00335" lon="-0.12679">
        <ele>931.7</ele>
        <time>2018-09-02T07:40:54Z</time>
      </trkpt>
      <trkpt lat="43.00333" lon="-0.12675">
        <ele>930.8</ele>
        <time>2018-09-02T07:40:55Z</time>
      </trkpt>
      <trkpt lat="43.00333" lon="-0.1267">
        <ele>930.3</ele>
        <time>2018-09-02T07:40:56Z</time>
      </trkpt>
      <trkpt lat="43.00334" lon="-0.12666">
        <ele>930.1</ele>
        <time>2018-09-02T07:40:57Z</time>
      </trkpt>
      <trkpt lat="43.00336" lon="-0.1266">
        <ele>930.3</ele>
        <time>2018-09-02T07:40:58Z</time>
      </trkpt>
      <trkpt lat="43.00337" lon="-0.12655">
        <ele>930.4</ele>
        <time>2018-09-02T07:40:59Z</time>
      </trkpt>
      <trkpt lat="43.00338" lon="-0.12653">
        <ele>930.4</ele>
        <time>2018-09-02T07:41:00Z</time>
      </trkpt>
      <trkpt lat="43.00338" lon="-0.12651">
        <ele>930.3</ele>
        <time>2018-09-02T07:41:01Z</time>
      </trkpt>
      <trkpt lat="43.00338" lon="-0.12649">
        <ele>930.2</ele>
        <time>2018-09-02T07:41:02Z</time>
      </trkpt>
      <trkpt lat="43.00338" lon="-0.12647">
        <ele>930.1</ele>
        <time>2018-09-02T07:41:03Z</time>
      </trkpt>
      <trkpt lat="43.0034" lon="-0.12643">
        <ele>930.3</ele>
        <time>2018-09-02T07:41:04Z</time>
      </trkpt>
      <trkpt lat="43.00341" lon="-0.12639">
        <ele>930.5</ele>
        <time>2018-09-02T07:41:05Z</time>
      </trkpt>
      <trkpt lat="43.00341" lon="-0.12633">
        <ele>929.9</ele>
        <time>2018-09-02T07:41:06Z</time>
      </trkpt>
      <trkpt lat="43.0034" lon="-0.12629">
        <ele>929.3</ele>
        <time>2018-09-02T07:41:07Z</time>
      </trkpt>
      <trkpt lat="43.00338" lon="-0.12627">
        <ele>928.6</ele>
        <time>2018-09-02T07:41:08Z</time>
      </trkpt>
      <trkpt lat="43.00334" lon="-0.12623">
        <ele>926.9</ele>
        <time>2018-09-02T07:41:09Z</time>
      </trkpt>
      <trkpt lat="43.00328" lon="-0.12619">
        <ele>925</ele>
        <time>2018-09-02T07:41:10Z</time>
      </trkpt>
      <trkpt lat="43.00322" lon="-0.12615">
        <ele>923</ele>
        <time>2018-09-02T07:41:11Z</time>
      </trkpt>
      <trkpt lat="43.00317" lon="-0.12611">
        <ele>921.3</ele>
        <time>2018-09-02T07:41:12Z</time>
      </trkpt>
      <trkpt lat="43.00312" lon="-0.12605">
        <ele>919.3</ele>
        <time>2018-09-02T07:41:13Z</time>
      </trkpt>
      <trkpt lat="43.00308" lon="-0.12601">
        <ele>917.5</ele>
        <time>2018-09-02T07:41:14Z</time>
      </trkpt>
      <trkpt lat="43.00302" lon="-0.12596">
        <ele>915.2</ele>
        <time>2018-09-02T07:41:15Z</time>
      </trkpt>
      <trkpt lat="43.00298" lon="-0.12591">
        <ele>913.3</ele>
        <time>2018-09-02T07:41:16Z</time>
      </trkpt>
      <trkpt lat="43.00294" lon="-0.12588">
        <ele>911.6</ele>
        <time>2018-09-02T07:41:17Z</time>
      </trkpt>
      <trkpt lat="43.0029" lon="-0.12584">
        <ele>910</ele>
        <time>2018-09-02T07:41:18Z</time>
      </trkpt>
      <trkpt lat="43.00287" lon="-0.12581">
        <ele>908.5</ele>
        <time>2018-09-02T07:41:19Z</time>
      </trkpt>
      <trkpt lat="43.00284" lon="-0.12578">
        <ele>906.9</ele>
        <time>2018-09-02T07:41:20Z</time>
      </trkpt>
      <trkpt lat="43.00281" lon="-0.12574">
        <ele>905.3</ele>
        <time>2018-09-02T07:41:21Z</time>
      </trkpt>
      <trkpt lat="43.00278" lon="-0.1257">
        <ele>903.7</ele>
        <time>2018-09-02T07:41:22Z</time>
      </trkpt>
      <trkpt lat="43.00276" lon="-0.12568">
        <ele>902.5</ele>
        <time>2018-09-02T07:41:23Z</time>
      </trkpt>
      <trkpt lat="43.00275" lon="-0.12563">
        <ele>901.4</ele>
        <time>2018-09-02T07:41:24Z</time>
      </trkpt>
      <trkpt lat="43.00274" lon="-0.12559">
        <ele>900.4</ele>
        <time>2018-09-02T07:41:25Z</time>
      </trkpt>
      <trkpt lat="43.00274" lon="-0.12556">
        <ele>899.7</ele>
        <time>2018-09-02T07:41:26Z</time>
      </trkpt>
      <trkpt lat="43.00274" lon="-0.12552">
        <ele>899</ele>
        <time>2018-09-02T07:41:27Z</time>
      </trkpt>
      <trkpt lat="43.00274" lon="-0.12548">
        <ele>898.2</ele>
        <time>2018-09-02T07:41:28Z</time>
      </trkpt>
      <trkpt lat="43.00275" lon="-0.12544">
        <ele>897.4</ele>
        <time>2018-09-02T07:41:29Z</time>
      </trkpt>
      <trkpt lat="43.00275" lon="-0.12539">
        <ele>896.3</ele>
        <time>2018-09-02T07:41:30Z</time>
      </trkpt>
      <trkpt lat="43.00279" lon="-0.1253">
        <ele>896.1</ele>
        <time>2018-09-02T07:41:31Z</time>
      </trkpt>
      <trkpt lat="43.00283" lon="-0.12523">
        <ele>896.3</ele>
        <time>2018-09-02T07:41:32Z</time>
      </trkpt>
      <trkpt lat="43.00284" lon="-0.12516">
        <ele>895</ele>
        <time>2018-09-02T07:41:33Z</time>
      </trkpt>
      <trkpt lat="43.00284" lon="-0.12508">
        <ele>893.4</ele>
        <time>2018-09-02T07:41:34Z</time>
      </trkpt>
      <trkpt lat="43.00284" lon="-0.12501">
        <ele>892</ele>
        <time>2018-09-02T07:41:35Z</time>
      </trkpt>
      <trkpt lat="43.00284" lon="-0.12491">
        <ele>890.1</ele>
        <time>2018-09-02T07:41:36Z</time>
      </trkpt>
      <trkpt lat="43.00284" lon="-0.12481">
        <ele>888.1</ele>
        <time>2018-09-02T07:41:37Z</time>
      </trkpt>
      <trkpt lat="43.00284" lon="-0.12473">
        <ele>886.2</ele>
        <time>2018-09-02T07:41:38Z</time>
      </trkpt>
      <trkpt lat="43.00283" lon="-0.12465">
        <ele>884.5</ele>
        <time>2018-09-02T07:41:39Z</time>
      </trkpt>
      <trkpt lat="43.00282" lon="-0.12458">
        <ele>883.1</ele>
        <time>2018-09-02T07:41:40Z</time>
      </trkpt>
      <trkpt lat="43.00282" lon="-0.12449">
        <ele>882</ele>
        <time>2018-09-02T07:41:41Z</time>
      </trkpt>
      <trkpt lat="43.00282" lon="-0.12441">
        <ele>880.8</ele>
        <time>2018-09-02T07:41:42Z</time>
      </trkpt>
      <trkpt lat="43.00281" lon="-0.12431">
        <ele>879.7</ele>
        <time>2018-09-02T07:41:43Z</time>
      </trkpt>
      <trkpt lat="43.0028" lon="-0.12423">
        <ele>878.6</ele>
        <time>2018-09-02T07:41:44Z</time>
      </trkpt>
      <trkpt lat="43.0028" lon="-0.12416">
        <ele>877.9</ele>
        <time>2018-09-02T07:41:45Z</time>
      </trkpt>
      <trkpt lat="43.00279" lon="-0.12409">
        <ele>876.9</ele>
        <time>2018-09-02T07:41:46Z</time>
      </trkpt>
      <trkpt lat="43.00277" lon="-0.124">
        <ele>875.6</ele>
        <time>2018-09-02T07:41:47Z</time>
      </trkpt>
      <trkpt lat="43.00276" lon="-0.12391">
        <ele>874.4</ele>
        <time>2018-09-02T07:41:48Z</time>
      </trkpt>
      <trkpt lat="43.00276" lon="-0.12383">
        <ele>873.5</ele>
        <time>2018-09-02T07:41:49Z</time>
      </trkpt>
      <trkpt lat="43.00275" lon="-0.12375">
        <ele>872.3</ele>
        <time>2018-09-02T07:41:50Z</time>
      </trkpt>
      <trkpt lat="43.00274" lon="-0.12368">
        <ele>870.8</ele>
        <time>2018-09-02T07:41:51Z</time>
      </trkpt>
      <trkpt lat="43.00272" lon="-0.12361">
        <ele>869.4</ele>
        <time>2018-09-02T07:41:52Z</time>
      </trkpt>
      <trkpt lat="43.00271" lon="-0.12353">
        <ele>867.8</ele>
        <time>2018-09-02T07:41:53Z</time>
      </trkpt>
      <trkpt lat="43.0027" lon="-0.12346">
        <ele>866.3</ele>
        <time>2018-09-02T07:41:54Z</time>
      </trkpt>
      <trkpt lat="43.00269" lon="-0.12339">
        <ele>865.3</ele>
        <time>2018-09-02T07:41:55Z</time>
      </trkpt>
      <trkpt lat="43.00269" lon="-0.12331">
        <ele>864.3</ele>
        <time>2018-09-02T07:41:56Z</time>
      </trkpt>
      <trkpt lat="43.0027" lon="-0.12323">
        <ele>863.4</ele>
        <time>2018-09-02T07:41:57Z</time>
      </trkpt>
      <trkpt lat="43.00272" lon="-0.12314">
        <ele>862.8</ele>
        <time>2018-09-02T07:41:58Z</time>
      </trkpt>
      <trkpt lat="43.00273" lon="-0.12306">
        <ele>861.7</ele>
        <time>2018-09-02T07:41:59Z</time>
      </trkpt>
      <trkpt lat="43.00273" lon="-0.12298">
        <ele>860.2</ele>
        <time>2018-09-02T07:42:00Z</time>
      </trkpt>
      <trkpt lat="43.00274" lon="-0.12289">
        <ele>858.8</ele>
        <time>2018-09-02T07:42:01Z</time>
      </trkpt>
      <trkpt lat="43.00274" lon="-0.12281">
        <ele>857.5</ele>
        <time>2018-09-02T07:42:02Z</time>
      </trkpt>
      <trkpt lat="43.00274" lon="-0.12273">
        <ele>856.1</ele>
        <time>2018-09-02T07:42:03Z</time>
      </trkpt>
      <trkpt lat="43.00274" lon="-0.12263">
        <ele>854.6</ele>
        <time>2018-09-02T07:42:04Z</time>
      </trkpt>
      <trkpt lat="43.00275" lon="-0.12254">
        <ele>853.7</ele>
        <time>2018-09-02T07:42:05Z</time>
      </trkpt>
      <trkpt lat="43.00275" lon="-0.12245">
        <ele>852.4</ele>
        <time>2018-09-02T07:42:06Z</time>
      </trkpt>
      <trkpt lat="43.00276" lon="-0.12236">
        <ele>851</ele>
        <time>2018-09-02T07:42:07Z</time>
      </trkpt>
      <trkpt lat="43.00278" lon="-0.12228">
        <ele>850.3</ele>
        <time>2018-09-02T07:42:08Z</time>
      </trkpt>
      <trkpt lat="43.00279" lon="-0.12221">
        <ele>849.4</ele>
        <time>2018-09-02T07:42:09Z</time>
      </trkpt>
      <trkpt lat="43.00279" lon="-0.12212">
        <ele>847.3</ele>
        <time>2018-09-02T07:42:10Z</time>
      </trkpt>
      <trkpt lat="43.00278" lon="-0.12204">
        <ele>844.9</ele>
        <time>2018-09-02T07:42:11Z</time>
      </trkpt>
      <trkpt lat="43.00277" lon="-0.12196">
        <ele>842.7</ele>
        <time>2018-09-02T07:42:12Z</time>
      </trkpt>
      <trkpt lat="43.00276" lon="-0.12188">
        <ele>840.6</ele>
        <time>2018-09-02T07:42:13Z</time>
      </trkpt>
      <trkpt lat="43.00276" lon="-0.12181">
        <ele>838.8</ele>
        <time>2018-09-02T07:42:14Z</time>
      </trkpt>
      <trkpt lat="43.00277" lon="-0.12172">
        <ele>837.2</ele>
        <time>2018-09-02T07:42:15Z</time>
      </trkpt>
      <trkpt lat="43.00278" lon="-0.12165">
        <ele>835.7</ele>
        <time>2018-09-02T07:42:16Z</time>
      </trkpt>
      <trkpt lat="43.00279" lon="-0.12158">
        <ele>834.7</ele>
        <time>2018-09-02T07:42:17Z</time>
      </trkpt>
      <trkpt lat="43.00284" lon="-0.12146">
        <ele>834.3</ele>
        <time>2018-09-02T07:42:18Z</time>
      </trkpt>
      <trkpt lat="43.00288" lon="-0.12139">
        <ele>834</ele>
        <time>2018-09-02T07:42:19Z</time>
      </trkpt>
      <trkpt lat="43.00293" lon="-0.12131">
        <ele>833.7</ele>
        <time>2018-09-02T07:42:20Z</time>
      </trkpt>
      <trkpt lat="43.00297" lon="-0.12124">
        <ele>833.5</ele>
        <time>2018-09-02T07:42:21Z</time>
      </trkpt>
      <trkpt lat="43.00299" lon="-0.12119">
        <ele>832.9</ele>
        <time>2018-09-02T07:42:22Z</time>
      </trkpt>
      <trkpt lat="43.00301" lon="-0.12112">
        <ele>831.5</ele>
        <time>2018-09-02T07:42:23Z</time>
      </trkpt>
      <trkpt lat="43.00302" lon="-0.12105">
        <ele>830</ele>
        <time>2018-09-02T07:42:24Z</time>
      </trkpt>
      <trkpt lat="43.00302" lon="-0.12099">
        <ele>828.5</ele>
        <time>2018-09-02T07:42:25Z</time>
      </trkpt>
      <trkpt lat="43.00305" lon="-0.12093">
        <ele>827.4</ele>
        <time>2018-09-02T07:42:26Z</time>
      </trkpt>
      <trkpt lat="43.00306" lon="-0.12086">
        <ele>825.9</ele>
        <time>2018-09-02T07:42:27Z</time>
      </trkpt>
      <trkpt lat="43.00307" lon="-0.12075">
        <ele>823.7</ele>
        <time>2018-09-02T07:42:28Z</time>
      </trkpt>
      <trkpt lat="43.00305" lon="-0.12067">
        <ele>820.7</ele>
        <time>2018-09-02T07:42:29Z</time>
      </trkpt>
      <trkpt lat="43.00303" lon="-0.1206">
        <ele>817.9</ele>
        <time>2018-09-02T07:42:30Z</time>
      </trkpt>
      <trkpt lat="43.00301" lon="-0.12053">
        <ele>815.7</ele>
        <time>2018-09-02T07:42:31Z</time>
      </trkpt>
      <trkpt lat="43.00299" lon="-0.12048">
        <ele>813.9</ele>
        <time>2018-09-02T07:42:32Z</time>
      </trkpt>
      <trkpt lat="43.00298" lon="-0.12043">
        <ele>812</ele>
        <time>2018-09-02T07:42:33Z</time>
      </trkpt>
      <trkpt lat="43.00296" lon="-0.12036">
        <ele>809.9</ele>
        <time>2018-09-02T07:42:34Z</time>
      </trkpt>
      <trkpt lat="43.00295" lon="-0.12029">
        <ele>807.8</ele>
        <time>2018-09-02T07:42:35Z</time>
      </trkpt>
      <trkpt lat="43.00295" lon="-0.1202">
        <ele>805.4</ele>
        <time>2018-09-02T07:42:36Z</time>
      </trkpt>
      <trkpt lat="43.00295" lon="-0.12013">
        <ele>803.2</ele>
        <time>2018-09-02T07:42:37Z</time>
      </trkpt>
      <trkpt lat="43.00295" lon="-0.12007">
        <ele>801.6</ele>
        <time>2018-09-02T07:42:38Z</time>
      </trkpt>
      <trkpt lat="43.00295" lon="-0.12002">
        <ele>799.8</ele>
        <time>2018-09-02T07:42:39Z</time>
      </trkpt>
      <trkpt lat="43.00294" lon="-0.11998">
        <ele>798.1</ele>
        <time>2018-09-02T07:42:40Z</time>
      </trkpt>
      <trkpt lat="43.00292" lon="-0.11994">
        <ele>796.5</ele>
        <time>2018-09-02T07:42:41Z</time>
      </trkpt>
      <trkpt lat="43.00292" lon="-0.11993">
        <ele>796</ele>
        <time>2018-09-02T07:42:42Z</time>
      </trkpt>
      <trkpt lat="43.00292" lon="-0.11992">
        <ele>796</ele>
        <time>2018-09-02T07:42:43Z</time>
      </trkpt>
      <trkpt lat="43.00292" lon="-0.11995">
        <ele>796.8</ele>
        <time>2018-09-02T07:42:44Z</time>
      </trkpt>
      <trkpt lat="43.00292" lon="-0.11998">
        <ele>797.4</ele>
        <time>2018-09-02T07:42:45Z</time>
      </trkpt>
      <trkpt lat="43.00291" lon="-0.12001">
        <ele>797.9</ele>
        <time>2018-09-02T07:42:46Z</time>
      </trkpt>
      <trkpt lat="43.0029" lon="-0.12003">
        <ele>798.2</ele>
        <time>2018-09-02T07:42:47Z</time>
      </trkpt>
      <trkpt lat="43.0029" lon="-0.12004">
        <ele>798.2</ele>
        <time>2018-09-02T07:42:48Z</time>
      </trkpt>
      <trkpt lat="43.00291" lon="-0.12003">
        <ele>798.5</ele>
        <time>2018-09-02T07:42:50Z</time>
      </trkpt>
      <trkpt lat="43.00291" lon="-0.12001">
        <ele>797.9</ele>
        <time>2018-09-02T07:42:51Z</time>
      </trkpt>
      <trkpt lat="43.00289" lon="-0.11997">
        <ele>796.1</ele>
        <time>2018-09-02T07:42:52Z</time>
      </trkpt>
      <trkpt lat="43.00288" lon="-0.11993">
        <ele>794.1</ele>
        <time>2018-09-02T07:42:53Z</time>
      </trkpt>
      <trkpt lat="43.00287" lon="-0.11987">
        <ele>792.3</ele>
        <time>2018-09-02T07:42:54Z</time>
      </trkpt>
      <trkpt lat="43.00287" lon="-0.11982">
        <ele>791.1</ele>
        <time>2018-09-02T07:42:55Z</time>
      </trkpt>
      <trkpt lat="43.00287" lon="-0.11976">
        <ele>789.3</ele>
        <time>2018-09-02T07:42:56Z</time>
      </trkpt>
      <trkpt lat="43.00287" lon="-0.1197">
        <ele>787.3</ele>
        <time>2018-09-02T07:42:57Z</time>
      </trkpt>
      <trkpt lat="43.00285" lon="-0.11964">
        <ele>784.9</ele>
        <time>2018-09-02T07:42:58Z</time>
      </trkpt>
      <trkpt lat="43.00283" lon="-0.11959">
        <ele>782.9</ele>
        <time>2018-09-02T07:42:59Z</time>
      </trkpt>
      <trkpt lat="43.00283" lon="-0.11955">
        <ele>781.7</ele>
        <time>2018-09-02T07:43:00Z</time>
      </trkpt>
      <trkpt lat="43.00283" lon="-0.1195">
        <ele>780.5</ele>
        <time>2018-09-02T07:43:01Z</time>
      </trkpt>
      <trkpt lat="43.00282" lon="-0.11946">
        <ele>779.2</ele>
        <time>2018-09-02T07:43:02Z</time>
      </trkpt>
      <trkpt lat="43.00281" lon="-0.11944">
        <ele>778.4</ele>
        <time>2018-09-02T07:43:03Z</time>
      </trkpt>
      <trkpt lat="43.00279" lon="-0.11942">
        <ele>776.7</ele>
        <time>2018-09-02T07:43:04Z</time>
      </trkpt>
      <trkpt lat="43.00276" lon="-0.1194">
        <ele>775.2</ele>
        <time>2018-09-02T07:43:05Z</time>
      </trkpt>
      <trkpt lat="43.00275" lon="-0.11936">
        <ele>773.7</ele>
        <time>2018-09-02T07:43:06Z</time>
      </trkpt>
      <trkpt lat="43.00274" lon="-0.11932">
        <ele>771.8</ele>
        <time>2018-09-02T07:43:07Z</time>
      </trkpt>
      <trkpt lat="43.00272" lon="-0.11927">
        <ele>769.9</ele>
        <time>2018-09-02T07:43:08Z</time>
      </trkpt>
      <trkpt lat="43.00271" lon="-0.11921">
        <ele>768.1</ele>
        <time>2018-09-02T07:43:09Z</time>
      </trkpt>
      <trkpt lat="43.00272" lon="-0.11914">
        <ele>766.4</ele>
        <time>2018-09-02T07:43:10Z</time>
      </trkpt>
      <trkpt lat="43.00274" lon="-0.11905">
        <ele>765</ele>
        <time>2018-09-02T07:43:11Z</time>
      </trkpt>
      <trkpt lat="43.00277" lon="-0.11898">
        <ele>763.9</ele>
        <time>2018-09-02T07:43:12Z</time>
      </trkpt>
      <trkpt lat="43.00278" lon="-0.1189">
        <ele>762.5</ele>
        <time>2018-09-02T07:43:13Z</time>
      </trkpt>
      <trkpt lat="43.00282" lon="-0.11882">
        <ele>761.5</ele>
        <time>2018-09-02T07:43:14Z</time>
      </trkpt>
      <trkpt lat="43.00285" lon="-0.11873">
        <ele>760.7</ele>
        <time>2018-09-02T07:43:15Z</time>
      </trkpt>
      <trkpt lat="43.0029" lon="-0.11864">
        <ele>759.8</ele>
        <time>2018-09-02T07:43:16Z</time>
      </trkpt>
      <trkpt lat="43.00294" lon="-0.11854">
        <ele>758.9</ele>
        <time>2018-09-02T07:43:17Z</time>
      </trkpt>
      <trkpt lat="43.00297" lon="-0.11845">
        <ele>758</ele>
        <time>2018-09-02T07:43:18Z</time>
      </trkpt>
      <trkpt lat="43.003" lon="-0.11838">
        <ele>757.2</ele>
        <time>2018-09-02T07:43:19Z</time>
      </trkpt>
      <trkpt lat="43.00303" lon="-0.11831">
        <ele>756.5</ele>
        <time>2018-09-02T07:43:20Z</time>
      </trkpt>
      <trkpt lat="43.00306" lon="-0.11824">
        <ele>756</ele>
        <time>2018-09-02T07:43:21Z</time>
      </trkpt>
      <trkpt lat="43.00308" lon="-0.11817">
        <ele>755.7</ele>
        <time>2018-09-02T07:43:22Z</time>
      </trkpt>
      <trkpt lat="43.0031" lon="-0.11811">
        <ele>755.2</ele>
        <time>2018-09-02T07:43:23Z</time>
      </trkpt>
      <trkpt lat="43.00312" lon="-0.11804">
        <ele>754.5</ele>
        <time>2018-09-02T07:43:24Z</time>
      </trkpt>
      <trkpt lat="43.00314" lon="-0.11796">
        <ele>754</ele>
        <time>2018-09-02T07:43:25Z</time>
      </trkpt>
      <trkpt lat="43.00317" lon="-0.1179">
        <ele>753.9</ele>
        <time>2018-09-02T07:43:26Z</time>
      </trkpt>
      <trkpt lat="43.00321" lon="-0.11783">
        <ele>754</ele>
        <time>2018-09-02T07:43:27Z</time>
      </trkpt>
      <trkpt lat="43.00325" lon="-0.11775">
        <ele>754.2</ele>
        <time>2018-09-02T07:43:28Z</time>
      </trkpt>
      <trkpt lat="43.00328" lon="-0.11769">
        <ele>754.4</ele>
        <time>2018-09-02T07:43:29Z</time>
      </trkpt>
      <trkpt lat="43.0033" lon="-0.11762">
        <ele>753.8</ele>
        <time>2018-09-02T07:43:30Z</time>
      </trkpt>
      <trkpt lat="43.0033" lon="-0.11755">
        <ele>752.8</ele>
        <time>2018-09-02T07:43:31Z</time>
      </trkpt>
      <trkpt lat="43.00331" lon="-0.11748">
        <ele>751.7</ele>
        <time>2018-09-02T07:43:32Z</time>
      </trkpt>
      <trkpt lat="43.00333" lon="-0.11717">
        <ele>748.4</ele>
        <time>2018-09-02T07:43:36Z</time>
      </trkpt>
      <trkpt lat="43.00336" lon="-0.11707">
        <ele>748.2</ele>
        <time>2018-09-02T07:43:37Z</time>
      </trkpt>
      <trkpt lat="43.0034" lon="-0.11695">
        <ele>748.4</ele>
        <time>2018-09-02T07:43:38Z</time>
      </trkpt>
      <trkpt lat="43.00345" lon="-0.11685">
        <ele>748.4</ele>
        <time>2018-09-02T07:43:39Z</time>
      </trkpt>
      <trkpt lat="43.0035" lon="-0.11675">
        <ele>748.4</ele>
        <time>2018-09-02T07:43:40Z</time>
      </trkpt>
      <trkpt lat="43.00356" lon="-0.11666">
        <ele>749</ele>
        <time>2018-09-02T07:43:41Z</time>
      </trkpt>
      <trkpt lat="43.00362" lon="-0.11658">
        <ele>749.3</ele>
        <time>2018-09-02T07:43:42Z</time>
      </trkpt>
      <trkpt lat="43.00367" lon="-0.11649">
        <ele>748.9</ele>
        <time>2018-09-02T07:43:43Z</time>
      </trkpt>
      <trkpt lat="43.00372" lon="-0.1164">
        <ele>748.2</ele>
        <time>2018-09-02T07:43:44Z</time>
      </trkpt>
      <trkpt lat="43.00376" lon="-0.11631">
        <ele>746.9</ele>
        <time>2018-09-02T07:43:45Z</time>
      </trkpt>
      <trkpt lat="43.0038" lon="-0.11622">
        <ele>745.5</ele>
        <time>2018-09-02T07:43:46Z</time>
      </trkpt>
      <trkpt lat="43.00387" lon="-0.11604">
        <ele>741.7</ele>
        <time>2018-09-02T07:43:48Z</time>
      </trkpt>
      <trkpt lat="43.00391" lon="-0.11598">
        <ele>740.2</ele>
        <time>2018-09-02T07:43:49Z</time>
      </trkpt>
      <trkpt lat="43.00396" lon="-0.11594">
        <ele>739.5</ele>
        <time>2018-09-02T07:43:50Z</time>
      </trkpt>
      <trkpt lat="43.00404" lon="-0.11591">
        <ele>739.2</ele>
        <time>2018-09-02T07:43:51Z</time>
      </trkpt>
      <trkpt lat="43.00412" lon="-0.1159">
        <ele>739.3</ele>
        <time>2018-09-02T07:43:52Z</time>
      </trkpt>
      <trkpt lat="43.00422" lon="-0.11589">
        <ele>738.6</ele>
        <time>2018-09-02T07:43:53Z</time>
      </trkpt>
      <trkpt lat="43.0043" lon="-0.11588">
        <ele>737.9</ele>
        <time>2018-09-02T07:43:54Z</time>
      </trkpt>
      <trkpt lat="43.00437" lon="-0.1159">
        <ele>738.4</ele>
        <time>2018-09-02T07:43:55Z</time>
      </trkpt>
      <trkpt lat="43.00444" lon="-0.11592">
        <ele>738.8</ele>
        <time>2018-09-02T07:43:56Z</time>
      </trkpt>
      <trkpt lat="43.00451" lon="-0.11592">
        <ele>738.3</ele>
        <time>2018-09-02T07:43:57Z</time>
      </trkpt>
      <trkpt lat="43.0046" lon="-0.11592">
        <ele>737.9</ele>
        <time>2018-09-02T07:43:58Z</time>
      </trkpt>
      <trkpt lat="43.00469" lon="-0.1159">
        <ele>736.3</ele>
        <time>2018-09-02T07:43:59Z</time>
      </trkpt>
      <trkpt lat="43.00476" lon="-0.1159">
        <ele>735.6</ele>
        <time>2018-09-02T07:44:00Z</time>
      </trkpt>
      <trkpt lat="43.00483" lon="-0.11591">
        <ele>735.3</ele>
        <time>2018-09-02T07:44:01Z</time>
      </trkpt>
      <trkpt lat="43.0049" lon="-0.11591">
        <ele>734.5</ele>
        <time>2018-09-02T07:44:02Z</time>
      </trkpt>
      <trkpt lat="43.00496" lon="-0.11589">
        <ele>733</ele>
        <time>2018-09-02T07:44:03Z</time>
      </trkpt>
      <trkpt lat="43.00502" lon="-0.11588">
        <ele>732.1</ele>
        <time>2018-09-02T07:44:04Z</time>
      </trkpt>
      <trkpt lat="43.00508" lon="-0.11589">
        <ele>731.4</ele>
        <time>2018-09-02T07:44:05Z</time>
      </trkpt>
      <trkpt lat="43.00513" lon="-0.11591">
        <ele>731.7</ele>
        <time>2018-09-02T07:44:06Z</time>
      </trkpt>
      <trkpt lat="43.00517" lon="-0.11593">
        <ele>732.1</ele>
        <time>2018-09-02T07:44:07Z</time>
      </trkpt>
      <trkpt lat="43.00521" lon="-0.11594">
        <ele>732</ele>
        <time>2018-09-02T07:44:08Z</time>
      </trkpt>
      <trkpt lat="43.00525" lon="-0.11593">
        <ele>731</ele>
        <time>2018-09-02T07:44:09Z</time>
      </trkpt>
      <trkpt lat="43.00529" lon="-0.11592">
        <ele>729.7</ele>
        <time>2018-09-02T07:44:10Z</time>
      </trkpt>
      <trkpt lat="43.00534" lon="-0.11591">
        <ele>728.9</ele>
        <time>2018-09-02T07:44:11Z</time>
      </trkpt>
      <trkpt lat="43.0054" lon="-0.11591">
        <ele>728.2</ele>
        <time>2018-09-02T07:44:12Z</time>
      </trkpt>
      <trkpt lat="43.00545" lon="-0.11591">
        <ele>727.5</ele>
        <time>2018-09-02T07:44:13Z</time>
      </trkpt>
      <trkpt lat="43.00551" lon="-0.11593">
        <ele>727.6</ele>
        <time>2018-09-02T07:44:14Z</time>
      </trkpt>
      <trkpt lat="43.00557" lon="-0.11595">
        <ele>727.7</ele>
        <time>2018-09-02T07:44:15Z</time>
      </trkpt>
      <trkpt lat="43.00563" lon="-0.11598">
        <ele>728.5</ele>
        <time>2018-09-02T07:44:16Z</time>
      </trkpt>
      <trkpt lat="43.00568" lon="-0.116">
        <ele>729</ele>
        <time>2018-09-02T07:44:17Z</time>
      </trkpt>
      <trkpt lat="43.00573" lon="-0.11601">
        <ele>729.1</ele>
        <time>2018-09-02T07:44:18Z</time>
      </trkpt>
      <trkpt lat="43.00583" lon="-0.11602">
        <ele>728.4</ele>
        <time>2018-09-02T07:44:20Z</time>
      </trkpt>
      <trkpt lat="43.00588" lon="-0.11604">
        <ele>728.7</ele>
        <time>2018-09-02T07:44:21Z</time>
      </trkpt>
      <trkpt lat="43.00592" lon="-0.11605">
        <ele>728.8</ele>
        <time>2018-09-02T07:44:22Z</time>
      </trkpt>
      <trkpt lat="43.00595" lon="-0.11605">
        <ele>728.5</ele>
        <time>2018-09-02T07:44:23Z</time>
      </trkpt>
      <trkpt lat="43.00599" lon="-0.11603">
        <ele>727.4</ele>
        <time>2018-09-02T07:44:24Z</time>
      </trkpt>
      <trkpt lat="43.00602" lon="-0.116">
        <ele>725.6</ele>
        <time>2018-09-02T07:44:25Z</time>
      </trkpt>
      <trkpt lat="43.00603" lon="-0.11597">
        <ele>723.9</ele>
        <time>2018-09-02T07:44:26Z</time>
      </trkpt>
      <trkpt lat="43.00602" lon="-0.11593">
        <ele>721.6</ele>
        <time>2018-09-02T07:44:27Z</time>
      </trkpt>
      <trkpt lat="43.006" lon="-0.11587">
        <ele>719.1</ele>
        <time>2018-09-02T07:44:28Z</time>
      </trkpt>
      <trkpt lat="43.00597" lon="-0.11582">
        <ele>716.8</ele>
        <time>2018-09-02T07:44:29Z</time>
      </trkpt>
      <trkpt lat="43.00594" lon="-0.11578">
        <ele>715.4</ele>
        <time>2018-09-02T07:44:30Z</time>
      </trkpt>
      <trkpt lat="43.00591" lon="-0.11574">
        <ele>714</ele>
        <time>2018-09-02T07:44:31Z</time>
      </trkpt>
      <trkpt lat="43.00589" lon="-0.1157">
        <ele>712.4</ele>
        <time>2018-09-02T07:44:32Z</time>
      </trkpt>
      <trkpt lat="43.00587" lon="-0.11565">
        <ele>710.6</ele>
        <time>2018-09-02T07:44:33Z</time>
      </trkpt>
      <trkpt lat="43.00585" lon="-0.11562">
        <ele>709.4</ele>
        <time>2018-09-02T07:44:34Z</time>
      </trkpt>
      <trkpt lat="43.00583" lon="-0.11559">
        <ele>708.4</ele>
        <time>2018-09-02T07:44:35Z</time>
      </trkpt>
      <trkpt lat="43.00581" lon="-0.11555">
        <ele>707.1</ele>
        <time>2018-09-02T07:44:36Z</time>
      </trkpt>
      <trkpt lat="43.00578" lon="-0.11552">
        <ele>705.9</ele>
        <time>2018-09-02T07:44:37Z</time>
      </trkpt>
      <trkpt lat="43.00576" lon="-0.11549">
        <ele>705.1</ele>
        <time>2018-09-02T07:44:38Z</time>
      </trkpt>
      <trkpt lat="43.00573" lon="-0.11548">
        <ele>704.9</ele>
        <time>2018-09-02T07:44:39Z</time>
      </trkpt>
      <trkpt lat="43.00569" lon="-0.11547">
        <ele>704.8</ele>
        <time>2018-09-02T07:44:40Z</time>
      </trkpt>
      <trkpt lat="43.00565" lon="-0.11546">
        <ele>705</ele>
        <time>2018-09-02T07:44:41Z</time>
      </trkpt>
      <trkpt lat="43.0056" lon="-0.11545">
        <ele>705.2</ele>
        <time>2018-09-02T07:44:42Z</time>
      </trkpt>
      <trkpt lat="43.00557" lon="-0.11543">
        <ele>705.1</ele>
        <time>2018-09-02T07:44:43Z</time>
      </trkpt>
      <trkpt lat="43.00553" lon="-0.11539">
        <ele>703.8</ele>
        <time>2018-09-02T07:44:44Z</time>
      </trkpt>
      <trkpt lat="43.0055" lon="-0.11534">
        <ele>702.3</ele>
        <time>2018-09-02T07:44:45Z</time>
      </trkpt>
      <trkpt lat="43.00547" lon="-0.11529">
        <ele>700.8</ele>
        <time>2018-09-02T07:44:46Z</time>
      </trkpt>
      <trkpt lat="43.00543" lon="-0.11524">
        <ele>699.5</ele>
        <time>2018-09-02T07:44:47Z</time>
      </trkpt>
      <trkpt lat="43.00539" lon="-0.1152">
        <ele>698.8</ele>
        <time>2018-09-02T07:44:48Z</time>
      </trkpt>
      <trkpt lat="43.00535" lon="-0.11516">
        <ele>697.7</ele>
        <time>2018-09-02T07:44:49Z</time>
      </trkpt>
      <trkpt lat="43.00531" lon="-0.11512">
        <ele>696.7</ele>
        <time>2018-09-02T07:44:50Z</time>
      </trkpt>
      <trkpt lat="43.00529" lon="-0.11505">
        <ele>694.7</ele>
        <time>2018-09-02T07:44:51Z</time>
      </trkpt>
      <trkpt lat="43.00529" lon="-0.11498">
        <ele>692.2</ele>
        <time>2018-09-02T07:44:52Z</time>
      </trkpt>
      <trkpt lat="43.00529" lon="-0.11493">
        <ele>690.4</ele>
        <time>2018-09-02T07:44:53Z</time>
      </trkpt>
      <trkpt lat="43.00529" lon="-0.11487">
        <ele>688.6</ele>
        <time>2018-09-02T07:44:54Z</time>
      </trkpt>
      <trkpt lat="43.0053" lon="-0.11482">
        <ele>686.8</ele>
        <time>2018-09-02T07:44:55Z</time>
      </trkpt>
      <trkpt lat="43.00529" lon="-0.11479">
        <ele>686</ele>
        <time>2018-09-02T07:44:56Z</time>
      </trkpt>
      <trkpt lat="43.00528" lon="-0.11477">
        <ele>685.5</ele>
        <time>2018-09-02T07:44:57Z</time>
      </trkpt>
      <trkpt lat="43.00525" lon="-0.11475">
        <ele>685.1</ele>
        <time>2018-09-02T07:44:58Z</time>
      </trkpt>
      <trkpt lat="43.00523" lon="-0.11473">
        <ele>684.7</ele>
        <time>2018-09-02T07:44:59Z</time>
      </trkpt>
      <trkpt lat="43.00523" lon="-0.11471">
        <ele>684.2</ele>
        <time>2018-09-02T07:45:00Z</time>
      </trkpt>
      <trkpt lat="43.00521" lon="-0.11466">
        <ele>682.5</ele>
        <time>2018-09-02T07:45:01Z</time>
      </trkpt>
      <trkpt lat="43.00522" lon="-0.11459">
        <ele>680.2</ele>
        <time>2018-09-02T07:45:02Z</time>
      </trkpt>
      <trkpt lat="43.00521" lon="-0.11451">
        <ele>677.8</ele>
        <time>2018-09-02T07:45:03Z</time>
      </trkpt>
      <trkpt lat="43.00521" lon="-0.11443">
        <ele>675.2</ele>
        <time>2018-09-02T07:45:04Z</time>
      </trkpt>
      <trkpt lat="43.00521" lon="-0.11436">
        <ele>673</ele>
        <time>2018-09-02T07:45:05Z</time>
      </trkpt>
      <trkpt lat="43.0052" lon="-0.11429">
        <ele>670.9</ele>
        <time>2018-09-02T07:45:06Z</time>
      </trkpt>
      <trkpt lat="43.00519" lon="-0.11422">
        <ele>668.8</ele>
        <time>2018-09-02T07:45:07Z</time>
      </trkpt>
      <trkpt lat="43.00518" lon="-0.11417">
        <ele>667.2</ele>
        <time>2018-09-02T07:45:08Z</time>
      </trkpt>
      <trkpt lat="43.00518" lon="-0.11411">
        <ele>665.2</ele>
        <time>2018-09-02T07:45:09Z</time>
      </trkpt>
      <trkpt lat="43.00519" lon="-0.11404">
        <ele>663.2</ele>
        <time>2018-09-02T07:45:10Z</time>
      </trkpt>
      <trkpt lat="43.00521" lon="-0.11399">
        <ele>661.6</ele>
        <time>2018-09-02T07:45:11Z</time>
      </trkpt>
      <trkpt lat="43.00521" lon="-0.11395">
        <ele>660.2</ele>
        <time>2018-09-02T07:45:12Z</time>
      </trkpt>
      <trkpt lat="43.00521" lon="-0.1139">
        <ele>658.8</ele>
        <time>2018-09-02T07:45:13Z</time>
      </trkpt>
      <trkpt lat="43.00518" lon="-0.11386">
        <ele>658</ele>
        <time>2018-09-02T07:45:14Z</time>
      </trkpt>
      <trkpt lat="43.00516" lon="-0.11382">
        <ele>656.9</ele>
        <time>2018-09-02T07:45:15Z</time>
      </trkpt>
      <trkpt lat="43.00514" lon="-0.11378">
        <ele>656.2</ele>
        <time>2018-09-02T07:45:16Z</time>
      </trkpt>
      <trkpt lat="43.0051" lon="-0.11378">
        <ele>656.3</ele>
        <time>2018-09-02T07:45:17Z</time>
      </trkpt>
      <trkpt lat="43.00507" lon="-0.11378">
        <ele>656.5</ele>
        <time>2018-09-02T07:45:18Z</time>
      </trkpt>
      <trkpt lat="43.00506" lon="-0.11377">
        <ele>656.2</ele>
        <time>2018-09-02T07:45:19Z</time>
      </trkpt>
      <trkpt lat="43.00506" lon="-0.11374">
        <ele>655.4</ele>
        <time>2018-09-02T07:45:20Z</time>
      </trkpt>
      <trkpt lat="43.00508" lon="-0.11371">
        <ele>654.6</ele>
        <time>2018-09-02T07:45:21Z</time>
      </trkpt>
      <trkpt lat="43.00509" lon="-0.11369">
        <ele>653.8</ele>
        <time>2018-09-02T07:45:22Z</time>
      </trkpt>
      <trkpt lat="43.00512" lon="-0.11365">
        <ele>652.5</ele>
        <time>2018-09-02T07:45:23Z</time>
      </trkpt>
      <trkpt lat="43.00514" lon="-0.11361">
        <ele>651.4</ele>
        <time>2018-09-02T07:45:24Z</time>
      </trkpt>
      <trkpt lat="43.00518" lon="-0.11359">
        <ele>650.9</ele>
        <time>2018-09-02T07:45:25Z</time>
      </trkpt>
      <trkpt lat="43.00521" lon="-0.11356">
        <ele>649.8</ele>
        <time>2018-09-02T07:45:26Z</time>
      </trkpt>
      <trkpt lat="43.00522" lon="-0.11353">
        <ele>649.2</ele>
        <time>2018-09-02T07:45:27Z</time>
      </trkpt>
      <trkpt lat="43.00524" lon="-0.11351">
        <ele>648.6</ele>
        <time>2018-09-02T07:45:28Z</time>
      </trkpt>
      <trkpt lat="43.00527" lon="-0.1135">
        <ele>648.2</ele>
        <time>2018-09-02T07:45:29Z</time>
      </trkpt>
      <trkpt lat="43.00531" lon="-0.11346">
        <ele>646.9</ele>
        <time>2018-09-02T07:45:30Z</time>
      </trkpt>
      <trkpt lat="43.00535" lon="-0.11344">
        <ele>646.1</ele>
        <time>2018-09-02T07:45:31Z</time>
      </trkpt>
      <trkpt lat="43.00536" lon="-0.11341">
        <ele>645.2</ele>
        <time>2018-09-02T07:45:32Z</time>
      </trkpt>
      <trkpt lat="43.00536" lon="-0.11338">
        <ele>644.6</ele>
        <time>2018-09-02T07:45:33Z</time>
      </trkpt>
      <trkpt lat="43.00536" lon="-0.11335">
        <ele>643.9</ele>
        <time>2018-09-02T07:45:34Z</time>
      </trkpt>
      <trkpt lat="43.00537" lon="-0.11331">
        <ele>643</ele>
        <time>2018-09-02T07:45:35Z</time>
      </trkpt>
      <trkpt lat="43.00537" lon="-0.11326">
        <ele>642.1</ele>
        <time>2018-09-02T07:45:36Z</time>
      </trkpt>
      <trkpt lat="43.00537" lon="-0.1132">
        <ele>641</ele>
        <time>2018-09-02T07:45:37Z</time>
      </trkpt>
      <trkpt lat="43.00535" lon="-0.11314">
        <ele>640.1</ele>
        <time>2018-09-02T07:45:38Z</time>
      </trkpt>
      <trkpt lat="43.00533" lon="-0.11307">
        <ele>639.1</ele>
        <time>2018-09-02T07:45:39Z</time>
      </trkpt>
      <trkpt lat="43.00531" lon="-0.11301">
        <ele>638.2</ele>
        <time>2018-09-02T07:45:40Z</time>
      </trkpt>
      <trkpt lat="43.00531" lon="-0.11294">
        <ele>637.2</ele>
        <time>2018-09-02T07:45:41Z</time>
      </trkpt>
      <trkpt lat="43.00534" lon="-0.11288">
        <ele>636.3</ele>
        <time>2018-09-02T07:45:42Z</time>
      </trkpt>
      <trkpt lat="43.00539" lon="-0.11282">
        <ele>635.5</ele>
        <time>2018-09-02T07:45:43Z</time>
      </trkpt>
      <trkpt lat="43.00544" lon="-0.11276">
        <ele>634.9</ele>
        <time>2018-09-02T07:45:44Z</time>
      </trkpt>
      <trkpt lat="43.0055" lon="-0.11268">
        <ele>634.3</ele>
        <time>2018-09-02T07:45:45Z</time>
      </trkpt>
      <trkpt lat="43.00556" lon="-0.11262">
        <ele>633.8</ele>
        <time>2018-09-02T07:45:46Z</time>
      </trkpt>
      <trkpt lat="43.00563" lon="-0.11257">
        <ele>633.4</ele>
        <time>2018-09-02T07:45:47Z</time>
      </trkpt>
      <trkpt lat="43.0057" lon="-0.11252">
        <ele>633.1</ele>
        <time>2018-09-02T07:45:48Z</time>
      </trkpt>
      <trkpt lat="43.00578" lon="-0.11249">
        <ele>633</ele>
        <time>2018-09-02T07:45:49Z</time>
      </trkpt>
      <trkpt lat="43.00586" lon="-0.11248">
        <ele>633.2</ele>
        <time>2018-09-02T07:45:50Z</time>
      </trkpt>
      <trkpt lat="43.00596" lon="-0.11247">
        <ele>633.6</ele>
        <time>2018-09-02T07:45:51Z</time>
      </trkpt>
      <trkpt lat="43.00605" lon="-0.11247">
        <ele>633.9</ele>
        <time>2018-09-02T07:45:52Z</time>
      </trkpt>
      <trkpt lat="43.00614" lon="-0.11248">
        <ele>634.2</ele>
        <time>2018-09-02T07:45:53Z</time>
      </trkpt>
      <trkpt lat="43.00661" lon="-0.11248">
        <ele>634.3</ele>
        <time>2018-09-02T07:45:59Z</time>
      </trkpt>
      <trkpt lat="43.00712" lon="-0.11234">
        <ele>634.3</ele>
        <time>2018-09-02T07:46:06Z</time>
      </trkpt>
      <trkpt lat="43.00739" lon="-0.11225">
        <ele>634.2</ele>
        <time>2018-09-02T07:46:10Z</time>
      </trkpt>
      <trkpt lat="43.00773" lon="-0.11209">
        <ele>634.6</ele>
        <time>2018-09-02T07:46:16Z</time>
      </trkpt>
      <trkpt lat="43.00784" lon="-0.11206">
        <ele>634.6</ele>
        <time>2018-09-02T07:46:18Z</time>
      </trkpt>
      <trkpt lat="43.00796" lon="-0.11205">
        <ele>634.3</ele>
        <time>2018-09-02T07:46:20Z</time>
      </trkpt>
      <trkpt lat="43.00802" lon="-0.11205">
        <ele>634</ele>
        <time>2018-09-02T07:46:21Z</time>
      </trkpt>
      <trkpt lat="43.00814" lon="-0.11204">
        <ele>633.4</ele>
        <time>2018-09-02T07:46:23Z</time>
      </trkpt>
      <trkpt lat="43.0082" lon="-0.11202">
        <ele>633.1</ele>
        <time>2018-09-02T07:46:24Z</time>
      </trkpt>
      <trkpt lat="43.00826" lon="-0.112">
        <ele>632.9</ele>
        <time>2018-09-02T07:46:25Z</time>
      </trkpt>
      <trkpt lat="43.00833" lon="-0.11197">
        <ele>632.7</ele>
        <time>2018-09-02T07:46:26Z</time>
      </trkpt>
      <trkpt lat="43.00841" lon="-0.11193">
        <ele>632.6</ele>
        <time>2018-09-02T07:46:27Z</time>
      </trkpt>
      <trkpt lat="43.00848" lon="-0.11189">
        <ele>632.5</ele>
        <time>2018-09-02T07:46:28Z</time>
      </trkpt>
      <trkpt lat="43.00856" lon="-0.11184">
        <ele>632.6</ele>
        <time>2018-09-02T07:46:29Z</time>
      </trkpt>
      <trkpt lat="43.00863" lon="-0.11177">
        <ele>632.8</ele>
        <time>2018-09-02T07:46:30Z</time>
      </trkpt>
      <trkpt lat="43.0087" lon="-0.11172">
        <ele>633.1</ele>
        <time>2018-09-02T07:46:31Z</time>
      </trkpt>
      <trkpt lat="43.00877" lon="-0.11167">
        <ele>633.4</ele>
        <time>2018-09-02T07:46:32Z</time>
      </trkpt>
      <trkpt lat="43.00897" lon="-0.11153">
        <ele>633.9</ele>
        <time>2018-09-02T07:46:35Z</time>
      </trkpt>
      <trkpt lat="43.00928" lon="-0.11135">
        <ele>633.8</ele>
        <time>2018-09-02T07:46:40Z</time>
      </trkpt>
      <trkpt lat="43.00933" lon="-0.1113">
        <ele>634.1</ele>
        <time>2018-09-02T07:46:41Z</time>
      </trkpt>
      <trkpt lat="43.0095" lon="-0.11116">
        <ele>634.7</ele>
        <time>2018-09-02T07:46:44Z</time>
      </trkpt>
      <trkpt lat="43.00956" lon="-0.11113">
        <ele>634.5</ele>
        <time>2018-09-02T07:46:45Z</time>
      </trkpt>
      <trkpt lat="43.00988" lon="-0.11097">
        <ele>632.2</ele>
        <time>2018-09-02T07:46:50Z</time>
      </trkpt>
      <trkpt lat="43.01" lon="-0.11086">
        <ele>630.9</ele>
        <time>2018-09-02T07:46:52Z</time>
      </trkpt>
      <trkpt lat="43.01006" lon="-0.11079">
        <ele>629.8</ele>
        <time>2018-09-02T07:46:53Z</time>
      </trkpt>
      <trkpt lat="43.01013" lon="-0.11074">
        <ele>628.4</ele>
        <time>2018-09-02T07:46:54Z</time>
      </trkpt>
      <trkpt lat="43.0102" lon="-0.11071">
        <ele>626.8</ele>
        <time>2018-09-02T07:46:55Z</time>
      </trkpt>
      <trkpt lat="43.01027" lon="-0.11069">
        <ele>625.1</ele>
        <time>2018-09-02T07:46:56Z</time>
      </trkpt>
      <trkpt lat="43.01035" lon="-0.1107">
        <ele>623.7</ele>
        <time>2018-09-02T07:46:57Z</time>
      </trkpt>
      <trkpt lat="43.01042" lon="-0.11072">
        <ele>622.6</ele>
        <time>2018-09-02T07:46:58Z</time>
      </trkpt>
      <trkpt lat="43.0105" lon="-0.11076">
        <ele>621.5</ele>
        <time>2018-09-02T07:46:59Z</time>
      </trkpt>
      <trkpt lat="43.01058" lon="-0.11079">
        <ele>620.4</ele>
        <time>2018-09-02T07:47:00Z</time>
      </trkpt>
      <trkpt lat="43.01068" lon="-0.11081">
        <ele>619.6</ele>
        <time>2018-09-02T07:47:02Z</time>
      </trkpt>
      <trkpt lat="43.01077" lon="-0.11084">
        <ele>618.8</ele>
        <time>2018-09-02T07:47:03Z</time>
      </trkpt>
      <trkpt lat="43.01086" lon="-0.11088">
        <ele>618</ele>
        <time>2018-09-02T07:47:04Z</time>
      </trkpt>
      <trkpt lat="43.01095" lon="-0.11095">
        <ele>617.6</ele>
        <time>2018-09-02T07:47:05Z</time>
      </trkpt>
      <trkpt lat="43.01103" lon="-0.11104">
        <ele>617.3</ele>
        <time>2018-09-02T07:47:06Z</time>
      </trkpt>
      <trkpt lat="43.01111" lon="-0.11111">
        <ele>617</ele>
        <time>2018-09-02T07:47:07Z</time>
      </trkpt>
      <trkpt lat="43.01119" lon="-0.11116">
        <ele>616.9</ele>
        <time>2018-09-02T07:47:08Z</time>
      </trkpt>
      <trkpt lat="43.01127" lon="-0.11116">
        <ele>616.6</ele>
        <time>2018-09-02T07:47:09Z</time>
      </trkpt>
      <trkpt lat="43.01149" lon="-0.11106">
        <ele>616.5</ele>
        <time>2018-09-02T07:47:12Z</time>
      </trkpt>
      <trkpt lat="43.01168" lon="-0.11091">
        <ele>617.4</ele>
        <time>2018-09-02T07:47:15Z</time>
      </trkpt>
      <trkpt lat="43.01174" lon="-0.11084">
        <ele>617.6</ele>
        <time>2018-09-02T07:47:16Z</time>
      </trkpt>
      <trkpt lat="43.0118" lon="-0.11077">
        <ele>617.7</ele>
        <time>2018-09-02T07:47:17Z</time>
      </trkpt>
      <trkpt lat="43.01185" lon="-0.11071">
        <ele>617.9</ele>
        <time>2018-09-02T07:47:18Z</time>
      </trkpt>
      <trkpt lat="43.0119" lon="-0.11065">
        <ele>618</ele>
        <time>2018-09-02T07:47:19Z</time>
      </trkpt>
      <trkpt lat="43.01199" lon="-0.11057">
        <ele>618.2</ele>
        <time>2018-09-02T07:47:21Z</time>
      </trkpt>
      <trkpt lat="43.01205" lon="-0.11056">
        <ele>618.4</ele>
        <time>2018-09-02T07:47:22Z</time>
      </trkpt>
      <trkpt lat="43.01214" lon="-0.11058">
        <ele>618.8</ele>
        <time>2018-09-02T07:47:24Z</time>
      </trkpt>
      <trkpt lat="43.01218" lon="-0.11056">
        <ele>618.9</ele>
        <time>2018-09-02T07:47:25Z</time>
      </trkpt>
      <trkpt lat="43.01221" lon="-0.11052">
        <ele>618.9</ele>
        <time>2018-09-02T07:47:26Z</time>
      </trkpt>
      <trkpt lat="43.01223" lon="-0.11048">
        <ele>619.1</ele>
        <time>2018-09-02T07:47:27Z</time>
      </trkpt>
      <trkpt lat="43.01226" lon="-0.11043">
        <ele>619.2</ele>
        <time>2018-09-02T07:47:28Z</time>
      </trkpt>
      <trkpt lat="43.01228" lon="-0.11038">
        <ele>619.3</ele>
        <time>2018-09-02T07:47:29Z</time>
      </trkpt>
      <trkpt lat="43.01231" lon="-0.11033">
        <ele>619.4</ele>
        <time>2018-09-02T07:47:30Z</time>
      </trkpt>
      <trkpt lat="43.01233" lon="-0.11027">
        <ele>619.4</ele>
        <time>2018-09-02T07:47:31Z</time>
      </trkpt>
      <trkpt lat="43.01235" lon="-0.11021">
        <ele>619.2</ele>
        <time>2018-09-02T07:47:32Z</time>
      </trkpt>
      <trkpt lat="43.01239" lon="-0.11017">
        <ele>619.2</ele>
        <time>2018-09-02T07:47:33Z</time>
      </trkpt>
      <trkpt lat="43.01246" lon="-0.11008">
        <ele>619.2</ele>
        <time>2018-09-02T07:47:35Z</time>
      </trkpt>
      <trkpt lat="43.01259" lon="-0.10993">
        <ele>619.3</ele>
        <time>2018-09-02T07:47:38Z</time>
      </trkpt>
      <trkpt lat="43.01262" lon="-0.10987">
        <ele>619.2</ele>
        <time>2018-09-02T07:47:39Z</time>
      </trkpt>
      <trkpt lat="43.01261" lon="-0.10965">
        <ele>617.9</ele>
        <time>2018-09-02T07:47:42Z</time>
      </trkpt>
      <trkpt lat="43.01261" lon="-0.10957">
        <ele>617.3</ele>
        <time>2018-09-02T07:47:43Z</time>
      </trkpt>
      <trkpt lat="43.01264" lon="-0.10951">
        <ele>617</ele>
        <time>2018-09-02T07:47:44Z</time>
      </trkpt>
      <trkpt lat="43.01269" lon="-0.10947">
        <ele>616.8</ele>
        <time>2018-09-02T07:47:45Z</time>
      </trkpt>
      <trkpt lat="43.01274" lon="-0.10942">
        <ele>616.5</ele>
        <time>2018-09-02T07:47:46Z</time>
      </trkpt>
      <trkpt lat="43.0128" lon="-0.10937">
        <ele>616.2</ele>
        <time>2018-09-02T07:47:47Z</time>
      </trkpt>
      <trkpt lat="43.01286" lon="-0.10932">
        <ele>616.3</ele>
        <time>2018-09-02T07:47:48Z</time>
      </trkpt>
      <trkpt lat="43.01292" lon="-0.10927">
        <ele>616.6</ele>
        <time>2018-09-02T07:47:49Z</time>
      </trkpt>
      <trkpt lat="43.01297" lon="-0.1092">
        <ele>616.8</ele>
        <time>2018-09-02T07:47:50Z</time>
      </trkpt>
      <trkpt lat="43.01302" lon="-0.10912">
        <ele>616.7</ele>
        <time>2018-09-02T07:47:51Z</time>
      </trkpt>
      <trkpt lat="43.01306" lon="-0.10903">
        <ele>616.1</ele>
        <time>2018-09-02T07:47:52Z</time>
      </trkpt>
      <trkpt lat="43.01312" lon="-0.10885">
        <ele>615.6</ele>
        <time>2018-09-02T07:47:54Z</time>
      </trkpt>
      <trkpt lat="43.01321" lon="-0.10855">
        <ele>614</ele>
        <time>2018-09-02T07:47:57Z</time>
      </trkpt>
      <trkpt lat="43.01324" lon="-0.10845">
        <ele>613.3</ele>
        <time>2018-09-02T07:47:58Z</time>
      </trkpt>
      <trkpt lat="43.01328" lon="-0.10834">
        <ele>613.1</ele>
        <time>2018-09-02T07:47:59Z</time>
      </trkpt>
      <trkpt lat="43.01332" lon="-0.10823">
        <ele>612.7</ele>
        <time>2018-09-02T07:48:00Z</time>
      </trkpt>
      <trkpt lat="43.01336" lon="-0.10812">
        <ele>612.3</ele>
        <time>2018-09-02T07:48:01Z</time>
      </trkpt>
      <trkpt lat="43.01338" lon="-0.10799">
        <ele>612</ele>
        <time>2018-09-02T07:48:02Z</time>
      </trkpt>
      <trkpt lat="43.01339" lon="-0.10787">
        <ele>611.6</ele>
        <time>2018-09-02T07:48:03Z</time>
      </trkpt>
      <trkpt lat="43.01338" lon="-0.10774">
        <ele>610.7</ele>
        <time>2018-09-02T07:48:04Z</time>
      </trkpt>
      <trkpt lat="43.01338" lon="-0.10762">
        <ele>610</ele>
        <time>2018-09-02T07:48:05Z</time>
      </trkpt>
      <trkpt lat="43.01338" lon="-0.10749">
        <ele>609.5</ele>
        <time>2018-09-02T07:48:06Z</time>
      </trkpt>
      <trkpt lat="43.0134" lon="-0.10738">
        <ele>609</ele>
        <time>2018-09-02T07:48:07Z</time>
      </trkpt>
      <trkpt lat="43.01344" lon="-0.10727">
        <ele>609.3</ele>
        <time>2018-09-02T07:48:08Z</time>
      </trkpt>
      <trkpt lat="43.01349" lon="-0.10718">
        <ele>609.6</ele>
        <time>2018-09-02T07:48:09Z</time>
      </trkpt>
      <trkpt lat="43.01354" lon="-0.10707">
        <ele>609.6</ele>
        <time>2018-09-02T07:48:10Z</time>
      </trkpt>
      <trkpt lat="43.01362" lon="-0.10687">
        <ele>608.9</ele>
        <time>2018-09-02T07:48:12Z</time>
      </trkpt>
      <trkpt lat="43.01382" lon="-0.10644">
        <ele>608.6</ele>
        <time>2018-09-02T07:48:17Z</time>
      </trkpt>
      <trkpt lat="43.01393" lon="-0.10622">
        <ele>608.3</ele>
        <time>2018-09-02T07:48:20Z</time>
      </trkpt>
      <trkpt lat="43.01402" lon="-0.10601">
        <ele>607.7</ele>
        <time>2018-09-02T07:48:23Z</time>
      </trkpt>
      <trkpt lat="43.01415" lon="-0.10583">
        <ele>609.3</ele>
        <time>2018-09-02T07:48:26Z</time>
      </trkpt>
      <trkpt lat="43.01424" lon="-0.10573">
        <ele>610.7</ele>
        <time>2018-09-02T07:48:28Z</time>
      </trkpt>
      <trkpt lat="43.01428" lon="-0.10567">
        <ele>610.9</ele>
        <time>2018-09-02T07:48:29Z</time>
      </trkpt>
      <trkpt lat="43.01431" lon="-0.10562">
        <ele>611.2</ele>
        <time>2018-09-02T07:48:30Z</time>
      </trkpt>
      <trkpt lat="43.01435" lon="-0.10556">
        <ele>611.3</ele>
        <time>2018-09-02T07:48:31Z</time>
      </trkpt>
      <trkpt lat="43.01438" lon="-0.1055">
        <ele>611.4</ele>
        <time>2018-09-02T07:48:32Z</time>
      </trkpt>
      <trkpt lat="43.01443" lon="-0.10544">
        <ele>611.9</ele>
        <time>2018-09-02T07:48:33Z</time>
      </trkpt>
      <trkpt lat="43.01454" lon="-0.1053">
        <ele>612.7</ele>
        <time>2018-09-02T07:48:35Z</time>
      </trkpt>
      <trkpt lat="43.01476" lon="-0.10498">
        <ele>612.7</ele>
        <time>2018-09-02T07:48:40Z</time>
      </trkpt>
      <trkpt lat="43.01481" lon="-0.10492">
        <ele>612.4</ele>
        <time>2018-09-02T07:48:41Z</time>
      </trkpt>
      <trkpt lat="43.01505" lon="-0.10461">
        <ele>608.7</ele>
        <time>2018-09-02T07:48:46Z</time>
      </trkpt>
      <trkpt lat="43.01506" lon="-0.10454">
        <ele>607.3</ele>
        <time>2018-09-02T07:48:47Z</time>
      </trkpt>
      <trkpt lat="43.01506" lon="-0.10447">
        <ele>605.1</ele>
        <time>2018-09-02T07:48:48Z</time>
      </trkpt>
      <trkpt lat="43.01506" lon="-0.10442">
        <ele>603.8</ele>
        <time>2018-09-02T07:48:49Z</time>
      </trkpt>
      <trkpt lat="43.01509" lon="-0.10439">
        <ele>603.3</ele>
        <time>2018-09-02T07:48:50Z</time>
      </trkpt>
      <trkpt lat="43.01513" lon="-0.10435">
        <ele>603</ele>
        <time>2018-09-02T07:48:51Z</time>
      </trkpt>
      <trkpt lat="43.01517" lon="-0.10432">
        <ele>602.8</ele>
        <time>2018-09-02T07:48:52Z</time>
      </trkpt>
      <trkpt lat="43.01522" lon="-0.10428">
        <ele>602.6</ele>
        <time>2018-09-02T07:48:53Z</time>
      </trkpt>
      <trkpt lat="43.01527" lon="-0.10424">
        <ele>602.2</ele>
        <time>2018-09-02T07:48:54Z</time>
      </trkpt>
      <trkpt lat="43.01533" lon="-0.10418">
        <ele>601.7</ele>
        <time>2018-09-02T07:48:55Z</time>
      </trkpt>
      <trkpt lat="43.01539" lon="-0.10412">
        <ele>601.2</ele>
        <time>2018-09-02T07:48:56Z</time>
      </trkpt>
      <trkpt lat="43.01544" lon="-0.10407">
        <ele>600.9</ele>
        <time>2018-09-02T07:48:57Z</time>
      </trkpt>
      <trkpt lat="43.01549" lon="-0.10401">
        <ele>599.7</ele>
        <time>2018-09-02T07:48:58Z</time>
      </trkpt>
      <trkpt lat="43.01552" lon="-0.10394">
        <ele>598.2</ele>
        <time>2018-09-02T07:48:59Z</time>
      </trkpt>
      <trkpt lat="43.01555" lon="-0.10389">
        <ele>597</ele>
        <time>2018-09-02T07:49:00Z</time>
      </trkpt>
      <trkpt lat="43.01555" lon="-0.10386">
        <ele>595.9</ele>
        <time>2018-09-02T07:49:01Z</time>
      </trkpt>
      <trkpt lat="43.01555" lon="-0.10383">
        <ele>594.8</ele>
        <time>2018-09-02T07:49:02Z</time>
      </trkpt>
      <trkpt lat="43.01555" lon="-0.10378">
        <ele>593.5</ele>
        <time>2018-09-02T07:49:03Z</time>
      </trkpt>
      <trkpt lat="43.01556" lon="-0.10374">
        <ele>592.3</ele>
        <time>2018-09-02T07:49:04Z</time>
      </trkpt>
      <trkpt lat="43.01558" lon="-0.1037">
        <ele>591.4</ele>
        <time>2018-09-02T07:49:05Z</time>
      </trkpt>
      <trkpt lat="43.01561" lon="-0.10365">
        <ele>590.4</ele>
        <time>2018-09-02T07:49:06Z</time>
      </trkpt>
      <trkpt lat="43.01564" lon="-0.10361">
        <ele>589.4</ele>
        <time>2018-09-02T07:49:07Z</time>
      </trkpt>
      <trkpt lat="43.01568" lon="-0.10355">
        <ele>587.9</ele>
        <time>2018-09-02T07:49:08Z</time>
      </trkpt>
      <trkpt lat="43.01573" lon="-0.10351">
        <ele>587.4</ele>
        <time>2018-09-02T07:49:09Z</time>
      </trkpt>
      <trkpt lat="43.01578" lon="-0.10351">
        <ele>587.9</ele>
        <time>2018-09-02T07:49:10Z</time>
      </trkpt>
      <trkpt lat="43.01581" lon="-0.10352">
        <ele>589</ele>
        <time>2018-09-02T07:49:11Z</time>
      </trkpt>
      <trkpt lat="43.01588" lon="-0.10354">
        <ele>590.8</ele>
        <time>2018-09-02T07:49:13Z</time>
      </trkpt>
      <trkpt lat="43.01597" lon="-0.10359">
        <ele>594.8</ele>
        <time>2018-09-02T07:49:16Z</time>
      </trkpt>
      <trkpt lat="43.016" lon="-0.10361">
        <ele>595.9</ele>
        <time>2018-09-02T07:49:17Z</time>
      </trkpt>
      <trkpt lat="43.01603" lon="-0.10361">
        <ele>596.4</ele>
        <time>2018-09-02T07:49:18Z</time>
      </trkpt>
      <trkpt lat="43.01606" lon="-0.10361">
        <ele>597</ele>
        <time>2018-09-02T07:49:19Z</time>
      </trkpt>
      <trkpt lat="43.01609" lon="-0.10361">
        <ele>597.3</ele>
        <time>2018-09-02T07:49:20Z</time>
      </trkpt>
      <trkpt lat="43.0161" lon="-0.10359">
        <ele>596.7</ele>
        <time>2018-09-02T07:49:21Z</time>
      </trkpt>
      <trkpt lat="43.01612" lon="-0.10356">
        <ele>595.9</ele>
        <time>2018-09-02T07:49:22Z</time>
      </trkpt>
      <trkpt lat="43.01615" lon="-0.10353">
        <ele>594.9</ele>
        <time>2018-09-02T07:49:23Z</time>
      </trkpt>
      <trkpt lat="43.01619" lon="-0.1035">
        <ele>594.1</ele>
        <time>2018-09-02T07:49:24Z</time>
      </trkpt>
      <trkpt lat="43.01624" lon="-0.10347">
        <ele>593.7</ele>
        <time>2018-09-02T07:49:25Z</time>
      </trkpt>
      <trkpt lat="43.01632" lon="-0.10339">
        <ele>591.4</ele>
        <time>2018-09-02T07:49:27Z</time>
      </trkpt>
      <trkpt lat="43.01644" lon="-0.10327">
        <ele>588.1</ele>
        <time>2018-09-02T07:49:30Z</time>
      </trkpt>
      <trkpt lat="43.01648" lon="-0.10324">
        <ele>587.6</ele>
        <time>2018-09-02T07:49:31Z</time>
      </trkpt>
      <trkpt lat="43.01652" lon="-0.10321">
        <ele>587.1</ele>
        <time>2018-09-02T07:49:32Z</time>
      </trkpt>
      <trkpt lat="43.01658" lon="-0.10315">
        <ele>586</ele>
        <time>2018-09-02T07:49:33Z</time>
      </trkpt>
      <trkpt lat="43.01663" lon="-0.10311">
        <ele>585.2</ele>
        <time>2018-09-02T07:49:34Z</time>
      </trkpt>
      <trkpt lat="43.01668" lon="-0.10305">
        <ele>584</ele>
        <time>2018-09-02T07:49:35Z</time>
      </trkpt>
      <trkpt lat="43.01673" lon="-0.10299">
        <ele>582.6</ele>
        <time>2018-09-02T07:49:36Z</time>
      </trkpt>
      <trkpt lat="43.01677" lon="-0.10292">
        <ele>580.8</ele>
        <time>2018-09-02T07:49:37Z</time>
      </trkpt>
      <trkpt lat="43.01681" lon="-0.10283">
        <ele>578.7</ele>
        <time>2018-09-02T07:49:38Z</time>
      </trkpt>
      <trkpt lat="43.01683" lon="-0.10275">
        <ele>576.7</ele>
        <time>2018-09-02T07:49:39Z</time>
      </trkpt>
      <trkpt lat="43.01687" lon="-0.10268">
        <ele>575.3</ele>
        <time>2018-09-02T07:49:40Z</time>
      </trkpt>
      <trkpt lat="43.01689" lon="-0.10266">
        <ele>575.1</ele>
        <time>2018-09-02T07:49:41Z</time>
      </trkpt>
      <trkpt lat="43.0169" lon="-0.10264">
        <ele>574.9</ele>
        <time>2018-09-02T07:49:42Z</time>
      </trkpt>
      <trkpt lat="43.01695" lon="-0.10261">
        <ele>574.7</ele>
        <time>2018-09-02T07:49:44Z</time>
      </trkpt>
      <trkpt lat="43.01699" lon="-0.10255">
        <ele>573.6</ele>
        <time>2018-09-02T07:49:45Z</time>
      </trkpt>
      <trkpt lat="43.01704" lon="-0.10248">
        <ele>572.2</ele>
        <time>2018-09-02T07:49:46Z</time>
      </trkpt>
      <trkpt lat="43.01709" lon="-0.10244">
        <ele>571.4</ele>
        <time>2018-09-02T07:49:47Z</time>
      </trkpt>
      <trkpt lat="43.01712" lon="-0.10239">
        <ele>570.6</ele>
        <time>2018-09-02T07:49:48Z</time>
      </trkpt>
      <trkpt lat="43.01715" lon="-0.10236">
        <ele>570.1</ele>
        <time>2018-09-02T07:49:49Z</time>
      </trkpt>
      <trkpt lat="43.01717" lon="-0.10233">
        <ele>569.7</ele>
        <time>2018-09-02T07:49:50Z</time>
      </trkpt>
      <trkpt lat="43.01717" lon="-0.10229">
        <ele>568.8</ele>
        <time>2018-09-02T07:49:51Z</time>
      </trkpt>
      <trkpt lat="43.01718" lon="-0.10225">
        <ele>568</ele>
        <time>2018-09-02T07:49:52Z</time>
      </trkpt>
      <trkpt lat="43.01719" lon="-0.10221">
        <ele>567.1</ele>
        <time>2018-09-02T07:49:53Z</time>
      </trkpt>
      <trkpt lat="43.01721" lon="-0.10217">
        <ele>566.1</ele>
        <time>2018-09-02T07:49:54Z</time>
      </trkpt>
      <trkpt lat="43.01723" lon="-0.10213">
        <ele>564.9</ele>
        <time>2018-09-02T07:49:55Z</time>
      </trkpt>
      <trkpt lat="43.01726" lon="-0.10212">
        <ele>564.5</ele>
        <time>2018-09-02T07:49:56Z</time>
      </trkpt>
      <trkpt lat="43.01729" lon="-0.10211">
        <ele>563.9</ele>
        <time>2018-09-02T07:49:57Z</time>
      </trkpt>
      <trkpt lat="43.01732" lon="-0.10211">
        <ele>563.6</ele>
        <time>2018-09-02T07:49:58Z</time>
      </trkpt>
      <trkpt lat="43.01735" lon="-0.1021">
        <ele>563</ele>
        <time>2018-09-02T07:49:59Z</time>
      </trkpt>
      <trkpt lat="43.0174" lon="-0.1021">
        <ele>562.8</ele>
        <time>2018-09-02T07:50:00Z</time>
      </trkpt>
      <trkpt lat="43.01745" lon="-0.10212">
        <ele>563.1</ele>
        <time>2018-09-02T07:50:01Z</time>
      </trkpt>
      <trkpt lat="43.01751" lon="-0.10213">
        <ele>562.9</ele>
        <time>2018-09-02T07:50:02Z</time>
      </trkpt>
      <trkpt lat="43.01754" lon="-0.10216">
        <ele>563.2</ele>
        <time>2018-09-02T07:50:03Z</time>
      </trkpt>
      <trkpt lat="43.01758" lon="-0.10216">
        <ele>562.7</ele>
        <time>2018-09-02T07:50:04Z</time>
      </trkpt>
      <trkpt lat="43.01762" lon="-0.10212">
        <ele>560.6</ele>
        <time>2018-09-02T07:50:05Z</time>
      </trkpt>
      <trkpt lat="43.01765" lon="-0.10208">
        <ele>559</ele>
        <time>2018-09-02T07:50:06Z</time>
      </trkpt>
      <trkpt lat="43.01769" lon="-0.10207">
        <ele>557.9</ele>
        <time>2018-09-02T07:50:07Z</time>
      </trkpt>
      <trkpt lat="43.01771" lon="-0.10208">
        <ele>558.1</ele>
        <time>2018-09-02T07:50:08Z</time>
      </trkpt>
      <trkpt lat="43.01773" lon="-0.1021">
        <ele>558.2</ele>
        <time>2018-09-02T07:50:09Z</time>
      </trkpt>
      <trkpt lat="43.01775" lon="-0.10212">
        <ele>558.7</ele>
        <time>2018-09-02T07:50:10Z</time>
      </trkpt>
      <trkpt lat="43.01777" lon="-0.10214">
        <ele>558.8</ele>
        <time>2018-09-02T07:50:11Z</time>
      </trkpt>
      <trkpt lat="43.01779" lon="-0.10215">
        <ele>558.6</ele>
        <time>2018-09-02T07:50:12Z</time>
      </trkpt>
      <trkpt lat="43.01781" lon="-0.10216">
        <ele>558.6</ele>
        <time>2018-09-02T07:50:13Z</time>
      </trkpt>
      <trkpt lat="43.01783" lon="-0.10219">
        <ele>559.1</ele>
        <time>2018-09-02T07:50:14Z</time>
      </trkpt>
      <trkpt lat="43.01787" lon="-0.1022">
        <ele>558.8</ele>
        <time>2018-09-02T07:50:15Z</time>
      </trkpt>
      <trkpt lat="43.01791" lon="-0.1022">
        <ele>558</ele>
        <time>2018-09-02T07:50:16Z</time>
      </trkpt>
      <trkpt lat="43.01795" lon="-0.10217">
        <ele>556.4</ele>
        <time>2018-09-02T07:50:17Z</time>
      </trkpt>
      <trkpt lat="43.018" lon="-0.10211">
        <ele>553.7</ele>
        <time>2018-09-02T07:50:18Z</time>
      </trkpt>
      <trkpt lat="43.01804" lon="-0.10205">
        <ele>551.1</ele>
        <time>2018-09-02T07:50:19Z</time>
      </trkpt>
      <trkpt lat="43.01807" lon="-0.10198">
        <ele>548.6</ele>
        <time>2018-09-02T07:50:20Z</time>
      </trkpt>
      <trkpt lat="43.0181" lon="-0.10191">
        <ele>546.3</ele>
        <time>2018-09-02T07:50:21Z</time>
      </trkpt>
      <trkpt lat="43.01812" lon="-0.10183">
        <ele>544</ele>
        <time>2018-09-02T07:50:22Z</time>
      </trkpt>
      <trkpt lat="43.01816" lon="-0.10172">
        <ele>540.7</ele>
        <time>2018-09-02T07:50:23Z</time>
      </trkpt>
      <trkpt lat="43.01819" lon="-0.10159">
        <ele>537.4</ele>
        <time>2018-09-02T07:50:24Z</time>
      </trkpt>
      <trkpt lat="43.01821" lon="-0.10149">
        <ele>534.9</ele>
        <time>2018-09-02T07:50:25Z</time>
      </trkpt>
      <trkpt lat="43.01833" lon="-0.10112">
        <ele>525.2</ele>
        <time>2018-09-02T07:50:26Z</time>
      </trkpt>
      <trkpt lat="43.0182" lon="-0.101">
        <ele>524</ele>
        <time>2018-09-02T07:50:26Z</time>
      </trkpt>
      <trkpt lat="43.01802" lon="-0.10093">
        <ele>524.2</ele>
        <time>2018-09-02T07:50:26Z</time>
      </trkpt>
      <trkpt lat="43.01782" lon="-0.10089">
        <ele>524.2</ele>
        <time>2018-09-02T07:50:26Z</time>
      </trkpt>
      <trkpt lat="43.01762" lon="-0.10083">
        <ele>522.5</ele>
        <time>2018-09-02T07:50:26Z</time>
      </trkpt>
      <trkpt lat="43.0174" lon="-0.1008">
        <ele>520.3</ele>
        <time>2018-09-02T07:50:26Z</time>
      </trkpt>
      <trkpt lat="43.01719" lon="-0.10078">
        <ele>519.6</ele>
        <time>2018-09-02T07:50:26Z</time>
      </trkpt>
      <trkpt lat="43.01702" lon="-0.10065">
        <ele>522.4</ele>
        <time>2018-09-02T07:50:26Z</time>
      </trkpt>
      <trkpt lat="43.01692" lon="-0.10044">
        <ele>525.8</ele>
        <time>2018-09-02T07:50:26Z</time>
      </trkpt>
      <trkpt lat="43.01684" lon="-0.10023">
        <ele>527.5</ele>
        <time>2018-09-02T07:50:26Z</time>
      </trkpt>
      <trkpt lat="43.01675" lon="-0.10003">
        <ele>526.7</ele>
        <time>2018-09-02T07:50:26Z</time>
      </trkpt>
      <trkpt lat="43.01661" lon="-0.09989">
        <ele>525.5</ele>
        <time>2018-09-02T07:50:26Z</time>
      </trkpt>
      <trkpt lat="43.0164" lon="-0.09985">
        <ele>521.8</ele>
        <time>2018-09-02T07:50:26Z</time>
      </trkpt>
      <trkpt lat="43.01617" lon="-0.09984">
        <ele>517</ele>
        <time>2018-09-02T07:50:26Z</time>
      </trkpt>
      <trkpt lat="43.01598" lon="-0.0999">
        <ele>516</ele>
        <time>2018-09-02T07:50:26Z</time>
      </trkpt>
      <trkpt lat="43.01543" lon="-0.10012">
        <ele>510.8</ele>
        <time>2018-09-02T07:50:26Z</time>
      </trkpt>
      <trkpt lat="43.01501" lon="-0.10053">
        <ele>511.6</ele>
        <time>2018-09-02T07:50:26Z</time>
      </trkpt>
      <trkpt lat="43.01458" lon="-0.10091">
        <ele>503.4</ele>
        <time>2018-09-02T07:50:26Z</time>
      </trkpt>
      <trkpt lat="43.01403" lon="-0.10116">
        <ele>501.1</ele>
        <time>2018-09-02T07:50:26Z</time>
      </trkpt>
      <trkpt lat="43.01344" lon="-0.10131">
        <ele>506.3</ele>
        <time>2018-09-02T07:50:26Z</time>
      </trkpt>
      <trkpt lat="43.01277" lon="-0.10137">
        <ele>502.4</ele>
        <time>2018-09-02T07:50:26Z</time>
      </trkpt>
      <trkpt lat="43.01211" lon="-0.10144">
        <ele>490.8</ele>
        <time>2018-09-02T07:50:26Z</time>
      </trkpt>
      <trkpt lat="43.01161" lon="-0.10172">
        <ele>486.3</ele>
        <time>2018-09-02T07:50:26Z</time>
      </trkpt>
      <trkpt lat="43.01099" lon="-0.10159">
        <ele>475.7</ele>
        <time>2018-09-02T07:50:26Z</time>
      </trkpt>
      <trkpt lat="43.01039" lon="-0.10141">
        <ele>471.3</ele>
        <time>2018-09-02T07:50:26Z</time>
      </trkpt>
      <trkpt lat="43.01001" lon="-0.10127">
        <ele>471.7</ele>
        <time>2018-09-02T07:50:26Z</time>
      </trkpt>
      <trkpt lat="43.0096" lon="-0.10121">
        <ele>471.1</ele>
        <time>2018-09-02T07:50:26Z</time>
      </trkpt>
      <trkpt lat="43.00925" lon="-0.10103">
        <ele>465.4</ele>
        <time>2018-09-02T07:50:26Z</time>
      </trkpt>
      <trkpt lat="43.00919" lon="-0.10048">
        <ele>457</ele>
        <time>2018-09-02T07:50:26Z</time>
      </trkpt>
      <trkpt lat="43.0091" lon="-0.09996">
        <ele>456</ele>
        <time>2018-09-02T07:50:26Z</time>
      </trkpt>
    </trkseg>
  </trk>
</gpx>